<?xml version='1.0' encoding='UTF-8'?><gpx version="1.1" creator="JPX - https://github.com/jenetics/jpx" xmlns="http://www.topografix.com/GPX/1/1"><trk><trkseg><trkpt lat="42.6045829" lon="11.9960304"><ele>316.00000000000006</ele><time>2026-04-12T07:33:05.906Z</time></trkpt><trkpt lat="42.6045469" lon="11.9961047"><ele>316.0</ele><time>2026-04-12T07:33:09.882Z</time></trkpt><trkpt lat="42.6045095" lon="11.9962088"><ele>316.0</ele><time>2026-04-12T07:33:15.887Z</time></trkpt><trkpt lat="42.6044441" lon="11.9962371"><ele>316.0</ele><time>2026-04-12T07:33:17.891Z</time></trkpt><trkpt lat="42.6043672" lon="11.9962693"><ele>316.0</ele><time>2026-04-12T07:33:19.892Z</time></trkpt><trkpt lat="42.604299" lon="11.9963009"><ele>316.00000000000006</ele><time>2026-04-12T07:33:21.896Z</time></trkpt><trkpt lat="42.6042447" lon="11.9963539"><ele>316.0</ele><time>2026-04-12T07:33:24.875Z</time></trkpt><trkpt lat="42.6041859" lon="11.9964012"><ele>315.7142857142857</ele><time>2026-04-12T07:33:47.883Z</time></trkpt><trkpt lat="42.6041706" lon="11.9965035"><ele>315.42857142857144</ele><time>2026-04-12T07:33:50.898Z</time></trkpt><trkpt lat="42.6042118" lon="11.9965715"><ele>315.1428571428571</ele><time>2026-04-12T07:33:54.896Z</time></trkpt><trkpt lat="42.6042634" lon="11.9966303"><ele>314.8571428571429</ele><time>2026-04-12T07:34:30.892Z</time></trkpt><trkpt lat="42.6042897" lon="11.9967195"><ele>314.57142857142856</ele><time>2026-04-12T07:34:36.897Z</time></trkpt><trkpt lat="42.6042994" lon="11.9968316"><ele>314.2857142857143</ele><time>2026-04-12T07:34:39.89Z</time></trkpt><trkpt lat="42.6043515" lon="11.9968816"><ele>314.0</ele><time>2026-04-12T07:35:55.9Z</time></trkpt><trkpt lat="42.6044224" lon="11.9969821"><ele>316.0</ele><time>2026-04-12T07:35:57.892Z</time></trkpt><trkpt lat="42.6045195" lon="11.9970958"><ele>318.0</ele><time>2026-04-12T07:35:59.893Z</time></trkpt><trkpt lat="42.6045782" lon="11.997132"><ele>320.0</ele><time>2026-04-12T07:36:00.897Z</time></trkpt><trkpt lat="42.6046494" lon="11.9971384"><ele>322.0</ele><time>2026-04-12T07:36:01.885Z</time></trkpt><trkpt lat="42.6047122" lon="11.9971078"><ele>324.0</ele><time>2026-04-12T07:36:02.897Z</time></trkpt><trkpt lat="42.6048215" lon="11.9970321"><ele>324.0</ele><time>2026-04-12T07:36:04.905Z</time></trkpt><trkpt lat="42.6048941" lon="11.9970304"><ele>324.0</ele><time>2026-04-12T07:36:05.888Z</time></trkpt><trkpt lat="42.6049661" lon="11.9970698"><ele>324.0</ele><time>2026-04-12T07:36:06.9Z</time></trkpt><trkpt lat="42.6050231" lon="11.9971326"><ele>324.0</ele><time>2026-04-12T07:36:07.887Z</time></trkpt><trkpt lat="42.6050724" lon="11.9972081"><ele>324.0</ele><time>2026-04-12T07:36:08.886Z</time></trkpt><trkpt lat="42.6051131" lon="11.9972989"><ele>324.0</ele><time>2026-04-12T07:36:09.887Z</time></trkpt><trkpt lat="42.6051569" lon="11.9973947"><ele>324.0</ele><time>2026-04-12T07:36:10.903Z</time></trkpt><trkpt lat="42.6052039" lon="11.9974863"><ele>324.0</ele><time>2026-04-12T07:36:11.891Z</time></trkpt><trkpt lat="42.6052531" lon="11.9975695"><ele>324.0</ele><time>2026-04-12T07:36:12.89Z</time></trkpt><trkpt lat="42.6053017" lon="11.9976615"><ele>324.0</ele><time>2026-04-12T07:36:13.89Z</time></trkpt><trkpt lat="42.605354" lon="11.9977594"><ele>324.0</ele><time>2026-04-12T07:36:14.896Z</time></trkpt><trkpt lat="42.6054086" lon="11.9978506"><ele>324.0</ele><time>2026-04-12T07:36:15.885Z</time></trkpt><trkpt lat="42.6054576" lon="11.9979476"><ele>326.3333333333333</ele><time>2026-04-12T07:36:16.884Z</time></trkpt><trkpt lat="42.6055025" lon="11.9980509"><ele>328.6666666666667</ele><time>2026-04-12T07:36:17.903Z</time></trkpt><trkpt lat="42.6055423" lon="11.9981449"><ele>331.0</ele><time>2026-04-12T07:36:18.892Z</time></trkpt><trkpt lat="42.6055731" lon="11.9982455"><ele>333.33333333333337</ele><time>2026-04-12T07:36:19.89Z</time></trkpt><trkpt lat="42.6055874" lon="11.9983442"><ele>335.6666666666667</ele><time>2026-04-12T07:36:20.892Z</time></trkpt><trkpt lat="42.6055841" lon="11.9984475"><ele>338.0</ele><time>2026-04-12T07:36:21.89Z</time></trkpt><trkpt lat="42.6055815" lon="11.9985496"><ele>340.59999999999997</ele><time>2026-04-12T07:36:22.901Z</time></trkpt><trkpt lat="42.6055918" lon="11.9986479"><ele>343.2</ele><time>2026-04-12T07:36:23.893Z</time></trkpt><trkpt lat="42.60562" lon="11.998742"><ele>345.8</ele><time>2026-04-12T07:36:24.895Z</time></trkpt><trkpt lat="42.6057287" lon="11.998781"><ele>348.4</ele><time>2026-04-12T07:36:26.894Z</time></trkpt><trkpt lat="42.6058617" lon="11.9987537"><ele>351.0</ele><time>2026-04-12T07:36:28.889Z</time></trkpt><trkpt lat="42.6059525" lon="11.9987481"><ele>351.0</ele><time>2026-04-12T07:36:29.892Z</time></trkpt><trkpt lat="42.6060307" lon="11.9987499"><ele>351.0</ele><time>2026-04-12T07:36:30.894Z</time></trkpt><trkpt lat="42.6061204" lon="11.9987718"><ele>351.0</ele><time>2026-04-12T07:36:31.891Z</time></trkpt><trkpt lat="42.6062033" lon="11.9988144"><ele>351.0</ele><time>2026-04-12T07:36:32.898Z</time></trkpt><trkpt lat="42.6062839" lon="11.9988755"><ele>351.0</ele><time>2026-04-12T07:36:33.907Z</time></trkpt><trkpt lat="42.60636" lon="11.9989489"><ele>351.0</ele><time>2026-04-12T07:36:34.911Z</time></trkpt><trkpt lat="42.6064201" lon="11.9990391"><ele>350.6</ele><time>2026-04-12T07:36:35.896Z</time></trkpt><trkpt lat="42.6064637" lon="11.9991373"><ele>350.20000000000005</ele><time>2026-04-12T07:36:36.907Z</time></trkpt><trkpt lat="42.6064942" lon="11.9992494"><ele>349.79999999999995</ele><time>2026-04-12T07:36:37.904Z</time></trkpt><trkpt lat="42.6065111" lon="11.9993727"><ele>349.4</ele><time>2026-04-12T07:36:38.898Z</time></trkpt><trkpt lat="42.6065209" lon="11.9995129"><ele>349.0</ele><time>2026-04-12T07:36:39.888Z</time></trkpt><trkpt lat="42.6065213" lon="11.9996589"><ele>349.0</ele><time>2026-04-12T07:36:40.898Z</time></trkpt><trkpt lat="42.6065249" lon="11.9998089"><ele>349.0</ele><time>2026-04-12T07:36:41.891Z</time></trkpt><trkpt lat="42.6065251" lon="11.999947"><ele>349.0</ele><time>2026-04-12T07:36:42.894Z</time></trkpt><trkpt lat="42.6065243" lon="12.0000815"><ele>349.0</ele><time>2026-04-12T07:36:43.889Z</time></trkpt><trkpt lat="42.6065263" lon="12.0002274"><ele>349.0</ele><time>2026-04-12T07:36:44.9Z</time></trkpt><trkpt lat="42.6065294" lon="12.0003662"><ele>349.0</ele><time>2026-04-12T07:36:45.898Z</time></trkpt><trkpt lat="42.6065234" lon="12.00049"><ele>349.0</ele><time>2026-04-12T07:36:46.889Z</time></trkpt><trkpt lat="42.6065024" lon="12.0005948"><ele>349.0</ele><time>2026-04-12T07:36:47.887Z</time></trkpt><trkpt lat="42.6064736" lon="12.0006807"><ele>349.0</ele><time>2026-04-12T07:36:48.897Z</time></trkpt><trkpt lat="42.606377" lon="12.0007599"><ele>349.0</ele><time>2026-04-12T07:36:50.905Z</time></trkpt><trkpt lat="42.6063084" lon="12.0007584"><ele>349.0</ele><time>2026-04-12T07:36:51.899Z</time></trkpt><trkpt lat="42.6062324" lon="12.0007515"><ele>351.0</ele><time>2026-04-12T07:36:52.888Z</time></trkpt><trkpt lat="42.6061509" lon="12.0007373"><ele>353.0</ele><time>2026-04-12T07:36:53.888Z</time></trkpt><trkpt lat="42.6060757" lon="12.0007274"><ele>355.0</ele><time>2026-04-12T07:36:54.891Z</time></trkpt><trkpt lat="42.6060089" lon="12.0007337"><ele>357.0</ele><time>2026-04-12T07:36:55.897Z</time></trkpt><trkpt lat="42.6059194" lon="12.0007811"><ele>359.0</ele><time>2026-04-12T07:36:57.889Z</time></trkpt><trkpt lat="42.6058858" lon="12.0009386"><ele>361.0</ele><time>2026-04-12T07:36:59.886Z</time></trkpt><trkpt lat="42.6058664" lon="12.0011033"><ele>363.5</ele><time>2026-04-12T07:37:01.889Z</time></trkpt><trkpt lat="42.6058692" lon="12.0012722"><ele>366.0</ele><time>2026-04-12T07:37:03.892Z</time></trkpt><trkpt lat="42.6058251" lon="12.0014225"><ele>368.5</ele><time>2026-04-12T07:37:05.895Z</time></trkpt><trkpt lat="42.6057554" lon="12.0015481"><ele>371.0</ele><time>2026-04-12T07:37:07.886Z</time></trkpt><trkpt lat="42.6057403" lon="12.0016755"><ele>372.4</ele><time>2026-04-12T07:37:09.905Z</time></trkpt><trkpt lat="42.6057632" lon="12.0018385"><ele>373.8</ele><time>2026-04-12T07:37:11.896Z</time></trkpt><trkpt lat="42.6057714" lon="12.0019452"><ele>375.2</ele><time>2026-04-12T07:37:12.896Z</time></trkpt><trkpt lat="42.6057785" lon="12.0020596"><ele>376.59999999999997</ele><time>2026-04-12T07:37:13.889Z</time></trkpt><trkpt lat="42.60579" lon="12.0021782"><ele>378.0</ele><time>2026-04-12T07:37:14.89Z</time></trkpt><trkpt lat="42.6057981" lon="12.002303"><ele>378.0</ele><time>2026-04-12T07:37:15.895Z</time></trkpt><trkpt lat="42.6058009" lon="12.0024259"><ele>378.0</ele><time>2026-04-12T07:37:16.895Z</time></trkpt><trkpt lat="42.6058003" lon="12.0025607"><ele>378.0</ele><time>2026-04-12T07:37:17.899Z</time></trkpt><trkpt lat="42.6057895" lon="12.0027016"><ele>378.0</ele><time>2026-04-12T07:37:18.891Z</time></trkpt><trkpt lat="42.6057841" lon="12.002838"><ele>378.0</ele><time>2026-04-12T07:37:19.896Z</time></trkpt><trkpt lat="42.6057935" lon="12.0029785"><ele>378.4</ele><time>2026-04-12T07:37:20.895Z</time></trkpt><trkpt lat="42.6058038" lon="12.0031112"><ele>378.79999999999995</ele><time>2026-04-12T07:37:21.904Z</time></trkpt><trkpt lat="42.6058116" lon="12.003258"><ele>379.2</ele><time>2026-04-12T07:37:22.895Z</time></trkpt><trkpt lat="42.6058281" lon="12.0033952"><ele>379.6</ele><time>2026-04-12T07:37:23.899Z</time></trkpt><trkpt lat="42.6058459" lon="12.0035348"><ele>380.0</ele><time>2026-04-12T07:37:24.899Z</time></trkpt><trkpt lat="42.6058711" lon="12.0036721"><ele>381.0</ele><time>2026-04-12T07:37:25.885Z</time></trkpt><trkpt lat="42.6059003" lon="12.0038066"><ele>382.0</ele><time>2026-04-12T07:37:26.891Z</time></trkpt><trkpt lat="42.6059363" lon="12.0039428"><ele>383.0</ele><time>2026-04-12T07:37:27.898Z</time></trkpt><trkpt lat="42.605971" lon="12.0040835"><ele>384.0</ele><time>2026-04-12T07:37:28.896Z</time></trkpt><trkpt lat="42.6060061" lon="12.0042332"><ele>385.0</ele><time>2026-04-12T07:37:29.89Z</time></trkpt><trkpt lat="42.606035" lon="12.0043812"><ele>385.2</ele><time>2026-04-12T07:37:30.89Z</time></trkpt><trkpt lat="42.6060705" lon="12.0045242"><ele>385.4</ele><time>2026-04-12T07:37:31.902Z</time></trkpt><trkpt lat="42.6061105" lon="12.0046656"><ele>385.6</ele><time>2026-04-12T07:37:32.891Z</time></trkpt><trkpt lat="42.6061547" lon="12.0047933"><ele>385.8</ele><time>2026-04-12T07:37:33.887Z</time></trkpt><trkpt lat="42.6061958" lon="12.0049143"><ele>386.0</ele><time>2026-04-12T07:37:34.894Z</time></trkpt><trkpt lat="42.6062326" lon="12.0050469"><ele>384.6</ele><time>2026-04-12T07:37:35.888Z</time></trkpt><trkpt lat="42.6062729" lon="12.0051731"><ele>383.20000000000005</ele><time>2026-04-12T07:37:36.897Z</time></trkpt><trkpt lat="42.6063148" lon="12.0053059"><ele>381.79999999999995</ele><time>2026-04-12T07:37:37.908Z</time></trkpt><trkpt lat="42.6063566" lon="12.0054474"><ele>380.4</ele><time>2026-04-12T07:37:38.897Z</time></trkpt><trkpt lat="42.6064002" lon="12.0055957"><ele>379.0</ele><time>2026-04-12T07:37:39.888Z</time></trkpt><trkpt lat="42.6064439" lon="12.0057492"><ele>381.0</ele><time>2026-04-12T07:37:40.888Z</time></trkpt><trkpt lat="42.6064847" lon="12.0059038"><ele>383.0</ele><time>2026-04-12T07:37:41.904Z</time></trkpt><trkpt lat="42.6065215" lon="12.0060654"><ele>385.0</ele><time>2026-04-12T07:37:42.884Z</time></trkpt><trkpt lat="42.6065662" lon="12.0062121"><ele>387.0</ele><time>2026-04-12T07:37:43.899Z</time></trkpt><trkpt lat="42.6066162" lon="12.0063492"><ele>387.0</ele><time>2026-04-12T07:37:44.889Z</time></trkpt><trkpt lat="42.6066703" lon="12.0064848"><ele>387.0</ele><time>2026-04-12T07:37:45.905Z</time></trkpt><trkpt lat="42.6067098" lon="12.0066139"><ele>387.0</ele><time>2026-04-12T07:37:46.897Z</time></trkpt><trkpt lat="42.6067381" lon="12.006747"><ele>387.0</ele><time>2026-04-12T07:37:47.89Z</time></trkpt><trkpt lat="42.6067539" lon="12.0068648"><ele>387.0</ele><time>2026-04-12T07:37:48.901Z</time></trkpt><trkpt lat="42.6067669" lon="12.0069675"><ele>388.42857142857144</ele><time>2026-04-12T07:37:49.904Z</time></trkpt><trkpt lat="42.6067713" lon="12.0070754"><ele>389.8571428571429</ele><time>2026-04-12T07:37:50.9Z</time></trkpt><trkpt lat="42.6067747" lon="12.0071704"><ele>391.2857142857143</ele><time>2026-04-12T07:37:51.897Z</time></trkpt><trkpt lat="42.6067761" lon="12.0072701"><ele>392.7142857142857</ele><time>2026-04-12T07:37:52.891Z</time></trkpt><trkpt lat="42.6067851" lon="12.0073666"><ele>394.1428571428571</ele><time>2026-04-12T07:37:53.902Z</time></trkpt><trkpt lat="42.6067959" lon="12.0074581"><ele>395.57142857142856</ele><time>2026-04-12T07:37:54.899Z</time></trkpt><trkpt lat="42.6068089" lon="12.0075531"><ele>397.0</ele><time>2026-04-12T07:37:55.907Z</time></trkpt><trkpt lat="42.6068165" lon="12.0076536"><ele>398.83333333333337</ele><time>2026-04-12T07:37:56.898Z</time></trkpt><trkpt lat="42.6068348" lon="12.0077591"><ele>400.6666666666667</ele><time>2026-04-12T07:37:57.891Z</time></trkpt><trkpt lat="42.6068467" lon="12.007853"><ele>402.5</ele><time>2026-04-12T07:37:58.897Z</time></trkpt><trkpt lat="42.6068604" lon="12.0079522"><ele>404.33333333333337</ele><time>2026-04-12T07:37:59.894Z</time></trkpt><trkpt lat="42.606876" lon="12.0080526"><ele>406.1666666666667</ele><time>2026-04-12T07:38:00.898Z</time></trkpt><trkpt lat="42.6068943" lon="12.0081639"><ele>408.0</ele><time>2026-04-12T07:38:01.892Z</time></trkpt><trkpt lat="42.6069195" lon="12.0082795"><ele>408.0</ele><time>2026-04-12T07:38:02.917Z</time></trkpt><trkpt lat="42.606943" lon="12.0083956"><ele>408.0</ele><time>2026-04-12T07:38:03.911Z</time></trkpt><trkpt lat="42.6069712" lon="12.0085187"><ele>408.0</ele><time>2026-04-12T07:38:04.893Z</time></trkpt><trkpt lat="42.6069967" lon="12.0086385"><ele>408.0</ele><time>2026-04-12T07:38:05.885Z</time></trkpt><trkpt lat="42.6070176" lon="12.0087614"><ele>408.0</ele><time>2026-04-12T07:38:06.891Z</time></trkpt><trkpt lat="42.6070506" lon="12.0088789"><ele>408.0</ele><time>2026-04-12T07:38:07.894Z</time></trkpt><trkpt lat="42.6070855" lon="12.0089895"><ele>408.0</ele><time>2026-04-12T07:38:08.903Z</time></trkpt><trkpt lat="42.6071206" lon="12.0090627"><ele>408.0</ele><time>2026-04-12T07:38:09.899Z</time></trkpt><trkpt lat="42.6072105" lon="12.0091297"><ele>408.0</ele><time>2026-04-12T07:38:11.894Z</time></trkpt><trkpt lat="42.6072908" lon="12.0091039"><ele>408.0</ele><time>2026-04-12T07:38:13.882Z</time></trkpt><trkpt lat="42.6073818" lon="12.0090175"><ele>408.0</ele><time>2026-04-12T07:38:15.883Z</time></trkpt><trkpt lat="42.6074851" lon="12.0089192"><ele>408.0</ele><time>2026-04-12T07:38:17.889Z</time></trkpt><trkpt lat="42.6075362" lon="12.0088674"><ele>408.0</ele><time>2026-04-12T07:38:18.889Z</time></trkpt><trkpt lat="42.6075867" lon="12.0088029"><ele>408.0</ele><time>2026-04-12T07:38:19.898Z</time></trkpt><trkpt lat="42.6076364" lon="12.0087364"><ele>408.0</ele><time>2026-04-12T07:38:20.887Z</time></trkpt><trkpt lat="42.6076821" lon="12.0086653"><ele>408.0</ele><time>2026-04-12T07:38:21.906Z</time></trkpt><trkpt lat="42.6077263" lon="12.0085848"><ele>408.0</ele><time>2026-04-12T07:38:22.887Z</time></trkpt><trkpt lat="42.6077781" lon="12.0084915"><ele>408.0</ele><time>2026-04-12T07:38:23.89Z</time></trkpt><trkpt lat="42.6078167" lon="12.0084029"><ele>410.0</ele><time>2026-04-12T07:38:24.891Z</time></trkpt><trkpt lat="42.6078504" lon="12.0083173"><ele>412.0</ele><time>2026-04-12T07:38:25.887Z</time></trkpt><trkpt lat="42.6078907" lon="12.008239"><ele>414.0</ele><time>2026-04-12T07:38:26.881Z</time></trkpt><trkpt lat="42.6079306" lon="12.0081615"><ele>416.0</ele><time>2026-04-12T07:38:27.898Z</time></trkpt><trkpt lat="42.607982" lon="12.0080951"><ele>418.0</ele><time>2026-04-12T07:38:28.914Z</time></trkpt><trkpt lat="42.6080437" lon="12.0080473"><ele>420.0</ele><time>2026-04-12T07:38:29.888Z</time></trkpt><trkpt lat="42.6081169" lon="12.0080126"><ele>422.0</ele><time>2026-04-12T07:38:30.888Z</time></trkpt><trkpt lat="42.6081975" lon="12.007991"><ele>421.99999999999994</ele><time>2026-04-12T07:38:31.889Z</time></trkpt><trkpt lat="42.6082721" lon="12.0079725"><ele>422.0</ele><time>2026-04-12T07:38:32.897Z</time></trkpt><trkpt lat="42.6083403" lon="12.0079509"><ele>422.0</ele><time>2026-04-12T07:38:33.89Z</time></trkpt><trkpt lat="42.608407" lon="12.0079278"><ele>422.0</ele><time>2026-04-12T07:38:34.896Z</time></trkpt><trkpt lat="42.6084821" lon="12.0078945"><ele>421.99999999999994</ele><time>2026-04-12T07:38:35.897Z</time></trkpt><trkpt lat="42.6085514" lon="12.0078656"><ele>422.0</ele><time>2026-04-12T07:38:36.891Z</time></trkpt><trkpt lat="42.6086336" lon="12.007828"><ele>422.8333333333333</ele><time>2026-04-12T07:38:37.905Z</time></trkpt><trkpt lat="42.608715" lon="12.0078059"><ele>423.66666666666663</ele><time>2026-04-12T07:38:38.896Z</time></trkpt><trkpt lat="42.6087979" lon="12.0078059"><ele>424.5</ele><time>2026-04-12T07:38:39.895Z</time></trkpt><trkpt lat="42.6088838" lon="12.0078129"><ele>425.33333333333337</ele><time>2026-04-12T07:38:40.889Z</time></trkpt><trkpt lat="42.6089677" lon="12.0078297"><ele>426.1666666666667</ele><time>2026-04-12T07:38:41.898Z</time></trkpt><trkpt lat="42.6090472" lon="12.0078634"><ele>427.0</ele><time>2026-04-12T07:38:42.89Z</time></trkpt><trkpt lat="42.6091285" lon="12.0078999"><ele>427.0</ele><time>2026-04-12T07:38:43.897Z</time></trkpt><trkpt lat="42.6092262" lon="12.0079263"><ele>427.00000000000006</ele><time>2026-04-12T07:38:44.878Z</time></trkpt><trkpt lat="42.6093292" lon="12.0079299"><ele>427.00000000000006</ele><time>2026-04-12T07:38:45.887Z</time></trkpt><trkpt lat="42.6094368" lon="12.007924"><ele>427.0</ele><time>2026-04-12T07:38:46.89Z</time></trkpt><trkpt lat="42.609549" lon="12.0079472"><ele>427.0</ele><time>2026-04-12T07:38:47.886Z</time></trkpt><trkpt lat="42.6096594" lon="12.0079747"><ele>426.6</ele><time>2026-04-12T07:38:48.896Z</time></trkpt><trkpt lat="42.6097668" lon="12.0079985"><ele>426.20000000000005</ele><time>2026-04-12T07:38:49.89Z</time></trkpt><trkpt lat="42.6098676" lon="12.0080402"><ele>425.8</ele><time>2026-04-12T07:38:50.89Z</time></trkpt><trkpt lat="42.6099606" lon="12.0080918"><ele>425.4</ele><time>2026-04-12T07:38:51.888Z</time></trkpt><trkpt lat="42.6100538" lon="12.0081555"><ele>425.0</ele><time>2026-04-12T07:38:52.887Z</time></trkpt><trkpt lat="42.6101501" lon="12.0082174"><ele>425.0</ele><time>2026-04-12T07:38:53.896Z</time></trkpt><trkpt lat="42.6102575" lon="12.0082535"><ele>425.0</ele><time>2026-04-12T07:38:54.905Z</time></trkpt><trkpt lat="42.6103799" lon="12.00827"><ele>425.0</ele><time>2026-04-12T07:38:55.897Z</time></trkpt><trkpt lat="42.6105099" lon="12.0082903"><ele>425.0</ele><time>2026-04-12T07:38:56.903Z</time></trkpt><trkpt lat="42.6106329" lon="12.0083004"><ele>424.5</ele><time>2026-04-12T07:38:57.891Z</time></trkpt><trkpt lat="42.610745" lon="12.0083187"><ele>424.0</ele><time>2026-04-12T07:38:58.891Z</time></trkpt><trkpt lat="42.6108595" lon="12.0083257"><ele>423.5</ele><time>2026-04-12T07:38:59.885Z</time></trkpt><trkpt lat="42.610973" lon="12.0083197"><ele>423.0</ele><time>2026-04-12T07:39:00.896Z</time></trkpt><trkpt lat="42.6110904" lon="12.008303"><ele>424.0</ele><time>2026-04-12T07:39:01.89Z</time></trkpt><trkpt lat="42.6112029" lon="12.0082867"><ele>425.0</ele><time>2026-04-12T07:39:02.903Z</time></trkpt><trkpt lat="42.6113112" lon="12.0082612"><ele>425.99999999999994</ele><time>2026-04-12T07:39:03.896Z</time></trkpt><trkpt lat="42.6114149" lon="12.0082149"><ele>427.0</ele><time>2026-04-12T07:39:04.882Z</time></trkpt><trkpt lat="42.6115182" lon="12.0081526"><ele>428.0</ele><time>2026-04-12T07:39:05.898Z</time></trkpt><trkpt lat="42.6116212" lon="12.0080877"><ele>428.0</ele><time>2026-04-12T07:39:06.886Z</time></trkpt><trkpt lat="42.6117202" lon="12.0080233"><ele>427.99999999999994</ele><time>2026-04-12T07:39:07.883Z</time></trkpt><trkpt lat="42.6118134" lon="12.0079686"><ele>427.99999999999994</ele><time>2026-04-12T07:39:08.895Z</time></trkpt><trkpt lat="42.6118938" lon="12.0079171"><ele>428.0</ele><time>2026-04-12T07:39:09.898Z</time></trkpt><trkpt lat="42.611965" lon="12.0078738"><ele>428.0</ele><time>2026-04-12T07:39:10.894Z</time></trkpt><trkpt lat="42.6120313" lon="12.0078251"><ele>428.8333333333333</ele><time>2026-04-12T07:39:11.891Z</time></trkpt><trkpt lat="42.6120932" lon="12.0077887"><ele>429.66666666666663</ele><time>2026-04-12T07:39:12.889Z</time></trkpt><trkpt lat="42.6121959" lon="12.007739"><ele>430.5</ele><time>2026-04-12T07:39:14.893Z</time></trkpt><trkpt lat="42.6122734" lon="12.0077151"><ele>431.33333333333337</ele><time>2026-04-12T07:39:16.89Z</time></trkpt><trkpt lat="42.6123215" lon="12.0077924"><ele>432.1666666666667</ele><time>2026-04-12T07:39:19.895Z</time></trkpt><trkpt lat="42.6123096" lon="12.0079219"><ele>433.0</ele><time>2026-04-12T07:39:21.895Z</time></trkpt><trkpt lat="42.6122928" lon="12.0080193"><ele>433.00000000000006</ele><time>2026-04-12T07:39:22.893Z</time></trkpt><trkpt lat="42.6122664" lon="12.0081088"><ele>433.0</ele><time>2026-04-12T07:39:23.897Z</time></trkpt><trkpt lat="42.6122234" lon="12.0082132"><ele>433.0</ele><time>2026-04-12T07:39:24.895Z</time></trkpt><trkpt lat="42.6121733" lon="12.0083208"><ele>433.0</ele><time>2026-04-12T07:39:25.904Z</time></trkpt><trkpt lat="42.6121389" lon="12.0084412"><ele>433.00000000000006</ele><time>2026-04-12T07:39:26.89Z</time></trkpt><trkpt lat="42.6121102" lon="12.0085669"><ele>433.0</ele><time>2026-04-12T07:39:27.899Z</time></trkpt><trkpt lat="42.612089" lon="12.0086955"><ele>435.2</ele><time>2026-04-12T07:39:28.89Z</time></trkpt><trkpt lat="42.6120703" lon="12.0088308"><ele>437.4</ele><time>2026-04-12T07:39:29.89Z</time></trkpt><trkpt lat="42.6120498" lon="12.0089609"><ele>439.59999999999997</ele><time>2026-04-12T07:39:30.894Z</time></trkpt><trkpt lat="42.6120214" lon="12.0090781"><ele>441.79999999999995</ele><time>2026-04-12T07:39:31.889Z</time></trkpt><trkpt lat="42.6119781" lon="12.0091785"><ele>444.0</ele><time>2026-04-12T07:39:32.894Z</time></trkpt><trkpt lat="42.6119146" lon="12.0092595"><ele>445.1666666666667</ele><time>2026-04-12T07:39:33.888Z</time></trkpt><trkpt lat="42.611838" lon="12.0093394"><ele>446.33333333333337</ele><time>2026-04-12T07:39:34.886Z</time></trkpt><trkpt lat="42.6117735" lon="12.0094237"><ele>447.5</ele><time>2026-04-12T07:39:35.899Z</time></trkpt><trkpt lat="42.6117236" lon="12.0095196"><ele>448.6666666666667</ele><time>2026-04-12T07:39:36.9Z</time></trkpt><trkpt lat="42.6116814" lon="12.009614"><ele>449.83333333333337</ele><time>2026-04-12T07:39:37.902Z</time></trkpt><trkpt lat="42.6116523" lon="12.009708"><ele>451.0</ele><time>2026-04-12T07:39:38.894Z</time></trkpt><trkpt lat="42.6116378" lon="12.0097968"><ele>451.00000000000006</ele><time>2026-04-12T07:39:39.893Z</time></trkpt><trkpt lat="42.61166" lon="12.0099"><ele>451.0</ele><time>2026-04-12T07:39:40.898Z</time></trkpt><trkpt lat="42.6116943" lon="12.0100121"><ele>451.0</ele><time>2026-04-12T07:39:41.89Z</time></trkpt><trkpt lat="42.61172" lon="12.010125"><ele>451.0</ele><time>2026-04-12T07:39:42.886Z</time></trkpt><trkpt lat="42.6117295" lon="12.0102376"><ele>451.00000000000006</ele><time>2026-04-12T07:39:43.9Z</time></trkpt><trkpt lat="42.6117427" lon="12.0103374"><ele>451.0</ele><time>2026-04-12T07:39:44.898Z</time></trkpt><trkpt lat="42.6117543" lon="12.0104426"><ele>453.4</ele><time>2026-04-12T07:39:45.884Z</time></trkpt><trkpt lat="42.6117669" lon="12.0105343"><ele>455.8</ele><time>2026-04-12T07:39:46.894Z</time></trkpt><trkpt lat="42.6117817" lon="12.0106189"><ele>458.19999999999993</ele><time>2026-04-12T07:39:47.907Z</time></trkpt><trkpt lat="42.6118171" lon="12.0107821"><ele>460.59999999999997</ele><time>2026-04-12T07:39:49.896Z</time></trkpt><trkpt lat="42.6118623" lon="12.0109453"><ele>463.0</ele><time>2026-04-12T07:39:51.895Z</time></trkpt><trkpt lat="42.6118652" lon="12.0110402"><ele>463.85714285714283</ele><time>2026-04-12T07:39:52.889Z</time></trkpt><trkpt lat="42.6118688" lon="12.0111401"><ele>464.71428571428567</ele><time>2026-04-12T07:39:53.886Z</time></trkpt><trkpt lat="42.611863" lon="12.0112361"><ele>465.57142857142856</ele><time>2026-04-12T07:39:54.907Z</time></trkpt><trkpt lat="42.6118498" lon="12.0113378"><ele>466.42857142857144</ele><time>2026-04-12T07:39:55.889Z</time></trkpt><trkpt lat="42.6118095" lon="12.0114223"><ele>467.2857142857143</ele><time>2026-04-12T07:39:56.9Z</time></trkpt><trkpt lat="42.6117652" lon="12.0114968"><ele>468.1428571428571</ele><time>2026-04-12T07:39:57.895Z</time></trkpt><trkpt lat="42.6117319" lon="12.0115756"><ele>469.0</ele><time>2026-04-12T07:39:58.902Z</time></trkpt><trkpt lat="42.6117045" lon="12.0116716"><ele>469.50000000000006</ele><time>2026-04-12T07:39:59.894Z</time></trkpt><trkpt lat="42.6116938" lon="12.011789"><ele>470.0</ele><time>2026-04-12T07:40:00.896Z</time></trkpt><trkpt lat="42.6117236" lon="12.011889"><ele>470.5</ele><time>2026-04-12T07:40:01.894Z</time></trkpt><trkpt lat="42.611762" lon="12.0119722"><ele>471.0</ele><time>2026-04-12T07:40:02.891Z</time></trkpt><trkpt lat="42.6117915" lon="12.0120622"><ele>471.50000000000006</ele><time>2026-04-12T07:40:04.892Z</time></trkpt><trkpt lat="42.611786" lon="12.0121563"><ele>472.0</ele><time>2026-04-12T07:40:07.902Z</time></trkpt><trkpt lat="42.6118022" lon="12.0122588"><ele>472.00000000000006</ele><time>2026-04-12T07:40:09.903Z</time></trkpt><trkpt lat="42.6118189" lon="12.0123554"><ele>472.0</ele><time>2026-04-12T07:40:21.893Z</time></trkpt><trkpt lat="42.611839" lon="12.0124861"><ele>472.0</ele><time>2026-04-12T07:40:23.9Z</time></trkpt><trkpt lat="42.611896" lon="12.0126363"><ele>472.0</ele><time>2026-04-12T07:40:25.894Z</time></trkpt><trkpt lat="42.6119358" lon="12.0127133"><ele>472.00000000000006</ele><time>2026-04-12T07:40:26.895Z</time></trkpt><trkpt lat="42.6119755" lon="12.0127885"><ele>472.0</ele><time>2026-04-12T07:40:27.897Z</time></trkpt><trkpt lat="42.6120146" lon="12.0128715"><ele>472.00000000000006</ele><time>2026-04-12T07:40:28.894Z</time></trkpt><trkpt lat="42.6120496" lon="12.0129533"><ele>472.0</ele><time>2026-04-12T07:40:29.894Z</time></trkpt><trkpt lat="42.6120865" lon="12.0130383"><ele>472.0</ele><time>2026-04-12T07:40:30.898Z</time></trkpt><trkpt lat="42.6121212" lon="12.01312"><ele>472.0</ele><time>2026-04-12T07:40:31.897Z</time></trkpt><trkpt lat="42.6121513" lon="12.0132179"><ele>472.00000000000006</ele><time>2026-04-12T07:40:32.895Z</time></trkpt><trkpt lat="42.6121796" lon="12.0133268"><ele>472.0</ele><time>2026-04-12T07:40:33.885Z</time></trkpt><trkpt lat="42.6122195" lon="12.0134278"><ele>471.6666666666667</ele><time>2026-04-12T07:40:34.888Z</time></trkpt><trkpt lat="42.6122598" lon="12.0135208"><ele>471.33333333333337</ele><time>2026-04-12T07:40:35.889Z</time></trkpt><trkpt lat="42.612297" lon="12.0136167"><ele>471.0</ele><time>2026-04-12T07:40:36.886Z</time></trkpt><trkpt lat="42.6123309" lon="12.0137143"><ele>470.66666666666663</ele><time>2026-04-12T07:40:37.89Z</time></trkpt><trkpt lat="42.6123607" lon="12.0138236"><ele>470.3333333333333</ele><time>2026-04-12T07:40:38.905Z</time></trkpt><trkpt lat="42.6123899" lon="12.0139355"><ele>470.0</ele><time>2026-04-12T07:40:39.898Z</time></trkpt><trkpt lat="42.6124195" lon="12.0140364"><ele>470.0</ele><time>2026-04-12T07:40:40.889Z</time></trkpt><trkpt lat="42.6124434" lon="12.0141221"><ele>469.99999999999994</ele><time>2026-04-12T07:40:41.893Z</time></trkpt><trkpt lat="42.6124667" lon="12.0142104"><ele>470.0</ele><time>2026-04-12T07:40:42.897Z</time></trkpt><trkpt lat="42.612493" lon="12.0143055"><ele>470.0</ele><time>2026-04-12T07:40:43.891Z</time></trkpt><trkpt lat="42.6125204" lon="12.0144073"><ele>469.99999999999994</ele><time>2026-04-12T07:40:44.886Z</time></trkpt><trkpt lat="42.6125571" lon="12.0144972"><ele>470.0</ele><time>2026-04-12T07:40:45.901Z</time></trkpt><trkpt lat="42.6125887" lon="12.0145774"><ele>470.0</ele><time>2026-04-12T07:40:46.894Z</time></trkpt><trkpt lat="42.6126219" lon="12.0146555"><ele>469.3333333333333</ele><time>2026-04-12T07:40:47.893Z</time></trkpt><trkpt lat="42.6126645" lon="12.01474"><ele>468.66666666666663</ele><time>2026-04-12T07:40:49.904Z</time></trkpt><trkpt lat="42.6126917" lon="12.014851"><ele>468.0</ele><time>2026-04-12T07:40:52.893Z</time></trkpt><trkpt lat="42.6126853" lon="12.0150172"><ele>467.33333333333337</ele><time>2026-04-12T07:40:54.898Z</time></trkpt><trkpt lat="42.6126749" lon="12.0151252"><ele>466.6666666666667</ele><time>2026-04-12T07:40:55.897Z</time></trkpt><trkpt lat="42.6126665" lon="12.0152352"><ele>466.0</ele><time>2026-04-12T07:40:56.892Z</time></trkpt><trkpt lat="42.612658" lon="12.0153377"><ele>465.33333333333337</ele><time>2026-04-12T07:40:57.885Z</time></trkpt><trkpt lat="42.6126488" lon="12.0154552"><ele>464.6666666666667</ele><time>2026-04-12T07:40:58.897Z</time></trkpt><trkpt lat="42.6126303" lon="12.0155777"><ele>464.0</ele><time>2026-04-12T07:40:59.902Z</time></trkpt><trkpt lat="42.6126146" lon="12.0157048"><ele>463.33333333333337</ele><time>2026-04-12T07:41:00.893Z</time></trkpt><trkpt lat="42.6125961" lon="12.0158235"><ele>462.6666666666667</ele><time>2026-04-12T07:41:01.896Z</time></trkpt><trkpt lat="42.6125801" lon="12.015934"><ele>462.0</ele><time>2026-04-12T07:41:02.896Z</time></trkpt><trkpt lat="42.6125663" lon="12.0160456"><ele>461.0</ele><time>2026-04-12T07:41:03.889Z</time></trkpt><trkpt lat="42.6125612" lon="12.0161575"><ele>460.0</ele><time>2026-04-12T07:41:04.895Z</time></trkpt><trkpt lat="42.6125579" lon="12.0162774"><ele>459.0</ele><time>2026-04-12T07:41:05.892Z</time></trkpt><trkpt lat="42.6125523" lon="12.0163937"><ele>458.0</ele><time>2026-04-12T07:41:06.892Z</time></trkpt><trkpt lat="42.6125505" lon="12.0165146"><ele>457.0</ele><time>2026-04-12T07:41:07.881Z</time></trkpt><trkpt lat="42.612542" lon="12.0166342"><ele>456.0</ele><time>2026-04-12T07:41:08.896Z</time></trkpt><trkpt lat="42.6125336" lon="12.0167542"><ele>456.0</ele><time>2026-04-12T07:41:09.897Z</time></trkpt><trkpt lat="42.6125287" lon="12.0168814"><ele>456.0</ele><time>2026-04-12T07:41:10.897Z</time></trkpt><trkpt lat="42.6125252" lon="12.0170051"><ele>456.0</ele><time>2026-04-12T07:41:11.894Z</time></trkpt><trkpt lat="42.6125214" lon="12.017128"><ele>456.0</ele><time>2026-04-12T07:41:12.88Z</time></trkpt><trkpt lat="42.6125156" lon="12.0172552"><ele>456.0</ele><time>2026-04-12T07:41:13.889Z</time></trkpt><trkpt lat="42.6125057" lon="12.0173772"><ele>456.3333333333333</ele><time>2026-04-12T07:41:14.892Z</time></trkpt><trkpt lat="42.6124951" lon="12.0175069"><ele>456.66666666666663</ele><time>2026-04-12T07:41:15.902Z</time></trkpt><trkpt lat="42.612489" lon="12.0176206"><ele>457.0</ele><time>2026-04-12T07:41:16.892Z</time></trkpt><trkpt lat="42.6124819" lon="12.0177242"><ele>457.3333333333333</ele><time>2026-04-12T07:41:17.888Z</time></trkpt><trkpt lat="42.6124737" lon="12.017828"><ele>457.66666666666663</ele><time>2026-04-12T07:41:18.895Z</time></trkpt><trkpt lat="42.6124618" lon="12.0179242"><ele>458.0</ele><time>2026-04-12T07:41:19.895Z</time></trkpt><trkpt lat="42.6124271" lon="12.018078"><ele>458.0</ele><time>2026-04-12T07:41:21.894Z</time></trkpt><trkpt lat="42.6123963" lon="12.0182206"><ele>457.99999999999994</ele><time>2026-04-12T07:41:23.888Z</time></trkpt><trkpt lat="42.6124224" lon="12.0183142"><ele>457.99999999999994</ele><time>2026-04-12T07:41:25.902Z</time></trkpt><trkpt lat="42.6124927" lon="12.0183696"><ele>458.0</ele><time>2026-04-12T07:41:27.894Z</time></trkpt><trkpt lat="42.6125709" lon="12.0184338"><ele>458.0</ele><time>2026-04-12T07:41:29.891Z</time></trkpt><trkpt lat="42.6126447" lon="12.0185556"><ele>458.8333333333333</ele><time>2026-04-12T07:41:31.889Z</time></trkpt><trkpt lat="42.6127545" lon="12.0186202"><ele>459.66666666666663</ele><time>2026-04-12T07:41:33.895Z</time></trkpt><trkpt lat="42.6128273" lon="12.0186403"><ele>460.5</ele><time>2026-04-12T07:41:34.899Z</time></trkpt><trkpt lat="42.6129002" lon="12.0186587"><ele>461.33333333333337</ele><time>2026-04-12T07:41:35.892Z</time></trkpt><trkpt lat="42.6129834" lon="12.0187038"><ele>462.1666666666667</ele><time>2026-04-12T07:41:37.883Z</time></trkpt><trkpt lat="42.6130047" lon="12.0187986"><ele>463.0</ele><time>2026-04-12T07:41:40.888Z</time></trkpt><trkpt lat="42.6129457" lon="12.0188376"><ele>463.0</ele><time>2026-04-12T07:41:42.889Z</time></trkpt><trkpt lat="42.612841" lon="12.0187782"><ele>462.99999999999994</ele><time>2026-04-12T07:41:44.902Z</time></trkpt><trkpt lat="42.6127119" lon="12.0187561"><ele>462.99999999999994</ele><time>2026-04-12T07:41:46.895Z</time></trkpt><trkpt lat="42.6126394" lon="12.0187668"><ele>463.0</ele><time>2026-04-12T07:41:47.88Z</time></trkpt><trkpt lat="42.6125702" lon="12.0187997"><ele>463.0</ele><time>2026-04-12T07:41:48.895Z</time></trkpt><trkpt lat="42.6125077" lon="12.0188578"><ele>463.00000000000006</ele><time>2026-04-12T07:41:49.89Z</time></trkpt><trkpt lat="42.6124422" lon="12.0189264"><ele>463.0</ele><time>2026-04-12T07:41:50.894Z</time></trkpt><trkpt lat="42.6123754" lon="12.0189888"><ele>463.0</ele><time>2026-04-12T07:41:51.884Z</time></trkpt><trkpt lat="42.6123086" lon="12.0190428"><ele>463.0</ele><time>2026-04-12T07:41:52.896Z</time></trkpt><trkpt lat="42.6122516" lon="12.0190978"><ele>463.00000000000006</ele><time>2026-04-12T07:41:53.887Z</time></trkpt><trkpt lat="42.6121544" lon="12.0192026"><ele>463.0</ele><time>2026-04-12T07:41:55.889Z</time></trkpt><trkpt lat="42.6120951" lon="12.019341"><ele>463.83333333333337</ele><time>2026-04-12T07:41:57.889Z</time></trkpt><trkpt lat="42.6120916" lon="12.0194279"><ele>464.6666666666667</ele><time>2026-04-12T07:41:58.889Z</time></trkpt><trkpt lat="42.6121039" lon="12.0195725"><ele>465.5</ele><time>2026-04-12T07:42:00.899Z</time></trkpt><trkpt lat="42.6121154" lon="12.0196658"><ele>466.33333333333337</ele><time>2026-04-12T07:42:02.892Z</time></trkpt><trkpt lat="42.6121125" lon="12.0198141"><ele>467.1666666666667</ele><time>2026-04-12T07:42:05.905Z</time></trkpt><trkpt lat="42.6120833" lon="12.0199308"><ele>468.0</ele><time>2026-04-12T07:42:07.89Z</time></trkpt><trkpt lat="42.6119854" lon="12.0199865"><ele>469.6666666666667</ele><time>2026-04-12T07:42:09.895Z</time></trkpt><trkpt lat="42.6118676" lon="12.0200132"><ele>471.33333333333337</ele><time>2026-04-12T07:42:11.889Z</time></trkpt><trkpt lat="42.6118011" lon="12.0200196"><ele>473.0</ele><time>2026-04-12T07:42:12.897Z</time></trkpt><trkpt lat="42.6117293" lon="12.0200253"><ele>474.6666666666667</ele><time>2026-04-12T07:42:13.892Z</time></trkpt><trkpt lat="42.6116521" lon="12.0200257"><ele>476.33333333333337</ele><time>2026-04-12T07:42:14.89Z</time></trkpt><trkpt lat="42.6115768" lon="12.0200347"><ele>478.0</ele><time>2026-04-12T07:42:15.895Z</time></trkpt><trkpt lat="42.6115028" lon="12.0200428"><ele>478.00000000000006</ele><time>2026-04-12T07:42:16.892Z</time></trkpt><trkpt lat="42.6114311" lon="12.0200437"><ele>478.0</ele><time>2026-04-12T07:42:17.892Z</time></trkpt><trkpt lat="42.6113546" lon="12.0200425"><ele>478.0</ele><time>2026-04-12T07:42:18.903Z</time></trkpt><trkpt lat="42.6112707" lon="12.0200341"><ele>478.0</ele><time>2026-04-12T07:42:19.886Z</time></trkpt><trkpt lat="42.6111877" lon="12.0200076"><ele>478.00000000000006</ele><time>2026-04-12T07:42:20.898Z</time></trkpt><trkpt lat="42.6111012" lon="12.0199952"><ele>478.0</ele><time>2026-04-12T07:42:21.909Z</time></trkpt><trkpt lat="42.6110045" lon="12.01999"><ele>478.4</ele><time>2026-04-12T07:42:22.902Z</time></trkpt><trkpt lat="42.6108997" lon="12.0199897"><ele>478.79999999999995</ele><time>2026-04-12T07:42:23.894Z</time></trkpt><trkpt lat="42.610799" lon="12.0199913"><ele>479.2</ele><time>2026-04-12T07:42:24.895Z</time></trkpt><trkpt lat="42.6106915" lon="12.01999"><ele>479.6</ele><time>2026-04-12T07:42:25.901Z</time></trkpt><trkpt lat="42.6105867" lon="12.0199931"><ele>480.0</ele><time>2026-04-12T07:42:26.894Z</time></trkpt><trkpt lat="42.6104847" lon="12.0200071"><ele>480.0</ele><time>2026-04-12T07:42:27.913Z</time></trkpt><trkpt lat="42.6103814" lon="12.0200186"><ele>480.0</ele><time>2026-04-12T07:42:28.905Z</time></trkpt><trkpt lat="42.610277" lon="12.0200288"><ele>480.0</ele><time>2026-04-12T07:42:29.895Z</time></trkpt><trkpt lat="42.6101754" lon="12.0200432"><ele>480.0</ele><time>2026-04-12T07:42:30.894Z</time></trkpt><trkpt lat="42.6100669" lon="12.0200608"><ele>480.0</ele><time>2026-04-12T07:42:31.892Z</time></trkpt><trkpt lat="42.6099681" lon="12.0200822"><ele>480.3333333333333</ele><time>2026-04-12T07:42:32.907Z</time></trkpt><trkpt lat="42.6098758" lon="12.0201016"><ele>480.66666666666663</ele><time>2026-04-12T07:42:33.89Z</time></trkpt><trkpt lat="42.6097929" lon="12.0201292"><ele>481.0</ele><time>2026-04-12T07:42:34.891Z</time></trkpt><trkpt lat="42.6097159" lon="12.0201739"><ele>481.3333333333333</ele><time>2026-04-12T07:42:35.893Z</time></trkpt><trkpt lat="42.6096403" lon="12.0202391"><ele>481.66666666666663</ele><time>2026-04-12T07:42:36.893Z</time></trkpt><trkpt lat="42.6095626" lon="12.0203184"><ele>482.0</ele><time>2026-04-12T07:42:37.896Z</time></trkpt><trkpt lat="42.6094937" lon="12.0204026"><ele>482.66666666666663</ele><time>2026-04-12T07:42:38.898Z</time></trkpt><trkpt lat="42.6094234" lon="12.0204863"><ele>483.3333333333333</ele><time>2026-04-12T07:42:39.916Z</time></trkpt><trkpt lat="42.6093704" lon="12.0205823"><ele>484.0</ele><time>2026-04-12T07:42:40.91Z</time></trkpt><trkpt lat="42.6093441" lon="12.0206881"><ele>484.66666666666663</ele><time>2026-04-12T07:42:41.9Z</time></trkpt><trkpt lat="42.6093488" lon="12.0207868"><ele>485.3333333333333</ele><time>2026-04-12T07:42:42.892Z</time></trkpt><trkpt lat="42.6093578" lon="12.0208895"><ele>486.0</ele><time>2026-04-12T07:42:43.887Z</time></trkpt><trkpt lat="42.6093651" lon="12.0210157"><ele>486.0</ele><time>2026-04-12T07:42:44.89Z</time></trkpt><trkpt lat="42.6093697" lon="12.0211431"><ele>486.0</ele><time>2026-04-12T07:42:45.895Z</time></trkpt><trkpt lat="42.6093743" lon="12.0212633"><ele>486.0</ele><time>2026-04-12T07:42:46.896Z</time></trkpt><trkpt lat="42.6093884" lon="12.0213945"><ele>486.0</ele><time>2026-04-12T07:42:47.885Z</time></trkpt><trkpt lat="42.6094015" lon="12.0215312"><ele>486.0</ele><time>2026-04-12T07:42:48.903Z</time></trkpt><trkpt lat="42.609426" lon="12.0216775"><ele>486.0</ele><time>2026-04-12T07:42:49.898Z</time></trkpt><trkpt lat="42.6094571" lon="12.0218324"><ele>486.0</ele><time>2026-04-12T07:42:50.898Z</time></trkpt><trkpt lat="42.6094853" lon="12.0220085"><ele>486.0</ele><time>2026-04-12T07:42:51.898Z</time></trkpt><trkpt lat="42.6095027" lon="12.0221874"><ele>486.0</ele><time>2026-04-12T07:42:52.888Z</time></trkpt><trkpt lat="42.6095151" lon="12.0223595"><ele>485.8</ele><time>2026-04-12T07:42:53.903Z</time></trkpt><trkpt lat="42.6095199" lon="12.0225184"><ele>485.6</ele><time>2026-04-12T07:42:54.898Z</time></trkpt><trkpt lat="42.6095038" lon="12.0226587"><ele>485.4</ele><time>2026-04-12T07:42:55.882Z</time></trkpt><trkpt lat="42.6094628" lon="12.0227891"><ele>485.2</ele><time>2026-04-12T07:42:56.892Z</time></trkpt><trkpt lat="42.6093971" lon="12.0228971"><ele>485.0</ele><time>2026-04-12T07:42:57.891Z</time></trkpt><trkpt lat="42.6093172" lon="12.0229867"><ele>485.0</ele><time>2026-04-12T07:42:58.881Z</time></trkpt><trkpt lat="42.6092236" lon="12.0230828"><ele>485.0</ele><time>2026-04-12T07:42:59.903Z</time></trkpt><trkpt lat="42.6091431" lon="12.0232164"><ele>485.0</ele><time>2026-04-12T07:43:00.905Z</time></trkpt><trkpt lat="42.6090797" lon="12.0233783"><ele>485.0</ele><time>2026-04-12T07:43:01.889Z</time></trkpt><trkpt lat="42.6090134" lon="12.0235433"><ele>485.0</ele><time>2026-04-12T07:43:02.905Z</time></trkpt><trkpt lat="42.6089465" lon="12.0237123"><ele>485.0</ele><time>2026-04-12T07:43:03.912Z</time></trkpt><trkpt lat="42.6088819" lon="12.0238751"><ele>485.0</ele><time>2026-04-12T07:43:04.887Z</time></trkpt><trkpt lat="42.6088267" lon="12.0240523"><ele>485.0</ele><time>2026-04-12T07:43:05.893Z</time></trkpt><trkpt lat="42.6087865" lon="12.0242305"><ele>485.0</ele><time>2026-04-12T07:43:06.896Z</time></trkpt><trkpt lat="42.6087491" lon="12.0244006"><ele>485.0</ele><time>2026-04-12T07:43:07.887Z</time></trkpt><trkpt lat="42.6087173" lon="12.0245742"><ele>485.0</ele><time>2026-04-12T07:43:08.896Z</time></trkpt><trkpt lat="42.608687" lon="12.0247375"><ele>485.0</ele><time>2026-04-12T07:43:09.892Z</time></trkpt><trkpt lat="42.6086561" lon="12.0248788"><ele>486.0</ele><time>2026-04-12T07:43:10.887Z</time></trkpt><trkpt lat="42.6086221" lon="12.0250088"><ele>487.0</ele><time>2026-04-12T07:43:11.883Z</time></trkpt><trkpt lat="42.6085766" lon="12.0251297"><ele>488.0</ele><time>2026-04-12T07:43:12.896Z</time></trkpt><trkpt lat="42.6085085" lon="12.0252357"><ele>489.0</ele><time>2026-04-12T07:43:13.902Z</time></trkpt><trkpt lat="42.608418" lon="12.0253193"><ele>490.0</ele><time>2026-04-12T07:43:14.898Z</time></trkpt><trkpt lat="42.6083036" lon="12.0253694"><ele>490.0</ele><time>2026-04-12T07:43:15.89Z</time></trkpt><trkpt lat="42.6081778" lon="12.0253834"><ele>490.0</ele><time>2026-04-12T07:43:16.9Z</time></trkpt><trkpt lat="42.6080578" lon="12.0253985"><ele>490.0</ele><time>2026-04-12T07:43:17.898Z</time></trkpt><trkpt lat="42.6079335" lon="12.025418"><ele>490.0</ele><time>2026-04-12T07:43:18.903Z</time></trkpt><trkpt lat="42.6078181" lon="12.0254307"><ele>490.4</ele><time>2026-04-12T07:43:19.887Z</time></trkpt><trkpt lat="42.6077141" lon="12.0254549"><ele>490.8</ele><time>2026-04-12T07:43:20.894Z</time></trkpt><trkpt lat="42.6076199" lon="12.0254949"><ele>491.20000000000005</ele><time>2026-04-12T07:43:21.89Z</time></trkpt><trkpt lat="42.607542" lon="12.0255668"><ele>491.6</ele><time>2026-04-12T07:43:22.904Z</time></trkpt><trkpt lat="42.6074881" lon="12.0256694"><ele>492.0</ele><time>2026-04-12T07:43:23.892Z</time></trkpt><trkpt lat="42.6074432" lon="12.0257989"><ele>493.40000000000003</ele><time>2026-04-12T07:43:24.888Z</time></trkpt><trkpt lat="42.6074026" lon="12.0259279"><ele>494.80000000000007</ele><time>2026-04-12T07:43:25.888Z</time></trkpt><trkpt lat="42.6073516" lon="12.02606"><ele>496.2</ele><time>2026-04-12T07:43:26.889Z</time></trkpt><trkpt lat="42.6072979" lon="12.0261903"><ele>497.6</ele><time>2026-04-12T07:43:27.887Z</time></trkpt><trkpt lat="42.6072379" lon="12.0263306"><ele>499.0</ele><time>2026-04-12T07:43:28.898Z</time></trkpt><trkpt lat="42.6071808" lon="12.026471"><ele>499.0</ele><time>2026-04-12T07:43:29.881Z</time></trkpt><trkpt lat="42.6071277" lon="12.0266178"><ele>499.0</ele><time>2026-04-12T07:43:30.885Z</time></trkpt><trkpt lat="42.6070642" lon="12.0267578"><ele>499.0</ele><time>2026-04-12T07:43:31.9Z</time></trkpt><trkpt lat="42.6069919" lon="12.0268925"><ele>499.0</ele><time>2026-04-12T07:43:32.881Z</time></trkpt><trkpt lat="42.606924" lon="12.0270174"><ele>499.83333333333337</ele><time>2026-04-12T07:43:33.884Z</time></trkpt><trkpt lat="42.6068639" lon="12.0271422"><ele>500.6666666666667</ele><time>2026-04-12T07:43:34.887Z</time></trkpt><trkpt lat="42.6068195" lon="12.0272608"><ele>501.5</ele><time>2026-04-12T07:43:35.89Z</time></trkpt><trkpt lat="42.606805" lon="12.0273812"><ele>502.33333333333337</ele><time>2026-04-12T07:43:36.902Z</time></trkpt><trkpt lat="42.6068045" lon="12.0274811"><ele>503.1666666666667</ele><time>2026-04-12T07:43:37.881Z</time></trkpt><trkpt lat="42.6068135" lon="12.0275711"><ele>504.0</ele><time>2026-04-12T07:43:38.884Z</time></trkpt><trkpt lat="42.6068503" lon="12.0277229"><ele>504.5</ele><time>2026-04-12T07:43:40.885Z</time></trkpt><trkpt lat="42.606875" lon="12.0278183"><ele>505.0</ele><time>2026-04-12T07:43:41.895Z</time></trkpt><trkpt lat="42.6069022" lon="12.0279118"><ele>505.5</ele><time>2026-04-12T07:43:42.898Z</time></trkpt><trkpt lat="42.6069334" lon="12.0280189"><ele>506.0</ele><time>2026-04-12T07:43:43.888Z</time></trkpt><trkpt lat="42.6069669" lon="12.0281339"><ele>506.5</ele><time>2026-04-12T07:43:44.907Z</time></trkpt><trkpt lat="42.6070057" lon="12.0282636"><ele>507.0</ele><time>2026-04-12T07:43:45.893Z</time></trkpt><trkpt lat="42.607043" lon="12.0283968"><ele>507.6</ele><time>2026-04-12T07:43:46.901Z</time></trkpt><trkpt lat="42.607085" lon="12.0285255"><ele>508.20000000000005</ele><time>2026-04-12T07:43:47.889Z</time></trkpt><trkpt lat="42.607129" lon="12.0286587"><ele>508.8</ele><time>2026-04-12T07:43:48.891Z</time></trkpt><trkpt lat="42.6071741" lon="12.0287976"><ele>509.4</ele><time>2026-04-12T07:43:49.898Z</time></trkpt><trkpt lat="42.6072163" lon="12.0289441"><ele>510.0</ele><time>2026-04-12T07:43:50.895Z</time></trkpt><trkpt lat="42.6072581" lon="12.0290903"><ele>511.0</ele><time>2026-04-12T07:43:51.89Z</time></trkpt><trkpt lat="42.6073013" lon="12.0292393"><ele>512.0</ele><time>2026-04-12T07:43:52.901Z</time></trkpt><trkpt lat="42.6073449" lon="12.029389"><ele>513.0</ele><time>2026-04-12T07:43:53.891Z</time></trkpt><trkpt lat="42.6073928" lon="12.0295429"><ele>514.0</ele><time>2026-04-12T07:43:54.896Z</time></trkpt><trkpt lat="42.6074429" lon="12.0297006"><ele>514.0</ele><time>2026-04-12T07:43:55.895Z</time></trkpt><trkpt lat="42.6074942" lon="12.0298646"><ele>514.0</ele><time>2026-04-12T07:43:56.885Z</time></trkpt><trkpt lat="42.6075469" lon="12.0300318"><ele>514.0</ele><time>2026-04-12T07:43:57.904Z</time></trkpt><trkpt lat="42.6076043" lon="12.0302041"><ele>514.0</ele><time>2026-04-12T07:43:58.885Z</time></trkpt><trkpt lat="42.6076645" lon="12.0303849"><ele>514.75</ele><time>2026-04-12T07:43:59.898Z</time></trkpt><trkpt lat="42.6077213" lon="12.0305629"><ele>515.5</ele><time>2026-04-12T07:44:00.886Z</time></trkpt><trkpt lat="42.6077788" lon="12.0307465"><ele>516.25</ele><time>2026-04-12T07:44:01.887Z</time></trkpt><trkpt lat="42.6078371" lon="12.0309247"><ele>517.0</ele><time>2026-04-12T07:44:02.891Z</time></trkpt><trkpt lat="42.6078973" lon="12.0311072"><ele>517.75</ele><time>2026-04-12T07:44:03.903Z</time></trkpt><trkpt lat="42.6079617" lon="12.0312886"><ele>518.5</ele><time>2026-04-12T07:44:04.882Z</time></trkpt><trkpt lat="42.6080137" lon="12.0314539"><ele>519.25</ele><time>2026-04-12T07:44:05.895Z</time></trkpt><trkpt lat="42.6080569" lon="12.0316084"><ele>520.0</ele><time>2026-04-12T07:44:06.889Z</time></trkpt><trkpt lat="42.6080825" lon="12.0317574"><ele>520.5</ele><time>2026-04-12T07:44:07.893Z</time></trkpt><trkpt lat="42.6081104" lon="12.0319111"><ele>521.0</ele><time>2026-04-12T07:44:08.896Z</time></trkpt><trkpt lat="42.6081256" lon="12.0320727"><ele>521.5</ele><time>2026-04-12T07:44:09.894Z</time></trkpt><trkpt lat="42.608139" lon="12.0322372"><ele>522.0</ele><time>2026-04-12T07:44:10.889Z</time></trkpt><trkpt lat="42.6081412" lon="12.032412"><ele>523.0</ele><time>2026-04-12T07:44:11.89Z</time></trkpt><trkpt lat="42.6081349" lon="12.032585"><ele>524.0</ele><time>2026-04-12T07:44:12.902Z</time></trkpt><trkpt lat="42.6081288" lon="12.0327749"><ele>525.0</ele><time>2026-04-12T07:44:13.894Z</time></trkpt><trkpt lat="42.6081214" lon="12.0329668"><ele>526.0</ele><time>2026-04-12T07:44:14.884Z</time></trkpt><trkpt lat="42.6081114" lon="12.033167"><ele>526.0</ele><time>2026-04-12T07:44:15.889Z</time></trkpt><trkpt lat="42.6081001" lon="12.0333744"><ele>526.0</ele><time>2026-04-12T07:44:16.889Z</time></trkpt><trkpt lat="42.6080872" lon="12.0335874"><ele>526.0</ele><time>2026-04-12T07:44:17.883Z</time></trkpt><trkpt lat="42.6080732" lon="12.0338053"><ele>526.0</ele><time>2026-04-12T07:44:18.88Z</time></trkpt><trkpt lat="42.6080544" lon="12.0340281"><ele>526.0</ele><time>2026-04-12T07:44:19.886Z</time></trkpt><trkpt lat="42.6080441" lon="12.0342487"><ele>526.0</ele><time>2026-04-12T07:44:20.906Z</time></trkpt><trkpt lat="42.6080345" lon="12.0344574"><ele>525.75</ele><time>2026-04-12T07:44:21.891Z</time></trkpt><trkpt lat="42.6080231" lon="12.0346578"><ele>525.5</ele><time>2026-04-12T07:44:22.88Z</time></trkpt><trkpt lat="42.6080128" lon="12.0348575"><ele>525.25</ele><time>2026-04-12T07:44:23.896Z</time></trkpt><trkpt lat="42.608006" lon="12.0350567"><ele>525.0</ele><time>2026-04-12T07:44:24.888Z</time></trkpt><trkpt lat="42.6080003" lon="12.0352542"><ele>525.5</ele><time>2026-04-12T07:44:25.889Z</time></trkpt><trkpt lat="42.6079926" lon="12.0354562"><ele>526.0</ele><time>2026-04-12T07:44:26.88Z</time></trkpt><trkpt lat="42.6079854" lon="12.0356518"><ele>526.5</ele><time>2026-04-12T07:44:27.886Z</time></trkpt><trkpt lat="42.6079731" lon="12.0358425"><ele>527.0</ele><time>2026-04-12T07:44:28.894Z</time></trkpt><trkpt lat="42.6079604" lon="12.0360214"><ele>528.0</ele><time>2026-04-12T07:44:29.885Z</time></trkpt><trkpt lat="42.6079419" lon="12.0361803"><ele>529.0</ele><time>2026-04-12T07:44:30.89Z</time></trkpt><trkpt lat="42.6079094" lon="12.0363363"><ele>530.0</ele><time>2026-04-12T07:44:31.901Z</time></trkpt><trkpt lat="42.6078582" lon="12.0364762"><ele>531.0</ele><time>2026-04-12T07:44:32.89Z</time></trkpt><trkpt lat="42.6077866" lon="12.0365926"><ele>533.75</ele><time>2026-04-12T07:44:33.891Z</time></trkpt><trkpt lat="42.6076954" lon="12.0366949"><ele>536.5</ele><time>2026-04-12T07:44:34.889Z</time></trkpt><trkpt lat="42.6076077" lon="12.0367994"><ele>539.25</ele><time>2026-04-12T07:44:35.891Z</time></trkpt><trkpt lat="42.6075362" lon="12.036931"><ele>542.0</ele><time>2026-04-12T07:44:36.896Z</time></trkpt><trkpt lat="42.6074758" lon="12.037059"><ele>542.0</ele><time>2026-04-12T07:44:37.902Z</time></trkpt><trkpt lat="42.6074436" lon="12.0371988"><ele>542.0</ele><time>2026-04-12T07:44:38.891Z</time></trkpt><trkpt lat="42.6074495" lon="12.0373291"><ele>542.0</ele><time>2026-04-12T07:44:39.891Z</time></trkpt><trkpt lat="42.6074782" lon="12.0374723"><ele>542.0</ele><time>2026-04-12T07:44:40.897Z</time></trkpt><trkpt lat="42.6075181" lon="12.0376181"><ele>542.0</ele><time>2026-04-12T07:44:41.88Z</time></trkpt><trkpt lat="42.6075807" lon="12.0377536"><ele>542.0</ele><time>2026-04-12T07:44:42.883Z</time></trkpt><trkpt lat="42.6076693" lon="12.037866"><ele>542.0</ele><time>2026-04-12T07:44:43.884Z</time></trkpt><trkpt lat="42.6077717" lon="12.0379596"><ele>542.0</ele><time>2026-04-12T07:44:44.889Z</time></trkpt><trkpt lat="42.6078848" lon="12.0380296"><ele>542.0</ele><time>2026-04-12T07:44:45.882Z</time></trkpt><trkpt lat="42.6079934" lon="12.0380872"><ele>541.8000000000001</ele><time>2026-04-12T07:44:46.888Z</time></trkpt><trkpt lat="42.608101" lon="12.0381444"><ele>541.6</ele><time>2026-04-12T07:44:47.886Z</time></trkpt><trkpt lat="42.6082059" lon="12.0381932"><ele>541.4000000000001</ele><time>2026-04-12T07:44:48.902Z</time></trkpt><trkpt lat="42.6083044" lon="12.0382415"><ele>541.2</ele><time>2026-04-12T07:44:49.881Z</time></trkpt><trkpt lat="42.6083855" lon="12.0383014"><ele>541.0</ele><time>2026-04-12T07:44:50.886Z</time></trkpt><trkpt lat="42.6084592" lon="12.0383529"><ele>542.2</ele><time>2026-04-12T07:44:51.891Z</time></trkpt><trkpt lat="42.6085259" lon="12.0384028"><ele>543.4000000000001</ele><time>2026-04-12T07:44:52.891Z</time></trkpt><trkpt lat="42.6086112" lon="12.0384605"><ele>544.6</ele><time>2026-04-12T07:44:53.881Z</time></trkpt><trkpt lat="42.6087021" lon="12.038532"><ele>545.8000000000001</ele><time>2026-04-12T07:44:54.902Z</time></trkpt><trkpt lat="42.608801" lon="12.0386005"><ele>547.0</ele><time>2026-04-12T07:44:55.915Z</time></trkpt><trkpt lat="42.6089049" lon="12.0386737"><ele>547.0</ele><time>2026-04-12T07:44:56.904Z</time></trkpt><trkpt lat="42.6090177" lon="12.0387515"><ele>547.0</ele><time>2026-04-12T07:44:57.889Z</time></trkpt><trkpt lat="42.6091305" lon="12.0388364"><ele>547.0</ele><time>2026-04-12T07:44:58.896Z</time></trkpt><trkpt lat="42.6092425" lon="12.0389174"><ele>547.0</ele><time>2026-04-12T07:44:59.89Z</time></trkpt><trkpt lat="42.6093537" lon="12.0389919"><ele>547.0</ele><time>2026-04-12T07:45:00.882Z</time></trkpt><trkpt lat="42.6094634" lon="12.0390698"><ele>547.0</ele><time>2026-04-12T07:45:01.9Z</time></trkpt><trkpt lat="42.6095599" lon="12.0391564"><ele>547.0</ele><time>2026-04-12T07:45:02.892Z</time></trkpt><trkpt lat="42.6096291" lon="12.0392631"><ele>547.0</ele><time>2026-04-12T07:45:03.883Z</time></trkpt><trkpt lat="42.6096749" lon="12.0394038"><ele>546.75</ele><time>2026-04-12T07:45:04.881Z</time></trkpt><trkpt lat="42.6097204" lon="12.0395474"><ele>546.5</ele><time>2026-04-12T07:45:05.887Z</time></trkpt><trkpt lat="42.6097721" lon="12.0396869"><ele>546.25</ele><time>2026-04-12T07:45:06.896Z</time></trkpt><trkpt lat="42.6098282" lon="12.0398394"><ele>546.0</ele><time>2026-04-12T07:45:07.882Z</time></trkpt><trkpt lat="42.609884" lon="12.0399859"><ele>546.75</ele><time>2026-04-12T07:45:08.906Z</time></trkpt><trkpt lat="42.609933" lon="12.0401328"><ele>547.5</ele><time>2026-04-12T07:45:09.891Z</time></trkpt><trkpt lat="42.6099888" lon="12.0402718"><ele>548.25</ele><time>2026-04-12T07:45:10.892Z</time></trkpt><trkpt lat="42.6100414" lon="12.0404093"><ele>549.0</ele><time>2026-04-12T07:45:11.897Z</time></trkpt><trkpt lat="42.6100814" lon="12.0405445"><ele>549.0</ele><time>2026-04-12T07:45:12.878Z</time></trkpt><trkpt lat="42.6101257" lon="12.0406637"><ele>549.0</ele><time>2026-04-12T07:45:13.893Z</time></trkpt><trkpt lat="42.6101583" lon="12.0407782"><ele>549.0</ele><time>2026-04-12T07:45:14.89Z</time></trkpt><trkpt lat="42.6101829" lon="12.040899"><ele>549.0</ele><time>2026-04-12T07:45:15.888Z</time></trkpt><trkpt lat="42.6101954" lon="12.0410134"><ele>549.0</ele><time>2026-04-12T07:45:16.888Z</time></trkpt><trkpt lat="42.6101918" lon="12.0411217"><ele>549.0</ele><time>2026-04-12T07:45:17.887Z</time></trkpt><trkpt lat="42.6101765" lon="12.0412196"><ele>549.5</ele><time>2026-04-12T07:45:18.896Z</time></trkpt><trkpt lat="42.6101301" lon="12.0413592"><ele>550.0</ele><time>2026-04-12T07:45:20.882Z</time></trkpt><trkpt lat="42.6100933" lon="12.0414756"><ele>550.5</ele><time>2026-04-12T07:45:22.886Z</time></trkpt><trkpt lat="42.6100815" lon="12.0415718"><ele>551.0</ele><time>2026-04-12T07:45:25.883Z</time></trkpt><trkpt lat="42.6100876" lon="12.041688"><ele>551.5</ele><time>2026-04-12T07:45:27.888Z</time></trkpt><trkpt lat="42.6101213" lon="12.0417777"><ele>552.0</ele><time>2026-04-12T07:45:29.88Z</time></trkpt><trkpt lat="42.6101614" lon="12.0418822"><ele>552.0</ele><time>2026-04-12T07:45:31.897Z</time></trkpt><trkpt lat="42.6101923" lon="12.0419593"><ele>552.0</ele><time>2026-04-12T07:45:32.894Z</time></trkpt><trkpt lat="42.6102261" lon="12.0420604"><ele>552.0</ele><time>2026-04-12T07:45:33.894Z</time></trkpt><trkpt lat="42.6102644" lon="12.0421724"><ele>552.0</ele><time>2026-04-12T07:45:34.879Z</time></trkpt><trkpt lat="42.6103066" lon="12.0423067"><ele>552.0</ele><time>2026-04-12T07:45:35.88Z</time></trkpt><trkpt lat="42.6103565" lon="12.0424464"><ele>553.25</ele><time>2026-04-12T07:45:36.902Z</time></trkpt><trkpt lat="42.6104087" lon="12.0426117"><ele>554.5</ele><time>2026-04-12T07:45:37.898Z</time></trkpt><trkpt lat="42.6104559" lon="12.042789"><ele>555.75</ele><time>2026-04-12T07:45:38.886Z</time></trkpt><trkpt lat="42.6104723" lon="12.0429688"><ele>557.0</ele><time>2026-04-12T07:45:39.88Z</time></trkpt><trkpt lat="42.6104418" lon="12.0431362"><ele>557.0</ele><time>2026-04-12T07:45:40.884Z</time></trkpt><trkpt lat="42.6103796" lon="12.0432879"><ele>557.0</ele><time>2026-04-12T07:45:41.888Z</time></trkpt><trkpt lat="42.6103065" lon="12.0434128"><ele>557.0</ele><time>2026-04-12T07:45:42.889Z</time></trkpt><trkpt lat="42.6102112" lon="12.0435149"><ele>557.0</ele><time>2026-04-12T07:45:43.89Z</time></trkpt><trkpt lat="42.6101127" lon="12.0436118"><ele>558.5</ele><time>2026-04-12T07:45:44.902Z</time></trkpt><trkpt lat="42.6100073" lon="12.0437093"><ele>560.0</ele><time>2026-04-12T07:45:45.877Z</time></trkpt><trkpt lat="42.6099027" lon="12.0438137"><ele>561.5</ele><time>2026-04-12T07:45:46.881Z</time></trkpt><trkpt lat="42.6097915" lon="12.043918"><ele>563.0</ele><time>2026-04-12T07:45:47.878Z</time></trkpt><trkpt lat="42.6096814" lon="12.0440223"><ele>564.25</ele><time>2026-04-12T07:45:48.899Z</time></trkpt><trkpt lat="42.6095643" lon="12.0441309"><ele>565.5</ele><time>2026-04-12T07:45:49.891Z</time></trkpt><trkpt lat="42.6094496" lon="12.0442345"><ele>566.75</ele><time>2026-04-12T07:45:50.89Z</time></trkpt><trkpt lat="42.6093469" lon="12.0443303"><ele>568.0</ele><time>2026-04-12T07:45:51.888Z</time></trkpt><trkpt lat="42.6092593" lon="12.0444327"><ele>568.0</ele><time>2026-04-12T07:45:52.901Z</time></trkpt><trkpt lat="42.6091814" lon="12.0445488"><ele>568.0</ele><time>2026-04-12T07:45:53.893Z</time></trkpt><trkpt lat="42.6091288" lon="12.0446897"><ele>568.0</ele><time>2026-04-12T07:45:54.886Z</time></trkpt><trkpt lat="42.6091177" lon="12.0448484"><ele>568.0</ele><time>2026-04-12T07:45:55.881Z</time></trkpt><trkpt lat="42.609137" lon="12.0450072"><ele>573.0</ele><time>2026-04-12T07:45:56.882Z</time></trkpt><trkpt lat="42.6091863" lon="12.0451591"><ele>578.0</ele><time>2026-04-12T07:45:57.882Z</time></trkpt><trkpt lat="42.609256" lon="12.0452963"><ele>583.0</ele><time>2026-04-12T07:45:58.888Z</time></trkpt><trkpt lat="42.6093471" lon="12.0454302"><ele>588.0</ele><time>2026-04-12T07:45:59.886Z</time></trkpt><trkpt lat="42.6094512" lon="12.0455422"><ele>589.0</ele><time>2026-04-12T07:46:00.902Z</time></trkpt><trkpt lat="42.6095672" lon="12.0456424"><ele>590.0</ele><time>2026-04-12T07:46:01.891Z</time></trkpt><trkpt lat="42.60969" lon="12.0457303"><ele>591.0</ele><time>2026-04-12T07:46:02.906Z</time></trkpt><trkpt lat="42.6098177" lon="12.0458327"><ele>592.0</ele><time>2026-04-12T07:46:03.898Z</time></trkpt><trkpt lat="42.6099394" lon="12.045934"><ele>592.0</ele><time>2026-04-12T07:46:04.885Z</time></trkpt><trkpt lat="42.6100563" lon="12.0460646"><ele>592.0</ele><time>2026-04-12T07:46:05.897Z</time></trkpt><trkpt lat="42.610176" lon="12.0462064"><ele>592.0</ele><time>2026-04-12T07:46:06.889Z</time></trkpt><trkpt lat="42.610282" lon="12.0463785"><ele>592.6666666666667</ele><time>2026-04-12T07:46:07.886Z</time></trkpt><trkpt lat="42.6103758" lon="12.0465608"><ele>593.3333333333334</ele><time>2026-04-12T07:46:08.894Z</time></trkpt><trkpt lat="42.6104629" lon="12.0467583"><ele>594.0</ele><time>2026-04-12T07:46:09.891Z</time></trkpt><trkpt lat="42.6105386" lon="12.0469609"><ele>592.0</ele><time>2026-04-12T07:46:10.884Z</time></trkpt><trkpt lat="42.6106209" lon="12.0471759"><ele>590.0</ele><time>2026-04-12T07:46:11.879Z</time></trkpt><trkpt lat="42.6107077" lon="12.0473896"><ele>588.0</ele><time>2026-04-12T07:46:12.883Z</time></trkpt><trkpt lat="42.6108001" lon="12.0475935"><ele>587.6666666666666</ele><time>2026-04-12T07:46:13.885Z</time></trkpt><trkpt lat="42.6108908" lon="12.0477916"><ele>587.3333333333333</ele><time>2026-04-12T07:46:14.886Z</time></trkpt><trkpt lat="42.6109815" lon="12.0479895"><ele>587.0</ele><time>2026-04-12T07:46:15.902Z</time></trkpt><trkpt lat="42.6110723" lon="12.0481873"><ele>588.3333333333333</ele><time>2026-04-12T07:46:16.902Z</time></trkpt><trkpt lat="42.6111646" lon="12.0483899"><ele>589.6666666666666</ele><time>2026-04-12T07:46:17.887Z</time></trkpt><trkpt lat="42.6112611" lon="12.0485904"><ele>591.0</ele><time>2026-04-12T07:46:18.889Z</time></trkpt><trkpt lat="42.6113585" lon="12.0487868"><ele>591.0</ele><time>2026-04-12T07:46:19.897Z</time></trkpt><trkpt lat="42.6114585" lon="12.0489819"><ele>591.0</ele><time>2026-04-12T07:46:20.903Z</time></trkpt><trkpt lat="42.6115616" lon="12.0491699"><ele>591.0</ele><time>2026-04-12T07:46:21.897Z</time></trkpt><trkpt lat="42.6116651" lon="12.0493575"><ele>591.3333333333334</ele><time>2026-04-12T07:46:22.895Z</time></trkpt><trkpt lat="42.6117731" lon="12.0495458"><ele>591.6666666666667</ele><time>2026-04-12T07:46:23.9Z</time></trkpt><trkpt lat="42.6118785" lon="12.0497276"><ele>592.0</ele><time>2026-04-12T07:46:24.897Z</time></trkpt><trkpt lat="42.6119771" lon="12.0498991"><ele>592.5</ele><time>2026-04-12T07:46:25.889Z</time></trkpt><trkpt lat="42.6120687" lon="12.0500565"><ele>593.0</ele><time>2026-04-12T07:46:26.897Z</time></trkpt><trkpt lat="42.6121535" lon="12.0502072"><ele>593.5</ele><time>2026-04-12T07:46:27.887Z</time></trkpt><trkpt lat="42.6122271" lon="12.0503352"><ele>594.0</ele><time>2026-04-12T07:46:28.896Z</time></trkpt><trkpt lat="42.6122952" lon="12.0504535"><ele>594.0</ele><time>2026-04-12T07:46:29.891Z</time></trkpt><trkpt lat="42.6123553" lon="12.0505521"><ele>594.0</ele><time>2026-04-12T07:46:30.897Z</time></trkpt><trkpt lat="42.6124023" lon="12.0506512"><ele>594.0</ele><time>2026-04-12T07:46:31.892Z</time></trkpt><trkpt lat="42.6124244" lon="12.0507446"><ele>594.0</ele><time>2026-04-12T07:46:32.891Z</time></trkpt><trkpt lat="42.612413" lon="12.05083"><ele>594.0</ele><time>2026-04-12T07:46:33.901Z</time></trkpt><trkpt lat="42.6123592" lon="12.0509008"><ele>594.0</ele><time>2026-04-12T07:46:34.888Z</time></trkpt><trkpt lat="42.6122853" lon="12.0509512"><ele>594.0</ele><time>2026-04-12T07:46:35.886Z</time></trkpt><trkpt lat="42.6122151" lon="12.0510302"><ele>594.0</ele><time>2026-04-12T07:46:36.89Z</time></trkpt><trkpt lat="42.6121423" lon="12.0511301"><ele>594.0</ele><time>2026-04-12T07:46:37.891Z</time></trkpt><trkpt lat="42.6120736" lon="12.0512506"><ele>594.0</ele><time>2026-04-12T07:46:38.893Z</time></trkpt><trkpt lat="42.6120077" lon="12.051388"><ele>594.0</ele><time>2026-04-12T07:46:39.889Z</time></trkpt><trkpt lat="42.6119461" lon="12.0515446"><ele>594.25</ele><time>2026-04-12T07:46:40.896Z</time></trkpt><trkpt lat="42.6118834" lon="12.0516974"><ele>594.5</ele><time>2026-04-12T07:46:41.889Z</time></trkpt><trkpt lat="42.6118313" lon="12.0518356"><ele>594.75</ele><time>2026-04-12T07:46:42.887Z</time></trkpt><trkpt lat="42.6117827" lon="12.0519683"><ele>595.0</ele><time>2026-04-12T07:46:43.884Z</time></trkpt><trkpt lat="42.6117359" lon="12.0521017"><ele>595.0</ele><time>2026-04-12T07:46:44.895Z</time></trkpt><trkpt lat="42.611695" lon="12.0522272"><ele>595.0</ele><time>2026-04-12T07:46:45.897Z</time></trkpt><trkpt lat="42.6116556" lon="12.0523541"><ele>595.0</ele><time>2026-04-12T07:46:46.9Z</time></trkpt><trkpt lat="42.6116145" lon="12.0524775"><ele>595.0</ele><time>2026-04-12T07:46:47.893Z</time></trkpt><trkpt lat="42.6115693" lon="12.0526009"><ele>595.0</ele><time>2026-04-12T07:46:48.884Z</time></trkpt><trkpt lat="42.6115254" lon="12.0527304"><ele>594.5</ele><time>2026-04-12T07:46:49.919Z</time></trkpt><trkpt lat="42.6114966" lon="12.0528716"><ele>594.0</ele><time>2026-04-12T07:46:50.896Z</time></trkpt><trkpt lat="42.6114829" lon="12.0530455"><ele>593.5</ele><time>2026-04-12T07:46:51.892Z</time></trkpt><trkpt lat="42.6114766" lon="12.0532397"><ele>593.0</ele><time>2026-04-12T07:46:52.898Z</time></trkpt><trkpt lat="42.611478" lon="12.0534446"><ele>592.0</ele><time>2026-04-12T07:46:53.892Z</time></trkpt><trkpt lat="42.6114848" lon="12.0536512"><ele>591.0</ele><time>2026-04-12T07:46:54.905Z</time></trkpt><trkpt lat="42.611491" lon="12.0538695"><ele>590.0</ele><time>2026-04-12T07:46:55.888Z</time></trkpt><trkpt lat="42.6114989" lon="12.0540862"><ele>589.3333333333333</ele><time>2026-04-12T07:46:56.889Z</time></trkpt><trkpt lat="42.6115093" lon="12.0542841"><ele>588.6666666666666</ele><time>2026-04-12T07:46:57.888Z</time></trkpt><trkpt lat="42.6115163" lon="12.0544914"><ele>588.0</ele><time>2026-04-12T07:46:58.895Z</time></trkpt><trkpt lat="42.6115246" lon="12.0547003"><ele>588.0</ele><time>2026-04-12T07:46:59.896Z</time></trkpt><trkpt lat="42.6115228" lon="12.0549089"><ele>588.0</ele><time>2026-04-12T07:47:00.901Z</time></trkpt><trkpt lat="42.6115044" lon="12.0551111"><ele>588.0</ele><time>2026-04-12T07:47:01.89Z</time></trkpt><trkpt lat="42.6114692" lon="12.0553098"><ele>588.6666666666666</ele><time>2026-04-12T07:47:02.887Z</time></trkpt><trkpt lat="42.6114078" lon="12.0554996"><ele>589.3333333333333</ele><time>2026-04-12T07:47:03.892Z</time></trkpt><trkpt lat="42.6113366" lon="12.0556938"><ele>590.0</ele><time>2026-04-12T07:47:04.895Z</time></trkpt><trkpt lat="42.6112626" lon="12.0558743"><ele>590.0</ele><time>2026-04-12T07:47:05.891Z</time></trkpt><trkpt lat="42.6111963" lon="12.0560315"><ele>590.0</ele><time>2026-04-12T07:47:06.889Z</time></trkpt><trkpt lat="42.6111369" lon="12.0561735"><ele>590.0</ele><time>2026-04-12T07:47:07.898Z</time></trkpt><trkpt lat="42.6110704" lon="12.0562913"><ele>590.0</ele><time>2026-04-12T07:47:08.88Z</time></trkpt><trkpt lat="42.6109985" lon="12.0563866"><ele>589.2</ele><time>2026-04-12T07:47:09.889Z</time></trkpt><trkpt lat="42.6109087" lon="12.0564378"><ele>588.4</ele><time>2026-04-12T07:47:10.893Z</time></trkpt><trkpt lat="42.6108134" lon="12.0564286"><ele>587.6</ele><time>2026-04-12T07:47:11.893Z</time></trkpt><trkpt lat="42.6107185" lon="12.0563984"><ele>586.8</ele><time>2026-04-12T07:47:12.883Z</time></trkpt><trkpt lat="42.6106207" lon="12.0563399"><ele>586.0</ele><time>2026-04-12T07:47:13.899Z</time></trkpt><trkpt lat="42.6105285" lon="12.056274"><ele>586.0</ele><time>2026-04-12T07:47:14.89Z</time></trkpt><trkpt lat="42.6104397" lon="12.0561862"><ele>586.0</ele><time>2026-04-12T07:47:15.884Z</time></trkpt><trkpt lat="42.6103664" lon="12.0560789"><ele>586.0</ele><time>2026-04-12T07:47:16.892Z</time></trkpt><trkpt lat="42.6102929" lon="12.0559592"><ele>586.0</ele><time>2026-04-12T07:47:17.897Z</time></trkpt><trkpt lat="42.6102182" lon="12.0558049"><ele>585.0</ele><time>2026-04-12T07:47:18.893Z</time></trkpt><trkpt lat="42.6101442" lon="12.0556485"><ele>584.0</ele><time>2026-04-12T07:47:19.88Z</time></trkpt><trkpt lat="42.6100527" lon="12.0554903"><ele>583.0</ele><time>2026-04-12T07:47:20.902Z</time></trkpt><trkpt lat="42.6099545" lon="12.0553365"><ele>582.0</ele><time>2026-04-12T07:47:21.892Z</time></trkpt><trkpt lat="42.6098468" lon="12.0552048"><ele>582.0</ele><time>2026-04-12T07:47:22.881Z</time></trkpt><trkpt lat="42.6097326" lon="12.0550859"><ele>582.0</ele><time>2026-04-12T07:47:23.898Z</time></trkpt><trkpt lat="42.6096085" lon="12.0549755"><ele>582.0</ele><time>2026-04-12T07:47:24.896Z</time></trkpt><trkpt lat="42.6094934" lon="12.0548681"><ele>582.0</ele><time>2026-04-12T07:47:25.882Z</time></trkpt><trkpt lat="42.6093845" lon="12.0547673"><ele>582.5</ele><time>2026-04-12T07:47:26.881Z</time></trkpt><trkpt lat="42.6092804" lon="12.0546894"><ele>583.0</ele><time>2026-04-12T07:47:27.889Z</time></trkpt><trkpt lat="42.6091698" lon="12.0546469"><ele>583.5</ele><time>2026-04-12T07:47:28.9Z</time></trkpt><trkpt lat="42.609042" lon="12.0546371"><ele>584.0</ele><time>2026-04-12T07:47:29.887Z</time></trkpt><trkpt lat="42.6089056" lon="12.0546743"><ele>584.0</ele><time>2026-04-12T07:47:30.889Z</time></trkpt><trkpt lat="42.608775" lon="12.0547226"><ele>584.0</ele><time>2026-04-12T07:47:31.891Z</time></trkpt><trkpt lat="42.6086509" lon="12.0547678"><ele>584.0</ele><time>2026-04-12T07:47:32.901Z</time></trkpt><trkpt lat="42.608538" lon="12.054809"><ele>584.0</ele><time>2026-04-12T07:47:33.899Z</time></trkpt><trkpt lat="42.6084251" lon="12.0548455"><ele>584.0</ele><time>2026-04-12T07:47:34.899Z</time></trkpt><trkpt lat="42.6083052" lon="12.0548873"><ele>584.0</ele><time>2026-04-12T07:47:35.887Z</time></trkpt><trkpt lat="42.6081819" lon="12.0549381"><ele>584.0</ele><time>2026-04-12T07:47:36.892Z</time></trkpt><trkpt lat="42.6080646" lon="12.0549892"><ele>584.0</ele><time>2026-04-12T07:47:37.884Z</time></trkpt><trkpt lat="42.6079566" lon="12.0550466"><ele>583.75</ele><time>2026-04-12T07:47:38.893Z</time></trkpt><trkpt lat="42.6078641" lon="12.0551263"><ele>583.5</ele><time>2026-04-12T07:47:39.889Z</time></trkpt><trkpt lat="42.607789" lon="12.0552275"><ele>583.25</ele><time>2026-04-12T07:47:40.896Z</time></trkpt><trkpt lat="42.6077292" lon="12.0553582"><ele>583.0</ele><time>2026-04-12T07:47:41.881Z</time></trkpt><trkpt lat="42.60767" lon="12.0555166"><ele>582.5</ele><time>2026-04-12T07:47:42.88Z</time></trkpt><trkpt lat="42.607613" lon="12.0556703"><ele>582.0</ele><time>2026-04-12T07:47:43.902Z</time></trkpt><trkpt lat="42.6075489" lon="12.0558382"><ele>581.5</ele><time>2026-04-12T07:47:44.89Z</time></trkpt><trkpt lat="42.6074826" lon="12.0560057"><ele>581.0</ele><time>2026-04-12T07:47:45.9Z</time></trkpt><trkpt lat="42.6074122" lon="12.0561711"><ele>581.0</ele><time>2026-04-12T07:47:46.892Z</time></trkpt><trkpt lat="42.607344" lon="12.0563167"><ele>581.0</ele><time>2026-04-12T07:47:47.891Z</time></trkpt><trkpt lat="42.6072834" lon="12.0564638"><ele>581.0</ele><time>2026-04-12T07:47:48.891Z</time></trkpt><trkpt lat="42.6072117" lon="12.0566221"><ele>581.0</ele><time>2026-04-12T07:47:49.898Z</time></trkpt><trkpt lat="42.6071528" lon="12.0567772"><ele>580.75</ele><time>2026-04-12T07:47:50.883Z</time></trkpt><trkpt lat="42.6070906" lon="12.0569248"><ele>580.5</ele><time>2026-04-12T07:47:51.885Z</time></trkpt><trkpt lat="42.6070246" lon="12.0570584"><ele>580.25</ele><time>2026-04-12T07:47:52.905Z</time></trkpt><trkpt lat="42.6069605" lon="12.0571774"><ele>580.0</ele><time>2026-04-12T07:47:53.893Z</time></trkpt><trkpt lat="42.606902" lon="12.057294"><ele>579.8</ele><time>2026-04-12T07:47:54.885Z</time></trkpt><trkpt lat="42.6068438" lon="12.0573893"><ele>579.6</ele><time>2026-04-12T07:47:55.88Z</time></trkpt><trkpt lat="42.6067909" lon="12.0574658"><ele>579.4</ele><time>2026-04-12T07:47:56.89Z</time></trkpt><trkpt lat="42.6067408" lon="12.0575367"><ele>579.2</ele><time>2026-04-12T07:47:57.894Z</time></trkpt><trkpt lat="42.606653" lon="12.0576433"><ele>579.0</ele><time>2026-04-12T07:47:59.901Z</time></trkpt><trkpt lat="42.6065529" lon="12.0577138"><ele>579.0</ele><time>2026-04-12T07:48:01.883Z</time></trkpt><trkpt lat="42.6064375" lon="12.057744"><ele>579.0</ele><time>2026-04-12T07:48:03.895Z</time></trkpt><trkpt lat="42.6063441" lon="12.0577967"><ele>579.0</ele><time>2026-04-12T07:48:05.882Z</time></trkpt><trkpt lat="42.6063305" lon="12.0579406"><ele>579.0</ele><time>2026-04-12T07:48:07.885Z</time></trkpt><trkpt lat="42.6063441" lon="12.0580256"><ele>579.0</ele><time>2026-04-12T07:48:08.887Z</time></trkpt><trkpt lat="42.6063258" lon="12.0581338"><ele>579.0</ele><time>2026-04-12T07:48:09.888Z</time></trkpt><trkpt lat="42.6062792" lon="12.0582493"><ele>579.0</ele><time>2026-04-12T07:48:10.892Z</time></trkpt><trkpt lat="42.6062093" lon="12.058368"><ele>579.0</ele><time>2026-04-12T07:48:11.889Z</time></trkpt><trkpt lat="42.6061474" lon="12.0584937"><ele>579.0</ele><time>2026-04-12T07:48:12.889Z</time></trkpt><trkpt lat="42.6060833" lon="12.0586142"><ele>579.0</ele><time>2026-04-12T07:48:13.89Z</time></trkpt><trkpt lat="42.606013" lon="12.0587175"><ele>577.8</ele><time>2026-04-12T07:48:14.883Z</time></trkpt><trkpt lat="42.6059299" lon="12.0588014"><ele>576.5999999999999</ele><time>2026-04-12T07:48:15.891Z</time></trkpt><trkpt lat="42.6058366" lon="12.0588623"><ele>575.4</ele><time>2026-04-12T07:48:16.899Z</time></trkpt><trkpt lat="42.6057446" lon="12.0589184"><ele>574.1999999999999</ele><time>2026-04-12T07:48:17.896Z</time></trkpt><trkpt lat="42.6056537" lon="12.058973"><ele>573.0</ele><time>2026-04-12T07:48:18.897Z</time></trkpt><trkpt lat="42.6055662" lon="12.0590156"><ele>573.0</ele><time>2026-04-12T07:48:19.894Z</time></trkpt><trkpt lat="42.6054803" lon="12.059051"><ele>573.0</ele><time>2026-04-12T07:48:20.894Z</time></trkpt><trkpt lat="42.605401" lon="12.0590887"><ele>573.0</ele><time>2026-04-12T07:48:21.887Z</time></trkpt><trkpt lat="42.6053251" lon="12.0591232"><ele>573.0</ele><time>2026-04-12T07:48:22.894Z</time></trkpt><trkpt lat="42.6052507" lon="12.0591671"><ele>573.0</ele><time>2026-04-12T07:48:23.898Z</time></trkpt><trkpt lat="42.60518" lon="12.0592253"><ele>573.0</ele><time>2026-04-12T07:48:24.891Z</time></trkpt><trkpt lat="42.6051068" lon="12.0592846"><ele>572.0</ele><time>2026-04-12T07:48:25.894Z</time></trkpt><trkpt lat="42.605034" lon="12.05934"><ele>571.0</ele><time>2026-04-12T07:48:26.897Z</time></trkpt><trkpt lat="42.6049518" lon="12.0594"><ele>570.0</ele><time>2026-04-12T07:48:27.888Z</time></trkpt><trkpt lat="42.6048604" lon="12.059468"><ele>569.0</ele><time>2026-04-12T07:48:28.894Z</time></trkpt><trkpt lat="42.6047648" lon="12.0595335"><ele>568.0</ele><time>2026-04-12T07:48:29.896Z</time></trkpt><trkpt lat="42.6046665" lon="12.0596066"><ele>568.0</ele><time>2026-04-12T07:48:30.887Z</time></trkpt><trkpt lat="42.6045614" lon="12.0596908"><ele>568.0</ele><time>2026-04-12T07:48:31.887Z</time></trkpt><trkpt lat="42.6044411" lon="12.0597786"><ele>568.0</ele><time>2026-04-12T07:48:32.897Z</time></trkpt><trkpt lat="42.6043212" lon="12.0598708"><ele>568.0</ele><time>2026-04-12T07:48:33.888Z</time></trkpt><trkpt lat="42.6042055" lon="12.0599576"><ele>566.25</ele><time>2026-04-12T07:48:34.892Z</time></trkpt><trkpt lat="42.6040994" lon="12.0600416"><ele>564.5</ele><time>2026-04-12T07:48:35.893Z</time></trkpt><trkpt lat="42.6039898" lon="12.060112"><ele>562.75</ele><time>2026-04-12T07:48:36.902Z</time></trkpt><trkpt lat="42.6038639" lon="12.0601639"><ele>561.0</ele><time>2026-04-12T07:48:37.892Z</time></trkpt><trkpt lat="42.6037262" lon="12.0602133"><ele>560.25</ele><time>2026-04-12T07:48:38.901Z</time></trkpt><trkpt lat="42.6035865" lon="12.0602623"><ele>559.5</ele><time>2026-04-12T07:48:39.889Z</time></trkpt><trkpt lat="42.6034448" lon="12.0603212"><ele>558.75</ele><time>2026-04-12T07:48:40.899Z</time></trkpt><trkpt lat="42.6033095" lon="12.0603856"><ele>558.0</ele><time>2026-04-12T07:48:41.893Z</time></trkpt><trkpt lat="42.6031768" lon="12.0604524"><ele>558.0</ele><time>2026-04-12T07:48:42.891Z</time></trkpt><trkpt lat="42.6030517" lon="12.0605304"><ele>558.0</ele><time>2026-04-12T07:48:43.906Z</time></trkpt><trkpt lat="42.6029282" lon="12.0606206"><ele>558.0</ele><time>2026-04-12T07:48:44.887Z</time></trkpt><trkpt lat="42.6028034" lon="12.0607114"><ele>558.0</ele><time>2026-04-12T07:48:45.889Z</time></trkpt><trkpt lat="42.6026726" lon="12.0608014"><ele>557.75</ele><time>2026-04-12T07:48:46.884Z</time></trkpt><trkpt lat="42.6025482" lon="12.0608856"><ele>557.5</ele><time>2026-04-12T07:48:47.887Z</time></trkpt><trkpt lat="42.6024326" lon="12.0609702"><ele>557.25</ele><time>2026-04-12T07:48:48.903Z</time></trkpt><trkpt lat="42.6023207" lon="12.061069"><ele>557.0</ele><time>2026-04-12T07:48:49.889Z</time></trkpt><trkpt lat="42.6022092" lon="12.0611812"><ele>557.0</ele><time>2026-04-12T07:48:50.88Z</time></trkpt><trkpt lat="42.6020983" lon="12.0613114"><ele>557.0</ele><time>2026-04-12T07:48:51.892Z</time></trkpt><trkpt lat="42.601986" lon="12.0614426"><ele>557.0</ele><time>2026-04-12T07:48:52.884Z</time></trkpt><trkpt lat="42.6018719" lon="12.0615666"><ele>557.0</ele><time>2026-04-12T07:48:53.89Z</time></trkpt><trkpt lat="42.6017655" lon="12.0616836"><ele>556.0</ele><time>2026-04-12T07:48:54.888Z</time></trkpt><trkpt lat="42.6016508" lon="12.0617867"><ele>555.0</ele><time>2026-04-12T07:48:55.886Z</time></trkpt><trkpt lat="42.60153" lon="12.0618794"><ele>554.0</ele><time>2026-04-12T07:48:56.89Z</time></trkpt><trkpt lat="42.6014103" lon="12.061972"><ele>553.0</ele><time>2026-04-12T07:48:57.889Z</time></trkpt><trkpt lat="42.6012862" lon="12.062059"><ele>552.75</ele><time>2026-04-12T07:48:58.88Z</time></trkpt><trkpt lat="42.6011644" lon="12.0621361"><ele>552.5</ele><time>2026-04-12T07:48:59.889Z</time></trkpt><trkpt lat="42.6010421" lon="12.0622068"><ele>552.25</ele><time>2026-04-12T07:49:00.889Z</time></trkpt><trkpt lat="42.6009259" lon="12.0622669"><ele>552.0</ele><time>2026-04-12T07:49:01.895Z</time></trkpt><trkpt lat="42.6008173" lon="12.0623323"><ele>552.0</ele><time>2026-04-12T07:49:02.887Z</time></trkpt><trkpt lat="42.6007138" lon="12.0623912"><ele>552.0</ele><time>2026-04-12T07:49:03.9Z</time></trkpt><trkpt lat="42.6006293" lon="12.0624586"><ele>552.0</ele><time>2026-04-12T07:49:04.9Z</time></trkpt><trkpt lat="42.6005552" lon="12.0625375"><ele>552.0</ele><time>2026-04-12T07:49:05.88Z</time></trkpt><trkpt lat="42.6004959" lon="12.0626127"><ele>552.0</ele><time>2026-04-12T07:49:06.901Z</time></trkpt><trkpt lat="42.6004391" lon="12.0626958"><ele>551.6666666666666</ele><time>2026-04-12T07:49:07.89Z</time></trkpt><trkpt lat="42.6003953" lon="12.0627738"><ele>551.3333333333334</ele><time>2026-04-12T07:49:08.894Z</time></trkpt><trkpt lat="42.6003508" lon="12.0628465"><ele>551.0</ele><time>2026-04-12T07:49:09.891Z</time></trkpt><trkpt lat="42.6003002" lon="12.0629158"><ele>550.6666666666667</ele><time>2026-04-12T07:49:11.895Z</time></trkpt><trkpt lat="42.6003079" lon="12.0630159"><ele>550.3333333333334</ele><time>2026-04-12T07:49:14.889Z</time></trkpt><trkpt lat="42.6004358" lon="12.0630643"><ele>550.0</ele><time>2026-04-12T07:49:16.89Z</time></trkpt><trkpt lat="42.6005112" lon="12.0631109"><ele>550.0</ele><time>2026-04-12T07:49:17.884Z</time></trkpt><trkpt lat="42.6006047" lon="12.0631626"><ele>550.0</ele><time>2026-04-12T07:49:18.895Z</time></trkpt><trkpt lat="42.6007082" lon="12.0632367"><ele>550.0</ele><time>2026-04-12T07:49:19.891Z</time></trkpt><trkpt lat="42.6008315" lon="12.0633093"><ele>550.0</ele><time>2026-04-12T07:49:20.887Z</time></trkpt><trkpt lat="42.600968" lon="12.063387"><ele>550.0</ele><time>2026-04-12T07:49:21.889Z</time></trkpt><trkpt lat="42.6011139" lon="12.0634768"><ele>550.0</ele><time>2026-04-12T07:49:22.878Z</time></trkpt><trkpt lat="42.6012657" lon="12.0635668"><ele>550.0</ele><time>2026-04-12T07:49:23.891Z</time></trkpt><trkpt lat="42.6014265" lon="12.0636508"><ele>550.0</ele><time>2026-04-12T07:49:24.895Z</time></trkpt><trkpt lat="42.6015973" lon="12.0637399"><ele>550.0</ele><time>2026-04-12T07:49:25.897Z</time></trkpt><trkpt lat="42.6017703" lon="12.0638222"><ele>550.0</ele><time>2026-04-12T07:49:26.884Z</time></trkpt><trkpt lat="42.6019472" lon="12.0639103"><ele>551.0</ele><time>2026-04-12T07:49:27.882Z</time></trkpt><trkpt lat="42.6021297" lon="12.0639948"><ele>552.0</ele><time>2026-04-12T07:49:28.894Z</time></trkpt><trkpt lat="42.6023125" lon="12.0640791"><ele>553.0</ele><time>2026-04-12T07:49:29.895Z</time></trkpt><trkpt lat="42.6024934" lon="12.0641653"><ele>553.0</ele><time>2026-04-12T07:49:30.888Z</time></trkpt><trkpt lat="42.6026756" lon="12.0642462"><ele>553.0</ele><time>2026-04-12T07:49:31.884Z</time></trkpt><trkpt lat="42.6028623" lon="12.0643315"><ele>553.0</ele><time>2026-04-12T07:49:32.89Z</time></trkpt><trkpt lat="42.6030473" lon="12.0644171"><ele>554.0</ele><time>2026-04-12T07:49:33.899Z</time></trkpt><trkpt lat="42.6032338" lon="12.0644987"><ele>555.0</ele><time>2026-04-12T07:49:34.879Z</time></trkpt><trkpt lat="42.6034188" lon="12.064582"><ele>556.0</ele><time>2026-04-12T07:49:35.894Z</time></trkpt><trkpt lat="42.6036028" lon="12.0646681"><ele>556.6666666666667</ele><time>2026-04-12T07:49:36.884Z</time></trkpt><trkpt lat="42.6037889" lon="12.0647499"><ele>557.3333333333334</ele><time>2026-04-12T07:49:37.89Z</time></trkpt><trkpt lat="42.6039744" lon="12.0648348"><ele>558.0</ele><time>2026-04-12T07:49:38.9Z</time></trkpt><trkpt lat="42.6041628" lon="12.0649208"><ele>557.3333333333334</ele><time>2026-04-12T07:49:39.896Z</time></trkpt><trkpt lat="42.6043526" lon="12.0650059"><ele>556.6666666666667</ele><time>2026-04-12T07:49:40.878Z</time></trkpt><trkpt lat="42.6045439" lon="12.0650894"><ele>556.0</ele><time>2026-04-12T07:49:41.893Z</time></trkpt><trkpt lat="42.6047327" lon="12.0651734"><ele>558.0</ele><time>2026-04-12T07:49:42.896Z</time></trkpt><trkpt lat="42.604922" lon="12.0652542"><ele>560.0</ele><time>2026-04-12T07:49:43.885Z</time></trkpt><trkpt lat="42.6051044" lon="12.0653366"><ele>562.0</ele><time>2026-04-12T07:49:44.885Z</time></trkpt><trkpt lat="42.6052798" lon="12.0654173"><ele>563.6666666666667</ele><time>2026-04-12T07:49:45.877Z</time></trkpt><trkpt lat="42.6054464" lon="12.0654884"><ele>565.3333333333334</ele><time>2026-04-12T07:49:46.883Z</time></trkpt><trkpt lat="42.6056053" lon="12.0655507"><ele>567.0</ele><time>2026-04-12T07:49:47.88Z</time></trkpt><trkpt lat="42.6057643" lon="12.0655904"><ele>567.0</ele><time>2026-04-12T07:49:48.892Z</time></trkpt><trkpt lat="42.6059275" lon="12.0656106"><ele>567.0</ele><time>2026-04-12T07:49:49.891Z</time></trkpt><trkpt lat="42.6060892" lon="12.0656133"><ele>567.0</ele><time>2026-04-12T07:49:50.888Z</time></trkpt><trkpt lat="42.6062505" lon="12.0656155"><ele>569.0</ele><time>2026-04-12T07:49:51.885Z</time></trkpt><trkpt lat="42.6064113" lon="12.0656298"><ele>571.0</ele><time>2026-04-12T07:49:52.884Z</time></trkpt><trkpt lat="42.6065713" lon="12.0656755"><ele>573.0</ele><time>2026-04-12T07:49:53.883Z</time></trkpt><trkpt lat="42.606726" lon="12.0657703"><ele>573.6666666666666</ele><time>2026-04-12T07:49:54.881Z</time></trkpt><trkpt lat="42.6068799" lon="12.0658856"><ele>574.3333333333333</ele><time>2026-04-12T07:49:55.876Z</time></trkpt><trkpt lat="42.6070372" lon="12.066018"><ele>575.0</ele><time>2026-04-12T07:49:56.886Z</time></trkpt><trkpt lat="42.6071914" lon="12.0661703"><ele>575.0</ele><time>2026-04-12T07:49:57.889Z</time></trkpt><trkpt lat="42.607344" lon="12.0663284"><ele>575.0</ele><time>2026-04-12T07:49:58.901Z</time></trkpt><trkpt lat="42.6075056" lon="12.0664866"><ele>575.0</ele><time>2026-04-12T07:49:59.887Z</time></trkpt><trkpt lat="42.6076719" lon="12.0666309"><ele>574.6666666666666</ele><time>2026-04-12T07:50:00.902Z</time></trkpt><trkpt lat="42.6078305" lon="12.0667843"><ele>574.3333333333334</ele><time>2026-04-12T07:50:01.893Z</time></trkpt><trkpt lat="42.607981" lon="12.066946"><ele>574.0</ele><time>2026-04-12T07:50:02.885Z</time></trkpt><trkpt lat="42.6081254" lon="12.0671038"><ele>574.0</ele><time>2026-04-12T07:50:03.904Z</time></trkpt><trkpt lat="42.6082581" lon="12.067242"><ele>574.0</ele><time>2026-04-12T07:50:04.893Z</time></trkpt><trkpt lat="42.6083939" lon="12.0673728"><ele>574.0</ele><time>2026-04-12T07:50:05.885Z</time></trkpt><trkpt lat="42.6085329" lon="12.0674937"><ele>573.6666666666667</ele><time>2026-04-12T07:50:06.889Z</time></trkpt><trkpt lat="42.6086831" lon="12.0675987"><ele>573.3333333333334</ele><time>2026-04-12T07:50:07.897Z</time></trkpt><trkpt lat="42.6088408" lon="12.067684"><ele>573.0</ele><time>2026-04-12T07:50:08.894Z</time></trkpt><trkpt lat="42.6090107" lon="12.0677568"><ele>573.0</ele><time>2026-04-12T07:50:09.899Z</time></trkpt><trkpt lat="42.6091872" lon="12.0678232"><ele>573.0</ele><time>2026-04-12T07:50:10.895Z</time></trkpt><trkpt lat="42.6093632" lon="12.067898"><ele>573.0</ele><time>2026-04-12T07:50:11.891Z</time></trkpt><trkpt lat="42.6095375" lon="12.0679816"><ele>572.0</ele><time>2026-04-12T07:50:12.889Z</time></trkpt><trkpt lat="42.6097135" lon="12.0680717"><ele>571.0</ele><time>2026-04-12T07:50:13.884Z</time></trkpt><trkpt lat="42.6098863" lon="12.0681659"><ele>570.0</ele><time>2026-04-12T07:50:14.894Z</time></trkpt><trkpt lat="42.6100575" lon="12.0682658"><ele>568.3333333333334</ele><time>2026-04-12T07:50:15.889Z</time></trkpt><trkpt lat="42.6102301" lon="12.0683615"><ele>566.6666666666667</ele><time>2026-04-12T07:50:16.886Z</time></trkpt><trkpt lat="42.6103948" lon="12.0684528"><ele>565.0</ele><time>2026-04-12T07:50:17.893Z</time></trkpt><trkpt lat="42.6105449" lon="12.06856"><ele>564.3333333333334</ele><time>2026-04-12T07:50:18.891Z</time></trkpt><trkpt lat="42.6106815" lon="12.0686986"><ele>563.6666666666666</ele><time>2026-04-12T07:50:19.881Z</time></trkpt><trkpt lat="42.6107946" lon="12.0688689"><ele>563.0</ele><time>2026-04-12T07:50:20.9Z</time></trkpt><trkpt lat="42.610894" lon="12.0690606"><ele>562.3333333333333</ele><time>2026-04-12T07:50:21.892Z</time></trkpt><trkpt lat="42.6109899" lon="12.0692582"><ele>561.6666666666666</ele><time>2026-04-12T07:50:22.904Z</time></trkpt><trkpt lat="42.611094" lon="12.0694631"><ele>561.0</ele><time>2026-04-12T07:50:23.9Z</time></trkpt><trkpt lat="42.6112006" lon="12.069648"><ele>560.6666666666666</ele><time>2026-04-12T07:50:24.882Z</time></trkpt><trkpt lat="42.6113176" lon="12.0698236"><ele>560.3333333333333</ele><time>2026-04-12T07:50:25.89Z</time></trkpt><trkpt lat="42.6114403" lon="12.0699969"><ele>560.0</ele><time>2026-04-12T07:50:26.893Z</time></trkpt><trkpt lat="42.6115615" lon="12.0701644"><ele>560.0</ele><time>2026-04-12T07:50:27.886Z</time></trkpt><trkpt lat="42.6116863" lon="12.0703358"><ele>560.0</ele><time>2026-04-12T07:50:28.903Z</time></trkpt><trkpt lat="42.6118118" lon="12.0705076"><ele>560.0</ele><time>2026-04-12T07:50:29.882Z</time></trkpt><trkpt lat="42.611936" lon="12.0706774"><ele>559.3333333333333</ele><time>2026-04-12T07:50:30.9Z</time></trkpt><trkpt lat="42.6120616" lon="12.0708493"><ele>558.6666666666666</ele><time>2026-04-12T07:50:31.884Z</time></trkpt><trkpt lat="42.6121879" lon="12.0710245"><ele>558.0</ele><time>2026-04-12T07:50:32.885Z</time></trkpt><trkpt lat="42.6123184" lon="12.0711952"><ele>558.0</ele><time>2026-04-12T07:50:33.89Z</time></trkpt><trkpt lat="42.612451" lon="12.0713604"><ele>558.0</ele><time>2026-04-12T07:50:34.888Z</time></trkpt><trkpt lat="42.6125878" lon="12.0715273"><ele>558.0</ele><time>2026-04-12T07:50:35.893Z</time></trkpt><trkpt lat="42.6127294" lon="12.0716952"><ele>558.0</ele><time>2026-04-12T07:50:36.894Z</time></trkpt><trkpt lat="42.6128726" lon="12.071862"><ele>558.0</ele><time>2026-04-12T07:50:37.895Z</time></trkpt><trkpt lat="42.6130205" lon="12.0720331"><ele>558.0</ele><time>2026-04-12T07:50:38.9Z</time></trkpt><trkpt lat="42.6131636" lon="12.0722027"><ele>558.0</ele><time>2026-04-12T07:50:39.89Z</time></trkpt><trkpt lat="42.6133078" lon="12.0723731"><ele>558.0</ele><time>2026-04-12T07:50:40.88Z</time></trkpt><trkpt lat="42.6134513" lon="12.0725321"><ele>558.0</ele><time>2026-04-12T07:50:41.889Z</time></trkpt><trkpt lat="42.6135997" lon="12.072686"><ele>557.6666666666666</ele><time>2026-04-12T07:50:42.882Z</time></trkpt><trkpt lat="42.6137572" lon="12.0728302"><ele>557.3333333333333</ele><time>2026-04-12T07:50:43.891Z</time></trkpt><trkpt lat="42.613916" lon="12.072962"><ele>557.0</ele><time>2026-04-12T07:50:44.888Z</time></trkpt><trkpt lat="42.6140811" lon="12.0730872"><ele>557.0</ele><time>2026-04-12T07:50:45.887Z</time></trkpt><trkpt lat="42.614246" lon="12.0731969"><ele>557.0</ele><time>2026-04-12T07:50:46.886Z</time></trkpt><trkpt lat="42.6144123" lon="12.0732861"><ele>557.0</ele><time>2026-04-12T07:50:47.889Z</time></trkpt><trkpt lat="42.6145755" lon="12.0733729"><ele>558.3333333333333</ele><time>2026-04-12T07:50:48.895Z</time></trkpt><trkpt lat="42.6147277" lon="12.0734561"><ele>559.6666666666666</ele><time>2026-04-12T07:50:49.893Z</time></trkpt><trkpt lat="42.6148754" lon="12.0735514"><ele>561.0</ele><time>2026-04-12T07:50:50.886Z</time></trkpt><trkpt lat="42.6150078" lon="12.0736741"><ele>561.0</ele><time>2026-04-12T07:50:51.89Z</time></trkpt><trkpt lat="42.6151242" lon="12.0738141"><ele>561.0</ele><time>2026-04-12T07:50:52.893Z</time></trkpt><trkpt lat="42.6152373" lon="12.0739671"><ele>561.0</ele><time>2026-04-12T07:50:53.891Z</time></trkpt><trkpt lat="42.6153519" lon="12.0741233"><ele>561.3333333333334</ele><time>2026-04-12T07:50:54.888Z</time></trkpt><trkpt lat="42.6154699" lon="12.0742754"><ele>561.6666666666667</ele><time>2026-04-12T07:50:55.92Z</time></trkpt><trkpt lat="42.6155917" lon="12.0744403"><ele>562.0</ele><time>2026-04-12T07:50:56.891Z</time></trkpt><trkpt lat="42.6157187" lon="12.0746064"><ele>562.0</ele><time>2026-04-12T07:50:57.883Z</time></trkpt><trkpt lat="42.6158478" lon="12.0747778"><ele>562.0</ele><time>2026-04-12T07:50:58.898Z</time></trkpt><trkpt lat="42.6159722" lon="12.0749442"><ele>562.0</ele><time>2026-04-12T07:50:59.888Z</time></trkpt><trkpt lat="42.6160934" lon="12.0751032"><ele>560.6666666666667</ele><time>2026-04-12T07:51:00.899Z</time></trkpt><trkpt lat="42.616203" lon="12.0752557"><ele>559.3333333333334</ele><time>2026-04-12T07:51:01.883Z</time></trkpt><trkpt lat="42.6163094" lon="12.075403"><ele>558.0</ele><time>2026-04-12T07:51:02.888Z</time></trkpt><trkpt lat="42.616404" lon="12.075548"><ele>558.0</ele><time>2026-04-12T07:51:03.908Z</time></trkpt><trkpt lat="42.6164894" lon="12.0756975"><ele>558.0</ele><time>2026-04-12T07:51:04.892Z</time></trkpt><trkpt lat="42.6165514" lon="12.0758578"><ele>558.0</ele><time>2026-04-12T07:51:05.88Z</time></trkpt><trkpt lat="42.6165802" lon="12.0760288"><ele>558.0</ele><time>2026-04-12T07:51:06.885Z</time></trkpt><trkpt lat="42.6165897" lon="12.0761993"><ele>558.0</ele><time>2026-04-12T07:51:07.885Z</time></trkpt><trkpt lat="42.6165553" lon="12.0763746"><ele>558.0</ele><time>2026-04-12T07:51:08.887Z</time></trkpt><trkpt lat="42.6164966" lon="12.0765508"><ele>558.0</ele><time>2026-04-12T07:51:09.886Z</time></trkpt><trkpt lat="42.6164257" lon="12.0767139"><ele>558.0</ele><time>2026-04-12T07:51:10.9Z</time></trkpt><trkpt lat="42.6163404" lon="12.0768825"><ele>558.0</ele><time>2026-04-12T07:51:11.902Z</time></trkpt><trkpt lat="42.6162465" lon="12.0770606"><ele>558.0</ele><time>2026-04-12T07:51:12.89Z</time></trkpt><trkpt lat="42.6161417" lon="12.0772475"><ele>558.0</ele><time>2026-04-12T07:51:13.885Z</time></trkpt><trkpt lat="42.6160343" lon="12.0774514"><ele>556.0</ele><time>2026-04-12T07:51:14.888Z</time></trkpt><trkpt lat="42.6159248" lon="12.0776661"><ele>554.0</ele><time>2026-04-12T07:51:15.887Z</time></trkpt><trkpt lat="42.6158115" lon="12.0778851"><ele>552.0</ele><time>2026-04-12T07:51:16.892Z</time></trkpt><trkpt lat="42.6156967" lon="12.0781068"><ele>551.0</ele><time>2026-04-12T07:51:17.885Z</time></trkpt><trkpt lat="42.6155764" lon="12.078336"><ele>550.0</ele><time>2026-04-12T07:51:18.883Z</time></trkpt><trkpt lat="42.6154607" lon="12.0785679"><ele>549.0</ele><time>2026-04-12T07:51:19.882Z</time></trkpt><trkpt lat="42.615354" lon="12.078803"><ele>549.6666666666666</ele><time>2026-04-12T07:51:20.897Z</time></trkpt><trkpt lat="42.6152472" lon="12.079048"><ele>550.3333333333333</ele><time>2026-04-12T07:51:21.878Z</time></trkpt><trkpt lat="42.6151524" lon="12.0792933"><ele>551.0</ele><time>2026-04-12T07:51:22.896Z</time></trkpt><trkpt lat="42.6150615" lon="12.0795254"><ele>551.0</ele><time>2026-04-12T07:51:23.883Z</time></trkpt><trkpt lat="42.6149773" lon="12.0797598"><ele>551.0</ele><time>2026-04-12T07:51:24.89Z</time></trkpt><trkpt lat="42.6149018" lon="12.0799836"><ele>551.0</ele><time>2026-04-12T07:51:25.886Z</time></trkpt><trkpt lat="42.6148425" lon="12.0802196"><ele>550.3333333333333</ele><time>2026-04-12T07:51:26.886Z</time></trkpt><trkpt lat="42.6147934" lon="12.0804511"><ele>549.6666666666666</ele><time>2026-04-12T07:51:27.886Z</time></trkpt><trkpt lat="42.6147465" lon="12.0806863"><ele>549.0</ele><time>2026-04-12T07:51:28.89Z</time></trkpt><trkpt lat="42.6147017" lon="12.0809175"><ele>549.0</ele><time>2026-04-12T07:51:29.881Z</time></trkpt><trkpt lat="42.6146614" lon="12.0811334"><ele>549.0</ele><time>2026-04-12T07:51:30.885Z</time></trkpt><trkpt lat="42.6146267" lon="12.0813313"><ele>549.0</ele><time>2026-04-12T07:51:31.881Z</time></trkpt><trkpt lat="42.6145987" lon="12.0815203"><ele>549.5</ele><time>2026-04-12T07:51:32.883Z</time></trkpt><trkpt lat="42.6145801" lon="12.0817072"><ele>550.0</ele><time>2026-04-12T07:51:33.892Z</time></trkpt><trkpt lat="42.6145842" lon="12.081882"><ele>550.5</ele><time>2026-04-12T07:51:34.888Z</time></trkpt><trkpt lat="42.6146214" lon="12.0820499"><ele>551.0</ele><time>2026-04-12T07:51:35.887Z</time></trkpt><trkpt lat="42.6146787" lon="12.0822005"><ele>551.0</ele><time>2026-04-12T07:51:36.884Z</time></trkpt><trkpt lat="42.6147491" lon="12.0823377"><ele>551.0</ele><time>2026-04-12T07:51:37.887Z</time></trkpt><trkpt lat="42.6148269" lon="12.0824755"><ele>551.0</ele><time>2026-04-12T07:51:38.887Z</time></trkpt><trkpt lat="42.6149051" lon="12.0826209"><ele>551.0</ele><time>2026-04-12T07:51:39.894Z</time></trkpt><trkpt lat="42.6149812" lon="12.082771"><ele>551.0</ele><time>2026-04-12T07:51:40.885Z</time></trkpt><trkpt lat="42.6150533" lon="12.082916"><ele>551.0</ele><time>2026-04-12T07:51:41.885Z</time></trkpt><trkpt lat="42.6151259" lon="12.083062"><ele>551.0</ele><time>2026-04-12T07:51:42.894Z</time></trkpt><trkpt lat="42.6151936" lon="12.0832072"><ele>551.0</ele><time>2026-04-12T07:51:43.885Z</time></trkpt><trkpt lat="42.6152624" lon="12.0833401"><ele>549.3333333333333</ele><time>2026-04-12T07:51:44.886Z</time></trkpt><trkpt lat="42.6153262" lon="12.0834712"><ele>547.6666666666666</ele><time>2026-04-12T07:51:45.879Z</time></trkpt><trkpt lat="42.6153738" lon="12.0835863"><ele>546.0</ele><time>2026-04-12T07:51:46.886Z</time></trkpt><trkpt lat="42.6154083" lon="12.0836928"><ele>544.3333333333334</ele><time>2026-04-12T07:51:47.882Z</time></trkpt><trkpt lat="42.6154261" lon="12.0837881"><ele>542.6666666666667</ele><time>2026-04-12T07:51:48.895Z</time></trkpt><trkpt lat="42.6154279" lon="12.0838782"><ele>541.0</ele><time>2026-04-12T07:51:49.884Z</time></trkpt><trkpt lat="42.6153695" lon="12.0840303"><ele>540.8</ele><time>2026-04-12T07:51:51.886Z</time></trkpt><trkpt lat="42.6153117" lon="12.0841155"><ele>540.6</ele><time>2026-04-12T07:51:52.889Z</time></trkpt><trkpt lat="42.6152267" lon="12.0841941"><ele>540.4</ele><time>2026-04-12T07:51:53.883Z</time></trkpt><trkpt lat="42.615141" lon="12.0842796"><ele>540.2</ele><time>2026-04-12T07:51:54.891Z</time></trkpt><trkpt lat="42.6150389" lon="12.0843822"><ele>540.0</ele><time>2026-04-12T07:51:55.892Z</time></trkpt><trkpt lat="42.6149157" lon="12.084504"><ele>540.0</ele><time>2026-04-12T07:51:56.898Z</time></trkpt><trkpt lat="42.61478" lon="12.084639"><ele>540.0</ele><time>2026-04-12T07:51:57.887Z</time></trkpt><trkpt lat="42.6146443" lon="12.0847799"><ele>540.0</ele><time>2026-04-12T07:51:58.889Z</time></trkpt><trkpt lat="42.6144965" lon="12.0849306"><ele>539.6666666666666</ele><time>2026-04-12T07:51:59.889Z</time></trkpt><trkpt lat="42.6143453" lon="12.0850853"><ele>539.3333333333333</ele><time>2026-04-12T07:52:00.888Z</time></trkpt><trkpt lat="42.6141922" lon="12.0852518"><ele>539.0</ele><time>2026-04-12T07:52:01.893Z</time></trkpt><trkpt lat="42.6140407" lon="12.0854185"><ele>539.0</ele><time>2026-04-12T07:52:02.881Z</time></trkpt><trkpt lat="42.6138855" lon="12.0855927"><ele>539.0</ele><time>2026-04-12T07:52:03.887Z</time></trkpt><trkpt lat="42.6137342" lon="12.0857736"><ele>539.0</ele><time>2026-04-12T07:52:04.886Z</time></trkpt><trkpt lat="42.6135847" lon="12.0859648"><ele>538.6666666666666</ele><time>2026-04-12T07:52:05.878Z</time></trkpt><trkpt lat="42.6134333" lon="12.0861559"><ele>538.3333333333334</ele><time>2026-04-12T07:52:06.896Z</time></trkpt><trkpt lat="42.6132799" lon="12.086345"><ele>538.0</ele><time>2026-04-12T07:52:07.889Z</time></trkpt><trkpt lat="42.6131329" lon="12.0865287"><ele>536.0</ele><time>2026-04-12T07:52:08.885Z</time></trkpt><trkpt lat="42.6129937" lon="12.0867039"><ele>534.0</ele><time>2026-04-12T07:52:09.886Z</time></trkpt><trkpt lat="42.6128576" lon="12.0868785"><ele>532.0</ele><time>2026-04-12T07:52:10.891Z</time></trkpt><trkpt lat="42.6127216" lon="12.0870557"><ele>531.6666666666667</ele><time>2026-04-12T07:52:11.88Z</time></trkpt><trkpt lat="42.6125842" lon="12.0872338"><ele>531.3333333333334</ele><time>2026-04-12T07:52:12.885Z</time></trkpt><trkpt lat="42.612444" lon="12.0874121"><ele>531.0</ele><time>2026-04-12T07:52:13.885Z</time></trkpt><trkpt lat="42.6123033" lon="12.0875979"><ele>530.6666666666666</ele><time>2026-04-12T07:52:14.878Z</time></trkpt><trkpt lat="42.6121673" lon="12.0877801"><ele>530.3333333333333</ele><time>2026-04-12T07:52:15.885Z</time></trkpt><trkpt lat="42.612031" lon="12.0879628"><ele>530.0</ele><time>2026-04-12T07:52:16.885Z</time></trkpt><trkpt lat="42.6118931" lon="12.0881413"><ele>528.3333333333333</ele><time>2026-04-12T07:52:17.888Z</time></trkpt><trkpt lat="42.6117582" lon="12.0883187"><ele>526.6666666666666</ele><time>2026-04-12T07:52:18.888Z</time></trkpt><trkpt lat="42.6116265" lon="12.088491"><ele>525.0</ele><time>2026-04-12T07:52:19.889Z</time></trkpt><trkpt lat="42.6114929" lon="12.0886589"><ele>525.0</ele><time>2026-04-12T07:52:20.895Z</time></trkpt><trkpt lat="42.6113632" lon="12.0888282"><ele>525.0</ele><time>2026-04-12T07:52:21.884Z</time></trkpt><trkpt lat="42.6112357" lon="12.0889955"><ele>525.0</ele><time>2026-04-12T07:52:22.89Z</time></trkpt><trkpt lat="42.6111063" lon="12.0891458"><ele>524.3333333333334</ele><time>2026-04-12T07:52:23.878Z</time></trkpt><trkpt lat="42.6109809" lon="12.0892666"><ele>523.6666666666667</ele><time>2026-04-12T07:52:24.879Z</time></trkpt><trkpt lat="42.6108558" lon="12.0893811"><ele>523.0</ele><time>2026-04-12T07:52:25.891Z</time></trkpt><trkpt lat="42.61073" lon="12.0894897"><ele>523.0</ele><time>2026-04-12T07:52:26.892Z</time></trkpt><trkpt lat="42.6105965" lon="12.0895967"><ele>523.0</ele><time>2026-04-12T07:52:27.9Z</time></trkpt><trkpt lat="42.6104607" lon="12.0897108"><ele>523.0</ele><time>2026-04-12T07:52:28.894Z</time></trkpt><trkpt lat="42.6103243" lon="12.089838"><ele>522.25</ele><time>2026-04-12T07:52:29.893Z</time></trkpt><trkpt lat="42.6102051" lon="12.0899783"><ele>521.5</ele><time>2026-04-12T07:52:30.886Z</time></trkpt><trkpt lat="42.6100959" lon="12.0901204"><ele>520.75</ele><time>2026-04-12T07:52:31.885Z</time></trkpt><trkpt lat="42.6100113" lon="12.0902589"><ele>520.0</ele><time>2026-04-12T07:52:32.886Z</time></trkpt><trkpt lat="42.6099338" lon="12.0903948"><ele>520.0</ele><time>2026-04-12T07:52:33.879Z</time></trkpt><trkpt lat="42.6098714" lon="12.0905214"><ele>520.0</ele><time>2026-04-12T07:52:34.888Z</time></trkpt><trkpt lat="42.6098323" lon="12.0906412"><ele>520.0</ele><time>2026-04-12T07:52:35.879Z</time></trkpt><trkpt lat="42.6098108" lon="12.0907867"><ele>520.0</ele><time>2026-04-12T07:52:36.884Z</time></trkpt><trkpt lat="42.6098024" lon="12.0909247"><ele>520.0</ele><time>2026-04-12T07:52:37.882Z</time></trkpt><trkpt lat="42.609797" lon="12.0910657"><ele>520.0</ele><time>2026-04-12T07:52:38.893Z</time></trkpt><trkpt lat="42.6097882" lon="12.0912081"><ele>520.0</ele><time>2026-04-12T07:52:39.882Z</time></trkpt><trkpt lat="42.6097745" lon="12.091359"><ele>520.0</ele><time>2026-04-12T07:52:40.881Z</time></trkpt><trkpt lat="42.6097588" lon="12.0915229"><ele>520.0</ele><time>2026-04-12T07:52:41.883Z</time></trkpt><trkpt lat="42.6097367" lon="12.0916888"><ele>518.75</ele><time>2026-04-12T07:52:42.893Z</time></trkpt><trkpt lat="42.6097206" lon="12.0918571"><ele>517.5</ele><time>2026-04-12T07:52:43.887Z</time></trkpt><trkpt lat="42.6097037" lon="12.0920306"><ele>516.25</ele><time>2026-04-12T07:52:44.891Z</time></trkpt><trkpt lat="42.6096833" lon="12.0922262"><ele>515.0</ele><time>2026-04-12T07:52:45.891Z</time></trkpt><trkpt lat="42.609666" lon="12.092426"><ele>513.6666666666666</ele><time>2026-04-12T07:52:46.887Z</time></trkpt><trkpt lat="42.6096549" lon="12.0926336"><ele>512.3333333333334</ele><time>2026-04-12T07:52:47.875Z</time></trkpt><trkpt lat="42.6096437" lon="12.0928472"><ele>511.0</ele><time>2026-04-12T07:52:48.886Z</time></trkpt><trkpt lat="42.609636" lon="12.0930677"><ele>509.6666666666667</ele><time>2026-04-12T07:52:49.884Z</time></trkpt><trkpt lat="42.6096297" lon="12.0932859"><ele>508.33333333333337</ele><time>2026-04-12T07:52:50.883Z</time></trkpt><trkpt lat="42.6096244" lon="12.0935053"><ele>507.0</ele><time>2026-04-12T07:52:51.885Z</time></trkpt><trkpt lat="42.6096198" lon="12.093723"><ele>507.0</ele><time>2026-04-12T07:52:52.87Z</time></trkpt><trkpt lat="42.6096326" lon="12.0939353"><ele>507.0</ele><time>2026-04-12T07:52:53.899Z</time></trkpt><trkpt lat="42.6096686" lon="12.0941464"><ele>507.0</ele><time>2026-04-12T07:52:54.876Z</time></trkpt><trkpt lat="42.6097241" lon="12.094362"><ele>506.0</ele><time>2026-04-12T07:52:55.88Z</time></trkpt><trkpt lat="42.6097872" lon="12.0945679"><ele>505.0</ele><time>2026-04-12T07:52:56.893Z</time></trkpt><trkpt lat="42.6098645" lon="12.094777"><ele>504.0</ele><time>2026-04-12T07:52:57.886Z</time></trkpt><trkpt lat="42.6099415" lon="12.0949832"><ele>504.0</ele><time>2026-04-12T07:52:58.88Z</time></trkpt><trkpt lat="42.6100227" lon="12.0951916"><ele>504.0</ele><time>2026-04-12T07:52:59.892Z</time></trkpt><trkpt lat="42.6100971" lon="12.0953921"><ele>504.0</ele><time>2026-04-12T07:53:00.875Z</time></trkpt><trkpt lat="42.6101667" lon="12.0955968"><ele>503.66666666666663</ele><time>2026-04-12T07:53:01.875Z</time></trkpt><trkpt lat="42.6102151" lon="12.095823"><ele>503.3333333333333</ele><time>2026-04-12T07:53:02.886Z</time></trkpt><trkpt lat="42.6102249" lon="12.0960486"><ele>503.0</ele><time>2026-04-12T07:53:03.894Z</time></trkpt><trkpt lat="42.6102142" lon="12.0962838"><ele>503.0</ele><time>2026-04-12T07:53:04.877Z</time></trkpt><trkpt lat="42.6101883" lon="12.0965162"><ele>503.0</ele><time>2026-04-12T07:53:05.901Z</time></trkpt><trkpt lat="42.6101645" lon="12.096759"><ele>503.0</ele><time>2026-04-12T07:53:06.897Z</time></trkpt><trkpt lat="42.6101325" lon="12.0970057"><ele>502.3333333333333</ele><time>2026-04-12T07:53:07.884Z</time></trkpt><trkpt lat="42.610097" lon="12.0972588"><ele>501.66666666666663</ele><time>2026-04-12T07:53:08.896Z</time></trkpt><trkpt lat="42.6100629" lon="12.097517"><ele>501.0</ele><time>2026-04-12T07:53:09.889Z</time></trkpt><trkpt lat="42.6100241" lon="12.0977746"><ele>499.66666666666663</ele><time>2026-04-12T07:53:10.885Z</time></trkpt><trkpt lat="42.6099878" lon="12.098035"><ele>498.3333333333333</ele><time>2026-04-12T07:53:11.881Z</time></trkpt><trkpt lat="42.6099561" lon="12.098288"><ele>497.0</ele><time>2026-04-12T07:53:12.876Z</time></trkpt><trkpt lat="42.6099265" lon="12.0985381"><ele>496.66666666666663</ele><time>2026-04-12T07:53:13.878Z</time></trkpt><trkpt lat="42.6098959" lon="12.0987867"><ele>496.33333333333337</ele><time>2026-04-12T07:53:14.882Z</time></trkpt><trkpt lat="42.6098717" lon="12.0990396"><ele>496.0</ele><time>2026-04-12T07:53:15.889Z</time></trkpt><trkpt lat="42.6098483" lon="12.0992945"><ele>496.0</ele><time>2026-04-12T07:53:16.881Z</time></trkpt><trkpt lat="42.6098258" lon="12.0995523"><ele>496.0</ele><time>2026-04-12T07:53:17.877Z</time></trkpt><trkpt lat="42.6098037" lon="12.0998077"><ele>496.0</ele><time>2026-04-12T07:53:18.88Z</time></trkpt><trkpt lat="42.6097845" lon="12.1000677"><ele>496.0</ele><time>2026-04-12T07:53:19.885Z</time></trkpt><trkpt lat="42.6097675" lon="12.1003301"><ele>496.0</ele><time>2026-04-12T07:53:20.882Z</time></trkpt><trkpt lat="42.6097499" lon="12.1005884"><ele>496.0</ele><time>2026-04-12T07:53:21.88Z</time></trkpt><trkpt lat="42.6097341" lon="12.1008522"><ele>494.6666666666667</ele><time>2026-04-12T07:53:22.871Z</time></trkpt><trkpt lat="42.6097193" lon="12.1011208"><ele>493.33333333333337</ele><time>2026-04-12T07:53:23.885Z</time></trkpt><trkpt lat="42.6097043" lon="12.1013823"><ele>492.0</ele><time>2026-04-12T07:53:24.876Z</time></trkpt><trkpt lat="42.6096884" lon="12.1016393"><ele>491.66666666666663</ele><time>2026-04-12T07:53:25.878Z</time></trkpt><trkpt lat="42.6096705" lon="12.1018906"><ele>491.3333333333333</ele><time>2026-04-12T07:53:26.884Z</time></trkpt><trkpt lat="42.6096528" lon="12.1021359"><ele>491.0</ele><time>2026-04-12T07:53:27.884Z</time></trkpt><trkpt lat="42.6096401" lon="12.1023827"><ele>491.0</ele><time>2026-04-12T07:53:28.896Z</time></trkpt><trkpt lat="42.6096313" lon="12.1026353"><ele>491.0</ele><time>2026-04-12T07:53:29.881Z</time></trkpt><trkpt lat="42.6096196" lon="12.1028945"><ele>491.0</ele><time>2026-04-12T07:53:30.887Z</time></trkpt><trkpt lat="42.6096049" lon="12.1031531"><ele>490.66666666666663</ele><time>2026-04-12T07:53:31.883Z</time></trkpt><trkpt lat="42.6095892" lon="12.103408"><ele>490.33333333333337</ele><time>2026-04-12T07:53:32.885Z</time></trkpt><trkpt lat="42.6095723" lon="12.1036616"><ele>490.0</ele><time>2026-04-12T07:53:33.885Z</time></trkpt><trkpt lat="42.609558" lon="12.1039243"><ele>489.33333333333337</ele><time>2026-04-12T07:53:34.884Z</time></trkpt><trkpt lat="42.6095388" lon="12.1041875"><ele>488.66666666666663</ele><time>2026-04-12T07:53:35.876Z</time></trkpt><trkpt lat="42.6095194" lon="12.1044524"><ele>488.0</ele><time>2026-04-12T07:53:36.876Z</time></trkpt><trkpt lat="42.6095015" lon="12.1047198"><ele>486.66666666666663</ele><time>2026-04-12T07:53:37.886Z</time></trkpt><trkpt lat="42.6094824" lon="12.1049919"><ele>485.33333333333337</ele><time>2026-04-12T07:53:38.88Z</time></trkpt><trkpt lat="42.609463" lon="12.1052702"><ele>484.0</ele><time>2026-04-12T07:53:39.875Z</time></trkpt><trkpt lat="42.6094409" lon="12.1055463"><ele>484.0</ele><time>2026-04-12T07:53:40.876Z</time></trkpt><trkpt lat="42.6094181" lon="12.1058201"><ele>484.0</ele><time>2026-04-12T07:53:41.891Z</time></trkpt><trkpt lat="42.6093909" lon="12.1061043"><ele>484.0</ele><time>2026-04-12T07:53:42.887Z</time></trkpt><trkpt lat="42.6093624" lon="12.1063754"><ele>483.33333333333337</ele><time>2026-04-12T07:53:43.879Z</time></trkpt><trkpt lat="42.6093227" lon="12.1066435"><ele>482.66666666666663</ele><time>2026-04-12T07:53:44.893Z</time></trkpt><trkpt lat="42.6092763" lon="12.1069022"><ele>482.0</ele><time>2026-04-12T07:53:45.882Z</time></trkpt><trkpt lat="42.6092194" lon="12.1071631"><ele>481.66666666666663</ele><time>2026-04-12T07:53:46.89Z</time></trkpt><trkpt lat="42.6091562" lon="12.1074181"><ele>481.33333333333337</ele><time>2026-04-12T07:53:47.897Z</time></trkpt><trkpt lat="42.6090925" lon="12.1076715"><ele>481.0</ele><time>2026-04-12T07:53:48.902Z</time></trkpt><trkpt lat="42.6090328" lon="12.1079131"><ele>481.0</ele><time>2026-04-12T07:53:49.887Z</time></trkpt><trkpt lat="42.6089709" lon="12.1081594"><ele>481.0</ele><time>2026-04-12T07:53:50.874Z</time></trkpt><trkpt lat="42.6089135" lon="12.1084132"><ele>481.0</ele><time>2026-04-12T07:53:51.888Z</time></trkpt><trkpt lat="42.6088538" lon="12.1086577"><ele>480.33333333333337</ele><time>2026-04-12T07:53:52.885Z</time></trkpt><trkpt lat="42.6088035" lon="12.1088924"><ele>479.66666666666663</ele><time>2026-04-12T07:53:53.876Z</time></trkpt><trkpt lat="42.6087639" lon="12.109122"><ele>479.0</ele><time>2026-04-12T07:53:54.883Z</time></trkpt><trkpt lat="42.6087303" lon="12.1093472"><ele>477.3333333333333</ele><time>2026-04-12T07:53:55.881Z</time></trkpt><trkpt lat="42.6086957" lon="12.1095644"><ele>475.66666666666663</ele><time>2026-04-12T07:53:56.892Z</time></trkpt><trkpt lat="42.6086541" lon="12.1097849"><ele>474.0</ele><time>2026-04-12T07:53:57.884Z</time></trkpt><trkpt lat="42.6086154" lon="12.1100104"><ele>471.66666666666663</ele><time>2026-04-12T07:53:58.908Z</time></trkpt><trkpt lat="42.6085771" lon="12.1102315"><ele>469.3333333333333</ele><time>2026-04-12T07:53:59.876Z</time></trkpt><trkpt lat="42.608538" lon="12.1104515"><ele>467.0</ele><time>2026-04-12T07:54:00.886Z</time></trkpt><trkpt lat="42.6084899" lon="12.1106724"><ele>468.3333333333333</ele><time>2026-04-12T07:54:01.888Z</time></trkpt><trkpt lat="42.6084345" lon="12.1108898"><ele>469.66666666666663</ele><time>2026-04-12T07:54:02.885Z</time></trkpt><trkpt lat="42.6083751" lon="12.1111115"><ele>471.0</ele><time>2026-04-12T07:54:03.901Z</time></trkpt><trkpt lat="42.6083107" lon="12.1113316"><ele>471.0</ele><time>2026-04-12T07:54:04.886Z</time></trkpt><trkpt lat="42.6082384" lon="12.1115425"><ele>471.0</ele><time>2026-04-12T07:54:05.878Z</time></trkpt><trkpt lat="42.6081576" lon="12.1117428"><ele>471.0</ele><time>2026-04-12T07:54:06.885Z</time></trkpt><trkpt lat="42.6080748" lon="12.1119397"><ele>471.33333333333337</ele><time>2026-04-12T07:54:07.882Z</time></trkpt><trkpt lat="42.6079908" lon="12.1121311"><ele>471.6666666666667</ele><time>2026-04-12T07:54:08.895Z</time></trkpt><trkpt lat="42.6079078" lon="12.1123208"><ele>472.0</ele><time>2026-04-12T07:54:09.894Z</time></trkpt><trkpt lat="42.6078265" lon="12.1125054"><ele>472.0</ele><time>2026-04-12T07:54:10.884Z</time></trkpt><trkpt lat="42.6077437" lon="12.1126863"><ele>472.0</ele><time>2026-04-12T07:54:11.885Z</time></trkpt><trkpt lat="42.6076683" lon="12.1128588"><ele>472.0</ele><time>2026-04-12T07:54:12.891Z</time></trkpt><trkpt lat="42.6075934" lon="12.1130259"><ele>472.0</ele><time>2026-04-12T07:54:13.894Z</time></trkpt><trkpt lat="42.607527" lon="12.1131898"><ele>470.5</ele><time>2026-04-12T07:54:14.888Z</time></trkpt><trkpt lat="42.6074638" lon="12.113347"><ele>469.0</ele><time>2026-04-12T07:54:15.879Z</time></trkpt><trkpt lat="42.6074036" lon="12.1134929"><ele>467.5</ele><time>2026-04-12T07:54:16.899Z</time></trkpt><trkpt lat="42.607344" lon="12.1136327"><ele>466.0</ele><time>2026-04-12T07:54:17.877Z</time></trkpt><trkpt lat="42.6072836" lon="12.1137698"><ele>466.0</ele><time>2026-04-12T07:54:18.888Z</time></trkpt><trkpt lat="42.6072227" lon="12.1138995"><ele>466.0</ele><time>2026-04-12T07:54:19.882Z</time></trkpt><trkpt lat="42.6071624" lon="12.1140237"><ele>466.0</ele><time>2026-04-12T07:54:20.893Z</time></trkpt><trkpt lat="42.6071023" lon="12.1141574"><ele>466.0</ele><time>2026-04-12T07:54:21.885Z</time></trkpt><trkpt lat="42.607039" lon="12.1142931"><ele>464.75</ele><time>2026-04-12T07:54:22.875Z</time></trkpt><trkpt lat="42.6069744" lon="12.1144334"><ele>463.5</ele><time>2026-04-12T07:54:23.882Z</time></trkpt><trkpt lat="42.6069019" lon="12.1145645"><ele>462.25</ele><time>2026-04-12T07:54:24.892Z</time></trkpt><trkpt lat="42.6068239" lon="12.1146944"><ele>461.0</ele><time>2026-04-12T07:54:25.893Z</time></trkpt><trkpt lat="42.6067391" lon="12.1148186"><ele>460.0</ele><time>2026-04-12T07:54:26.879Z</time></trkpt><trkpt lat="42.6066536" lon="12.1149449"><ele>459.0</ele><time>2026-04-12T07:54:27.874Z</time></trkpt><trkpt lat="42.6065717" lon="12.11507"><ele>458.0</ele><time>2026-04-12T07:54:28.886Z</time></trkpt><trkpt lat="42.6064904" lon="12.115195"><ele>457.0</ele><time>2026-04-12T07:54:29.882Z</time></trkpt><trkpt lat="42.6064216" lon="12.1153283"><ele>457.0</ele><time>2026-04-12T07:54:30.897Z</time></trkpt><trkpt lat="42.606365" lon="12.115466"><ele>457.0</ele><time>2026-04-12T07:54:31.878Z</time></trkpt><trkpt lat="42.6063251" lon="12.1156163"><ele>457.0</ele><time>2026-04-12T07:54:32.891Z</time></trkpt><trkpt lat="42.6062968" lon="12.1157643"><ele>457.0</ele><time>2026-04-12T07:54:33.893Z</time></trkpt><trkpt lat="42.6062706" lon="12.1159148"><ele>456.20000000000005</ele><time>2026-04-12T07:54:34.891Z</time></trkpt><trkpt lat="42.6062447" lon="12.1160575"><ele>455.40000000000003</ele><time>2026-04-12T07:54:35.875Z</time></trkpt><trkpt lat="42.6062239" lon="12.1161835"><ele>454.59999999999997</ele><time>2026-04-12T07:54:36.877Z</time></trkpt><trkpt lat="42.6062021" lon="12.1163041"><ele>453.79999999999995</ele><time>2026-04-12T07:54:37.884Z</time></trkpt><trkpt lat="42.6061847" lon="12.1164136"><ele>453.0</ele><time>2026-04-12T07:54:38.893Z</time></trkpt><trkpt lat="42.6061677" lon="12.1165272"><ele>451.3333333333333</ele><time>2026-04-12T07:54:39.87Z</time></trkpt><trkpt lat="42.6061485" lon="12.1166297"><ele>449.66666666666663</ele><time>2026-04-12T07:54:40.889Z</time></trkpt><trkpt lat="42.6061309" lon="12.1167221"><ele>448.0</ele><time>2026-04-12T07:54:41.878Z</time></trkpt><trkpt lat="42.6061111" lon="12.1168165"><ele>446.3333333333333</ele><time>2026-04-12T07:54:42.883Z</time></trkpt><trkpt lat="42.6060961" lon="12.1169049"><ele>444.66666666666663</ele><time>2026-04-12T07:54:43.888Z</time></trkpt><trkpt lat="42.6060714" lon="12.1170109"><ele>443.0</ele><time>2026-04-12T07:54:44.89Z</time></trkpt><trkpt lat="42.6060505" lon="12.1171266"><ele>443.0</ele><time>2026-04-12T07:54:45.881Z</time></trkpt><trkpt lat="42.6060246" lon="12.117254"><ele>442.99999999999994</ele><time>2026-04-12T07:54:46.889Z</time></trkpt><trkpt lat="42.6060018" lon="12.1173861"><ele>442.99999999999994</ele><time>2026-04-12T07:54:47.893Z</time></trkpt><trkpt lat="42.6059813" lon="12.1175356"><ele>443.0</ele><time>2026-04-12T07:54:48.893Z</time></trkpt><trkpt lat="42.6059664" lon="12.1176906"><ele>443.0</ele><time>2026-04-12T07:54:49.893Z</time></trkpt><trkpt lat="42.6059607" lon="12.117861"><ele>443.5</ele><time>2026-04-12T07:54:50.898Z</time></trkpt><trkpt lat="42.6059567" lon="12.1180347"><ele>444.0</ele><time>2026-04-12T07:54:51.883Z</time></trkpt><trkpt lat="42.6059581" lon="12.118215"><ele>444.5</ele><time>2026-04-12T07:54:52.893Z</time></trkpt><trkpt lat="42.6059583" lon="12.1183901"><ele>445.0</ele><time>2026-04-12T07:54:53.893Z</time></trkpt><trkpt lat="42.6059633" lon="12.118564"><ele>445.0</ele><time>2026-04-12T07:54:54.893Z</time></trkpt><trkpt lat="42.6059679" lon="12.1187397"><ele>445.0</ele><time>2026-04-12T07:54:55.88Z</time></trkpt><trkpt lat="42.6059652" lon="12.1189133"><ele>445.0</ele><time>2026-04-12T07:54:56.881Z</time></trkpt><trkpt lat="42.6059594" lon="12.1190849"><ele>445.0</ele><time>2026-04-12T07:54:57.886Z</time></trkpt><trkpt lat="42.6059507" lon="12.119258"><ele>445.0</ele><time>2026-04-12T07:54:58.886Z</time></trkpt><trkpt lat="42.6059448" lon="12.1194347"><ele>445.0</ele><time>2026-04-12T07:54:59.88Z</time></trkpt><trkpt lat="42.6059353" lon="12.1196048"><ele>445.0</ele><time>2026-04-12T07:55:00.891Z</time></trkpt><trkpt lat="42.6059285" lon="12.1197748"><ele>445.0</ele><time>2026-04-12T07:55:01.897Z</time></trkpt><trkpt lat="42.6059177" lon="12.1199543"><ele>444.0</ele><time>2026-04-12T07:55:02.892Z</time></trkpt><trkpt lat="42.6059107" lon="12.1201514"><ele>443.0</ele><time>2026-04-12T07:55:03.89Z</time></trkpt><trkpt lat="42.6059029" lon="12.1203549"><ele>442.0</ele><time>2026-04-12T07:55:04.893Z</time></trkpt><trkpt lat="42.6058905" lon="12.1205653"><ele>440.6666666666667</ele><time>2026-04-12T07:55:05.878Z</time></trkpt><trkpt lat="42.6058783" lon="12.1207863"><ele>439.33333333333337</ele><time>2026-04-12T07:55:06.886Z</time></trkpt><trkpt lat="42.6058727" lon="12.1210144"><ele>438.0</ele><time>2026-04-12T07:55:07.882Z</time></trkpt><trkpt lat="42.6058587" lon="12.1212508"><ele>438.0</ele><time>2026-04-12T07:55:08.88Z</time></trkpt><trkpt lat="42.6058459" lon="12.1214977"><ele>438.0</ele><time>2026-04-12T07:55:09.885Z</time></trkpt><trkpt lat="42.6058369" lon="12.1217493"><ele>438.0</ele><time>2026-04-12T07:55:10.885Z</time></trkpt><trkpt lat="42.6058265" lon="12.122006"><ele>437.66666666666663</ele><time>2026-04-12T07:55:11.887Z</time></trkpt><trkpt lat="42.6058191" lon="12.1222633"><ele>437.3333333333333</ele><time>2026-04-12T07:55:12.887Z</time></trkpt><trkpt lat="42.605812" lon="12.1225166"><ele>437.0</ele><time>2026-04-12T07:55:13.886Z</time></trkpt><trkpt lat="42.6058066" lon="12.1227802"><ele>436.0</ele><time>2026-04-12T07:55:14.877Z</time></trkpt><trkpt lat="42.6058046" lon="12.1230391"><ele>435.0</ele><time>2026-04-12T07:55:15.88Z</time></trkpt><trkpt lat="42.605801" lon="12.1233021"><ele>434.0</ele><time>2026-04-12T07:55:16.893Z</time></trkpt><trkpt lat="42.6057954" lon="12.1235609"><ele>434.0</ele><time>2026-04-12T07:55:17.879Z</time></trkpt><trkpt lat="42.6057844" lon="12.1238154"><ele>434.0</ele><time>2026-04-12T07:55:18.891Z</time></trkpt><trkpt lat="42.6057696" lon="12.1240777"><ele>434.0</ele><time>2026-04-12T07:55:19.878Z</time></trkpt><trkpt lat="42.6057538" lon="12.1243354"><ele>433.3333333333333</ele><time>2026-04-12T07:55:20.888Z</time></trkpt><trkpt lat="42.6057391" lon="12.1245952"><ele>432.66666666666663</ele><time>2026-04-12T07:55:21.879Z</time></trkpt><trkpt lat="42.6057255" lon="12.1248559"><ele>432.0</ele><time>2026-04-12T07:55:22.885Z</time></trkpt><trkpt lat="42.6057111" lon="12.1251237"><ele>431.0</ele><time>2026-04-12T07:55:23.886Z</time></trkpt><trkpt lat="42.6056982" lon="12.1253932"><ele>430.0</ele><time>2026-04-12T07:55:24.882Z</time></trkpt><trkpt lat="42.6056841" lon="12.1256626"><ele>429.0</ele><time>2026-04-12T07:55:25.878Z</time></trkpt><trkpt lat="42.6056664" lon="12.1259338"><ele>428.33333333333337</ele><time>2026-04-12T07:55:26.878Z</time></trkpt><trkpt lat="42.6056496" lon="12.1261955"><ele>427.6666666666667</ele><time>2026-04-12T07:55:27.873Z</time></trkpt><trkpt lat="42.6056345" lon="12.1264594"><ele>427.0</ele><time>2026-04-12T07:55:28.882Z</time></trkpt><trkpt lat="42.605612" lon="12.1267265"><ele>425.6666666666667</ele><time>2026-04-12T07:55:29.887Z</time></trkpt><trkpt lat="42.6055867" lon="12.1269886"><ele>424.33333333333337</ele><time>2026-04-12T07:55:30.871Z</time></trkpt><trkpt lat="42.6055548" lon="12.1272538"><ele>423.0</ele><time>2026-04-12T07:55:31.884Z</time></trkpt><trkpt lat="42.6055212" lon="12.1275183"><ele>422.0</ele><time>2026-04-12T07:55:32.893Z</time></trkpt><trkpt lat="42.6054799" lon="12.1277732"><ele>421.0</ele><time>2026-04-12T07:55:33.882Z</time></trkpt><trkpt lat="42.6054368" lon="12.1280272"><ele>420.0</ele><time>2026-04-12T07:55:34.888Z</time></trkpt><trkpt lat="42.6053924" lon="12.1282881"><ele>421.0</ele><time>2026-04-12T07:55:35.883Z</time></trkpt><trkpt lat="42.6053445" lon="12.1285442"><ele>422.0</ele><time>2026-04-12T07:55:36.895Z</time></trkpt><trkpt lat="42.6052906" lon="12.1288031"><ele>423.0</ele><time>2026-04-12T07:55:37.869Z</time></trkpt><trkpt lat="42.6052274" lon="12.1290619"><ele>420.66666666666663</ele><time>2026-04-12T07:55:38.878Z</time></trkpt><trkpt lat="42.6051546" lon="12.1293112"><ele>418.3333333333333</ele><time>2026-04-12T07:55:39.877Z</time></trkpt><trkpt lat="42.6050799" lon="12.1295548"><ele>416.0</ele><time>2026-04-12T07:55:40.883Z</time></trkpt><trkpt lat="42.6050049" lon="12.1297961"><ele>415.66666666666663</ele><time>2026-04-12T07:55:41.876Z</time></trkpt><trkpt lat="42.6049278" lon="12.1300405"><ele>415.33333333333337</ele><time>2026-04-12T07:55:42.885Z</time></trkpt><trkpt lat="42.6048503" lon="12.1302865"><ele>415.0</ele><time>2026-04-12T07:55:43.889Z</time></trkpt><trkpt lat="42.6047742" lon="12.1305315"><ele>414.6666666666667</ele><time>2026-04-12T07:55:44.878Z</time></trkpt><trkpt lat="42.6046955" lon="12.13077"><ele>414.33333333333337</ele><time>2026-04-12T07:55:45.881Z</time></trkpt><trkpt lat="42.6046165" lon="12.1309978"><ele>414.0</ele><time>2026-04-12T07:55:46.879Z</time></trkpt><trkpt lat="42.6045431" lon="12.131209"><ele>413.0</ele><time>2026-04-12T07:55:47.883Z</time></trkpt><trkpt lat="42.6044765" lon="12.1314101"><ele>412.0</ele><time>2026-04-12T07:55:48.882Z</time></trkpt><trkpt lat="42.604411" lon="12.1316093"><ele>411.0</ele><time>2026-04-12T07:55:49.896Z</time></trkpt><trkpt lat="42.6043587" lon="12.1318046"><ele>411.0</ele><time>2026-04-12T07:55:50.895Z</time></trkpt><trkpt lat="42.6043179" lon="12.1320047"><ele>411.0</ele><time>2026-04-12T07:55:51.893Z</time></trkpt><trkpt lat="42.60431" lon="12.1322176"><ele>411.0</ele><time>2026-04-12T07:55:52.878Z</time></trkpt><trkpt lat="42.6043387" lon="12.1324275"><ele>411.33333333333337</ele><time>2026-04-12T07:55:53.888Z</time></trkpt><trkpt lat="42.6043993" lon="12.13263"><ele>411.6666666666667</ele><time>2026-04-12T07:55:54.878Z</time></trkpt><trkpt lat="42.6044859" lon="12.1328359"><ele>412.0</ele><time>2026-04-12T07:55:55.877Z</time></trkpt><trkpt lat="42.6045769" lon="12.1330471"><ele>411.0</ele><time>2026-04-12T07:55:56.892Z</time></trkpt><trkpt lat="42.6046607" lon="12.1332571"><ele>410.0</ele><time>2026-04-12T07:55:57.884Z</time></trkpt><trkpt lat="42.6047501" lon="12.1334635"><ele>409.0</ele><time>2026-04-12T07:55:58.88Z</time></trkpt><trkpt lat="42.6048398" lon="12.1336781"><ele>409.0</ele><time>2026-04-12T07:55:59.88Z</time></trkpt><trkpt lat="42.6049285" lon="12.1338957"><ele>409.0</ele><time>2026-04-12T07:56:00.888Z</time></trkpt><trkpt lat="42.605014" lon="12.1341218"><ele>409.0</ele><time>2026-04-12T07:56:01.881Z</time></trkpt><trkpt lat="42.6050893" lon="12.1343622"><ele>409.33333333333337</ele><time>2026-04-12T07:56:02.89Z</time></trkpt><trkpt lat="42.6051598" lon="12.1346038"><ele>409.66666666666663</ele><time>2026-04-12T07:56:03.895Z</time></trkpt><trkpt lat="42.6052284" lon="12.1348447"><ele>410.0</ele><time>2026-04-12T07:56:04.892Z</time></trkpt><trkpt lat="42.6052994" lon="12.1350856"><ele>406.3333333333333</ele><time>2026-04-12T07:56:05.877Z</time></trkpt><trkpt lat="42.6053655" lon="12.1353151"><ele>402.66666666666663</ele><time>2026-04-12T07:56:06.881Z</time></trkpt><trkpt lat="42.6054303" lon="12.1355477"><ele>399.0</ele><time>2026-04-12T07:56:07.886Z</time></trkpt><trkpt lat="42.6054942" lon="12.1357719"><ele>399.0</ele><time>2026-04-12T07:56:08.878Z</time></trkpt><trkpt lat="42.6055574" lon="12.1359947"><ele>399.0</ele><time>2026-04-12T07:56:09.884Z</time></trkpt><trkpt lat="42.6056213" lon="12.1362175"><ele>399.0</ele><time>2026-04-12T07:56:10.888Z</time></trkpt><trkpt lat="42.6056836" lon="12.1364469"><ele>400.66666666666663</ele><time>2026-04-12T07:56:11.882Z</time></trkpt><trkpt lat="42.6057407" lon="12.1366816"><ele>402.3333333333333</ele><time>2026-04-12T07:56:12.883Z</time></trkpt><trkpt lat="42.605789" lon="12.1369282"><ele>404.0</ele><time>2026-04-12T07:56:13.883Z</time></trkpt><trkpt lat="42.6058299" lon="12.1371778"><ele>403.0</ele><time>2026-04-12T07:56:14.888Z</time></trkpt><trkpt lat="42.6058708" lon="12.1374367"><ele>402.0</ele><time>2026-04-12T07:56:15.877Z</time></trkpt><trkpt lat="42.6059104" lon="12.1376974"><ele>401.0</ele><time>2026-04-12T07:56:16.876Z</time></trkpt><trkpt lat="42.6059474" lon="12.1379616"><ele>400.0</ele><time>2026-04-12T07:56:17.877Z</time></trkpt><trkpt lat="42.6059884" lon="12.1382367"><ele>399.0</ele><time>2026-04-12T07:56:18.88Z</time></trkpt><trkpt lat="42.6060301" lon="12.1385108"><ele>398.0</ele><time>2026-04-12T07:56:19.879Z</time></trkpt><trkpt lat="42.6060707" lon="12.138789"><ele>397.3333333333333</ele><time>2026-04-12T07:56:20.88Z</time></trkpt><trkpt lat="42.6061134" lon="12.139058"><ele>396.66666666666663</ele><time>2026-04-12T07:56:21.883Z</time></trkpt><trkpt lat="42.6061456" lon="12.1393214"><ele>396.0</ele><time>2026-04-12T07:56:22.889Z</time></trkpt><trkpt lat="42.6061825" lon="12.1395819"><ele>395.66666666666663</ele><time>2026-04-12T07:56:23.892Z</time></trkpt><trkpt lat="42.6062238" lon="12.139829"><ele>395.3333333333333</ele><time>2026-04-12T07:56:24.892Z</time></trkpt><trkpt lat="42.6062676" lon="12.1400746"><ele>395.0</ele><time>2026-04-12T07:56:25.887Z</time></trkpt><trkpt lat="42.6063177" lon="12.1403094"><ele>394.3333333333333</ele><time>2026-04-12T07:56:26.885Z</time></trkpt><trkpt lat="42.6063731" lon="12.1405303"><ele>393.66666666666663</ele><time>2026-04-12T07:56:27.879Z</time></trkpt><trkpt lat="42.6064314" lon="12.1407549"><ele>393.0</ele><time>2026-04-12T07:56:28.883Z</time></trkpt><trkpt lat="42.6064864" lon="12.1409713"><ele>390.33333333333337</ele><time>2026-04-12T07:56:29.891Z</time></trkpt><trkpt lat="42.6065374" lon="12.1411902"><ele>387.6666666666667</ele><time>2026-04-12T07:56:30.884Z</time></trkpt><trkpt lat="42.6065635" lon="12.1414081"><ele>385.0</ele><time>2026-04-12T07:56:31.883Z</time></trkpt><trkpt lat="42.6065474" lon="12.1416312"><ele>382.33333333333337</ele><time>2026-04-12T07:56:32.894Z</time></trkpt><trkpt lat="42.6064965" lon="12.1418447"><ele>379.6666666666667</ele><time>2026-04-12T07:56:33.884Z</time></trkpt><trkpt lat="42.6064227" lon="12.1420503"><ele>377.0</ele><time>2026-04-12T07:56:34.884Z</time></trkpt><trkpt lat="42.6063398" lon="12.1422573"><ele>376.0</ele><time>2026-04-12T07:56:35.882Z</time></trkpt><trkpt lat="42.6062564" lon="12.1424736"><ele>375.0</ele><time>2026-04-12T07:56:36.881Z</time></trkpt><trkpt lat="42.6061746" lon="12.1426917"><ele>374.0</ele><time>2026-04-12T07:56:37.887Z</time></trkpt><trkpt lat="42.6060948" lon="12.1429049"><ele>374.0</ele><time>2026-04-12T07:56:38.879Z</time></trkpt><trkpt lat="42.606014" lon="12.1431142"><ele>374.0</ele><time>2026-04-12T07:56:39.885Z</time></trkpt><trkpt lat="42.6059361" lon="12.1433168"><ele>374.0</ele><time>2026-04-12T07:56:40.888Z</time></trkpt><trkpt lat="42.6058661" lon="12.143505"><ele>374.0</ele><time>2026-04-12T07:56:41.885Z</time></trkpt><trkpt lat="42.605794" lon="12.1436929"><ele>374.0</ele><time>2026-04-12T07:56:42.882Z</time></trkpt><trkpt lat="42.6057253" lon="12.1438743"><ele>374.0</ele><time>2026-04-12T07:56:43.885Z</time></trkpt><trkpt lat="42.6056593" lon="12.1440529"><ele>373.5</ele><time>2026-04-12T07:56:44.879Z</time></trkpt><trkpt lat="42.6055915" lon="12.1442315"><ele>373.0</ele><time>2026-04-12T07:56:45.869Z</time></trkpt><trkpt lat="42.6055289" lon="12.144405"><ele>372.5</ele><time>2026-04-12T07:56:46.891Z</time></trkpt><trkpt lat="42.6054714" lon="12.1445708"><ele>372.0</ele><time>2026-04-12T07:56:47.883Z</time></trkpt><trkpt lat="42.6054191" lon="12.144733"><ele>371.0</ele><time>2026-04-12T07:56:48.876Z</time></trkpt><trkpt lat="42.6053759" lon="12.1449144"><ele>370.0</ele><time>2026-04-12T07:56:49.894Z</time></trkpt><trkpt lat="42.6053481" lon="12.1451088"><ele>369.0</ele><time>2026-04-12T07:56:50.889Z</time></trkpt><trkpt lat="42.6053309" lon="12.1453044"><ele>368.0</ele><time>2026-04-12T07:56:51.888Z</time></trkpt><trkpt lat="42.6053296" lon="12.1454912"><ele>368.0</ele><time>2026-04-12T07:56:52.878Z</time></trkpt><trkpt lat="42.6053292" lon="12.145669"><ele>368.0</ele><time>2026-04-12T07:56:53.88Z</time></trkpt><trkpt lat="42.6053278" lon="12.1458458"><ele>368.0</ele><time>2026-04-12T07:56:54.882Z</time></trkpt><trkpt lat="42.6053204" lon="12.1460213"><ele>368.0</ele><time>2026-04-12T07:56:55.884Z</time></trkpt><trkpt lat="42.6052973" lon="12.1461923"><ele>367.75</ele><time>2026-04-12T07:56:56.877Z</time></trkpt><trkpt lat="42.6052438" lon="12.1463502"><ele>367.5</ele><time>2026-04-12T07:56:57.888Z</time></trkpt><trkpt lat="42.6051637" lon="12.1464747"><ele>367.25</ele><time>2026-04-12T07:56:58.891Z</time></trkpt><trkpt lat="42.6050586" lon="12.1465647"><ele>367.0</ele><time>2026-04-12T07:56:59.893Z</time></trkpt><trkpt lat="42.6049412" lon="12.146613"><ele>365.75</ele><time>2026-04-12T07:57:00.878Z</time></trkpt><trkpt lat="42.6048233" lon="12.1466321"><ele>364.5</ele><time>2026-04-12T07:57:01.883Z</time></trkpt><trkpt lat="42.6046977" lon="12.1466399"><ele>363.25</ele><time>2026-04-12T07:57:02.88Z</time></trkpt><trkpt lat="42.604564" lon="12.146653"><ele>362.0</ele><time>2026-04-12T07:57:03.886Z</time></trkpt><trkpt lat="42.6044265" lon="12.1466652"><ele>361.25</ele><time>2026-04-12T07:57:04.882Z</time></trkpt><trkpt lat="42.6042908" lon="12.1466797"><ele>360.5</ele><time>2026-04-12T07:57:05.899Z</time></trkpt><trkpt lat="42.6041502" lon="12.1466974"><ele>359.75</ele><time>2026-04-12T07:57:06.881Z</time></trkpt><trkpt lat="42.6040195" lon="12.1467075"><ele>359.0</ele><time>2026-04-12T07:57:07.883Z</time></trkpt><trkpt lat="42.6038883" lon="12.1466997"><ele>359.0</ele><time>2026-04-12T07:57:08.872Z</time></trkpt><trkpt lat="42.6037659" lon="12.1466714"><ele>359.0</ele><time>2026-04-12T07:57:09.875Z</time></trkpt><trkpt lat="42.6036448" lon="12.1466123"><ele>359.0</ele><time>2026-04-12T07:57:10.867Z</time></trkpt><trkpt lat="42.6035469" lon="12.1465179"><ele>359.0</ele><time>2026-04-12T07:57:11.873Z</time></trkpt><trkpt lat="42.6034659" lon="12.1463869"><ele>356.75</ele><time>2026-04-12T07:57:12.898Z</time></trkpt><trkpt lat="42.6034101" lon="12.1462215"><ele>354.5</ele><time>2026-04-12T07:57:13.879Z</time></trkpt><trkpt lat="42.6033764" lon="12.1460508"><ele>352.25</ele><time>2026-04-12T07:57:14.879Z</time></trkpt><trkpt lat="42.6033403" lon="12.1458798"><ele>350.0</ele><time>2026-04-12T07:57:15.877Z</time></trkpt><trkpt lat="42.6033021" lon="12.1457154"><ele>351.8</ele><time>2026-04-12T07:57:16.886Z</time></trkpt><trkpt lat="42.6032706" lon="12.1455657"><ele>353.6</ele><time>2026-04-12T07:57:17.879Z</time></trkpt><trkpt lat="42.6032217" lon="12.1454439"><ele>355.4</ele><time>2026-04-12T07:57:18.883Z</time></trkpt><trkpt lat="42.6031591" lon="12.1453579"><ele>357.2</ele><time>2026-04-12T07:57:19.885Z</time></trkpt><trkpt lat="42.6030892" lon="12.1453168"><ele>359.0</ele><time>2026-04-12T07:57:20.882Z</time></trkpt><trkpt lat="42.6030148" lon="12.1453151"><ele>359.0</ele><time>2026-04-12T07:57:21.885Z</time></trkpt><trkpt lat="42.6029548" lon="12.1453587"><ele>359.0</ele><time>2026-04-12T07:57:22.875Z</time></trkpt><trkpt lat="42.6029132" lon="12.1454434"><ele>359.0</ele><time>2026-04-12T07:57:23.882Z</time></trkpt><trkpt lat="42.6028983" lon="12.1455498"><ele>359.0</ele><time>2026-04-12T07:57:24.881Z</time></trkpt><trkpt lat="42.6028908" lon="12.1456722"><ele>359.0</ele><time>2026-04-12T07:57:25.885Z</time></trkpt><trkpt lat="42.6028865" lon="12.1458157"><ele>359.0</ele><time>2026-04-12T07:57:26.88Z</time></trkpt><trkpt lat="42.6028862" lon="12.1459691"><ele>356.75</ele><time>2026-04-12T07:57:27.875Z</time></trkpt><trkpt lat="42.6028851" lon="12.1461335"><ele>354.5</ele><time>2026-04-12T07:57:28.883Z</time></trkpt><trkpt lat="42.6028844" lon="12.1462976"><ele>352.25</ele><time>2026-04-12T07:57:29.877Z</time></trkpt><trkpt lat="42.6028918" lon="12.1464631"><ele>350.0</ele><time>2026-04-12T07:57:30.882Z</time></trkpt><trkpt lat="42.6029275" lon="12.1466228"><ele>348.8</ele><time>2026-04-12T07:57:31.876Z</time></trkpt><trkpt lat="42.6029865" lon="12.1467625"><ele>347.6</ele><time>2026-04-12T07:57:32.883Z</time></trkpt><trkpt lat="42.6030614" lon="12.1468729"><ele>346.4</ele><time>2026-04-12T07:57:33.891Z</time></trkpt><trkpt lat="42.6031359" lon="12.1469734"><ele>345.2</ele><time>2026-04-12T07:57:34.885Z</time></trkpt><trkpt lat="42.6031978" lon="12.1470966"><ele>344.0</ele><time>2026-04-12T07:57:35.887Z</time></trkpt><trkpt lat="42.6032362" lon="12.1472486"><ele>343.25</ele><time>2026-04-12T07:57:36.876Z</time></trkpt><trkpt lat="42.6032395" lon="12.1474162"><ele>342.5</ele><time>2026-04-12T07:57:37.884Z</time></trkpt><trkpt lat="42.6032004" lon="12.1475804"><ele>341.75</ele><time>2026-04-12T07:57:38.876Z</time></trkpt><trkpt lat="42.6031353" lon="12.1477385"><ele>341.0</ele><time>2026-04-12T07:57:39.872Z</time></trkpt><trkpt lat="42.6030541" lon="12.1478982"><ele>341.0</ele><time>2026-04-12T07:57:40.885Z</time></trkpt><trkpt lat="42.6029634" lon="12.1480554"><ele>341.0</ele><time>2026-04-12T07:57:41.886Z</time></trkpt><trkpt lat="42.6028696" lon="12.1482156"><ele>341.0</ele><time>2026-04-12T07:57:42.89Z</time></trkpt><trkpt lat="42.6027769" lon="12.1483794"><ele>336.5</ele><time>2026-04-12T07:57:43.878Z</time></trkpt><trkpt lat="42.6026836" lon="12.1485398"><ele>332.0</ele><time>2026-04-12T07:57:44.892Z</time></trkpt><trkpt lat="42.6025951" lon="12.148698"><ele>327.5</ele><time>2026-04-12T07:57:45.888Z</time></trkpt><trkpt lat="42.6025029" lon="12.1488468"><ele>323.0</ele><time>2026-04-12T07:57:46.877Z</time></trkpt><trkpt lat="42.6024066" lon="12.148987"><ele>325.75</ele><time>2026-04-12T07:57:47.877Z</time></trkpt><trkpt lat="42.6023075" lon="12.1491112"><ele>328.5</ele><time>2026-04-12T07:57:48.874Z</time></trkpt><trkpt lat="42.6022031" lon="12.1492261"><ele>331.25</ele><time>2026-04-12T07:57:49.881Z</time></trkpt><trkpt lat="42.6020863" lon="12.1493357"><ele>334.0</ele><time>2026-04-12T07:57:50.878Z</time></trkpt><trkpt lat="42.6019736" lon="12.1494429"><ele>329.75</ele><time>2026-04-12T07:57:51.884Z</time></trkpt><trkpt lat="42.6018637" lon="12.149561"><ele>325.5</ele><time>2026-04-12T07:57:52.887Z</time></trkpt><trkpt lat="42.6017586" lon="12.1496911"><ele>321.25</ele><time>2026-04-12T07:57:53.892Z</time></trkpt><trkpt lat="42.6016555" lon="12.1498363"><ele>317.0</ele><time>2026-04-12T07:57:54.887Z</time></trkpt><trkpt lat="42.6015594" lon="12.149995"><ele>317.0</ele><time>2026-04-12T07:57:55.876Z</time></trkpt><trkpt lat="42.6014733" lon="12.1501661"><ele>317.0</ele><time>2026-04-12T07:57:56.894Z</time></trkpt><trkpt lat="42.6014035" lon="12.1503588"><ele>317.0</ele><time>2026-04-12T07:57:57.882Z</time></trkpt><trkpt lat="42.6013589" lon="12.1505658"><ele>315.6666666666667</ele><time>2026-04-12T07:57:58.878Z</time></trkpt><trkpt lat="42.6013498" lon="12.1507803"><ele>314.3333333333333</ele><time>2026-04-12T07:57:59.905Z</time></trkpt><trkpt lat="42.6013689" lon="12.1509913"><ele>313.0</ele><time>2026-04-12T07:58:00.888Z</time></trkpt><trkpt lat="42.6014026" lon="12.1512109"><ele>313.0</ele><time>2026-04-12T07:58:01.887Z</time></trkpt><trkpt lat="42.6014364" lon="12.1514366"><ele>313.0</ele><time>2026-04-12T07:58:02.885Z</time></trkpt><trkpt lat="42.6014612" lon="12.1516812"><ele>313.0</ele><time>2026-04-12T07:58:03.895Z</time></trkpt><trkpt lat="42.6014685" lon="12.1519336"><ele>310.0</ele><time>2026-04-12T07:58:04.889Z</time></trkpt><trkpt lat="42.6014496" lon="12.1521942"><ele>307.0</ele><time>2026-04-12T07:58:05.884Z</time></trkpt><trkpt lat="42.6014155" lon="12.1524521"><ele>304.0</ele><time>2026-04-12T07:58:06.885Z</time></trkpt><trkpt lat="42.6013762" lon="12.1527085"><ele>301.3333333333333</ele><time>2026-04-12T07:58:07.878Z</time></trkpt><trkpt lat="42.6013371" lon="12.1529647"><ele>298.6666666666667</ele><time>2026-04-12T07:58:08.883Z</time></trkpt><trkpt lat="42.6013031" lon="12.1532113"><ele>296.0</ele><time>2026-04-12T07:58:09.891Z</time></trkpt><trkpt lat="42.6012677" lon="12.1534443"><ele>296.0</ele><time>2026-04-12T07:58:10.892Z</time></trkpt><trkpt lat="42.6012395" lon="12.1536657"><ele>296.0</ele><time>2026-04-12T07:58:11.882Z</time></trkpt><trkpt lat="42.6012176" lon="12.1538853"><ele>296.0</ele><time>2026-04-12T07:58:12.882Z</time></trkpt><trkpt lat="42.6012092" lon="12.1541011"><ele>296.6666666666667</ele><time>2026-04-12T07:58:13.881Z</time></trkpt><trkpt lat="42.6012017" lon="12.1543203"><ele>297.3333333333333</ele><time>2026-04-12T07:58:14.886Z</time></trkpt><trkpt lat="42.6011838" lon="12.1545289"><ele>298.0</ele><time>2026-04-12T07:58:15.881Z</time></trkpt><trkpt lat="42.6011587" lon="12.1547378"><ele>299.0</ele><time>2026-04-12T07:58:16.876Z</time></trkpt><trkpt lat="42.6011196" lon="12.1549498"><ele>300.0</ele><time>2026-04-12T07:58:17.885Z</time></trkpt><trkpt lat="42.6010724" lon="12.1551642"><ele>301.0</ele><time>2026-04-12T07:58:18.881Z</time></trkpt><trkpt lat="42.6010205" lon="12.1553903"><ele>301.0</ele><time>2026-04-12T07:58:19.892Z</time></trkpt><trkpt lat="42.6009668" lon="12.1556107"><ele>301.0</ele><time>2026-04-12T07:58:20.893Z</time></trkpt><trkpt lat="42.6009204" lon="12.1558309"><ele>301.0</ele><time>2026-04-12T07:58:21.878Z</time></trkpt><trkpt lat="42.6008798" lon="12.1560566"><ele>304.0</ele><time>2026-04-12T07:58:22.886Z</time></trkpt><trkpt lat="42.6008437" lon="12.1562828"><ele>307.0</ele><time>2026-04-12T07:58:23.893Z</time></trkpt><trkpt lat="42.6008226" lon="12.156505"><ele>310.0</ele><time>2026-04-12T07:58:24.897Z</time></trkpt><trkpt lat="42.6008134" lon="12.1567218"><ele>313.0</ele><time>2026-04-12T07:58:25.882Z</time></trkpt><trkpt lat="42.6008012" lon="12.1569325"><ele>316.0</ele><time>2026-04-12T07:58:26.881Z</time></trkpt><trkpt lat="42.6007766" lon="12.1571342"><ele>319.0</ele><time>2026-04-12T07:58:27.877Z</time></trkpt><trkpt lat="42.6007344" lon="12.157332"><ele>322.0</ele><time>2026-04-12T07:58:28.881Z</time></trkpt><trkpt lat="42.6006725" lon="12.1575216"><ele>325.0</ele><time>2026-04-12T07:58:29.882Z</time></trkpt><trkpt lat="42.6006122" lon="12.1577065"><ele>328.0</ele><time>2026-04-12T07:58:30.888Z</time></trkpt><trkpt lat="42.6005683" lon="12.1579052"><ele>328.0</ele><time>2026-04-12T07:58:31.884Z</time></trkpt><trkpt lat="42.6005512" lon="12.1581068"><ele>328.0</ele><time>2026-04-12T07:58:32.882Z</time></trkpt><trkpt lat="42.6005505" lon="12.1583061"><ele>328.0</ele><time>2026-04-12T07:58:33.882Z</time></trkpt><trkpt lat="42.6005498" lon="12.1584808"><ele>328.0</ele><time>2026-04-12T07:58:34.883Z</time></trkpt><trkpt lat="42.6005282" lon="12.1586495"><ele>328.25</ele><time>2026-04-12T07:58:35.888Z</time></trkpt><trkpt lat="42.6004698" lon="12.1588017"><ele>328.5</ele><time>2026-04-12T07:58:36.876Z</time></trkpt><trkpt lat="42.6003842" lon="12.1589321"><ele>328.75</ele><time>2026-04-12T07:58:37.887Z</time></trkpt><trkpt lat="42.6002795" lon="12.1590237"><ele>329.0</ele><time>2026-04-12T07:58:38.89Z</time></trkpt><trkpt lat="42.6001677" lon="12.159103"><ele>329.0</ele><time>2026-04-12T07:58:39.897Z</time></trkpt><trkpt lat="42.6000502" lon="12.1591762"><ele>329.0</ele><time>2026-04-12T07:58:40.901Z</time></trkpt><trkpt lat="42.5999399" lon="12.1592581"><ele>329.0</ele><time>2026-04-12T07:58:41.894Z</time></trkpt><trkpt lat="42.599837" lon="12.1593361"><ele>329.0</ele><time>2026-04-12T07:58:42.879Z</time></trkpt><trkpt lat="42.5997466" lon="12.1594027"><ele>329.0</ele><time>2026-04-12T07:58:43.882Z</time></trkpt><trkpt lat="42.5996614" lon="12.1594632"><ele>329.0</ele><time>2026-04-12T07:58:44.882Z</time></trkpt><trkpt lat="42.5995734" lon="12.1595261"><ele>329.0</ele><time>2026-04-12T07:58:45.879Z</time></trkpt><trkpt lat="42.5994814" lon="12.1595875"><ele>329.0</ele><time>2026-04-12T07:58:46.892Z</time></trkpt><trkpt lat="42.5993883" lon="12.1596619"><ele>329.0</ele><time>2026-04-12T07:58:47.885Z</time></trkpt><trkpt lat="42.5992881" lon="12.1597362"><ele>329.25</ele><time>2026-04-12T07:58:48.89Z</time></trkpt><trkpt lat="42.5991822" lon="12.159832"><ele>329.5</ele><time>2026-04-12T07:58:49.884Z</time></trkpt><trkpt lat="42.5990841" lon="12.1599518"><ele>329.75</ele><time>2026-04-12T07:58:50.889Z</time></trkpt><trkpt lat="42.5989824" lon="12.1600936"><ele>330.0</ele><time>2026-04-12T07:58:51.872Z</time></trkpt><trkpt lat="42.5988799" lon="12.1602567"><ele>330.3333333333333</ele><time>2026-04-12T07:58:52.884Z</time></trkpt><trkpt lat="42.5987764" lon="12.1604293"><ele>330.66666666666663</ele><time>2026-04-12T07:58:53.883Z</time></trkpt><trkpt lat="42.5986713" lon="12.1605986"><ele>331.0</ele><time>2026-04-12T07:58:54.898Z</time></trkpt><trkpt lat="42.5985731" lon="12.1607722"><ele>331.0</ele><time>2026-04-12T07:58:55.883Z</time></trkpt><trkpt lat="42.5984906" lon="12.1609502"><ele>331.0</ele><time>2026-04-12T07:58:56.891Z</time></trkpt><trkpt lat="42.5984179" lon="12.1611254"><ele>331.0</ele><time>2026-04-12T07:58:57.886Z</time></trkpt><trkpt lat="42.5983456" lon="12.1613076"><ele>331.0</ele><time>2026-04-12T07:58:58.882Z</time></trkpt><trkpt lat="42.598281" lon="12.1614825"><ele>331.0</ele><time>2026-04-12T07:58:59.897Z</time></trkpt><trkpt lat="42.5982128" lon="12.1616452"><ele>331.0</ele><time>2026-04-12T07:59:00.881Z</time></trkpt><trkpt lat="42.5981444" lon="12.1617935"><ele>331.0</ele><time>2026-04-12T07:59:01.891Z</time></trkpt><trkpt lat="42.5980777" lon="12.1619455"><ele>332.75</ele><time>2026-04-12T07:59:02.89Z</time></trkpt><trkpt lat="42.5980109" lon="12.1620939"><ele>334.5</ele><time>2026-04-12T07:59:03.874Z</time></trkpt><trkpt lat="42.5979561" lon="12.1622506"><ele>336.25</ele><time>2026-04-12T07:59:04.898Z</time></trkpt><trkpt lat="42.5979191" lon="12.1624282"><ele>338.0</ele><time>2026-04-12T07:59:05.9Z</time></trkpt><trkpt lat="42.5979131" lon="12.1626152"><ele>338.0</ele><time>2026-04-12T07:59:06.886Z</time></trkpt><trkpt lat="42.5979326" lon="12.1628057"><ele>338.0</ele><time>2026-04-12T07:59:07.877Z</time></trkpt><trkpt lat="42.597952" lon="12.1630023"><ele>338.0</ele><time>2026-04-12T07:59:08.885Z</time></trkpt><trkpt lat="42.5979789" lon="12.1631905"><ele>338.0</ele><time>2026-04-12T07:59:09.893Z</time></trkpt><trkpt lat="42.5979824" lon="12.163382"><ele>336.0</ele><time>2026-04-12T07:59:10.891Z</time></trkpt><trkpt lat="42.5979647" lon="12.1635659"><ele>334.0</ele><time>2026-04-12T07:59:11.884Z</time></trkpt><trkpt lat="42.597932" lon="12.1637435"><ele>332.0</ele><time>2026-04-12T07:59:12.89Z</time></trkpt><trkpt lat="42.5978974" lon="12.1639082"><ele>330.0</ele><time>2026-04-12T07:59:13.891Z</time></trkpt><trkpt lat="42.5978631" lon="12.1640676"><ele>332.8</ele><time>2026-04-12T07:59:14.894Z</time></trkpt><trkpt lat="42.5978242" lon="12.1642112"><ele>335.6</ele><time>2026-04-12T07:59:15.882Z</time></trkpt><trkpt lat="42.5977786" lon="12.1643469"><ele>338.4</ele><time>2026-04-12T07:59:16.879Z</time></trkpt><trkpt lat="42.5977273" lon="12.1644623"><ele>341.2</ele><time>2026-04-12T07:59:17.878Z</time></trkpt><trkpt lat="42.5976641" lon="12.1645578"><ele>344.0</ele><time>2026-04-12T07:59:18.89Z</time></trkpt><trkpt lat="42.5975838" lon="12.1646305"><ele>344.0</ele><time>2026-04-12T07:59:19.874Z</time></trkpt><trkpt lat="42.5974899" lon="12.1646971"><ele>344.0</ele><time>2026-04-12T07:59:20.873Z</time></trkpt><trkpt lat="42.5973848" lon="12.164743"><ele>344.0</ele><time>2026-04-12T07:59:21.891Z</time></trkpt><trkpt lat="42.5972545" lon="12.1647776"><ele>344.0</ele><time>2026-04-12T07:59:22.889Z</time></trkpt><trkpt lat="42.5971223" lon="12.1648042"><ele>342.75</ele><time>2026-04-12T07:59:23.881Z</time></trkpt><trkpt lat="42.5969916" lon="12.1648205"><ele>341.5</ele><time>2026-04-12T07:59:24.882Z</time></trkpt><trkpt lat="42.5968648" lon="12.1648326"><ele>340.25</ele><time>2026-04-12T07:59:25.882Z</time></trkpt><trkpt lat="42.5967456" lon="12.1648418"><ele>339.0</ele><time>2026-04-12T07:59:26.897Z</time></trkpt><trkpt lat="42.5966309" lon="12.1648774"><ele>337.0</ele><time>2026-04-12T07:59:27.885Z</time></trkpt><trkpt lat="42.5965214" lon="12.1649466"><ele>335.0</ele><time>2026-04-12T07:59:28.887Z</time></trkpt><trkpt lat="42.5964194" lon="12.1650502"><ele>333.0</ele><time>2026-04-12T07:59:29.877Z</time></trkpt><trkpt lat="42.596336" lon="12.1651899"><ele>331.0</ele><time>2026-04-12T07:59:30.885Z</time></trkpt><trkpt lat="42.5962674" lon="12.1653576"><ele>331.0</ele><time>2026-04-12T07:59:31.879Z</time></trkpt><trkpt lat="42.5962301" lon="12.1655477"><ele>331.0</ele><time>2026-04-12T07:59:32.885Z</time></trkpt><trkpt lat="42.5961915" lon="12.1657601"><ele>331.0</ele><time>2026-04-12T07:59:33.876Z</time></trkpt><trkpt lat="42.5961523" lon="12.1659864"><ele>327.66666666666663</ele><time>2026-04-12T07:59:34.889Z</time></trkpt><trkpt lat="42.5961186" lon="12.1662149"><ele>324.3333333333333</ele><time>2026-04-12T07:59:35.874Z</time></trkpt><trkpt lat="42.5960876" lon="12.1664449"><ele>321.0</ele><time>2026-04-12T07:59:36.889Z</time></trkpt><trkpt lat="42.5960511" lon="12.1666935"><ele>319.6666666666667</ele><time>2026-04-12T07:59:37.882Z</time></trkpt><trkpt lat="42.5960216" lon="12.1669361"><ele>318.33333333333337</ele><time>2026-04-12T07:59:38.881Z</time></trkpt><trkpt lat="42.5959856" lon="12.1671758"><ele>317.0</ele><time>2026-04-12T07:59:39.889Z</time></trkpt><trkpt lat="42.5959573" lon="12.1674011"><ele>315.6666666666667</ele><time>2026-04-12T07:59:40.879Z</time></trkpt><trkpt lat="42.5959245" lon="12.1676148"><ele>314.3333333333333</ele><time>2026-04-12T07:59:41.884Z</time></trkpt><trkpt lat="42.5958944" lon="12.1678118"><ele>313.0</ele><time>2026-04-12T07:59:42.892Z</time></trkpt><trkpt lat="42.5958607" lon="12.1680119"><ele>312.75</ele><time>2026-04-12T07:59:43.876Z</time></trkpt><trkpt lat="42.5958322" lon="12.1681973"><ele>312.5</ele><time>2026-04-12T07:59:44.883Z</time></trkpt><trkpt lat="42.5958068" lon="12.1683819"><ele>312.25</ele><time>2026-04-12T07:59:45.881Z</time></trkpt><trkpt lat="42.5957849" lon="12.1685522"><ele>312.0</ele><time>2026-04-12T07:59:46.885Z</time></trkpt><trkpt lat="42.5957548" lon="12.1687197"><ele>312.0</ele><time>2026-04-12T07:59:47.871Z</time></trkpt><trkpt lat="42.5957275" lon="12.1688888"><ele>312.0</ele><time>2026-04-12T07:59:48.891Z</time></trkpt><trkpt lat="42.5957023" lon="12.1690567"><ele>312.0</ele><time>2026-04-12T07:59:49.872Z</time></trkpt><trkpt lat="42.5956762" lon="12.1692135"><ele>312.0</ele><time>2026-04-12T07:59:50.884Z</time></trkpt><trkpt lat="42.5956614" lon="12.1693641"><ele>311.5</ele><time>2026-04-12T07:59:51.878Z</time></trkpt><trkpt lat="42.5956517" lon="12.1695072"><ele>311.0</ele><time>2026-04-12T07:59:52.886Z</time></trkpt><trkpt lat="42.5956496" lon="12.16964"><ele>310.5</ele><time>2026-04-12T07:59:53.878Z</time></trkpt><trkpt lat="42.5956482" lon="12.1697617"><ele>310.0</ele><time>2026-04-12T07:59:54.888Z</time></trkpt><trkpt lat="42.5956544" lon="12.1698731"><ele>309.5</ele><time>2026-04-12T07:59:55.879Z</time></trkpt><trkpt lat="42.5956657" lon="12.1699596"><ele>309.0</ele><time>2026-04-12T07:59:56.883Z</time></trkpt><trkpt lat="42.5956846" lon="12.1701092"><ele>307.8</ele><time>2026-04-12T07:59:58.89Z</time></trkpt><trkpt lat="42.5957115" lon="12.1702336"><ele>306.59999999999997</ele><time>2026-04-12T08:00:00.88Z</time></trkpt><trkpt lat="42.5957391" lon="12.1703396"><ele>305.4</ele><time>2026-04-12T08:00:02.878Z</time></trkpt><trkpt lat="42.5957766" lon="12.1704792"><ele>304.2</ele><time>2026-04-12T08:00:04.875Z</time></trkpt><trkpt lat="42.5958263" lon="12.1706219"><ele>303.0</ele><time>2026-04-12T08:00:06.883Z</time></trkpt><trkpt lat="42.5958661" lon="12.1707122"><ele>303.0</ele><time>2026-04-12T08:00:08.883Z</time></trkpt><trkpt lat="42.5959057" lon="12.1707919"><ele>303.0</ele><time>2026-04-12T08:00:38.885Z</time></trkpt><trkpt lat="42.5958832" lon="12.1706796"><ele>303.0</ele><time>2026-04-12T08:00:53.88Z</time></trkpt><trkpt lat="42.5958287" lon="12.1705766"><ele>303.0</ele><time>2026-04-12T08:00:55.881Z</time></trkpt><trkpt lat="42.5957838" lon="12.1704483"><ele>303.0</ele><time>2026-04-12T08:00:57.883Z</time></trkpt><trkpt lat="42.5957596" lon="12.1703665"><ele>303.0</ele><time>2026-04-12T08:00:58.868Z</time></trkpt><trkpt lat="42.5957354" lon="12.1702798"><ele>303.0</ele><time>2026-04-12T08:00:59.893Z</time></trkpt><trkpt lat="42.5957193" lon="12.1701911"><ele>303.0</ele><time>2026-04-12T08:01:00.885Z</time></trkpt><trkpt lat="42.595689" lon="12.1700687"><ele>303.0</ele><time>2026-04-12T08:01:02.882Z</time></trkpt><trkpt lat="42.5956422" lon="12.1700088"><ele>303.0</ele><time>2026-04-12T08:01:04.911Z</time></trkpt><trkpt lat="42.5955774" lon="12.1700032"><ele>303.0</ele><time>2026-04-12T08:01:06.884Z</time></trkpt><trkpt lat="42.5954743" lon="12.1700107"><ele>303.0</ele><time>2026-04-12T08:01:08.88Z</time></trkpt><trkpt lat="42.595407" lon="12.1700141"><ele>303.0</ele><time>2026-04-12T08:01:09.894Z</time></trkpt><trkpt lat="42.5953384" lon="12.1700176"><ele>303.0</ele><time>2026-04-12T08:01:10.892Z</time></trkpt><trkpt lat="42.5952723" lon="12.1700113"><ele>303.0</ele><time>2026-04-12T08:01:11.897Z</time></trkpt><trkpt lat="42.595203" lon="12.1700025"><ele>303.0</ele><time>2026-04-12T08:01:12.884Z</time></trkpt><trkpt lat="42.5951018" lon="12.1699477"><ele>303.0</ele><time>2026-04-12T08:01:14.893Z</time></trkpt><trkpt lat="42.5950578" lon="12.1698642"><ele>303.0</ele><time>2026-04-12T08:01:16.875Z</time></trkpt><trkpt lat="42.5950459" lon="12.1697788"><ele>304.6</ele><time>2026-04-12T08:01:18.887Z</time></trkpt><trkpt lat="42.5950427" lon="12.1696915"><ele>306.20000000000005</ele><time>2026-04-12T08:01:24.897Z</time></trkpt><trkpt lat="42.594951" lon="12.1696625"><ele>307.8</ele><time>2026-04-12T08:01:45.886Z</time></trkpt><trkpt lat="42.5948511" lon="12.169633"><ele>309.40000000000003</ele><time>2026-04-12T08:01:47.881Z</time></trkpt><trkpt lat="42.5947348" lon="12.1696032"><ele>311.0</ele><time>2026-04-12T08:01:49.887Z</time></trkpt><trkpt lat="42.5946258" lon="12.1695949"><ele>311.0</ele><time>2026-04-12T08:01:51.881Z</time></trkpt><trkpt lat="42.5945416" lon="12.1695924"><ele>311.0</ele><time>2026-04-12T08:01:53.877Z</time></trkpt><trkpt lat="42.5944786" lon="12.1696699"><ele>311.0</ele><time>2026-04-12T08:01:57.883Z</time></trkpt><trkpt lat="42.5944844" lon="12.1697661"><ele>311.0</ele><time>2026-04-12T08:01:59.887Z</time></trkpt><trkpt lat="42.5944976" lon="12.1698515"><ele>311.0</ele><time>2026-04-12T08:02:01.891Z</time></trkpt><trkpt lat="42.5945204" lon="12.1699365"><ele>311.0</ele><time>2026-04-12T08:02:06.884Z</time></trkpt><trkpt lat="42.5946147" lon="12.1699513"><ele>310.5</ele><time>2026-04-12T08:02:12.881Z</time></trkpt><trkpt lat="42.5946996" lon="12.1699882"><ele>310.0</ele><time>2026-04-12T08:02:14.886Z</time></trkpt><trkpt lat="42.5947596" lon="12.170031"><ele>309.5</ele><time>2026-04-12T08:02:15.9Z</time></trkpt><trkpt lat="42.5948279" lon="12.1700657"><ele>309.0</ele><time>2026-04-12T08:02:16.885Z</time></trkpt><trkpt lat="42.5948965" lon="12.1701049"><ele>308.5</ele><time>2026-04-12T08:02:17.876Z</time></trkpt><trkpt lat="42.594964" lon="12.1701368"><ele>308.0</ele><time>2026-04-12T08:02:18.889Z</time></trkpt><trkpt lat="42.5950627" lon="12.1701862"><ele>308.0</ele><time>2026-04-12T08:02:20.88Z</time></trkpt><trkpt lat="42.5951252" lon="12.1702568"><ele>308.0</ele><time>2026-04-12T08:02:23.879Z</time></trkpt><trkpt lat="42.5950503" lon="12.1703233"><ele>308.0</ele><time>2026-04-12T08:02:31.885Z</time></trkpt><trkpt lat="42.594973" lon="12.1703937"><ele>308.0</ele><time>2026-04-12T08:02:32.891Z</time></trkpt><trkpt lat="42.5948957" lon="12.17044"><ele>308.0</ele><time>2026-04-12T08:02:33.876Z</time></trkpt><trkpt lat="42.5948004" lon="12.1705015"><ele>308.0</ele><time>2026-04-12T08:02:34.886Z</time></trkpt><trkpt lat="42.5947043" lon="12.1705781"><ele>308.0</ele><time>2026-04-12T08:02:35.882Z</time></trkpt><trkpt lat="42.5946057" lon="12.170664"><ele>308.0</ele><time>2026-04-12T08:02:36.885Z</time></trkpt><trkpt lat="42.5945159" lon="12.1707505"><ele>308.0</ele><time>2026-04-12T08:02:37.88Z</time></trkpt><trkpt lat="42.5944299" lon="12.1708281"><ele>308.0</ele><time>2026-04-12T08:02:38.881Z</time></trkpt><trkpt lat="42.5943406" lon="12.1709058"><ele>307.6</ele><time>2026-04-12T08:02:39.883Z</time></trkpt><trkpt lat="42.5942472" lon="12.1709872"><ele>307.20000000000005</ele><time>2026-04-12T08:02:40.881Z</time></trkpt><trkpt lat="42.5941635" lon="12.1710702"><ele>306.8</ele><time>2026-04-12T08:02:41.885Z</time></trkpt><trkpt lat="42.5940736" lon="12.1711568"><ele>306.40000000000003</ele><time>2026-04-12T08:02:42.885Z</time></trkpt><trkpt lat="42.5939804" lon="12.1712447"><ele>306.0</ele><time>2026-04-12T08:02:43.895Z</time></trkpt><trkpt lat="42.593883" lon="12.1713321"><ele>306.0</ele><time>2026-04-12T08:02:44.877Z</time></trkpt><trkpt lat="42.5937834" lon="12.1714096"><ele>306.0</ele><time>2026-04-12T08:02:45.871Z</time></trkpt><trkpt lat="42.5936838" lon="12.1714817"><ele>306.0</ele><time>2026-04-12T08:02:46.884Z</time></trkpt><trkpt lat="42.5935845" lon="12.1715545"><ele>306.0</ele><time>2026-04-12T08:02:47.89Z</time></trkpt><trkpt lat="42.593487" lon="12.171634"><ele>305.2</ele><time>2026-04-12T08:02:48.885Z</time></trkpt><trkpt lat="42.5933945" lon="12.1717129"><ele>304.40000000000003</ele><time>2026-04-12T08:02:49.883Z</time></trkpt><trkpt lat="42.5933071" lon="12.1717894"><ele>303.6</ele><time>2026-04-12T08:02:50.885Z</time></trkpt><trkpt lat="42.5932254" lon="12.171868"><ele>302.8</ele><time>2026-04-12T08:02:51.894Z</time></trkpt><trkpt lat="42.5931344" lon="12.1719484"><ele>302.0</ele><time>2026-04-12T08:02:52.878Z</time></trkpt><trkpt lat="42.5930458" lon="12.1720242"><ele>302.0</ele><time>2026-04-12T08:02:53.889Z</time></trkpt><trkpt lat="42.5929609" lon="12.1721201"><ele>302.0</ele><time>2026-04-12T08:02:54.879Z</time></trkpt><trkpt lat="42.5928742" lon="12.1722145"><ele>302.0</ele><time>2026-04-12T08:02:55.883Z</time></trkpt><trkpt lat="42.5927954" lon="12.1723088"><ele>302.0</ele><time>2026-04-12T08:02:56.884Z</time></trkpt><trkpt lat="42.5927159" lon="12.1724118"><ele>302.0</ele><time>2026-04-12T08:02:57.89Z</time></trkpt><trkpt lat="42.5926407" lon="12.1725102"><ele>300.2</ele><time>2026-04-12T08:02:58.88Z</time></trkpt><trkpt lat="42.5925694" lon="12.1726101"><ele>298.4</ele><time>2026-04-12T08:02:59.892Z</time></trkpt><trkpt lat="42.5924998" lon="12.1727203"><ele>296.6</ele><time>2026-04-12T08:03:00.884Z</time></trkpt><trkpt lat="42.592431" lon="12.1728435"><ele>294.8</ele><time>2026-04-12T08:03:01.876Z</time></trkpt><trkpt lat="42.5923692" lon="12.1729652"><ele>293.0</ele><time>2026-04-12T08:03:02.878Z</time></trkpt><trkpt lat="42.5923249" lon="12.1730889"><ele>292.2</ele><time>2026-04-12T08:03:03.878Z</time></trkpt><trkpt lat="42.5922823" lon="12.1732137"><ele>291.4</ele><time>2026-04-12T08:03:04.882Z</time></trkpt><trkpt lat="42.592252" lon="12.1733326"><ele>290.59999999999997</ele><time>2026-04-12T08:03:05.903Z</time></trkpt><trkpt lat="42.5922399" lon="12.1734526"><ele>289.8</ele><time>2026-04-12T08:03:06.89Z</time></trkpt><trkpt lat="42.5922439" lon="12.1735642"><ele>289.0</ele><time>2026-04-12T08:03:07.881Z</time></trkpt><trkpt lat="42.5922513" lon="12.1736829"><ele>289.0</ele><time>2026-04-12T08:03:08.878Z</time></trkpt><trkpt lat="42.5922556" lon="12.1738003"><ele>289.0</ele><time>2026-04-12T08:03:09.888Z</time></trkpt><trkpt lat="42.592263" lon="12.1739107"><ele>289.0</ele><time>2026-04-12T08:03:10.89Z</time></trkpt><trkpt lat="42.5922735" lon="12.174031"><ele>289.0</ele><time>2026-04-12T08:03:11.884Z</time></trkpt><trkpt lat="42.5922948" lon="12.1741496"><ele>289.0</ele><time>2026-04-12T08:03:12.893Z</time></trkpt><trkpt lat="42.592301" lon="12.1742684"><ele>289.0</ele><time>2026-04-12T08:03:13.881Z</time></trkpt><trkpt lat="42.5922862" lon="12.1743886"><ele>288.16666666666663</ele><time>2026-04-12T08:03:14.88Z</time></trkpt><trkpt lat="42.592264" lon="12.1744993"><ele>287.3333333333333</ele><time>2026-04-12T08:03:15.874Z</time></trkpt><trkpt lat="42.592239" lon="12.1746132"><ele>286.5</ele><time>2026-04-12T08:03:16.883Z</time></trkpt><trkpt lat="42.5922205" lon="12.1747154"><ele>285.6666666666667</ele><time>2026-04-12T08:03:17.883Z</time></trkpt><trkpt lat="42.5922082" lon="12.1748183"><ele>284.83333333333337</ele><time>2026-04-12T08:03:18.892Z</time></trkpt><trkpt lat="42.5922014" lon="12.1749056"><ele>284.0</ele><time>2026-04-12T08:03:19.874Z</time></trkpt><trkpt lat="42.5921947" lon="12.1750517"><ele>283.0</ele><time>2026-04-12T08:03:21.907Z</time></trkpt><trkpt lat="42.5921715" lon="12.1751976"><ele>282.0</ele><time>2026-04-12T08:03:23.876Z</time></trkpt><trkpt lat="42.5921276" lon="12.1753662"><ele>281.0</ele><time>2026-04-12T08:03:25.889Z</time></trkpt><trkpt lat="42.5921051" lon="12.1754594"><ele>280.0</ele><time>2026-04-12T08:03:26.885Z</time></trkpt><trkpt lat="42.5920824" lon="12.1755542"><ele>279.0</ele><time>2026-04-12T08:03:27.887Z</time></trkpt><trkpt lat="42.5920426" lon="12.1756566"><ele>275.3333333333333</ele><time>2026-04-12T08:03:28.879Z</time></trkpt><trkpt lat="42.5920047" lon="12.1757577"><ele>271.6666666666667</ele><time>2026-04-12T08:03:29.891Z</time></trkpt><trkpt lat="42.5919604" lon="12.1758546"><ele>268.0</ele><time>2026-04-12T08:03:30.884Z</time></trkpt><trkpt lat="42.5919284" lon="12.1759547"><ele>264.33333333333337</ele><time>2026-04-12T08:03:31.886Z</time></trkpt><trkpt lat="42.5918972" lon="12.1760626"><ele>260.6666666666667</ele><time>2026-04-12T08:03:32.891Z</time></trkpt><trkpt lat="42.5918857" lon="12.1761768"><ele>257.0</ele><time>2026-04-12T08:03:33.905Z</time></trkpt><trkpt lat="42.5918714" lon="12.1763064"><ele>257.0</ele><time>2026-04-12T08:03:34.878Z</time></trkpt><trkpt lat="42.591852" lon="12.1764335"><ele>257.0</ele><time>2026-04-12T08:03:35.882Z</time></trkpt><trkpt lat="42.5918268" lon="12.1765612"><ele>257.0</ele><time>2026-04-12T08:03:36.876Z</time></trkpt><trkpt lat="42.5918088" lon="12.1766839"><ele>257.0</ele><time>2026-04-12T08:03:37.877Z</time></trkpt><trkpt lat="42.5918009" lon="12.1767923"><ele>257.0</ele><time>2026-04-12T08:03:38.891Z</time></trkpt><trkpt lat="42.591791" lon="12.1769428"><ele>256.83333333333337</ele><time>2026-04-12T08:03:40.889Z</time></trkpt><trkpt lat="42.5917106" lon="12.1770392"><ele>256.6666666666667</ele><time>2026-04-12T08:03:42.886Z</time></trkpt><trkpt lat="42.5916442" lon="12.1770302"><ele>256.5</ele><time>2026-04-12T08:03:43.888Z</time></trkpt><trkpt lat="42.5915831" lon="12.1770076"><ele>256.3333333333333</ele><time>2026-04-12T08:03:44.885Z</time></trkpt><trkpt lat="42.591475" lon="12.1769426"><ele>256.16666666666663</ele><time>2026-04-12T08:03:46.886Z</time></trkpt><trkpt lat="42.5914141" lon="12.1769082"><ele>256.0</ele><time>2026-04-12T08:03:47.88Z</time></trkpt><trkpt lat="42.5913545" lon="12.1768767"><ele>256.0</ele><time>2026-04-12T08:03:48.888Z</time></trkpt><trkpt lat="42.5913028" lon="12.1768239"><ele>256.0</ele><time>2026-04-12T08:03:49.89Z</time></trkpt><trkpt lat="42.5912385" lon="12.1766933"><ele>256.0</ele><time>2026-04-12T08:03:51.882Z</time></trkpt><trkpt lat="42.5911445" lon="12.176639"><ele>256.0</ele><time>2026-04-12T08:03:53.883Z</time></trkpt><trkpt lat="42.5910624" lon="12.1766958"><ele>256.0</ele><time>2026-04-12T08:03:55.873Z</time></trkpt><trkpt lat="42.5910364" lon="12.1768413"><ele>252.85714285714283</ele><time>2026-04-12T08:03:57.874Z</time></trkpt><trkpt lat="42.5910598" lon="12.1769227"><ele>249.7142857142857</ele><time>2026-04-12T08:03:58.88Z</time></trkpt><trkpt lat="42.5910847" lon="12.1770097"><ele>246.57142857142856</ele><time>2026-04-12T08:03:59.871Z</time></trkpt><trkpt lat="42.5911049" lon="12.177098"><ele>243.42857142857144</ele><time>2026-04-12T08:04:00.884Z</time></trkpt><trkpt lat="42.5911111" lon="12.1771929"><ele>240.2857142857143</ele><time>2026-04-12T08:04:01.875Z</time></trkpt><trkpt lat="42.5911068" lon="12.1772883"><ele>237.14285714285717</ele><time>2026-04-12T08:04:02.886Z</time></trkpt><trkpt lat="42.591092" lon="12.1773853"><ele>234.0</ele><time>2026-04-12T08:04:03.885Z</time></trkpt><trkpt lat="42.5910553" lon="12.1774772"><ele>234.0</ele><time>2026-04-12T08:04:04.913Z</time></trkpt><trkpt lat="42.5910189" lon="12.1775815"><ele>234.0</ele><time>2026-04-12T08:04:05.899Z</time></trkpt><trkpt lat="42.5909842" lon="12.1776968"><ele>234.0</ele><time>2026-04-12T08:04:06.883Z</time></trkpt><trkpt lat="42.590957" lon="12.1778045"><ele>234.0</ele><time>2026-04-12T08:04:07.894Z</time></trkpt><trkpt lat="42.5909327" lon="12.1779143"><ele>234.0</ele><time>2026-04-12T08:04:08.88Z</time></trkpt><trkpt lat="42.5909038" lon="12.1780182"><ele>234.0</ele><time>2026-04-12T08:04:09.881Z</time></trkpt><trkpt lat="42.5908688" lon="12.178133"><ele>234.39999999999998</ele><time>2026-04-12T08:04:10.891Z</time></trkpt><trkpt lat="42.5908384" lon="12.1782449"><ele>234.79999999999998</ele><time>2026-04-12T08:04:11.88Z</time></trkpt><trkpt lat="42.5907783" lon="12.1783638"><ele>235.20000000000002</ele><time>2026-04-12T08:04:13.879Z</time></trkpt><trkpt lat="42.5906658" lon="12.1783792"><ele>235.60000000000002</ele><time>2026-04-12T08:04:15.891Z</time></trkpt><trkpt lat="42.5906052" lon="12.1783382"><ele>236.0</ele><time>2026-04-12T08:04:16.888Z</time></trkpt><trkpt lat="42.5905257" lon="12.1783042"><ele>236.00000000000003</ele><time>2026-04-12T08:04:17.884Z</time></trkpt><trkpt lat="42.5904553" lon="12.1782685"><ele>236.0</ele><time>2026-04-12T08:04:18.88Z</time></trkpt><trkpt lat="42.5903767" lon="12.1782441"><ele>236.0</ele><time>2026-04-12T08:04:19.886Z</time></trkpt><trkpt lat="42.5902955" lon="12.1782418"><ele>236.0</ele><time>2026-04-12T08:04:20.883Z</time></trkpt><trkpt lat="42.5902165" lon="12.1782617"><ele>236.00000000000003</ele><time>2026-04-12T08:04:21.883Z</time></trkpt><trkpt lat="42.5901243" lon="12.1782968"><ele>236.0</ele><time>2026-04-12T08:04:22.888Z</time></trkpt><trkpt lat="42.5900215" lon="12.1783288"><ele>232.5</ele><time>2026-04-12T08:04:23.889Z</time></trkpt><trkpt lat="42.5899088" lon="12.1783626"><ele>229.0</ele><time>2026-04-12T08:04:24.895Z</time></trkpt><trkpt lat="42.5897912" lon="12.178391"><ele>225.5</ele><time>2026-04-12T08:04:25.887Z</time></trkpt><trkpt lat="42.5896629" lon="12.1784214"><ele>222.0</ele><time>2026-04-12T08:04:26.888Z</time></trkpt><trkpt lat="42.5895369" lon="12.1784527"><ele>222.25</ele><time>2026-04-12T08:04:27.885Z</time></trkpt><trkpt lat="42.5894031" lon="12.1784855"><ele>222.5</ele><time>2026-04-12T08:04:28.888Z</time></trkpt><trkpt lat="42.5892791" lon="12.1785119"><ele>222.75</ele><time>2026-04-12T08:04:29.878Z</time></trkpt><trkpt lat="42.5891674" lon="12.1785405"><ele>223.0</ele><time>2026-04-12T08:04:30.889Z</time></trkpt><trkpt lat="42.5890696" lon="12.17856"><ele>222.99999999999997</ele><time>2026-04-12T08:04:31.889Z</time></trkpt><trkpt lat="42.5889823" lon="12.1785855"><ele>223.0</ele><time>2026-04-12T08:04:32.877Z</time></trkpt><trkpt lat="42.5889096" lon="12.1786368"><ele>223.0</ele><time>2026-04-12T08:04:33.88Z</time></trkpt><trkpt lat="42.5888624" lon="12.1787176"><ele>223.0</ele><time>2026-04-12T08:04:34.885Z</time></trkpt><trkpt lat="42.5888378" lon="12.1788071"><ele>222.99999999999997</ele><time>2026-04-12T08:04:35.875Z</time></trkpt><trkpt lat="42.588841" lon="12.1789084"><ele>223.0</ele><time>2026-04-12T08:04:36.878Z</time></trkpt><trkpt lat="42.5888655" lon="12.1790168"><ele>223.8</ele><time>2026-04-12T08:04:37.878Z</time></trkpt><trkpt lat="42.588899" lon="12.1791377"><ele>224.60000000000002</ele><time>2026-04-12T08:04:38.884Z</time></trkpt><trkpt lat="42.5889414" lon="12.1792619"><ele>225.39999999999998</ele><time>2026-04-12T08:04:39.883Z</time></trkpt><trkpt lat="42.5889924" lon="12.1794035"><ele>226.2</ele><time>2026-04-12T08:04:40.882Z</time></trkpt><trkpt lat="42.5890399" lon="12.1795504"><ele>227.0</ele><time>2026-04-12T08:04:41.876Z</time></trkpt><trkpt lat="42.5890834" lon="12.1797065"><ele>231.25</ele><time>2026-04-12T08:04:42.904Z</time></trkpt><trkpt lat="42.5891126" lon="12.1798582"><ele>235.5</ele><time>2026-04-12T08:04:43.877Z</time></trkpt><trkpt lat="42.5891356" lon="12.1800033"><ele>239.75</ele><time>2026-04-12T08:04:44.882Z</time></trkpt><trkpt lat="42.5891614" lon="12.180153"><ele>244.0</ele><time>2026-04-12T08:04:45.889Z</time></trkpt><trkpt lat="42.5891845" lon="12.1803121"><ele>244.0</ele><time>2026-04-12T08:04:46.887Z</time></trkpt><trkpt lat="42.5892111" lon="12.18045"><ele>243.99999999999997</ele><time>2026-04-12T08:04:47.88Z</time></trkpt><trkpt lat="42.5892523" lon="12.1805792"><ele>243.99999999999997</ele><time>2026-04-12T08:04:48.889Z</time></trkpt><trkpt lat="42.5893118" lon="12.1806927"><ele>244.0</ele><time>2026-04-12T08:04:49.891Z</time></trkpt><trkpt lat="42.5893845" lon="12.1807958"><ele>244.0</ele><time>2026-04-12T08:04:50.883Z</time></trkpt><trkpt lat="42.5894718" lon="12.1808922"><ele>240.0</ele><time>2026-04-12T08:04:51.891Z</time></trkpt><trkpt lat="42.5895766" lon="12.1809833"><ele>236.0</ele><time>2026-04-12T08:04:52.889Z</time></trkpt><trkpt lat="42.5896697" lon="12.1810875"><ele>232.0</ele><time>2026-04-12T08:04:53.892Z</time></trkpt><trkpt lat="42.5897594" lon="12.1812137"><ele>228.0</ele><time>2026-04-12T08:04:54.896Z</time></trkpt><trkpt lat="42.5898307" lon="12.181347"><ele>228.0</ele><time>2026-04-12T08:04:55.889Z</time></trkpt><trkpt lat="42.5898881" lon="12.1814886"><ele>228.0</ele><time>2026-04-12T08:04:56.9Z</time></trkpt><trkpt lat="42.5899275" lon="12.1816397"><ele>228.0</ele><time>2026-04-12T08:04:57.885Z</time></trkpt><trkpt lat="42.5899648" lon="12.1817862"><ele>228.0</ele><time>2026-04-12T08:04:58.891Z</time></trkpt><trkpt lat="42.589994" lon="12.1819046"><ele>228.0</ele><time>2026-04-12T08:04:59.889Z</time></trkpt><trkpt lat="42.5900119" lon="12.1819931"><ele>231.60000000000002</ele><time>2026-04-12T08:05:00.888Z</time></trkpt><trkpt lat="42.5900565" lon="12.1821493"><ele>235.20000000000002</ele><time>2026-04-12T08:05:02.902Z</time></trkpt><trkpt lat="42.5900846" lon="12.18231"><ele>238.8</ele><time>2026-04-12T08:05:04.89Z</time></trkpt><trkpt lat="42.5900867" lon="12.1823968"><ele>242.4</ele><time>2026-04-12T08:05:05.896Z</time></trkpt><trkpt lat="42.5900836" lon="12.1825508"><ele>246.0</ele><time>2026-04-12T08:05:07.898Z</time></trkpt><trkpt lat="42.5900847" lon="12.1827081"><ele>247.42857142857144</ele><time>2026-04-12T08:05:09.883Z</time></trkpt><trkpt lat="42.5900772" lon="12.1827938"><ele>248.85714285714286</ele><time>2026-04-12T08:05:10.883Z</time></trkpt><trkpt lat="42.5900694" lon="12.1828802"><ele>250.28571428571428</ele><time>2026-04-12T08:05:11.886Z</time></trkpt><trkpt lat="42.5900466" lon="12.1829701"><ele>251.71428571428572</ele><time>2026-04-12T08:05:12.88Z</time></trkpt><trkpt lat="42.5900145" lon="12.1830445"><ele>253.1428571428571</ele><time>2026-04-12T08:05:13.888Z</time></trkpt><trkpt lat="42.5899728" lon="12.1831132"><ele>254.57142857142856</ele><time>2026-04-12T08:05:14.879Z</time></trkpt><trkpt lat="42.5899175" lon="12.183186"><ele>256.0</ele><time>2026-04-12T08:05:15.874Z</time></trkpt><trkpt lat="42.5898642" lon="12.1832633"><ele>256.8333333333333</ele><time>2026-04-12T08:05:16.886Z</time></trkpt><trkpt lat="42.5898142" lon="12.1833231"><ele>257.66666666666663</ele><time>2026-04-12T08:05:17.884Z</time></trkpt><trkpt lat="42.5897556" lon="12.1833908"><ele>258.5</ele><time>2026-04-12T08:05:19.876Z</time></trkpt><trkpt lat="42.589712" lon="12.1834651"><ele>259.3333333333333</ele><time>2026-04-12T08:05:23.883Z</time></trkpt><trkpt lat="42.5897724" lon="12.1836012"><ele>260.1666666666667</ele><time>2026-04-12T08:05:25.882Z</time></trkpt><trkpt lat="42.589819" lon="12.1836794"><ele>261.0</ele><time>2026-04-12T08:05:26.879Z</time></trkpt><trkpt lat="42.589871" lon="12.1837877"><ele>261.0</ele><time>2026-04-12T08:05:27.883Z</time></trkpt><trkpt lat="42.5899309" lon="12.1839006"><ele>261.0</ele><time>2026-04-12T08:05:28.885Z</time></trkpt><trkpt lat="42.5900083" lon="12.1840229"><ele>261.0</ele><time>2026-04-12T08:05:29.883Z</time></trkpt><trkpt lat="42.5900997" lon="12.1841379"><ele>261.0</ele><time>2026-04-12T08:05:30.883Z</time></trkpt><trkpt lat="42.5901947" lon="12.1842715"><ele>262.0</ele><time>2026-04-12T08:05:31.889Z</time></trkpt><trkpt lat="42.5902762" lon="12.1844005"><ele>263.0</ele><time>2026-04-12T08:05:32.891Z</time></trkpt><trkpt lat="42.590353" lon="12.1845377"><ele>264.0</ele><time>2026-04-12T08:05:33.897Z</time></trkpt><trkpt lat="42.5904259" lon="12.1846887"><ele>265.0</ele><time>2026-04-12T08:05:34.89Z</time></trkpt><trkpt lat="42.5904925" lon="12.1848369"><ele>263.75</ele><time>2026-04-12T08:05:35.879Z</time></trkpt><trkpt lat="42.5905637" lon="12.1849888"><ele>262.5</ele><time>2026-04-12T08:05:36.899Z</time></trkpt><trkpt lat="42.5906393" lon="12.1851354"><ele>261.25</ele><time>2026-04-12T08:05:37.879Z</time></trkpt><trkpt lat="42.5907126" lon="12.1852918"><ele>260.0</ele><time>2026-04-12T08:05:38.885Z</time></trkpt><trkpt lat="42.5907868" lon="12.1854469"><ele>260.0</ele><time>2026-04-12T08:05:39.883Z</time></trkpt><trkpt lat="42.5908542" lon="12.1856112"><ele>260.0</ele><time>2026-04-12T08:05:40.885Z</time></trkpt><trkpt lat="42.5909019" lon="12.1857882"><ele>260.0</ele><time>2026-04-12T08:05:41.89Z</time></trkpt><trkpt lat="42.5909293" lon="12.1859808"><ele>260.0</ele><time>2026-04-12T08:05:42.89Z</time></trkpt><trkpt lat="42.5909526" lon="12.1861774"><ele>258.25</ele><time>2026-04-12T08:05:43.879Z</time></trkpt><trkpt lat="42.5909739" lon="12.1863748"><ele>256.5</ele><time>2026-04-12T08:05:44.889Z</time></trkpt><trkpt lat="42.5910004" lon="12.1865753"><ele>254.75</ele><time>2026-04-12T08:05:45.889Z</time></trkpt><trkpt lat="42.5910321" lon="12.1867751"><ele>253.0</ele><time>2026-04-12T08:05:46.88Z</time></trkpt><trkpt lat="42.5910734" lon="12.1869711"><ele>251.66666666666666</ele><time>2026-04-12T08:05:47.873Z</time></trkpt><trkpt lat="42.591125" lon="12.1871686"><ele>250.33333333333331</ele><time>2026-04-12T08:05:48.874Z</time></trkpt><trkpt lat="42.5911852" lon="12.1873606"><ele>249.0</ele><time>2026-04-12T08:05:49.873Z</time></trkpt><trkpt lat="42.5912446" lon="12.1875503"><ele>254.0</ele><time>2026-04-12T08:05:50.889Z</time></trkpt><trkpt lat="42.5913059" lon="12.1877507"><ele>259.0</ele><time>2026-04-12T08:05:51.881Z</time></trkpt><trkpt lat="42.5913638" lon="12.1879587"><ele>264.0</ele><time>2026-04-12T08:05:52.884Z</time></trkpt><trkpt lat="42.5914156" lon="12.1881702"><ele>262.6666666666667</ele><time>2026-04-12T08:05:53.875Z</time></trkpt><trkpt lat="42.591452" lon="12.1883821"><ele>261.33333333333337</ele><time>2026-04-12T08:05:54.889Z</time></trkpt><trkpt lat="42.5914601" lon="12.188604"><ele>260.0</ele><time>2026-04-12T08:05:55.89Z</time></trkpt><trkpt lat="42.5914696" lon="12.1888266"><ele>259.6666666666667</ele><time>2026-04-12T08:05:56.879Z</time></trkpt><trkpt lat="42.591479" lon="12.1890504"><ele>259.3333333333333</ele><time>2026-04-12T08:05:57.893Z</time></trkpt><trkpt lat="42.5914977" lon="12.1892762"><ele>259.0</ele><time>2026-04-12T08:05:58.866Z</time></trkpt><trkpt lat="42.5915243" lon="12.1894991"><ele>259.0</ele><time>2026-04-12T08:05:59.889Z</time></trkpt><trkpt lat="42.5915548" lon="12.189717"><ele>259.0</ele><time>2026-04-12T08:06:00.885Z</time></trkpt><trkpt lat="42.591586" lon="12.1899315"><ele>259.0</ele><time>2026-04-12T08:06:01.882Z</time></trkpt><trkpt lat="42.5916196" lon="12.1901516"><ele>258.3333333333333</ele><time>2026-04-12T08:06:02.884Z</time></trkpt><trkpt lat="42.5916513" lon="12.1903662"><ele>257.6666666666667</ele><time>2026-04-12T08:06:03.874Z</time></trkpt><trkpt lat="42.5916712" lon="12.1905767"><ele>257.0</ele><time>2026-04-12T08:06:04.889Z</time></trkpt><trkpt lat="42.5916895" lon="12.1907995"><ele>257.0</ele><time>2026-04-12T08:06:05.888Z</time></trkpt><trkpt lat="42.5917011" lon="12.1910319"><ele>257.0</ele><time>2026-04-12T08:06:06.89Z</time></trkpt><trkpt lat="42.591711" lon="12.1912694"><ele>257.0</ele><time>2026-04-12T08:06:07.88Z</time></trkpt><trkpt lat="42.5917135" lon="12.1915161"><ele>255.33333333333334</ele><time>2026-04-12T08:06:08.879Z</time></trkpt><trkpt lat="42.5917133" lon="12.1917564"><ele>253.66666666666669</ele><time>2026-04-12T08:06:09.884Z</time></trkpt><trkpt lat="42.5917135" lon="12.1919908"><ele>252.0</ele><time>2026-04-12T08:06:10.877Z</time></trkpt><trkpt lat="42.5917097" lon="12.192227"><ele>250.0</ele><time>2026-04-12T08:06:11.889Z</time></trkpt><trkpt lat="42.5917003" lon="12.1924677"><ele>248.0</ele><time>2026-04-12T08:06:12.895Z</time></trkpt><trkpt lat="42.5916858" lon="12.1927048"><ele>246.0</ele><time>2026-04-12T08:06:13.89Z</time></trkpt><trkpt lat="42.5916653" lon="12.1929404"><ele>246.0</ele><time>2026-04-12T08:06:14.889Z</time></trkpt><trkpt lat="42.5916325" lon="12.1931711"><ele>246.0</ele><time>2026-04-12T08:06:15.884Z</time></trkpt><trkpt lat="42.5915954" lon="12.1934017"><ele>246.0</ele><time>2026-04-12T08:06:16.881Z</time></trkpt><trkpt lat="42.5915568" lon="12.1936265"><ele>245.5</ele><time>2026-04-12T08:06:17.896Z</time></trkpt><trkpt lat="42.5915162" lon="12.1938321"><ele>245.0</ele><time>2026-04-12T08:06:18.887Z</time></trkpt><trkpt lat="42.5914843" lon="12.1940307"><ele>244.5</ele><time>2026-04-12T08:06:19.873Z</time></trkpt><trkpt lat="42.5914634" lon="12.1942149"><ele>244.0</ele><time>2026-04-12T08:06:20.885Z</time></trkpt><trkpt lat="42.591452" lon="12.1943894"><ele>243.83333333333331</ele><time>2026-04-12T08:06:21.885Z</time></trkpt><trkpt lat="42.5914481" lon="12.1945427"><ele>243.66666666666666</ele><time>2026-04-12T08:06:22.891Z</time></trkpt><trkpt lat="42.591448" lon="12.1946746"><ele>243.5</ele><time>2026-04-12T08:06:23.895Z</time></trkpt><trkpt lat="42.5914641" lon="12.1947854"><ele>243.33333333333331</ele><time>2026-04-12T08:06:24.885Z</time></trkpt><trkpt lat="42.5914898" lon="12.1948801"><ele>243.16666666666666</ele><time>2026-04-12T08:06:25.885Z</time></trkpt><trkpt lat="42.5915171" lon="12.1949676"><ele>243.0</ele><time>2026-04-12T08:06:26.884Z</time></trkpt><trkpt lat="42.5915419" lon="12.1951247"><ele>243.0</ele><time>2026-04-12T08:06:28.882Z</time></trkpt><trkpt lat="42.5915482" lon="12.1952105"><ele>243.0</ele><time>2026-04-12T08:06:29.88Z</time></trkpt><trkpt lat="42.5915486" lon="12.1953122"><ele>243.0</ele><time>2026-04-12T08:06:30.881Z</time></trkpt><trkpt lat="42.5915465" lon="12.1954151"><ele>243.0</ele><time>2026-04-12T08:06:31.89Z</time></trkpt><trkpt lat="42.5915452" lon="12.1955266"><ele>243.0</ele><time>2026-04-12T08:06:32.898Z</time></trkpt><trkpt lat="42.5915535" lon="12.1956404"><ele>243.0</ele><time>2026-04-12T08:06:33.882Z</time></trkpt><trkpt lat="42.5915555" lon="12.1957527"><ele>243.66666666666666</ele><time>2026-04-12T08:06:34.904Z</time></trkpt><trkpt lat="42.5915628" lon="12.1958611"><ele>244.33333333333331</ele><time>2026-04-12T08:06:35.906Z</time></trkpt><trkpt lat="42.5915638" lon="12.1959652"><ele>245.0</ele><time>2026-04-12T08:06:36.903Z</time></trkpt><trkpt lat="42.5915542" lon="12.196082"><ele>245.66666666666666</ele><time>2026-04-12T08:06:37.898Z</time></trkpt><trkpt lat="42.5915489" lon="12.1962067"><ele>246.33333333333331</ele><time>2026-04-12T08:06:38.897Z</time></trkpt><trkpt lat="42.5915426" lon="12.196341"><ele>247.0</ele><time>2026-04-12T08:06:39.876Z</time></trkpt><trkpt lat="42.591532" lon="12.1964652"><ele>247.83333333333331</ele><time>2026-04-12T08:06:40.882Z</time></trkpt><trkpt lat="42.5915204" lon="12.1965866"><ele>248.66666666666666</ele><time>2026-04-12T08:06:41.882Z</time></trkpt><trkpt lat="42.5915097" lon="12.196706"><ele>249.5</ele><time>2026-04-12T08:06:42.896Z</time></trkpt><trkpt lat="42.5915071" lon="12.1968179"><ele>250.33333333333331</ele><time>2026-04-12T08:06:43.894Z</time></trkpt><trkpt lat="42.5915153" lon="12.1969225"><ele>251.16666666666666</ele><time>2026-04-12T08:06:44.889Z</time></trkpt><trkpt lat="42.5915363" lon="12.1970267"><ele>252.0</ele><time>2026-04-12T08:06:45.872Z</time></trkpt><trkpt lat="42.591564" lon="12.1971289"><ele>252.0</ele><time>2026-04-12T08:06:46.881Z</time></trkpt><trkpt lat="42.5916043" lon="12.1972295"><ele>252.0</ele><time>2026-04-12T08:06:47.875Z</time></trkpt><trkpt lat="42.5916399" lon="12.1973312"><ele>252.0</ele><time>2026-04-12T08:06:48.883Z</time></trkpt><trkpt lat="42.5916709" lon="12.1974383"><ele>252.0</ele><time>2026-04-12T08:06:49.886Z</time></trkpt><trkpt lat="42.5917101" lon="12.1975509"><ele>252.0</ele><time>2026-04-12T08:06:50.883Z</time></trkpt><trkpt lat="42.5917543" lon="12.1976676"><ele>252.0</ele><time>2026-04-12T08:06:51.879Z</time></trkpt><trkpt lat="42.5917942" lon="12.1977866"><ele>252.0</ele><time>2026-04-12T08:06:52.882Z</time></trkpt><trkpt lat="42.5918392" lon="12.1979067"><ele>252.0</ele><time>2026-04-12T08:06:53.892Z</time></trkpt><trkpt lat="42.5918844" lon="12.1980287"><ele>252.0</ele><time>2026-04-12T08:06:54.883Z</time></trkpt><trkpt lat="42.5919302" lon="12.1981466"><ele>252.0</ele><time>2026-04-12T08:06:55.88Z</time></trkpt><trkpt lat="42.5919758" lon="12.1982624"><ele>252.0</ele><time>2026-04-12T08:06:56.884Z</time></trkpt><trkpt lat="42.5920283" lon="12.1983947"><ele>251.0</ele><time>2026-04-12T08:06:57.885Z</time></trkpt><trkpt lat="42.592079" lon="12.1985349"><ele>250.0</ele><time>2026-04-12T08:06:58.886Z</time></trkpt><trkpt lat="42.5921322" lon="12.1986864"><ele>249.0</ele><time>2026-04-12T08:06:59.878Z</time></trkpt><trkpt lat="42.5921712" lon="12.1988414"><ele>248.0</ele><time>2026-04-12T08:07:00.889Z</time></trkpt><trkpt lat="42.5922035" lon="12.1990105"><ele>246.75</ele><time>2026-04-12T08:07:01.887Z</time></trkpt><trkpt lat="42.5922269" lon="12.1991756"><ele>245.5</ele><time>2026-04-12T08:07:02.887Z</time></trkpt><trkpt lat="42.592251" lon="12.1993481"><ele>244.25</ele><time>2026-04-12T08:07:03.873Z</time></trkpt><trkpt lat="42.5922714" lon="12.199514"><ele>243.0</ele><time>2026-04-12T08:07:04.879Z</time></trkpt><trkpt lat="42.5922861" lon="12.1996721"><ele>243.0</ele><time>2026-04-12T08:07:05.896Z</time></trkpt><trkpt lat="42.5923008" lon="12.1998214"><ele>243.0</ele><time>2026-04-12T08:07:06.887Z</time></trkpt><trkpt lat="42.5923078" lon="12.1999626"><ele>243.0</ele><time>2026-04-12T08:07:07.878Z</time></trkpt><trkpt lat="42.5923068" lon="12.2000984"><ele>243.0</ele><time>2026-04-12T08:07:08.886Z</time></trkpt><trkpt lat="42.5923033" lon="12.2002384"><ele>243.0</ele><time>2026-04-12T08:07:09.893Z</time></trkpt><trkpt lat="42.592301" lon="12.2003825"><ele>242.5</ele><time>2026-04-12T08:07:10.879Z</time></trkpt><trkpt lat="42.5922942" lon="12.2005284"><ele>242.0</ele><time>2026-04-12T08:07:11.882Z</time></trkpt><trkpt lat="42.5922867" lon="12.2006852"><ele>241.5</ele><time>2026-04-12T08:07:12.89Z</time></trkpt><trkpt lat="42.592284" lon="12.2008382"><ele>241.0</ele><time>2026-04-12T08:07:13.881Z</time></trkpt><trkpt lat="42.592287" lon="12.2009953"><ele>240.60000000000002</ele><time>2026-04-12T08:07:14.894Z</time></trkpt><trkpt lat="42.5922904" lon="12.2011559"><ele>240.20000000000002</ele><time>2026-04-12T08:07:15.877Z</time></trkpt><trkpt lat="42.592301" lon="12.2013047"><ele>239.79999999999998</ele><time>2026-04-12T08:07:16.879Z</time></trkpt><trkpt lat="42.5923061" lon="12.201448"><ele>239.39999999999998</ele><time>2026-04-12T08:07:17.888Z</time></trkpt><trkpt lat="42.5923104" lon="12.201592"><ele>239.0</ele><time>2026-04-12T08:07:18.882Z</time></trkpt><trkpt lat="42.5923173" lon="12.201739"><ele>238.2</ele><time>2026-04-12T08:07:19.89Z</time></trkpt><trkpt lat="42.5923225" lon="12.2018927"><ele>237.39999999999998</ele><time>2026-04-12T08:07:20.89Z</time></trkpt><trkpt lat="42.5923256" lon="12.2020472"><ele>236.6</ele><time>2026-04-12T08:07:21.891Z</time></trkpt><trkpt lat="42.5923332" lon="12.202199"><ele>235.8</ele><time>2026-04-12T08:07:22.883Z</time></trkpt><trkpt lat="42.5923424" lon="12.2023462"><ele>235.0</ele><time>2026-04-12T08:07:23.884Z</time></trkpt><trkpt lat="42.5923423" lon="12.2024845"><ele>234.4</ele><time>2026-04-12T08:07:24.881Z</time></trkpt><trkpt lat="42.5923482" lon="12.2026165"><ele>233.8</ele><time>2026-04-12T08:07:25.889Z</time></trkpt><trkpt lat="42.5923504" lon="12.2027482"><ele>233.2</ele><time>2026-04-12T08:07:26.876Z</time></trkpt><trkpt lat="42.5923517" lon="12.202882"><ele>232.6</ele><time>2026-04-12T08:07:27.877Z</time></trkpt><trkpt lat="42.5923576" lon="12.2030133"><ele>232.0</ele><time>2026-04-12T08:07:28.875Z</time></trkpt><trkpt lat="42.5923659" lon="12.2031376"><ele>231.39999999999998</ele><time>2026-04-12T08:07:29.888Z</time></trkpt><trkpt lat="42.5923719" lon="12.203261"><ele>230.79999999999998</ele><time>2026-04-12T08:07:30.868Z</time></trkpt><trkpt lat="42.5923752" lon="12.2033888"><ele>230.2</ele><time>2026-04-12T08:07:31.894Z</time></trkpt><trkpt lat="42.5923742" lon="12.2035178"><ele>229.6</ele><time>2026-04-12T08:07:32.897Z</time></trkpt><trkpt lat="42.5923654" lon="12.2036394"><ele>229.0</ele><time>2026-04-12T08:07:33.881Z</time></trkpt><trkpt lat="42.5923591" lon="12.2037644"><ele>229.0</ele><time>2026-04-12T08:07:34.887Z</time></trkpt><trkpt lat="42.5923599" lon="12.2038916"><ele>228.99999999999997</ele><time>2026-04-12T08:07:35.887Z</time></trkpt><trkpt lat="42.5923652" lon="12.2040265"><ele>228.99999999999997</ele><time>2026-04-12T08:07:36.896Z</time></trkpt><trkpt lat="42.592373" lon="12.2041693"><ele>229.0</ele><time>2026-04-12T08:07:37.886Z</time></trkpt><trkpt lat="42.5923813" lon="12.2043148"><ele>229.0</ele><time>2026-04-12T08:07:38.877Z</time></trkpt><trkpt lat="42.5923981" lon="12.2044532"><ele>228.39999999999998</ele><time>2026-04-12T08:07:39.879Z</time></trkpt><trkpt lat="42.5924264" lon="12.2045751"><ele>227.79999999999998</ele><time>2026-04-12T08:07:40.889Z</time></trkpt><trkpt lat="42.5924587" lon="12.2046958"><ele>227.20000000000002</ele><time>2026-04-12T08:07:41.881Z</time></trkpt><trkpt lat="42.592492" lon="12.2048215"><ele>226.60000000000002</ele><time>2026-04-12T08:07:42.888Z</time></trkpt><trkpt lat="42.5925208" lon="12.2049418"><ele>226.0</ele><time>2026-04-12T08:07:43.881Z</time></trkpt><trkpt lat="42.5925359" lon="12.2050646"><ele>225.0</ele><time>2026-04-12T08:07:44.889Z</time></trkpt><trkpt lat="42.5925357" lon="12.2052019"><ele>224.00000000000003</ele><time>2026-04-12T08:07:45.896Z</time></trkpt><trkpt lat="42.5925282" lon="12.2053342"><ele>223.00000000000003</ele><time>2026-04-12T08:07:46.896Z</time></trkpt><trkpt lat="42.5925204" lon="12.2054663"><ele>222.0</ele><time>2026-04-12T08:07:47.885Z</time></trkpt><trkpt lat="42.5924986" lon="12.2055942"><ele>221.0</ele><time>2026-04-12T08:07:48.88Z</time></trkpt><trkpt lat="42.5924693" lon="12.2057276"><ele>220.75</ele><time>2026-04-12T08:07:49.882Z</time></trkpt><trkpt lat="42.5924229" lon="12.2058538"><ele>220.5</ele><time>2026-04-12T08:07:50.885Z</time></trkpt><trkpt lat="42.5923621" lon="12.20598"><ele>220.25</ele><time>2026-04-12T08:07:51.897Z</time></trkpt><trkpt lat="42.5922955" lon="12.2061124"><ele>220.0</ele><time>2026-04-12T08:07:52.889Z</time></trkpt><trkpt lat="42.5922245" lon="12.2062439"><ele>220.0</ele><time>2026-04-12T08:07:53.896Z</time></trkpt><trkpt lat="42.5921578" lon="12.2063648"><ele>220.0</ele><time>2026-04-12T08:07:54.888Z</time></trkpt><trkpt lat="42.5920986" lon="12.2064764"><ele>220.0</ele><time>2026-04-12T08:07:55.882Z</time></trkpt><trkpt lat="42.5920434" lon="12.2065794"><ele>220.0</ele><time>2026-04-12T08:07:56.888Z</time></trkpt><trkpt lat="42.5919883" lon="12.2066747"><ele>220.0</ele><time>2026-04-12T08:07:57.881Z</time></trkpt><trkpt lat="42.5919465" lon="12.2067621"><ele>219.4</ele><time>2026-04-12T08:07:58.896Z</time></trkpt><trkpt lat="42.5919246" lon="12.2068563"><ele>218.8</ele><time>2026-04-12T08:07:59.884Z</time></trkpt><trkpt lat="42.591928" lon="12.206945"><ele>218.2</ele><time>2026-04-12T08:08:00.886Z</time></trkpt><trkpt lat="42.592005" lon="12.2071028"><ele>217.6</ele><time>2026-04-12T08:08:02.878Z</time></trkpt><trkpt lat="42.592077" lon="12.2071851"><ele>217.0</ele><time>2026-04-12T08:08:03.877Z</time></trkpt><trkpt lat="42.5921516" lon="12.2072854"><ele>215.75</ele><time>2026-04-12T08:08:04.9Z</time></trkpt><trkpt lat="42.5922361" lon="12.2074063"><ele>214.5</ele><time>2026-04-12T08:08:05.893Z</time></trkpt><trkpt lat="42.5923175" lon="12.2075346"><ele>213.25</ele><time>2026-04-12T08:08:06.887Z</time></trkpt><trkpt lat="42.5923963" lon="12.2076567"><ele>212.0</ele><time>2026-04-12T08:08:07.88Z</time></trkpt><trkpt lat="42.592472" lon="12.2077543"><ele>212.0</ele><time>2026-04-12T08:08:08.894Z</time></trkpt><trkpt lat="42.5925421" lon="12.2078567"><ele>212.0</ele><time>2026-04-12T08:08:09.878Z</time></trkpt><trkpt lat="42.5926084" lon="12.2079656"><ele>212.0</ele><time>2026-04-12T08:08:10.896Z</time></trkpt><trkpt lat="42.5926662" lon="12.2081026"><ele>212.0</ele><time>2026-04-12T08:08:11.878Z</time></trkpt><trkpt lat="42.5927019" lon="12.2082493"><ele>212.0</ele><time>2026-04-12T08:08:12.891Z</time></trkpt><trkpt lat="42.5927246" lon="12.2084082"><ele>210.5</ele><time>2026-04-12T08:08:13.883Z</time></trkpt><trkpt lat="42.5927363" lon="12.2085608"><ele>209.0</ele><time>2026-04-12T08:08:14.886Z</time></trkpt><trkpt lat="42.5927349" lon="12.2087157"><ele>207.5</ele><time>2026-04-12T08:08:15.883Z</time></trkpt><trkpt lat="42.5927171" lon="12.2088737"><ele>206.0</ele><time>2026-04-12T08:08:16.886Z</time></trkpt><trkpt lat="42.5926857" lon="12.2090426"><ele>205.5</ele><time>2026-04-12T08:08:17.888Z</time></trkpt><trkpt lat="42.5926495" lon="12.2092132"><ele>205.0</ele><time>2026-04-12T08:08:18.887Z</time></trkpt><trkpt lat="42.5926103" lon="12.2093836"><ele>204.5</ele><time>2026-04-12T08:08:19.888Z</time></trkpt><trkpt lat="42.5925678" lon="12.2095607"><ele>204.0</ele><time>2026-04-12T08:08:20.884Z</time></trkpt><trkpt lat="42.5925234" lon="12.209736"><ele>203.75</ele><time>2026-04-12T08:08:21.882Z</time></trkpt><trkpt lat="42.592475" lon="12.2099008"><ele>203.5</ele><time>2026-04-12T08:08:22.886Z</time></trkpt><trkpt lat="42.5924302" lon="12.2100612"><ele>203.25</ele><time>2026-04-12T08:08:23.879Z</time></trkpt><trkpt lat="42.5923895" lon="12.2102042"><ele>203.0</ele><time>2026-04-12T08:08:24.891Z</time></trkpt><trkpt lat="42.5923538" lon="12.2103438"><ele>203.00000000000003</ele><time>2026-04-12T08:08:25.883Z</time></trkpt><trkpt lat="42.5923183" lon="12.2104674"><ele>203.0</ele><time>2026-04-12T08:08:26.888Z</time></trkpt><trkpt lat="42.5922879" lon="12.2105799"><ele>203.0</ele><time>2026-04-12T08:08:27.884Z</time></trkpt><trkpt lat="42.5922659" lon="12.2106829"><ele>203.0</ele><time>2026-04-12T08:08:28.897Z</time></trkpt><trkpt lat="42.5922652" lon="12.2107785"><ele>203.00000000000003</ele><time>2026-04-12T08:08:29.888Z</time></trkpt><trkpt lat="42.592282" lon="12.2108639"><ele>203.0</ele><time>2026-04-12T08:08:30.883Z</time></trkpt><trkpt lat="42.5923257" lon="12.2110081"><ele>203.0</ele><time>2026-04-12T08:08:32.885Z</time></trkpt><trkpt lat="42.5923696" lon="12.2111906"><ele>203.0</ele><time>2026-04-12T08:08:34.869Z</time></trkpt><trkpt lat="42.5923917" lon="12.2112971"><ele>203.0</ele><time>2026-04-12T08:08:35.89Z</time></trkpt><trkpt lat="42.592424" lon="12.2114255"><ele>203.0</ele><time>2026-04-12T08:08:36.884Z</time></trkpt><trkpt lat="42.5924622" lon="12.2115563"><ele>203.0</ele><time>2026-04-12T08:08:37.883Z</time></trkpt><trkpt lat="42.5925041" lon="12.2117029"><ele>202.75</ele><time>2026-04-12T08:08:38.876Z</time></trkpt><trkpt lat="42.5925408" lon="12.2118453"><ele>202.5</ele><time>2026-04-12T08:08:39.877Z</time></trkpt><trkpt lat="42.5925829" lon="12.2119922"><ele>202.25</ele><time>2026-04-12T08:08:40.885Z</time></trkpt><trkpt lat="42.5926241" lon="12.2121392"><ele>202.0</ele><time>2026-04-12T08:08:41.877Z</time></trkpt><trkpt lat="42.592662" lon="12.2122853"><ele>201.75</ele><time>2026-04-12T08:08:42.888Z</time></trkpt><trkpt lat="42.5927036" lon="12.2124286"><ele>201.5</ele><time>2026-04-12T08:08:43.889Z</time></trkpt><trkpt lat="42.5927459" lon="12.2125757"><ele>201.25</ele><time>2026-04-12T08:08:44.881Z</time></trkpt><trkpt lat="42.5927887" lon="12.2127306"><ele>201.0</ele><time>2026-04-12T08:08:45.898Z</time></trkpt><trkpt lat="42.5928258" lon="12.2128941"><ele>200.5</ele><time>2026-04-12T08:08:46.884Z</time></trkpt><trkpt lat="42.5928578" lon="12.2130567"><ele>200.0</ele><time>2026-04-12T08:08:47.884Z</time></trkpt><trkpt lat="42.5928793" lon="12.2132219"><ele>199.5</ele><time>2026-04-12T08:08:48.886Z</time></trkpt><trkpt lat="42.5928879" lon="12.2133865"><ele>199.0</ele><time>2026-04-12T08:08:49.892Z</time></trkpt><trkpt lat="42.5928902" lon="12.2135346"><ele>198.6</ele><time>2026-04-12T08:08:50.886Z</time></trkpt><trkpt lat="42.5928908" lon="12.2136843"><ele>198.2</ele><time>2026-04-12T08:08:51.886Z</time></trkpt><trkpt lat="42.5928883" lon="12.2138322"><ele>197.79999999999998</ele><time>2026-04-12T08:08:52.89Z</time></trkpt><trkpt lat="42.592889" lon="12.2139827"><ele>197.39999999999998</ele><time>2026-04-12T08:08:53.885Z</time></trkpt><trkpt lat="42.5928897" lon="12.214131"><ele>197.0</ele><time>2026-04-12T08:08:54.887Z</time></trkpt><trkpt lat="42.5928976" lon="12.2142941"><ele>195.75</ele><time>2026-04-12T08:08:55.883Z</time></trkpt><trkpt lat="42.5929204" lon="12.2144607"><ele>194.5</ele><time>2026-04-12T08:08:56.877Z</time></trkpt><trkpt lat="42.5929525" lon="12.2146409"><ele>193.25</ele><time>2026-04-12T08:08:57.891Z</time></trkpt><trkpt lat="42.592985" lon="12.2148304"><ele>192.0</ele><time>2026-04-12T08:08:58.883Z</time></trkpt><trkpt lat="42.5930168" lon="12.2150208"><ele>190.75</ele><time>2026-04-12T08:08:59.873Z</time></trkpt><trkpt lat="42.5930492" lon="12.2152036"><ele>189.5</ele><time>2026-04-12T08:09:00.877Z</time></trkpt><trkpt lat="42.593077" lon="12.2153706"><ele>188.25</ele><time>2026-04-12T08:09:01.895Z</time></trkpt><trkpt lat="42.5931064" lon="12.2155227"><ele>187.0</ele><time>2026-04-12T08:09:02.889Z</time></trkpt><trkpt lat="42.5931379" lon="12.2156636"><ele>185.8</ele><time>2026-04-12T08:09:03.877Z</time></trkpt><trkpt lat="42.5931699" lon="12.2157886"><ele>184.6</ele><time>2026-04-12T08:09:04.884Z</time></trkpt><trkpt lat="42.5932197" lon="12.2159052"><ele>183.4</ele><time>2026-04-12T08:09:05.877Z</time></trkpt><trkpt lat="42.5932725" lon="12.2160164"><ele>182.20000000000002</ele><time>2026-04-12T08:09:06.88Z</time></trkpt><trkpt lat="42.5933326" lon="12.2161194"><ele>181.0</ele><time>2026-04-12T08:09:07.879Z</time></trkpt><trkpt lat="42.5933969" lon="12.2162141"><ele>181.0</ele><time>2026-04-12T08:09:08.89Z</time></trkpt><trkpt lat="42.5934617" lon="12.2163127"><ele>181.0</ele><time>2026-04-12T08:09:09.891Z</time></trkpt><trkpt lat="42.5935255" lon="12.2164194"><ele>181.0</ele><time>2026-04-12T08:09:10.884Z</time></trkpt><trkpt lat="42.5935823" lon="12.2165425"><ele>181.0</ele><time>2026-04-12T08:09:11.886Z</time></trkpt><trkpt lat="42.5936241" lon="12.2166887"><ele>181.0</ele><time>2026-04-12T08:09:12.887Z</time></trkpt><trkpt lat="42.5936625" lon="12.2168503"><ele>178.25</ele><time>2026-04-12T08:09:13.884Z</time></trkpt><trkpt lat="42.5937009" lon="12.2170038"><ele>175.5</ele><time>2026-04-12T08:09:14.874Z</time></trkpt><trkpt lat="42.5937328" lon="12.2171553"><ele>172.75</ele><time>2026-04-12T08:09:15.89Z</time></trkpt><trkpt lat="42.5937687" lon="12.2173051"><ele>170.0</ele><time>2026-04-12T08:09:16.876Z</time></trkpt><trkpt lat="42.5938009" lon="12.2174556"><ele>168.4</ele><time>2026-04-12T08:09:17.875Z</time></trkpt><trkpt lat="42.593826" lon="12.217606"><ele>166.8</ele><time>2026-04-12T08:09:18.892Z</time></trkpt><trkpt lat="42.5938389" lon="12.2177506"><ele>165.2</ele><time>2026-04-12T08:09:19.889Z</time></trkpt><trkpt lat="42.5938483" lon="12.2178957"><ele>163.6</ele><time>2026-04-12T08:09:20.887Z</time></trkpt><trkpt lat="42.5938581" lon="12.2180345"><ele>162.0</ele><time>2026-04-12T08:09:21.881Z</time></trkpt><trkpt lat="42.5938788" lon="12.2181679"><ele>161.0</ele><time>2026-04-12T08:09:22.89Z</time></trkpt><trkpt lat="42.593933" lon="12.2183048"><ele>160.0</ele><time>2026-04-12T08:09:23.886Z</time></trkpt><trkpt lat="42.5939961" lon="12.2184541"><ele>159.0</ele><time>2026-04-12T08:09:24.883Z</time></trkpt><trkpt lat="42.5940594" lon="12.2186038"><ele>158.0</ele><time>2026-04-12T08:09:25.879Z</time></trkpt><trkpt lat="42.5941177" lon="12.2187459"><ele>158.0</ele><time>2026-04-12T08:09:26.877Z</time></trkpt><trkpt lat="42.5941564" lon="12.2188892"><ele>158.0</ele><time>2026-04-12T08:09:27.881Z</time></trkpt><trkpt lat="42.5941763" lon="12.2190386"><ele>158.0</ele><time>2026-04-12T08:09:28.88Z</time></trkpt><trkpt lat="42.5941648" lon="12.2191855"><ele>158.0</ele><time>2026-04-12T08:09:29.888Z</time></trkpt><trkpt lat="42.5941365" lon="12.2193376"><ele>158.0</ele><time>2026-04-12T08:09:30.886Z</time></trkpt><trkpt lat="42.5940947" lon="12.2194948"><ele>156.75</ele><time>2026-04-12T08:09:31.885Z</time></trkpt><trkpt lat="42.5940501" lon="12.2196496"><ele>155.5</ele><time>2026-04-12T08:09:32.891Z</time></trkpt><trkpt lat="42.5940247" lon="12.2197989"><ele>154.25</ele><time>2026-04-12T08:09:33.883Z</time></trkpt><trkpt lat="42.5939933" lon="12.2199394"><ele>153.0</ele><time>2026-04-12T08:09:34.892Z</time></trkpt><trkpt lat="42.5939725" lon="12.2200863"><ele>151.5</ele><time>2026-04-12T08:09:35.877Z</time></trkpt><trkpt lat="42.5939669" lon="12.2202433"><ele>150.0</ele><time>2026-04-12T08:09:36.89Z</time></trkpt><trkpt lat="42.5939788" lon="12.2204081"><ele>148.5</ele><time>2026-04-12T08:09:37.878Z</time></trkpt><trkpt lat="42.5939956" lon="12.2205774"><ele>147.0</ele><time>2026-04-12T08:09:38.874Z</time></trkpt><trkpt lat="42.5940244" lon="12.2207553"><ele>146.0</ele><time>2026-04-12T08:09:39.879Z</time></trkpt><trkpt lat="42.5940542" lon="12.2209432"><ele>145.0</ele><time>2026-04-12T08:09:40.88Z</time></trkpt><trkpt lat="42.5940866" lon="12.221122"><ele>144.0</ele><time>2026-04-12T08:09:41.882Z</time></trkpt><trkpt lat="42.5941239" lon="12.2213021"><ele>143.0</ele><time>2026-04-12T08:09:42.879Z</time></trkpt><trkpt lat="42.5941714" lon="12.2214878"><ele>142.25</ele><time>2026-04-12T08:09:43.879Z</time></trkpt><trkpt lat="42.5942213" lon="12.2216559"><ele>141.5</ele><time>2026-04-12T08:09:44.877Z</time></trkpt><trkpt lat="42.594278" lon="12.2218093"><ele>140.75</ele><time>2026-04-12T08:09:45.887Z</time></trkpt><trkpt lat="42.5943255" lon="12.2219568"><ele>140.0</ele><time>2026-04-12T08:09:46.882Z</time></trkpt><trkpt lat="42.5943685" lon="12.2220901"><ele>140.0</ele><time>2026-04-12T08:09:47.875Z</time></trkpt><trkpt lat="42.5944098" lon="12.2222152"><ele>140.0</ele><time>2026-04-12T08:09:48.9Z</time></trkpt><trkpt lat="42.594452" lon="12.2223303"><ele>140.0</ele><time>2026-04-12T08:09:49.888Z</time></trkpt><trkpt lat="42.5944864" lon="12.2224362"><ele>140.0</ele><time>2026-04-12T08:09:50.891Z</time></trkpt><trkpt lat="42.594515" lon="12.2225474"><ele>140.0</ele><time>2026-04-12T08:09:51.883Z</time></trkpt><trkpt lat="42.5945357" lon="12.2226665"><ele>140.0</ele><time>2026-04-12T08:09:52.887Z</time></trkpt><trkpt lat="42.594544" lon="12.222797"><ele>140.0</ele><time>2026-04-12T08:09:53.894Z</time></trkpt><trkpt lat="42.5945398" lon="12.2229315"><ele>140.0</ele><time>2026-04-12T08:09:54.883Z</time></trkpt><trkpt lat="42.5945351" lon="12.2230775"><ele>140.0</ele><time>2026-04-12T08:09:55.881Z</time></trkpt><trkpt lat="42.5945326" lon="12.2232334"><ele>140.0</ele><time>2026-04-12T08:09:56.882Z</time></trkpt><trkpt lat="42.5945308" lon="12.223399"><ele>140.25</ele><time>2026-04-12T08:09:57.895Z</time></trkpt><trkpt lat="42.5945217" lon="12.223574"><ele>140.5</ele><time>2026-04-12T08:09:58.877Z</time></trkpt><trkpt lat="42.5945171" lon="12.2237482"><ele>140.75</ele><time>2026-04-12T08:09:59.887Z</time></trkpt><trkpt lat="42.5944993" lon="12.2239347"><ele>141.0</ele><time>2026-04-12T08:10:00.871Z</time></trkpt><trkpt lat="42.5944772" lon="12.2241274"><ele>140.5</ele><time>2026-04-12T08:10:01.885Z</time></trkpt><trkpt lat="42.5944589" lon="12.2243152"><ele>140.0</ele><time>2026-04-12T08:10:02.894Z</time></trkpt><trkpt lat="42.5944391" lon="12.2245071"><ele>139.5</ele><time>2026-04-12T08:10:03.885Z</time></trkpt><trkpt lat="42.5944193" lon="12.2247074"><ele>139.0</ele><time>2026-04-12T08:10:04.892Z</time></trkpt><trkpt lat="42.5943982" lon="12.2249175"><ele>139.0</ele><time>2026-04-12T08:10:05.88Z</time></trkpt><trkpt lat="42.5943751" lon="12.2251323"><ele>139.0</ele><time>2026-04-12T08:10:06.878Z</time></trkpt><trkpt lat="42.5943474" lon="12.2253526"><ele>139.0</ele><time>2026-04-12T08:10:07.884Z</time></trkpt><trkpt lat="42.5943284" lon="12.2255617"><ele>139.25</ele><time>2026-04-12T08:10:08.892Z</time></trkpt><trkpt lat="42.5943116" lon="12.2257591"><ele>139.5</ele><time>2026-04-12T08:10:09.882Z</time></trkpt><trkpt lat="42.5942875" lon="12.2259554"><ele>139.75</ele><time>2026-04-12T08:10:10.881Z</time></trkpt><trkpt lat="42.5942639" lon="12.2261533"><ele>140.0</ele><time>2026-04-12T08:10:11.886Z</time></trkpt><trkpt lat="42.5942437" lon="12.2263442"><ele>140.0</ele><time>2026-04-12T08:10:12.892Z</time></trkpt><trkpt lat="42.5942223" lon="12.2265441"><ele>140.0</ele><time>2026-04-12T08:10:13.884Z</time></trkpt><trkpt lat="42.5942041" lon="12.2267283"><ele>140.0</ele><time>2026-04-12T08:10:14.884Z</time></trkpt><trkpt lat="42.5941807" lon="12.2269066"><ele>140.0</ele><time>2026-04-12T08:10:15.882Z</time></trkpt><trkpt lat="42.5941661" lon="12.2270889"><ele>140.0</ele><time>2026-04-12T08:10:16.891Z</time></trkpt><trkpt lat="42.5941508" lon="12.2272763"><ele>140.0</ele><time>2026-04-12T08:10:17.879Z</time></trkpt><trkpt lat="42.5941272" lon="12.2274663"><ele>140.0</ele><time>2026-04-12T08:10:18.892Z</time></trkpt><trkpt lat="42.5941042" lon="12.2276601"><ele>140.0</ele><time>2026-04-12T08:10:19.877Z</time></trkpt><trkpt lat="42.5940814" lon="12.2278573"><ele>139.75</ele><time>2026-04-12T08:10:20.89Z</time></trkpt><trkpt lat="42.5940542" lon="12.2280474"><ele>139.5</ele><time>2026-04-12T08:10:21.886Z</time></trkpt><trkpt lat="42.594034" lon="12.2282284"><ele>139.25</ele><time>2026-04-12T08:10:22.874Z</time></trkpt><trkpt lat="42.5940163" lon="12.2284044"><ele>139.0</ele><time>2026-04-12T08:10:23.888Z</time></trkpt><trkpt lat="42.5939985" lon="12.2285677"><ele>139.0</ele><time>2026-04-12T08:10:24.887Z</time></trkpt><trkpt lat="42.5939811" lon="12.2287182"><ele>139.0</ele><time>2026-04-12T08:10:25.885Z</time></trkpt><trkpt lat="42.5939691" lon="12.2288615"><ele>139.0</ele><time>2026-04-12T08:10:26.876Z</time></trkpt><trkpt lat="42.5939653" lon="12.2289831"><ele>139.0</ele><time>2026-04-12T08:10:27.881Z</time></trkpt><trkpt lat="42.5939607" lon="12.2290904"><ele>139.0</ele><time>2026-04-12T08:10:28.884Z</time></trkpt><trkpt lat="42.5939493" lon="12.2291805"><ele>139.0</ele><time>2026-04-12T08:10:29.891Z</time></trkpt><trkpt lat="42.5939395" lon="12.2292652"><ele>139.0</ele><time>2026-04-12T08:10:30.889Z</time></trkpt><trkpt lat="42.593933" lon="12.2294165"><ele>139.0</ele><time>2026-04-12T08:10:32.892Z</time></trkpt><trkpt lat="42.5939158" lon="12.2295611"><ele>139.0</ele><time>2026-04-12T08:10:34.879Z</time></trkpt><trkpt lat="42.5938432" lon="12.2296685"><ele>139.0</ele><time>2026-04-12T08:10:36.886Z</time></trkpt><trkpt lat="42.593773" lon="12.2296832"><ele>139.0</ele><time>2026-04-12T08:10:37.894Z</time></trkpt><trkpt lat="42.5936855" lon="12.2296701"><ele>139.0</ele><time>2026-04-12T08:10:38.881Z</time></trkpt><trkpt lat="42.5935996" lon="12.2296411"><ele>139.0</ele><time>2026-04-12T08:10:39.888Z</time></trkpt><trkpt lat="42.5935165" lon="12.2296168"><ele>139.0</ele><time>2026-04-12T08:10:40.876Z</time></trkpt><trkpt lat="42.5934253" lon="12.2296164"><ele>139.0</ele><time>2026-04-12T08:10:41.877Z</time></trkpt><trkpt lat="42.5933456" lon="12.2296626"><ele>139.0</ele><time>2026-04-12T08:10:42.886Z</time></trkpt><trkpt lat="42.5932635" lon="12.2297519"><ele>136.0</ele><time>2026-04-12T08:10:43.886Z</time></trkpt><trkpt lat="42.5931902" lon="12.2298693"><ele>133.0</ele><time>2026-04-12T08:10:44.886Z</time></trkpt><trkpt lat="42.5931213" lon="12.2300002"><ele>130.0</ele><time>2026-04-12T08:10:45.872Z</time></trkpt><trkpt lat="42.5930523" lon="12.2301244"><ele>127.0</ele><time>2026-04-12T08:10:46.886Z</time></trkpt><trkpt lat="42.5929807" lon="12.2302435"><ele>127.0</ele><time>2026-04-12T08:10:47.877Z</time></trkpt><trkpt lat="42.5929078" lon="12.2303466"><ele>126.99999999999999</ele><time>2026-04-12T08:10:48.882Z</time></trkpt><trkpt lat="42.5928312" lon="12.2304247"><ele>126.99999999999999</ele><time>2026-04-12T08:10:49.886Z</time></trkpt><trkpt lat="42.5927528" lon="12.2304899"><ele>127.0</ele><time>2026-04-12T08:10:50.883Z</time></trkpt><trkpt lat="42.5926956" lon="12.2305586"><ele>127.0</ele><time>2026-04-12T08:10:51.875Z</time></trkpt><trkpt lat="42.5926709" lon="12.230714"><ele>125.19999999999999</ele><time>2026-04-12T08:10:53.878Z</time></trkpt><trkpt lat="42.5927018" lon="12.2307921"><ele>123.39999999999999</ele><time>2026-04-12T08:10:54.875Z</time></trkpt><trkpt lat="42.5927592" lon="12.2308977"><ele>121.60000000000001</ele><time>2026-04-12T08:10:55.877Z</time></trkpt><trkpt lat="42.5928371" lon="12.2310267"><ele>119.80000000000001</ele><time>2026-04-12T08:10:56.896Z</time></trkpt><trkpt lat="42.5929189" lon="12.2311594"><ele>118.0</ele><time>2026-04-12T08:10:57.88Z</time></trkpt><trkpt lat="42.5930061" lon="12.2313015"><ele>118.0</ele><time>2026-04-12T08:10:58.888Z</time></trkpt><trkpt lat="42.5930873" lon="12.2314417"><ele>118.0</ele><time>2026-04-12T08:10:59.877Z</time></trkpt><trkpt lat="42.5931531" lon="12.2315833"><ele>118.0</ele><time>2026-04-12T08:11:00.891Z</time></trkpt><trkpt lat="42.593222" lon="12.2317039"><ele>118.0</ele><time>2026-04-12T08:11:01.887Z</time></trkpt><trkpt lat="42.59329" lon="12.2318146"><ele>114.75</ele><time>2026-04-12T08:11:02.887Z</time></trkpt><trkpt lat="42.5933494" lon="12.2319399"><ele>111.5</ele><time>2026-04-12T08:11:03.885Z</time></trkpt><trkpt lat="42.5933878" lon="12.2320845"><ele>108.25</ele><time>2026-04-12T08:11:04.89Z</time></trkpt><trkpt lat="42.5934157" lon="12.2322389"><ele>105.0</ele><time>2026-04-12T08:11:05.892Z</time></trkpt><trkpt lat="42.5934275" lon="12.2323902"><ele>103.0</ele><time>2026-04-12T08:11:06.913Z</time></trkpt><trkpt lat="42.593433" lon="12.2325541"><ele>101.0</ele><time>2026-04-12T08:11:07.889Z</time></trkpt><trkpt lat="42.5934391" lon="12.2327065"><ele>99.0</ele><time>2026-04-12T08:11:08.891Z</time></trkpt><trkpt lat="42.5934316" lon="12.2328565"><ele>97.0</ele><time>2026-04-12T08:11:09.884Z</time></trkpt><trkpt lat="42.5934139" lon="12.2329972"><ele>95.0</ele><time>2026-04-12T08:11:10.88Z</time></trkpt><trkpt lat="42.5933834" lon="12.2331291"><ele>94.0</ele><time>2026-04-12T08:11:11.875Z</time></trkpt><trkpt lat="42.5933423" lon="12.2332469"><ele>93.0</ele><time>2026-04-12T08:11:12.889Z</time></trkpt><trkpt lat="42.5932979" lon="12.2333618"><ele>92.0</ele><time>2026-04-12T08:11:13.88Z</time></trkpt><trkpt lat="42.5932612" lon="12.2334669"><ele>91.0</ele><time>2026-04-12T08:11:14.883Z</time></trkpt><trkpt lat="42.5932223" lon="12.2335596"><ele>90.0</ele><time>2026-04-12T08:11:15.885Z</time></trkpt><trkpt lat="42.5931855" lon="12.2336319"><ele>89.0</ele><time>2026-04-12T08:11:16.882Z</time></trkpt><trkpt lat="42.593144" lon="12.2337159"><ele>89.0</ele><time>2026-04-12T08:11:18.881Z</time></trkpt><trkpt lat="42.5930619" lon="12.2337357"><ele>89.0</ele><time>2026-04-12T08:11:21.886Z</time></trkpt><trkpt lat="42.592977" lon="12.2337282"><ele>89.0</ele><time>2026-04-12T08:11:23.875Z</time></trkpt><trkpt lat="42.5928879" lon="12.2337038"><ele>89.0</ele><time>2026-04-12T08:11:25.874Z</time></trkpt><trkpt lat="42.5928206" lon="12.2336549"><ele>89.0</ele><time>2026-04-12T08:11:28.897Z</time></trkpt><trkpt lat="42.592759" lon="12.2336233"><ele>89.0</ele><time>2026-04-12T08:11:34.884Z</time></trkpt><trkpt lat="42.592809" lon="12.2336963"><ele>89.0</ele><time>2026-04-12T08:11:48.885Z</time></trkpt><trkpt lat="42.592905" lon="12.2337287"><ele>89.0</ele><time>2026-04-12T08:11:50.887Z</time></trkpt><trkpt lat="42.592962" lon="12.233772"><ele>89.0</ele><time>2026-04-12T08:11:52.899Z</time></trkpt><trkpt lat="42.5929879" lon="12.2339229"><ele>89.0</ele><time>2026-04-12T08:11:54.89Z</time></trkpt><trkpt lat="42.5929803" lon="12.2340242"><ele>89.0</ele><time>2026-04-12T08:11:55.884Z</time></trkpt><trkpt lat="42.592955" lon="12.2341257"><ele>89.0</ele><time>2026-04-12T08:11:56.891Z</time></trkpt><trkpt lat="42.5929099" lon="12.234219"><ele>88.0</ele><time>2026-04-12T08:11:57.884Z</time></trkpt><trkpt lat="42.5928725" lon="12.2343119"><ele>87.0</ele><time>2026-04-12T08:11:58.889Z</time></trkpt><trkpt lat="42.5928343" lon="12.2344171"><ele>86.0</ele><time>2026-04-12T08:11:59.881Z</time></trkpt><trkpt lat="42.592801" lon="12.2345316"><ele>85.0</ele><time>2026-04-12T08:12:00.884Z</time></trkpt><trkpt lat="42.5927654" lon="12.2346579"><ele>84.0</ele><time>2026-04-12T08:12:01.888Z</time></trkpt><trkpt lat="42.5927351" lon="12.2347801"><ele>83.0</ele><time>2026-04-12T08:12:02.89Z</time></trkpt><trkpt lat="42.5927094" lon="12.2349046"><ele>82.66666666666667</ele><time>2026-04-12T08:12:03.888Z</time></trkpt><trkpt lat="42.5927006" lon="12.2350158"><ele>82.33333333333334</ele><time>2026-04-12T08:12:04.885Z</time></trkpt><trkpt lat="42.5927056" lon="12.2351221"><ele>82.0</ele><time>2026-04-12T08:12:05.888Z</time></trkpt><trkpt lat="42.5927276" lon="12.2352287"><ele>81.66666666666667</ele><time>2026-04-12T08:12:06.901Z</time></trkpt><trkpt lat="42.5927535" lon="12.2353485"><ele>81.33333333333333</ele><time>2026-04-12T08:12:07.887Z</time></trkpt><trkpt lat="42.592784" lon="12.2354568"><ele>81.0</ele><time>2026-04-12T08:12:08.886Z</time></trkpt><trkpt lat="42.5928133" lon="12.2355682"><ele>80.83333333333333</ele><time>2026-04-12T08:12:09.882Z</time></trkpt><trkpt lat="42.5928335" lon="12.2356735"><ele>80.66666666666667</ele><time>2026-04-12T08:12:10.889Z</time></trkpt><trkpt lat="42.5928455" lon="12.2357752"><ele>80.5</ele><time>2026-04-12T08:12:11.88Z</time></trkpt><trkpt lat="42.5928558" lon="12.2358728"><ele>80.33333333333334</ele><time>2026-04-12T08:12:12.884Z</time></trkpt><trkpt lat="42.5928571" lon="12.2359654"><ele>80.16666666666667</ele><time>2026-04-12T08:12:13.887Z</time></trkpt><trkpt lat="42.5928615" lon="12.2361315"><ele>80.0</ele><time>2026-04-12T08:12:15.882Z</time></trkpt><trkpt lat="42.5928695" lon="12.2362827"><ele>80.16666666666667</ele><time>2026-04-12T08:12:17.88Z</time></trkpt><trkpt lat="42.5928774" lon="12.2363696"><ele>80.33333333333334</ele><time>2026-04-12T08:12:19.885Z</time></trkpt><trkpt lat="42.5928723" lon="12.2364696"><ele>80.5</ele><time>2026-04-12T08:12:22.888Z</time></trkpt><trkpt lat="42.592826" lon="12.236567"><ele>80.66666666666667</ele><time>2026-04-12T08:12:24.889Z</time></trkpt><trkpt lat="42.5927137" lon="12.2366301"><ele>80.83333333333333</ele><time>2026-04-12T08:12:26.876Z</time></trkpt><trkpt lat="42.5926519" lon="12.2366477"><ele>81.0</ele><time>2026-04-12T08:12:27.874Z</time></trkpt><trkpt lat="42.5925511" lon="12.2366588"><ele>81.0</ele><time>2026-04-12T08:12:29.877Z</time></trkpt><trkpt lat="42.5924687" lon="12.2366919"><ele>81.0</ele><time>2026-04-12T08:12:32.886Z</time></trkpt><trkpt lat="42.592402" lon="12.2367183"><ele>81.0</ele><time>2026-04-12T08:12:34.88Z</time></trkpt><trkpt lat="42.5923038" lon="12.2367527"><ele>81.0</ele><time>2026-04-12T08:12:36.89Z</time></trkpt><trkpt lat="42.5921889" lon="12.2367958"><ele>81.0</ele><time>2026-04-12T08:12:38.881Z</time></trkpt><trkpt lat="42.5921296" lon="12.2368335"><ele>81.0</ele><time>2026-04-12T08:12:39.882Z</time></trkpt><trkpt lat="42.5920425" lon="12.2369574"><ele>81.0</ele><time>2026-04-12T08:12:41.882Z</time></trkpt><trkpt lat="42.5920206" lon="12.2370524"><ele>81.0</ele><time>2026-04-12T08:12:42.883Z</time></trkpt><trkpt lat="42.5920176" lon="12.2371508"><ele>81.0</ele><time>2026-04-12T08:12:43.877Z</time></trkpt><trkpt lat="42.5920189" lon="12.2372505"><ele>81.0</ele><time>2026-04-12T08:12:44.877Z</time></trkpt><trkpt lat="42.5920339" lon="12.237348"><ele>81.0</ele><time>2026-04-12T08:12:45.879Z</time></trkpt><trkpt lat="42.5920503" lon="12.2374489"><ele>81.0</ele><time>2026-04-12T08:12:46.876Z</time></trkpt><trkpt lat="42.5920663" lon="12.2375491"><ele>81.0</ele><time>2026-04-12T08:12:47.879Z</time></trkpt><trkpt lat="42.5920816" lon="12.2376411"><ele>80.5</ele><time>2026-04-12T08:12:48.887Z</time></trkpt><trkpt lat="42.5921008" lon="12.2378061"><ele>80.0</ele><time>2026-04-12T08:12:50.889Z</time></trkpt><trkpt lat="42.5921273" lon="12.2379589"><ele>79.5</ele><time>2026-04-12T08:12:52.879Z</time></trkpt><trkpt lat="42.5921558" lon="12.2381101"><ele>79.0</ele><time>2026-04-12T08:12:54.882Z</time></trkpt><trkpt lat="42.5921772" lon="12.2382691"><ele>78.83333333333333</ele><time>2026-04-12T08:12:56.882Z</time></trkpt><trkpt lat="42.5921855" lon="12.238354"><ele>78.66666666666666</ele><time>2026-04-12T08:12:57.881Z</time></trkpt><trkpt lat="42.592195" lon="12.2385096"><ele>78.5</ele><time>2026-04-12T08:12:59.896Z</time></trkpt><trkpt lat="42.5921907" lon="12.2386706"><ele>78.33333333333333</ele><time>2026-04-12T08:13:01.884Z</time></trkpt><trkpt lat="42.5921745" lon="12.2387628"><ele>78.16666666666667</ele><time>2026-04-12T08:13:02.881Z</time></trkpt><trkpt lat="42.5921596" lon="12.2388465"><ele>78.0</ele><time>2026-04-12T08:13:03.886Z</time></trkpt><trkpt lat="42.5921331" lon="12.2389326"><ele>77.83333333333333</ele><time>2026-04-12T08:13:04.876Z</time></trkpt><trkpt lat="42.5921019" lon="12.2390177"><ele>77.66666666666667</ele><time>2026-04-12T08:13:05.888Z</time></trkpt><trkpt lat="42.5920816" lon="12.2391109"><ele>77.5</ele><time>2026-04-12T08:13:06.897Z</time></trkpt><trkpt lat="42.5920553" lon="12.2392061"><ele>77.33333333333334</ele><time>2026-04-12T08:13:07.886Z</time></trkpt><trkpt lat="42.5920275" lon="12.2392926"><ele>77.16666666666667</ele><time>2026-04-12T08:13:08.875Z</time></trkpt><trkpt lat="42.5919981" lon="12.2393794"><ele>77.0</ele><time>2026-04-12T08:13:09.872Z</time></trkpt><trkpt lat="42.5919362" lon="12.2395141"><ele>77.0</ele><time>2026-04-12T08:13:11.883Z</time></trkpt><trkpt lat="42.5919379" lon="12.2396249"><ele>77.0</ele><time>2026-04-12T08:13:13.872Z</time></trkpt><trkpt lat="42.5919967" lon="12.2396666"><ele>77.0</ele><time>2026-04-12T08:13:15.877Z</time></trkpt><trkpt lat="42.5920687" lon="12.239631"><ele>77.0</ele><time>2026-04-12T08:13:18.885Z</time></trkpt><trkpt lat="42.5921184" lon="12.239576"><ele>77.0</ele><time>2026-04-12T08:13:37.878Z</time></trkpt><trkpt lat="42.5920557" lon="12.2395869"><ele>77.0</ele><time>2026-04-12T08:13:40.878Z</time></trkpt><trkpt lat="42.5919957" lon="12.2396447"><ele>77.0</ele><time>2026-04-12T08:13:43.865Z</time></trkpt><trkpt lat="42.5919244" lon="12.2396478"><ele>77.0</ele><time>2026-04-12T08:13:46.884Z</time></trkpt><trkpt lat="42.591941" lon="12.2395099"><ele>77.0</ele><time>2026-04-12T08:13:50.89Z</time></trkpt><trkpt lat="42.5920096" lon="12.2393515"><ele>77.0</ele><time>2026-04-12T08:13:52.873Z</time></trkpt><trkpt lat="42.5920535" lon="12.2392519"><ele>77.0</ele><time>2026-04-12T08:13:53.867Z</time></trkpt><trkpt lat="42.5920863" lon="12.2391578"><ele>77.0</ele><time>2026-04-12T08:13:54.876Z</time></trkpt><trkpt lat="42.5921004" lon="12.2390628"><ele>77.16666666666667</ele><time>2026-04-12T08:13:55.884Z</time></trkpt><trkpt lat="42.59212" lon="12.2389792"><ele>77.33333333333334</ele><time>2026-04-12T08:13:56.876Z</time></trkpt><trkpt lat="42.5921471" lon="12.2388989"><ele>77.5</ele><time>2026-04-12T08:13:57.886Z</time></trkpt><trkpt lat="42.5921874" lon="12.2387408"><ele>77.66666666666667</ele><time>2026-04-12T08:13:59.884Z</time></trkpt><trkpt lat="42.5921945" lon="12.2386555"><ele>77.83333333333333</ele><time>2026-04-12T08:14:00.887Z</time></trkpt><trkpt lat="42.5921934" lon="12.2385545"><ele>78.0</ele><time>2026-04-12T08:14:01.882Z</time></trkpt><trkpt lat="42.5921895" lon="12.2384571"><ele>78.0</ele><time>2026-04-12T08:14:02.882Z</time></trkpt><trkpt lat="42.5921828" lon="12.2383545"><ele>78.0</ele><time>2026-04-12T08:14:03.881Z</time></trkpt><trkpt lat="42.592174" lon="12.2382433"><ele>78.0</ele><time>2026-04-12T08:14:04.877Z</time></trkpt><trkpt lat="42.5921547" lon="12.2381364"><ele>78.0</ele><time>2026-04-12T08:14:05.893Z</time></trkpt><trkpt lat="42.5921361" lon="12.2380167"><ele>78.0</ele><time>2026-04-12T08:14:06.879Z</time></trkpt><trkpt lat="42.592114" lon="12.2379049"><ele>78.0</ele><time>2026-04-12T08:14:07.876Z</time></trkpt><trkpt lat="42.5920981" lon="12.2377971"><ele>78.16666666666667</ele><time>2026-04-12T08:14:08.886Z</time></trkpt><trkpt lat="42.5920838" lon="12.2376853"><ele>78.33333333333333</ele><time>2026-04-12T08:14:09.886Z</time></trkpt><trkpt lat="42.5920665" lon="12.2375735"><ele>78.5</ele><time>2026-04-12T08:14:10.879Z</time></trkpt><trkpt lat="42.5920491" lon="12.2374509"><ele>78.66666666666666</ele><time>2026-04-12T08:14:11.885Z</time></trkpt><trkpt lat="42.5920343" lon="12.2373413"><ele>78.83333333333333</ele><time>2026-04-12T08:14:12.879Z</time></trkpt><trkpt lat="42.5920195" lon="12.2372407"><ele>79.0</ele><time>2026-04-12T08:14:13.876Z</time></trkpt><trkpt lat="42.5920122" lon="12.2371336"><ele>79.33333333333333</ele><time>2026-04-12T08:14:14.876Z</time></trkpt><trkpt lat="42.5920246" lon="12.2370407"><ele>79.66666666666666</ele><time>2026-04-12T08:14:15.879Z</time></trkpt><trkpt lat="42.592056" lon="12.2369513"><ele>80.0</ele><time>2026-04-12T08:14:16.879Z</time></trkpt><trkpt lat="42.5921069" lon="12.236874"><ele>80.33333333333333</ele><time>2026-04-12T08:14:17.878Z</time></trkpt><trkpt lat="42.5921667" lon="12.2368212"><ele>80.66666666666667</ele><time>2026-04-12T08:14:18.893Z</time></trkpt><trkpt lat="42.5922397" lon="12.2367896"><ele>81.0</ele><time>2026-04-12T08:14:19.892Z</time></trkpt><trkpt lat="42.5923232" lon="12.2367595"><ele>81.0</ele><time>2026-04-12T08:14:20.884Z</time></trkpt><trkpt lat="42.5924038" lon="12.2367342"><ele>81.0</ele><time>2026-04-12T08:14:21.879Z</time></trkpt><trkpt lat="42.5924875" lon="12.2367068"><ele>81.0</ele><time>2026-04-12T08:14:22.88Z</time></trkpt><trkpt lat="42.5925713" lon="12.2366804"><ele>81.0</ele><time>2026-04-12T08:14:23.881Z</time></trkpt><trkpt lat="42.5926491" lon="12.2366562"><ele>81.0</ele><time>2026-04-12T08:14:24.896Z</time></trkpt><trkpt lat="42.5927176" lon="12.2366368"><ele>81.0</ele><time>2026-04-12T08:14:25.885Z</time></trkpt><trkpt lat="42.5928143" lon="12.236583"><ele>80.33333333333333</ele><time>2026-04-12T08:14:27.879Z</time></trkpt><trkpt lat="42.592871" lon="12.2365081"><ele>79.66666666666667</ele><time>2026-04-12T08:14:29.894Z</time></trkpt><trkpt lat="42.5928843" lon="12.2364172"><ele>79.0</ele><time>2026-04-12T08:14:33.884Z</time></trkpt><trkpt lat="42.5928791" lon="12.236273"><ele>78.33333333333334</ele><time>2026-04-12T08:14:44.882Z</time></trkpt><trkpt lat="42.5928848" lon="12.2361583"><ele>77.66666666666667</ele><time>2026-04-12T08:14:45.895Z</time></trkpt><trkpt lat="42.5928933" lon="12.2360449"><ele>77.0</ele><time>2026-04-12T08:14:46.878Z</time></trkpt><trkpt lat="42.5928758" lon="12.2359184"><ele>77.0</ele><time>2026-04-12T08:14:47.894Z</time></trkpt><trkpt lat="42.5928589" lon="12.235794"><ele>77.0</ele><time>2026-04-12T08:14:48.888Z</time></trkpt><trkpt lat="42.5928393" lon="12.2356828"><ele>77.0</ele><time>2026-04-12T08:14:49.877Z</time></trkpt><trkpt lat="42.5928218" lon="12.2355635"><ele>77.0</ele><time>2026-04-12T08:14:50.882Z</time></trkpt><trkpt lat="42.5927858" lon="12.2354303"><ele>77.0</ele><time>2026-04-12T08:14:51.879Z</time></trkpt><trkpt lat="42.5927504" lon="12.2352971"><ele>77.66666666666667</ele><time>2026-04-12T08:14:52.889Z</time></trkpt><trkpt lat="42.5927242" lon="12.23517"><ele>78.33333333333334</ele><time>2026-04-12T08:14:53.883Z</time></trkpt><trkpt lat="42.5927039" lon="12.2350532"><ele>79.0</ele><time>2026-04-12T08:14:54.893Z</time></trkpt><trkpt lat="42.5927083" lon="12.2349385"><ele>79.66666666666667</ele><time>2026-04-12T08:14:55.881Z</time></trkpt><trkpt lat="42.5927348" lon="12.2348243"><ele>80.33333333333333</ele><time>2026-04-12T08:14:56.893Z</time></trkpt><trkpt lat="42.5927648" lon="12.2347125"><ele>81.0</ele><time>2026-04-12T08:14:57.888Z</time></trkpt><trkpt lat="42.5927976" lon="12.2345997"><ele>81.4</ele><time>2026-04-12T08:14:58.892Z</time></trkpt><trkpt lat="42.5928345" lon="12.2344824"><ele>81.8</ele><time>2026-04-12T08:14:59.882Z</time></trkpt><trkpt lat="42.5928786" lon="12.2343577"><ele>82.2</ele><time>2026-04-12T08:15:00.89Z</time></trkpt><trkpt lat="42.592919" lon="12.2342323"><ele>82.60000000000001</ele><time>2026-04-12T08:15:01.886Z</time></trkpt><trkpt lat="42.5929624" lon="12.2341182"><ele>83.0</ele><time>2026-04-12T08:15:02.897Z</time></trkpt><trkpt lat="42.5929907" lon="12.2340159"><ele>84.0</ele><time>2026-04-12T08:15:03.878Z</time></trkpt><trkpt lat="42.5930041" lon="12.2339264"><ele>85.0</ele><time>2026-04-12T08:15:04.883Z</time></trkpt><trkpt lat="42.5930383" lon="12.2338188"><ele>86.0</ele><time>2026-04-12T08:15:06.898Z</time></trkpt><trkpt lat="42.5931251" lon="12.2337805"><ele>87.0</ele><time>2026-04-12T08:15:09.881Z</time></trkpt><trkpt lat="42.5932311" lon="12.2337732"><ele>88.0</ele><time>2026-04-12T08:15:11.87Z</time></trkpt><trkpt lat="42.593297" lon="12.2337577"><ele>89.0</ele><time>2026-04-12T08:15:12.887Z</time></trkpt><trkpt lat="42.5933776" lon="12.23373"><ele>89.0</ele><time>2026-04-12T08:15:13.877Z</time></trkpt><trkpt lat="42.5934616" lon="12.2336915"><ele>89.0</ele><time>2026-04-12T08:15:14.89Z</time></trkpt><trkpt lat="42.5935579" lon="12.2336538"><ele>89.0</ele><time>2026-04-12T08:15:15.871Z</time></trkpt><trkpt lat="42.5936605" lon="12.2336092"><ele>89.0</ele><time>2026-04-12T08:15:16.889Z</time></trkpt><trkpt lat="42.5937802" lon="12.2335545"><ele>89.0</ele><time>2026-04-12T08:15:17.881Z</time></trkpt><trkpt lat="42.5939038" lon="12.233489"><ele>88.5</ele><time>2026-04-12T08:15:18.882Z</time></trkpt><trkpt lat="42.5940333" lon="12.2334303"><ele>88.0</ele><time>2026-04-12T08:15:19.886Z</time></trkpt><trkpt lat="42.594176" lon="12.2333635"><ele>87.5</ele><time>2026-04-12T08:15:20.884Z</time></trkpt><trkpt lat="42.5943171" lon="12.2332856"><ele>87.0</ele><time>2026-04-12T08:15:21.874Z</time></trkpt><trkpt lat="42.5944481" lon="12.23321"><ele>88.0</ele><time>2026-04-12T08:15:22.889Z</time></trkpt><trkpt lat="42.5945695" lon="12.2331298"><ele>89.0</ele><time>2026-04-12T08:15:23.89Z</time></trkpt><trkpt lat="42.5946856" lon="12.2330448"><ele>90.0</ele><time>2026-04-12T08:15:24.885Z</time></trkpt><trkpt lat="42.5948035" lon="12.2329621"><ele>91.0</ele><time>2026-04-12T08:15:25.88Z</time></trkpt><trkpt lat="42.5949174" lon="12.232878"><ele>91.0</ele><time>2026-04-12T08:15:26.886Z</time></trkpt><trkpt lat="42.5950367" lon="12.2327916"><ele>91.0</ele><time>2026-04-12T08:15:27.878Z</time></trkpt><trkpt lat="42.5951543" lon="12.2326972"><ele>91.0</ele><time>2026-04-12T08:15:28.883Z</time></trkpt><trkpt lat="42.5952759" lon="12.2325933"><ele>91.0</ele><time>2026-04-12T08:15:29.884Z</time></trkpt><trkpt lat="42.5953975" lon="12.2324953"><ele>91.75</ele><time>2026-04-12T08:15:30.885Z</time></trkpt><trkpt lat="42.5955227" lon="12.2323884"><ele>92.5</ele><time>2026-04-12T08:15:31.88Z</time></trkpt><trkpt lat="42.5956499" lon="12.2322749"><ele>93.25</ele><time>2026-04-12T08:15:32.883Z</time></trkpt><trkpt lat="42.595777" lon="12.2321698"><ele>94.0</ele><time>2026-04-12T08:15:33.885Z</time></trkpt><trkpt lat="42.595904" lon="12.2320695"><ele>94.0</ele><time>2026-04-12T08:15:34.891Z</time></trkpt><trkpt lat="42.5960325" lon="12.2319763"><ele>94.0</ele><time>2026-04-12T08:15:35.874Z</time></trkpt><trkpt lat="42.5961649" lon="12.2318976"><ele>94.0</ele><time>2026-04-12T08:15:36.882Z</time></trkpt><trkpt lat="42.5963052" lon="12.2318315"><ele>94.0</ele><time>2026-04-12T08:15:37.875Z</time></trkpt><trkpt lat="42.5964529" lon="12.2317788"><ele>91.33333333333333</ele><time>2026-04-12T08:15:38.885Z</time></trkpt><trkpt lat="42.5966047" lon="12.2317426"><ele>88.66666666666667</ele><time>2026-04-12T08:15:39.874Z</time></trkpt><trkpt lat="42.5967544" lon="12.2317038"><ele>86.0</ele><time>2026-04-12T08:15:40.879Z</time></trkpt><trkpt lat="42.5969043" lon="12.2316634"><ele>85.25</ele><time>2026-04-12T08:15:41.877Z</time></trkpt><trkpt lat="42.5970488" lon="12.2316242"><ele>84.5</ele><time>2026-04-12T08:15:42.865Z</time></trkpt><trkpt lat="42.597182" lon="12.2315885"><ele>83.75</ele><time>2026-04-12T08:15:43.888Z</time></trkpt><trkpt lat="42.5973131" lon="12.231558"><ele>83.0</ele><time>2026-04-12T08:15:44.881Z</time></trkpt><trkpt lat="42.5974428" lon="12.2315253"><ele>83.0</ele><time>2026-04-12T08:15:45.878Z</time></trkpt><trkpt lat="42.5975588" lon="12.231496"><ele>83.0</ele><time>2026-04-12T08:15:46.881Z</time></trkpt><trkpt lat="42.5976544" lon="12.23148"><ele>83.0</ele><time>2026-04-12T08:15:47.888Z</time></trkpt><trkpt lat="42.5977263" lon="12.2314687"><ele>83.0</ele><time>2026-04-12T08:15:48.88Z</time></trkpt><trkpt lat="42.597818" lon="12.2315024"><ele>83.0</ele><time>2026-04-12T08:15:50.878Z</time></trkpt><trkpt lat="42.5978846" lon="12.2315581"><ele>82.83333333333334</ele><time>2026-04-12T08:15:52.88Z</time></trkpt><trkpt lat="42.5979669" lon="12.2316089"><ele>82.66666666666667</ele><time>2026-04-12T08:15:54.885Z</time></trkpt><trkpt lat="42.5980745" lon="12.2316993"><ele>82.5</ele><time>2026-04-12T08:15:56.892Z</time></trkpt><trkpt lat="42.5981256" lon="12.231766"><ele>82.33333333333333</ele><time>2026-04-12T08:15:57.89Z</time></trkpt><trkpt lat="42.5981695" lon="12.2318399"><ele>82.16666666666666</ele><time>2026-04-12T08:15:58.882Z</time></trkpt><trkpt lat="42.5982218" lon="12.2319188"><ele>82.0</ele><time>2026-04-12T08:15:59.879Z</time></trkpt><trkpt lat="42.5982776" lon="12.2319936"><ele>82.0</ele><time>2026-04-12T08:16:00.891Z</time></trkpt><trkpt lat="42.5983362" lon="12.2320765"><ele>82.0</ele><time>2026-04-12T08:16:01.887Z</time></trkpt><trkpt lat="42.5983931" lon="12.2321617"><ele>82.0</ele><time>2026-04-12T08:16:02.907Z</time></trkpt><trkpt lat="42.5984466" lon="12.2322372"><ele>82.0</ele><time>2026-04-12T08:16:03.894Z</time></trkpt><trkpt lat="42.5984954" lon="12.2323103"><ele>82.0</ele><time>2026-04-12T08:16:04.88Z</time></trkpt><trkpt lat="42.5985428" lon="12.2323781"><ele>82.0</ele><time>2026-04-12T08:16:05.905Z</time></trkpt><trkpt lat="42.5986127" lon="12.2324887"><ele>81.66666666666666</ele><time>2026-04-12T08:16:07.873Z</time></trkpt><trkpt lat="42.5986879" lon="12.2326095"><ele>81.33333333333333</ele><time>2026-04-12T08:16:09.883Z</time></trkpt><trkpt lat="42.5987358" lon="12.2326717"><ele>81.0</ele><time>2026-04-12T08:16:10.887Z</time></trkpt><trkpt lat="42.5987851" lon="12.2327367"><ele>80.66666666666667</ele><time>2026-04-12T08:16:11.895Z</time></trkpt><trkpt lat="42.5988289" lon="12.232803"><ele>80.33333333333334</ele><time>2026-04-12T08:16:12.883Z</time></trkpt><trkpt lat="42.5988696" lon="12.2328703"><ele>80.0</ele><time>2026-04-12T08:16:13.886Z</time></trkpt><trkpt lat="42.5989233" lon="12.2329926"><ele>80.0</ele><time>2026-04-12T08:16:15.879Z</time></trkpt><trkpt lat="42.5989246" lon="12.2331215"><ele>80.0</ele><time>2026-04-12T08:16:17.878Z</time></trkpt><trkpt lat="42.598888" lon="12.2332032"><ele>80.0</ele><time>2026-04-12T08:16:18.877Z</time></trkpt><trkpt lat="42.5988521" lon="12.2332824"><ele>80.0</ele><time>2026-04-12T08:16:19.877Z</time></trkpt><trkpt lat="42.5988166" lon="12.2333718"><ele>80.0</ele><time>2026-04-12T08:16:20.876Z</time></trkpt><trkpt lat="42.5987813" lon="12.2334642"><ele>80.0</ele><time>2026-04-12T08:16:21.876Z</time></trkpt><trkpt lat="42.5987443" lon="12.2335583"><ele>80.0</ele><time>2026-04-12T08:16:22.884Z</time></trkpt><trkpt lat="42.5987067" lon="12.2336603"><ele>80.0</ele><time>2026-04-12T08:16:23.869Z</time></trkpt><trkpt lat="42.5986753" lon="12.2337675"><ele>80.0</ele><time>2026-04-12T08:16:24.885Z</time></trkpt><trkpt lat="42.5986415" lon="12.2338693"><ele>80.0</ele><time>2026-04-12T08:16:25.892Z</time></trkpt><trkpt lat="42.5986083" lon="12.233969"><ele>80.0</ele><time>2026-04-12T08:16:26.889Z</time></trkpt><trkpt lat="42.5985779" lon="12.2340654"><ele>80.0</ele><time>2026-04-12T08:16:27.883Z</time></trkpt><trkpt lat="42.5985516" lon="12.2341577"><ele>80.33333333333334</ele><time>2026-04-12T08:16:28.877Z</time></trkpt><trkpt lat="42.5985246" lon="12.2342403"><ele>80.66666666666667</ele><time>2026-04-12T08:16:29.873Z</time></trkpt><trkpt lat="42.5985438" lon="12.2343581"><ele>81.0</ele><time>2026-04-12T08:16:31.87Z</time></trkpt><trkpt lat="42.5984764" lon="12.2344191"><ele>81.33333333333333</ele><time>2026-04-12T08:16:33.863Z</time></trkpt><trkpt lat="42.5984726" lon="12.2345475"><ele>81.66666666666666</ele><time>2026-04-12T08:16:36.866Z</time></trkpt><trkpt lat="42.5984469" lon="12.2346379"><ele>82.0</ele><time>2026-04-12T08:16:38.879Z</time></trkpt><trkpt lat="42.5983834" lon="12.2347334"><ele>81.6</ele><time>2026-04-12T08:16:40.874Z</time></trkpt><trkpt lat="42.5982858" lon="12.2348108"><ele>81.19999999999999</ele><time>2026-04-12T08:16:42.875Z</time></trkpt><trkpt lat="42.5982249" lon="12.2348569"><ele>80.8</ele><time>2026-04-12T08:16:43.882Z</time></trkpt><trkpt lat="42.5981542" lon="12.2349011"><ele>80.4</ele><time>2026-04-12T08:16:44.877Z</time></trkpt><trkpt lat="42.5980781" lon="12.2349859"><ele>80.0</ele><time>2026-04-12T08:16:45.88Z</time></trkpt><trkpt lat="42.5980115" lon="12.2350933"><ele>80.0</ele><time>2026-04-12T08:16:46.875Z</time></trkpt><trkpt lat="42.5979673" lon="12.235201"><ele>80.0</ele><time>2026-04-12T08:16:47.878Z</time></trkpt><trkpt lat="42.5979408" lon="12.2353161"><ele>80.0</ele><time>2026-04-12T08:16:48.882Z</time></trkpt><trkpt lat="42.5979244" lon="12.2354384"><ele>80.0</ele><time>2026-04-12T08:16:49.874Z</time></trkpt><trkpt lat="42.5979074" lon="12.235551"><ele>80.0</ele><time>2026-04-12T08:16:50.882Z</time></trkpt><trkpt lat="42.5978952" lon="12.2356602"><ele>80.0</ele><time>2026-04-12T08:16:51.883Z</time></trkpt><trkpt lat="42.5978936" lon="12.2357751"><ele>79.8</ele><time>2026-04-12T08:16:52.884Z</time></trkpt><trkpt lat="42.5979085" lon="12.2359059"><ele>79.6</ele><time>2026-04-12T08:16:53.898Z</time></trkpt><trkpt lat="42.5979206" lon="12.2360384"><ele>79.4</ele><time>2026-04-12T08:16:54.884Z</time></trkpt><trkpt lat="42.5979329" lon="12.2361844"><ele>79.2</ele><time>2026-04-12T08:16:55.875Z</time></trkpt><trkpt lat="42.5979448" lon="12.2363238"><ele>79.0</ele><time>2026-04-12T08:16:56.874Z</time></trkpt><trkpt lat="42.5979558" lon="12.2364585"><ele>78.8</ele><time>2026-04-12T08:16:57.876Z</time></trkpt><trkpt lat="42.5979698" lon="12.2365896"><ele>78.60000000000001</ele><time>2026-04-12T08:16:58.885Z</time></trkpt><trkpt lat="42.5979752" lon="12.2367222"><ele>78.4</ele><time>2026-04-12T08:16:59.869Z</time></trkpt><trkpt lat="42.5979744" lon="12.2368466"><ele>78.2</ele><time>2026-04-12T08:17:00.873Z</time></trkpt><trkpt lat="42.5979712" lon="12.2369684"><ele>78.0</ele><time>2026-04-12T08:17:01.889Z</time></trkpt><trkpt lat="42.5979683" lon="12.2370905"><ele>78.0</ele><time>2026-04-12T08:17:02.887Z</time></trkpt><trkpt lat="42.5979571" lon="12.2372154"><ele>78.0</ele><time>2026-04-12T08:17:03.881Z</time></trkpt><trkpt lat="42.597929" lon="12.2373247"><ele>78.0</ele><time>2026-04-12T08:17:04.874Z</time></trkpt><trkpt lat="42.59789" lon="12.2374283"><ele>78.0</ele><time>2026-04-12T08:17:05.879Z</time></trkpt><trkpt lat="42.5978379" lon="12.2375278"><ele>78.0</ele><time>2026-04-12T08:17:06.897Z</time></trkpt><trkpt lat="42.5977757" lon="12.2376227"><ele>78.0</ele><time>2026-04-12T08:17:07.889Z</time></trkpt><trkpt lat="42.59771" lon="12.237708"><ele>77.83333333333333</ele><time>2026-04-12T08:17:08.876Z</time></trkpt><trkpt lat="42.5976342" lon="12.2377888"><ele>77.66666666666667</ele><time>2026-04-12T08:17:09.876Z</time></trkpt><trkpt lat="42.5975719" lon="12.2378561"><ele>77.5</ele><time>2026-04-12T08:17:10.899Z</time></trkpt><trkpt lat="42.597491" lon="12.2379329"><ele>77.33333333333334</ele><time>2026-04-12T08:17:12.888Z</time></trkpt><trkpt lat="42.597424" lon="12.2379704"><ele>77.16666666666667</ele><time>2026-04-12T08:17:14.885Z</time></trkpt><trkpt lat="42.5973614" lon="12.2380348"><ele>77.0</ele><time>2026-04-12T08:17:16.888Z</time></trkpt><trkpt lat="42.5973" lon="12.2381883"><ele>76.85714285714286</ele><time>2026-04-12T08:17:18.894Z</time></trkpt><trkpt lat="42.5972721" lon="12.2382729"><ele>76.71428571428572</ele><time>2026-04-12T08:17:19.87Z</time></trkpt><trkpt lat="42.5972443" lon="12.2383648"><ele>76.57142857142857</ele><time>2026-04-12T08:17:20.889Z</time></trkpt><trkpt lat="42.5972159" lon="12.2384663"><ele>76.42857142857143</ele><time>2026-04-12T08:17:21.93Z</time></trkpt><trkpt lat="42.5971913" lon="12.2385688"><ele>76.28571428571429</ele><time>2026-04-12T08:17:22.884Z</time></trkpt><trkpt lat="42.5971683" lon="12.2386724"><ele>76.14285714285714</ele><time>2026-04-12T08:17:23.882Z</time></trkpt><trkpt lat="42.5971506" lon="12.238762"><ele>76.0</ele><time>2026-04-12T08:17:24.873Z</time></trkpt><trkpt lat="42.5971104" lon="12.2389126"><ele>75.8</ele><time>2026-04-12T08:17:26.888Z</time></trkpt><trkpt lat="42.5970788" lon="12.2390279"><ele>75.6</ele><time>2026-04-12T08:17:28.867Z</time></trkpt><trkpt lat="42.597053" lon="12.2391511"><ele>75.4</ele><time>2026-04-12T08:17:30.874Z</time></trkpt><trkpt lat="42.5970192" lon="12.2392858"><ele>75.2</ele><time>2026-04-12T08:17:32.894Z</time></trkpt><trkpt lat="42.5969876" lon="12.2394061"><ele>75.0</ele><time>2026-04-12T08:17:34.878Z</time></trkpt><trkpt lat="42.5969496" lon="12.2395376"><ele>74.8</ele><time>2026-04-12T08:17:36.888Z</time></trkpt><trkpt lat="42.596908" lon="12.2396958"><ele>74.6</ele><time>2026-04-12T08:17:38.876Z</time></trkpt><trkpt lat="42.596865" lon="12.2398448"><ele>74.4</ele><time>2026-04-12T08:17:40.874Z</time></trkpt><trkpt lat="42.5968296" lon="12.2399839"><ele>74.2</ele><time>2026-04-12T08:17:42.878Z</time></trkpt><trkpt lat="42.5968056" lon="12.2400665"><ele>74.0</ele><time>2026-04-12T08:17:43.876Z</time></trkpt><trkpt lat="42.5967787" lon="12.2401442"><ele>74.0</ele><time>2026-04-12T08:17:44.878Z</time></trkpt><trkpt lat="42.5967292" lon="12.2402731"><ele>74.0</ele><time>2026-04-12T08:17:46.895Z</time></trkpt><trkpt lat="42.5966553" lon="12.2403442"><ele>74.0</ele><time>2026-04-12T08:17:48.888Z</time></trkpt><trkpt lat="42.5965659" lon="12.2403662"><ele>74.0</ele><time>2026-04-12T08:17:50.89Z</time></trkpt><trkpt lat="42.5964518" lon="12.240425"><ele>74.0</ele><time>2026-04-12T08:17:52.886Z</time></trkpt><trkpt lat="42.5964" lon="12.2404876"><ele>74.0</ele><time>2026-04-12T08:17:53.88Z</time></trkpt><trkpt lat="42.5963571" lon="12.2405689"><ele>74.0</ele><time>2026-04-12T08:17:54.878Z</time></trkpt><trkpt lat="42.5963074" lon="12.2406675"><ele>74.0</ele><time>2026-04-12T08:17:55.885Z</time></trkpt><trkpt lat="42.5962543" lon="12.2407759"><ele>74.0</ele><time>2026-04-12T08:17:56.886Z</time></trkpt><trkpt lat="42.5961961" lon="12.2408879"><ele>74.0</ele><time>2026-04-12T08:17:57.876Z</time></trkpt><trkpt lat="42.5961339" lon="12.2410066"><ele>74.0</ele><time>2026-04-12T08:17:58.891Z</time></trkpt><trkpt lat="42.5960688" lon="12.2411165"><ele>74.0</ele><time>2026-04-12T08:17:59.873Z</time></trkpt><trkpt lat="42.5960039" lon="12.2412417"><ele>74.0</ele><time>2026-04-12T08:18:00.879Z</time></trkpt><trkpt lat="42.5959393" lon="12.2413668"><ele>74.0</ele><time>2026-04-12T08:18:01.883Z</time></trkpt><trkpt lat="42.5958732" lon="12.2414988"><ele>74.0</ele><time>2026-04-12T08:18:02.87Z</time></trkpt><trkpt lat="42.5958073" lon="12.2416249"><ele>73.75</ele><time>2026-04-12T08:18:03.88Z</time></trkpt><trkpt lat="42.5957402" lon="12.2417588"><ele>73.5</ele><time>2026-04-12T08:18:04.887Z</time></trkpt><trkpt lat="42.5956754" lon="12.2418932"><ele>73.25</ele><time>2026-04-12T08:18:05.886Z</time></trkpt><trkpt lat="42.5956068" lon="12.242028"><ele>73.0</ele><time>2026-04-12T08:18:06.879Z</time></trkpt><trkpt lat="42.5955409" lon="12.2421629"><ele>73.0</ele><time>2026-04-12T08:18:07.884Z</time></trkpt><trkpt lat="42.5954759" lon="12.2422919"><ele>73.0</ele><time>2026-04-12T08:18:08.893Z</time></trkpt><trkpt lat="42.5954128" lon="12.2424145"><ele>73.0</ele><time>2026-04-12T08:18:09.875Z</time></trkpt><trkpt lat="42.5953474" lon="12.2425431"><ele>73.0</ele><time>2026-04-12T08:18:10.89Z</time></trkpt><trkpt lat="42.5952795" lon="12.2426711"><ele>73.25</ele><time>2026-04-12T08:18:11.873Z</time></trkpt><trkpt lat="42.5952128" lon="12.2428038"><ele>73.5</ele><time>2026-04-12T08:18:12.876Z</time></trkpt><trkpt lat="42.5951448" lon="12.2429353"><ele>73.75</ele><time>2026-04-12T08:18:13.883Z</time></trkpt><trkpt lat="42.595076" lon="12.2430685"><ele>74.0</ele><time>2026-04-12T08:18:14.881Z</time></trkpt><trkpt lat="42.5950087" lon="12.2432029"><ele>74.0</ele><time>2026-04-12T08:18:15.875Z</time></trkpt><trkpt lat="42.5949452" lon="12.2433304"><ele>74.0</ele><time>2026-04-12T08:18:16.895Z</time></trkpt><trkpt lat="42.5948832" lon="12.2434548"><ele>74.0</ele><time>2026-04-12T08:18:17.894Z</time></trkpt><trkpt lat="42.5948176" lon="12.243576"><ele>74.0</ele><time>2026-04-12T08:18:18.888Z</time></trkpt><trkpt lat="42.5947503" lon="12.2437066"><ele>74.0</ele><time>2026-04-12T08:18:19.87Z</time></trkpt><trkpt lat="42.5946825" lon="12.2438397"><ele>74.0</ele><time>2026-04-12T08:18:20.879Z</time></trkpt><trkpt lat="42.5946177" lon="12.2439744"><ele>74.0</ele><time>2026-04-12T08:18:21.878Z</time></trkpt><trkpt lat="42.5945592" lon="12.2440941"><ele>74.0</ele><time>2026-04-12T08:18:22.878Z</time></trkpt><trkpt lat="42.5945061" lon="12.2442101"><ele>74.0</ele><time>2026-04-12T08:18:23.884Z</time></trkpt><trkpt lat="42.5944514" lon="12.244318"><ele>73.83333333333334</ele><time>2026-04-12T08:18:24.878Z</time></trkpt><trkpt lat="42.5944015" lon="12.2444172"><ele>73.66666666666667</ele><time>2026-04-12T08:18:25.883Z</time></trkpt><trkpt lat="42.5943477" lon="12.2444944"><ele>73.5</ele><time>2026-04-12T08:18:26.887Z</time></trkpt><trkpt lat="42.5942846" lon="12.2445274"><ele>73.33333333333333</ele><time>2026-04-12T08:18:27.871Z</time></trkpt><trkpt lat="42.5942135" lon="12.2445452"><ele>73.16666666666666</ele><time>2026-04-12T08:18:28.892Z</time></trkpt><trkpt lat="42.5941239" lon="12.2445499"><ele>73.0</ele><time>2026-04-12T08:18:29.88Z</time></trkpt><trkpt lat="42.5940143" lon="12.244541"><ele>73.0</ele><time>2026-04-12T08:18:30.883Z</time></trkpt><trkpt lat="42.5938924" lon="12.2445325"><ele>73.0</ele><time>2026-04-12T08:18:31.882Z</time></trkpt><trkpt lat="42.5937555" lon="12.2445337"><ele>73.0</ele><time>2026-04-12T08:18:32.874Z</time></trkpt><trkpt lat="42.5936065" lon="12.2445453"><ele>73.0</ele><time>2026-04-12T08:18:33.875Z</time></trkpt><trkpt lat="42.5934549" lon="12.2445654"><ele>73.0</ele><time>2026-04-12T08:18:34.87Z</time></trkpt><trkpt lat="42.5932988" lon="12.2445922"><ele>73.0</ele><time>2026-04-12T08:18:35.874Z</time></trkpt><trkpt lat="42.5931466" lon="12.2446338"><ele>73.0</ele><time>2026-04-12T08:18:36.881Z</time></trkpt><trkpt lat="42.5929988" lon="12.2446841"><ele>73.0</ele><time>2026-04-12T08:18:37.885Z</time></trkpt><trkpt lat="42.592852" lon="12.2447334"><ele>73.0</ele><time>2026-04-12T08:18:38.872Z</time></trkpt><trkpt lat="42.5927102" lon="12.2447785"><ele>73.0</ele><time>2026-04-12T08:18:39.878Z</time></trkpt><trkpt lat="42.592567" lon="12.244831"><ele>73.0</ele><time>2026-04-12T08:18:40.886Z</time></trkpt><trkpt lat="42.592424" lon="12.2449047"><ele>73.0</ele><time>2026-04-12T08:18:41.904Z</time></trkpt><trkpt lat="42.5922853" lon="12.2449825"><ele>73.0</ele><time>2026-04-12T08:18:42.877Z</time></trkpt><trkpt lat="42.5921518" lon="12.2450655"><ele>73.0</ele><time>2026-04-12T08:18:43.87Z</time></trkpt><trkpt lat="42.5920185" lon="12.2451466"><ele>73.0</ele><time>2026-04-12T08:18:44.885Z</time></trkpt><trkpt lat="42.5918857" lon="12.2452218"><ele>73.0</ele><time>2026-04-12T08:18:45.876Z</time></trkpt><trkpt lat="42.5917583" lon="12.2452957"><ele>73.0</ele><time>2026-04-12T08:18:46.873Z</time></trkpt><trkpt lat="42.5916334" lon="12.2453794"><ele>73.0</ele><time>2026-04-12T08:18:47.877Z</time></trkpt><trkpt lat="42.5915124" lon="12.2454803"><ele>73.0</ele><time>2026-04-12T08:18:48.883Z</time></trkpt><trkpt lat="42.5913855" lon="12.2455953"><ele>73.0</ele><time>2026-04-12T08:18:49.885Z</time></trkpt><trkpt lat="42.5912575" lon="12.2457191"><ele>73.0</ele><time>2026-04-12T08:18:50.879Z</time></trkpt><trkpt lat="42.5911324" lon="12.2458545"><ele>73.0</ele><time>2026-04-12T08:18:51.874Z</time></trkpt><trkpt lat="42.5910034" lon="12.2459977"><ele>72.66666666666666</ele><time>2026-04-12T08:18:52.876Z</time></trkpt><trkpt lat="42.5908721" lon="12.2461495"><ele>72.33333333333333</ele><time>2026-04-12T08:18:53.873Z</time></trkpt><trkpt lat="42.5907423" lon="12.2462977"><ele>72.0</ele><time>2026-04-12T08:18:54.887Z</time></trkpt><trkpt lat="42.5906103" lon="12.2464472"><ele>71.66666666666667</ele><time>2026-04-12T08:18:55.88Z</time></trkpt><trkpt lat="42.5904764" lon="12.2466011"><ele>71.33333333333334</ele><time>2026-04-12T08:18:56.877Z</time></trkpt><trkpt lat="42.5903422" lon="12.2467599"><ele>71.0</ele><time>2026-04-12T08:18:57.88Z</time></trkpt><trkpt lat="42.5902048" lon="12.2469156"><ele>71.0</ele><time>2026-04-12T08:18:58.878Z</time></trkpt><trkpt lat="42.59007" lon="12.2470664"><ele>71.0</ele><time>2026-04-12T08:18:59.879Z</time></trkpt><trkpt lat="42.5899319" lon="12.2472144"><ele>71.0</ele><time>2026-04-12T08:19:00.864Z</time></trkpt><trkpt lat="42.5897895" lon="12.2473732"><ele>71.33333333333334</ele><time>2026-04-12T08:19:01.884Z</time></trkpt><trkpt lat="42.5896534" lon="12.2475273"><ele>71.66666666666667</ele><time>2026-04-12T08:19:02.869Z</time></trkpt><trkpt lat="42.589529" lon="12.2476724"><ele>72.0</ele><time>2026-04-12T08:19:03.878Z</time></trkpt><trkpt lat="42.5894134" lon="12.2478014"><ele>72.0</ele><time>2026-04-12T08:19:04.882Z</time></trkpt><trkpt lat="42.5893031" lon="12.247928"><ele>72.0</ele><time>2026-04-12T08:19:05.881Z</time></trkpt><trkpt lat="42.5891947" lon="12.2480577"><ele>72.0</ele><time>2026-04-12T08:19:06.887Z</time></trkpt><trkpt lat="42.5890874" lon="12.2481828"><ele>72.0</ele><time>2026-04-12T08:19:07.875Z</time></trkpt><trkpt lat="42.5889839" lon="12.2483"><ele>71.75</ele><time>2026-04-12T08:19:08.887Z</time></trkpt><trkpt lat="42.5888798" lon="12.2484147"><ele>71.5</ele><time>2026-04-12T08:19:09.883Z</time></trkpt><trkpt lat="42.5887789" lon="12.2485288"><ele>71.25</ele><time>2026-04-12T08:19:10.892Z</time></trkpt><trkpt lat="42.5886864" lon="12.2486359"><ele>71.0</ele><time>2026-04-12T08:19:11.882Z</time></trkpt><trkpt lat="42.5885951" lon="12.2487429"><ele>71.0</ele><time>2026-04-12T08:19:12.891Z</time></trkpt><trkpt lat="42.5885002" lon="12.2488515"><ele>71.0</ele><time>2026-04-12T08:19:13.89Z</time></trkpt><trkpt lat="42.5884061" lon="12.2489653"><ele>71.0</ele><time>2026-04-12T08:19:14.892Z</time></trkpt><trkpt lat="42.5883215" lon="12.2490793"><ele>71.0</ele><time>2026-04-12T08:19:15.878Z</time></trkpt><trkpt lat="42.5882422" lon="12.2492003"><ele>71.0</ele><time>2026-04-12T08:19:16.888Z</time></trkpt><trkpt lat="42.5881686" lon="12.2493302"><ele>71.0</ele><time>2026-04-12T08:19:17.884Z</time></trkpt><trkpt lat="42.5881065" lon="12.2494627"><ele>71.0</ele><time>2026-04-12T08:19:18.882Z</time></trkpt><trkpt lat="42.588052" lon="12.2495829"><ele>71.0</ele><time>2026-04-12T08:19:19.885Z</time></trkpt><trkpt lat="42.5879997" lon="12.2496949"><ele>71.0</ele><time>2026-04-12T08:19:20.879Z</time></trkpt><trkpt lat="42.5879516" lon="12.2497982"><ele>71.0</ele><time>2026-04-12T08:19:21.879Z</time></trkpt><trkpt lat="42.5879065" lon="12.2498937"><ele>71.0</ele><time>2026-04-12T08:19:22.884Z</time></trkpt><trkpt lat="42.5878629" lon="12.2499776"><ele>71.0</ele><time>2026-04-12T08:19:23.88Z</time></trkpt><trkpt lat="42.587824" lon="12.2500505"><ele>71.0</ele><time>2026-04-12T08:19:24.888Z</time></trkpt><trkpt lat="42.5877538" lon="12.2501858"><ele>71.0</ele><time>2026-04-12T08:19:26.882Z</time></trkpt><trkpt lat="42.587684" lon="12.2503187"><ele>71.39999999999999</ele><time>2026-04-12T08:19:28.884Z</time></trkpt><trkpt lat="42.5876348" lon="12.2504428"><ele>71.8</ele><time>2026-04-12T08:19:30.877Z</time></trkpt><trkpt lat="42.5875507" lon="12.2505209"><ele>72.19999999999999</ele><time>2026-04-12T08:19:32.886Z</time></trkpt><trkpt lat="42.5874153" lon="12.2505391"><ele>72.6</ele><time>2026-04-12T08:19:34.882Z</time></trkpt><trkpt lat="42.5873278" lon="12.2505247"><ele>73.0</ele><time>2026-04-12T08:19:35.879Z</time></trkpt><trkpt lat="42.5872327" lon="12.2505075"><ele>73.0</ele><time>2026-04-12T08:19:36.878Z</time></trkpt><trkpt lat="42.5871436" lon="12.2504891"><ele>73.0</ele><time>2026-04-12T08:19:37.873Z</time></trkpt><trkpt lat="42.587054" lon="12.2504756"><ele>73.0</ele><time>2026-04-12T08:19:38.882Z</time></trkpt><trkpt lat="42.586974" lon="12.2504674"><ele>73.0</ele><time>2026-04-12T08:19:39.891Z</time></trkpt><trkpt lat="42.5869008" lon="12.2504494"><ele>73.0</ele><time>2026-04-12T08:19:40.875Z</time></trkpt><trkpt lat="42.5868328" lon="12.2504335"><ele>73.0</ele><time>2026-04-12T08:19:41.881Z</time></trkpt><trkpt lat="42.5867572" lon="12.2504174"><ele>72.66666666666666</ele><time>2026-04-12T08:19:42.881Z</time></trkpt><trkpt lat="42.5866845" lon="12.2504107"><ele>72.33333333333333</ele><time>2026-04-12T08:19:43.878Z</time></trkpt><trkpt lat="42.586608" lon="12.250414"><ele>72.0</ele><time>2026-04-12T08:19:44.885Z</time></trkpt><trkpt lat="42.5865259" lon="12.2504174"><ele>71.66666666666667</ele><time>2026-04-12T08:19:45.889Z</time></trkpt><trkpt lat="42.5864405" lon="12.2504132"><ele>71.33333333333334</ele><time>2026-04-12T08:19:46.887Z</time></trkpt><trkpt lat="42.58635" lon="12.2504148"><ele>71.0</ele><time>2026-04-12T08:19:47.878Z</time></trkpt><trkpt lat="42.5862568" lon="12.2504268"><ele>70.83333333333334</ele><time>2026-04-12T08:19:48.885Z</time></trkpt><trkpt lat="42.5861714" lon="12.2504457"><ele>70.66666666666667</ele><time>2026-04-12T08:19:49.877Z</time></trkpt><trkpt lat="42.5860844" lon="12.2504718"><ele>70.5</ele><time>2026-04-12T08:19:50.89Z</time></trkpt><trkpt lat="42.5859964" lon="12.2504708"><ele>70.33333333333333</ele><time>2026-04-12T08:19:51.884Z</time></trkpt><trkpt lat="42.5859077" lon="12.2504464"><ele>70.16666666666666</ele><time>2026-04-12T08:19:52.876Z</time></trkpt><trkpt lat="42.5858307" lon="12.2503962"><ele>70.0</ele><time>2026-04-12T08:19:53.876Z</time></trkpt><trkpt lat="42.5857611" lon="12.2503149"><ele>70.0</ele><time>2026-04-12T08:19:54.884Z</time></trkpt><trkpt lat="42.5856995" lon="12.2502258"><ele>70.0</ele><time>2026-04-12T08:19:55.879Z</time></trkpt><trkpt lat="42.5856308" lon="12.2501258"><ele>70.0</ele><time>2026-04-12T08:19:56.874Z</time></trkpt><trkpt lat="42.5855523" lon="12.2500166"><ele>70.0</ele><time>2026-04-12T08:19:57.889Z</time></trkpt><trkpt lat="42.5854713" lon="12.2499005"><ele>70.0</ele><time>2026-04-12T08:19:58.886Z</time></trkpt><trkpt lat="42.5853828" lon="12.2497778"><ele>70.0</ele><time>2026-04-12T08:19:59.885Z</time></trkpt><trkpt lat="42.5852939" lon="12.2496443"><ele>70.0</ele><time>2026-04-12T08:20:00.886Z</time></trkpt><trkpt lat="42.5851959" lon="12.2494998"><ele>70.0</ele><time>2026-04-12T08:20:01.886Z</time></trkpt><trkpt lat="42.5850959" lon="12.2493514"><ele>70.0</ele><time>2026-04-12T08:20:02.887Z</time></trkpt><trkpt lat="42.5849967" lon="12.2492014"><ele>70.0</ele><time>2026-04-12T08:20:03.873Z</time></trkpt><trkpt lat="42.5849007" lon="12.2490527"><ele>70.0</ele><time>2026-04-12T08:20:04.884Z</time></trkpt><trkpt lat="42.5848133" lon="12.248915"><ele>70.0</ele><time>2026-04-12T08:20:05.895Z</time></trkpt><trkpt lat="42.584733" lon="12.2487825"><ele>70.0</ele><time>2026-04-12T08:20:06.894Z</time></trkpt><trkpt lat="42.5846557" lon="12.2486552"><ele>70.0</ele><time>2026-04-12T08:20:07.875Z</time></trkpt><trkpt lat="42.5845771" lon="12.2485315"><ele>70.0</ele><time>2026-04-12T08:20:08.881Z</time></trkpt><trkpt lat="42.5844949" lon="12.248408"><ele>70.0</ele><time>2026-04-12T08:20:09.881Z</time></trkpt><trkpt lat="42.5844169" lon="12.2482849"><ele>70.0</ele><time>2026-04-12T08:20:10.885Z</time></trkpt><trkpt lat="42.5843313" lon="12.2481645"><ele>70.2</ele><time>2026-04-12T08:20:11.886Z</time></trkpt><trkpt lat="42.5842503" lon="12.2480449"><ele>70.4</ele><time>2026-04-12T08:20:12.88Z</time></trkpt><trkpt lat="42.5841786" lon="12.2479358"><ele>70.6</ele><time>2026-04-12T08:20:13.888Z</time></trkpt><trkpt lat="42.584114" lon="12.2478376"><ele>70.8</ele><time>2026-04-12T08:20:14.893Z</time></trkpt><trkpt lat="42.5840528" lon="12.2477569"><ele>71.0</ele><time>2026-04-12T08:20:15.876Z</time></trkpt><trkpt lat="42.5840086" lon="12.2476957"><ele>71.0</ele><time>2026-04-12T08:20:16.884Z</time></trkpt><trkpt lat="42.5839359" lon="12.2476688"><ele>71.0</ele><time>2026-04-12T08:20:25.877Z</time></trkpt><trkpt lat="42.5839096" lon="12.247834"><ele>71.0</ele><time>2026-04-12T08:20:27.876Z</time></trkpt><trkpt lat="42.5839196" lon="12.247957"><ele>71.0</ele><time>2026-04-12T08:20:28.89Z</time></trkpt><trkpt lat="42.5839283" lon="12.2480871"><ele>71.0</ele><time>2026-04-12T08:20:29.877Z</time></trkpt><trkpt lat="42.583939" lon="12.2482377"><ele>70.75</ele><time>2026-04-12T08:20:30.878Z</time></trkpt><trkpt lat="42.5839473" lon="12.2483976"><ele>70.5</ele><time>2026-04-12T08:20:31.882Z</time></trkpt><trkpt lat="42.5839548" lon="12.2485651"><ele>70.25</ele><time>2026-04-12T08:20:32.897Z</time></trkpt><trkpt lat="42.5839672" lon="12.2487536"><ele>70.0</ele><time>2026-04-12T08:20:33.875Z</time></trkpt><trkpt lat="42.5839762" lon="12.2489579"><ele>70.0</ele><time>2026-04-12T08:20:34.894Z</time></trkpt><trkpt lat="42.5839867" lon="12.2491777"><ele>70.0</ele><time>2026-04-12T08:20:35.886Z</time></trkpt><trkpt lat="42.5839989" lon="12.2494228"><ele>70.0</ele><time>2026-04-12T08:20:36.889Z</time></trkpt><trkpt lat="42.5840085" lon="12.2496734"><ele>69.66666666666666</ele><time>2026-04-12T08:20:37.885Z</time></trkpt><trkpt lat="42.5840212" lon="12.2499254"><ele>69.33333333333333</ele><time>2026-04-12T08:20:38.889Z</time></trkpt><trkpt lat="42.5840338" lon="12.2501847"><ele>69.0</ele><time>2026-04-12T08:20:39.886Z</time></trkpt><trkpt lat="42.5840461" lon="12.2504417"><ele>68.33333333333333</ele><time>2026-04-12T08:20:40.878Z</time></trkpt><trkpt lat="42.5840566" lon="12.2507086"><ele>67.66666666666666</ele><time>2026-04-12T08:20:41.88Z</time></trkpt><trkpt lat="42.584073" lon="12.2509805"><ele>67.0</ele><time>2026-04-12T08:20:42.892Z</time></trkpt><trkpt lat="42.5840875" lon="12.251255"><ele>67.33333333333333</ele><time>2026-04-12T08:20:43.87Z</time></trkpt><trkpt lat="42.5841019" lon="12.2515319"><ele>67.66666666666667</ele><time>2026-04-12T08:20:44.893Z</time></trkpt><trkpt lat="42.5841125" lon="12.2518076"><ele>68.0</ele><time>2026-04-12T08:20:45.873Z</time></trkpt><trkpt lat="42.5841262" lon="12.2520849"><ele>68.33333333333334</ele><time>2026-04-12T08:20:46.883Z</time></trkpt><trkpt lat="42.5841406" lon="12.25236"><ele>68.66666666666667</ele><time>2026-04-12T08:20:47.884Z</time></trkpt><trkpt lat="42.584156" lon="12.2526331"><ele>69.0</ele><time>2026-04-12T08:20:48.877Z</time></trkpt><trkpt lat="42.5841699" lon="12.2529049"><ele>69.33333333333333</ele><time>2026-04-12T08:20:49.881Z</time></trkpt><trkpt lat="42.5841841" lon="12.2531704"><ele>69.66666666666666</ele><time>2026-04-12T08:20:50.9Z</time></trkpt><trkpt lat="42.5842029" lon="12.25343"><ele>70.0</ele><time>2026-04-12T08:20:51.876Z</time></trkpt><trkpt lat="42.5842314" lon="12.2536929"><ele>70.0</ele><time>2026-04-12T08:20:52.884Z</time></trkpt><trkpt lat="42.5842715" lon="12.2539549"><ele>70.0</ele><time>2026-04-12T08:20:53.89Z</time></trkpt><trkpt lat="42.584327" lon="12.254212"><ele>70.0</ele><time>2026-04-12T08:20:54.88Z</time></trkpt><trkpt lat="42.5843915" lon="12.2544697"><ele>70.0</ele><time>2026-04-12T08:20:55.891Z</time></trkpt><trkpt lat="42.5844529" lon="12.2547328"><ele>70.0</ele><time>2026-04-12T08:20:56.886Z</time></trkpt><trkpt lat="42.5845174" lon="12.2549935"><ele>70.0</ele><time>2026-04-12T08:20:57.878Z</time></trkpt><trkpt lat="42.5845824" lon="12.2552568"><ele>70.0</ele><time>2026-04-12T08:20:58.89Z</time></trkpt><trkpt lat="42.5846513" lon="12.2555295"><ele>70.0</ele><time>2026-04-12T08:20:59.883Z</time></trkpt><trkpt lat="42.5847195" lon="12.2558006"><ele>70.0</ele><time>2026-04-12T08:21:00.877Z</time></trkpt><trkpt lat="42.5847821" lon="12.2560673"><ele>70.0</ele><time>2026-04-12T08:21:01.884Z</time></trkpt><trkpt lat="42.5848458" lon="12.2563326"><ele>70.0</ele><time>2026-04-12T08:21:02.892Z</time></trkpt><trkpt lat="42.5849137" lon="12.2565979"><ele>70.0</ele><time>2026-04-12T08:21:03.888Z</time></trkpt><trkpt lat="42.5849786" lon="12.2568585"><ele>70.66666666666666</ele><time>2026-04-12T08:21:04.875Z</time></trkpt><trkpt lat="42.5850451" lon="12.257127"><ele>71.33333333333333</ele><time>2026-04-12T08:21:05.886Z</time></trkpt><trkpt lat="42.5851094" lon="12.2573963"><ele>72.0</ele><time>2026-04-12T08:21:06.891Z</time></trkpt><trkpt lat="42.5851783" lon="12.257667"><ele>73.33333333333333</ele><time>2026-04-12T08:21:07.885Z</time></trkpt><trkpt lat="42.5852469" lon="12.2579332"><ele>74.66666666666666</ele><time>2026-04-12T08:21:08.877Z</time></trkpt><trkpt lat="42.585315" lon="12.2582062"><ele>76.0</ele><time>2026-04-12T08:21:09.88Z</time></trkpt><trkpt lat="42.5853831" lon="12.2584799"><ele>77.66666666666666</ele><time>2026-04-12T08:21:10.885Z</time></trkpt><trkpt lat="42.5854541" lon="12.2587555"><ele>79.33333333333333</ele><time>2026-04-12T08:21:11.878Z</time></trkpt><trkpt lat="42.5855195" lon="12.2590326"><ele>81.0</ele><time>2026-04-12T08:21:12.899Z</time></trkpt><trkpt lat="42.5855852" lon="12.2592935"><ele>81.33333333333333</ele><time>2026-04-12T08:21:13.888Z</time></trkpt><trkpt lat="42.5856513" lon="12.2595513"><ele>81.66666666666666</ele><time>2026-04-12T08:21:14.889Z</time></trkpt><trkpt lat="42.5857082" lon="12.2597992"><ele>82.0</ele><time>2026-04-12T08:21:15.877Z</time></trkpt><trkpt lat="42.5857677" lon="12.2600453"><ele>82.0</ele><time>2026-04-12T08:21:16.878Z</time></trkpt><trkpt lat="42.5858267" lon="12.2602643"><ele>82.0</ele><time>2026-04-12T08:21:17.882Z</time></trkpt><trkpt lat="42.5858808" lon="12.2604596"><ele>82.0</ele><time>2026-04-12T08:21:18.874Z</time></trkpt><trkpt lat="42.5859478" lon="12.2606216"><ele>81.75</ele><time>2026-04-12T08:21:19.879Z</time></trkpt><trkpt lat="42.5860293" lon="12.2607407"><ele>81.5</ele><time>2026-04-12T08:21:20.883Z</time></trkpt><trkpt lat="42.5861337" lon="12.2608498"><ele>81.25</ele><time>2026-04-12T08:21:21.879Z</time></trkpt><trkpt lat="42.5862438" lon="12.2609366"><ele>81.0</ele><time>2026-04-12T08:21:22.889Z</time></trkpt><trkpt lat="42.5863661" lon="12.2609945"><ele>82.0</ele><time>2026-04-12T08:21:23.894Z</time></trkpt><trkpt lat="42.5864938" lon="12.2610406"><ele>83.0</ele><time>2026-04-12T08:21:24.89Z</time></trkpt><trkpt lat="42.5866254" lon="12.2610487"><ele>84.0</ele><time>2026-04-12T08:21:25.883Z</time></trkpt><trkpt lat="42.5867583" lon="12.2610497"><ele>85.0</ele><time>2026-04-12T08:21:26.885Z</time></trkpt><trkpt lat="42.5868887" lon="12.2610521"><ele>85.0</ele><time>2026-04-12T08:21:27.893Z</time></trkpt><trkpt lat="42.5870092" lon="12.2610607"><ele>85.0</ele><time>2026-04-12T08:21:28.887Z</time></trkpt><trkpt lat="42.5871298" lon="12.2610709"><ele>85.0</ele><time>2026-04-12T08:21:29.875Z</time></trkpt><trkpt lat="42.5872374" lon="12.2610868"><ele>85.0</ele><time>2026-04-12T08:21:30.89Z</time></trkpt><trkpt lat="42.5873469" lon="12.2610976"><ele>85.75</ele><time>2026-04-12T08:21:31.885Z</time></trkpt><trkpt lat="42.5874622" lon="12.2610999"><ele>86.5</ele><time>2026-04-12T08:21:32.882Z</time></trkpt><trkpt lat="42.5875728" lon="12.2611091"><ele>87.25</ele><time>2026-04-12T08:21:33.891Z</time></trkpt><trkpt lat="42.5876909" lon="12.2611122"><ele>88.0</ele><time>2026-04-12T08:21:34.886Z</time></trkpt><trkpt lat="42.5878109" lon="12.2611207"><ele>88.25</ele><time>2026-04-12T08:21:35.886Z</time></trkpt><trkpt lat="42.5879296" lon="12.2611282"><ele>88.5</ele><time>2026-04-12T08:21:36.883Z</time></trkpt><trkpt lat="42.5880466" lon="12.2611374"><ele>88.75</ele><time>2026-04-12T08:21:37.89Z</time></trkpt><trkpt lat="42.5881708" lon="12.2611411"><ele>89.0</ele><time>2026-04-12T08:21:38.885Z</time></trkpt><trkpt lat="42.5882926" lon="12.2611495"><ele>89.0</ele><time>2026-04-12T08:21:39.868Z</time></trkpt><trkpt lat="42.5884121" lon="12.2611611"><ele>89.0</ele><time>2026-04-12T08:21:40.868Z</time></trkpt><trkpt lat="42.5885247" lon="12.2611726"><ele>89.0</ele><time>2026-04-12T08:21:41.89Z</time></trkpt><trkpt lat="42.5886278" lon="12.2611815"><ele>89.0</ele><time>2026-04-12T08:21:42.894Z</time></trkpt><trkpt lat="42.5887266" lon="12.2611934"><ele>89.0</ele><time>2026-04-12T08:21:43.885Z</time></trkpt><trkpt lat="42.5888081" lon="12.2612016"><ele>89.16666666666667</ele><time>2026-04-12T08:21:44.876Z</time></trkpt><trkpt lat="42.5888769" lon="12.2612139"><ele>89.33333333333334</ele><time>2026-04-12T08:21:45.885Z</time></trkpt><trkpt lat="42.5889866" lon="12.2612678"><ele>89.5</ele><time>2026-04-12T08:21:47.888Z</time></trkpt><trkpt lat="42.5890517" lon="12.2612953"><ele>89.66666666666667</ele><time>2026-04-12T08:21:48.884Z</time></trkpt><trkpt lat="42.589127" lon="12.2612992"><ele>89.83333333333333</ele><time>2026-04-12T08:21:49.896Z</time></trkpt><trkpt lat="42.5892059" lon="12.2612738"><ele>90.0</ele><time>2026-04-12T08:21:50.881Z</time></trkpt><trkpt lat="42.5892892" lon="12.2612521"><ele>90.0</ele><time>2026-04-12T08:21:51.89Z</time></trkpt><trkpt lat="42.5893794" lon="12.261245"><ele>90.0</ele><time>2026-04-12T08:21:52.888Z</time></trkpt><trkpt lat="42.5894839" lon="12.2612501"><ele>90.0</ele><time>2026-04-12T08:21:53.875Z</time></trkpt><trkpt lat="42.5895954" lon="12.2612641"><ele>90.0</ele><time>2026-04-12T08:21:54.879Z</time></trkpt><trkpt lat="42.5897146" lon="12.2612756"><ele>90.0</ele><time>2026-04-12T08:21:55.872Z</time></trkpt><trkpt lat="42.5898247" lon="12.2612877"><ele>89.8</ele><time>2026-04-12T08:21:56.876Z</time></trkpt><trkpt lat="42.5899314" lon="12.2612985"><ele>89.6</ele><time>2026-04-12T08:21:57.883Z</time></trkpt><trkpt lat="42.5900317" lon="12.2613106"><ele>89.4</ele><time>2026-04-12T08:21:58.883Z</time></trkpt><trkpt lat="42.5901315" lon="12.2613253"><ele>89.2</ele><time>2026-04-12T08:21:59.867Z</time></trkpt><trkpt lat="42.5902357" lon="12.2613346"><ele>89.0</ele><time>2026-04-12T08:22:00.893Z</time></trkpt><trkpt lat="42.5903349" lon="12.2613483"><ele>89.2</ele><time>2026-04-12T08:22:01.883Z</time></trkpt><trkpt lat="42.5904356" lon="12.2613661"><ele>89.4</ele><time>2026-04-12T08:22:02.883Z</time></trkpt><trkpt lat="42.5905359" lon="12.261381"><ele>89.6</ele><time>2026-04-12T08:22:03.879Z</time></trkpt><trkpt lat="42.5906336" lon="12.2613894"><ele>89.8</ele><time>2026-04-12T08:22:04.877Z</time></trkpt><trkpt lat="42.5907297" lon="12.2614008"><ele>90.0</ele><time>2026-04-12T08:22:05.891Z</time></trkpt><trkpt lat="42.5908285" lon="12.2614141"><ele>90.0</ele><time>2026-04-12T08:22:06.883Z</time></trkpt><trkpt lat="42.590931" lon="12.2614289"><ele>90.0</ele><time>2026-04-12T08:22:07.869Z</time></trkpt><trkpt lat="42.5910391" lon="12.2614428"><ele>90.0</ele><time>2026-04-12T08:22:08.873Z</time></trkpt><trkpt lat="42.591152" lon="12.2614605"><ele>90.0</ele><time>2026-04-12T08:22:09.871Z</time></trkpt><trkpt lat="42.5912725" lon="12.2614734"><ele>90.0</ele><time>2026-04-12T08:22:10.878Z</time></trkpt><trkpt lat="42.5913918" lon="12.261493"><ele>90.0</ele><time>2026-04-12T08:22:11.883Z</time></trkpt><trkpt lat="42.5915159" lon="12.2615092"><ele>90.0</ele><time>2026-04-12T08:22:12.886Z</time></trkpt><trkpt lat="42.5916365" lon="12.2615257"><ele>90.0</ele><time>2026-04-12T08:22:13.882Z</time></trkpt><trkpt lat="42.5917577" lon="12.2615406"><ele>90.0</ele><time>2026-04-12T08:22:14.889Z</time></trkpt><trkpt lat="42.5918756" lon="12.26155"><ele>90.0</ele><time>2026-04-12T08:22:15.882Z</time></trkpt><trkpt lat="42.5919824" lon="12.2615603"><ele>90.0</ele><time>2026-04-12T08:22:16.904Z</time></trkpt><trkpt lat="42.5920855" lon="12.2615658"><ele>90.0</ele><time>2026-04-12T08:22:17.879Z</time></trkpt><trkpt lat="42.592186" lon="12.2615801"><ele>90.0</ele><time>2026-04-12T08:22:18.893Z</time></trkpt><trkpt lat="42.5922931" lon="12.2615973"><ele>90.0</ele><time>2026-04-12T08:22:19.883Z</time></trkpt><trkpt lat="42.5924018" lon="12.2616079"><ele>90.5</ele><time>2026-04-12T08:22:20.887Z</time></trkpt><trkpt lat="42.5925175" lon="12.261622"><ele>91.0</ele><time>2026-04-12T08:22:21.871Z</time></trkpt><trkpt lat="42.5926359" lon="12.2616378"><ele>91.5</ele><time>2026-04-12T08:22:22.882Z</time></trkpt><trkpt lat="42.592749" lon="12.2616492"><ele>92.0</ele><time>2026-04-12T08:22:23.872Z</time></trkpt><trkpt lat="42.5928582" lon="12.2616622"><ele>92.0</ele><time>2026-04-12T08:22:24.879Z</time></trkpt><trkpt lat="42.5929613" lon="12.2616709"><ele>92.0</ele><time>2026-04-12T08:22:25.884Z</time></trkpt><trkpt lat="42.5930665" lon="12.2616784"><ele>92.0</ele><time>2026-04-12T08:22:26.884Z</time></trkpt><trkpt lat="42.593176" lon="12.2616821"><ele>92.0</ele><time>2026-04-12T08:22:27.871Z</time></trkpt><trkpt lat="42.5932852" lon="12.2616944"><ele>92.0</ele><time>2026-04-12T08:22:28.882Z</time></trkpt><trkpt lat="42.593398" lon="12.2617069"><ele>92.0</ele><time>2026-04-12T08:22:29.88Z</time></trkpt><trkpt lat="42.5935128" lon="12.261713"><ele>92.0</ele><time>2026-04-12T08:22:30.875Z</time></trkpt><trkpt lat="42.5936275" lon="12.2617204"><ele>92.0</ele><time>2026-04-12T08:22:31.869Z</time></trkpt><trkpt lat="42.5937403" lon="12.2617314"><ele>92.0</ele><time>2026-04-12T08:22:32.872Z</time></trkpt><trkpt lat="42.5938506" lon="12.2617442"><ele>92.0</ele><time>2026-04-12T08:22:33.878Z</time></trkpt><trkpt lat="42.5939629" lon="12.2617548"><ele>92.0</ele><time>2026-04-12T08:22:34.886Z</time></trkpt><trkpt lat="42.5940804" lon="12.2617641"><ele>92.0</ele><time>2026-04-12T08:22:35.873Z</time></trkpt><trkpt lat="42.5941983" lon="12.261773"><ele>92.0</ele><time>2026-04-12T08:22:36.873Z</time></trkpt><trkpt lat="42.5943184" lon="12.2617863"><ele>92.0</ele><time>2026-04-12T08:22:37.878Z</time></trkpt><trkpt lat="42.5944424" lon="12.2617979"><ele>92.0</ele><time>2026-04-12T08:22:38.889Z</time></trkpt><trkpt lat="42.5945603" lon="12.2618084"><ele>92.0</ele><time>2026-04-12T08:22:39.874Z</time></trkpt><trkpt lat="42.5946754" lon="12.2618186"><ele>92.0</ele><time>2026-04-12T08:22:40.887Z</time></trkpt><trkpt lat="42.5947898" lon="12.2618319"><ele>91.8</ele><time>2026-04-12T08:22:41.873Z</time></trkpt><trkpt lat="42.5949001" lon="12.2618434"><ele>91.6</ele><time>2026-04-12T08:22:42.889Z</time></trkpt><trkpt lat="42.5950087" lon="12.2618508"><ele>91.39999999999999</ele><time>2026-04-12T08:22:43.884Z</time></trkpt><trkpt lat="42.5951138" lon="12.2618574"><ele>91.19999999999999</ele><time>2026-04-12T08:22:44.893Z</time></trkpt><trkpt lat="42.5952192" lon="12.261868"><ele>91.0</ele><time>2026-04-12T08:22:45.897Z</time></trkpt><trkpt lat="42.5953277" lon="12.2618786"><ele>91.0</ele><time>2026-04-12T08:22:46.884Z</time></trkpt><trkpt lat="42.5954339" lon="12.2618877"><ele>91.0</ele><time>2026-04-12T08:22:47.883Z</time></trkpt><trkpt lat="42.5955424" lon="12.2618996"><ele>91.0</ele><time>2026-04-12T08:22:48.886Z</time></trkpt><trkpt lat="42.5956509" lon="12.2619088"><ele>91.0</ele><time>2026-04-12T08:22:49.886Z</time></trkpt><trkpt lat="42.5957606" lon="12.2619196"><ele>91.0</ele><time>2026-04-12T08:22:50.89Z</time></trkpt><trkpt lat="42.5958679" lon="12.2619283"><ele>91.0</ele><time>2026-04-12T08:22:51.868Z</time></trkpt><trkpt lat="42.5959747" lon="12.2619358"><ele>91.0</ele><time>2026-04-12T08:22:52.886Z</time></trkpt><trkpt lat="42.5960821" lon="12.2619435"><ele>91.0</ele><time>2026-04-12T08:22:53.886Z</time></trkpt><trkpt lat="42.5961886" lon="12.2619525"><ele>91.0</ele><time>2026-04-12T08:22:54.883Z</time></trkpt><trkpt lat="42.5962943" lon="12.2619588"><ele>91.0</ele><time>2026-04-12T08:22:55.878Z</time></trkpt><trkpt lat="42.5963968" lon="12.2619598"><ele>90.83333333333333</ele><time>2026-04-12T08:22:56.891Z</time></trkpt><trkpt lat="42.5964932" lon="12.2619547"><ele>90.66666666666666</ele><time>2026-04-12T08:22:57.881Z</time></trkpt><trkpt lat="42.596578" lon="12.2619499"><ele>90.5</ele><time>2026-04-12T08:22:58.893Z</time></trkpt><trkpt lat="42.5966603" lon="12.2619397"><ele>90.33333333333333</ele><time>2026-04-12T08:22:59.887Z</time></trkpt><trkpt lat="42.5967349" lon="12.2619328"><ele>90.16666666666667</ele><time>2026-04-12T08:23:00.886Z</time></trkpt><trkpt lat="42.5968408" lon="12.2619054"><ele>90.0</ele><time>2026-04-12T08:23:02.888Z</time></trkpt><trkpt lat="42.5968629" lon="12.2617784"><ele>90.0</ele><time>2026-04-12T08:23:05.877Z</time></trkpt><trkpt lat="42.5968411" lon="12.261651"><ele>90.0</ele><time>2026-04-12T08:23:07.894Z</time></trkpt><trkpt lat="42.5968254" lon="12.2615556"><ele>90.0</ele><time>2026-04-12T08:23:08.883Z</time></trkpt><trkpt lat="42.5968083" lon="12.2614495"><ele>90.0</ele><time>2026-04-12T08:23:09.889Z</time></trkpt><trkpt lat="42.5967951" lon="12.261335"><ele>90.0</ele><time>2026-04-12T08:23:10.889Z</time></trkpt><trkpt lat="42.5967867" lon="12.2612139"><ele>90.0</ele><time>2026-04-12T08:23:11.88Z</time></trkpt><trkpt lat="42.5967796" lon="12.2611052"><ele>89.66666666666667</ele><time>2026-04-12T08:23:12.891Z</time></trkpt><trkpt lat="42.5967657" lon="12.2610043"><ele>89.33333333333333</ele><time>2026-04-12T08:23:13.883Z</time></trkpt><trkpt lat="42.5967406" lon="12.2609016"><ele>89.0</ele><time>2026-04-12T08:23:14.881Z</time></trkpt><trkpt lat="42.5967094" lon="12.2607967"><ele>88.66666666666666</ele><time>2026-04-12T08:23:15.881Z</time></trkpt><trkpt lat="42.5966723" lon="12.2606948"><ele>88.33333333333333</ele><time>2026-04-12T08:23:16.882Z</time></trkpt><trkpt lat="42.5966369" lon="12.2605867"><ele>88.0</ele><time>2026-04-12T08:23:17.88Z</time></trkpt><trkpt lat="42.5966067" lon="12.2604903"><ele>87.66666666666666</ele><time>2026-04-12T08:23:18.892Z</time></trkpt><trkpt lat="42.5965774" lon="12.2603995"><ele>87.33333333333333</ele><time>2026-04-12T08:23:19.885Z</time></trkpt><trkpt lat="42.5965497" lon="12.2603049"><ele>87.0</ele><time>2026-04-12T08:23:20.889Z</time></trkpt><trkpt lat="42.596522" lon="12.2602154"><ele>86.66666666666667</ele><time>2026-04-12T08:23:21.882Z</time></trkpt><trkpt lat="42.5964895" lon="12.260137"><ele>86.33333333333334</ele><time>2026-04-12T08:23:22.889Z</time></trkpt><trkpt lat="42.596411" lon="12.2600175"><ele>86.0</ele><time>2026-04-12T08:23:24.881Z</time></trkpt><trkpt lat="42.5963547" lon="12.2599201"><ele>86.0</ele><time>2026-04-12T08:23:26.873Z</time></trkpt><trkpt lat="42.5964056" lon="12.2598267"><ele>86.0</ele><time>2026-04-12T08:23:29.881Z</time></trkpt><trkpt lat="42.5964976" lon="12.2597373"><ele>86.0</ele><time>2026-04-12T08:23:31.904Z</time></trkpt><trkpt lat="42.5966006" lon="12.2597328"><ele>86.0</ele><time>2026-04-12T08:23:33.86Z</time></trkpt><trkpt lat="42.5967154" lon="12.2597443"><ele>86.0</ele><time>2026-04-12T08:23:35.878Z</time></trkpt><trkpt lat="42.5968505" lon="12.2597651"><ele>86.19999999999999</ele><time>2026-04-12T08:23:37.871Z</time></trkpt><trkpt lat="42.5969314" lon="12.2597728"><ele>86.39999999999999</ele><time>2026-04-12T08:23:38.883Z</time></trkpt><trkpt lat="42.5970214" lon="12.2597755"><ele>86.6</ele><time>2026-04-12T08:23:39.878Z</time></trkpt><trkpt lat="42.597124" lon="12.2597782"><ele>86.8</ele><time>2026-04-12T08:23:40.882Z</time></trkpt><trkpt lat="42.5972283" lon="12.2597876"><ele>87.0</ele><time>2026-04-12T08:23:41.866Z</time></trkpt><trkpt lat="42.5973367" lon="12.2597925"><ele>87.19999999999999</ele><time>2026-04-12T08:23:42.871Z</time></trkpt><trkpt lat="42.5974463" lon="12.2597949"><ele>87.4</ele><time>2026-04-12T08:23:43.88Z</time></trkpt><trkpt lat="42.597548" lon="12.259795"><ele>87.6</ele><time>2026-04-12T08:23:44.873Z</time></trkpt><trkpt lat="42.5976531" lon="12.259798"><ele>87.80000000000001</ele><time>2026-04-12T08:23:45.881Z</time></trkpt><trkpt lat="42.5977574" lon="12.2598011"><ele>88.0</ele><time>2026-04-12T08:23:46.882Z</time></trkpt><trkpt lat="42.5978547" lon="12.2598033"><ele>88.0</ele><time>2026-04-12T08:23:47.882Z</time></trkpt><trkpt lat="42.5979514" lon="12.259807"><ele>88.0</ele><time>2026-04-12T08:23:48.885Z</time></trkpt><trkpt lat="42.5980409" lon="12.2598183"><ele>88.0</ele><time>2026-04-12T08:23:49.879Z</time></trkpt><trkpt lat="42.5981174" lon="12.2598158"><ele>88.0</ele><time>2026-04-12T08:23:50.879Z</time></trkpt><trkpt lat="42.5981811" lon="12.2597955"><ele>88.0</ele><time>2026-04-12T08:23:51.884Z</time></trkpt><trkpt lat="42.59824" lon="12.2597646"><ele>88.0</ele><time>2026-04-12T08:23:52.886Z</time></trkpt><trkpt lat="42.5983476" lon="12.2597461"><ele>88.0</ele><time>2026-04-12T08:23:54.893Z</time></trkpt><trkpt lat="42.5984361" lon="12.2598138"><ele>88.0</ele><time>2026-04-12T08:23:56.877Z</time></trkpt><trkpt lat="42.5984959" lon="12.2598427"><ele>88.0</ele><time>2026-04-12T08:23:57.894Z</time></trkpt><trkpt lat="42.5985644" lon="12.2598589"><ele>88.0</ele><time>2026-04-12T08:23:58.885Z</time></trkpt><trkpt lat="42.5986457" lon="12.2598666"><ele>88.0</ele><time>2026-04-12T08:23:59.886Z</time></trkpt><trkpt lat="42.5987313" lon="12.2598657"><ele>88.0</ele><time>2026-04-12T08:24:00.89Z</time></trkpt><trkpt lat="42.5988317" lon="12.2598704"><ele>88.4</ele><time>2026-04-12T08:24:01.884Z</time></trkpt><trkpt lat="42.5989294" lon="12.2598766"><ele>88.80000000000001</ele><time>2026-04-12T08:24:02.887Z</time></trkpt><trkpt lat="42.5990312" lon="12.2598772"><ele>89.2</ele><time>2026-04-12T08:24:03.876Z</time></trkpt><trkpt lat="42.5991356" lon="12.2598749"><ele>89.6</ele><time>2026-04-12T08:24:04.886Z</time></trkpt><trkpt lat="42.5992356" lon="12.2598775"><ele>90.0</ele><time>2026-04-12T08:24:05.875Z</time></trkpt><trkpt lat="42.5993394" lon="12.2598825"><ele>90.0</ele><time>2026-04-12T08:24:06.884Z</time></trkpt><trkpt lat="42.5994444" lon="12.2598927"><ele>90.0</ele><time>2026-04-12T08:24:07.888Z</time></trkpt><trkpt lat="42.5995538" lon="12.2598949"><ele>90.0</ele><time>2026-04-12T08:24:08.889Z</time></trkpt><trkpt lat="42.5996625" lon="12.2598979"><ele>90.0</ele><time>2026-04-12T08:24:09.883Z</time></trkpt><trkpt lat="42.5997696" lon="12.2599004"><ele>90.0</ele><time>2026-04-12T08:24:10.887Z</time></trkpt><trkpt lat="42.5998711" lon="12.2599027"><ele>90.2</ele><time>2026-04-12T08:24:11.881Z</time></trkpt><trkpt lat="42.5999752" lon="12.2599055"><ele>90.4</ele><time>2026-04-12T08:24:12.882Z</time></trkpt><trkpt lat="42.6000769" lon="12.2599001"><ele>90.6</ele><time>2026-04-12T08:24:13.88Z</time></trkpt><trkpt lat="42.6001721" lon="12.2598947"><ele>90.8</ele><time>2026-04-12T08:24:14.882Z</time></trkpt><trkpt lat="42.6002592" lon="12.2598944"><ele>91.0</ele><time>2026-04-12T08:24:15.872Z</time></trkpt><trkpt lat="42.6003457" lon="12.2598902"><ele>91.0</ele><time>2026-04-12T08:24:16.881Z</time></trkpt><trkpt lat="42.6004332" lon="12.2598878"><ele>91.0</ele><time>2026-04-12T08:24:17.879Z</time></trkpt><trkpt lat="42.6005229" lon="12.2598762"><ele>91.0</ele><time>2026-04-12T08:24:18.891Z</time></trkpt><trkpt lat="42.6006176" lon="12.2598545"><ele>91.0</ele><time>2026-04-12T08:24:19.883Z</time></trkpt><trkpt lat="42.6007098" lon="12.2598338"><ele>91.0</ele><time>2026-04-12T08:24:20.88Z</time></trkpt><trkpt lat="42.6007943" lon="12.2598198"><ele>91.0</ele><time>2026-04-12T08:24:21.891Z</time></trkpt><trkpt lat="42.6008735" lon="12.2598094"><ele>91.0</ele><time>2026-04-12T08:24:22.889Z</time></trkpt><trkpt lat="42.600946" lon="12.2597941"><ele>91.0</ele><time>2026-04-12T08:24:23.887Z</time></trkpt><trkpt lat="42.6010164" lon="12.2597734"><ele>91.0</ele><time>2026-04-12T08:24:24.879Z</time></trkpt><trkpt lat="42.6010895" lon="12.2597572"><ele>91.0</ele><time>2026-04-12T08:24:25.884Z</time></trkpt><trkpt lat="42.6011634" lon="12.2597417"><ele>91.0</ele><time>2026-04-12T08:24:26.876Z</time></trkpt><trkpt lat="42.6012471" lon="12.2597234"><ele>90.33333333333333</ele><time>2026-04-12T08:24:27.882Z</time></trkpt><trkpt lat="42.6013325" lon="12.2597031"><ele>89.66666666666666</ele><time>2026-04-12T08:24:28.877Z</time></trkpt><trkpt lat="42.6014125" lon="12.2596882"><ele>89.0</ele><time>2026-04-12T08:24:29.878Z</time></trkpt><trkpt lat="42.6014991" lon="12.259666"><ele>88.33333333333333</ele><time>2026-04-12T08:24:30.887Z</time></trkpt><trkpt lat="42.6015863" lon="12.259641"><ele>87.66666666666667</ele><time>2026-04-12T08:24:31.879Z</time></trkpt><trkpt lat="42.6016686" lon="12.2596195"><ele>87.0</ele><time>2026-04-12T08:24:32.888Z</time></trkpt><trkpt lat="42.6017417" lon="12.2596015"><ele>87.0</ele><time>2026-04-12T08:24:33.89Z</time></trkpt><trkpt lat="42.6018104" lon="12.2595883"><ele>87.0</ele><time>2026-04-12T08:24:34.877Z</time></trkpt><trkpt lat="42.6018763" lon="12.2595836"><ele>87.0</ele><time>2026-04-12T08:24:35.885Z</time></trkpt><trkpt lat="42.6019389" lon="12.2595742"><ele>87.0</ele><time>2026-04-12T08:24:36.883Z</time></trkpt><trkpt lat="42.6020648" lon="12.2595467"><ele>87.0</ele><time>2026-04-12T08:24:38.889Z</time></trkpt><trkpt lat="42.6021467" lon="12.2595404"><ele>87.0</ele><time>2026-04-12T08:24:40.878Z</time></trkpt><trkpt lat="42.6021774" lon="12.2594632"><ele>87.0</ele><time>2026-04-12T08:26:54.884Z</time></trkpt><trkpt lat="42.6021023" lon="12.2594786"><ele>87.0</ele><time>2026-04-12T08:26:59.89Z</time></trkpt><trkpt lat="42.602028" lon="12.2595473"><ele>87.0</ele><time>2026-04-12T08:27:02.891Z</time></trkpt><trkpt lat="42.6019486" lon="12.2595715"><ele>87.0</ele><time>2026-04-12T08:27:04.879Z</time></trkpt><trkpt lat="42.6018384" lon="12.2595679"><ele>87.0</ele><time>2026-04-12T08:27:06.899Z</time></trkpt><trkpt lat="42.6017731" lon="12.2595846"><ele>87.0</ele><time>2026-04-12T08:27:07.904Z</time></trkpt><trkpt lat="42.6017013" lon="12.2596038"><ele>87.0</ele><time>2026-04-12T08:27:08.885Z</time></trkpt><trkpt lat="42.6016217" lon="12.2596271"><ele>87.0</ele><time>2026-04-12T08:27:09.89Z</time></trkpt><trkpt lat="42.6015442" lon="12.2596491"><ele>87.0</ele><time>2026-04-12T08:27:10.885Z</time></trkpt><trkpt lat="42.6014662" lon="12.2596681"><ele>87.0</ele><time>2026-04-12T08:27:11.877Z</time></trkpt><trkpt lat="42.6013853" lon="12.2596844"><ele>87.0</ele><time>2026-04-12T08:27:12.896Z</time></trkpt><trkpt lat="42.6013123" lon="12.2597017"><ele>87.0</ele><time>2026-04-12T08:27:13.889Z</time></trkpt><trkpt lat="42.6012454" lon="12.2597102"><ele>87.0</ele><time>2026-04-12T08:27:14.877Z</time></trkpt><trkpt lat="42.6011823" lon="12.2597188"><ele>87.0</ele><time>2026-04-12T08:27:15.885Z</time></trkpt><trkpt lat="42.6011113" lon="12.2597297"><ele>87.0</ele><time>2026-04-12T08:27:16.89Z</time></trkpt><trkpt lat="42.6010344" lon="12.2597426"><ele>87.0</ele><time>2026-04-12T08:27:17.884Z</time></trkpt><trkpt lat="42.6009674" lon="12.2597655"><ele>87.0</ele><time>2026-04-12T08:27:18.874Z</time></trkpt><trkpt lat="42.6009035" lon="12.2597781"><ele>87.0</ele><time>2026-04-12T08:27:19.871Z</time></trkpt><trkpt lat="42.6008364" lon="12.2597919"><ele>87.0</ele><time>2026-04-12T08:27:20.878Z</time></trkpt><trkpt lat="42.6007636" lon="12.2598056"><ele>87.66666666666667</ele><time>2026-04-12T08:27:21.889Z</time></trkpt><trkpt lat="42.6006853" lon="12.2598219"><ele>88.33333333333333</ele><time>2026-04-12T08:27:22.892Z</time></trkpt><trkpt lat="42.6006089" lon="12.2598392"><ele>89.0</ele><time>2026-04-12T08:27:23.879Z</time></trkpt><trkpt lat="42.6005281" lon="12.259853"><ele>89.66666666666666</ele><time>2026-04-12T08:27:24.885Z</time></trkpt><trkpt lat="42.6004482" lon="12.2598748"><ele>90.33333333333333</ele><time>2026-04-12T08:27:25.885Z</time></trkpt><trkpt lat="42.6003672" lon="12.2598898"><ele>91.0</ele><time>2026-04-12T08:27:26.899Z</time></trkpt><trkpt lat="42.6002794" lon="12.25989"><ele>91.0</ele><time>2026-04-12T08:27:27.887Z</time></trkpt><trkpt lat="42.6001822" lon="12.2598887"><ele>91.0</ele><time>2026-04-12T08:27:28.877Z</time></trkpt><trkpt lat="42.6000872" lon="12.2598845"><ele>91.0</ele><time>2026-04-12T08:27:29.894Z</time></trkpt><trkpt lat="42.5999838" lon="12.2598832"><ele>91.0</ele><time>2026-04-12T08:27:30.88Z</time></trkpt><trkpt lat="42.5998782" lon="12.2598826"><ele>91.0</ele><time>2026-04-12T08:27:31.882Z</time></trkpt><trkpt lat="42.5997688" lon="12.2598806"><ele>91.0</ele><time>2026-04-12T08:27:32.88Z</time></trkpt><trkpt lat="42.5996616" lon="12.2598753"><ele>91.0</ele><time>2026-04-12T08:27:33.893Z</time></trkpt><trkpt lat="42.5995505" lon="12.2598721"><ele>91.0</ele><time>2026-04-12T08:27:34.886Z</time></trkpt><trkpt lat="42.599437" lon="12.2598721"><ele>91.0</ele><time>2026-04-12T08:27:35.888Z</time></trkpt><trkpt lat="42.5993215" lon="12.2598664"><ele>91.0</ele><time>2026-04-12T08:27:36.882Z</time></trkpt><trkpt lat="42.599205" lon="12.2598628"><ele>90.8</ele><time>2026-04-12T08:27:37.894Z</time></trkpt><trkpt lat="42.5990874" lon="12.2598601"><ele>90.6</ele><time>2026-04-12T08:27:38.879Z</time></trkpt><trkpt lat="42.5989801" lon="12.2598599"><ele>90.4</ele><time>2026-04-12T08:27:39.883Z</time></trkpt><trkpt lat="42.5988814" lon="12.2598571"><ele>90.2</ele><time>2026-04-12T08:27:40.883Z</time></trkpt><trkpt lat="42.5987887" lon="12.2598578"><ele>90.0</ele><time>2026-04-12T08:27:41.886Z</time></trkpt><trkpt lat="42.5987013" lon="12.2598592"><ele>89.71428571428571</ele><time>2026-04-12T08:27:42.879Z</time></trkpt><trkpt lat="42.5986177" lon="12.2598559"><ele>89.42857142857143</ele><time>2026-04-12T08:27:43.885Z</time></trkpt><trkpt lat="42.5985474" lon="12.2598473"><ele>89.14285714285714</ele><time>2026-04-12T08:27:44.873Z</time></trkpt><trkpt lat="42.5984818" lon="12.2598247"><ele>88.85714285714286</ele><time>2026-04-12T08:27:45.876Z</time></trkpt><trkpt lat="42.5984237" lon="12.259781"><ele>88.57142857142857</ele><time>2026-04-12T08:27:46.881Z</time></trkpt><trkpt lat="42.598356" lon="12.2597404"><ele>88.28571428571429</ele><time>2026-04-12T08:27:47.885Z</time></trkpt><trkpt lat="42.5982853" lon="12.2597265"><ele>88.0</ele><time>2026-04-12T08:27:48.887Z</time></trkpt><trkpt lat="42.5982191" lon="12.2597419"><ele>88.0</ele><time>2026-04-12T08:27:49.875Z</time></trkpt><trkpt lat="42.598146" lon="12.2597748"><ele>88.0</ele><time>2026-04-12T08:27:50.884Z</time></trkpt><trkpt lat="42.5980612" lon="12.2597987"><ele>88.0</ele><time>2026-04-12T08:27:51.88Z</time></trkpt><trkpt lat="42.5979631" lon="12.2597923"><ele>88.0</ele><time>2026-04-12T08:27:52.883Z</time></trkpt><trkpt lat="42.5978542" lon="12.259783"><ele>88.0</ele><time>2026-04-12T08:27:53.891Z</time></trkpt><trkpt lat="42.5977471" lon="12.2597735"><ele>87.75</ele><time>2026-04-12T08:27:54.877Z</time></trkpt><trkpt lat="42.5976352" lon="12.2597755"><ele>87.5</ele><time>2026-04-12T08:27:55.879Z</time></trkpt><trkpt lat="42.5975223" lon="12.2597703"><ele>87.25</ele><time>2026-04-12T08:27:56.874Z</time></trkpt><trkpt lat="42.5974021" lon="12.2597678"><ele>87.0</ele><time>2026-04-12T08:27:57.877Z</time></trkpt><trkpt lat="42.5972797" lon="12.259766"><ele>87.0</ele><time>2026-04-12T08:27:58.877Z</time></trkpt><trkpt lat="42.5971669" lon="12.2597637"><ele>87.0</ele><time>2026-04-12T08:27:59.899Z</time></trkpt><trkpt lat="42.5970579" lon="12.2597589"><ele>87.0</ele><time>2026-04-12T08:28:00.891Z</time></trkpt><trkpt lat="42.5969494" lon="12.2597535"><ele>87.0</ele><time>2026-04-12T08:28:01.884Z</time></trkpt><trkpt lat="42.5968499" lon="12.2597454"><ele>87.0</ele><time>2026-04-12T08:28:02.897Z</time></trkpt><trkpt lat="42.596761" lon="12.2597297"><ele>86.83333333333333</ele><time>2026-04-12T08:28:03.873Z</time></trkpt><trkpt lat="42.5966689" lon="12.259722"><ele>86.66666666666667</ele><time>2026-04-12T08:28:04.885Z</time></trkpt><trkpt lat="42.5965838" lon="12.2597234"><ele>86.5</ele><time>2026-04-12T08:28:05.882Z</time></trkpt><trkpt lat="42.5965035" lon="12.2597319"><ele>86.33333333333334</ele><time>2026-04-12T08:28:06.899Z</time></trkpt><trkpt lat="42.5964033" lon="12.2597409"><ele>86.16666666666667</ele><time>2026-04-12T08:28:08.881Z</time></trkpt><trkpt lat="42.596387" lon="12.2598537"><ele>86.0</ele><time>2026-04-12T08:28:12.885Z</time></trkpt><trkpt lat="42.5964137" lon="12.2599799"><ele>86.0</ele><time>2026-04-12T08:28:14.889Z</time></trkpt><trkpt lat="42.5964479" lon="12.2600535"><ele>86.0</ele><time>2026-04-12T08:28:15.906Z</time></trkpt><trkpt lat="42.5964824" lon="12.2601329"><ele>86.0</ele><time>2026-04-12T08:28:16.887Z</time></trkpt><trkpt lat="42.5965195" lon="12.2602313"><ele>86.0</ele><time>2026-04-12T08:28:17.889Z</time></trkpt><trkpt lat="42.5965584" lon="12.2603492"><ele>86.0</ele><time>2026-04-12T08:28:18.885Z</time></trkpt><trkpt lat="42.5965922" lon="12.2604601"><ele>86.0</ele><time>2026-04-12T08:28:19.884Z</time></trkpt><trkpt lat="42.596636" lon="12.2605754"><ele>86.4</ele><time>2026-04-12T08:28:20.886Z</time></trkpt><trkpt lat="42.5966699" lon="12.2606918"><ele>86.8</ele><time>2026-04-12T08:28:21.888Z</time></trkpt><trkpt lat="42.5967071" lon="12.2608123"><ele>87.2</ele><time>2026-04-12T08:28:22.889Z</time></trkpt><trkpt lat="42.5967414" lon="12.2609313"><ele>87.60000000000001</ele><time>2026-04-12T08:28:23.877Z</time></trkpt><trkpt lat="42.5967688" lon="12.2610487"><ele>88.0</ele><time>2026-04-12T08:28:24.885Z</time></trkpt><trkpt lat="42.596776" lon="12.2611748"><ele>88.0</ele><time>2026-04-12T08:28:25.878Z</time></trkpt><trkpt lat="42.5967813" lon="12.2613166"><ele>88.0</ele><time>2026-04-12T08:28:26.884Z</time></trkpt><trkpt lat="42.5968007" lon="12.2614497"><ele>88.0</ele><time>2026-04-12T08:28:27.883Z</time></trkpt><trkpt lat="42.5968206" lon="12.2615796"><ele>88.0</ele><time>2026-04-12T08:28:28.89Z</time></trkpt><trkpt lat="42.5968391" lon="12.2616867"><ele>88.0</ele><time>2026-04-12T08:28:29.881Z</time></trkpt><trkpt lat="42.5968609" lon="12.2618279"><ele>88.4</ele><time>2026-04-12T08:28:31.887Z</time></trkpt><trkpt lat="42.5969238" lon="12.2619263"><ele>88.80000000000001</ele><time>2026-04-12T08:28:34.886Z</time></trkpt><trkpt lat="42.597048" lon="12.2619273"><ele>89.2</ele><time>2026-04-12T08:28:36.877Z</time></trkpt><trkpt lat="42.5971314" lon="12.2619283"><ele>89.6</ele><time>2026-04-12T08:28:37.883Z</time></trkpt><trkpt lat="42.5972241" lon="12.2619196"><ele>90.0</ele><time>2026-04-12T08:28:38.886Z</time></trkpt><trkpt lat="42.5973313" lon="12.2619141"><ele>90.25</ele><time>2026-04-12T08:28:39.889Z</time></trkpt><trkpt lat="42.5974474" lon="12.2619024"><ele>90.5</ele><time>2026-04-12T08:28:40.892Z</time></trkpt><trkpt lat="42.5975758" lon="12.2618871"><ele>90.75</ele><time>2026-04-12T08:28:41.883Z</time></trkpt><trkpt lat="42.5977195" lon="12.2618696"><ele>91.0</ele><time>2026-04-12T08:28:42.89Z</time></trkpt><trkpt lat="42.597868" lon="12.261853"><ele>91.0</ele><time>2026-04-12T08:28:43.886Z</time></trkpt><trkpt lat="42.5980219" lon="12.2618254"><ele>91.0</ele><time>2026-04-12T08:28:44.878Z</time></trkpt><trkpt lat="42.5981746" lon="12.2617903"><ele>91.0</ele><time>2026-04-12T08:28:45.883Z</time></trkpt><trkpt lat="42.5983216" lon="12.2617441"><ele>91.0</ele><time>2026-04-12T08:28:46.888Z</time></trkpt><trkpt lat="42.5984647" lon="12.2616971"><ele>91.0</ele><time>2026-04-12T08:28:47.891Z</time></trkpt><trkpt lat="42.5986016" lon="12.2616586"><ele>91.0</ele><time>2026-04-12T08:28:48.886Z</time></trkpt><trkpt lat="42.5987348" lon="12.2616219"><ele>91.0</ele><time>2026-04-12T08:28:49.885Z</time></trkpt><trkpt lat="42.5988745" lon="12.2615785"><ele>91.25</ele><time>2026-04-12T08:28:50.88Z</time></trkpt><trkpt lat="42.5990185" lon="12.2615326"><ele>91.5</ele><time>2026-04-12T08:28:51.877Z</time></trkpt><trkpt lat="42.5991633" lon="12.2614838"><ele>91.75</ele><time>2026-04-12T08:28:52.881Z</time></trkpt><trkpt lat="42.5993078" lon="12.2614375"><ele>92.0</ele><time>2026-04-12T08:28:53.882Z</time></trkpt><trkpt lat="42.5994553" lon="12.2613888"><ele>92.0</ele><time>2026-04-12T08:28:54.879Z</time></trkpt><trkpt lat="42.5996049" lon="12.2613441"><ele>92.0</ele><time>2026-04-12T08:28:55.886Z</time></trkpt><trkpt lat="42.5997529" lon="12.2612983"><ele>92.0</ele><time>2026-04-12T08:28:56.887Z</time></trkpt><trkpt lat="42.5999054" lon="12.2612491"><ele>92.0</ele><time>2026-04-12T08:28:57.873Z</time></trkpt><trkpt lat="42.6000538" lon="12.2612001"><ele>92.0</ele><time>2026-04-12T08:28:58.878Z</time></trkpt><trkpt lat="42.6001988" lon="12.2611507"><ele>92.0</ele><time>2026-04-12T08:28:59.881Z</time></trkpt><trkpt lat="42.6003442" lon="12.2611024"><ele>92.25</ele><time>2026-04-12T08:29:00.892Z</time></trkpt><trkpt lat="42.6004912" lon="12.2610598"><ele>92.5</ele><time>2026-04-12T08:29:01.885Z</time></trkpt><trkpt lat="42.6006366" lon="12.2610164"><ele>92.75</ele><time>2026-04-12T08:29:02.888Z</time></trkpt><trkpt lat="42.6007821" lon="12.260972"><ele>93.0</ele><time>2026-04-12T08:29:03.883Z</time></trkpt><trkpt lat="42.6009271" lon="12.2609254"><ele>93.0</ele><time>2026-04-12T08:29:04.882Z</time></trkpt><trkpt lat="42.6010721" lon="12.2608786"><ele>93.0</ele><time>2026-04-12T08:29:05.888Z</time></trkpt><trkpt lat="42.6012148" lon="12.2608327"><ele>93.0</ele><time>2026-04-12T08:29:06.893Z</time></trkpt><trkpt lat="42.6013514" lon="12.2607916"><ele>93.0</ele><time>2026-04-12T08:29:07.893Z</time></trkpt><trkpt lat="42.6014771" lon="12.2607505"><ele>93.25</ele><time>2026-04-12T08:29:08.886Z</time></trkpt><trkpt lat="42.6015963" lon="12.2607157"><ele>93.5</ele><time>2026-04-12T08:29:09.884Z</time></trkpt><trkpt lat="42.6017166" lon="12.260674"><ele>93.75</ele><time>2026-04-12T08:29:10.892Z</time></trkpt><trkpt lat="42.6018241" lon="12.2606376"><ele>94.0</ele><time>2026-04-12T08:29:11.907Z</time></trkpt><trkpt lat="42.6019231" lon="12.2606015"><ele>93.4</ele><time>2026-04-12T08:29:12.886Z</time></trkpt><trkpt lat="42.60201" lon="12.2605673"><ele>92.80000000000001</ele><time>2026-04-12T08:29:13.887Z</time></trkpt><trkpt lat="42.6021109" lon="12.2605586"><ele>92.19999999999999</ele><time>2026-04-12T08:29:15.882Z</time></trkpt><trkpt lat="42.6021367" lon="12.2606737"><ele>91.6</ele><time>2026-04-12T08:29:18.885Z</time></trkpt><trkpt lat="42.6021241" lon="12.2607853"><ele>91.0</ele><time>2026-04-12T08:29:20.886Z</time></trkpt><trkpt lat="42.6021212" lon="12.2609506"><ele>91.0</ele><time>2026-04-12T08:29:22.882Z</time></trkpt><trkpt lat="42.6021177" lon="12.2611204"><ele>91.0</ele><time>2026-04-12T08:29:24.882Z</time></trkpt><trkpt lat="42.6021124" lon="12.2612227"><ele>91.0</ele><time>2026-04-12T08:29:25.883Z</time></trkpt><trkpt lat="42.6021049" lon="12.2613339"><ele>91.0</ele><time>2026-04-12T08:29:26.889Z</time></trkpt><trkpt lat="42.6021074" lon="12.2614468"><ele>91.0</ele><time>2026-04-12T08:29:27.886Z</time></trkpt><trkpt lat="42.6021074" lon="12.2615654"><ele>91.16666666666666</ele><time>2026-04-12T08:29:28.884Z</time></trkpt><trkpt lat="42.6021136" lon="12.2616789"><ele>91.33333333333333</ele><time>2026-04-12T08:29:29.894Z</time></trkpt><trkpt lat="42.602117" lon="12.2618002"><ele>91.5</ele><time>2026-04-12T08:29:30.885Z</time></trkpt><trkpt lat="42.6021233" lon="12.261924"><ele>91.66666666666667</ele><time>2026-04-12T08:29:31.89Z</time></trkpt><trkpt lat="42.6021216" lon="12.2620369"><ele>91.83333333333334</ele><time>2026-04-12T08:29:32.885Z</time></trkpt><trkpt lat="42.6021111" lon="12.2621315"><ele>92.0</ele><time>2026-04-12T08:29:33.885Z</time></trkpt><trkpt lat="42.602091" lon="12.2622215"><ele>92.5</ele><time>2026-04-12T08:29:34.889Z</time></trkpt><trkpt lat="42.60205" lon="12.2622987"><ele>93.0</ele><time>2026-04-12T08:29:35.88Z</time></trkpt><trkpt lat="42.6019958" lon="12.2623508"><ele>93.5</ele><time>2026-04-12T08:29:36.897Z</time></trkpt><trkpt lat="42.601928" lon="12.2623808"><ele>94.0</ele><time>2026-04-12T08:29:37.887Z</time></trkpt><trkpt lat="42.601846" lon="12.2623882"><ele>94.5</ele><time>2026-04-12T08:29:38.884Z</time></trkpt><trkpt lat="42.6017653" lon="12.2623857"><ele>95.0</ele><time>2026-04-12T08:29:39.882Z</time></trkpt><trkpt lat="42.6016792" lon="12.2623779"><ele>95.33333333333334</ele><time>2026-04-12T08:29:40.891Z</time></trkpt><trkpt lat="42.6015852" lon="12.2623582"><ele>95.66666666666667</ele><time>2026-04-12T08:29:41.88Z</time></trkpt><trkpt lat="42.6014918" lon="12.2623413"><ele>96.0</ele><time>2026-04-12T08:29:42.878Z</time></trkpt><trkpt lat="42.6014092" lon="12.2623424"><ele>96.33333333333334</ele><time>2026-04-12T08:29:43.887Z</time></trkpt><trkpt lat="42.6013356" lon="12.2623376"><ele>96.66666666666667</ele><time>2026-04-12T08:29:44.884Z</time></trkpt><trkpt lat="42.6012703" lon="12.2623266"><ele>97.0</ele><time>2026-04-12T08:29:45.876Z</time></trkpt><trkpt lat="42.6011917" lon="12.2623768"><ele>97.00000000000001</ele><time>2026-04-12T08:29:47.888Z</time></trkpt><trkpt lat="42.6011652" lon="12.2624895"><ele>97.0</ele><time>2026-04-12T08:29:49.89Z</time></trkpt><trkpt lat="42.6011722" lon="12.2625765"><ele>97.0</ele><time>2026-04-12T08:29:50.888Z</time></trkpt><trkpt lat="42.6011877" lon="12.2626943"><ele>97.0</ele><time>2026-04-12T08:29:51.876Z</time></trkpt><trkpt lat="42.601204" lon="12.262817"><ele>97.00000000000001</ele><time>2026-04-12T08:29:52.882Z</time></trkpt><trkpt lat="42.60122" lon="12.2629476"><ele>97.0</ele><time>2026-04-12T08:29:53.883Z</time></trkpt><trkpt lat="42.6012351" lon="12.2630913"><ele>96.75</ele><time>2026-04-12T08:29:54.877Z</time></trkpt><trkpt lat="42.601258" lon="12.2632409"><ele>96.5</ele><time>2026-04-12T08:29:55.881Z</time></trkpt><trkpt lat="42.6012853" lon="12.2633942"><ele>96.25</ele><time>2026-04-12T08:29:56.886Z</time></trkpt><trkpt lat="42.6013198" lon="12.2635539"><ele>96.0</ele><time>2026-04-12T08:29:57.877Z</time></trkpt><trkpt lat="42.6013612" lon="12.2637169"><ele>96.0</ele><time>2026-04-12T08:29:58.888Z</time></trkpt><trkpt lat="42.6013934" lon="12.2638791"><ele>96.0</ele><time>2026-04-12T08:29:59.879Z</time></trkpt><trkpt lat="42.6014256" lon="12.2640385"><ele>96.0</ele><time>2026-04-12T08:30:00.891Z</time></trkpt><trkpt lat="42.6014565" lon="12.2641903"><ele>96.0</ele><time>2026-04-12T08:30:01.89Z</time></trkpt><trkpt lat="42.6014888" lon="12.2643464"><ele>96.0</ele><time>2026-04-12T08:30:02.883Z</time></trkpt><trkpt lat="42.601524" lon="12.2645005"><ele>96.0</ele><time>2026-04-12T08:30:03.884Z</time></trkpt><trkpt lat="42.601554" lon="12.2646554"><ele>96.0</ele><time>2026-04-12T08:30:04.891Z</time></trkpt><trkpt lat="42.6015891" lon="12.2648105"><ele>96.0</ele><time>2026-04-12T08:30:05.888Z</time></trkpt><trkpt lat="42.6016203" lon="12.2649639"><ele>96.75</ele><time>2026-04-12T08:30:06.886Z</time></trkpt><trkpt lat="42.6016511" lon="12.2651253"><ele>97.5</ele><time>2026-04-12T08:30:07.891Z</time></trkpt><trkpt lat="42.6016855" lon="12.2652904"><ele>98.25</ele><time>2026-04-12T08:30:08.884Z</time></trkpt><trkpt lat="42.6017228" lon="12.2654515"><ele>99.0</ele><time>2026-04-12T08:30:09.882Z</time></trkpt><trkpt lat="42.6017543" lon="12.2656106"><ele>99.5</ele><time>2026-04-12T08:30:10.893Z</time></trkpt><trkpt lat="42.601785" lon="12.2657653"><ele>100.0</ele><time>2026-04-12T08:30:11.885Z</time></trkpt><trkpt lat="42.6018206" lon="12.2659233"><ele>100.5</ele><time>2026-04-12T08:30:12.883Z</time></trkpt><trkpt lat="42.6018536" lon="12.2660903"><ele>101.0</ele><time>2026-04-12T08:30:13.885Z</time></trkpt><trkpt lat="42.6018893" lon="12.2662559"><ele>101.0</ele><time>2026-04-12T08:30:14.89Z</time></trkpt><trkpt lat="42.6019248" lon="12.2664182"><ele>101.0</ele><time>2026-04-12T08:30:15.888Z</time></trkpt><trkpt lat="42.6019574" lon="12.2665689"><ele>101.0</ele><time>2026-04-12T08:30:16.881Z</time></trkpt><trkpt lat="42.6019872" lon="12.2667019"><ele>101.0</ele><time>2026-04-12T08:30:17.879Z</time></trkpt><trkpt lat="42.6020093" lon="12.2668214"><ele>101.0</ele><time>2026-04-12T08:30:18.885Z</time></trkpt><trkpt lat="42.6020326" lon="12.2669281"><ele>101.16666666666666</ele><time>2026-04-12T08:30:19.878Z</time></trkpt><trkpt lat="42.602054" lon="12.2670265"><ele>101.33333333333333</ele><time>2026-04-12T08:30:20.888Z</time></trkpt><trkpt lat="42.6020738" lon="12.2671092"><ele>101.5</ele><time>2026-04-12T08:30:21.881Z</time></trkpt><trkpt lat="42.6020883" lon="12.2672323"><ele>101.66666666666666</ele><time>2026-04-12T08:30:23.879Z</time></trkpt><trkpt lat="42.6020346" lon="12.267353"><ele>101.83333333333333</ele><time>2026-04-12T08:30:26.885Z</time></trkpt><trkpt lat="42.6019747" lon="12.2674014"><ele>102.0</ele><time>2026-04-12T08:30:27.881Z</time></trkpt><trkpt lat="42.6019007" lon="12.2674311"><ele>102.39999999999999</ele><time>2026-04-12T08:30:28.894Z</time></trkpt><trkpt lat="42.6018093" lon="12.2674583"><ele>102.8</ele><time>2026-04-12T08:30:29.877Z</time></trkpt><trkpt lat="42.6017097" lon="12.2675009"><ele>103.2</ele><time>2026-04-12T08:30:30.879Z</time></trkpt><trkpt lat="42.6016086" lon="12.2675511"><ele>103.6</ele><time>2026-04-12T08:30:31.883Z</time></trkpt><trkpt lat="42.6015005" lon="12.2675929"><ele>104.0</ele><time>2026-04-12T08:30:32.88Z</time></trkpt><trkpt lat="42.6014021" lon="12.2676293"><ele>104.0</ele><time>2026-04-12T08:30:33.884Z</time></trkpt><trkpt lat="42.6013018" lon="12.2676702"><ele>104.0</ele><time>2026-04-12T08:30:34.887Z</time></trkpt><trkpt lat="42.6012" lon="12.2677216"><ele>104.0</ele><time>2026-04-12T08:30:35.869Z</time></trkpt><trkpt lat="42.6011064" lon="12.2677671"><ele>104.0</ele><time>2026-04-12T08:30:36.874Z</time></trkpt><trkpt lat="42.6010137" lon="12.2678194"><ele>104.0</ele><time>2026-04-12T08:30:37.877Z</time></trkpt><trkpt lat="42.6009221" lon="12.2678704"><ele>104.0</ele><time>2026-04-12T08:30:38.872Z</time></trkpt><trkpt lat="42.6008305" lon="12.2679187"><ele>104.0</ele><time>2026-04-12T08:30:39.875Z</time></trkpt><trkpt lat="42.6007366" lon="12.2679756"><ele>104.0</ele><time>2026-04-12T08:30:40.879Z</time></trkpt><trkpt lat="42.6006402" lon="12.2680366"><ele>104.0</ele><time>2026-04-12T08:30:41.892Z</time></trkpt><trkpt lat="42.6005428" lon="12.2680984"><ele>104.0</ele><time>2026-04-12T08:30:42.885Z</time></trkpt><trkpt lat="42.600447" lon="12.26816"><ele>104.0</ele><time>2026-04-12T08:30:43.873Z</time></trkpt><trkpt lat="42.6003522" lon="12.2682226"><ele>104.0</ele><time>2026-04-12T08:30:44.889Z</time></trkpt><trkpt lat="42.6002544" lon="12.2682882"><ele>104.0</ele><time>2026-04-12T08:30:45.882Z</time></trkpt><trkpt lat="42.6001574" lon="12.2683558"><ele>104.0</ele><time>2026-04-12T08:30:46.896Z</time></trkpt><trkpt lat="42.6000589" lon="12.2684167"><ele>104.0</ele><time>2026-04-12T08:30:47.873Z</time></trkpt><trkpt lat="42.5999545" lon="12.2684835"><ele>104.0</ele><time>2026-04-12T08:30:48.878Z</time></trkpt><trkpt lat="42.5998515" lon="12.2685479"><ele>104.0</ele><time>2026-04-12T08:30:49.877Z</time></trkpt><trkpt lat="42.599749" lon="12.2686135"><ele>104.0</ele><time>2026-04-12T08:30:50.882Z</time></trkpt><trkpt lat="42.5996458" lon="12.2686752"><ele>104.0</ele><time>2026-04-12T08:30:51.874Z</time></trkpt><trkpt lat="42.5995437" lon="12.2687398"><ele>103.75</ele><time>2026-04-12T08:30:52.882Z</time></trkpt><trkpt lat="42.5994399" lon="12.2688018"><ele>103.5</ele><time>2026-04-12T08:30:53.89Z</time></trkpt><trkpt lat="42.5993392" lon="12.2688704"><ele>103.25</ele><time>2026-04-12T08:30:54.875Z</time></trkpt><trkpt lat="42.599234" lon="12.2689394"><ele>103.0</ele><time>2026-04-12T08:30:55.881Z</time></trkpt><trkpt lat="42.5991279" lon="12.2690109"><ele>103.75</ele><time>2026-04-12T08:30:56.882Z</time></trkpt><trkpt lat="42.5990143" lon="12.2690813"><ele>104.5</ele><time>2026-04-12T08:30:57.886Z</time></trkpt><trkpt lat="42.598899" lon="12.2691502"><ele>105.25</ele><time>2026-04-12T08:30:58.881Z</time></trkpt><trkpt lat="42.5987865" lon="12.2692203"><ele>106.0</ele><time>2026-04-12T08:30:59.886Z</time></trkpt><trkpt lat="42.5986722" lon="12.269296"><ele>105.25</ele><time>2026-04-12T08:31:00.882Z</time></trkpt><trkpt lat="42.5985595" lon="12.2693733"><ele>104.5</ele><time>2026-04-12T08:31:01.877Z</time></trkpt><trkpt lat="42.5984482" lon="12.2694477"><ele>103.75</ele><time>2026-04-12T08:31:02.883Z</time></trkpt><trkpt lat="42.5983443" lon="12.2695199"><ele>103.0</ele><time>2026-04-12T08:31:03.877Z</time></trkpt><trkpt lat="42.5982466" lon="12.2695825"><ele>103.0</ele><time>2026-04-12T08:31:04.888Z</time></trkpt><trkpt lat="42.5981514" lon="12.2696397"><ele>103.0</ele><time>2026-04-12T08:31:05.879Z</time></trkpt><trkpt lat="42.5980577" lon="12.2697037"><ele>103.0</ele><time>2026-04-12T08:31:06.888Z</time></trkpt><trkpt lat="42.5979616" lon="12.2697667"><ele>103.0</ele><time>2026-04-12T08:31:07.904Z</time></trkpt><trkpt lat="42.5978543" lon="12.2698242"><ele>103.0</ele><time>2026-04-12T08:31:08.899Z</time></trkpt><trkpt lat="42.5977436" lon="12.2698855"><ele>103.75</ele><time>2026-04-12T08:31:09.896Z</time></trkpt><trkpt lat="42.597626" lon="12.2699519"><ele>104.5</ele><time>2026-04-12T08:31:10.88Z</time></trkpt><trkpt lat="42.5975109" lon="12.2700187"><ele>105.25</ele><time>2026-04-12T08:31:11.881Z</time></trkpt><trkpt lat="42.597406" lon="12.2700716"><ele>106.0</ele><time>2026-04-12T08:31:12.883Z</time></trkpt><trkpt lat="42.5973054" lon="12.2701252"><ele>106.0</ele><time>2026-04-12T08:31:13.879Z</time></trkpt><trkpt lat="42.597218" lon="12.2701836"><ele>106.0</ele><time>2026-04-12T08:31:14.873Z</time></trkpt><trkpt lat="42.5971356" lon="12.2702339"><ele>106.0</ele><time>2026-04-12T08:31:15.871Z</time></trkpt><trkpt lat="42.5970609" lon="12.2702756"><ele>106.0</ele><time>2026-04-12T08:31:16.873Z</time></trkpt><trkpt lat="42.596998" lon="12.270296"><ele>106.0</ele><time>2026-04-12T08:31:17.889Z</time></trkpt><trkpt lat="42.5968799" lon="12.2703018"><ele>105.6</ele><time>2026-04-12T08:31:19.873Z</time></trkpt><trkpt lat="42.5967862" lon="12.2702562"><ele>105.19999999999999</ele><time>2026-04-12T08:31:21.879Z</time></trkpt><trkpt lat="42.5967495" lon="12.2701158"><ele>104.80000000000001</ele><time>2026-04-12T08:31:23.875Z</time></trkpt><trkpt lat="42.5967394" lon="12.2700211"><ele>104.4</ele><time>2026-04-12T08:31:24.883Z</time></trkpt><trkpt lat="42.596718" lon="12.2699125"><ele>104.0</ele><time>2026-04-12T08:31:25.881Z</time></trkpt><trkpt lat="42.5966939" lon="12.2697937"><ele>103.0</ele><time>2026-04-12T08:31:26.874Z</time></trkpt><trkpt lat="42.5966976" lon="12.2696891"><ele>102.0</ele><time>2026-04-12T08:31:27.876Z</time></trkpt><trkpt lat="42.5967126" lon="12.2695836"><ele>101.0</ele><time>2026-04-12T08:31:28.879Z</time></trkpt><trkpt lat="42.5967374" lon="12.2694892"><ele>100.0</ele><time>2026-04-12T08:31:29.878Z</time></trkpt><trkpt lat="42.5967525" lon="12.2693934"><ele>99.0</ele><time>2026-04-12T08:31:30.873Z</time></trkpt><trkpt lat="42.5967623" lon="12.2692968"><ele>98.0</ele><time>2026-04-12T08:31:31.885Z</time></trkpt><trkpt lat="42.5967768" lon="12.2691989"><ele>97.0</ele><time>2026-04-12T08:31:32.889Z</time></trkpt><trkpt lat="42.5968034" lon="12.2690932"><ele>97.00000000000001</ele><time>2026-04-12T08:31:33.88Z</time></trkpt><trkpt lat="42.5968329" lon="12.2689857"><ele>97.0</ele><time>2026-04-12T08:31:34.877Z</time></trkpt><trkpt lat="42.5968606" lon="12.2688785"><ele>97.0</ele><time>2026-04-12T08:31:35.876Z</time></trkpt><trkpt lat="42.596888" lon="12.2687638"><ele>97.0</ele><time>2026-04-12T08:31:36.886Z</time></trkpt><trkpt lat="42.5969188" lon="12.2686461"><ele>97.00000000000001</ele><time>2026-04-12T08:31:37.886Z</time></trkpt><trkpt lat="42.5969497" lon="12.2685222"><ele>97.0</ele><time>2026-04-12T08:31:38.892Z</time></trkpt><trkpt lat="42.5969794" lon="12.2683996"><ele>97.16666666666667</ele><time>2026-04-12T08:31:39.885Z</time></trkpt><trkpt lat="42.597007" lon="12.2682821"><ele>97.33333333333334</ele><time>2026-04-12T08:31:40.885Z</time></trkpt><trkpt lat="42.5970278" lon="12.2681713"><ele>97.5</ele><time>2026-04-12T08:31:41.882Z</time></trkpt><trkpt lat="42.597039" lon="12.2680743"><ele>97.66666666666666</ele><time>2026-04-12T08:31:42.885Z</time></trkpt><trkpt lat="42.5970338" lon="12.2679759"><ele>97.83333333333333</ele><time>2026-04-12T08:31:43.879Z</time></trkpt><trkpt lat="42.5970127" lon="12.2678676"><ele>98.0</ele><time>2026-04-12T08:31:44.884Z</time></trkpt><trkpt lat="42.5969927" lon="12.2677552"><ele>97.0</ele><time>2026-04-12T08:31:45.88Z</time></trkpt><trkpt lat="42.5969735" lon="12.2676398"><ele>96.0</ele><time>2026-04-12T08:31:46.886Z</time></trkpt><trkpt lat="42.5969565" lon="12.2675166"><ele>95.0</ele><time>2026-04-12T08:31:47.885Z</time></trkpt><trkpt lat="42.5969395" lon="12.2673899"><ele>94.0</ele><time>2026-04-12T08:31:48.883Z</time></trkpt><trkpt lat="42.5969229" lon="12.2672672"><ele>93.0</ele><time>2026-04-12T08:31:49.884Z</time></trkpt><trkpt lat="42.5969023" lon="12.2671434"><ele>93.0</ele><time>2026-04-12T08:31:50.883Z</time></trkpt><trkpt lat="42.5968851" lon="12.2670164"><ele>93.0</ele><time>2026-04-12T08:31:51.888Z</time></trkpt><trkpt lat="42.5968641" lon="12.2668891"><ele>93.0</ele><time>2026-04-12T08:31:52.886Z</time></trkpt><trkpt lat="42.5968447" lon="12.266758"><ele>93.0</ele><time>2026-04-12T08:31:53.873Z</time></trkpt><trkpt lat="42.5968188" lon="12.2666282"><ele>93.0</ele><time>2026-04-12T08:31:54.886Z</time></trkpt><trkpt lat="42.5967958" lon="12.2665079"><ele>93.0</ele><time>2026-04-12T08:31:55.885Z</time></trkpt><trkpt lat="42.5967744" lon="12.2663979"><ele>93.0</ele><time>2026-04-12T08:31:56.882Z</time></trkpt><trkpt lat="42.5967512" lon="12.2662873"><ele>93.0</ele><time>2026-04-12T08:31:57.876Z</time></trkpt><trkpt lat="42.5967304" lon="12.2661824"><ele>93.0</ele><time>2026-04-12T08:31:58.888Z</time></trkpt><trkpt lat="42.5967113" lon="12.2660651"><ele>93.0</ele><time>2026-04-12T08:31:59.881Z</time></trkpt><trkpt lat="42.5966873" lon="12.2659277"><ele>93.0</ele><time>2026-04-12T08:32:00.885Z</time></trkpt><trkpt lat="42.5966642" lon="12.2657966"><ele>93.0</ele><time>2026-04-12T08:32:01.875Z</time></trkpt><trkpt lat="42.596637" lon="12.2656627"><ele>93.0</ele><time>2026-04-12T08:32:02.885Z</time></trkpt><trkpt lat="42.5966155" lon="12.2655263"><ele>93.0</ele><time>2026-04-12T08:32:03.878Z</time></trkpt><trkpt lat="42.5965939" lon="12.2653883"><ele>93.0</ele><time>2026-04-12T08:32:04.892Z</time></trkpt><trkpt lat="42.5965681" lon="12.2652417"><ele>93.0</ele><time>2026-04-12T08:32:05.879Z</time></trkpt><trkpt lat="42.5965445" lon="12.265103"><ele>93.0</ele><time>2026-04-12T08:32:06.879Z</time></trkpt><trkpt lat="42.5965215" lon="12.2649614"><ele>93.0</ele><time>2026-04-12T08:32:07.892Z</time></trkpt><trkpt lat="42.5964951" lon="12.2648149"><ele>93.0</ele><time>2026-04-12T08:32:08.873Z</time></trkpt><trkpt lat="42.5964685" lon="12.2646673"><ele>93.0</ele><time>2026-04-12T08:32:09.879Z</time></trkpt><trkpt lat="42.5964437" lon="12.2645271"><ele>93.0</ele><time>2026-04-12T08:32:10.88Z</time></trkpt><trkpt lat="42.5964195" lon="12.2643845"><ele>93.0</ele><time>2026-04-12T08:32:11.88Z</time></trkpt><trkpt lat="42.5963913" lon="12.2642438"><ele>93.0</ele><time>2026-04-12T08:32:12.899Z</time></trkpt><trkpt lat="42.5963719" lon="12.2641049"><ele>93.0</ele><time>2026-04-12T08:32:13.873Z</time></trkpt><trkpt lat="42.5963555" lon="12.2639692"><ele>93.0</ele><time>2026-04-12T08:32:14.881Z</time></trkpt><trkpt lat="42.596342" lon="12.2638432"><ele>93.0</ele><time>2026-04-12T08:32:15.878Z</time></trkpt><trkpt lat="42.5963285" lon="12.2637205"><ele>92.80000000000001</ele><time>2026-04-12T08:32:16.892Z</time></trkpt><trkpt lat="42.5963122" lon="12.2635838"><ele>92.6</ele><time>2026-04-12T08:32:17.874Z</time></trkpt><trkpt lat="42.5962994" lon="12.2634367"><ele>92.4</ele><time>2026-04-12T08:32:18.877Z</time></trkpt><trkpt lat="42.5962801" lon="12.2633017"><ele>92.19999999999999</ele><time>2026-04-12T08:32:19.877Z</time></trkpt><trkpt lat="42.5962581" lon="12.2631718"><ele>92.0</ele><time>2026-04-12T08:32:20.88Z</time></trkpt><trkpt lat="42.5962395" lon="12.2630358"><ele>92.0</ele><time>2026-04-12T08:32:21.886Z</time></trkpt><trkpt lat="42.5962153" lon="12.2628959"><ele>92.0</ele><time>2026-04-12T08:32:22.883Z</time></trkpt><trkpt lat="42.5961912" lon="12.2627523"><ele>92.0</ele><time>2026-04-12T08:32:23.881Z</time></trkpt><trkpt lat="42.596172" lon="12.2626194"><ele>92.0</ele><time>2026-04-12T08:32:24.884Z</time></trkpt><trkpt lat="42.5961556" lon="12.2624948"><ele>92.0</ele><time>2026-04-12T08:32:25.879Z</time></trkpt><trkpt lat="42.59614" lon="12.2623746"><ele>91.83333333333334</ele><time>2026-04-12T08:32:26.88Z</time></trkpt><trkpt lat="42.5961246" lon="12.2622675"><ele>91.66666666666667</ele><time>2026-04-12T08:32:27.876Z</time></trkpt><trkpt lat="42.5961039" lon="12.2621665"><ele>91.5</ele><time>2026-04-12T08:32:28.884Z</time></trkpt><trkpt lat="42.5960892" lon="12.2620277"><ele>91.33333333333333</ele><time>2026-04-12T08:32:30.879Z</time></trkpt><trkpt lat="42.5961309" lon="12.2619633"><ele>91.16666666666666</ele><time>2026-04-12T08:32:34.886Z</time></trkpt><trkpt lat="42.5962329" lon="12.2619677"><ele>91.0</ele><time>2026-04-12T08:32:36.894Z</time></trkpt><trkpt lat="42.5963352" lon="12.2619768"><ele>90.8</ele><time>2026-04-12T08:32:38.888Z</time></trkpt><trkpt lat="42.5964597" lon="12.2619779"><ele>90.6</ele><time>2026-04-12T08:32:40.88Z</time></trkpt><trkpt lat="42.5965372" lon="12.2619763"><ele>90.4</ele><time>2026-04-12T08:32:41.883Z</time></trkpt><trkpt lat="42.5966161" lon="12.2619729"><ele>90.2</ele><time>2026-04-12T08:32:42.876Z</time></trkpt><trkpt lat="42.5967051" lon="12.2619695"><ele>90.0</ele><time>2026-04-12T08:32:43.875Z</time></trkpt><trkpt lat="42.5967942" lon="12.2619594"><ele>90.0</ele><time>2026-04-12T08:32:44.887Z</time></trkpt><trkpt lat="42.5968881" lon="12.2619577"><ele>90.0</ele><time>2026-04-12T08:32:45.879Z</time></trkpt><trkpt lat="42.5969921" lon="12.2619462"><ele>90.0</ele><time>2026-04-12T08:32:46.883Z</time></trkpt><trkpt lat="42.5971117" lon="12.26194"><ele>90.0</ele><time>2026-04-12T08:32:47.875Z</time></trkpt><trkpt lat="42.5972402" lon="12.2619354"><ele>90.0</ele><time>2026-04-12T08:32:48.887Z</time></trkpt><trkpt lat="42.597367" lon="12.2619279"><ele>90.25</ele><time>2026-04-12T08:32:49.882Z</time></trkpt><trkpt lat="42.5974927" lon="12.2619172"><ele>90.5</ele><time>2026-04-12T08:32:50.886Z</time></trkpt><trkpt lat="42.5976264" lon="12.261902"><ele>90.75</ele><time>2026-04-12T08:32:51.88Z</time></trkpt><trkpt lat="42.5977638" lon="12.2618863"><ele>91.0</ele><time>2026-04-12T08:32:52.884Z</time></trkpt><trkpt lat="42.5979008" lon="12.2618708"><ele>91.0</ele><time>2026-04-12T08:32:53.885Z</time></trkpt><trkpt lat="42.5980448" lon="12.2618391"><ele>91.0</ele><time>2026-04-12T08:32:54.875Z</time></trkpt><trkpt lat="42.5981828" lon="12.2618021"><ele>91.0</ele><time>2026-04-12T08:32:55.877Z</time></trkpt><trkpt lat="42.598328" lon="12.261757"><ele>91.0</ele><time>2026-04-12T08:32:56.876Z</time></trkpt><trkpt lat="42.5984743" lon="12.2617111"><ele>91.0</ele><time>2026-04-12T08:32:57.881Z</time></trkpt><trkpt lat="42.5986222" lon="12.2616612"><ele>91.0</ele><time>2026-04-12T08:32:58.888Z</time></trkpt><trkpt lat="42.5987692" lon="12.2616162"><ele>91.0</ele><time>2026-04-12T08:32:59.881Z</time></trkpt><trkpt lat="42.5989209" lon="12.2615664"><ele>91.33333333333333</ele><time>2026-04-12T08:33:00.889Z</time></trkpt><trkpt lat="42.5990758" lon="12.2615112"><ele>91.66666666666667</ele><time>2026-04-12T08:33:01.888Z</time></trkpt><trkpt lat="42.5992332" lon="12.2614588"><ele>92.0</ele><time>2026-04-12T08:33:02.881Z</time></trkpt><trkpt lat="42.5993916" lon="12.2614101"><ele>92.0</ele><time>2026-04-12T08:33:03.878Z</time></trkpt><trkpt lat="42.5995485" lon="12.2613588"><ele>92.0</ele><time>2026-04-12T08:33:04.878Z</time></trkpt><trkpt lat="42.5997035" lon="12.2613104"><ele>92.0</ele><time>2026-04-12T08:33:05.879Z</time></trkpt><trkpt lat="42.5998721" lon="12.2612536"><ele>92.0</ele><time>2026-04-12T08:33:06.885Z</time></trkpt><trkpt lat="42.6000479" lon="12.2611946"><ele>92.0</ele><time>2026-04-12T08:33:07.884Z</time></trkpt><trkpt lat="42.6002201" lon="12.2611433"><ele>92.0</ele><time>2026-04-12T08:33:08.879Z</time></trkpt><trkpt lat="42.6003963" lon="12.2610893"><ele>92.33333333333334</ele><time>2026-04-12T08:33:09.875Z</time></trkpt><trkpt lat="42.6005758" lon="12.2610335"><ele>92.66666666666667</ele><time>2026-04-12T08:33:10.884Z</time></trkpt><trkpt lat="42.6007506" lon="12.2609744"><ele>93.0</ele><time>2026-04-12T08:33:11.876Z</time></trkpt><trkpt lat="42.6009259" lon="12.2609218"><ele>93.0</ele><time>2026-04-12T08:33:12.881Z</time></trkpt><trkpt lat="42.6010972" lon="12.2608615"><ele>93.0</ele><time>2026-04-12T08:33:13.881Z</time></trkpt><trkpt lat="42.6012685" lon="12.260807"><ele>93.0</ele><time>2026-04-12T08:33:14.89Z</time></trkpt><trkpt lat="42.601442" lon="12.2607509"><ele>93.33333333333333</ele><time>2026-04-12T08:33:15.878Z</time></trkpt><trkpt lat="42.6016182" lon="12.2606923"><ele>93.66666666666666</ele><time>2026-04-12T08:33:16.881Z</time></trkpt><trkpt lat="42.6017897" lon="12.26064"><ele>94.0</ele><time>2026-04-12T08:33:17.888Z</time></trkpt><trkpt lat="42.6019606" lon="12.2605842"><ele>92.33333333333333</ele><time>2026-04-12T08:33:18.874Z</time></trkpt><trkpt lat="42.6021285" lon="12.2605307"><ele>90.66666666666667</ele><time>2026-04-12T08:33:19.872Z</time></trkpt><trkpt lat="42.602303" lon="12.2604666"><ele>89.0</ele><time>2026-04-12T08:33:20.877Z</time></trkpt><trkpt lat="42.6024688" lon="12.260411"><ele>89.0</ele><time>2026-04-12T08:33:21.878Z</time></trkpt><trkpt lat="42.6026378" lon="12.2603602"><ele>89.0</ele><time>2026-04-12T08:33:22.875Z</time></trkpt><trkpt lat="42.6028081" lon="12.2603089"><ele>89.0</ele><time>2026-04-12T08:33:23.883Z</time></trkpt><trkpt lat="42.602977" lon="12.2602596"><ele>89.66666666666667</ele><time>2026-04-12T08:33:24.881Z</time></trkpt><trkpt lat="42.6031474" lon="12.2602068"><ele>90.33333333333333</ele><time>2026-04-12T08:33:25.879Z</time></trkpt><trkpt lat="42.603318" lon="12.2601453"><ele>91.0</ele><time>2026-04-12T08:33:26.878Z</time></trkpt><trkpt lat="42.6034899" lon="12.2600857"><ele>91.0</ele><time>2026-04-12T08:33:27.882Z</time></trkpt><trkpt lat="42.6036618" lon="12.2600264"><ele>91.0</ele><time>2026-04-12T08:33:28.878Z</time></trkpt><trkpt lat="42.6038376" lon="12.2599759"><ele>91.0</ele><time>2026-04-12T08:33:29.883Z</time></trkpt><trkpt lat="42.604014" lon="12.2599194"><ele>91.33333333333333</ele><time>2026-04-12T08:33:30.882Z</time></trkpt><trkpt lat="42.6041921" lon="12.2598592"><ele>91.66666666666667</ele><time>2026-04-12T08:33:31.885Z</time></trkpt><trkpt lat="42.6043716" lon="12.2598001"><ele>92.0</ele><time>2026-04-12T08:33:32.9Z</time></trkpt><trkpt lat="42.6045569" lon="12.2597426"><ele>91.33333333333334</ele><time>2026-04-12T08:33:33.871Z</time></trkpt><trkpt lat="42.6047423" lon="12.2596838"><ele>90.66666666666667</ele><time>2026-04-12T08:33:34.885Z</time></trkpt><trkpt lat="42.6049293" lon="12.2596231"><ele>90.0</ele><time>2026-04-12T08:33:35.884Z</time></trkpt><trkpt lat="42.6051191" lon="12.2595628"><ele>90.0</ele><time>2026-04-12T08:33:36.877Z</time></trkpt><trkpt lat="42.6053121" lon="12.2594964"><ele>90.0</ele><time>2026-04-12T08:33:37.876Z</time></trkpt><trkpt lat="42.6054999" lon="12.259436"><ele>90.0</ele><time>2026-04-12T08:33:38.886Z</time></trkpt><trkpt lat="42.6056887" lon="12.2593743"><ele>90.0</ele><time>2026-04-12T08:33:39.875Z</time></trkpt><trkpt lat="42.6058758" lon="12.2593124"><ele>90.0</ele><time>2026-04-12T08:33:40.881Z</time></trkpt><trkpt lat="42.6060643" lon="12.2592524"><ele>90.0</ele><time>2026-04-12T08:33:41.897Z</time></trkpt><trkpt lat="42.6062515" lon="12.2591937"><ele>90.66666666666667</ele><time>2026-04-12T08:33:42.88Z</time></trkpt><trkpt lat="42.606438" lon="12.2591319"><ele>91.33333333333334</ele><time>2026-04-12T08:33:43.875Z</time></trkpt><trkpt lat="42.6066225" lon="12.2590765"><ele>92.0</ele><time>2026-04-12T08:33:44.878Z</time></trkpt><trkpt lat="42.6068103" lon="12.2590164"><ele>92.0</ele><time>2026-04-12T08:33:45.884Z</time></trkpt><trkpt lat="42.6069977" lon="12.2589609"><ele>92.0</ele><time>2026-04-12T08:33:46.875Z</time></trkpt><trkpt lat="42.6071874" lon="12.2588989"><ele>92.0</ele><time>2026-04-12T08:33:47.875Z</time></trkpt><trkpt lat="42.6073786" lon="12.258837"><ele>91.66666666666667</ele><time>2026-04-12T08:33:48.891Z</time></trkpt><trkpt lat="42.6075712" lon="12.2587786"><ele>91.33333333333333</ele><time>2026-04-12T08:33:49.888Z</time></trkpt><trkpt lat="42.6077644" lon="12.2587148"><ele>91.0</ele><time>2026-04-12T08:33:50.893Z</time></trkpt><trkpt lat="42.607948" lon="12.2586527"><ele>90.66666666666666</ele><time>2026-04-12T08:33:51.88Z</time></trkpt><trkpt lat="42.608121" lon="12.2585967"><ele>90.33333333333333</ele><time>2026-04-12T08:33:52.874Z</time></trkpt><trkpt lat="42.6082793" lon="12.258544"><ele>90.0</ele><time>2026-04-12T08:33:53.884Z</time></trkpt><trkpt lat="42.6084329" lon="12.258489"><ele>90.0</ele><time>2026-04-12T08:33:54.875Z</time></trkpt><trkpt lat="42.6085753" lon="12.2584367"><ele>90.0</ele><time>2026-04-12T08:33:55.879Z</time></trkpt><trkpt lat="42.6087136" lon="12.2583886"><ele>90.0</ele><time>2026-04-12T08:33:56.875Z</time></trkpt><trkpt lat="42.6088608" lon="12.2583444"><ele>90.0</ele><time>2026-04-12T08:33:57.888Z</time></trkpt><trkpt lat="42.6090083" lon="12.2583031"><ele>89.66666666666667</ele><time>2026-04-12T08:33:58.88Z</time></trkpt><trkpt lat="42.6091597" lon="12.2582585"><ele>89.33333333333334</ele><time>2026-04-12T08:33:59.883Z</time></trkpt><trkpt lat="42.6093142" lon="12.2582085"><ele>89.0</ele><time>2026-04-12T08:34:00.873Z</time></trkpt><trkpt lat="42.6094776" lon="12.2581602"><ele>88.33333333333334</ele><time>2026-04-12T08:34:01.879Z</time></trkpt><trkpt lat="42.6096515" lon="12.2581073"><ele>87.66666666666667</ele><time>2026-04-12T08:34:02.873Z</time></trkpt><trkpt lat="42.6098308" lon="12.2580543"><ele>87.0</ele><time>2026-04-12T08:34:03.879Z</time></trkpt><trkpt lat="42.6100119" lon="12.2579941"><ele>87.0</ele><time>2026-04-12T08:34:04.887Z</time></trkpt><trkpt lat="42.6101967" lon="12.2579351"><ele>87.0</ele><time>2026-04-12T08:34:05.877Z</time></trkpt><trkpt lat="42.6103838" lon="12.2578793"><ele>87.0</ele><time>2026-04-12T08:34:06.88Z</time></trkpt><trkpt lat="42.6105752" lon="12.2578169"><ele>86.33333333333333</ele><time>2026-04-12T08:34:07.886Z</time></trkpt><trkpt lat="42.6107649" lon="12.25775"><ele>85.66666666666666</ele><time>2026-04-12T08:34:08.873Z</time></trkpt><trkpt lat="42.6109524" lon="12.2576858"><ele>85.0</ele><time>2026-04-12T08:34:09.877Z</time></trkpt><trkpt lat="42.6111394" lon="12.257624"><ele>85.33333333333333</ele><time>2026-04-12T08:34:10.868Z</time></trkpt><trkpt lat="42.6113311" lon="12.2575676"><ele>85.66666666666667</ele><time>2026-04-12T08:34:11.873Z</time></trkpt><trkpt lat="42.6115171" lon="12.2575079"><ele>86.0</ele><time>2026-04-12T08:34:12.877Z</time></trkpt><trkpt lat="42.6117044" lon="12.257446"><ele>86.0</ele><time>2026-04-12T08:34:13.881Z</time></trkpt><trkpt lat="42.6118907" lon="12.25739"><ele>86.0</ele><time>2026-04-12T08:34:14.884Z</time></trkpt><trkpt lat="42.6120755" lon="12.2573287"><ele>86.0</ele><time>2026-04-12T08:34:15.874Z</time></trkpt><trkpt lat="42.6122525" lon="12.2572681"><ele>86.0</ele><time>2026-04-12T08:34:16.873Z</time></trkpt><trkpt lat="42.6124214" lon="12.2572194"><ele>86.0</ele><time>2026-04-12T08:34:17.876Z</time></trkpt><trkpt lat="42.612607" lon="12.2571485"><ele>86.0</ele><time>2026-04-12T08:34:18.874Z</time></trkpt><trkpt lat="42.6127865" lon="12.2570969"><ele>86.0</ele><time>2026-04-12T08:34:19.88Z</time></trkpt><trkpt lat="42.6129603" lon="12.2570409"><ele>86.0</ele><time>2026-04-12T08:34:20.878Z</time></trkpt><trkpt lat="42.6131405" lon="12.2569813"><ele>86.0</ele><time>2026-04-12T08:34:21.879Z</time></trkpt><trkpt lat="42.6133179" lon="12.2569376"><ele>86.0</ele><time>2026-04-12T08:34:22.883Z</time></trkpt><trkpt lat="42.6134855" lon="12.2568951"><ele>86.0</ele><time>2026-04-12T08:34:23.878Z</time></trkpt><trkpt lat="42.6136473" lon="12.2568629"><ele>86.0</ele><time>2026-04-12T08:34:24.878Z</time></trkpt><trkpt lat="42.6137989" lon="12.2568318"><ele>85.75</ele><time>2026-04-12T08:34:25.882Z</time></trkpt><trkpt lat="42.6139489" lon="12.2568014"><ele>85.5</ele><time>2026-04-12T08:34:26.882Z</time></trkpt><trkpt lat="42.6140973" lon="12.2567733"><ele>85.25</ele><time>2026-04-12T08:34:27.883Z</time></trkpt><trkpt lat="42.6142398" lon="12.2567519"><ele>85.0</ele><time>2026-04-12T08:34:28.872Z</time></trkpt><trkpt lat="42.6143879" lon="12.2567246"><ele>85.33333333333333</ele><time>2026-04-12T08:34:29.872Z</time></trkpt><trkpt lat="42.6145403" lon="12.2566936"><ele>85.66666666666667</ele><time>2026-04-12T08:34:30.89Z</time></trkpt><trkpt lat="42.6146927" lon="12.2566644"><ele>86.0</ele><time>2026-04-12T08:34:31.876Z</time></trkpt><trkpt lat="42.6148476" lon="12.2566367"><ele>86.0</ele><time>2026-04-12T08:34:32.877Z</time></trkpt><trkpt lat="42.6150059" lon="12.2566102"><ele>86.0</ele><time>2026-04-12T08:34:33.882Z</time></trkpt><trkpt lat="42.6151665" lon="12.2565833"><ele>86.0</ele><time>2026-04-12T08:34:34.875Z</time></trkpt><trkpt lat="42.6153294" lon="12.2565558"><ele>86.0</ele><time>2026-04-12T08:34:35.873Z</time></trkpt><trkpt lat="42.615493" lon="12.2565266"><ele>86.0</ele><time>2026-04-12T08:34:36.876Z</time></trkpt><trkpt lat="42.6156564" lon="12.2565001"><ele>86.0</ele><time>2026-04-12T08:34:37.878Z</time></trkpt><trkpt lat="42.6158259" lon="12.2564747"><ele>85.66666666666667</ele><time>2026-04-12T08:34:38.884Z</time></trkpt><trkpt lat="42.615993" lon="12.2564483"><ele>85.33333333333333</ele><time>2026-04-12T08:34:39.878Z</time></trkpt><trkpt lat="42.61616" lon="12.256418"><ele>85.0</ele><time>2026-04-12T08:34:40.875Z</time></trkpt><trkpt lat="42.6163282" lon="12.2563896"><ele>85.0</ele><time>2026-04-12T08:34:41.871Z</time></trkpt><trkpt lat="42.6164949" lon="12.2563642"><ele>85.0</ele><time>2026-04-12T08:34:42.875Z</time></trkpt><trkpt lat="42.6166633" lon="12.2563381"><ele>85.0</ele><time>2026-04-12T08:34:43.873Z</time></trkpt><trkpt lat="42.6168306" lon="12.2563075"><ele>85.5</ele><time>2026-04-12T08:34:44.882Z</time></trkpt><trkpt lat="42.6169896" lon="12.2562842"><ele>86.0</ele><time>2026-04-12T08:34:45.886Z</time></trkpt><trkpt lat="42.6171299" lon="12.2562651"><ele>86.5</ele><time>2026-04-12T08:34:46.875Z</time></trkpt><trkpt lat="42.6172574" lon="12.2562464"><ele>87.0</ele><time>2026-04-12T08:34:47.877Z</time></trkpt><trkpt lat="42.6173791" lon="12.2562183"><ele>87.0</ele><time>2026-04-12T08:34:48.881Z</time></trkpt><trkpt lat="42.6175066" lon="12.2561989"><ele>87.0</ele><time>2026-04-12T08:34:49.88Z</time></trkpt><trkpt lat="42.6176354" lon="12.2561745"><ele>87.0</ele><time>2026-04-12T08:34:50.886Z</time></trkpt><trkpt lat="42.6177692" lon="12.2561475"><ele>87.0</ele><time>2026-04-12T08:34:51.872Z</time></trkpt><trkpt lat="42.6179016" lon="12.2561249"><ele>88.25</ele><time>2026-04-12T08:34:52.887Z</time></trkpt><trkpt lat="42.618032" lon="12.256096"><ele>89.5</ele><time>2026-04-12T08:34:53.879Z</time></trkpt><trkpt lat="42.6181623" lon="12.2560623"><ele>90.75</ele><time>2026-04-12T08:34:54.877Z</time></trkpt><trkpt lat="42.6182922" lon="12.256015"><ele>92.0</ele><time>2026-04-12T08:34:55.873Z</time></trkpt><trkpt lat="42.6184231" lon="12.2559526"><ele>92.0</ele><time>2026-04-12T08:34:56.872Z</time></trkpt><trkpt lat="42.6185569" lon="12.255886"><ele>92.0</ele><time>2026-04-12T08:34:57.868Z</time></trkpt><trkpt lat="42.6186939" lon="12.2558083"><ele>92.0</ele><time>2026-04-12T08:34:58.873Z</time></trkpt><trkpt lat="42.6188271" lon="12.2557286"><ele>92.0</ele><time>2026-04-12T08:34:59.865Z</time></trkpt><trkpt lat="42.6189627" lon="12.2556485"><ele>93.66666666666667</ele><time>2026-04-12T08:35:00.871Z</time></trkpt><trkpt lat="42.6190981" lon="12.2555695"><ele>95.33333333333334</ele><time>2026-04-12T08:35:01.874Z</time></trkpt><trkpt lat="42.6192414" lon="12.2554846"><ele>97.0</ele><time>2026-04-12T08:35:02.872Z</time></trkpt><trkpt lat="42.6193876" lon="12.2553987"><ele>98.0</ele><time>2026-04-12T08:35:03.874Z</time></trkpt><trkpt lat="42.6195351" lon="12.2553096"><ele>99.0</ele><time>2026-04-12T08:35:04.885Z</time></trkpt><trkpt lat="42.6196873" lon="12.2552274"><ele>100.0</ele><time>2026-04-12T08:35:05.886Z</time></trkpt><trkpt lat="42.619843" lon="12.2551441"><ele>100.0</ele><time>2026-04-12T08:35:06.879Z</time></trkpt><trkpt lat="42.6199924" lon="12.2550572"><ele>100.0</ele><time>2026-04-12T08:35:07.888Z</time></trkpt><trkpt lat="42.6201325" lon="12.2549777"><ele>100.0</ele><time>2026-04-12T08:35:08.88Z</time></trkpt><trkpt lat="42.6202685" lon="12.2549054"><ele>100.33333333333334</ele><time>2026-04-12T08:35:09.877Z</time></trkpt><trkpt lat="42.620407" lon="12.254837"><ele>100.66666666666666</ele><time>2026-04-12T08:35:10.881Z</time></trkpt><trkpt lat="42.6205519" lon="12.2547823"><ele>101.0</ele><time>2026-04-12T08:35:11.873Z</time></trkpt><trkpt lat="42.6207119" lon="12.2547515"><ele>101.66666666666666</ele><time>2026-04-12T08:35:12.884Z</time></trkpt><trkpt lat="42.6208682" lon="12.2547401"><ele>102.33333333333334</ele><time>2026-04-12T08:35:13.877Z</time></trkpt><trkpt lat="42.6210286" lon="12.2547526"><ele>103.0</ele><time>2026-04-12T08:35:14.878Z</time></trkpt><trkpt lat="42.6211765" lon="12.2547909"><ele>103.0</ele><time>2026-04-12T08:35:15.88Z</time></trkpt><trkpt lat="42.6213136" lon="12.2548308"><ele>103.0</ele><time>2026-04-12T08:35:16.892Z</time></trkpt><trkpt lat="42.6214373" lon="12.2548835"><ele>103.0</ele><time>2026-04-12T08:35:17.888Z</time></trkpt><trkpt lat="42.6215628" lon="12.2549319"><ele>103.0</ele><time>2026-04-12T08:35:18.881Z</time></trkpt><trkpt lat="42.6216898" lon="12.254979"><ele>103.0</ele><time>2026-04-12T08:35:19.882Z</time></trkpt><trkpt lat="42.6218206" lon="12.2550251"><ele>103.0</ele><time>2026-04-12T08:35:20.869Z</time></trkpt><trkpt lat="42.6219505" lon="12.2550687"><ele>103.0</ele><time>2026-04-12T08:35:21.884Z</time></trkpt><trkpt lat="42.6220809" lon="12.255115"><ele>103.0</ele><time>2026-04-12T08:35:22.885Z</time></trkpt><trkpt lat="42.6222144" lon="12.2551567"><ele>103.75</ele><time>2026-04-12T08:35:23.879Z</time></trkpt><trkpt lat="42.6223481" lon="12.2552045"><ele>104.5</ele><time>2026-04-12T08:35:24.876Z</time></trkpt><trkpt lat="42.62248" lon="12.2552546"><ele>105.25</ele><time>2026-04-12T08:35:25.884Z</time></trkpt><trkpt lat="42.6226077" lon="12.2553018"><ele>106.0</ele><time>2026-04-12T08:35:26.869Z</time></trkpt><trkpt lat="42.622733" lon="12.2553462"><ele>106.5</ele><time>2026-04-12T08:35:27.876Z</time></trkpt><trkpt lat="42.6228668" lon="12.2553998"><ele>107.0</ele><time>2026-04-12T08:35:28.881Z</time></trkpt><trkpt lat="42.6230002" lon="12.2554479"><ele>107.5</ele><time>2026-04-12T08:35:29.871Z</time></trkpt><trkpt lat="42.6231301" lon="12.2554983"><ele>108.0</ele><time>2026-04-12T08:35:30.873Z</time></trkpt><trkpt lat="42.6232576" lon="12.2555445"><ele>108.0</ele><time>2026-04-12T08:35:31.875Z</time></trkpt><trkpt lat="42.6233889" lon="12.2555934"><ele>108.0</ele><time>2026-04-12T08:35:32.88Z</time></trkpt><trkpt lat="42.6235245" lon="12.2556405"><ele>108.0</ele><time>2026-04-12T08:35:33.874Z</time></trkpt><trkpt lat="42.6236651" lon="12.255689"><ele>108.0</ele><time>2026-04-12T08:35:34.88Z</time></trkpt><trkpt lat="42.623805" lon="12.2557376"><ele>107.75</ele><time>2026-04-12T08:35:35.89Z</time></trkpt><trkpt lat="42.6239444" lon="12.2557883"><ele>107.5</ele><time>2026-04-12T08:35:36.886Z</time></trkpt><trkpt lat="42.6240914" lon="12.2558332"><ele>107.25</ele><time>2026-04-12T08:35:37.881Z</time></trkpt><trkpt lat="42.6242339" lon="12.2558812"><ele>107.0</ele><time>2026-04-12T08:35:38.892Z</time></trkpt><trkpt lat="42.6243751" lon="12.2559263"><ele>107.33333333333333</ele><time>2026-04-12T08:35:39.883Z</time></trkpt><trkpt lat="42.6245161" lon="12.2559832"><ele>107.66666666666666</ele><time>2026-04-12T08:35:40.886Z</time></trkpt><trkpt lat="42.6246621" lon="12.2560386"><ele>108.0</ele><time>2026-04-12T08:35:41.88Z</time></trkpt><trkpt lat="42.6248111" lon="12.2560967"><ele>108.0</ele><time>2026-04-12T08:35:42.886Z</time></trkpt><trkpt lat="42.624958" lon="12.2561538"><ele>108.0</ele><time>2026-04-12T08:35:43.878Z</time></trkpt><trkpt lat="42.6251067" lon="12.2562072"><ele>108.0</ele><time>2026-04-12T08:35:44.891Z</time></trkpt><trkpt lat="42.6252547" lon="12.2562624"><ele>108.0</ele><time>2026-04-12T08:35:45.885Z</time></trkpt><trkpt lat="42.6253961" lon="12.2563157"><ele>108.0</ele><time>2026-04-12T08:35:46.879Z</time></trkpt><trkpt lat="42.6255335" lon="12.2563628"><ele>108.0</ele><time>2026-04-12T08:35:47.871Z</time></trkpt><trkpt lat="42.6256693" lon="12.2564185"><ele>108.0</ele><time>2026-04-12T08:35:48.885Z</time></trkpt><trkpt lat="42.6257908" lon="12.2564687"><ele>108.2</ele><time>2026-04-12T08:35:49.898Z</time></trkpt><trkpt lat="42.6259055" lon="12.2565061"><ele>108.4</ele><time>2026-04-12T08:35:50.879Z</time></trkpt><trkpt lat="42.6260167" lon="12.2565412"><ele>108.60000000000001</ele><time>2026-04-12T08:35:51.879Z</time></trkpt><trkpt lat="42.6261198" lon="12.2565767"><ele>108.80000000000001</ele><time>2026-04-12T08:35:52.882Z</time></trkpt><trkpt lat="42.6262128" lon="12.2566149"><ele>109.0</ele><time>2026-04-12T08:35:53.885Z</time></trkpt><trkpt lat="42.6263089" lon="12.2566496"><ele>109.4</ele><time>2026-04-12T08:35:54.888Z</time></trkpt><trkpt lat="42.6264003" lon="12.2566869"><ele>109.80000000000001</ele><time>2026-04-12T08:35:55.88Z</time></trkpt><trkpt lat="42.6264731" lon="12.2567219"><ele>110.19999999999999</ele><time>2026-04-12T08:35:56.882Z</time></trkpt><trkpt lat="42.6265331" lon="12.2567632"><ele>110.6</ele><time>2026-04-12T08:35:57.875Z</time></trkpt><trkpt lat="42.6265914" lon="12.256882"><ele>111.0</ele><time>2026-04-12T08:35:59.868Z</time></trkpt><trkpt lat="42.6266199" lon="12.2570451"><ele>111.0</ele><time>2026-04-12T08:36:01.885Z</time></trkpt><trkpt lat="42.6266413" lon="12.2571345"><ele>111.0</ele><time>2026-04-12T08:36:02.887Z</time></trkpt><trkpt lat="42.6266679" lon="12.2572462"><ele>111.0</ele><time>2026-04-12T08:36:03.882Z</time></trkpt><trkpt lat="42.6267019" lon="12.2573543"><ele>111.0</ele><time>2026-04-12T08:36:04.885Z</time></trkpt><trkpt lat="42.6267404" lon="12.2574691"><ele>111.0</ele><time>2026-04-12T08:36:05.877Z</time></trkpt><trkpt lat="42.6267791" lon="12.2575846"><ele>111.0</ele><time>2026-04-12T08:36:06.881Z</time></trkpt><trkpt lat="42.6268139" lon="12.2577011"><ele>111.19999999999999</ele><time>2026-04-12T08:36:07.886Z</time></trkpt><trkpt lat="42.626851" lon="12.2578231"><ele>111.39999999999999</ele><time>2026-04-12T08:36:08.873Z</time></trkpt><trkpt lat="42.6268882" lon="12.2579508"><ele>111.6</ele><time>2026-04-12T08:36:09.882Z</time></trkpt><trkpt lat="42.6269268" lon="12.2580775"><ele>111.8</ele><time>2026-04-12T08:36:10.878Z</time></trkpt><trkpt lat="42.6269727" lon="12.2581985"><ele>112.0</ele><time>2026-04-12T08:36:11.873Z</time></trkpt><trkpt lat="42.6270169" lon="12.2583245"><ele>112.0</ele><time>2026-04-12T08:36:12.872Z</time></trkpt><trkpt lat="42.6270598" lon="12.2584569"><ele>111.99999999999999</ele><time>2026-04-12T08:36:13.884Z</time></trkpt><trkpt lat="42.6271074" lon="12.2585781"><ele>111.99999999999999</ele><time>2026-04-12T08:36:14.869Z</time></trkpt><trkpt lat="42.6271517" lon="12.2586965"><ele>112.0</ele><time>2026-04-12T08:36:15.878Z</time></trkpt><trkpt lat="42.627198" lon="12.2588145"><ele>112.0</ele><time>2026-04-12T08:36:16.887Z</time></trkpt><trkpt lat="42.6272433" lon="12.2589402"><ele>112.6</ele><time>2026-04-12T08:36:17.881Z</time></trkpt><trkpt lat="42.6272846" lon="12.2590697"><ele>113.19999999999999</ele><time>2026-04-12T08:36:18.878Z</time></trkpt><trkpt lat="42.6273294" lon="12.2591956"><ele>113.8</ele><time>2026-04-12T08:36:19.886Z</time></trkpt><trkpt lat="42.6273707" lon="12.2593299"><ele>114.4</ele><time>2026-04-12T08:36:20.885Z</time></trkpt><trkpt lat="42.6274176" lon="12.2594647"><ele>115.0</ele><time>2026-04-12T08:36:21.881Z</time></trkpt><trkpt lat="42.6274606" lon="12.2596021"><ele>115.0</ele><time>2026-04-12T08:36:22.889Z</time></trkpt><trkpt lat="42.6275053" lon="12.2597447"><ele>115.0</ele><time>2026-04-12T08:36:23.882Z</time></trkpt><trkpt lat="42.6275495" lon="12.2598744"><ele>115.0</ele><time>2026-04-12T08:36:24.876Z</time></trkpt><trkpt lat="42.6275966" lon="12.260007"><ele>115.0</ele><time>2026-04-12T08:36:25.88Z</time></trkpt><trkpt lat="42.6276437" lon="12.2601354"><ele>115.0</ele><time>2026-04-12T08:36:26.878Z</time></trkpt><trkpt lat="42.6276938" lon="12.2602584"><ele>115.0</ele><time>2026-04-12T08:36:27.885Z</time></trkpt><trkpt lat="42.6277356" lon="12.2603679"><ele>115.0</ele><time>2026-04-12T08:36:28.898Z</time></trkpt><trkpt lat="42.6277766" lon="12.2604764"><ele>115.0</ele><time>2026-04-12T08:36:29.877Z</time></trkpt><trkpt lat="42.6278165" lon="12.2605878"><ele>115.0</ele><time>2026-04-12T08:36:30.879Z</time></trkpt><trkpt lat="42.6278612" lon="12.2607077"><ele>115.0</ele><time>2026-04-12T08:36:31.88Z</time></trkpt><trkpt lat="42.6279034" lon="12.2608301"><ele>115.0</ele><time>2026-04-12T08:36:32.874Z</time></trkpt><trkpt lat="42.6279491" lon="12.260958"><ele>115.0</ele><time>2026-04-12T08:36:33.878Z</time></trkpt><trkpt lat="42.6279964" lon="12.2610912"><ele>115.0</ele><time>2026-04-12T08:36:34.892Z</time></trkpt><trkpt lat="42.628042" lon="12.2612231"><ele>115.0</ele><time>2026-04-12T08:36:35.884Z</time></trkpt><trkpt lat="42.6280852" lon="12.2613574"><ele>115.0</ele><time>2026-04-12T08:36:36.871Z</time></trkpt><trkpt lat="42.6281291" lon="12.2614935"><ele>115.4</ele><time>2026-04-12T08:36:37.88Z</time></trkpt><trkpt lat="42.6281723" lon="12.2616173"><ele>115.8</ele><time>2026-04-12T08:36:38.895Z</time></trkpt><trkpt lat="42.6282135" lon="12.2617354"><ele>116.19999999999999</ele><time>2026-04-12T08:36:39.877Z</time></trkpt><trkpt lat="42.6282541" lon="12.261855"><ele>116.6</ele><time>2026-04-12T08:36:40.883Z</time></trkpt><trkpt lat="42.6282976" lon="12.2619898"><ele>117.0</ele><time>2026-04-12T08:36:41.885Z</time></trkpt><trkpt lat="42.6283412" lon="12.2621252"><ele>117.0</ele><time>2026-04-12T08:36:42.891Z</time></trkpt><trkpt lat="42.6283827" lon="12.2622583"><ele>116.99999999999999</ele><time>2026-04-12T08:36:43.885Z</time></trkpt><trkpt lat="42.6284293" lon="12.2623912"><ele>116.99999999999999</ele><time>2026-04-12T08:36:44.88Z</time></trkpt><trkpt lat="42.6284739" lon="12.2625217"><ele>117.0</ele><time>2026-04-12T08:36:45.871Z</time></trkpt><trkpt lat="42.6285203" lon="12.2626572"><ele>117.0</ele><time>2026-04-12T08:36:46.891Z</time></trkpt><trkpt lat="42.6285648" lon="12.2627847"><ele>117.6</ele><time>2026-04-12T08:36:47.878Z</time></trkpt><trkpt lat="42.628606" lon="12.2629082"><ele>118.19999999999999</ele><time>2026-04-12T08:36:48.883Z</time></trkpt><trkpt lat="42.628644" lon="12.2630313"><ele>118.8</ele><time>2026-04-12T08:36:49.886Z</time></trkpt><trkpt lat="42.6286844" lon="12.2631556"><ele>119.4</ele><time>2026-04-12T08:36:50.885Z</time></trkpt><trkpt lat="42.6287272" lon="12.2632932"><ele>120.0</ele><time>2026-04-12T08:36:51.879Z</time></trkpt><trkpt lat="42.6287709" lon="12.2634292"><ele>120.4</ele><time>2026-04-12T08:36:52.891Z</time></trkpt><trkpt lat="42.6288183" lon="12.2635678"><ele>120.8</ele><time>2026-04-12T08:36:53.884Z</time></trkpt><trkpt lat="42.628866" lon="12.2637072"><ele>121.19999999999999</ele><time>2026-04-12T08:36:54.882Z</time></trkpt><trkpt lat="42.6289071" lon="12.2638441"><ele>121.6</ele><time>2026-04-12T08:36:55.877Z</time></trkpt><trkpt lat="42.6289478" lon="12.2639652"><ele>122.0</ele><time>2026-04-12T08:36:56.872Z</time></trkpt><trkpt lat="42.6289785" lon="12.2640871"><ele>122.66666666666666</ele><time>2026-04-12T08:36:57.884Z</time></trkpt><trkpt lat="42.6289987" lon="12.2641979"><ele>123.33333333333333</ele><time>2026-04-12T08:36:58.876Z</time></trkpt><trkpt lat="42.6290117" lon="12.2643015"><ele>124.0</ele><time>2026-04-12T08:36:59.875Z</time></trkpt><trkpt lat="42.6290168" lon="12.2644131"><ele>124.66666666666666</ele><time>2026-04-12T08:37:00.875Z</time></trkpt><trkpt lat="42.6290254" lon="12.2645227"><ele>125.33333333333333</ele><time>2026-04-12T08:37:01.885Z</time></trkpt><trkpt lat="42.6290343" lon="12.2646369"><ele>126.0</ele><time>2026-04-12T08:37:02.884Z</time></trkpt><trkpt lat="42.6290424" lon="12.2647536"><ele>126.4</ele><time>2026-04-12T08:37:03.876Z</time></trkpt><trkpt lat="42.6290626" lon="12.2648743"><ele>126.8</ele><time>2026-04-12T08:37:04.899Z</time></trkpt><trkpt lat="42.6290916" lon="12.2649964"><ele>127.20000000000002</ele><time>2026-04-12T08:37:05.9Z</time></trkpt><trkpt lat="42.6291253" lon="12.2651118"><ele>127.60000000000001</ele><time>2026-04-12T08:37:06.885Z</time></trkpt><trkpt lat="42.6291692" lon="12.2652182"><ele>128.0</ele><time>2026-04-12T08:37:07.875Z</time></trkpt><trkpt lat="42.6292173" lon="12.2653153"><ele>127.99999999999999</ele><time>2026-04-12T08:37:08.89Z</time></trkpt><trkpt lat="42.6292735" lon="12.2654091"><ele>128.0</ele><time>2026-04-12T08:37:09.879Z</time></trkpt><trkpt lat="42.6293351" lon="12.2654978"><ele>128.0</ele><time>2026-04-12T08:37:10.892Z</time></trkpt><trkpt lat="42.6293969" lon="12.2655835"><ele>128.0</ele><time>2026-04-12T08:37:11.887Z</time></trkpt><trkpt lat="42.6294548" lon="12.2656639"><ele>127.99999999999999</ele><time>2026-04-12T08:37:12.873Z</time></trkpt><trkpt lat="42.6295041" lon="12.2657431"><ele>128.0</ele><time>2026-04-12T08:37:13.882Z</time></trkpt><trkpt lat="42.6295428" lon="12.2658178"><ele>127.66666666666666</ele><time>2026-04-12T08:37:14.881Z</time></trkpt><trkpt lat="42.6295788" lon="12.2659028"><ele>127.33333333333333</ele><time>2026-04-12T08:37:15.883Z</time></trkpt><trkpt lat="42.629619" lon="12.2659956"><ele>127.0</ele><time>2026-04-12T08:37:16.89Z</time></trkpt><trkpt lat="42.6296503" lon="12.2660874"><ele>126.66666666666666</ele><time>2026-04-12T08:37:17.887Z</time></trkpt><trkpt lat="42.6296806" lon="12.2661795"><ele>126.33333333333333</ele><time>2026-04-12T08:37:18.894Z</time></trkpt><trkpt lat="42.6297112" lon="12.2662737"><ele>126.0</ele><time>2026-04-12T08:37:19.877Z</time></trkpt><trkpt lat="42.6297341" lon="12.2663703"><ele>126.5</ele><time>2026-04-12T08:37:20.874Z</time></trkpt><trkpt lat="42.6297632" lon="12.2664773"><ele>127.0</ele><time>2026-04-12T08:37:21.884Z</time></trkpt><trkpt lat="42.6297945" lon="12.2665848"><ele>127.5</ele><time>2026-04-12T08:37:22.893Z</time></trkpt><trkpt lat="42.6298257" lon="12.266683"><ele>128.0</ele><time>2026-04-12T08:37:23.885Z</time></trkpt><trkpt lat="42.6298676" lon="12.2667777"><ele>128.5</ele><time>2026-04-12T08:37:24.883Z</time></trkpt><trkpt lat="42.629916" lon="12.266878"><ele>129.0</ele><time>2026-04-12T08:37:25.894Z</time></trkpt><trkpt lat="42.629965" lon="12.2669756"><ele>129.0</ele><time>2026-04-12T08:37:26.875Z</time></trkpt><trkpt lat="42.6300216" lon="12.2670679"><ele>129.0</ele><time>2026-04-12T08:37:27.886Z</time></trkpt><trkpt lat="42.6300849" lon="12.2671556"><ele>129.0</ele><time>2026-04-12T08:37:28.878Z</time></trkpt><trkpt lat="42.630145" lon="12.2672441"><ele>129.0</ele><time>2026-04-12T08:37:29.896Z</time></trkpt><trkpt lat="42.6301936" lon="12.2673183"><ele>129.0</ele><time>2026-04-12T08:37:30.875Z</time></trkpt><trkpt lat="42.6302373" lon="12.2673884"><ele>129.0</ele><time>2026-04-12T08:37:31.865Z</time></trkpt><trkpt lat="42.6303226" lon="12.267505"><ele>130.28571428571428</ele><time>2026-04-12T08:37:33.873Z</time></trkpt><trkpt lat="42.6303735" lon="12.2675756"><ele>131.57142857142856</ele><time>2026-04-12T08:37:34.883Z</time></trkpt><trkpt lat="42.6304104" lon="12.2676549"><ele>132.85714285714286</ele><time>2026-04-12T08:37:35.88Z</time></trkpt><trkpt lat="42.6304423" lon="12.2677438"><ele>134.14285714285714</ele><time>2026-04-12T08:37:36.884Z</time></trkpt><trkpt lat="42.6304687" lon="12.2678397"><ele>135.42857142857144</ele><time>2026-04-12T08:37:37.897Z</time></trkpt><trkpt lat="42.630499" lon="12.2679365"><ele>136.71428571428572</ele><time>2026-04-12T08:37:38.886Z</time></trkpt><trkpt lat="42.6305346" lon="12.2680282"><ele>138.0</ele><time>2026-04-12T08:37:39.893Z</time></trkpt><trkpt lat="42.63057" lon="12.2681188"><ele>139.0</ele><time>2026-04-12T08:37:40.879Z</time></trkpt><trkpt lat="42.6306075" lon="12.2682059"><ele>140.0</ele><time>2026-04-12T08:37:41.875Z</time></trkpt><trkpt lat="42.6306508" lon="12.2682914"><ele>141.0</ele><time>2026-04-12T08:37:42.895Z</time></trkpt><trkpt lat="42.6307003" lon="12.2683779"><ele>142.0</ele><time>2026-04-12T08:37:43.879Z</time></trkpt><trkpt lat="42.6307462" lon="12.2684694"><ele>143.0</ele><time>2026-04-12T08:37:44.87Z</time></trkpt><trkpt lat="42.6307852" lon="12.2685624"><ele>144.0</ele><time>2026-04-12T08:37:45.878Z</time></trkpt><trkpt lat="42.6308199" lon="12.2686582"><ele>144.0</ele><time>2026-04-12T08:37:46.872Z</time></trkpt><trkpt lat="42.630855" lon="12.2687446"><ele>144.0</ele><time>2026-04-12T08:37:47.88Z</time></trkpt><trkpt lat="42.6308932" lon="12.2688363"><ele>144.0</ele><time>2026-04-12T08:37:48.882Z</time></trkpt><trkpt lat="42.6309422" lon="12.268943"><ele>144.0</ele><time>2026-04-12T08:37:49.874Z</time></trkpt><trkpt lat="42.6309886" lon="12.2690543"><ele>144.0</ele><time>2026-04-12T08:37:50.887Z</time></trkpt><trkpt lat="42.6310361" lon="12.2691728"><ele>144.0</ele><time>2026-04-12T08:37:51.88Z</time></trkpt><trkpt lat="42.6310887" lon="12.2692953"><ele>145.6</ele><time>2026-04-12T08:37:52.885Z</time></trkpt><trkpt lat="42.6311332" lon="12.2694189"><ele>147.2</ele><time>2026-04-12T08:37:53.884Z</time></trkpt><trkpt lat="42.6311799" lon="12.269547"><ele>148.79999999999998</ele><time>2026-04-12T08:37:54.876Z</time></trkpt><trkpt lat="42.6312321" lon="12.2696612"><ele>150.4</ele><time>2026-04-12T08:37:55.877Z</time></trkpt><trkpt lat="42.6312896" lon="12.2697655"><ele>152.0</ele><time>2026-04-12T08:37:56.882Z</time></trkpt><trkpt lat="42.6313514" lon="12.2698546"><ele>153.66666666666666</ele><time>2026-04-12T08:37:57.89Z</time></trkpt><trkpt lat="42.631414" lon="12.2699345"><ele>155.33333333333331</ele><time>2026-04-12T08:37:58.874Z</time></trkpt><trkpt lat="42.631481" lon="12.2700167"><ele>157.0</ele><time>2026-04-12T08:37:59.868Z</time></trkpt><trkpt lat="42.6315477" lon="12.2701006"><ele>158.66666666666666</ele><time>2026-04-12T08:38:00.881Z</time></trkpt><trkpt lat="42.631614" lon="12.2701844"><ele>160.33333333333334</ele><time>2026-04-12T08:38:01.884Z</time></trkpt><trkpt lat="42.6316874" lon="12.2702583"><ele>162.0</ele><time>2026-04-12T08:38:02.89Z</time></trkpt><trkpt lat="42.6317633" lon="12.2703255"><ele>162.0</ele><time>2026-04-12T08:38:03.881Z</time></trkpt><trkpt lat="42.6318365" lon="12.2703896"><ele>162.0</ele><time>2026-04-12T08:38:04.886Z</time></trkpt><trkpt lat="42.6319076" lon="12.2704599"><ele>162.0</ele><time>2026-04-12T08:38:05.885Z</time></trkpt><trkpt lat="42.6319642" lon="12.270553"><ele>162.0</ele><time>2026-04-12T08:38:06.886Z</time></trkpt><trkpt lat="42.6320121" lon="12.2706519"><ele>162.0</ele><time>2026-04-12T08:38:07.896Z</time></trkpt><trkpt lat="42.6320544" lon="12.2707543"><ele>162.0</ele><time>2026-04-12T08:38:08.9Z</time></trkpt><trkpt lat="42.63208" lon="12.2708378"><ele>163.0</ele><time>2026-04-12T08:38:09.881Z</time></trkpt><trkpt lat="42.6320568" lon="12.2709927"><ele>164.0</ele><time>2026-04-12T08:38:11.888Z</time></trkpt><trkpt lat="42.6320302" lon="12.2710731"><ele>165.0</ele><time>2026-04-12T08:38:12.885Z</time></trkpt><trkpt lat="42.6320013" lon="12.2711721"><ele>166.0</ele><time>2026-04-12T08:38:13.886Z</time></trkpt><trkpt lat="42.6319825" lon="12.2712729"><ele>167.0</ele><time>2026-04-12T08:38:14.886Z</time></trkpt><trkpt lat="42.6319726" lon="12.2713955"><ele>168.0</ele><time>2026-04-12T08:38:15.888Z</time></trkpt><trkpt lat="42.6319606" lon="12.2715553"><ele>169.75</ele><time>2026-04-12T08:38:16.886Z</time></trkpt><trkpt lat="42.6319475" lon="12.2717356"><ele>171.5</ele><time>2026-04-12T08:38:17.885Z</time></trkpt><trkpt lat="42.6319358" lon="12.2719048"><ele>173.25</ele><time>2026-04-12T08:38:18.881Z</time></trkpt><trkpt lat="42.6319279" lon="12.2720585"><ele>175.0</ele><time>2026-04-12T08:38:19.886Z</time></trkpt><trkpt lat="42.6319183" lon="12.2721954"><ele>175.2</ele><time>2026-04-12T08:38:20.878Z</time></trkpt><trkpt lat="42.6319034" lon="12.2723089"><ele>175.4</ele><time>2026-04-12T08:38:21.884Z</time></trkpt><trkpt lat="42.6318945" lon="12.2724313"><ele>175.60000000000002</ele><time>2026-04-12T08:38:22.89Z</time></trkpt><trkpt lat="42.6319028" lon="12.2725571"><ele>175.8</ele><time>2026-04-12T08:38:23.885Z</time></trkpt><trkpt lat="42.6319181" lon="12.2726887"><ele>176.0</ele><time>2026-04-12T08:38:24.884Z</time></trkpt><trkpt lat="42.6319326" lon="12.2728043"><ele>176.0</ele><time>2026-04-12T08:38:25.886Z</time></trkpt><trkpt lat="42.6319531" lon="12.2729181"><ele>176.0</ele><time>2026-04-12T08:38:26.885Z</time></trkpt><trkpt lat="42.631959" lon="12.2730248"><ele>176.0</ele><time>2026-04-12T08:38:27.884Z</time></trkpt><trkpt lat="42.6319412" lon="12.2731144"><ele>176.0</ele><time>2026-04-12T08:38:28.879Z</time></trkpt><trkpt lat="42.6318955" lon="12.2731979"><ele>176.0</ele><time>2026-04-12T08:38:29.879Z</time></trkpt><trkpt lat="42.6318348" lon="12.2732918"><ele>176.0</ele><time>2026-04-12T08:38:30.882Z</time></trkpt><trkpt lat="42.6317752" lon="12.2733925"><ele>176.0</ele><time>2026-04-12T08:38:31.882Z</time></trkpt><trkpt lat="42.6317212" lon="12.2735066"><ele>176.0</ele><time>2026-04-12T08:38:32.878Z</time></trkpt><trkpt lat="42.6316675" lon="12.2736403"><ele>176.0</ele><time>2026-04-12T08:38:33.876Z</time></trkpt><trkpt lat="42.6316205" lon="12.2737717"><ele>176.0</ele><time>2026-04-12T08:38:34.9Z</time></trkpt><trkpt lat="42.6315767" lon="12.2738905"><ele>176.0</ele><time>2026-04-12T08:38:35.886Z</time></trkpt><trkpt lat="42.6315446" lon="12.2739924"><ele>176.5</ele><time>2026-04-12T08:38:36.889Z</time></trkpt><trkpt lat="42.6315166" lon="12.2740925"><ele>177.0</ele><time>2026-04-12T08:38:37.88Z</time></trkpt><trkpt lat="42.6314836" lon="12.2742029"><ele>177.5</ele><time>2026-04-12T08:38:38.883Z</time></trkpt><trkpt lat="42.6314366" lon="12.2743144"><ele>178.0</ele><time>2026-04-12T08:38:39.883Z</time></trkpt><trkpt lat="42.6313838" lon="12.2744088"><ele>178.5</ele><time>2026-04-12T08:38:40.878Z</time></trkpt><trkpt lat="42.6313359" lon="12.2744904"><ele>179.0</ele><time>2026-04-12T08:38:41.876Z</time></trkpt><trkpt lat="42.6312906" lon="12.2745755"><ele>179.0</ele><time>2026-04-12T08:38:42.881Z</time></trkpt><trkpt lat="42.6312515" lon="12.2746465"><ele>179.0</ele><time>2026-04-12T08:38:43.884Z</time></trkpt><trkpt lat="42.6311814" lon="12.2747709"><ele>179.0</ele><time>2026-04-12T08:38:45.889Z</time></trkpt><trkpt lat="42.6311317" lon="12.2748613"><ele>179.0</ele><time>2026-04-12T08:38:47.881Z</time></trkpt><trkpt lat="42.6310769" lon="12.2749553"><ele>179.0</ele><time>2026-04-12T08:38:50.878Z</time></trkpt><trkpt lat="42.6310223" lon="12.2750291"><ele>179.0</ele><time>2026-04-12T08:38:54.881Z</time></trkpt><trkpt lat="42.6309744" lon="12.2750933"><ele>179.33333333333331</ele><time>2026-04-12T08:38:57.87Z</time></trkpt><trkpt lat="42.6309282" lon="12.275164"><ele>179.66666666666666</ele><time>2026-04-12T08:39:00.886Z</time></trkpt><trkpt lat="42.6308838" lon="12.2752487"><ele>180.0</ele><time>2026-04-12T08:39:03.887Z</time></trkpt><trkpt lat="42.6308436" lon="12.2753361"><ele>180.33333333333334</ele><time>2026-04-12T08:39:06.879Z</time></trkpt><trkpt lat="42.6308001" lon="12.2754119"><ele>180.66666666666669</ele><time>2026-04-12T08:39:09.876Z</time></trkpt><trkpt lat="42.6307531" lon="12.2754916"><ele>181.0</ele><time>2026-04-12T08:39:12.894Z</time></trkpt><trkpt lat="42.630698" lon="12.27559"><ele>179.83333333333334</ele><time>2026-04-12T08:39:15.871Z</time></trkpt><trkpt lat="42.6306361" lon="12.2756875"><ele>178.66666666666669</ele><time>2026-04-12T08:39:19.876Z</time></trkpt><trkpt lat="42.6305805" lon="12.2757661"><ele>177.5</ele><time>2026-04-12T08:39:22.881Z</time></trkpt><trkpt lat="42.6305342" lon="12.2758503"><ele>176.33333333333334</ele><time>2026-04-12T08:39:27.876Z</time></trkpt><trkpt lat="42.6304822" lon="12.2759626"><ele>175.16666666666666</ele><time>2026-04-12T08:39:29.882Z</time></trkpt><trkpt lat="42.6304205" lon="12.2760532"><ele>174.0</ele><time>2026-04-12T08:39:31.872Z</time></trkpt><trkpt lat="42.6303613" lon="12.2761226"><ele>174.85714285714286</ele><time>2026-04-12T08:39:33.89Z</time></trkpt><trkpt lat="42.6302919" lon="12.2761791"><ele>175.71428571428572</ele><time>2026-04-12T08:39:36.909Z</time></trkpt><trkpt lat="42.6302347" lon="12.2762306"><ele>176.57142857142856</ele><time>2026-04-12T08:39:39.882Z</time></trkpt><trkpt lat="42.6301842" lon="12.2762833"><ele>177.42857142857144</ele><time>2026-04-12T08:39:41.876Z</time></trkpt><trkpt lat="42.6301339" lon="12.2763493"><ele>178.2857142857143</ele><time>2026-04-12T08:39:43.881Z</time></trkpt><trkpt lat="42.630088" lon="12.2764438"><ele>179.14285714285714</ele><time>2026-04-12T08:39:46.894Z</time></trkpt><trkpt lat="42.6300471" lon="12.2765366"><ele>180.0</ele><time>2026-04-12T08:39:49.89Z</time></trkpt><trkpt lat="42.6300192" lon="12.2766199"><ele>180.0</ele><time>2026-04-12T08:39:51.879Z</time></trkpt><trkpt lat="42.6299867" lon="12.2767333"><ele>180.0</ele><time>2026-04-12T08:39:54.88Z</time></trkpt><trkpt lat="42.62994" lon="12.2768071"><ele>180.0</ele><time>2026-04-12T08:39:58.884Z</time></trkpt><trkpt lat="42.629881" lon="12.2769087"><ele>180.0</ele><time>2026-04-12T08:40:01.896Z</time></trkpt><trkpt lat="42.6299214" lon="12.2768226"><ele>180.0</ele><time>2026-04-12T08:41:17.883Z</time></trkpt><trkpt lat="42.6300098" lon="12.2767225"><ele>180.0</ele><time>2026-04-12T08:41:19.879Z</time></trkpt><trkpt lat="42.6300575" lon="12.2765529"><ele>180.0</ele><time>2026-04-12T08:41:21.876Z</time></trkpt><trkpt lat="42.6300928" lon="12.2764591"><ele>180.0</ele><time>2026-04-12T08:41:22.892Z</time></trkpt><trkpt lat="42.6301441" lon="12.2763666"><ele>180.0</ele><time>2026-04-12T08:41:23.895Z</time></trkpt><trkpt lat="42.6302034" lon="12.2762819"><ele>180.0</ele><time>2026-04-12T08:41:24.878Z</time></trkpt><trkpt lat="42.6302789" lon="12.2762114"><ele>180.0</ele><time>2026-04-12T08:41:25.882Z</time></trkpt><trkpt lat="42.6303559" lon="12.2761325"><ele>180.0</ele><time>2026-04-12T08:41:26.881Z</time></trkpt><trkpt lat="42.6304336" lon="12.2760568"><ele>180.2</ele><time>2026-04-12T08:41:27.887Z</time></trkpt><trkpt lat="42.630494" lon="12.2759748"><ele>180.4</ele><time>2026-04-12T08:41:28.885Z</time></trkpt><trkpt lat="42.6305469" lon="12.2758916"><ele>180.60000000000002</ele><time>2026-04-12T08:41:29.878Z</time></trkpt><trkpt lat="42.630598" lon="12.2757911"><ele>180.8</ele><time>2026-04-12T08:41:30.882Z</time></trkpt><trkpt lat="42.6306587" lon="12.2756828"><ele>181.0</ele><time>2026-04-12T08:41:31.877Z</time></trkpt><trkpt lat="42.6307224" lon="12.2755756"><ele>181.0</ele><time>2026-04-12T08:41:32.885Z</time></trkpt><trkpt lat="42.630792" lon="12.2754646"><ele>181.0</ele><time>2026-04-12T08:41:33.871Z</time></trkpt><trkpt lat="42.6308595" lon="12.2753472"><ele>181.0</ele><time>2026-04-12T08:41:34.891Z</time></trkpt><trkpt lat="42.6309254" lon="12.2752316"><ele>181.0</ele><time>2026-04-12T08:41:35.869Z</time></trkpt><trkpt lat="42.6309906" lon="12.2751356"><ele>181.0</ele><time>2026-04-12T08:41:36.884Z</time></trkpt><trkpt lat="42.6310494" lon="12.2750412"><ele>181.0</ele><time>2026-04-12T08:41:37.885Z</time></trkpt><trkpt lat="42.6311037" lon="12.2749416"><ele>181.0</ele><time>2026-04-12T08:41:38.891Z</time></trkpt><trkpt lat="42.6311614" lon="12.2748426"><ele>181.0</ele><time>2026-04-12T08:41:39.888Z</time></trkpt><trkpt lat="42.6312191" lon="12.2747317"><ele>181.0</ele><time>2026-04-12T08:41:40.898Z</time></trkpt><trkpt lat="42.6312769" lon="12.2746162"><ele>181.0</ele><time>2026-04-12T08:41:41.888Z</time></trkpt><trkpt lat="42.6313446" lon="12.2744986"><ele>180.60000000000002</ele><time>2026-04-12T08:41:42.904Z</time></trkpt><trkpt lat="42.6314163" lon="12.2743819"><ele>180.2</ele><time>2026-04-12T08:41:43.876Z</time></trkpt><trkpt lat="42.6314776" lon="12.2742567"><ele>179.8</ele><time>2026-04-12T08:41:44.879Z</time></trkpt><trkpt lat="42.6315265" lon="12.2741286"><ele>179.39999999999998</ele><time>2026-04-12T08:41:45.876Z</time></trkpt><trkpt lat="42.6315627" lon="12.2739915"><ele>179.0</ele><time>2026-04-12T08:41:46.887Z</time></trkpt><trkpt lat="42.6316075" lon="12.2738601"><ele>178.39999999999998</ele><time>2026-04-12T08:41:47.882Z</time></trkpt><trkpt lat="42.6316534" lon="12.2737336"><ele>177.8</ele><time>2026-04-12T08:41:48.883Z</time></trkpt><trkpt lat="42.6317005" lon="12.2736118"><ele>177.2</ele><time>2026-04-12T08:41:49.882Z</time></trkpt><trkpt lat="42.631748" lon="12.2734977"><ele>176.60000000000002</ele><time>2026-04-12T08:41:50.883Z</time></trkpt><trkpt lat="42.6317943" lon="12.2733941"><ele>176.0</ele><time>2026-04-12T08:41:51.876Z</time></trkpt><trkpt lat="42.6318396" lon="12.2733036"><ele>176.0</ele><time>2026-04-12T08:41:52.882Z</time></trkpt><trkpt lat="42.6318839" lon="12.2732198"><ele>176.0</ele><time>2026-04-12T08:41:53.873Z</time></trkpt><trkpt lat="42.6319251" lon="12.2731407"><ele>176.0</ele><time>2026-04-12T08:41:54.885Z</time></trkpt><trkpt lat="42.6319472" lon="12.2730587"><ele>176.0</ele><time>2026-04-12T08:41:55.877Z</time></trkpt><trkpt lat="42.6319401" lon="12.2728882"><ele>176.0</ele><time>2026-04-12T08:41:57.883Z</time></trkpt><trkpt lat="42.6319261" lon="12.2727826"><ele>176.0</ele><time>2026-04-12T08:41:58.881Z</time></trkpt><trkpt lat="42.6319179" lon="12.2726701"><ele>176.0</ele><time>2026-04-12T08:41:59.886Z</time></trkpt><trkpt lat="42.6319067" lon="12.2725518"><ele>176.0</ele><time>2026-04-12T08:42:00.89Z</time></trkpt><trkpt lat="42.6318985" lon="12.2724435"><ele>176.0</ele><time>2026-04-12T08:42:01.885Z</time></trkpt><trkpt lat="42.6319007" lon="12.2723463"><ele>176.0</ele><time>2026-04-12T08:42:02.88Z</time></trkpt><trkpt lat="42.6319055" lon="12.2722525"><ele>176.0</ele><time>2026-04-12T08:42:03.875Z</time></trkpt><trkpt lat="42.6319263" lon="12.2720911"><ele>176.0</ele><time>2026-04-12T08:42:05.885Z</time></trkpt><trkpt lat="42.6319403" lon="12.2719316"><ele>175.0</ele><time>2026-04-12T08:42:07.873Z</time></trkpt><trkpt lat="42.6319463" lon="12.2718409"><ele>175.0</ele><time>2026-04-12T08:42:08.89Z</time></trkpt><trkpt lat="42.6319507" lon="12.2717537"><ele>175.0</ele><time>2026-04-12T08:42:09.884Z</time></trkpt><trkpt lat="42.6319541" lon="12.2716677"><ele>175.0</ele><time>2026-04-12T08:42:10.898Z</time></trkpt><trkpt lat="42.6319678" lon="12.2715302"><ele>175.0</ele><time>2026-04-12T08:42:12.883Z</time></trkpt><trkpt lat="42.6319775" lon="12.2714289"><ele>173.0</ele><time>2026-04-12T08:42:14.881Z</time></trkpt><trkpt lat="42.6319848" lon="12.2713243"><ele>173.0</ele><time>2026-04-12T08:42:17.886Z</time></trkpt></trkseg><trkseg><trkpt lat="42.6374504" lon="12.2919234"><ele>355.0</ele><time>2026-04-12T09:42:11.739Z</time></trkpt><trkpt lat="42.6375277" lon="12.2920341"><ele>355.0</ele><time>2026-04-12T09:42:15.727Z</time></trkpt><trkpt lat="42.6375732" lon="12.2921263"><ele>355.0</ele><time>2026-04-12T09:42:18.741Z</time></trkpt><trkpt lat="42.6376063" lon="12.2922127"><ele>355.0</ele><time>2026-04-12T09:42:20.743Z</time></trkpt><trkpt lat="42.6376589" lon="12.2923074"><ele>355.0</ele><time>2026-04-12T09:42:22.748Z</time></trkpt><trkpt lat="42.6377054" lon="12.2924119"><ele>355.0</ele><time>2026-04-12T09:42:24.746Z</time></trkpt><trkpt lat="42.6377491" lon="12.2925453"><ele>359.25</ele><time>2026-04-12T09:42:26.744Z</time></trkpt><trkpt lat="42.63779" lon="12.2926996"><ele>363.5</ele><time>2026-04-12T09:42:28.729Z</time></trkpt><trkpt lat="42.637827" lon="12.2928458"><ele>367.75</ele><time>2026-04-12T09:42:30.74Z</time></trkpt><trkpt lat="42.6378466" lon="12.2930071"><ele>372.0</ele><time>2026-04-12T09:42:32.731Z</time></trkpt><trkpt lat="42.6378522" lon="12.2931742"><ele>374.5</ele><time>2026-04-12T09:42:34.736Z</time></trkpt><trkpt lat="42.6378483" lon="12.2932656"><ele>377.0</ele><time>2026-04-12T09:42:35.72Z</time></trkpt><trkpt lat="42.6378439" lon="12.2933651"><ele>379.5</ele><time>2026-04-12T09:42:36.726Z</time></trkpt><trkpt lat="42.6378357" lon="12.2934677"><ele>382.0</ele><time>2026-04-12T09:42:37.757Z</time></trkpt><trkpt lat="42.6378321" lon="12.2935743"><ele>384.5</ele><time>2026-04-12T09:42:38.761Z</time></trkpt><trkpt lat="42.6378294" lon="12.2936689"><ele>387.0</ele><time>2026-04-12T09:42:39.74Z</time></trkpt><trkpt lat="42.6378355" lon="12.29382"><ele>390.0</ele><time>2026-04-12T09:42:41.742Z</time></trkpt><trkpt lat="42.6378391" lon="12.2939683"><ele>393.0</ele><time>2026-04-12T09:42:43.739Z</time></trkpt><trkpt lat="42.6378437" lon="12.2941206"><ele>396.0</ele><time>2026-04-12T09:42:45.76Z</time></trkpt><trkpt lat="42.6378403" lon="12.2942079"><ele>399.0</ele><time>2026-04-12T09:42:46.73Z</time></trkpt><trkpt lat="42.6378654" lon="12.2943418"><ele>402.0</ele><time>2026-04-12T09:42:48.762Z</time></trkpt><trkpt lat="42.6379106" lon="12.2944288"><ele>402.0</ele><time>2026-04-12T09:42:50.769Z</time></trkpt><trkpt lat="42.6379436" lon="12.2945541"><ele>402.0</ele><time>2026-04-12T09:42:52.741Z</time></trkpt><trkpt lat="42.6379881" lon="12.2946999"><ele>402.0</ele><time>2026-04-12T09:42:54.741Z</time></trkpt><trkpt lat="42.6379934" lon="12.2948533"><ele>402.0</ele><time>2026-04-12T09:42:56.747Z</time></trkpt><trkpt lat="42.6379427" lon="12.2950061"><ele>404.3333333333333</ele><time>2026-04-12T09:42:58.747Z</time></trkpt><trkpt lat="42.6378824" lon="12.2951263"><ele>406.66666666666663</ele><time>2026-04-12T09:43:00.757Z</time></trkpt><trkpt lat="42.6378478" lon="12.2952159"><ele>409.0</ele><time>2026-04-12T09:43:02.741Z</time></trkpt><trkpt lat="42.6377946" lon="12.2952745"><ele>411.3333333333333</ele><time>2026-04-12T09:43:05.739Z</time></trkpt><trkpt lat="42.6377458" lon="12.2953877"><ele>413.66666666666663</ele><time>2026-04-12T09:43:08.746Z</time></trkpt><trkpt lat="42.6377175" lon="12.2954937"><ele>416.0</ele><time>2026-04-12T09:43:16.761Z</time></trkpt><trkpt lat="42.6376976" lon="12.2956338"><ele>416.99999999999994</ele><time>2026-04-12T09:43:18.74Z</time></trkpt><trkpt lat="42.6376764" lon="12.2958039"><ele>418.0</ele><time>2026-04-12T09:43:20.745Z</time></trkpt><trkpt lat="42.6376616" lon="12.2958978"><ele>419.0</ele><time>2026-04-12T09:43:21.741Z</time></trkpt><trkpt lat="42.6376415" lon="12.2960014"><ele>420.0</ele><time>2026-04-12T09:43:22.74Z</time></trkpt><trkpt lat="42.6376193" lon="12.2960948"><ele>420.99999999999994</ele><time>2026-04-12T09:43:23.742Z</time></trkpt><trkpt lat="42.6376067" lon="12.2962215"><ele>422.0</ele><time>2026-04-12T09:43:25.743Z</time></trkpt><trkpt lat="42.6376302" lon="12.2963046"><ele>421.99999999999994</ele><time>2026-04-12T09:43:27.742Z</time></trkpt><trkpt lat="42.6376976" lon="12.2963183"><ele>422.0</ele><time>2026-04-12T09:43:29.753Z</time></trkpt><trkpt lat="42.63776" lon="12.2963804"><ele>422.0</ele><time>2026-04-12T09:43:31.743Z</time></trkpt><trkpt lat="42.637797" lon="12.2965048"><ele>422.0</ele><time>2026-04-12T09:43:33.738Z</time></trkpt><trkpt lat="42.6378389" lon="12.2965979"><ele>421.99999999999994</ele><time>2026-04-12T09:43:35.738Z</time></trkpt><trkpt lat="42.6378836" lon="12.2966686"><ele>422.0</ele><time>2026-04-12T09:43:37.728Z</time></trkpt><trkpt lat="42.6379148" lon="12.2967591"><ele>423.0</ele><time>2026-04-12T09:43:39.747Z</time></trkpt><trkpt lat="42.6378774" lon="12.2968802"><ele>424.0</ele><time>2026-04-12T09:43:41.735Z</time></trkpt><trkpt lat="42.6378101" lon="12.2970134"><ele>425.00000000000006</ele><time>2026-04-12T09:43:43.743Z</time></trkpt><trkpt lat="42.6377493" lon="12.2971352"><ele>426.0</ele><time>2026-04-12T09:43:45.752Z</time></trkpt><trkpt lat="42.6377082" lon="12.2972028"><ele>427.0</ele><time>2026-04-12T09:43:46.752Z</time></trkpt><trkpt lat="42.6376575" lon="12.297282"><ele>428.0</ele><time>2026-04-12T09:43:47.759Z</time></trkpt><trkpt lat="42.6376088" lon="12.2973628"><ele>429.0</ele><time>2026-04-12T09:43:48.759Z</time></trkpt><trkpt lat="42.6375698" lon="12.2974512"><ele>430.0</ele><time>2026-04-12T09:43:49.75Z</time></trkpt><trkpt lat="42.6375248" lon="12.2975247"><ele>431.0</ele><time>2026-04-12T09:43:50.756Z</time></trkpt><trkpt lat="42.6374745" lon="12.297594"><ele>432.0</ele><time>2026-04-12T09:43:51.733Z</time></trkpt><trkpt lat="42.6374288" lon="12.2976644"><ele>433.0</ele><time>2026-04-12T09:43:52.748Z</time></trkpt><trkpt lat="42.6373901" lon="12.2977474"><ele>434.0</ele><time>2026-04-12T09:43:53.753Z</time></trkpt><trkpt lat="42.6373544" lon="12.2978188"><ele>434.0</ele><time>2026-04-12T09:43:54.759Z</time></trkpt><trkpt lat="42.6373148" lon="12.297947"><ele>434.0</ele><time>2026-04-12T09:43:56.744Z</time></trkpt><trkpt lat="42.6372876" lon="12.2980817"><ele>434.0</ele><time>2026-04-12T09:43:58.741Z</time></trkpt><trkpt lat="42.6372571" lon="12.2982322"><ele>434.0</ele><time>2026-04-12T09:44:00.75Z</time></trkpt><trkpt lat="42.6372373" lon="12.2983698"><ele>434.0</ele><time>2026-04-12T09:44:02.745Z</time></trkpt><trkpt lat="42.6372046" lon="12.2984954"><ele>436.3333333333333</ele><time>2026-04-12T09:44:04.751Z</time></trkpt><trkpt lat="42.6371917" lon="12.2985983"><ele>438.66666666666663</ele><time>2026-04-12T09:44:06.749Z</time></trkpt><trkpt lat="42.6371662" lon="12.2986817"><ele>441.0</ele><time>2026-04-12T09:44:09.742Z</time></trkpt><trkpt lat="42.6371415" lon="12.2987787"><ele>443.33333333333337</ele><time>2026-04-12T09:45:15.736Z</time></trkpt><trkpt lat="42.6371011" lon="12.2988864"><ele>445.6666666666667</ele><time>2026-04-12T09:45:18.747Z</time></trkpt><trkpt lat="42.6370708" lon="12.2989707"><ele>448.0</ele><time>2026-04-12T09:45:20.75Z</time></trkpt><trkpt lat="42.6370415" lon="12.2990645"><ele>450.59999999999997</ele><time>2026-04-12T09:45:22.751Z</time></trkpt><trkpt lat="42.6370255" lon="12.2991719"><ele>453.19999999999993</ele><time>2026-04-12T09:45:24.751Z</time></trkpt><trkpt lat="42.6370138" lon="12.2993129"><ele>455.8</ele><time>2026-04-12T09:45:26.761Z</time></trkpt><trkpt lat="42.6370124" lon="12.299478"><ele>458.4</ele><time>2026-04-12T09:45:28.761Z</time></trkpt><trkpt lat="42.6370632" lon="12.2995928"><ele>461.0</ele><time>2026-04-12T09:45:30.751Z</time></trkpt><trkpt lat="42.637108" lon="12.2996605"><ele>460.99999999999994</ele><time>2026-04-12T09:45:32.751Z</time></trkpt><trkpt lat="42.6371711" lon="12.2997096"><ele>461.0</ele><time>2026-04-12T09:45:34.757Z</time></trkpt><trkpt lat="42.6372416" lon="12.2997395"><ele>461.0</ele><time>2026-04-12T09:45:37.765Z</time></trkpt><trkpt lat="42.637315" lon="12.2997312"><ele>461.0</ele><time>2026-04-12T09:45:49.755Z</time></trkpt><trkpt lat="42.6374015" lon="12.299705"><ele>460.99999999999994</ele><time>2026-04-12T09:45:53.753Z</time></trkpt><trkpt lat="42.637525" lon="12.2997394"><ele>461.0</ele><time>2026-04-12T09:45:55.754Z</time></trkpt><trkpt lat="42.6376058" lon="12.2997649"><ele>462.99999999999994</ele><time>2026-04-12T09:45:56.758Z</time></trkpt><trkpt lat="42.637681" lon="12.2997986"><ele>465.0</ele><time>2026-04-12T09:45:57.758Z</time></trkpt><trkpt lat="42.6377558" lon="12.2998331"><ele>467.0</ele><time>2026-04-12T09:45:58.758Z</time></trkpt><trkpt lat="42.6378456" lon="12.2998834"><ele>469.0</ele><time>2026-04-12T09:46:00.758Z</time></trkpt><trkpt lat="42.6378989" lon="12.2999627"><ele>470.99999999999994</ele><time>2026-04-12T09:46:04.743Z</time></trkpt><trkpt lat="42.6379541" lon="12.3000165"><ele>473.0</ele><time>2026-04-12T09:46:15.751Z</time></trkpt><trkpt lat="42.6379992" lon="12.3000882"><ele>473.0</ele><time>2026-04-12T09:46:17.739Z</time></trkpt><trkpt lat="42.6380619" lon="12.3001718"><ele>473.0</ele><time>2026-04-12T09:46:19.753Z</time></trkpt><trkpt lat="42.6381262" lon="12.300296"><ele>473.0</ele><time>2026-04-12T09:46:21.752Z</time></trkpt><trkpt lat="42.637315" lon="12.2997312"><ele>473.2</ele><time>2026-04-12T09:45:49.755Z</time></trkpt><trkpt lat="42.6374015" lon="12.299705"><ele>473.4</ele><time>2026-04-12T09:45:53.753Z</time></trkpt><trkpt lat="42.637525" lon="12.2997394"><ele>473.59999999999997</ele><time>2026-04-12T09:45:55.754Z</time></trkpt><trkpt lat="42.6376058" lon="12.2997649"><ele>473.79999999999995</ele><time>2026-04-12T09:45:56.758Z</time></trkpt><trkpt lat="42.637681" lon="12.2997986"><ele>474.0</ele><time>2026-04-12T09:45:57.758Z</time></trkpt><trkpt lat="42.6377558" lon="12.2998331"><ele>473.8333333333333</ele><time>2026-04-12T09:45:58.758Z</time></trkpt><trkpt lat="42.6378456" lon="12.2998834"><ele>473.66666666666663</ele><time>2026-04-12T09:46:00.758Z</time></trkpt><trkpt lat="42.6378989" lon="12.2999627"><ele>473.5</ele><time>2026-04-12T09:46:04.743Z</time></trkpt><trkpt lat="42.6379541" lon="12.3000165"><ele>473.3333333333333</ele><time>2026-04-12T09:46:15.751Z</time></trkpt><trkpt lat="42.6379992" lon="12.3000882"><ele>473.16666666666663</ele><time>2026-04-12T09:46:17.739Z</time></trkpt><trkpt lat="42.6380619" lon="12.3001718"><ele>473.0</ele><time>2026-04-12T09:46:19.753Z</time></trkpt><trkpt lat="42.6381262" lon="12.300296"><ele>472.99999999999994</ele><time>2026-04-12T09:46:21.752Z</time></trkpt><trkpt lat="42.6382039" lon="12.3004043"><ele>473.0</ele><time>2026-04-12T09:46:23.737Z</time></trkpt><trkpt lat="42.6383046" lon="12.3004649"><ele>473.0</ele><time>2026-04-12T09:46:25.753Z</time></trkpt><trkpt lat="42.6383707" lon="12.3004935"><ele>473.0</ele><time>2026-04-12T09:46:26.753Z</time></trkpt><trkpt lat="42.6384399" lon="12.3005166"><ele>472.99999999999994</ele><time>2026-04-12T09:46:27.76Z</time></trkpt><trkpt lat="42.6385115" lon="12.3005353"><ele>473.0</ele><time>2026-04-12T09:46:28.752Z</time></trkpt><trkpt lat="42.6385777" lon="12.3005484"><ele>473.8333333333333</ele><time>2026-04-12T09:46:29.739Z</time></trkpt><trkpt lat="42.6386401" lon="12.3005625"><ele>474.66666666666663</ele><time>2026-04-12T09:46:30.745Z</time></trkpt><trkpt lat="42.6387298" lon="12.3006471"><ele>475.5</ele><time>2026-04-12T09:46:32.735Z</time></trkpt><trkpt lat="42.6386924" lon="12.3007382"><ele>476.33333333333337</ele><time>2026-04-12T09:46:35.744Z</time></trkpt><trkpt lat="42.6386351" lon="12.3008095"><ele>477.1666666666667</ele><time>2026-04-12T09:46:37.742Z</time></trkpt><trkpt lat="42.6385898" lon="12.3008729"><ele>478.0</ele><time>2026-04-12T09:46:38.74Z</time></trkpt><trkpt lat="42.6385252" lon="12.3009613"><ele>476.00000000000006</ele><time>2026-04-12T09:46:39.735Z</time></trkpt><trkpt lat="42.638468" lon="12.3010437"><ele>474.0</ele><time>2026-04-12T09:46:40.751Z</time></trkpt><trkpt lat="42.6384261" lon="12.3011084"><ele>472.00000000000006</ele><time>2026-04-12T09:46:41.748Z</time></trkpt><trkpt lat="42.6383839" lon="12.3011758"><ele>470.00000000000006</ele><time>2026-04-12T09:46:42.751Z</time></trkpt><trkpt lat="42.638338" lon="12.3012508"><ele>468.0</ele><time>2026-04-12T09:46:43.732Z</time></trkpt><trkpt lat="42.6382907" lon="12.3013209"><ele>466.00000000000006</ele><time>2026-04-12T09:46:44.751Z</time></trkpt><trkpt lat="42.638241" lon="12.3013927"><ele>464.00000000000006</ele><time>2026-04-12T09:46:45.739Z</time></trkpt><trkpt lat="42.6381974" lon="12.3014699"><ele>461.7142857142858</ele><time>2026-04-12T09:46:46.75Z</time></trkpt><trkpt lat="42.6381475" lon="12.3015389"><ele>459.42857142857144</ele><time>2026-04-12T09:46:47.733Z</time></trkpt><trkpt lat="42.6380919" lon="12.3016059"><ele>457.14285714285717</ele><time>2026-04-12T09:46:48.747Z</time></trkpt><trkpt lat="42.6380389" lon="12.3016736"><ele>454.8571428571429</ele><time>2026-04-12T09:46:49.741Z</time></trkpt><trkpt lat="42.6379865" lon="12.3017434"><ele>452.57142857142856</ele><time>2026-04-12T09:46:50.753Z</time></trkpt><trkpt lat="42.6379421" lon="12.3018045"><ele>450.2857142857143</ele><time>2026-04-12T09:46:51.751Z</time></trkpt><trkpt lat="42.6378981" lon="12.3018737"><ele>448.0</ele><time>2026-04-12T09:46:52.743Z</time></trkpt><trkpt lat="42.6378698" lon="12.3019507"><ele>448.00000000000006</ele><time>2026-04-12T09:46:53.735Z</time></trkpt><trkpt lat="42.6378608" lon="12.3020369"><ele>448.0</ele><time>2026-04-12T09:46:54.737Z</time></trkpt><trkpt lat="42.6378579" lon="12.3021327"><ele>448.0</ele><time>2026-04-12T09:46:55.739Z</time></trkpt><trkpt lat="42.6378568" lon="12.3022322"><ele>448.0</ele><time>2026-04-12T09:46:56.736Z</time></trkpt><trkpt lat="42.6378647" lon="12.3023238"><ele>448.00000000000006</ele><time>2026-04-12T09:46:57.735Z</time></trkpt><trkpt lat="42.6378783" lon="12.3024146"><ele>448.0</ele><time>2026-04-12T09:46:58.759Z</time></trkpt><trkpt lat="42.6379262" lon="12.3025545"><ele>446.6666666666667</ele><time>2026-04-12T09:47:00.744Z</time></trkpt><trkpt lat="42.6379519" lon="12.302636"><ele>445.33333333333337</ele><time>2026-04-12T09:47:01.741Z</time></trkpt><trkpt lat="42.6379771" lon="12.3027203"><ele>444.0</ele><time>2026-04-12T09:47:02.757Z</time></trkpt><trkpt lat="42.638002" lon="12.3028925"><ele>442.66666666666663</ele><time>2026-04-12T09:47:04.744Z</time></trkpt><trkpt lat="42.6380332" lon="12.3029926"><ele>441.3333333333333</ele><time>2026-04-12T09:47:05.756Z</time></trkpt><trkpt lat="42.638063" lon="12.3030947"><ele>440.0</ele><time>2026-04-12T09:47:06.766Z</time></trkpt><trkpt lat="42.6380866" lon="12.3031878"><ele>439.16666666666663</ele><time>2026-04-12T09:47:07.733Z</time></trkpt><trkpt lat="42.6381079" lon="12.3032808"><ele>438.3333333333333</ele><time>2026-04-12T09:47:08.753Z</time></trkpt><trkpt lat="42.6381204" lon="12.3033651"><ele>437.5</ele><time>2026-04-12T09:47:09.75Z</time></trkpt><trkpt lat="42.6381231" lon="12.3035144"><ele>436.66666666666663</ele><time>2026-04-12T09:47:11.741Z</time></trkpt><trkpt lat="42.6381247" lon="12.3036837"><ele>435.8333333333333</ele><time>2026-04-12T09:47:13.727Z</time></trkpt><trkpt lat="42.6381251" lon="12.3037789"><ele>435.0</ele><time>2026-04-12T09:47:14.731Z</time></trkpt><trkpt lat="42.6381268" lon="12.3038692"><ele>434.42857142857144</ele><time>2026-04-12T09:47:15.742Z</time></trkpt><trkpt lat="42.6381315" lon="12.3039611"><ele>433.8571428571429</ele><time>2026-04-12T09:47:16.748Z</time></trkpt><trkpt lat="42.6381313" lon="12.3040589"><ele>433.28571428571433</ele><time>2026-04-12T09:47:17.741Z</time></trkpt><trkpt lat="42.6381381" lon="12.3041475"><ele>432.7142857142857</ele><time>2026-04-12T09:47:18.74Z</time></trkpt><trkpt lat="42.6381347" lon="12.3042588"><ele>432.1428571428571</ele><time>2026-04-12T09:47:20.746Z</time></trkpt><trkpt lat="42.638116" lon="12.3043453"><ele>431.5714285714286</ele><time>2026-04-12T09:47:23.737Z</time></trkpt><trkpt lat="42.6380815" lon="12.3044242"><ele>431.0</ele><time>2026-04-12T09:47:25.73Z</time></trkpt><trkpt lat="42.6380248" lon="12.3045357"><ele>431.0</ele><time>2026-04-12T09:47:27.732Z</time></trkpt><trkpt lat="42.6379594" lon="12.3046471"><ele>431.0</ele><time>2026-04-12T09:47:29.734Z</time></trkpt><trkpt lat="42.6378944" lon="12.3047546"><ele>431.0</ele><time>2026-04-12T09:47:31.733Z</time></trkpt><trkpt lat="42.637845" lon="12.3048359"><ele>431.0</ele><time>2026-04-12T09:47:33.737Z</time></trkpt><trkpt lat="42.6377761" lon="12.3049308"><ele>431.0</ele><time>2026-04-12T09:47:35.739Z</time></trkpt><trkpt lat="42.6377344" lon="12.3050058"><ele>435.3333333333333</ele><time>2026-04-12T09:47:37.738Z</time></trkpt><trkpt lat="42.6376906" lon="12.3050804"><ele>439.66666666666663</ele><time>2026-04-12T09:47:39.729Z</time></trkpt><trkpt lat="42.6376342" lon="12.3051656"><ele>444.0</ele><time>2026-04-12T09:47:41.738Z</time></trkpt><trkpt lat="42.6375658" lon="12.3052711"><ele>448.33333333333337</ele><time>2026-04-12T09:47:43.73Z</time></trkpt><trkpt lat="42.6375216" lon="12.3053328"><ele>452.6666666666667</ele><time>2026-04-12T09:47:44.75Z</time></trkpt><trkpt lat="42.6374515" lon="12.3054484"><ele>457.0</ele><time>2026-04-12T09:47:46.743Z</time></trkpt><trkpt lat="42.6373982" lon="12.3055177"><ele>457.00000000000006</ele><time>2026-04-12T09:47:48.743Z</time></trkpt><trkpt lat="42.6373459" lon="12.3055706"><ele>457.0</ele><time>2026-04-12T09:47:51.74Z</time></trkpt><trkpt lat="42.6372875" lon="12.3056311"><ele>457.0</ele><time>2026-04-12T09:48:01.729Z</time></trkpt><trkpt lat="42.6372294" lon="12.3057165"><ele>457.0</ele><time>2026-04-12T09:48:04.732Z</time></trkpt><trkpt lat="42.6371845" lon="12.3058124"><ele>457.00000000000006</ele><time>2026-04-12T09:48:06.752Z</time></trkpt><trkpt lat="42.637121" lon="12.3058891"><ele>457.0</ele><time>2026-04-12T09:48:08.723Z</time></trkpt><trkpt lat="42.6370704" lon="12.3059685"><ele>455.1666666666667</ele><time>2026-04-12T09:48:10.73Z</time></trkpt><trkpt lat="42.6370175" lon="12.3060478"><ele>453.33333333333337</ele><time>2026-04-12T09:48:12.735Z</time></trkpt><trkpt lat="42.6369631" lon="12.3061233"><ele>451.5</ele><time>2026-04-12T09:48:14.738Z</time></trkpt><trkpt lat="42.6369145" lon="12.306194"><ele>449.66666666666663</ele><time>2026-04-12T09:48:16.742Z</time></trkpt><trkpt lat="42.6368767" lon="12.3062785"><ele>447.8333333333333</ele><time>2026-04-12T09:48:18.774Z</time></trkpt><trkpt lat="42.6368351" lon="12.3063694"><ele>446.0</ele><time>2026-04-12T09:48:21.739Z</time></trkpt><trkpt lat="42.636785" lon="12.3064689"><ele>446.0</ele><time>2026-04-12T09:48:24.758Z</time></trkpt><trkpt lat="42.6367359" lon="12.306565"><ele>446.0</ele><time>2026-04-12T09:48:27.721Z</time></trkpt><trkpt lat="42.6366918" lon="12.3066344"><ele>446.0</ele><time>2026-04-12T09:48:31.74Z</time></trkpt><trkpt lat="42.6366368" lon="12.3066874"><ele>446.0</ele><time>2026-04-12T09:48:37.737Z</time></trkpt><trkpt lat="42.6365779" lon="12.3067311"><ele>446.0</ele><time>2026-04-12T09:50:34.736Z</time></trkpt><trkpt lat="42.6365425" lon="12.3068051"><ele>446.0</ele><time>2026-04-12T09:52:41.747Z</time></trkpt><trkpt lat="42.6364616" lon="12.306871"><ele>446.0</ele><time>2026-04-12T09:52:48.735Z</time></trkpt><trkpt lat="42.6364114" lon="12.3069518"><ele>446.0</ele><time>2026-04-12T09:52:50.751Z</time></trkpt><trkpt lat="42.6363458" lon="12.3070012"><ele>446.0</ele><time>2026-04-12T09:52:53.742Z</time></trkpt><trkpt lat="42.636303" lon="12.3070814"><ele>446.0</ele><time>2026-04-12T09:52:57.757Z</time></trkpt><trkpt lat="42.6362499" lon="12.3071352"><ele>446.0</ele><time>2026-04-12T09:53:19.748Z</time></trkpt><trkpt lat="42.6361952" lon="12.3072074"><ele>446.0</ele><time>2026-04-12T09:53:23.739Z</time></trkpt><trkpt lat="42.6361405" lon="12.3072699"><ele>446.0</ele><time>2026-04-12T09:53:26.747Z</time></trkpt><trkpt lat="42.6360705" lon="12.3073174"><ele>446.0</ele><time>2026-04-12T09:53:29.746Z</time></trkpt><trkpt lat="42.6360099" lon="12.3073707"><ele>440.0</ele><time>2026-04-12T09:53:31.732Z</time></trkpt><trkpt lat="42.6359488" lon="12.3074558"><ele>440.0</ele><time>2026-04-12T09:53:33.737Z</time></trkpt><trkpt lat="42.6358744" lon="12.3075279"><ele>440.0</ele><time>2026-04-12T09:53:35.745Z</time></trkpt><trkpt lat="42.6357874" lon="12.3076022"><ele>440.0</ele><time>2026-04-12T09:53:37.74Z</time></trkpt></trkseg><trkseg><trkpt lat="42.634496" lon="12.3103098"><ele>420.75</ele><time>2026-04-12T09:59:23.865Z</time></trkpt><trkpt lat="42.6343973" lon="12.3103531"><ele>420.5</ele><time>2026-04-12T09:59:25.869Z</time></trkpt><trkpt lat="42.6342423" lon="12.3104043"><ele>420.25</ele><time>2026-04-12T09:59:29.855Z</time></trkpt><trkpt lat="42.6341269" lon="12.3104589"><ele>420.0</ele><time>2026-04-12T09:59:31.858Z</time></trkpt><trkpt lat="42.6340557" lon="12.3104937"><ele>420.0</ele><time>2026-04-12T09:59:32.839Z</time></trkpt><trkpt lat="42.6339714" lon="12.3105373"><ele>420.0</ele><time>2026-04-12T09:59:33.843Z</time></trkpt><trkpt lat="42.6338842" lon="12.3105795"><ele>420.0</ele><time>2026-04-12T09:59:34.862Z</time></trkpt><trkpt lat="42.6337924" lon="12.3106253"><ele>420.0</ele><time>2026-04-12T09:59:35.867Z</time></trkpt><trkpt lat="42.6336939" lon="12.310673"><ele>420.0</ele><time>2026-04-12T09:59:36.856Z</time></trkpt><trkpt lat="42.6335936" lon="12.3107273"><ele>419.5</ele><time>2026-04-12T09:59:37.85Z</time></trkpt><trkpt lat="42.6334916" lon="12.3107878"><ele>419.0</ele><time>2026-04-12T09:59:38.868Z</time></trkpt><trkpt lat="42.6333884" lon="12.3108482"><ele>418.5</ele><time>2026-04-12T09:59:39.89Z</time></trkpt><trkpt lat="42.6332774" lon="12.310909"><ele>418.0</ele><time>2026-04-12T09:59:40.868Z</time></trkpt><trkpt lat="42.6331639" lon="12.3109738"><ele>418.0</ele><time>2026-04-12T09:59:41.852Z</time></trkpt><trkpt lat="42.6330496" lon="12.3110414"><ele>418.0</ele><time>2026-04-12T09:59:42.844Z</time></trkpt><trkpt lat="42.6329307" lon="12.3111085"><ele>418.0</ele><time>2026-04-12T09:59:43.845Z</time></trkpt><trkpt lat="42.6328099" lon="12.3111723"><ele>418.0</ele><time>2026-04-12T09:59:44.849Z</time></trkpt><trkpt lat="42.6326849" lon="12.3112355"><ele>418.33333333333337</ele><time>2026-04-12T09:59:45.852Z</time></trkpt><trkpt lat="42.6325628" lon="12.3112941"><ele>418.66666666666663</ele><time>2026-04-12T09:59:46.863Z</time></trkpt><trkpt lat="42.6323259" lon="12.311418"><ele>419.0</ele><time>2026-04-12T09:59:48.876Z</time></trkpt><trkpt lat="42.632204" lon="12.3114822"><ele>419.0</ele><time>2026-04-12T09:59:49.866Z</time></trkpt><trkpt lat="42.6320831" lon="12.3115407"><ele>419.0</ele><time>2026-04-12T09:59:50.851Z</time></trkpt><trkpt lat="42.6318644" lon="12.311641"><ele>419.0</ele><time>2026-04-12T09:59:52.871Z</time></trkpt><trkpt lat="42.6317673" lon="12.3116826"><ele>418.99999999999994</ele><time>2026-04-12T09:59:53.847Z</time></trkpt><trkpt lat="42.6316778" lon="12.3117168"><ele>419.0</ele><time>2026-04-12T09:59:54.85Z</time></trkpt><trkpt lat="42.6315939" lon="12.3117456"><ele>419.0</ele><time>2026-04-12T09:59:55.85Z</time></trkpt><trkpt lat="42.6315162" lon="12.3117835"><ele>419.0</ele><time>2026-04-12T09:59:56.844Z</time></trkpt><trkpt lat="42.6314504" lon="12.311826"><ele>418.99999999999994</ele><time>2026-04-12T09:59:57.85Z</time></trkpt><trkpt lat="42.6313771" lon="12.311906"><ele>419.0</ele><time>2026-04-12T09:59:59.846Z</time></trkpt><trkpt lat="42.6312765" lon="12.3119748"><ele>418.99999999999994</ele><time>2026-04-12T10:00:01.847Z</time></trkpt><trkpt lat="42.6312092" lon="12.3120033"><ele>419.0</ele><time>2026-04-12T10:00:02.857Z</time></trkpt><trkpt lat="42.6311367" lon="12.3120318"><ele>419.0</ele><time>2026-04-12T10:00:03.848Z</time></trkpt><trkpt lat="42.6310552" lon="12.3120565"><ele>419.0</ele><time>2026-04-12T10:00:04.858Z</time></trkpt><trkpt lat="42.6309651" lon="12.3120875"><ele>418.99999999999994</ele><time>2026-04-12T10:00:05.847Z</time></trkpt><trkpt lat="42.6308704" lon="12.3121334"><ele>419.0</ele><time>2026-04-12T10:00:06.874Z</time></trkpt><trkpt lat="42.6307741" lon="12.3121839"><ele>418.0</ele><time>2026-04-12T10:00:07.883Z</time></trkpt><trkpt lat="42.6305566" lon="12.3122624"><ele>417.0</ele><time>2026-04-12T10:00:09.855Z</time></trkpt><trkpt lat="42.6304432" lon="12.3122975"><ele>416.0</ele><time>2026-04-12T10:00:10.84Z</time></trkpt><trkpt lat="42.630328" lon="12.3123346"><ele>415.6</ele><time>2026-04-12T10:00:11.866Z</time></trkpt><trkpt lat="42.6302156" lon="12.3123713"><ele>415.20000000000005</ele><time>2026-04-12T10:00:12.848Z</time></trkpt><trkpt lat="42.6301041" lon="12.3124123"><ele>414.79999999999995</ele><time>2026-04-12T10:00:13.856Z</time></trkpt><trkpt lat="42.6299993" lon="12.3124574"><ele>414.4</ele><time>2026-04-12T10:00:14.876Z</time></trkpt><trkpt lat="42.6299009" lon="12.3125104"><ele>414.0</ele><time>2026-04-12T10:00:15.843Z</time></trkpt><trkpt lat="42.6298106" lon="12.3125702"><ele>414.0</ele><time>2026-04-12T10:00:16.851Z</time></trkpt><trkpt lat="42.6297249" lon="12.3126151"><ele>414.0</ele><time>2026-04-12T10:00:17.863Z</time></trkpt><trkpt lat="42.6296432" lon="12.312641"><ele>414.0</ele><time>2026-04-12T10:00:18.86Z</time></trkpt><trkpt lat="42.6295515" lon="12.3126703"><ele>414.0</ele><time>2026-04-12T10:00:19.864Z</time></trkpt><trkpt lat="42.6294563" lon="12.312696"><ele>414.0</ele><time>2026-04-12T10:00:20.842Z</time></trkpt><trkpt lat="42.6293607" lon="12.3127318"><ele>414.79999999999995</ele><time>2026-04-12T10:00:21.844Z</time></trkpt><trkpt lat="42.6292675" lon="12.3127566"><ele>415.59999999999997</ele><time>2026-04-12T10:00:22.848Z</time></trkpt><trkpt lat="42.6291787" lon="12.312792"><ele>416.4</ele><time>2026-04-12T10:00:23.856Z</time></trkpt><trkpt lat="42.6290945" lon="12.3128307"><ele>417.2</ele><time>2026-04-12T10:00:24.857Z</time></trkpt><trkpt lat="42.6290048" lon="12.3128735"><ele>418.0</ele><time>2026-04-12T10:00:25.876Z</time></trkpt><trkpt lat="42.6289197" lon="12.3129137"><ele>418.0</ele><time>2026-04-12T10:00:26.855Z</time></trkpt><trkpt lat="42.6288432" lon="12.312946"><ele>418.0</ele><time>2026-04-12T10:00:27.865Z</time></trkpt><trkpt lat="42.6287663" lon="12.3129582"><ele>418.0</ele><time>2026-04-12T10:00:28.847Z</time></trkpt><trkpt lat="42.6286202" lon="12.3128412"><ele>418.0</ele><time>2026-04-12T10:00:32.852Z</time></trkpt><trkpt lat="42.6285844" lon="12.3127013"><ele>418.0</ele><time>2026-04-12T10:00:34.863Z</time></trkpt><trkpt lat="42.628493" lon="12.3125969"><ele>419.1666666666667</ele><time>2026-04-12T10:00:36.868Z</time></trkpt><trkpt lat="42.6284308" lon="12.3125829"><ele>420.33333333333337</ele><time>2026-04-12T10:00:37.846Z</time></trkpt><trkpt lat="42.6283585" lon="12.3125757"><ele>421.5</ele><time>2026-04-12T10:00:38.856Z</time></trkpt><trkpt lat="42.628288" lon="12.3125729"><ele>422.66666666666663</ele><time>2026-04-12T10:00:39.855Z</time></trkpt><trkpt lat="42.6282119" lon="12.3125706"><ele>423.8333333333333</ele><time>2026-04-12T10:00:40.852Z</time></trkpt><trkpt lat="42.628129" lon="12.3125725"><ele>425.0</ele><time>2026-04-12T10:00:41.855Z</time></trkpt><trkpt lat="42.6280325" lon="12.3125815"><ele>425.0</ele><time>2026-04-12T10:00:42.856Z</time></trkpt><trkpt lat="42.627933" lon="12.3125978"><ele>425.0</ele><time>2026-04-12T10:00:43.855Z</time></trkpt><trkpt lat="42.627827" lon="12.3126167"><ele>425.0</ele><time>2026-04-12T10:00:44.847Z</time></trkpt><trkpt lat="42.6277222" lon="12.3126371"><ele>425.0</ele><time>2026-04-12T10:00:45.855Z</time></trkpt><trkpt lat="42.6276254" lon="12.3126479"><ele>425.0</ele><time>2026-04-12T10:00:46.851Z</time></trkpt><trkpt lat="42.6275314" lon="12.3126591"><ele>425.5</ele><time>2026-04-12T10:00:47.854Z</time></trkpt><trkpt lat="42.6274436" lon="12.3126795"><ele>426.0</ele><time>2026-04-12T10:00:48.856Z</time></trkpt><trkpt lat="42.627377" lon="12.312695"><ele>426.5</ele><time>2026-04-12T10:00:49.855Z</time></trkpt><trkpt lat="42.6271518" lon="12.3127241"><ele>427.0</ele><time>2026-04-12T10:00:53.839Z</time></trkpt><trkpt lat="42.627069" lon="12.3127138"><ele>427.00000000000006</ele><time>2026-04-12T10:00:56.85Z</time></trkpt><trkpt lat="42.6269894" lon="12.3127137"><ele>427.0</ele><time>2026-04-12T10:00:59.845Z</time></trkpt><trkpt lat="42.6269188" lon="12.3127098"><ele>427.0</ele><time>2026-04-12T10:01:01.84Z</time></trkpt><trkpt lat="42.6268348" lon="12.3126722"><ele>427.0</ele><time>2026-04-12T10:01:04.863Z</time></trkpt><trkpt lat="42.6267312" lon="12.3126921"><ele>427.00000000000006</ele><time>2026-04-12T10:01:07.843Z</time></trkpt><trkpt lat="42.6266312" lon="12.312676"><ele>427.0</ele><time>2026-04-12T10:01:09.835Z</time></trkpt><trkpt lat="42.626562" lon="12.3126866"><ele>426.8</ele><time>2026-04-12T10:01:12.848Z</time></trkpt><trkpt lat="42.6263975" lon="12.3127326"><ele>426.6</ele><time>2026-04-12T10:01:19.839Z</time></trkpt><trkpt lat="42.6263259" lon="12.3127423"><ele>426.40000000000003</ele><time>2026-04-12T10:01:21.892Z</time></trkpt><trkpt lat="42.6262634" lon="12.3127564"><ele>426.20000000000005</ele><time>2026-04-12T10:01:23.855Z</time></trkpt><trkpt lat="42.6261644" lon="12.3127856"><ele>426.0</ele><time>2026-04-12T10:01:25.841Z</time></trkpt><trkpt lat="42.6260392" lon="12.3128244"><ele>425.1666666666667</ele><time>2026-04-12T10:01:27.844Z</time></trkpt><trkpt lat="42.6259657" lon="12.312844"><ele>424.33333333333337</ele><time>2026-04-12T10:01:28.837Z</time></trkpt><trkpt lat="42.6258942" lon="12.3128654"><ele>423.5</ele><time>2026-04-12T10:01:29.838Z</time></trkpt><trkpt lat="42.6258212" lon="12.3128834"><ele>422.6666666666667</ele><time>2026-04-12T10:01:30.85Z</time></trkpt><trkpt lat="42.625749" lon="12.3128889"><ele>421.83333333333337</ele><time>2026-04-12T10:01:31.846Z</time></trkpt><trkpt lat="42.6256662" lon="12.3128718"><ele>421.0</ele><time>2026-04-12T10:01:32.835Z</time></trkpt><trkpt lat="42.6255673" lon="12.3128601"><ele>421.0</ele><time>2026-04-12T10:01:33.869Z</time></trkpt><trkpt lat="42.6253809" lon="12.3128443"><ele>421.0</ele><time>2026-04-12T10:01:35.843Z</time></trkpt><trkpt lat="42.6252793" lon="12.3128286"><ele>421.0</ele><time>2026-04-12T10:01:36.833Z</time></trkpt><trkpt lat="42.6251765" lon="12.3128093"><ele>421.0</ele><time>2026-04-12T10:01:37.841Z</time></trkpt><trkpt lat="42.6250758" lon="12.3127907"><ele>420.50000000000006</ele><time>2026-04-12T10:01:38.844Z</time></trkpt><trkpt lat="42.6249761" lon="12.3127738"><ele>420.0</ele><time>2026-04-12T10:01:39.836Z</time></trkpt><trkpt lat="42.6248781" lon="12.3127599"><ele>419.5</ele><time>2026-04-12T10:01:40.84Z</time></trkpt><trkpt lat="42.6247846" lon="12.3127345"><ele>419.0</ele><time>2026-04-12T10:01:41.843Z</time></trkpt><trkpt lat="42.6247067" lon="12.3127048"><ele>418.50000000000006</ele><time>2026-04-12T10:01:42.849Z</time></trkpt><trkpt lat="42.6246375" lon="12.3126794"><ele>418.0</ele><time>2026-04-12T10:01:43.837Z</time></trkpt><trkpt lat="42.6245523" lon="12.3126607"><ele>417.4</ele><time>2026-04-12T10:01:44.89Z</time></trkpt><trkpt lat="42.6244562" lon="12.3126446"><ele>416.79999999999995</ele><time>2026-04-12T10:01:45.837Z</time></trkpt><trkpt lat="42.6243645" lon="12.3126279"><ele>416.2</ele><time>2026-04-12T10:01:46.852Z</time></trkpt><trkpt lat="42.6242606" lon="12.3126019"><ele>415.6</ele><time>2026-04-12T10:01:47.846Z</time></trkpt><trkpt lat="42.6241569" lon="12.3125739"><ele>415.0</ele><time>2026-04-12T10:01:48.833Z</time></trkpt><trkpt lat="42.6240542" lon="12.3125525"><ele>415.0</ele><time>2026-04-12T10:01:49.84Z</time></trkpt><trkpt lat="42.6239524" lon="12.3125381"><ele>415.0</ele><time>2026-04-12T10:01:50.834Z</time></trkpt><trkpt lat="42.6238531" lon="12.3125237"><ele>415.0</ele><time>2026-04-12T10:01:51.84Z</time></trkpt><trkpt lat="42.6237584" lon="12.3125058"><ele>415.0</ele><time>2026-04-12T10:01:52.862Z</time></trkpt><trkpt lat="42.6236764" lon="12.3124969"><ele>415.0</ele><time>2026-04-12T10:01:53.837Z</time></trkpt><trkpt lat="42.6236044" lon="12.3124963"><ele>414.0</ele><time>2026-04-12T10:01:54.845Z</time></trkpt><trkpt lat="42.6234576" lon="12.3125516"><ele>413.0</ele><time>2026-04-12T10:01:56.834Z</time></trkpt><trkpt lat="42.6233768" lon="12.3125699"><ele>412.0</ele><time>2026-04-12T10:01:57.848Z</time></trkpt><trkpt lat="42.6232842" lon="12.3125633"><ele>411.0</ele><time>2026-04-12T10:01:58.841Z</time></trkpt><trkpt lat="42.623184" lon="12.3125526"><ele>410.0</ele><time>2026-04-12T10:01:59.836Z</time></trkpt><trkpt lat="42.6230934" lon="12.3125517"><ele>410.0</ele><time>2026-04-12T10:02:00.833Z</time></trkpt><trkpt lat="42.6229958" lon="12.3125929"><ele>410.0</ele><time>2026-04-12T10:02:02.844Z</time></trkpt><trkpt lat="42.6229464" lon="12.3126508"><ele>410.0</ele><time>2026-04-12T10:02:06.838Z</time></trkpt><trkpt lat="42.6228711" lon="12.3126211"><ele>410.0</ele><time>2026-04-12T10:02:13.852Z</time></trkpt><trkpt lat="42.6228046" lon="12.31258"><ele>410.0</ele><time>2026-04-12T10:02:29.858Z</time></trkpt><trkpt lat="42.6229257" lon="12.312745"><ele>410.0</ele><time>2026-04-12T10:02:34.884Z</time></trkpt><trkpt lat="42.6229873" lon="12.3128977"><ele>410.0</ele><time>2026-04-12T10:02:36.868Z</time></trkpt><trkpt lat="42.6230131" lon="12.3130073"><ele>410.0</ele><time>2026-04-12T10:02:37.86Z</time></trkpt><trkpt lat="42.6230365" lon="12.3131168"><ele>410.0</ele><time>2026-04-12T10:02:38.873Z</time></trkpt><trkpt lat="42.6230533" lon="12.3132371"><ele>410.0</ele><time>2026-04-12T10:02:39.883Z</time></trkpt><trkpt lat="42.6230623" lon="12.3133779"><ele>410.2</ele><time>2026-04-12T10:02:40.867Z</time></trkpt><trkpt lat="42.6230684" lon="12.3135239"><ele>410.4</ele><time>2026-04-12T10:02:41.872Z</time></trkpt><trkpt lat="42.6230739" lon="12.3136709"><ele>410.6</ele><time>2026-04-12T10:02:42.852Z</time></trkpt><trkpt lat="42.6230847" lon="12.3138183"><ele>410.8</ele><time>2026-04-12T10:02:43.858Z</time></trkpt><trkpt lat="42.6230992" lon="12.3139607"><ele>411.0</ele><time>2026-04-12T10:02:44.85Z</time></trkpt><trkpt lat="42.6231206" lon="12.3140992"><ele>411.0</ele><time>2026-04-12T10:02:45.859Z</time></trkpt><trkpt lat="42.623156" lon="12.3142372"><ele>411.0</ele><time>2026-04-12T10:02:46.847Z</time></trkpt><trkpt lat="42.623207" lon="12.3143669"><ele>411.0</ele><time>2026-04-12T10:02:47.86Z</time></trkpt><trkpt lat="42.6232686" lon="12.3144837"><ele>411.0</ele><time>2026-04-12T10:02:48.843Z</time></trkpt><trkpt lat="42.6233395" lon="12.3145937"><ele>411.0</ele><time>2026-04-12T10:02:49.862Z</time></trkpt><trkpt lat="42.6234116" lon="12.3146983"><ele>411.0</ele><time>2026-04-12T10:02:50.861Z</time></trkpt><trkpt lat="42.6235802" lon="12.3148863"><ele>411.0</ele><time>2026-04-12T10:02:52.853Z</time></trkpt><trkpt lat="42.6236786" lon="12.3149694"><ele>411.0</ele><time>2026-04-12T10:02:53.859Z</time></trkpt><trkpt lat="42.6237767" lon="12.3150505"><ele>411.0</ele><time>2026-04-12T10:02:54.854Z</time></trkpt><trkpt lat="42.6238752" lon="12.3151296"><ele>411.0</ele><time>2026-04-12T10:02:55.863Z</time></trkpt><trkpt lat="42.6239809" lon="12.315211"><ele>411.0</ele><time>2026-04-12T10:02:56.858Z</time></trkpt><trkpt lat="42.6240872" lon="12.3152903"><ele>411.0</ele><time>2026-04-12T10:02:57.86Z</time></trkpt><trkpt lat="42.624199" lon="12.3153748"><ele>411.0</ele><time>2026-04-12T10:02:58.854Z</time></trkpt><trkpt lat="42.6243145" lon="12.3154714"><ele>411.75</ele><time>2026-04-12T10:02:59.882Z</time></trkpt><trkpt lat="42.6244216" lon="12.3155716"><ele>412.5</ele><time>2026-04-12T10:03:00.853Z</time></trkpt><trkpt lat="42.6245261" lon="12.3156543"><ele>413.25</ele><time>2026-04-12T10:03:01.86Z</time></trkpt><trkpt lat="42.6246304" lon="12.3157333"><ele>414.0</ele><time>2026-04-12T10:03:02.86Z</time></trkpt><trkpt lat="42.6247327" lon="12.3158023"><ele>414.0</ele><time>2026-04-12T10:03:03.874Z</time></trkpt><trkpt lat="42.6248273" lon="12.3158571"><ele>414.0</ele><time>2026-04-12T10:03:04.869Z</time></trkpt><trkpt lat="42.6249177" lon="12.3159017"><ele>414.0</ele><time>2026-04-12T10:03:05.847Z</time></trkpt><trkpt lat="42.6249986" lon="12.3159477"><ele>414.0</ele><time>2026-04-12T10:03:06.868Z</time></trkpt><trkpt lat="42.6250806" lon="12.3159961"><ele>414.0</ele><time>2026-04-12T10:03:07.861Z</time></trkpt><trkpt lat="42.6251601" lon="12.3160463"><ele>414.0</ele><time>2026-04-12T10:03:08.85Z</time></trkpt><trkpt lat="42.625228" lon="12.3160975"><ele>414.0</ele><time>2026-04-12T10:03:09.864Z</time></trkpt><trkpt lat="42.625273" lon="12.3161654"><ele>414.0</ele><time>2026-04-12T10:03:10.855Z</time></trkpt><trkpt lat="42.6252646" lon="12.3164259"><ele>414.0</ele><time>2026-04-12T10:03:13.843Z</time></trkpt><trkpt lat="42.6252621" lon="12.3165362"><ele>414.0</ele><time>2026-04-12T10:03:14.843Z</time></trkpt><trkpt lat="42.6252719" lon="12.3166507"><ele>413.79999999999995</ele><time>2026-04-12T10:03:15.877Z</time></trkpt><trkpt lat="42.625287" lon="12.3167748"><ele>413.59999999999997</ele><time>2026-04-12T10:03:16.859Z</time></trkpt><trkpt lat="42.62531" lon="12.3169152"><ele>413.4</ele><time>2026-04-12T10:03:17.89Z</time></trkpt><trkpt lat="42.6253295" lon="12.317062"><ele>413.2</ele><time>2026-04-12T10:03:18.853Z</time></trkpt><trkpt lat="42.6253223" lon="12.3172174"><ele>413.0</ele><time>2026-04-12T10:03:19.858Z</time></trkpt><trkpt lat="42.6252848" lon="12.3173653"><ele>414.25</ele><time>2026-04-12T10:03:20.855Z</time></trkpt><trkpt lat="42.6252344" lon="12.3175189"><ele>415.5</ele><time>2026-04-12T10:03:21.872Z</time></trkpt><trkpt lat="42.6251842" lon="12.317672"><ele>416.75</ele><time>2026-04-12T10:03:22.859Z</time></trkpt><trkpt lat="42.6251447" lon="12.3178253"><ele>418.0</ele><time>2026-04-12T10:03:23.847Z</time></trkpt><trkpt lat="42.6251157" lon="12.3179775"><ele>418.0</ele><time>2026-04-12T10:03:24.839Z</time></trkpt><trkpt lat="42.6251094" lon="12.3181138"><ele>418.0</ele><time>2026-04-12T10:03:25.865Z</time></trkpt><trkpt lat="42.6251151" lon="12.3182488"><ele>418.0</ele><time>2026-04-12T10:03:26.854Z</time></trkpt><trkpt lat="42.6251344" lon="12.3184001"><ele>418.0</ele><time>2026-04-12T10:03:27.857Z</time></trkpt><trkpt lat="42.625172" lon="12.3185463"><ele>418.0</ele><time>2026-04-12T10:03:28.844Z</time></trkpt><trkpt lat="42.6252189" lon="12.3187052"><ele>418.0</ele><time>2026-04-12T10:03:29.845Z</time></trkpt><trkpt lat="42.6252698" lon="12.3188596"><ele>418.0</ele><time>2026-04-12T10:03:30.859Z</time></trkpt><trkpt lat="42.6253154" lon="12.3190055"><ele>418.0</ele><time>2026-04-12T10:03:31.855Z</time></trkpt><trkpt lat="42.6254337" lon="12.3192642"><ele>419.2</ele><time>2026-04-12T10:03:33.852Z</time></trkpt><trkpt lat="42.625492" lon="12.3193837"><ele>420.4</ele><time>2026-04-12T10:03:34.858Z</time></trkpt><trkpt lat="42.6255301" lon="12.3195123"><ele>421.59999999999997</ele><time>2026-04-12T10:03:35.856Z</time></trkpt><trkpt lat="42.6255494" lon="12.3196272"><ele>422.79999999999995</ele><time>2026-04-12T10:03:36.867Z</time></trkpt><trkpt lat="42.6255484" lon="12.3197578"><ele>424.0</ele><time>2026-04-12T10:03:37.846Z</time></trkpt><trkpt lat="42.6255437" lon="12.3198954"><ele>425.5</ele><time>2026-04-12T10:03:38.861Z</time></trkpt><trkpt lat="42.6255358" lon="12.3200398"><ele>427.0</ele><time>2026-04-12T10:03:39.864Z</time></trkpt><trkpt lat="42.6255248" lon="12.3202093"><ele>428.5</ele><time>2026-04-12T10:03:40.855Z</time></trkpt><trkpt lat="42.6254978" lon="12.3203864"><ele>430.0</ele><time>2026-04-12T10:03:41.864Z</time></trkpt><trkpt lat="42.6254613" lon="12.3205518"><ele>430.75</ele><time>2026-04-12T10:03:42.863Z</time></trkpt><trkpt lat="42.6254344" lon="12.320736"><ele>431.5</ele><time>2026-04-12T10:03:43.86Z</time></trkpt><trkpt lat="42.6253966" lon="12.3209177"><ele>432.25</ele><time>2026-04-12T10:03:44.85Z</time></trkpt><trkpt lat="42.6253709" lon="12.3210994"><ele>433.0</ele><time>2026-04-12T10:03:45.859Z</time></trkpt><trkpt lat="42.6253585" lon="12.3212959"><ele>433.5</ele><time>2026-04-12T10:03:46.85Z</time></trkpt><trkpt lat="42.6253431" lon="12.3214947"><ele>434.0</ele><time>2026-04-12T10:03:47.862Z</time></trkpt><trkpt lat="42.6253293" lon="12.3216994"><ele>434.5</ele><time>2026-04-12T10:03:48.873Z</time></trkpt><trkpt lat="42.6252977" lon="12.321885"><ele>435.0</ele><time>2026-04-12T10:03:49.856Z</time></trkpt><trkpt lat="42.6252659" lon="12.3220616"><ele>435.0</ele><time>2026-04-12T10:03:50.873Z</time></trkpt><trkpt lat="42.6252259" lon="12.3222113"><ele>435.0</ele><time>2026-04-12T10:03:51.862Z</time></trkpt><trkpt lat="42.6251875" lon="12.3223352"><ele>435.0</ele><time>2026-04-12T10:03:52.848Z</time></trkpt><trkpt lat="42.6250633" lon="12.3225348"><ele>435.0</ele><time>2026-04-12T10:03:54.865Z</time></trkpt><trkpt lat="42.6250038" lon="12.3226289"><ele>436.6</ele><time>2026-04-12T10:03:55.853Z</time></trkpt><trkpt lat="42.6249535" lon="12.3227275"><ele>438.2</ele><time>2026-04-12T10:03:56.854Z</time></trkpt><trkpt lat="42.6249128" lon="12.3228385"><ele>439.79999999999995</ele><time>2026-04-12T10:03:57.873Z</time></trkpt><trkpt lat="42.6248613" lon="12.3229504"><ele>441.4</ele><time>2026-04-12T10:03:58.855Z</time></trkpt><trkpt lat="42.6247968" lon="12.3230501"><ele>443.0</ele><time>2026-04-12T10:03:59.882Z</time></trkpt><trkpt lat="42.6247184" lon="12.3231403"><ele>444.0</ele><time>2026-04-12T10:04:00.866Z</time></trkpt><trkpt lat="42.6246199" lon="12.3232357"><ele>444.99999999999994</ele><time>2026-04-12T10:04:01.858Z</time></trkpt><trkpt lat="42.6245326" lon="12.3233309"><ele>445.99999999999994</ele><time>2026-04-12T10:04:02.866Z</time></trkpt><trkpt lat="42.6244458" lon="12.3234263"><ele>447.0</ele><time>2026-04-12T10:04:03.867Z</time></trkpt><trkpt lat="42.6243691" lon="12.3235201"><ele>448.0</ele><time>2026-04-12T10:04:04.85Z</time></trkpt><trkpt lat="42.6243056" lon="12.3236184"><ele>448.0</ele><time>2026-04-12T10:04:05.871Z</time></trkpt><trkpt lat="42.6242428" lon="12.3237134"><ele>447.99999999999994</ele><time>2026-04-12T10:04:06.851Z</time></trkpt><trkpt lat="42.6241682" lon="12.3238053"><ele>447.99999999999994</ele><time>2026-04-12T10:04:07.863Z</time></trkpt><trkpt lat="42.6240871" lon="12.3238938"><ele>448.0</ele><time>2026-04-12T10:04:08.845Z</time></trkpt><trkpt lat="42.6240063" lon="12.3239799"><ele>448.0</ele><time>2026-04-12T10:04:09.849Z</time></trkpt><trkpt lat="42.6239234" lon="12.3240603"><ele>449.5</ele><time>2026-04-12T10:04:10.861Z</time></trkpt><trkpt lat="42.6238395" lon="12.3241346"><ele>451.0</ele><time>2026-04-12T10:04:11.852Z</time></trkpt><trkpt lat="42.623759" lon="12.3242267"><ele>452.5</ele><time>2026-04-12T10:04:12.84Z</time></trkpt><trkpt lat="42.6236741" lon="12.3243377"><ele>454.0</ele><time>2026-04-12T10:04:13.85Z</time></trkpt><trkpt lat="42.6235105" lon="12.3245726"><ele>454.0</ele><time>2026-04-12T10:04:15.847Z</time></trkpt><trkpt lat="42.6234329" lon="12.3246814"><ele>454.0</ele><time>2026-04-12T10:04:16.857Z</time></trkpt><trkpt lat="42.6233435" lon="12.3247829"><ele>454.0</ele><time>2026-04-12T10:04:17.858Z</time></trkpt><trkpt lat="42.6232576" lon="12.3248783"><ele>454.0</ele><time>2026-04-12T10:04:18.846Z</time></trkpt><trkpt lat="42.6231721" lon="12.3249907"><ele>457.0</ele><time>2026-04-12T10:04:19.854Z</time></trkpt><trkpt lat="42.6231032" lon="12.3251041"><ele>460.0</ele><time>2026-04-12T10:04:20.847Z</time></trkpt><trkpt lat="42.6230454" lon="12.325211"><ele>463.0</ele><time>2026-04-12T10:04:21.868Z</time></trkpt><trkpt lat="42.6230011" lon="12.3252984"><ele>466.0</ele><time>2026-04-12T10:04:22.844Z</time></trkpt><trkpt lat="42.6229688" lon="12.3253741"><ele>469.0</ele><time>2026-04-12T10:04:23.854Z</time></trkpt><trkpt lat="42.6229114" lon="12.3254916"><ele>470.0</ele><time>2026-04-12T10:04:25.864Z</time></trkpt><trkpt lat="42.6228436" lon="12.3255853"><ele>471.0</ele><time>2026-04-12T10:04:27.853Z</time></trkpt><trkpt lat="42.6227952" lon="12.3256817"><ele>472.0</ele><time>2026-04-12T10:04:29.86Z</time></trkpt><trkpt lat="42.6227416" lon="12.325773"><ele>473.0</ele><time>2026-04-12T10:04:31.857Z</time></trkpt><trkpt lat="42.6226636" lon="12.3258565"><ele>474.0</ele><time>2026-04-12T10:04:33.857Z</time></trkpt><trkpt lat="42.6225912" lon="12.3259712"><ele>474.0</ele><time>2026-04-12T10:04:35.86Z</time></trkpt><trkpt lat="42.6225025" lon="12.3262049"><ele>474.0</ele><time>2026-04-12T10:04:37.854Z</time></trkpt><trkpt lat="42.6224581" lon="12.3263288"><ele>474.0</ele><time>2026-04-12T10:04:38.859Z</time></trkpt><trkpt lat="42.6224094" lon="12.3264527"><ele>474.0</ele><time>2026-04-12T10:04:39.869Z</time></trkpt><trkpt lat="42.6223606" lon="12.3265989"><ele>475.4</ele><time>2026-04-12T10:04:40.847Z</time></trkpt><trkpt lat="42.6223163" lon="12.3267318"><ele>476.79999999999995</ele><time>2026-04-12T10:04:41.857Z</time></trkpt><trkpt lat="42.6222852" lon="12.3268617"><ele>478.20000000000005</ele><time>2026-04-12T10:04:42.854Z</time></trkpt><trkpt lat="42.6222635" lon="12.3270004"><ele>479.6</ele><time>2026-04-12T10:04:43.854Z</time></trkpt><trkpt lat="42.6222489" lon="12.3271337"><ele>481.0</ele><time>2026-04-12T10:04:44.857Z</time></trkpt><trkpt lat="42.6222366" lon="12.3272611"><ele>483.0</ele><time>2026-04-12T10:04:45.85Z</time></trkpt><trkpt lat="42.6222144" lon="12.3274006"><ele>485.0</ele><time>2026-04-12T10:04:46.855Z</time></trkpt><trkpt lat="42.6221879" lon="12.3275313"><ele>487.0</ele><time>2026-04-12T10:04:47.861Z</time></trkpt><trkpt lat="42.6221638" lon="12.327634"><ele>489.0</ele><time>2026-04-12T10:04:48.849Z</time></trkpt><trkpt lat="42.6221588" lon="12.3277422"><ele>491.0</ele><time>2026-04-12T10:04:49.853Z</time></trkpt><trkpt lat="42.6221821" lon="12.3278765"><ele>491.0</ele><time>2026-04-12T10:04:50.845Z</time></trkpt><trkpt lat="42.6222261" lon="12.3280205"><ele>491.0</ele><time>2026-04-12T10:04:51.85Z</time></trkpt><trkpt lat="42.6222707" lon="12.3281648"><ele>491.0</ele><time>2026-04-12T10:04:52.849Z</time></trkpt><trkpt lat="42.6223128" lon="12.3283093"><ele>491.0</ele><time>2026-04-12T10:04:53.853Z</time></trkpt><trkpt lat="42.6223525" lon="12.3284522"><ele>491.5</ele><time>2026-04-12T10:04:54.863Z</time></trkpt><trkpt lat="42.6223979" lon="12.3286027"><ele>492.0</ele><time>2026-04-12T10:04:55.861Z</time></trkpt><trkpt lat="42.6224543" lon="12.328731"><ele>492.5</ele><time>2026-04-12T10:04:56.846Z</time></trkpt><trkpt lat="42.622574" lon="12.3289596"><ele>493.0</ele><time>2026-04-12T10:04:58.852Z</time></trkpt><trkpt lat="42.6226118" lon="12.3290582"><ele>493.2</ele><time>2026-04-12T10:04:59.852Z</time></trkpt><trkpt lat="42.622626" lon="12.3291889"><ele>493.4</ele><time>2026-04-12T10:05:00.849Z</time></trkpt><trkpt lat="42.6226377" lon="12.3293251"><ele>493.59999999999997</ele><time>2026-04-12T10:05:01.848Z</time></trkpt><trkpt lat="42.622652" lon="12.3294578"><ele>493.79999999999995</ele><time>2026-04-12T10:05:02.847Z</time></trkpt><trkpt lat="42.6226716" lon="12.3295939"><ele>494.0</ele><time>2026-04-12T10:05:03.864Z</time></trkpt><trkpt lat="42.6226942" lon="12.3297153"><ele>494.16666666666663</ele><time>2026-04-12T10:05:04.852Z</time></trkpt><trkpt lat="42.6227283" lon="12.3298317"><ele>494.3333333333333</ele><time>2026-04-12T10:05:05.855Z</time></trkpt><trkpt lat="42.6227648" lon="12.3299247"><ele>494.5</ele><time>2026-04-12T10:05:06.84Z</time></trkpt><trkpt lat="42.6228141" lon="12.3300027"><ele>494.66666666666663</ele><time>2026-04-12T10:05:07.863Z</time></trkpt><trkpt lat="42.6228602" lon="12.3300827"><ele>494.8333333333333</ele><time>2026-04-12T10:05:08.841Z</time></trkpt><trkpt lat="42.6229094" lon="12.3301572"><ele>495.0</ele><time>2026-04-12T10:05:09.845Z</time></trkpt><trkpt lat="42.6229621" lon="12.3302299"><ele>497.6666666666667</ele><time>2026-04-12T10:05:10.843Z</time></trkpt><trkpt lat="42.6230057" lon="12.3303128"><ele>500.33333333333337</ele><time>2026-04-12T10:05:11.858Z</time></trkpt><trkpt lat="42.6230304" lon="12.330402"><ele>503.0</ele><time>2026-04-12T10:05:12.85Z</time></trkpt><trkpt lat="42.6230306" lon="12.3305025"><ele>505.6666666666667</ele><time>2026-04-12T10:05:13.854Z</time></trkpt><trkpt lat="42.6230197" lon="12.3306145"><ele>508.33333333333337</ele><time>2026-04-12T10:05:14.851Z</time></trkpt><trkpt lat="42.622996" lon="12.3307325"><ele>511.0</ele><time>2026-04-12T10:05:15.85Z</time></trkpt><trkpt lat="42.6229827" lon="12.3308566"><ele>511.0</ele><time>2026-04-12T10:05:16.844Z</time></trkpt><trkpt lat="42.6229747" lon="12.3309856"><ele>511.0</ele><time>2026-04-12T10:05:17.853Z</time></trkpt><trkpt lat="42.6229445" lon="12.3312283"><ele>511.0</ele><time>2026-04-12T10:05:19.853Z</time></trkpt><trkpt lat="42.6229237" lon="12.3313322"><ele>511.0</ele><time>2026-04-12T10:05:20.858Z</time></trkpt><trkpt lat="42.6228967" lon="12.3314238"><ele>511.0</ele><time>2026-04-12T10:05:21.86Z</time></trkpt><trkpt lat="42.6228653" lon="12.3315079"><ele>511.6</ele><time>2026-04-12T10:05:22.852Z</time></trkpt><trkpt lat="42.6228206" lon="12.3316424"><ele>512.2</ele><time>2026-04-12T10:05:24.853Z</time></trkpt><trkpt lat="42.6227571" lon="12.3317958"><ele>512.8</ele><time>2026-04-12T10:05:26.854Z</time></trkpt><trkpt lat="42.6227069" lon="12.3318782"><ele>513.4</ele><time>2026-04-12T10:05:27.852Z</time></trkpt><trkpt lat="42.62264" lon="12.3319615"><ele>514.0</ele><time>2026-04-12T10:05:28.857Z</time></trkpt><trkpt lat="42.6225717" lon="12.3320515"><ele>512.6</ele><time>2026-04-12T10:05:29.859Z</time></trkpt><trkpt lat="42.6225051" lon="12.3321563"><ele>511.2</ele><time>2026-04-12T10:05:30.841Z</time></trkpt><trkpt lat="42.6224348" lon="12.332262"><ele>509.80000000000007</ele><time>2026-04-12T10:05:31.87Z</time></trkpt><trkpt lat="42.6223654" lon="12.3323746"><ele>508.40000000000003</ele><time>2026-04-12T10:05:32.846Z</time></trkpt><trkpt lat="42.6223112" lon="12.3324758"><ele>507.0</ele><time>2026-04-12T10:05:33.86Z</time></trkpt><trkpt lat="42.622253" lon="12.3325748"><ele>507.0</ele><time>2026-04-12T10:05:34.84Z</time></trkpt><trkpt lat="42.6221975" lon="12.3326624"><ele>507.00000000000006</ele><time>2026-04-12T10:05:35.857Z</time></trkpt><trkpt lat="42.6221392" lon="12.3327307"><ele>507.00000000000006</ele><time>2026-04-12T10:05:36.846Z</time></trkpt><trkpt lat="42.6220953" lon="12.33281"><ele>507.0</ele><time>2026-04-12T10:05:37.878Z</time></trkpt><trkpt lat="42.6220042" lon="12.3330224"><ele>507.0</ele><time>2026-04-12T10:05:39.845Z</time></trkpt><trkpt lat="42.621951" lon="12.3331301"><ele>507.8333333333333</ele><time>2026-04-12T10:05:40.849Z</time></trkpt><trkpt lat="42.6218832" lon="12.3332254"><ele>508.66666666666663</ele><time>2026-04-12T10:05:41.843Z</time></trkpt><trkpt lat="42.6218273" lon="12.333314"><ele>509.5</ele><time>2026-04-12T10:05:42.853Z</time></trkpt><trkpt lat="42.6217651" lon="12.3333947"><ele>510.3333333333333</ele><time>2026-04-12T10:05:43.852Z</time></trkpt><trkpt lat="42.6216998" lon="12.3334576"><ele>511.16666666666663</ele><time>2026-04-12T10:05:44.865Z</time></trkpt><trkpt lat="42.6216432" lon="12.3335145"><ele>512.0</ele><time>2026-04-12T10:05:45.869Z</time></trkpt><trkpt lat="42.6215844" lon="12.333547"><ele>511.99999999999994</ele><time>2026-04-12T10:05:46.855Z</time></trkpt><trkpt lat="42.621471" lon="12.3335902"><ele>512.0</ele><time>2026-04-12T10:05:48.853Z</time></trkpt><trkpt lat="42.6214048" lon="12.3336031"><ele>512.0</ele><time>2026-04-12T10:05:49.866Z</time></trkpt><trkpt lat="42.6213263" lon="12.3335996"><ele>512.0</ele><time>2026-04-12T10:05:50.839Z</time></trkpt><trkpt lat="42.6212462" lon="12.3336019"><ele>511.99999999999994</ele><time>2026-04-12T10:05:51.85Z</time></trkpt><trkpt lat="42.6211662" lon="12.3336168"><ele>512.0</ele><time>2026-04-12T10:05:52.846Z</time></trkpt><trkpt lat="42.6211003" lon="12.333655"><ele>515.6</ele><time>2026-04-12T10:05:53.856Z</time></trkpt><trkpt lat="42.6210482" lon="12.3337074"><ele>519.2</ele><time>2026-04-12T10:05:54.842Z</time></trkpt><trkpt lat="42.6209972" lon="12.3337626"><ele>522.8</ele><time>2026-04-12T10:05:55.866Z</time></trkpt><trkpt lat="42.6208936" lon="12.3338535"><ele>526.4</ele><time>2026-04-12T10:05:57.853Z</time></trkpt><trkpt lat="42.6207813" lon="12.3339245"><ele>530.0</ele><time>2026-04-12T10:05:59.872Z</time></trkpt><trkpt lat="42.6206167" lon="12.3341175"><ele>530.0</ele><time>2026-04-12T10:06:03.851Z</time></trkpt><trkpt lat="42.6205174" lon="12.3342218"><ele>530.0</ele><time>2026-04-12T10:06:05.864Z</time></trkpt><trkpt lat="42.6204575" lon="12.3342841"><ele>530.0</ele><time>2026-04-12T10:06:06.859Z</time></trkpt><trkpt lat="42.6204062" lon="12.3343452"><ele>530.0</ele><time>2026-04-12T10:06:07.857Z</time></trkpt><trkpt lat="42.6203457" lon="12.3344039"><ele>530.0</ele><time>2026-04-12T10:06:08.842Z</time></trkpt><trkpt lat="42.6202385" lon="12.3345092"><ele>532.2857142857142</ele><time>2026-04-12T10:06:10.852Z</time></trkpt><trkpt lat="42.6201843" lon="12.3345712"><ele>534.5714285714286</ele><time>2026-04-12T10:06:11.854Z</time></trkpt><trkpt lat="42.6201264" lon="12.3346355"><ele>536.8571428571429</ele><time>2026-04-12T10:06:12.844Z</time></trkpt><trkpt lat="42.6200756" lon="12.334702"><ele>539.1428571428571</ele><time>2026-04-12T10:06:13.847Z</time></trkpt><trkpt lat="42.6200263" lon="12.3347736"><ele>541.4285714285714</ele><time>2026-04-12T10:06:14.855Z</time></trkpt><trkpt lat="42.6199769" lon="12.334844"><ele>543.7142857142857</ele><time>2026-04-12T10:06:15.843Z</time></trkpt><trkpt lat="42.6199191" lon="12.3349105"><ele>546.0</ele><time>2026-04-12T10:06:16.836Z</time></trkpt><trkpt lat="42.619864" lon="12.3349757"><ele>546.0</ele><time>2026-04-12T10:06:17.84Z</time></trkpt><trkpt lat="42.6197936" lon="12.3350245"><ele>546.0</ele><time>2026-04-12T10:06:18.831Z</time></trkpt><trkpt lat="42.619716" lon="12.3350641"><ele>546.0</ele><time>2026-04-12T10:06:19.84Z</time></trkpt><trkpt lat="42.6195788" lon="12.3351463"><ele>546.0</ele><time>2026-04-12T10:06:21.861Z</time></trkpt><trkpt lat="42.6195272" lon="12.3351989"><ele>546.0</ele><time>2026-04-12T10:06:22.849Z</time></trkpt><trkpt lat="42.619474" lon="12.3352598"><ele>546.0</ele><time>2026-04-12T10:06:23.846Z</time></trkpt><trkpt lat="42.619417" lon="12.3353296"><ele>548.0</ele><time>2026-04-12T10:06:24.836Z</time></trkpt><trkpt lat="42.6193533" lon="12.3353959"><ele>550.0</ele><time>2026-04-12T10:06:25.842Z</time></trkpt><trkpt lat="42.6192744" lon="12.3354596"><ele>552.0</ele><time>2026-04-12T10:06:26.84Z</time></trkpt><trkpt lat="42.6192128" lon="12.3355002"><ele>554.0</ele><time>2026-04-12T10:06:27.863Z</time></trkpt><trkpt lat="42.6191625" lon="12.3355533"><ele>556.0</ele><time>2026-04-12T10:06:28.847Z</time></trkpt><trkpt lat="42.6191231" lon="12.3356233"><ele>558.0</ele><time>2026-04-12T10:06:29.844Z</time></trkpt><trkpt lat="42.6190756" lon="12.3356989"><ele>560.0</ele><time>2026-04-12T10:06:30.846Z</time></trkpt><trkpt lat="42.6190227" lon="12.3357759"><ele>560.0</ele><time>2026-04-12T10:06:31.846Z</time></trkpt><trkpt lat="42.6189756" lon="12.335858"><ele>560.0</ele><time>2026-04-12T10:06:32.86Z</time></trkpt><trkpt lat="42.6189188" lon="12.3359355"><ele>560.0</ele><time>2026-04-12T10:06:33.851Z</time></trkpt><trkpt lat="42.6188645" lon="12.3360164"><ele>560.0</ele><time>2026-04-12T10:06:34.858Z</time></trkpt><trkpt lat="42.6188183" lon="12.3361033"><ele>560.0</ele><time>2026-04-12T10:06:35.842Z</time></trkpt><trkpt lat="42.618768" lon="12.3361817"><ele>560.0</ele><time>2026-04-12T10:06:36.838Z</time></trkpt><trkpt lat="42.6187195" lon="12.3362639"><ele>563.25</ele><time>2026-04-12T10:06:37.847Z</time></trkpt><trkpt lat="42.6186256" lon="12.3364386"><ele>566.5</ele><time>2026-04-12T10:06:39.852Z</time></trkpt><trkpt lat="42.6185674" lon="12.336518"><ele>569.75</ele><time>2026-04-12T10:06:40.835Z</time></trkpt><trkpt lat="42.6184517" lon="12.3366565"><ele>573.0</ele><time>2026-04-12T10:06:42.837Z</time></trkpt><trkpt lat="42.6183816" lon="12.3367196"><ele>573.0</ele><time>2026-04-12T10:06:43.841Z</time></trkpt><trkpt lat="42.6183191" lon="12.336778"><ele>573.0</ele><time>2026-04-12T10:06:44.834Z</time></trkpt><trkpt lat="42.618256" lon="12.3368287"><ele>573.0</ele><time>2026-04-12T10:06:45.842Z</time></trkpt><trkpt lat="42.6181985" lon="12.3368936"><ele>573.0</ele><time>2026-04-12T10:06:46.852Z</time></trkpt><trkpt lat="42.6181532" lon="12.3369738"><ele>573.0</ele><time>2026-04-12T10:06:47.846Z</time></trkpt><trkpt lat="42.6181247" lon="12.3370516"><ele>573.0</ele><time>2026-04-12T10:06:48.862Z</time></trkpt><trkpt lat="42.6180771" lon="12.3372792"><ele>573.4</ele><time>2026-04-12T10:06:50.86Z</time></trkpt><trkpt lat="42.6181585" lon="12.3374136"><ele>573.8</ele><time>2026-04-12T10:06:52.861Z</time></trkpt><trkpt lat="42.6182181" lon="12.3374579"><ele>574.2</ele><time>2026-04-12T10:06:53.849Z</time></trkpt><trkpt lat="42.6182841" lon="12.3375157"><ele>574.6</ele><time>2026-04-12T10:06:54.849Z</time></trkpt><trkpt lat="42.6183608" lon="12.3375775"><ele>575.0</ele><time>2026-04-12T10:06:55.84Z</time></trkpt><trkpt lat="42.6184416" lon="12.3376462"><ele>575.0</ele><time>2026-04-12T10:06:56.855Z</time></trkpt><trkpt lat="42.6185371" lon="12.3377221"><ele>575.0</ele><time>2026-04-12T10:06:57.841Z</time></trkpt><trkpt lat="42.6186035" lon="12.3377843"><ele>575.0</ele><time>2026-04-12T10:06:58.845Z</time></trkpt><trkpt lat="42.6186941" lon="12.3378867"><ele>575.0</ele><time>2026-04-12T10:07:00.857Z</time></trkpt><trkpt lat="42.6188062" lon="12.3379416"><ele>575.0</ele><time>2026-04-12T10:07:02.852Z</time></trkpt><trkpt lat="42.6189848" lon="12.3379728"><ele>579.25</ele><time>2026-04-12T10:07:05.842Z</time></trkpt><trkpt lat="42.6190904" lon="12.3380562"><ele>583.5</ele><time>2026-04-12T10:07:07.844Z</time></trkpt><trkpt lat="42.6191221" lon="12.3382041"><ele>587.75</ele><time>2026-04-12T10:07:09.852Z</time></trkpt><trkpt lat="42.6190523" lon="12.3383358"><ele>592.0</ele><time>2026-04-12T10:07:11.841Z</time></trkpt><trkpt lat="42.6189402" lon="12.3383738"><ele>592.0</ele><time>2026-04-12T10:07:13.844Z</time></trkpt><trkpt lat="42.6188733" lon="12.3383891"><ele>592.0</ele><time>2026-04-12T10:07:14.849Z</time></trkpt><trkpt lat="42.6187439" lon="12.3384157"><ele>592.0</ele><time>2026-04-12T10:07:16.876Z</time></trkpt><trkpt lat="42.6186642" lon="12.3384314"><ele>592.0</ele><time>2026-04-12T10:07:17.871Z</time></trkpt><trkpt lat="42.6185781" lon="12.3384448"><ele>592.0</ele><time>2026-04-12T10:07:18.836Z</time></trkpt><trkpt lat="42.6184874" lon="12.3384754"><ele>590.0</ele><time>2026-04-12T10:07:19.886Z</time></trkpt><trkpt lat="42.6183881" lon="12.3385079"><ele>590.0</ele><time>2026-04-12T10:07:20.842Z</time></trkpt><trkpt lat="42.6182835" lon="12.3385405"><ele>590.0</ele><time>2026-04-12T10:07:21.844Z</time></trkpt><trkpt lat="42.618183" lon="12.3385663"><ele>590.0</ele><time>2026-04-12T10:07:22.842Z</time></trkpt><trkpt lat="42.6180815" lon="12.3385936"><ele>590.0</ele><time>2026-04-12T10:07:23.841Z</time></trkpt></trkseg><trkseg><trkpt lat="42.6327638" lon="12.3905743"><ele>340.33333333333337</ele><time>2026-04-12T10:28:24.87Z</time></trkpt><trkpt lat="42.6328378" lon="12.3905651"><ele>339.6666666666667</ele><time>2026-04-12T10:28:26.883Z</time></trkpt><trkpt lat="42.6329225" lon="12.3905463"><ele>339.0</ele><time>2026-04-12T10:28:29.858Z</time></trkpt><trkpt lat="42.6330017" lon="12.3906003"><ele>338.3333333333333</ele><time>2026-04-12T10:28:32.899Z</time></trkpt><trkpt lat="42.6330443" lon="12.3906781"><ele>337.66666666666663</ele><time>2026-04-12T10:28:34.865Z</time></trkpt><trkpt lat="42.633096" lon="12.3907712"><ele>337.0</ele><time>2026-04-12T10:28:36.907Z</time></trkpt><trkpt lat="42.6331264" lon="12.390857"><ele>337.00000000000006</ele><time>2026-04-12T10:28:39.867Z</time></trkpt><trkpt lat="42.6331655" lon="12.3909504"><ele>337.0</ele><time>2026-04-12T10:28:43.88Z</time></trkpt><trkpt lat="42.6332048" lon="12.3910539"><ele>337.0</ele><time>2026-04-12T10:28:45.86Z</time></trkpt><trkpt lat="42.6332377" lon="12.3911309"><ele>337.0</ele><time>2026-04-12T10:28:46.86Z</time></trkpt><trkpt lat="42.6332711" lon="12.3912037"><ele>337.0</ele><time>2026-04-12T10:28:47.873Z</time></trkpt><trkpt lat="42.6333182" lon="12.3912801"><ele>337.00000000000006</ele><time>2026-04-12T10:28:48.864Z</time></trkpt><trkpt lat="42.6333717" lon="12.3913587"><ele>337.0</ele><time>2026-04-12T10:28:49.893Z</time></trkpt><trkpt lat="42.6334238" lon="12.3914425"><ele>337.20000000000005</ele><time>2026-04-12T10:28:50.878Z</time></trkpt><trkpt lat="42.6334709" lon="12.3915333"><ele>337.4</ele><time>2026-04-12T10:28:51.872Z</time></trkpt><trkpt lat="42.6335159" lon="12.3916393"><ele>337.6</ele><time>2026-04-12T10:28:52.878Z</time></trkpt><trkpt lat="42.6335529" lon="12.3917547"><ele>337.79999999999995</ele><time>2026-04-12T10:28:53.877Z</time></trkpt><trkpt lat="42.6335755" lon="12.3918751"><ele>338.0</ele><time>2026-04-12T10:28:54.938Z</time></trkpt><trkpt lat="42.6335958" lon="12.3920042"><ele>338.0</ele><time>2026-04-12T10:28:55.895Z</time></trkpt><trkpt lat="42.6336168" lon="12.3921248"><ele>338.0</ele><time>2026-04-12T10:28:56.893Z</time></trkpt><trkpt lat="42.6336407" lon="12.3922396"><ele>338.0</ele><time>2026-04-12T10:28:57.864Z</time></trkpt><trkpt lat="42.633673" lon="12.3923593"><ele>338.0</ele><time>2026-04-12T10:28:58.867Z</time></trkpt><trkpt lat="42.6337094" lon="12.3924832"><ele>338.0</ele><time>2026-04-12T10:28:59.868Z</time></trkpt><trkpt lat="42.6337483" lon="12.3925985"><ele>340.0</ele><time>2026-04-12T10:29:00.866Z</time></trkpt><trkpt lat="42.633782" lon="12.3927089"><ele>342.0</ele><time>2026-04-12T10:29:01.89Z</time></trkpt><trkpt lat="42.6338097" lon="12.3928268"><ele>344.0</ele><time>2026-04-12T10:29:02.872Z</time></trkpt><trkpt lat="42.6338369" lon="12.3929374"><ele>346.0</ele><time>2026-04-12T10:29:03.888Z</time></trkpt><trkpt lat="42.6338651" lon="12.3930369"><ele>348.0</ele><time>2026-04-12T10:29:04.862Z</time></trkpt><trkpt lat="42.6338868" lon="12.3931262"><ele>350.0</ele><time>2026-04-12T10:29:05.867Z</time></trkpt><trkpt lat="42.6339168" lon="12.3932268"><ele>350.0</ele><time>2026-04-12T10:29:07.865Z</time></trkpt><trkpt lat="42.6339348" lon="12.393313"><ele>350.0</ele><time>2026-04-12T10:29:10.865Z</time></trkpt><trkpt lat="42.6340052" lon="12.3932786"><ele>350.0</ele><time>2026-04-12T10:29:14.872Z</time></trkpt><trkpt lat="42.6340627" lon="12.3931833"><ele>350.0</ele><time>2026-04-12T10:29:16.881Z</time></trkpt><trkpt lat="42.6341374" lon="12.3931173"><ele>350.0</ele><time>2026-04-12T10:29:18.88Z</time></trkpt><trkpt lat="42.6342324" lon="12.3931338"><ele>350.0</ele><time>2026-04-12T10:29:20.875Z</time></trkpt><trkpt lat="42.6343196" lon="12.3932323"><ele>350.0</ele><time>2026-04-12T10:29:22.87Z</time></trkpt><trkpt lat="42.6343745" lon="12.3933682"><ele>350.0</ele><time>2026-04-12T10:29:24.94Z</time></trkpt><trkpt lat="42.6344072" lon="12.3934508"><ele>350.0</ele><time>2026-04-12T10:29:25.858Z</time></trkpt><trkpt lat="42.6344452" lon="12.3935451"><ele>350.0</ele><time>2026-04-12T10:29:26.88Z</time></trkpt><trkpt lat="42.6344803" lon="12.3936363"><ele>350.0</ele><time>2026-04-12T10:29:27.862Z</time></trkpt><trkpt lat="42.6345125" lon="12.393733"><ele>350.0</ele><time>2026-04-12T10:29:28.88Z</time></trkpt><trkpt lat="42.6345361" lon="12.3938309"><ele>351.33333333333337</ele><time>2026-04-12T10:29:29.887Z</time></trkpt><trkpt lat="42.634588" lon="12.3939414"><ele>352.6666666666667</ele><time>2026-04-12T10:29:31.898Z</time></trkpt><trkpt lat="42.6346625" lon="12.3939199"><ele>354.0</ele><time>2026-04-12T10:29:34.866Z</time></trkpt><trkpt lat="42.6347249" lon="12.3937926"><ele>355.3333333333333</ele><time>2026-04-12T10:29:36.871Z</time></trkpt><trkpt lat="42.6347705" lon="12.393712"><ele>356.66666666666663</ele><time>2026-04-12T10:29:37.873Z</time></trkpt><trkpt lat="42.6348264" lon="12.3936425"><ele>358.0</ele><time>2026-04-12T10:29:38.866Z</time></trkpt><trkpt lat="42.6348937" lon="12.3935967"><ele>359.3333333333333</ele><time>2026-04-12T10:29:39.867Z</time></trkpt><trkpt lat="42.6349623" lon="12.3935511"><ele>360.66666666666663</ele><time>2026-04-12T10:29:40.888Z</time></trkpt><trkpt lat="42.6350176" lon="12.3934982"><ele>362.0</ele><time>2026-04-12T10:29:41.884Z</time></trkpt><trkpt lat="42.6350736" lon="12.3934146"><ele>363.3333333333333</ele><time>2026-04-12T10:29:43.869Z</time></trkpt><trkpt lat="42.6351205" lon="12.3932967"><ele>364.6666666666667</ele><time>2026-04-12T10:29:46.879Z</time></trkpt><trkpt lat="42.6351593" lon="12.3931656"><ele>366.0</ele><time>2026-04-12T10:29:48.87Z</time></trkpt><trkpt lat="42.6352004" lon="12.3930218"><ele>366.8333333333333</ele><time>2026-04-12T10:29:50.879Z</time></trkpt><trkpt lat="42.6352495" lon="12.3928861"><ele>367.6666666666667</ele><time>2026-04-12T10:29:52.89Z</time></trkpt><trkpt lat="42.6352851" lon="12.3928139"><ele>368.5</ele><time>2026-04-12T10:29:53.874Z</time></trkpt><trkpt lat="42.6353282" lon="12.3927373"><ele>369.33333333333337</ele><time>2026-04-12T10:29:54.865Z</time></trkpt><trkpt lat="42.6353779" lon="12.3926698"><ele>370.1666666666667</ele><time>2026-04-12T10:29:55.866Z</time></trkpt><trkpt lat="42.6354917" lon="12.3926086"><ele>371.0</ele><time>2026-04-12T10:29:57.867Z</time></trkpt><trkpt lat="42.6356068" lon="12.3925434"><ele>372.7142857142857</ele><time>2026-04-12T10:29:59.882Z</time></trkpt><trkpt lat="42.6356742" lon="12.3925197"><ele>374.42857142857144</ele><time>2026-04-12T10:30:00.87Z</time></trkpt><trkpt lat="42.6357449" lon="12.3925063"><ele>376.1428571428571</ele><time>2026-04-12T10:30:01.902Z</time></trkpt><trkpt lat="42.6358162" lon="12.3924918"><ele>377.8571428571429</ele><time>2026-04-12T10:30:02.88Z</time></trkpt><trkpt lat="42.6358857" lon="12.3924625"><ele>379.57142857142856</ele><time>2026-04-12T10:30:03.876Z</time></trkpt><trkpt lat="42.6359492" lon="12.3924307"><ele>381.2857142857143</ele><time>2026-04-12T10:30:04.916Z</time></trkpt><trkpt lat="42.6360122" lon="12.3923875"><ele>383.0</ele><time>2026-04-12T10:30:05.894Z</time></trkpt><trkpt lat="42.636127" lon="12.3923053"><ele>383.6666666666667</ele><time>2026-04-12T10:30:07.89Z</time></trkpt><trkpt lat="42.6361852" lon="12.3922618"><ele>384.33333333333337</ele><time>2026-04-12T10:30:08.881Z</time></trkpt><trkpt lat="42.6362448" lon="12.3922103"><ele>385.0</ele><time>2026-04-12T10:30:09.869Z</time></trkpt><trkpt lat="42.6363093" lon="12.3921563"><ele>385.6666666666667</ele><time>2026-04-12T10:30:10.876Z</time></trkpt><trkpt lat="42.6363772" lon="12.3920992"><ele>386.3333333333333</ele><time>2026-04-12T10:30:11.881Z</time></trkpt><trkpt lat="42.6364575" lon="12.3920195"><ele>387.0</ele><time>2026-04-12T10:30:12.88Z</time></trkpt><trkpt lat="42.6365603" lon="12.3919181"><ele>388.40000000000003</ele><time>2026-04-12T10:30:13.879Z</time></trkpt><trkpt lat="42.6366627" lon="12.3918225"><ele>389.8</ele><time>2026-04-12T10:30:14.867Z</time></trkpt><trkpt lat="42.636762" lon="12.3917391"><ele>391.2</ele><time>2026-04-12T10:30:15.89Z</time></trkpt><trkpt lat="42.6368561" lon="12.3916829"><ele>392.6</ele><time>2026-04-12T10:30:16.875Z</time></trkpt><trkpt lat="42.636946" lon="12.391651"><ele>394.0</ele><time>2026-04-12T10:30:17.88Z</time></trkpt><trkpt lat="42.6370372" lon="12.3916389"><ele>394.00000000000006</ele><time>2026-04-12T10:30:18.864Z</time></trkpt><trkpt lat="42.6371324" lon="12.3916386"><ele>394.0</ele><time>2026-04-12T10:30:19.878Z</time></trkpt><trkpt lat="42.6372096" lon="12.3916569"><ele>394.0</ele><time>2026-04-12T10:30:20.867Z</time></trkpt><trkpt lat="42.637284" lon="12.3916808"><ele>394.0</ele><time>2026-04-12T10:30:21.881Z</time></trkpt><trkpt lat="42.6373653" lon="12.3916999"><ele>394.00000000000006</ele><time>2026-04-12T10:30:22.871Z</time></trkpt><trkpt lat="42.6374448" lon="12.3917118"><ele>394.0</ele><time>2026-04-12T10:30:23.876Z</time></trkpt><trkpt lat="42.6375226" lon="12.3917265"><ele>394.00000000000006</ele><time>2026-04-12T10:30:24.868Z</time></trkpt><trkpt lat="42.6376006" lon="12.3917248"><ele>394.0</ele><time>2026-04-12T10:30:25.867Z</time></trkpt><trkpt lat="42.637677" lon="12.3917233"><ele>394.0</ele><time>2026-04-12T10:30:26.91Z</time></trkpt><trkpt lat="42.6377657" lon="12.391719"><ele>394.0</ele><time>2026-04-12T10:30:27.87Z</time></trkpt><trkpt lat="42.63785" lon="12.3917255"><ele>394.00000000000006</ele><time>2026-04-12T10:30:28.885Z</time></trkpt><trkpt lat="42.6379385" lon="12.3917264"><ele>394.0</ele><time>2026-04-12T10:30:29.867Z</time></trkpt><trkpt lat="42.6380185" lon="12.3917197"><ele>394.00000000000006</ele><time>2026-04-12T10:30:30.873Z</time></trkpt><trkpt lat="42.6381023" lon="12.3916905"><ele>394.0</ele><time>2026-04-12T10:30:31.869Z</time></trkpt><trkpt lat="42.6381832" lon="12.3916609"><ele>394.0</ele><time>2026-04-12T10:30:32.866Z</time></trkpt><trkpt lat="42.6382567" lon="12.391629"><ele>394.0</ele><time>2026-04-12T10:30:33.866Z</time></trkpt><trkpt lat="42.6383311" lon="12.3916176"><ele>394.00000000000006</ele><time>2026-04-12T10:30:34.87Z</time></trkpt><trkpt lat="42.6384057" lon="12.3916174"><ele>394.0</ele><time>2026-04-12T10:30:35.865Z</time></trkpt><trkpt lat="42.6384725" lon="12.3916234"><ele>394.0</ele><time>2026-04-12T10:30:36.864Z</time></trkpt><trkpt lat="42.638539" lon="12.3916294"><ele>394.0</ele><time>2026-04-12T10:30:37.877Z</time></trkpt><trkpt lat="42.6386077" lon="12.3916243"><ele>394.0</ele><time>2026-04-12T10:30:38.86Z</time></trkpt><trkpt lat="42.6386779" lon="12.3916205"><ele>394.0</ele><time>2026-04-12T10:30:39.865Z</time></trkpt><trkpt lat="42.6387517" lon="12.3916179"><ele>394.0</ele><time>2026-04-12T10:30:40.861Z</time></trkpt><trkpt lat="42.6388256" lon="12.3916196"><ele>394.0</ele><time>2026-04-12T10:30:41.862Z</time></trkpt><trkpt lat="42.6388893" lon="12.3916243"><ele>394.0</ele><time>2026-04-12T10:30:42.864Z</time></trkpt><trkpt lat="42.6389561" lon="12.3916346"><ele>393.6666666666667</ele><time>2026-04-12T10:30:43.862Z</time></trkpt><trkpt lat="42.639031" lon="12.3916533"><ele>393.33333333333337</ele><time>2026-04-12T10:30:44.865Z</time></trkpt><trkpt lat="42.6391169" lon="12.3916702"><ele>393.0</ele><time>2026-04-12T10:30:45.873Z</time></trkpt><trkpt lat="42.6392043" lon="12.3916778"><ele>392.66666666666663</ele><time>2026-04-12T10:30:46.875Z</time></trkpt><trkpt lat="42.6392902" lon="12.3916839"><ele>392.3333333333333</ele><time>2026-04-12T10:30:47.867Z</time></trkpt><trkpt lat="42.6393761" lon="12.3916912"><ele>392.0</ele><time>2026-04-12T10:30:48.865Z</time></trkpt><trkpt lat="42.6394559" lon="12.3917001"><ele>391.66666666666663</ele><time>2026-04-12T10:30:49.861Z</time></trkpt><trkpt lat="42.6395368" lon="12.391714"><ele>391.3333333333333</ele><time>2026-04-12T10:30:50.868Z</time></trkpt><trkpt lat="42.6396175" lon="12.39173"><ele>391.0</ele><time>2026-04-12T10:30:51.884Z</time></trkpt><trkpt lat="42.6396963" lon="12.3917536"><ele>390.66666666666663</ele><time>2026-04-12T10:30:52.911Z</time></trkpt><trkpt lat="42.6397711" lon="12.39179"><ele>390.3333333333333</ele><time>2026-04-12T10:30:53.915Z</time></trkpt><trkpt lat="42.6398421" lon="12.391835"><ele>390.0</ele><time>2026-04-12T10:30:54.87Z</time></trkpt><trkpt lat="42.6399091" lon="12.3918802"><ele>390.0</ele><time>2026-04-12T10:30:55.874Z</time></trkpt><trkpt lat="42.639974" lon="12.3919045"><ele>390.0</ele><time>2026-04-12T10:30:56.87Z</time></trkpt><trkpt lat="42.6400399" lon="12.3919061"><ele>390.0</ele><time>2026-04-12T10:30:57.874Z</time></trkpt><trkpt lat="42.6401125" lon="12.3918831"><ele>390.0</ele><time>2026-04-12T10:30:58.875Z</time></trkpt><trkpt lat="42.6401926" lon="12.3918735"><ele>390.0</ele><time>2026-04-12T10:30:59.882Z</time></trkpt><trkpt lat="42.6402764" lon="12.3918962"><ele>390.0</ele><time>2026-04-12T10:31:00.869Z</time></trkpt><trkpt lat="42.6403671" lon="12.3919145"><ele>389.6666666666667</ele><time>2026-04-12T10:31:01.866Z</time></trkpt><trkpt lat="42.6404609" lon="12.3919397"><ele>389.33333333333337</ele><time>2026-04-12T10:31:02.861Z</time></trkpt><trkpt lat="42.640544" lon="12.3919455"><ele>389.0</ele><time>2026-04-12T10:31:03.866Z</time></trkpt><trkpt lat="42.6406177" lon="12.3919434"><ele>388.6666666666667</ele><time>2026-04-12T10:31:04.877Z</time></trkpt><trkpt lat="42.6407173" lon="12.391944"><ele>388.33333333333337</ele><time>2026-04-12T10:31:06.866Z</time></trkpt><trkpt lat="42.640794" lon="12.3919704"><ele>388.0</ele><time>2026-04-12T10:31:08.881Z</time></trkpt><trkpt lat="42.6408782" lon="12.3920089"><ele>388.00000000000006</ele><time>2026-04-12T10:31:10.896Z</time></trkpt><trkpt lat="42.6409701" lon="12.3920493"><ele>388.0</ele><time>2026-04-12T10:31:12.894Z</time></trkpt><trkpt lat="42.6409643" lon="12.3921517"><ele>388.0</ele><time>2026-04-12T10:31:38.886Z</time></trkpt><trkpt lat="42.6408827" lon="12.3922445"><ele>388.0</ele><time>2026-04-12T10:31:40.89Z</time></trkpt><trkpt lat="42.640832" lon="12.3923105"><ele>388.00000000000006</ele><time>2026-04-12T10:31:41.886Z</time></trkpt><trkpt lat="42.6407884" lon="12.3923864"><ele>388.0</ele><time>2026-04-12T10:31:42.875Z</time></trkpt><trkpt lat="42.640733" lon="12.392469"><ele>389.2</ele><time>2026-04-12T10:31:43.886Z</time></trkpt><trkpt lat="42.640651" lon="12.3925862"><ele>390.4</ele><time>2026-04-12T10:31:45.878Z</time></trkpt><trkpt lat="42.640572" lon="12.3927032"><ele>391.59999999999997</ele><time>2026-04-12T10:31:47.877Z</time></trkpt><trkpt lat="42.6405083" lon="12.3928179"><ele>392.79999999999995</ele><time>2026-04-12T10:31:49.875Z</time></trkpt><trkpt lat="42.6404515" lon="12.3929236"><ele>394.0</ele><time>2026-04-12T10:31:51.885Z</time></trkpt><trkpt lat="42.6404044" lon="12.3930133"><ele>392.4</ele><time>2026-04-12T10:31:53.879Z</time></trkpt><trkpt lat="42.6403323" lon="12.3931403"><ele>390.79999999999995</ele><time>2026-04-12T10:31:55.884Z</time></trkpt><trkpt lat="42.6402816" lon="12.3932283"><ele>389.20000000000005</ele><time>2026-04-12T10:31:56.9Z</time></trkpt><trkpt lat="42.640218" lon="12.3933329"><ele>387.6</ele><time>2026-04-12T10:31:57.892Z</time></trkpt><trkpt lat="42.6401425" lon="12.3934461"><ele>386.0</ele><time>2026-04-12T10:31:58.888Z</time></trkpt><trkpt lat="42.640058" lon="12.3935801"><ele>386.0</ele><time>2026-04-12T10:31:59.88Z</time></trkpt><trkpt lat="42.6399693" lon="12.3937365"><ele>386.0</ele><time>2026-04-12T10:32:00.889Z</time></trkpt><trkpt lat="42.639874" lon="12.3939003"><ele>386.0</ele><time>2026-04-12T10:32:01.884Z</time></trkpt><trkpt lat="42.639767" lon="12.394075"><ele>388.3333333333333</ele><time>2026-04-12T10:32:02.887Z</time></trkpt><trkpt lat="42.6396523" lon="12.3942512"><ele>390.66666666666663</ele><time>2026-04-12T10:32:03.878Z</time></trkpt><trkpt lat="42.6395385" lon="12.3944336"><ele>393.0</ele><time>2026-04-12T10:32:04.871Z</time></trkpt><trkpt lat="42.6394285" lon="12.3946048"><ele>389.75</ele><time>2026-04-12T10:32:05.883Z</time></trkpt><trkpt lat="42.6393355" lon="12.3947622"><ele>386.5</ele><time>2026-04-12T10:32:06.876Z</time></trkpt><trkpt lat="42.6392733" lon="12.3949243"><ele>383.25</ele><time>2026-04-12T10:32:07.869Z</time></trkpt><trkpt lat="42.6392429" lon="12.3951026"><ele>380.0</ele><time>2026-04-12T10:32:08.885Z</time></trkpt><trkpt lat="42.6392588" lon="12.3952799"><ele>380.0</ele><time>2026-04-12T10:32:09.888Z</time></trkpt><trkpt lat="42.6393162" lon="12.3954633"><ele>380.0</ele><time>2026-04-12T10:32:10.879Z</time></trkpt><trkpt lat="42.6394015" lon="12.3956235"><ele>380.0</ele><time>2026-04-12T10:32:11.876Z</time></trkpt><trkpt lat="42.6394913" lon="12.3957632"><ele>380.0</ele><time>2026-04-12T10:32:12.888Z</time></trkpt><trkpt lat="42.6395929" lon="12.3959138"><ele>380.25</ele><time>2026-04-12T10:32:13.875Z</time></trkpt><trkpt lat="42.6396607" lon="12.3960771"><ele>380.5</ele><time>2026-04-12T10:32:14.874Z</time></trkpt><trkpt lat="42.6397089" lon="12.3962559"><ele>380.75</ele><time>2026-04-12T10:32:15.864Z</time></trkpt><trkpt lat="42.6397154" lon="12.3964489"><ele>381.0</ele><time>2026-04-12T10:32:16.857Z</time></trkpt><trkpt lat="42.6397017" lon="12.3966548"><ele>381.0</ele><time>2026-04-12T10:32:17.887Z</time></trkpt><trkpt lat="42.6396407" lon="12.3968778"><ele>381.0</ele><time>2026-04-12T10:32:18.875Z</time></trkpt><trkpt lat="42.6395942" lon="12.3970934"><ele>381.0</ele><time>2026-04-12T10:32:19.865Z</time></trkpt><trkpt lat="42.6395549" lon="12.3972906"><ele>380.25</ele><time>2026-04-12T10:32:20.884Z</time></trkpt><trkpt lat="42.6395226" lon="12.397482"><ele>379.5</ele><time>2026-04-12T10:32:21.886Z</time></trkpt><trkpt lat="42.6395077" lon="12.3976821"><ele>378.75</ele><time>2026-04-12T10:32:22.892Z</time></trkpt><trkpt lat="42.6395127" lon="12.3978908"><ele>378.0</ele><time>2026-04-12T10:32:23.879Z</time></trkpt><trkpt lat="42.6395391" lon="12.3981118"><ele>375.3333333333333</ele><time>2026-04-12T10:32:24.884Z</time></trkpt><trkpt lat="42.6395922" lon="12.398316"><ele>372.66666666666663</ele><time>2026-04-12T10:32:25.88Z</time></trkpt><trkpt lat="42.6396732" lon="12.3985054"><ele>370.0</ele><time>2026-04-12T10:32:26.89Z</time></trkpt><trkpt lat="42.6397772" lon="12.3986687"><ele>370.0</ele><time>2026-04-12T10:32:27.873Z</time></trkpt><trkpt lat="42.6398974" lon="12.3987829"><ele>370.0</ele><time>2026-04-12T10:32:28.9Z</time></trkpt><trkpt lat="42.6400382" lon="12.3988665"><ele>370.0</ele><time>2026-04-12T10:32:29.878Z</time></trkpt><trkpt lat="42.6401839" lon="12.3989625"><ele>369.0</ele><time>2026-04-12T10:32:30.887Z</time></trkpt><trkpt lat="42.6403399" lon="12.3990479"><ele>368.0</ele><time>2026-04-12T10:32:31.877Z</time></trkpt><trkpt lat="42.6405014" lon="12.399141"><ele>367.0</ele><time>2026-04-12T10:32:32.905Z</time></trkpt><trkpt lat="42.6406627" lon="12.3992441"><ele>367.0</ele><time>2026-04-12T10:32:33.878Z</time></trkpt><trkpt lat="42.6408031" lon="12.3993603"><ele>367.0</ele><time>2026-04-12T10:32:34.886Z</time></trkpt><trkpt lat="42.6409162" lon="12.3994888"><ele>367.0</ele><time>2026-04-12T10:32:35.881Z</time></trkpt><trkpt lat="42.6409781" lon="12.3996333"><ele>367.0</ele><time>2026-04-12T10:32:36.886Z</time></trkpt><trkpt lat="42.6409991" lon="12.3997788"><ele>364.0</ele><time>2026-04-12T10:32:37.877Z</time></trkpt><trkpt lat="42.640965" lon="12.3999238"><ele>361.0</ele><time>2026-04-12T10:32:38.886Z</time></trkpt><trkpt lat="42.6409131" lon="12.4000701"><ele>358.0</ele><time>2026-04-12T10:32:39.871Z</time></trkpt><trkpt lat="42.6408569" lon="12.4002133"><ele>355.0</ele><time>2026-04-12T10:32:40.882Z</time></trkpt><trkpt lat="42.6408217" lon="12.4003913"><ele>354.0</ele><time>2026-04-12T10:32:41.879Z</time></trkpt><trkpt lat="42.640803" lon="12.400577"><ele>353.0</ele><time>2026-04-12T10:32:42.892Z</time></trkpt><trkpt lat="42.6408217" lon="12.4007722"><ele>352.0</ele><time>2026-04-12T10:32:43.878Z</time></trkpt><trkpt lat="42.6408652" lon="12.4009685"><ele>351.0</ele><time>2026-04-12T10:32:44.891Z</time></trkpt><trkpt lat="42.6409336" lon="12.4011678"><ele>348.6666666666667</ele><time>2026-04-12T10:32:45.878Z</time></trkpt><trkpt lat="42.6410066" lon="12.4013794"><ele>346.33333333333337</ele><time>2026-04-12T10:32:46.889Z</time></trkpt><trkpt lat="42.6410711" lon="12.4015941"><ele>344.0</ele><time>2026-04-12T10:32:47.887Z</time></trkpt><trkpt lat="42.6411177" lon="12.4018245"><ele>346.0</ele><time>2026-04-12T10:32:48.893Z</time></trkpt><trkpt lat="42.6411422" lon="12.4020585"><ele>348.0</ele><time>2026-04-12T10:32:49.885Z</time></trkpt><trkpt lat="42.6411542" lon="12.4022894"><ele>350.0</ele><time>2026-04-12T10:32:50.903Z</time></trkpt><trkpt lat="42.6411649" lon="12.4025269"><ele>350.0</ele><time>2026-04-12T10:32:51.879Z</time></trkpt><trkpt lat="42.6411667" lon="12.402763"><ele>350.0</ele><time>2026-04-12T10:32:52.891Z</time></trkpt><trkpt lat="42.6411644" lon="12.4029849"><ele>350.0</ele><time>2026-04-12T10:32:53.882Z</time></trkpt><trkpt lat="42.6411636" lon="12.4031988"><ele>347.33333333333337</ele><time>2026-04-12T10:32:54.898Z</time></trkpt><trkpt lat="42.6411593" lon="12.4034057"><ele>344.6666666666667</ele><time>2026-04-12T10:32:55.886Z</time></trkpt><trkpt lat="42.6411597" lon="12.4036139"><ele>342.0</ele><time>2026-04-12T10:32:56.884Z</time></trkpt><trkpt lat="42.6411556" lon="12.4038243"><ele>341.75</ele><time>2026-04-12T10:32:57.885Z</time></trkpt><trkpt lat="42.6411558" lon="12.4040268"><ele>341.5</ele><time>2026-04-12T10:32:58.877Z</time></trkpt><trkpt lat="42.6411496" lon="12.404213"><ele>341.25</ele><time>2026-04-12T10:32:59.883Z</time></trkpt><trkpt lat="42.6411358" lon="12.4043743"><ele>341.0</ele><time>2026-04-12T10:33:00.884Z</time></trkpt><trkpt lat="42.641117" lon="12.404508"><ele>341.0</ele><time>2026-04-12T10:33:01.876Z</time></trkpt><trkpt lat="42.6410986" lon="12.4046157"><ele>341.0</ele><time>2026-04-12T10:33:02.898Z</time></trkpt><trkpt lat="42.641098" lon="12.4047088"><ele>341.0</ele><time>2026-04-12T10:33:03.883Z</time></trkpt><trkpt lat="42.6411665" lon="12.4048497"><ele>341.0</ele><time>2026-04-12T10:33:05.89Z</time></trkpt><trkpt lat="42.6412303" lon="12.4048963"><ele>341.0</ele><time>2026-04-12T10:33:06.889Z</time></trkpt><trkpt lat="42.6413043" lon="12.4049156"><ele>341.0</ele><time>2026-04-12T10:33:07.888Z</time></trkpt><trkpt lat="42.6413939" lon="12.4049164"><ele>341.4</ele><time>2026-04-12T10:33:08.884Z</time></trkpt><trkpt lat="42.6414958" lon="12.4049237"><ele>341.8</ele><time>2026-04-12T10:33:09.879Z</time></trkpt><trkpt lat="42.6416008" lon="12.4049368"><ele>342.2</ele><time>2026-04-12T10:33:10.886Z</time></trkpt><trkpt lat="42.6417139" lon="12.4049631"><ele>342.59999999999997</ele><time>2026-04-12T10:33:11.885Z</time></trkpt><trkpt lat="42.6418374" lon="12.4049793"><ele>343.0</ele><time>2026-04-12T10:33:12.881Z</time></trkpt><trkpt lat="42.6419711" lon="12.4049934"><ele>343.0</ele><time>2026-04-12T10:33:13.875Z</time></trkpt><trkpt lat="42.6420997" lon="12.4050121"><ele>343.0</ele><time>2026-04-12T10:33:14.889Z</time></trkpt><trkpt lat="42.6422199" lon="12.4050356"><ele>343.0</ele><time>2026-04-12T10:33:15.882Z</time></trkpt><trkpt lat="42.6423311" lon="12.4050825"><ele>343.0</ele><time>2026-04-12T10:33:16.885Z</time></trkpt><trkpt lat="42.6424433" lon="12.405148"><ele>343.0</ele><time>2026-04-12T10:33:17.885Z</time></trkpt><trkpt lat="42.6425654" lon="12.4052166"><ele>343.0</ele><time>2026-04-12T10:33:18.889Z</time></trkpt><trkpt lat="42.6426865" lon="12.4052594"><ele>343.0</ele><time>2026-04-12T10:33:19.877Z</time></trkpt><trkpt lat="42.642822" lon="12.4052669"><ele>343.0</ele><time>2026-04-12T10:33:20.881Z</time></trkpt><trkpt lat="42.6429577" lon="12.4052596"><ele>343.5</ele><time>2026-04-12T10:33:21.886Z</time></trkpt><trkpt lat="42.6430905" lon="12.4052449"><ele>344.0</ele><time>2026-04-12T10:33:22.887Z</time></trkpt><trkpt lat="42.6432268" lon="12.4052273"><ele>344.5</ele><time>2026-04-12T10:33:23.884Z</time></trkpt><trkpt lat="42.6433684" lon="12.4052008"><ele>345.0</ele><time>2026-04-12T10:33:24.886Z</time></trkpt><trkpt lat="42.6435023" lon="12.4051759"><ele>345.75</ele><time>2026-04-12T10:33:25.888Z</time></trkpt><trkpt lat="42.6436323" lon="12.4051635"><ele>346.5</ele><time>2026-04-12T10:33:26.87Z</time></trkpt><trkpt lat="42.643753" lon="12.4051504"><ele>347.25</ele><time>2026-04-12T10:33:27.887Z</time></trkpt><trkpt lat="42.6438678" lon="12.4051339"><ele>348.0</ele><time>2026-04-12T10:33:28.872Z</time></trkpt><trkpt lat="42.6439756" lon="12.4051175"><ele>348.0</ele><time>2026-04-12T10:33:29.878Z</time></trkpt><trkpt lat="42.6440714" lon="12.4051081"><ele>348.0</ele><time>2026-04-12T10:33:30.879Z</time></trkpt><trkpt lat="42.6441692" lon="12.4051214"><ele>348.0</ele><time>2026-04-12T10:33:31.891Z</time></trkpt><trkpt lat="42.6442733" lon="12.4051581"><ele>348.0</ele><time>2026-04-12T10:33:32.871Z</time></trkpt><trkpt lat="42.6443862" lon="12.4052117"><ele>348.0</ele><time>2026-04-12T10:33:33.876Z</time></trkpt><trkpt lat="42.6445095" lon="12.4052684"><ele>347.25</ele><time>2026-04-12T10:33:34.886Z</time></trkpt><trkpt lat="42.6446311" lon="12.4053302"><ele>346.5</ele><time>2026-04-12T10:33:35.878Z</time></trkpt><trkpt lat="42.6447633" lon="12.4053958"><ele>345.75</ele><time>2026-04-12T10:33:36.89Z</time></trkpt><trkpt lat="42.644898" lon="12.4054568"><ele>345.0</ele><time>2026-04-12T10:33:37.872Z</time></trkpt><trkpt lat="42.6450387" lon="12.4055069"><ele>347.6666666666667</ele><time>2026-04-12T10:33:38.879Z</time></trkpt><trkpt lat="42.6451801" lon="12.4055324"><ele>350.33333333333337</ele><time>2026-04-12T10:33:39.866Z</time></trkpt><trkpt lat="42.6453344" lon="12.4055402"><ele>353.0</ele><time>2026-04-12T10:33:40.873Z</time></trkpt><trkpt lat="42.6454906" lon="12.4055354"><ele>353.0</ele><time>2026-04-12T10:33:41.875Z</time></trkpt><trkpt lat="42.6456454" lon="12.4055319"><ele>353.0</ele><time>2026-04-12T10:33:42.885Z</time></trkpt><trkpt lat="42.6457895" lon="12.4055298"><ele>353.0</ele><time>2026-04-12T10:33:43.868Z</time></trkpt><trkpt lat="42.6459233" lon="12.4055229"><ele>353.0</ele><time>2026-04-12T10:33:44.875Z</time></trkpt><trkpt lat="42.6460523" lon="12.4055239"><ele>352.25</ele><time>2026-04-12T10:33:45.875Z</time></trkpt><trkpt lat="42.646183" lon="12.4055421"><ele>351.5</ele><time>2026-04-12T10:33:46.88Z</time></trkpt><trkpt lat="42.6463169" lon="12.4055696"><ele>350.75</ele><time>2026-04-12T10:33:47.876Z</time></trkpt><trkpt lat="42.6464508" lon="12.4056023"><ele>350.0</ele><time>2026-04-12T10:33:48.88Z</time></trkpt><trkpt lat="42.6465829" lon="12.4056335"><ele>350.0</ele><time>2026-04-12T10:33:49.884Z</time></trkpt><trkpt lat="42.6467163" lon="12.405666"><ele>350.0</ele><time>2026-04-12T10:33:50.878Z</time></trkpt><trkpt lat="42.6468492" lon="12.405698"><ele>350.0</ele><time>2026-04-12T10:33:51.886Z</time></trkpt><trkpt lat="42.6469763" lon="12.4057246"><ele>350.0</ele><time>2026-04-12T10:33:52.877Z</time></trkpt><trkpt lat="42.6471081" lon="12.4057421"><ele>350.75</ele><time>2026-04-12T10:33:53.875Z</time></trkpt><trkpt lat="42.6472385" lon="12.4057428"><ele>351.5</ele><time>2026-04-12T10:33:54.878Z</time></trkpt><trkpt lat="42.647369" lon="12.4057282"><ele>352.25</ele><time>2026-04-12T10:33:55.878Z</time></trkpt><trkpt lat="42.647498" lon="12.4056938"><ele>353.0</ele><time>2026-04-12T10:33:56.874Z</time></trkpt><trkpt lat="42.6476339" lon="12.4056389"><ele>353.0</ele><time>2026-04-12T10:33:57.893Z</time></trkpt><trkpt lat="42.6477715" lon="12.4055764"><ele>353.0</ele><time>2026-04-12T10:33:58.882Z</time></trkpt><trkpt lat="42.6479157" lon="12.4055084"><ele>353.0</ele><time>2026-04-12T10:33:59.876Z</time></trkpt><trkpt lat="42.6480609" lon="12.4054474"><ele>352.0</ele><time>2026-04-12T10:34:00.871Z</time></trkpt><trkpt lat="42.6482062" lon="12.4053912"><ele>351.0</ele><time>2026-04-12T10:34:01.87Z</time></trkpt><trkpt lat="42.6483476" lon="12.4053321"><ele>350.0</ele><time>2026-04-12T10:34:02.871Z</time></trkpt><trkpt lat="42.6484781" lon="12.4052682"><ele>349.0</ele><time>2026-04-12T10:34:03.874Z</time></trkpt><trkpt lat="42.6486066" lon="12.4052009"><ele>349.75</ele><time>2026-04-12T10:34:04.865Z</time></trkpt><trkpt lat="42.6487378" lon="12.4051354"><ele>350.5</ele><time>2026-04-12T10:34:05.877Z</time></trkpt><trkpt lat="42.6488725" lon="12.4050662"><ele>351.25</ele><time>2026-04-12T10:34:06.875Z</time></trkpt><trkpt lat="42.6489952" lon="12.4049807"><ele>352.0</ele><time>2026-04-12T10:34:07.873Z</time></trkpt><trkpt lat="42.6491071" lon="12.4048828"><ele>352.0</ele><time>2026-04-12T10:34:08.87Z</time></trkpt><trkpt lat="42.6492201" lon="12.4047817"><ele>352.0</ele><time>2026-04-12T10:34:09.877Z</time></trkpt><trkpt lat="42.6493295" lon="12.404689"><ele>352.0</ele><time>2026-04-12T10:34:10.871Z</time></trkpt><trkpt lat="42.6494345" lon="12.4046141"><ele>352.0</ele><time>2026-04-12T10:34:11.873Z</time></trkpt><trkpt lat="42.6495316" lon="12.4045534"><ele>351.5</ele><time>2026-04-12T10:34:12.874Z</time></trkpt><trkpt lat="42.649626" lon="12.4045027"><ele>351.0</ele><time>2026-04-12T10:34:13.873Z</time></trkpt><trkpt lat="42.6497138" lon="12.4044611"><ele>350.5</ele><time>2026-04-12T10:34:14.873Z</time></trkpt><trkpt lat="42.6497891" lon="12.4044261"><ele>350.0</ele><time>2026-04-12T10:34:15.873Z</time></trkpt><trkpt lat="42.6498529" lon="12.4044013"><ele>349.5</ele><time>2026-04-12T10:34:16.872Z</time></trkpt><trkpt lat="42.6499154" lon="12.4043682"><ele>349.0</ele><time>2026-04-12T10:34:17.872Z</time></trkpt><trkpt lat="42.6499804" lon="12.4043192"><ele>349.0</ele><time>2026-04-12T10:34:18.873Z</time></trkpt><trkpt lat="42.6500513" lon="12.4042638"><ele>349.0</ele><time>2026-04-12T10:34:19.872Z</time></trkpt><trkpt lat="42.6501298" lon="12.4042032"><ele>349.0</ele><time>2026-04-12T10:34:20.874Z</time></trkpt><trkpt lat="42.6502152" lon="12.4041417"><ele>349.0</ele><time>2026-04-12T10:34:21.872Z</time></trkpt><trkpt lat="42.6503074" lon="12.4040919"><ele>349.0</ele><time>2026-04-12T10:34:22.872Z</time></trkpt><trkpt lat="42.6503956" lon="12.4040504"><ele>349.2</ele><time>2026-04-12T10:34:23.877Z</time></trkpt><trkpt lat="42.6504749" lon="12.4040146"><ele>349.4</ele><time>2026-04-12T10:34:24.873Z</time></trkpt><trkpt lat="42.6505846" lon="12.403996"><ele>349.6</ele><time>2026-04-12T10:34:26.885Z</time></trkpt><trkpt lat="42.650671" lon="12.4041016"><ele>349.8</ele><time>2026-04-12T10:34:28.884Z</time></trkpt><trkpt lat="42.6506895" lon="12.4041912"><ele>350.0</ele><time>2026-04-12T10:34:29.88Z</time></trkpt><trkpt lat="42.650704" lon="12.4043129"><ele>350.0</ele><time>2026-04-12T10:34:30.887Z</time></trkpt><trkpt lat="42.6507317" lon="12.4044348"><ele>350.0</ele><time>2026-04-12T10:34:31.879Z</time></trkpt><trkpt lat="42.6507761" lon="12.4045439"><ele>350.0</ele><time>2026-04-12T10:34:32.886Z</time></trkpt><trkpt lat="42.6508452" lon="12.4046299"><ele>350.0</ele><time>2026-04-12T10:34:33.872Z</time></trkpt><trkpt lat="42.6509359" lon="12.4046951"><ele>350.0</ele><time>2026-04-12T10:34:34.887Z</time></trkpt><trkpt lat="42.6510434" lon="12.4047579"><ele>351.5</ele><time>2026-04-12T10:34:35.871Z</time></trkpt><trkpt lat="42.6511606" lon="12.4048169"><ele>353.0</ele><time>2026-04-12T10:34:36.872Z</time></trkpt><trkpt lat="42.6512917" lon="12.4048726"><ele>354.5</ele><time>2026-04-12T10:34:37.873Z</time></trkpt><trkpt lat="42.6514233" lon="12.4049271"><ele>356.0</ele><time>2026-04-12T10:34:38.896Z</time></trkpt><trkpt lat="42.6515626" lon="12.4049942"><ele>356.0</ele><time>2026-04-12T10:34:39.876Z</time></trkpt><trkpt lat="42.6516926" lon="12.4050563"><ele>356.0</ele><time>2026-04-12T10:34:40.892Z</time></trkpt><trkpt lat="42.651823" lon="12.4051196"><ele>356.0</ele><time>2026-04-12T10:34:41.889Z</time></trkpt><trkpt lat="42.6519506" lon="12.4051821"><ele>356.0</ele><time>2026-04-12T10:34:42.87Z</time></trkpt><trkpt lat="42.6520748" lon="12.4052367"><ele>357.1666666666667</ele><time>2026-04-12T10:34:43.888Z</time></trkpt><trkpt lat="42.6521828" lon="12.405279"><ele>358.33333333333337</ele><time>2026-04-12T10:34:44.889Z</time></trkpt><trkpt lat="42.6522629" lon="12.405329"><ele>359.5</ele><time>2026-04-12T10:34:45.884Z</time></trkpt><trkpt lat="42.6523331" lon="12.4053972"><ele>360.6666666666667</ele><time>2026-04-12T10:34:46.878Z</time></trkpt><trkpt lat="42.6523858" lon="12.4054723"><ele>361.8333333333333</ele><time>2026-04-12T10:34:47.881Z</time></trkpt><trkpt lat="42.6524454" lon="12.4055496"><ele>363.0</ele><time>2026-04-12T10:34:48.868Z</time></trkpt><trkpt lat="42.6525133" lon="12.4056126"><ele>363.0</ele><time>2026-04-12T10:34:49.869Z</time></trkpt><trkpt lat="42.6525828" lon="12.4056377"><ele>363.0</ele><time>2026-04-12T10:34:50.89Z</time></trkpt><trkpt lat="42.6526612" lon="12.4056427"><ele>363.0</ele><time>2026-04-12T10:34:51.888Z</time></trkpt><trkpt lat="42.6527532" lon="12.4056388"><ele>363.0</ele><time>2026-04-12T10:34:52.879Z</time></trkpt><trkpt lat="42.6528487" lon="12.4056394"><ele>363.0</ele><time>2026-04-12T10:34:53.879Z</time></trkpt><trkpt lat="42.6529453" lon="12.4056403"><ele>363.0</ele><time>2026-04-12T10:34:54.893Z</time></trkpt><trkpt lat="42.6530252" lon="12.4056505"><ele>365.0</ele><time>2026-04-12T10:34:55.877Z</time></trkpt><trkpt lat="42.6530998" lon="12.4056648"><ele>367.0</ele><time>2026-04-12T10:34:56.893Z</time></trkpt><trkpt lat="42.6531846" lon="12.4056859"><ele>369.0</ele><time>2026-04-12T10:34:58.885Z</time></trkpt><trkpt lat="42.6532448" lon="12.4057184"><ele>371.0</ele><time>2026-04-12T10:35:00.88Z</time></trkpt><trkpt lat="42.6533576" lon="12.4057826"><ele>373.0</ele><time>2026-04-12T10:35:02.882Z</time></trkpt><trkpt lat="42.6534253" lon="12.4058263"><ele>375.0</ele><time>2026-04-12T10:35:03.884Z</time></trkpt><trkpt lat="42.6534919" lon="12.4058667"><ele>375.0</ele><time>2026-04-12T10:35:04.874Z</time></trkpt><trkpt lat="42.6535643" lon="12.4059054"><ele>375.0</ele><time>2026-04-12T10:35:05.868Z</time></trkpt><trkpt lat="42.6536472" lon="12.4059401"><ele>375.0</ele><time>2026-04-12T10:35:06.877Z</time></trkpt><trkpt lat="42.6537406" lon="12.4059729"><ele>375.0</ele><time>2026-04-12T10:35:07.863Z</time></trkpt><trkpt lat="42.6538376" lon="12.4060017"><ele>375.0</ele><time>2026-04-12T10:35:08.873Z</time></trkpt><trkpt lat="42.6539424" lon="12.4060187"><ele>376.0</ele><time>2026-04-12T10:35:09.877Z</time></trkpt><trkpt lat="42.6540406" lon="12.4060272"><ele>377.0</ele><time>2026-04-12T10:35:10.867Z</time></trkpt><trkpt lat="42.6541172" lon="12.4060292"><ele>378.0</ele><time>2026-04-12T10:35:11.875Z</time></trkpt><trkpt lat="42.6541921" lon="12.4060359"><ele>379.0</ele><time>2026-04-12T10:35:12.885Z</time></trkpt><trkpt lat="42.6542679" lon="12.406051"><ele>380.0</ele><time>2026-04-12T10:35:13.877Z</time></trkpt><trkpt lat="42.6543526" lon="12.4060762"><ele>381.0</ele><time>2026-04-12T10:35:14.867Z</time></trkpt><trkpt lat="42.6544417" lon="12.4061012"><ele>382.4</ele><time>2026-04-12T10:35:15.874Z</time></trkpt><trkpt lat="42.6545352" lon="12.4061226"><ele>383.8</ele><time>2026-04-12T10:35:16.881Z</time></trkpt><trkpt lat="42.6546272" lon="12.4061344"><ele>385.2</ele><time>2026-04-12T10:35:17.878Z</time></trkpt><trkpt lat="42.6547181" lon="12.4061451"><ele>386.59999999999997</ele><time>2026-04-12T10:35:18.881Z</time></trkpt><trkpt lat="42.6548105" lon="12.4061566"><ele>388.0</ele><time>2026-04-12T10:35:19.861Z</time></trkpt><trkpt lat="42.6549027" lon="12.406167"><ele>388.00000000000006</ele><time>2026-04-12T10:35:20.879Z</time></trkpt><trkpt lat="42.6549979" lon="12.4061805"><ele>388.0</ele><time>2026-04-12T10:35:21.872Z</time></trkpt><trkpt lat="42.655085" lon="12.4061934"><ele>388.0</ele><time>2026-04-12T10:35:22.879Z</time></trkpt><trkpt lat="42.6551728" lon="12.4062016"><ele>388.0</ele><time>2026-04-12T10:35:23.882Z</time></trkpt><trkpt lat="42.6552593" lon="12.4062146"><ele>388.00000000000006</ele><time>2026-04-12T10:35:24.877Z</time></trkpt><trkpt lat="42.6553457" lon="12.4062434"><ele>388.0</ele><time>2026-04-12T10:35:25.874Z</time></trkpt><trkpt lat="42.6554382" lon="12.4062826"><ele>390.2</ele><time>2026-04-12T10:35:26.882Z</time></trkpt><trkpt lat="42.6555297" lon="12.4063193"><ele>392.4</ele><time>2026-04-12T10:35:27.884Z</time></trkpt><trkpt lat="42.6556153" lon="12.4063581"><ele>394.59999999999997</ele><time>2026-04-12T10:35:28.885Z</time></trkpt><trkpt lat="42.6557031" lon="12.4064069"><ele>396.79999999999995</ele><time>2026-04-12T10:35:29.875Z</time></trkpt><trkpt lat="42.6557865" lon="12.406469"><ele>399.0</ele><time>2026-04-12T10:35:30.891Z</time></trkpt><trkpt lat="42.6558669" lon="12.4065298"><ele>399.4</ele><time>2026-04-12T10:35:31.873Z</time></trkpt><trkpt lat="42.6559496" lon="12.4065904"><ele>399.79999999999995</ele><time>2026-04-12T10:35:32.874Z</time></trkpt><trkpt lat="42.6560366" lon="12.4066487"><ele>400.20000000000005</ele><time>2026-04-12T10:35:33.871Z</time></trkpt><trkpt lat="42.6561274" lon="12.4067024"><ele>400.6</ele><time>2026-04-12T10:35:34.883Z</time></trkpt><trkpt lat="42.6562146" lon="12.4067527"><ele>401.0</ele><time>2026-04-12T10:35:35.871Z</time></trkpt><trkpt lat="42.6562972" lon="12.406805"><ele>403.0</ele><time>2026-04-12T10:35:36.88Z</time></trkpt><trkpt lat="42.6563829" lon="12.4068502"><ele>405.0</ele><time>2026-04-12T10:35:37.873Z</time></trkpt><trkpt lat="42.656478" lon="12.4068911"><ele>407.0</ele><time>2026-04-12T10:35:38.881Z</time></trkpt><trkpt lat="42.6565859" lon="12.4069188"><ele>409.0</ele><time>2026-04-12T10:35:39.886Z</time></trkpt><trkpt lat="42.6567" lon="12.4069193"><ele>411.0</ele><time>2026-04-12T10:35:40.87Z</time></trkpt><trkpt lat="42.6568041" lon="12.4069137"><ele>411.0</ele><time>2026-04-12T10:35:41.867Z</time></trkpt><trkpt lat="42.6569" lon="12.4069168"><ele>411.0</ele><time>2026-04-12T10:35:42.872Z</time></trkpt><trkpt lat="42.6569952" lon="12.4069201"><ele>411.0</ele><time>2026-04-12T10:35:43.883Z</time></trkpt><trkpt lat="42.6570869" lon="12.406916"><ele>411.0</ele><time>2026-04-12T10:35:44.879Z</time></trkpt><trkpt lat="42.6571698" lon="12.4068984"><ele>411.0</ele><time>2026-04-12T10:35:45.871Z</time></trkpt><trkpt lat="42.6572615" lon="12.4068567"><ele>412.0</ele><time>2026-04-12T10:35:46.884Z</time></trkpt><trkpt lat="42.6573714" lon="12.4068061"><ele>413.0</ele><time>2026-04-12T10:35:47.882Z</time></trkpt><trkpt lat="42.6574919" lon="12.4067536"><ele>414.0</ele><time>2026-04-12T10:35:48.878Z</time></trkpt><trkpt lat="42.6576068" lon="12.4066919"><ele>415.0</ele><time>2026-04-12T10:35:49.871Z</time></trkpt><trkpt lat="42.6577179" lon="12.4066297"><ele>416.0</ele><time>2026-04-12T10:35:50.885Z</time></trkpt><trkpt lat="42.6578079" lon="12.4065754"><ele>417.0</ele><time>2026-04-12T10:35:51.891Z</time></trkpt><trkpt lat="42.6578959" lon="12.4065416"><ele>418.0</ele><time>2026-04-12T10:35:52.893Z</time></trkpt><trkpt lat="42.6579946" lon="12.4065021"><ele>419.0</ele><time>2026-04-12T10:35:53.873Z</time></trkpt><trkpt lat="42.6580888" lon="12.406457"><ele>420.0</ele><time>2026-04-12T10:35:54.897Z</time></trkpt><trkpt lat="42.6581883" lon="12.4064063"><ele>420.0</ele><time>2026-04-12T10:35:55.877Z</time></trkpt><trkpt lat="42.6582943" lon="12.4063488"><ele>420.0</ele><time>2026-04-12T10:35:56.877Z</time></trkpt><trkpt lat="42.6583956" lon="12.4062949"><ele>420.0</ele><time>2026-04-12T10:35:57.877Z</time></trkpt><trkpt lat="42.6584973" lon="12.4062347"><ele>420.0</ele><time>2026-04-12T10:35:58.871Z</time></trkpt><trkpt lat="42.6585837" lon="12.4061767"><ele>420.0</ele><time>2026-04-12T10:35:59.88Z</time></trkpt><trkpt lat="42.6586709" lon="12.4061347"><ele>421.2</ele><time>2026-04-12T10:36:00.874Z</time></trkpt><trkpt lat="42.6587627" lon="12.406091"><ele>422.4</ele><time>2026-04-12T10:36:01.879Z</time></trkpt><trkpt lat="42.6588485" lon="12.4060417"><ele>423.6</ele><time>2026-04-12T10:36:02.874Z</time></trkpt><trkpt lat="42.6589243" lon="12.4060064"><ele>424.8</ele><time>2026-04-12T10:36:03.874Z</time></trkpt><trkpt lat="42.6590072" lon="12.4059779"><ele>426.0</ele><time>2026-04-12T10:36:04.885Z</time></trkpt><trkpt lat="42.6591039" lon="12.405968"><ele>426.0</ele><time>2026-04-12T10:36:05.877Z</time></trkpt><trkpt lat="42.6591978" lon="12.4059654"><ele>426.0</ele><time>2026-04-12T10:36:06.878Z</time></trkpt><trkpt lat="42.6592942" lon="12.4059636"><ele>426.0</ele><time>2026-04-12T10:36:07.871Z</time></trkpt><trkpt lat="42.6593951" lon="12.4059551"><ele>426.0</ele><time>2026-04-12T10:36:08.891Z</time></trkpt><trkpt lat="42.6594897" lon="12.4059611"><ele>426.0</ele><time>2026-04-12T10:36:09.872Z</time></trkpt><trkpt lat="42.6595818" lon="12.4059817"><ele>427.8</ele><time>2026-04-12T10:36:10.887Z</time></trkpt><trkpt lat="42.6596674" lon="12.4060171"><ele>429.6</ele><time>2026-04-12T10:36:11.864Z</time></trkpt><trkpt lat="42.6597495" lon="12.4060522"><ele>431.4</ele><time>2026-04-12T10:36:12.873Z</time></trkpt><trkpt lat="42.6598469" lon="12.4060803"><ele>433.2</ele><time>2026-04-12T10:36:13.87Z</time></trkpt><trkpt lat="42.6599532" lon="12.406094"><ele>435.0</ele><time>2026-04-12T10:36:14.878Z</time></trkpt><trkpt lat="42.6600573" lon="12.4061093"><ele>435.0</ele><time>2026-04-12T10:36:15.88Z</time></trkpt><trkpt lat="42.6601641" lon="12.4061345"><ele>435.0</ele><time>2026-04-12T10:36:16.893Z</time></trkpt><trkpt lat="42.6602727" lon="12.4061598"><ele>435.0</ele><time>2026-04-12T10:36:17.888Z</time></trkpt><trkpt lat="42.6603797" lon="12.4061903"><ele>435.0</ele><time>2026-04-12T10:36:18.886Z</time></trkpt><trkpt lat="42.6604839" lon="12.4062151"><ele>435.0</ele><time>2026-04-12T10:36:19.876Z</time></trkpt><trkpt lat="42.6605756" lon="12.406254"><ele>435.6</ele><time>2026-04-12T10:36:20.872Z</time></trkpt><trkpt lat="42.6606606" lon="12.4062826"><ele>436.2</ele><time>2026-04-12T10:36:21.892Z</time></trkpt><trkpt lat="42.6607356" lon="12.4063101"><ele>436.79999999999995</ele><time>2026-04-12T10:36:22.88Z</time></trkpt><trkpt lat="42.6608358" lon="12.4063133"><ele>437.4</ele><time>2026-04-12T10:36:23.885Z</time></trkpt><trkpt lat="42.6609269" lon="12.4063028"><ele>438.0</ele><time>2026-04-12T10:36:24.869Z</time></trkpt><trkpt lat="42.6610304" lon="12.4062799"><ele>436.2</ele><time>2026-04-12T10:36:25.877Z</time></trkpt><trkpt lat="42.6611336" lon="12.4062497"><ele>434.4</ele><time>2026-04-12T10:36:26.886Z</time></trkpt><trkpt lat="42.661231" lon="12.4062301"><ele>432.59999999999997</ele><time>2026-04-12T10:36:27.881Z</time></trkpt><trkpt lat="42.6613392" lon="12.4062177"><ele>430.79999999999995</ele><time>2026-04-12T10:36:28.874Z</time></trkpt><trkpt lat="42.6614458" lon="12.4062062"><ele>429.0</ele><time>2026-04-12T10:36:29.876Z</time></trkpt><trkpt lat="42.6615385" lon="12.4061979"><ele>429.0</ele><time>2026-04-12T10:36:30.868Z</time></trkpt><trkpt lat="42.661626" lon="12.4061889"><ele>429.0</ele><time>2026-04-12T10:36:31.874Z</time></trkpt><trkpt lat="42.6616919" lon="12.406185"><ele>429.0</ele><time>2026-04-12T10:36:32.88Z</time></trkpt><trkpt lat="42.6618" lon="12.4061644"><ele>429.0</ele><time>2026-04-12T10:36:34.883Z</time></trkpt><trkpt lat="42.6618356" lon="12.4060812"><ele>429.0</ele><time>2026-04-12T10:36:37.871Z</time></trkpt><trkpt lat="42.6617739" lon="12.4059597"><ele>429.0</ele><time>2026-04-12T10:36:39.877Z</time></trkpt><trkpt lat="42.6617271" lon="12.405876"><ele>429.0</ele><time>2026-04-12T10:36:40.877Z</time></trkpt><trkpt lat="42.6616693" lon="12.4057819"><ele>429.0</ele><time>2026-04-12T10:36:41.879Z</time></trkpt><trkpt lat="42.6616169" lon="12.4056808"><ele>429.0</ele><time>2026-04-12T10:36:42.877Z</time></trkpt><trkpt lat="42.6615587" lon="12.4055749"><ele>429.0</ele><time>2026-04-12T10:36:43.871Z</time></trkpt><trkpt lat="42.6614988" lon="12.405464"><ele>429.0</ele><time>2026-04-12T10:36:44.882Z</time></trkpt><trkpt lat="42.6614496" lon="12.4053577"><ele>427.2</ele><time>2026-04-12T10:36:45.871Z</time></trkpt><trkpt lat="42.6614024" lon="12.405253"><ele>425.4</ele><time>2026-04-12T10:36:46.88Z</time></trkpt><trkpt lat="42.6613512" lon="12.4051454"><ele>423.6</ele><time>2026-04-12T10:36:47.868Z</time></trkpt><trkpt lat="42.661304" lon="12.4050268"><ele>421.8</ele><time>2026-04-12T10:36:48.883Z</time></trkpt><trkpt lat="42.6612585" lon="12.4049073"><ele>420.0</ele><time>2026-04-12T10:36:49.867Z</time></trkpt><trkpt lat="42.6612162" lon="12.4047896"><ele>420.0</ele><time>2026-04-12T10:36:50.869Z</time></trkpt><trkpt lat="42.6611783" lon="12.4046756"><ele>420.0</ele><time>2026-04-12T10:36:51.865Z</time></trkpt><trkpt lat="42.6611374" lon="12.4045767"><ele>420.0</ele><time>2026-04-12T10:36:52.873Z</time></trkpt><trkpt lat="42.6611116" lon="12.4044816"><ele>420.0</ele><time>2026-04-12T10:36:53.871Z</time></trkpt><trkpt lat="42.6610949" lon="12.404394"><ele>420.0</ele><time>2026-04-12T10:36:54.875Z</time></trkpt><trkpt lat="42.6610758" lon="12.4043044"><ele>420.0</ele><time>2026-04-12T10:36:55.877Z</time></trkpt><trkpt lat="42.6610346" lon="12.4041529"><ele>420.0</ele><time>2026-04-12T10:36:57.88Z</time></trkpt><trkpt lat="42.6609991" lon="12.4040804"><ele>420.0</ele><time>2026-04-12T10:36:58.891Z</time></trkpt><trkpt lat="42.6609692" lon="12.4039882"><ele>420.0</ele><time>2026-04-12T10:36:59.886Z</time></trkpt><trkpt lat="42.6609434" lon="12.4038769"><ele>420.0</ele><time>2026-04-12T10:37:00.884Z</time></trkpt><trkpt lat="42.6609329" lon="12.4037682"><ele>420.0</ele><time>2026-04-12T10:37:01.876Z</time></trkpt><trkpt lat="42.6609373" lon="12.4036584"><ele>420.0</ele><time>2026-04-12T10:37:02.877Z</time></trkpt><trkpt lat="42.6609523" lon="12.4035614"><ele>420.0</ele><time>2026-04-12T10:37:03.887Z</time></trkpt><trkpt lat="42.6609874" lon="12.4034075"><ele>420.0</ele><time>2026-04-12T10:37:05.877Z</time></trkpt><trkpt lat="42.6610244" lon="12.4033257"><ele>420.0</ele><time>2026-04-12T10:37:07.881Z</time></trkpt><trkpt lat="42.6610697" lon="12.4032549"><ele>420.0</ele><time>2026-04-12T10:37:10.877Z</time></trkpt><trkpt lat="42.6611386" lon="12.4032422"><ele>420.0</ele><time>2026-04-12T10:37:59.871Z</time></trkpt><trkpt lat="42.6612429" lon="12.4032417"><ele>420.0</ele><time>2026-04-12T10:38:01.883Z</time></trkpt><trkpt lat="42.6613073" lon="12.4032403"><ele>420.0</ele><time>2026-04-12T10:38:02.88Z</time></trkpt><trkpt lat="42.6613847" lon="12.4032409"><ele>420.0</ele><time>2026-04-12T10:38:03.872Z</time></trkpt><trkpt lat="42.6614753" lon="12.4032476"><ele>420.0</ele><time>2026-04-12T10:38:04.889Z</time></trkpt><trkpt lat="42.6615732" lon="12.4032515"><ele>420.0</ele><time>2026-04-12T10:38:05.885Z</time></trkpt><trkpt lat="42.6616728" lon="12.403254"><ele>420.0</ele><time>2026-04-12T10:38:06.883Z</time></trkpt><trkpt lat="42.6617773" lon="12.4032464"><ele>420.0</ele><time>2026-04-12T10:38:07.878Z</time></trkpt><trkpt lat="42.6618806" lon="12.4032301"><ele>420.0</ele><time>2026-04-12T10:38:08.874Z</time></trkpt><trkpt lat="42.6619792" lon="12.4032042"><ele>420.0</ele><time>2026-04-12T10:38:09.878Z</time></trkpt><trkpt lat="42.6620715" lon="12.4031809"><ele>420.0</ele><time>2026-04-12T10:38:10.882Z</time></trkpt><trkpt lat="42.6621666" lon="12.4031654"><ele>420.0</ele><time>2026-04-12T10:38:11.869Z</time></trkpt><trkpt lat="42.6622617" lon="12.4031471"><ele>420.8</ele><time>2026-04-12T10:38:12.877Z</time></trkpt><trkpt lat="42.6623609" lon="12.4031158"><ele>421.6</ele><time>2026-04-12T10:38:13.866Z</time></trkpt><trkpt lat="42.6624553" lon="12.4030846"><ele>422.4</ele><time>2026-04-12T10:38:14.876Z</time></trkpt><trkpt lat="42.6625467" lon="12.4030473"><ele>423.2</ele><time>2026-04-12T10:38:15.889Z</time></trkpt><trkpt lat="42.6626298" lon="12.4029939"><ele>424.0</ele><time>2026-04-12T10:38:16.874Z</time></trkpt><trkpt lat="42.6627154" lon="12.4029232"><ele>424.83333333333337</ele><time>2026-04-12T10:38:17.886Z</time></trkpt><trkpt lat="42.6627955" lon="12.4028526"><ele>425.6666666666667</ele><time>2026-04-12T10:38:18.877Z</time></trkpt><trkpt lat="42.6628655" lon="12.4027805"><ele>426.5</ele><time>2026-04-12T10:38:19.878Z</time></trkpt><trkpt lat="42.662927" lon="12.4027039"><ele>427.33333333333337</ele><time>2026-04-12T10:38:20.876Z</time></trkpt><trkpt lat="42.6629824" lon="12.402615"><ele>428.1666666666667</ele><time>2026-04-12T10:38:21.859Z</time></trkpt><trkpt lat="42.663033" lon="12.4025165"><ele>429.0</ele><time>2026-04-12T10:38:22.893Z</time></trkpt><trkpt lat="42.6630797" lon="12.4024015"><ele>429.0</ele><time>2026-04-12T10:38:23.879Z</time></trkpt><trkpt lat="42.663129" lon="12.4022884"><ele>429.0</ele><time>2026-04-12T10:38:24.895Z</time></trkpt><trkpt lat="42.6631899" lon="12.4021859"><ele>429.0</ele><time>2026-04-12T10:38:25.891Z</time></trkpt><trkpt lat="42.6632813" lon="12.4020924"><ele>429.0</ele><time>2026-04-12T10:38:26.889Z</time></trkpt><trkpt lat="42.6633691" lon="12.4020104"><ele>429.0</ele><time>2026-04-12T10:38:27.884Z</time></trkpt><trkpt lat="42.6634504" lon="12.4019229"><ele>428.6</ele><time>2026-04-12T10:38:28.879Z</time></trkpt><trkpt lat="42.6635173" lon="12.4018262"><ele>428.2</ele><time>2026-04-12T10:38:29.875Z</time></trkpt><trkpt lat="42.6635743" lon="12.401716"><ele>427.80000000000007</ele><time>2026-04-12T10:38:30.87Z</time></trkpt><trkpt lat="42.6636381" lon="12.4016092"><ele>427.40000000000003</ele><time>2026-04-12T10:38:31.879Z</time></trkpt><trkpt lat="42.6636984" lon="12.4015191"><ele>427.0</ele><time>2026-04-12T10:38:32.871Z</time></trkpt><trkpt lat="42.6637663" lon="12.4014419"><ele>427.0</ele><time>2026-04-12T10:38:33.874Z</time></trkpt><trkpt lat="42.6638428" lon="12.401364"><ele>427.00000000000006</ele><time>2026-04-12T10:38:34.879Z</time></trkpt><trkpt lat="42.6639311" lon="12.4013025"><ele>427.00000000000006</ele><time>2026-04-12T10:38:35.873Z</time></trkpt><trkpt lat="42.6640306" lon="12.4012545"><ele>427.0</ele><time>2026-04-12T10:38:36.878Z</time></trkpt><trkpt lat="42.6641384" lon="12.4012078"><ele>427.0</ele><time>2026-04-12T10:38:37.882Z</time></trkpt><trkpt lat="42.6642553" lon="12.4011597"><ele>426.75</ele><time>2026-04-12T10:38:38.892Z</time></trkpt><trkpt lat="42.664372" lon="12.4011088"><ele>426.5</ele><time>2026-04-12T10:38:39.896Z</time></trkpt><trkpt lat="42.6644873" lon="12.4010552"><ele>426.25</ele><time>2026-04-12T10:38:40.881Z</time></trkpt><trkpt lat="42.6645942" lon="12.4010132"><ele>426.0</ele><time>2026-04-12T10:38:41.883Z</time></trkpt><trkpt lat="42.6646846" lon="12.4009775"><ele>425.3333333333333</ele><time>2026-04-12T10:38:42.871Z</time></trkpt><trkpt lat="42.6647654" lon="12.4009391"><ele>424.66666666666663</ele><time>2026-04-12T10:38:43.881Z</time></trkpt><trkpt lat="42.664833" lon="12.400895"><ele>424.0</ele><time>2026-04-12T10:38:44.884Z</time></trkpt><trkpt lat="42.6649418" lon="12.4008667"><ele>423.3333333333333</ele><time>2026-04-12T10:38:46.879Z</time></trkpt><trkpt lat="42.6649982" lon="12.4009085"><ele>422.66666666666663</ele><time>2026-04-12T10:38:47.869Z</time></trkpt><trkpt lat="42.6650474" lon="12.4009929"><ele>422.0</ele><time>2026-04-12T10:38:48.878Z</time></trkpt><trkpt lat="42.6650965" lon="12.4010772"><ele>422.0</ele><time>2026-04-12T10:38:49.882Z</time></trkpt><trkpt lat="42.6651561" lon="12.4011537"><ele>422.0</ele><time>2026-04-12T10:38:50.875Z</time></trkpt><trkpt lat="42.6652194" lon="12.4012343"><ele>422.0</ele><time>2026-04-12T10:38:51.895Z</time></trkpt><trkpt lat="42.6652864" lon="12.4013199"><ele>422.0</ele><time>2026-04-12T10:38:52.883Z</time></trkpt><trkpt lat="42.6653599" lon="12.4014095"><ele>422.0</ele><time>2026-04-12T10:38:53.871Z</time></trkpt><trkpt lat="42.6654252" lon="12.4015127"><ele>418.40000000000003</ele><time>2026-04-12T10:38:54.88Z</time></trkpt><trkpt lat="42.6654792" lon="12.4016298"><ele>414.8</ele><time>2026-04-12T10:38:55.884Z</time></trkpt><trkpt lat="42.6655268" lon="12.4017544"><ele>411.2</ele><time>2026-04-12T10:38:56.888Z</time></trkpt><trkpt lat="42.6655752" lon="12.4018758"><ele>407.6</ele><time>2026-04-12T10:38:57.88Z</time></trkpt><trkpt lat="42.6656266" lon="12.4019922"><ele>404.0</ele><time>2026-04-12T10:38:58.869Z</time></trkpt><trkpt lat="42.6656762" lon="12.4021021"><ele>402.2</ele><time>2026-04-12T10:38:59.868Z</time></trkpt><trkpt lat="42.6657333" lon="12.4022135"><ele>400.4</ele><time>2026-04-12T10:39:00.89Z</time></trkpt><trkpt lat="42.6658017" lon="12.4023313"><ele>398.6</ele><time>2026-04-12T10:39:01.884Z</time></trkpt><trkpt lat="42.6658763" lon="12.4024288"><ele>396.8</ele><time>2026-04-12T10:39:02.874Z</time></trkpt><trkpt lat="42.6659574" lon="12.4025136"><ele>395.0</ele><time>2026-04-12T10:39:03.876Z</time></trkpt><trkpt lat="42.6660366" lon="12.4025916"><ele>395.0</ele><time>2026-04-12T10:39:04.876Z</time></trkpt><trkpt lat="42.6661078" lon="12.4026761"><ele>395.0</ele><time>2026-04-12T10:39:05.875Z</time></trkpt><trkpt lat="42.6661759" lon="12.4027674"><ele>395.0</ele><time>2026-04-12T10:39:06.876Z</time></trkpt><trkpt lat="42.6662428" lon="12.4028651"><ele>395.0</ele><time>2026-04-12T10:39:07.874Z</time></trkpt><trkpt lat="42.66632" lon="12.4029712"><ele>395.0</ele><time>2026-04-12T10:39:08.886Z</time></trkpt><trkpt lat="42.6664027" lon="12.4030763"><ele>393.8333333333333</ele><time>2026-04-12T10:39:09.891Z</time></trkpt><trkpt lat="42.6664893" lon="12.4031741"><ele>392.66666666666663</ele><time>2026-04-12T10:39:10.886Z</time></trkpt><trkpt lat="42.6665678" lon="12.4032586"><ele>391.5</ele><time>2026-04-12T10:39:11.884Z</time></trkpt><trkpt lat="42.6666227" lon="12.4033425"><ele>390.33333333333337</ele><time>2026-04-12T10:39:12.874Z</time></trkpt><trkpt lat="42.6666637" lon="12.4034284"><ele>389.1666666666667</ele><time>2026-04-12T10:39:13.877Z</time></trkpt><trkpt lat="42.6666833" lon="12.4035298"><ele>388.0</ele><time>2026-04-12T10:39:14.884Z</time></trkpt><trkpt lat="42.6666742" lon="12.4036427"><ele>388.0</ele><time>2026-04-12T10:39:15.87Z</time></trkpt><trkpt lat="42.6666516" lon="12.403756"><ele>388.0</ele><time>2026-04-12T10:39:16.872Z</time></trkpt><trkpt lat="42.6666265" lon="12.4038809"><ele>388.0</ele><time>2026-04-12T10:39:17.873Z</time></trkpt><trkpt lat="42.6666099" lon="12.4040046"><ele>388.0</ele><time>2026-04-12T10:39:19.009Z</time></trkpt><trkpt lat="42.6666214" lon="12.4042311"><ele>388.0</ele><time>2026-04-12T10:39:20.875Z</time></trkpt><trkpt lat="42.6666472" lon="12.4043397"><ele>388.0</ele><time>2026-04-12T10:39:21.88Z</time></trkpt><trkpt lat="42.6666907" lon="12.4044455"><ele>388.0</ele><time>2026-04-12T10:39:22.885Z</time></trkpt><trkpt lat="42.6667535" lon="12.4045413"><ele>388.0</ele><time>2026-04-12T10:39:23.881Z</time></trkpt><trkpt lat="42.6668294" lon="12.4046235"><ele>388.0</ele><time>2026-04-12T10:39:24.888Z</time></trkpt><trkpt lat="42.666912" lon="12.4047019"><ele>388.0</ele><time>2026-04-12T10:39:25.883Z</time></trkpt><trkpt lat="42.6669895" lon="12.4047797"><ele>388.79999999999995</ele><time>2026-04-12T10:39:26.878Z</time></trkpt><trkpt lat="42.6670524" lon="12.4048526"><ele>389.6</ele><time>2026-04-12T10:39:27.872Z</time></trkpt><trkpt lat="42.6671153" lon="12.404917"><ele>390.4</ele><time>2026-04-12T10:39:28.873Z</time></trkpt><trkpt lat="42.6671537" lon="12.4049853"><ele>391.20000000000005</ele><time>2026-04-12T10:39:29.871Z</time></trkpt><trkpt lat="42.6672096" lon="12.4051044"><ele>392.0</ele><time>2026-04-12T10:39:31.871Z</time></trkpt><trkpt lat="42.6673285" lon="12.4051925"><ele>392.0</ele><time>2026-04-12T10:39:33.881Z</time></trkpt><trkpt lat="42.667415" lon="12.4052411"><ele>392.0</ele><time>2026-04-12T10:39:34.883Z</time></trkpt><trkpt lat="42.6675111" lon="12.4053002"><ele>392.0</ele><time>2026-04-12T10:39:35.881Z</time></trkpt><trkpt lat="42.6676083" lon="12.4053708"><ele>392.0</ele><time>2026-04-12T10:39:36.882Z</time></trkpt><trkpt lat="42.6677102" lon="12.4054533"><ele>392.0</ele><time>2026-04-12T10:39:37.881Z</time></trkpt><trkpt lat="42.66781" lon="12.4055446"><ele>396.0</ele><time>2026-04-12T10:39:38.878Z</time></trkpt><trkpt lat="42.667908" lon="12.4056483"><ele>400.0</ele><time>2026-04-12T10:39:39.885Z</time></trkpt><trkpt lat="42.6679996" lon="12.4057589"><ele>404.0</ele><time>2026-04-12T10:39:40.872Z</time></trkpt><trkpt lat="42.6680803" lon="12.4058696"><ele>408.0</ele><time>2026-04-12T10:39:41.874Z</time></trkpt><trkpt lat="42.6681659" lon="12.4059702"><ele>408.0</ele><time>2026-04-12T10:39:42.875Z</time></trkpt><trkpt lat="42.668256" lon="12.4060486"><ele>408.0</ele><time>2026-04-12T10:39:43.876Z</time></trkpt><trkpt lat="42.6683534" lon="12.4061053"><ele>408.0</ele><time>2026-04-12T10:39:44.877Z</time></trkpt><trkpt lat="42.6684504" lon="12.4061531"><ele>408.0</ele><time>2026-04-12T10:39:45.875Z</time></trkpt><trkpt lat="42.6685412" lon="12.4062131"><ele>408.0</ele><time>2026-04-12T10:39:46.872Z</time></trkpt><trkpt lat="42.6686076" lon="12.4063323"><ele>410.75</ele><time>2026-04-12T10:39:47.872Z</time></trkpt><trkpt lat="42.6686465" lon="12.4065033"><ele>413.5</ele><time>2026-04-12T10:39:48.87Z</time></trkpt><trkpt lat="42.6686777" lon="12.4066729"><ele>416.25</ele><time>2026-04-12T10:39:49.882Z</time></trkpt><trkpt lat="42.6687089" lon="12.4068571"><ele>419.0</ele><time>2026-04-12T10:39:50.879Z</time></trkpt><trkpt lat="42.6687512" lon="12.4070371"><ele>420.5</ele><time>2026-04-12T10:39:51.874Z</time></trkpt><trkpt lat="42.6688009" lon="12.4071967"><ele>422.0</ele><time>2026-04-12T10:39:52.881Z</time></trkpt><trkpt lat="42.6688734" lon="12.4073386"><ele>423.5</ele><time>2026-04-12T10:39:53.882Z</time></trkpt><trkpt lat="42.6689664" lon="12.407469"><ele>425.0</ele><time>2026-04-12T10:39:54.872Z</time></trkpt><trkpt lat="42.6690607" lon="12.407614"><ele>425.0</ele><time>2026-04-12T10:39:55.88Z</time></trkpt><trkpt lat="42.6691602" lon="12.4077691"><ele>425.0</ele><time>2026-04-12T10:39:56.874Z</time></trkpt><trkpt lat="42.6692594" lon="12.4079141"><ele>425.0</ele><time>2026-04-12T10:39:57.884Z</time></trkpt><trkpt lat="42.6693674" lon="12.4080498"><ele>425.0</ele><time>2026-04-12T10:39:58.877Z</time></trkpt><trkpt lat="42.6694834" lon="12.4081893"><ele>426.25</ele><time>2026-04-12T10:39:59.883Z</time></trkpt><trkpt lat="42.669592" lon="12.4083143"><ele>427.5</ele><time>2026-04-12T10:40:00.872Z</time></trkpt><trkpt lat="42.6696794" lon="12.4084232"><ele>428.75</ele><time>2026-04-12T10:40:01.882Z</time></trkpt><trkpt lat="42.6697471" lon="12.4085198"><ele>430.0</ele><time>2026-04-12T10:40:02.872Z</time></trkpt><trkpt lat="42.6698074" lon="12.4086196"><ele>430.0</ele><time>2026-04-12T10:40:03.87Z</time></trkpt><trkpt lat="42.669866" lon="12.4087539"><ele>430.0</ele><time>2026-04-12T10:40:04.874Z</time></trkpt><trkpt lat="42.669924" lon="12.4089366"><ele>430.0</ele><time>2026-04-12T10:40:05.872Z</time></trkpt><trkpt lat="42.6699821" lon="12.4091227"><ele>430.0</ele><time>2026-04-12T10:40:06.872Z</time></trkpt><trkpt lat="42.6700397" lon="12.4093258"><ele>431.33333333333337</ele><time>2026-04-12T10:40:07.872Z</time></trkpt><trkpt lat="42.6700941" lon="12.4095416"><ele>432.66666666666663</ele><time>2026-04-12T10:40:08.876Z</time></trkpt><trkpt lat="42.6701343" lon="12.4097476"><ele>434.0</ele><time>2026-04-12T10:40:09.871Z</time></trkpt><trkpt lat="42.6701663" lon="12.4099333"><ele>434.5</ele><time>2026-04-12T10:40:10.878Z</time></trkpt><trkpt lat="42.6702009" lon="12.4101092"><ele>435.0</ele><time>2026-04-12T10:40:11.884Z</time></trkpt><trkpt lat="42.67024" lon="12.4102865"><ele>435.5</ele><time>2026-04-12T10:40:12.878Z</time></trkpt><trkpt lat="42.6702935" lon="12.4104556"><ele>436.0</ele><time>2026-04-12T10:40:13.889Z</time></trkpt><trkpt lat="42.6703638" lon="12.4106097"><ele>437.75</ele><time>2026-04-12T10:40:14.88Z</time></trkpt><trkpt lat="42.6704427" lon="12.4107549"><ele>439.5</ele><time>2026-04-12T10:40:15.87Z</time></trkpt><trkpt lat="42.6705293" lon="12.4108974"><ele>441.25</ele><time>2026-04-12T10:40:16.88Z</time></trkpt><trkpt lat="42.6706192" lon="12.4110256"><ele>443.0</ele><time>2026-04-12T10:40:17.88Z</time></trkpt><trkpt lat="42.6707147" lon="12.41114"><ele>443.0</ele><time>2026-04-12T10:40:18.875Z</time></trkpt><trkpt lat="42.670808" lon="12.411247"><ele>443.0</ele><time>2026-04-12T10:40:19.875Z</time></trkpt><trkpt lat="42.6709025" lon="12.4113488"><ele>443.0</ele><time>2026-04-12T10:40:20.871Z</time></trkpt><trkpt lat="42.6709998" lon="12.4114463"><ele>443.0</ele><time>2026-04-12T10:40:21.876Z</time></trkpt><trkpt lat="42.6710991" lon="12.4115356"><ele>446.0</ele><time>2026-04-12T10:40:22.885Z</time></trkpt><trkpt lat="42.6711973" lon="12.4116072"><ele>448.99999999999994</ele><time>2026-04-12T10:40:23.877Z</time></trkpt><trkpt lat="42.6712945" lon="12.4116553"><ele>451.99999999999994</ele><time>2026-04-12T10:40:24.883Z</time></trkpt><trkpt lat="42.6713778" lon="12.4116873"><ele>455.0</ele><time>2026-04-12T10:40:25.875Z</time></trkpt><trkpt lat="42.671451" lon="12.4117086"><ele>458.0</ele><time>2026-04-12T10:40:26.878Z</time></trkpt><trkpt lat="42.6715317" lon="12.411755"><ele>458.0</ele><time>2026-04-12T10:40:28.883Z</time></trkpt><trkpt lat="42.6715796" lon="12.4118387"><ele>457.99999999999994</ele><time>2026-04-12T10:41:14.879Z</time></trkpt><trkpt lat="42.6716458" lon="12.4119021"><ele>457.99999999999994</ele><time>2026-04-12T10:41:16.875Z</time></trkpt><trkpt lat="42.6717003" lon="12.4120124"><ele>458.0</ele><time>2026-04-12T10:41:18.876Z</time></trkpt><trkpt lat="42.6717535" lon="12.4121767"><ele>458.0</ele><time>2026-04-12T10:41:20.875Z</time></trkpt><trkpt lat="42.6717946" lon="12.4122575"><ele>458.2</ele><time>2026-04-12T10:41:21.877Z</time></trkpt><trkpt lat="42.6718487" lon="12.4123439"><ele>458.4</ele><time>2026-04-12T10:41:22.874Z</time></trkpt><trkpt lat="42.6719226" lon="12.4124386"><ele>458.59999999999997</ele><time>2026-04-12T10:41:23.879Z</time></trkpt><trkpt lat="42.6720183" lon="12.4125303"><ele>458.79999999999995</ele><time>2026-04-12T10:41:24.885Z</time></trkpt><trkpt lat="42.6721317" lon="12.4126338"><ele>459.0</ele><time>2026-04-12T10:41:25.875Z</time></trkpt><trkpt lat="42.6722487" lon="12.4127282"><ele>459.0</ele><time>2026-04-12T10:41:26.872Z</time></trkpt><trkpt lat="42.6723565" lon="12.4128227"><ele>459.0</ele><time>2026-04-12T10:41:27.886Z</time></trkpt><trkpt lat="42.6724532" lon="12.4129156"><ele>459.0</ele><time>2026-04-12T10:41:28.888Z</time></trkpt><trkpt lat="42.6725393" lon="12.4130082"><ele>459.0</ele><time>2026-04-12T10:41:29.885Z</time></trkpt><trkpt lat="42.6726181" lon="12.4130902"><ele>460.0</ele><time>2026-04-12T10:41:30.879Z</time></trkpt><trkpt lat="42.6726919" lon="12.4131794"><ele>461.0</ele><time>2026-04-12T10:41:31.88Z</time></trkpt><trkpt lat="42.6727528" lon="12.4132798"><ele>462.0</ele><time>2026-04-12T10:41:32.879Z</time></trkpt><trkpt lat="42.6727836" lon="12.4134112"><ele>463.0</ele><time>2026-04-12T10:41:33.878Z</time></trkpt><trkpt lat="42.6727969" lon="12.4135486"><ele>464.0</ele><time>2026-04-12T10:41:34.878Z</time></trkpt><trkpt lat="42.6728183" lon="12.4136895"><ele>464.0</ele><time>2026-04-12T10:41:35.865Z</time></trkpt><trkpt lat="42.6728575" lon="12.4138011"><ele>464.0</ele><time>2026-04-12T10:41:36.874Z</time></trkpt><trkpt lat="42.6729136" lon="12.4138893"><ele>464.0</ele><time>2026-04-12T10:41:37.876Z</time></trkpt><trkpt lat="42.6729828" lon="12.4139719"><ele>464.0</ele><time>2026-04-12T10:41:38.876Z</time></trkpt><trkpt lat="42.6730657" lon="12.4140534"><ele>464.0</ele><time>2026-04-12T10:41:39.884Z</time></trkpt><trkpt lat="42.6731294" lon="12.4141527"><ele>463.6</ele><time>2026-04-12T10:41:40.888Z</time></trkpt><trkpt lat="42.673168" lon="12.4142723"><ele>463.2</ele><time>2026-04-12T10:41:41.881Z</time></trkpt><trkpt lat="42.6731849" lon="12.4144148"><ele>462.80000000000007</ele><time>2026-04-12T10:41:42.882Z</time></trkpt><trkpt lat="42.6731822" lon="12.4145696"><ele>462.40000000000003</ele><time>2026-04-12T10:41:43.87Z</time></trkpt><trkpt lat="42.6731783" lon="12.4147241"><ele>462.0</ele><time>2026-04-12T10:41:44.88Z</time></trkpt><trkpt lat="42.6731758" lon="12.4148753"><ele>462.0</ele><time>2026-04-12T10:41:45.879Z</time></trkpt><trkpt lat="42.6731795" lon="12.4150164"><ele>462.00000000000006</ele><time>2026-04-12T10:41:46.875Z</time></trkpt><trkpt lat="42.6732141" lon="12.4151474"><ele>462.00000000000006</ele><time>2026-04-12T10:41:47.878Z</time></trkpt><trkpt lat="42.6732629" lon="12.4152787"><ele>462.0</ele><time>2026-04-12T10:41:48.88Z</time></trkpt><trkpt lat="42.673318" lon="12.4154199"><ele>462.0</ele><time>2026-04-12T10:41:49.881Z</time></trkpt><trkpt lat="42.6733668" lon="12.4155879"><ele>461.25</ele><time>2026-04-12T10:41:50.874Z</time></trkpt><trkpt lat="42.6733995" lon="12.4157557"><ele>460.5</ele><time>2026-04-12T10:41:51.876Z</time></trkpt><trkpt lat="42.6734137" lon="12.4159099"><ele>459.75</ele><time>2026-04-12T10:41:52.878Z</time></trkpt><trkpt lat="42.6734335" lon="12.4160482"><ele>459.0</ele><time>2026-04-12T10:41:53.888Z</time></trkpt><trkpt lat="42.6734742" lon="12.4161806"><ele>459.0</ele><time>2026-04-12T10:41:54.883Z</time></trkpt><trkpt lat="42.6735362" lon="12.416297"><ele>459.0</ele><time>2026-04-12T10:41:55.87Z</time></trkpt><trkpt lat="42.6736187" lon="12.416394"><ele>459.0</ele><time>2026-04-12T10:41:56.887Z</time></trkpt><trkpt lat="42.6737212" lon="12.4164943"><ele>459.0</ele><time>2026-04-12T10:41:57.878Z</time></trkpt><trkpt lat="42.6738405" lon="12.4165982"><ele>460.25</ele><time>2026-04-12T10:41:58.878Z</time></trkpt><trkpt lat="42.6739682" lon="12.4166978"><ele>461.5</ele><time>2026-04-12T10:41:59.875Z</time></trkpt><trkpt lat="42.674102" lon="12.4167898"><ele>462.75</ele><time>2026-04-12T10:42:00.875Z</time></trkpt><trkpt lat="42.6742382" lon="12.4168721"><ele>464.0</ele><time>2026-04-12T10:42:01.868Z</time></trkpt><trkpt lat="42.6743757" lon="12.4169424"><ele>465.5</ele><time>2026-04-12T10:42:02.878Z</time></trkpt><trkpt lat="42.6745025" lon="12.4170084"><ele>467.0</ele><time>2026-04-12T10:42:03.866Z</time></trkpt><trkpt lat="42.6746211" lon="12.4170694"><ele>468.5</ele><time>2026-04-12T10:42:04.875Z</time></trkpt><trkpt lat="42.6747409" lon="12.4171185"><ele>470.0</ele><time>2026-04-12T10:42:05.869Z</time></trkpt><trkpt lat="42.6748569" lon="12.4171576"><ele>467.25</ele><time>2026-04-12T10:42:06.872Z</time></trkpt><trkpt lat="42.6749733" lon="12.417185"><ele>464.5</ele><time>2026-04-12T10:42:07.875Z</time></trkpt><trkpt lat="42.6750951" lon="12.4172011"><ele>461.75</ele><time>2026-04-12T10:42:08.877Z</time></trkpt><trkpt lat="42.6752241" lon="12.4171893"><ele>459.0</ele><time>2026-04-12T10:42:09.88Z</time></trkpt><trkpt lat="42.675366" lon="12.4171544"><ele>462.0</ele><time>2026-04-12T10:42:10.877Z</time></trkpt><trkpt lat="42.6755131" lon="12.4171122"><ele>465.0</ele><time>2026-04-12T10:42:11.89Z</time></trkpt><trkpt lat="42.6756652" lon="12.4170609"><ele>468.0</ele><time>2026-04-12T10:42:12.882Z</time></trkpt><trkpt lat="42.6758115" lon="12.4170233"><ele>468.0</ele><time>2026-04-12T10:42:13.867Z</time></trkpt><trkpt lat="42.6759532" lon="12.4170092"><ele>468.0</ele><time>2026-04-12T10:42:14.873Z</time></trkpt><trkpt lat="42.6760847" lon="12.4170276"><ele>468.0</ele><time>2026-04-12T10:42:15.865Z</time></trkpt><trkpt lat="42.6762053" lon="12.4170897"><ele>468.0</ele><time>2026-04-12T10:42:16.878Z</time></trkpt><trkpt lat="42.676318" lon="12.4171659"><ele>466.75</ele><time>2026-04-12T10:42:17.887Z</time></trkpt><trkpt lat="42.6764356" lon="12.4172099"><ele>465.5</ele><time>2026-04-12T10:42:18.878Z</time></trkpt><trkpt lat="42.676565" lon="12.4172412"><ele>464.25</ele><time>2026-04-12T10:42:19.867Z</time></trkpt><trkpt lat="42.676701" lon="12.4172636"><ele>463.0</ele><time>2026-04-12T10:42:20.873Z</time></trkpt><trkpt lat="42.6768504" lon="12.4172777"><ele>464.75</ele><time>2026-04-12T10:42:21.871Z</time></trkpt><trkpt lat="42.6769971" lon="12.4172826"><ele>466.5</ele><time>2026-04-12T10:42:22.872Z</time></trkpt><trkpt lat="42.6771227" lon="12.4172604"><ele>468.25</ele><time>2026-04-12T10:42:23.88Z</time></trkpt><trkpt lat="42.6772384" lon="12.4172358"><ele>470.0</ele><time>2026-04-12T10:42:24.88Z</time></trkpt><trkpt lat="42.6773245" lon="12.4172337"><ele>469.99999999999994</ele><time>2026-04-12T10:42:25.87Z</time></trkpt><trkpt lat="42.6773965" lon="12.4172675"><ele>470.0</ele><time>2026-04-12T10:42:26.877Z</time></trkpt><trkpt lat="42.677455" lon="12.4173337"><ele>470.0</ele><time>2026-04-12T10:42:27.885Z</time></trkpt><trkpt lat="42.6774796" lon="12.4174248"><ele>470.0</ele><time>2026-04-12T10:42:28.871Z</time></trkpt><trkpt lat="42.6774912" lon="12.4175486"><ele>469.99999999999994</ele><time>2026-04-12T10:42:29.881Z</time></trkpt><trkpt lat="42.6774853" lon="12.417697"><ele>470.0</ele><time>2026-04-12T10:42:30.872Z</time></trkpt><trkpt lat="42.6774945" lon="12.4178522"><ele>469.99999999999994</ele><time>2026-04-12T10:42:31.886Z</time></trkpt><trkpt lat="42.6775044" lon="12.4179824"><ele>470.0</ele><time>2026-04-12T10:42:32.879Z</time></trkpt><trkpt lat="42.677525" lon="12.4180779"><ele>470.0</ele><time>2026-04-12T10:42:33.879Z</time></trkpt><trkpt lat="42.6775594" lon="12.4181616"><ele>470.0</ele><time>2026-04-12T10:42:34.877Z</time></trkpt><trkpt lat="42.6776043" lon="12.4182663"><ele>469.99999999999994</ele><time>2026-04-12T10:42:35.873Z</time></trkpt><trkpt lat="42.6776615" lon="12.418395"><ele>470.0</ele><time>2026-04-12T10:42:36.868Z</time></trkpt><trkpt lat="42.6777279" lon="12.4185314"><ele>471.25</ele><time>2026-04-12T10:42:37.883Z</time></trkpt><trkpt lat="42.6777947" lon="12.4186658"><ele>472.5</ele><time>2026-04-12T10:42:38.878Z</time></trkpt><trkpt lat="42.6778321" lon="12.4188074"><ele>473.75</ele><time>2026-04-12T10:42:39.884Z</time></trkpt><trkpt lat="42.6778415" lon="12.4189544"><ele>475.0</ele><time>2026-04-12T10:42:40.893Z</time></trkpt><trkpt lat="42.6778169" lon="12.4191091"><ele>473.25</ele><time>2026-04-12T10:42:41.882Z</time></trkpt><trkpt lat="42.6777677" lon="12.4192569"><ele>471.5</ele><time>2026-04-12T10:42:42.872Z</time></trkpt><trkpt lat="42.6777075" lon="12.4194131"><ele>469.75</ele><time>2026-04-12T10:42:43.885Z</time></trkpt><trkpt lat="42.6776513" lon="12.4195599"><ele>468.0</ele><time>2026-04-12T10:42:44.876Z</time></trkpt><trkpt lat="42.6775949" lon="12.4197188"><ele>468.0</ele><time>2026-04-12T10:42:45.87Z</time></trkpt><trkpt lat="42.67755" lon="12.4198908"><ele>468.0</ele><time>2026-04-12T10:42:46.892Z</time></trkpt><trkpt lat="42.6775132" lon="12.4200456"><ele>468.0</ele><time>2026-04-12T10:42:47.871Z</time></trkpt><trkpt lat="42.6774942" lon="12.4201933"><ele>468.0</ele><time>2026-04-12T10:42:48.876Z</time></trkpt><trkpt lat="42.677497" lon="12.4203321"><ele>468.0</ele><time>2026-04-12T10:42:49.877Z</time></trkpt><trkpt lat="42.6775217" lon="12.4204645"><ele>467.99999999999994</ele><time>2026-04-12T10:42:50.879Z</time></trkpt><trkpt lat="42.6775601" lon="12.4206003"><ele>467.99999999999994</ele><time>2026-04-12T10:42:51.862Z</time></trkpt><trkpt lat="42.6776111" lon="12.420722"><ele>468.0</ele><time>2026-04-12T10:42:52.883Z</time></trkpt><trkpt lat="42.6776763" lon="12.4208259"><ele>468.0</ele><time>2026-04-12T10:42:53.879Z</time></trkpt><trkpt lat="42.6777602" lon="12.4209199"><ele>470.8333333333333</ele><time>2026-04-12T10:42:54.877Z</time></trkpt><trkpt lat="42.677845" lon="12.4210006"><ele>473.66666666666663</ele><time>2026-04-12T10:42:55.886Z</time></trkpt><trkpt lat="42.6779138" lon="12.4210759"><ele>476.5</ele><time>2026-04-12T10:42:56.872Z</time></trkpt><trkpt lat="42.6779676" lon="12.4211651"><ele>479.3333333333333</ele><time>2026-04-12T10:42:57.888Z</time></trkpt><trkpt lat="42.677982" lon="12.421253"><ele>482.16666666666663</ele><time>2026-04-12T10:42:58.879Z</time></trkpt><trkpt lat="42.6779638" lon="12.421354"><ele>485.0</ele><time>2026-04-12T10:42:59.885Z</time></trkpt><trkpt lat="42.6779122" lon="12.4214522"><ele>485.0</ele><time>2026-04-12T10:43:00.877Z</time></trkpt><trkpt lat="42.6778426" lon="12.4215464"><ele>485.0</ele><time>2026-04-12T10:43:01.873Z</time></trkpt><trkpt lat="42.6777786" lon="12.421652"><ele>485.0</ele><time>2026-04-12T10:43:02.888Z</time></trkpt><trkpt lat="42.6777174" lon="12.4217917"><ele>485.0</ele><time>2026-04-12T10:43:03.882Z</time></trkpt><trkpt lat="42.6776591" lon="12.4219504"><ele>485.0</ele><time>2026-04-12T10:43:04.877Z</time></trkpt><trkpt lat="42.677607" lon="12.4221279"><ele>483.5</ele><time>2026-04-12T10:43:05.88Z</time></trkpt><trkpt lat="42.6775627" lon="12.4223095"><ele>482.0</ele><time>2026-04-12T10:43:06.876Z</time></trkpt><trkpt lat="42.6775268" lon="12.4224874"><ele>480.5</ele><time>2026-04-12T10:43:07.885Z</time></trkpt><trkpt lat="42.6775018" lon="12.4226754"><ele>479.0</ele><time>2026-04-12T10:43:08.877Z</time></trkpt><trkpt lat="42.6774739" lon="12.4228586"><ele>480.75</ele><time>2026-04-12T10:43:09.875Z</time></trkpt><trkpt lat="42.6774478" lon="12.4230313"><ele>482.5</ele><time>2026-04-12T10:43:10.879Z</time></trkpt><trkpt lat="42.6774204" lon="12.4231924"><ele>484.25</ele><time>2026-04-12T10:43:11.89Z</time></trkpt><trkpt lat="42.6773986" lon="12.4233556"><ele>486.0</ele><time>2026-04-12T10:43:12.873Z</time></trkpt><trkpt lat="42.6773841" lon="12.4235128"><ele>486.0</ele><time>2026-04-12T10:43:13.88Z</time></trkpt><trkpt lat="42.6773773" lon="12.4236783"><ele>486.0</ele><time>2026-04-12T10:43:14.88Z</time></trkpt><trkpt lat="42.6773762" lon="12.4238519"><ele>486.0</ele><time>2026-04-12T10:43:15.87Z</time></trkpt><trkpt lat="42.6773809" lon="12.4240285"><ele>486.0</ele><time>2026-04-12T10:43:16.878Z</time></trkpt><trkpt lat="42.677389" lon="12.424214"><ele>485.75</ele><time>2026-04-12T10:43:17.882Z</time></trkpt><trkpt lat="42.6773952" lon="12.4244073"><ele>485.5</ele><time>2026-04-12T10:43:18.872Z</time></trkpt><trkpt lat="42.6774042" lon="12.4246114"><ele>485.25</ele><time>2026-04-12T10:43:19.881Z</time></trkpt><trkpt lat="42.677416" lon="12.4248217"><ele>485.0</ele><time>2026-04-12T10:43:20.87Z</time></trkpt><trkpt lat="42.6774304" lon="12.4250405"><ele>485.0</ele><time>2026-04-12T10:43:21.874Z</time></trkpt><trkpt lat="42.677448" lon="12.4252704"><ele>485.0</ele><time>2026-04-12T10:43:22.876Z</time></trkpt><trkpt lat="42.6774703" lon="12.4255045"><ele>485.0</ele><time>2026-04-12T10:43:23.888Z</time></trkpt><trkpt lat="42.6774905" lon="12.4257263"><ele>483.75</ele><time>2026-04-12T10:43:24.877Z</time></trkpt><trkpt lat="42.6775141" lon="12.4259326"><ele>482.5</ele><time>2026-04-12T10:43:25.887Z</time></trkpt><trkpt lat="42.6775347" lon="12.4261349"><ele>481.25</ele><time>2026-04-12T10:43:26.873Z</time></trkpt><trkpt lat="42.6775588" lon="12.4263254"><ele>480.0</ele><time>2026-04-12T10:43:27.869Z</time></trkpt><trkpt lat="42.6775786" lon="12.426509"><ele>479.25</ele><time>2026-04-12T10:43:28.886Z</time></trkpt><trkpt lat="42.6776015" lon="12.4266833"><ele>478.5</ele><time>2026-04-12T10:43:29.861Z</time></trkpt><trkpt lat="42.6776347" lon="12.4268465"><ele>477.75</ele><time>2026-04-12T10:43:30.881Z</time></trkpt><trkpt lat="42.6776864" lon="12.4270076"><ele>477.0</ele><time>2026-04-12T10:43:31.885Z</time></trkpt><trkpt lat="42.6777518" lon="12.4271603"><ele>477.25</ele><time>2026-04-12T10:43:32.878Z</time></trkpt><trkpt lat="42.6778314" lon="12.4273085"><ele>477.5</ele><time>2026-04-12T10:43:33.87Z</time></trkpt><trkpt lat="42.6779277" lon="12.427452"><ele>477.75</ele><time>2026-04-12T10:43:34.872Z</time></trkpt><trkpt lat="42.6780373" lon="12.427595"><ele>478.0</ele><time>2026-04-12T10:43:35.864Z</time></trkpt><trkpt lat="42.6781445" lon="12.4277385"><ele>478.0</ele><time>2026-04-12T10:43:36.873Z</time></trkpt><trkpt lat="42.6782501" lon="12.4278708"><ele>478.0</ele><time>2026-04-12T10:43:37.879Z</time></trkpt><trkpt lat="42.6783429" lon="12.4280088"><ele>478.0</ele><time>2026-04-12T10:43:38.878Z</time></trkpt><trkpt lat="42.6784235" lon="12.4281675"><ele>478.0</ele><time>2026-04-12T10:43:39.87Z</time></trkpt><trkpt lat="42.6784999" lon="12.4283496"><ele>477.75</ele><time>2026-04-12T10:43:40.878Z</time></trkpt><trkpt lat="42.6785684" lon="12.4285367"><ele>477.5</ele><time>2026-04-12T10:43:41.871Z</time></trkpt><trkpt lat="42.6786281" lon="12.4287076"><ele>477.25</ele><time>2026-04-12T10:43:42.873Z</time></trkpt><trkpt lat="42.6786952" lon="12.4288618"><ele>477.0</ele><time>2026-04-12T10:43:43.877Z</time></trkpt><trkpt lat="42.6787622" lon="12.4290023"><ele>476.0</ele><time>2026-04-12T10:43:44.875Z</time></trkpt><trkpt lat="42.6788199" lon="12.4291329"><ele>475.0</ele><time>2026-04-12T10:43:45.885Z</time></trkpt><trkpt lat="42.6788595" lon="12.4292816"><ele>474.0</ele><time>2026-04-12T10:43:46.878Z</time></trkpt><trkpt lat="42.6788809" lon="12.4294402"><ele>473.0</ele><time>2026-04-12T10:43:47.881Z</time></trkpt><trkpt lat="42.6788882" lon="12.4296045"><ele>473.0</ele><time>2026-04-12T10:43:48.874Z</time></trkpt><trkpt lat="42.6788833" lon="12.4297819"><ele>473.0</ele><time>2026-04-12T10:43:49.872Z</time></trkpt><trkpt lat="42.6788617" lon="12.4299597"><ele>473.0</ele><time>2026-04-12T10:43:50.872Z</time></trkpt><trkpt lat="42.6788201" lon="12.4301386"><ele>473.0</ele><time>2026-04-12T10:43:51.875Z</time></trkpt><trkpt lat="42.6787713" lon="12.4303275"><ele>473.3333333333333</ele><time>2026-04-12T10:43:52.878Z</time></trkpt><trkpt lat="42.678728" lon="12.4305256"><ele>473.66666666666663</ele><time>2026-04-12T10:43:53.868Z</time></trkpt><trkpt lat="42.6786887" lon="12.4307366"><ele>474.0</ele><time>2026-04-12T10:43:54.877Z</time></trkpt><trkpt lat="42.6786597" lon="12.4309564"><ele>474.0</ele><time>2026-04-12T10:43:55.877Z</time></trkpt><trkpt lat="42.6786368" lon="12.4311822"><ele>474.0</ele><time>2026-04-12T10:43:56.883Z</time></trkpt><trkpt lat="42.6786148" lon="12.4314057"><ele>474.0</ele><time>2026-04-12T10:43:57.878Z</time></trkpt><trkpt lat="42.6785904" lon="12.4316282"><ele>472.66666666666663</ele><time>2026-04-12T10:43:58.882Z</time></trkpt><trkpt lat="42.678558" lon="12.4318442"><ele>471.3333333333333</ele><time>2026-04-12T10:43:59.869Z</time></trkpt><trkpt lat="42.6785125" lon="12.4320541"><ele>470.0</ele><time>2026-04-12T10:44:00.866Z</time></trkpt><trkpt lat="42.6784547" lon="12.4322705"><ele>470.0</ele><time>2026-04-12T10:44:01.877Z</time></trkpt><trkpt lat="42.6783942" lon="12.4324893"><ele>470.0</ele><time>2026-04-12T10:44:02.878Z</time></trkpt><trkpt lat="42.6783337" lon="12.4327121"><ele>470.0</ele><time>2026-04-12T10:44:03.866Z</time></trkpt><trkpt lat="42.6782632" lon="12.4329306"><ele>470.3333333333333</ele><time>2026-04-12T10:44:04.873Z</time></trkpt><trkpt lat="42.6781894" lon="12.4331438"><ele>470.66666666666663</ele><time>2026-04-12T10:44:05.87Z</time></trkpt><trkpt lat="42.6781157" lon="12.4333506"><ele>471.0</ele><time>2026-04-12T10:44:06.876Z</time></trkpt><trkpt lat="42.6780486" lon="12.4335371"><ele>471.0</ele><time>2026-04-12T10:44:07.871Z</time></trkpt><trkpt lat="42.6779972" lon="12.4337026"><ele>471.0</ele><time>2026-04-12T10:44:08.88Z</time></trkpt><trkpt lat="42.677957" lon="12.4338572"><ele>471.0</ele><time>2026-04-12T10:44:09.872Z</time></trkpt><trkpt lat="42.677936" lon="12.4340187"><ele>471.0</ele><time>2026-04-12T10:44:10.874Z</time></trkpt><trkpt lat="42.677925" lon="12.4341913"><ele>472.0</ele><time>2026-04-12T10:44:11.866Z</time></trkpt><trkpt lat="42.6779157" lon="12.4343803"><ele>473.0</ele><time>2026-04-12T10:44:12.877Z</time></trkpt><trkpt lat="42.6778963" lon="12.4345772"><ele>474.0</ele><time>2026-04-12T10:44:13.878Z</time></trkpt><trkpt lat="42.6778634" lon="12.4347585"><ele>475.0</ele><time>2026-04-12T10:44:14.876Z</time></trkpt><trkpt lat="42.6778092" lon="12.4349155"><ele>474.5</ele><time>2026-04-12T10:44:15.878Z</time></trkpt><trkpt lat="42.6777351" lon="12.4350527"><ele>474.0</ele><time>2026-04-12T10:44:16.879Z</time></trkpt><trkpt lat="42.6776319" lon="12.4351732"><ele>473.5</ele><time>2026-04-12T10:44:17.879Z</time></trkpt><trkpt lat="42.6775085" lon="12.4352636"><ele>473.0</ele><time>2026-04-12T10:44:18.884Z</time></trkpt><trkpt lat="42.6773797" lon="12.4353436"><ele>473.0</ele><time>2026-04-12T10:44:19.875Z</time></trkpt><trkpt lat="42.6772415" lon="12.4354294"><ele>473.0</ele><time>2026-04-12T10:44:20.871Z</time></trkpt><trkpt lat="42.6771001" lon="12.4355132"><ele>473.0</ele><time>2026-04-12T10:44:21.878Z</time></trkpt><trkpt lat="42.676959" lon="12.4355951"><ele>474.66666666666663</ele><time>2026-04-12T10:44:22.873Z</time></trkpt><trkpt lat="42.676812" lon="12.4356761"><ele>476.33333333333337</ele><time>2026-04-12T10:44:23.873Z</time></trkpt><trkpt lat="42.6766553" lon="12.4357628"><ele>478.0</ele><time>2026-04-12T10:44:24.884Z</time></trkpt><trkpt lat="42.6764952" lon="12.435834"><ele>478.0</ele><time>2026-04-12T10:44:25.871Z</time></trkpt><trkpt lat="42.6763371" lon="12.4358883"><ele>478.0</ele><time>2026-04-12T10:44:26.885Z</time></trkpt><trkpt lat="42.6761887" lon="12.4359229"><ele>478.0</ele><time>2026-04-12T10:44:27.875Z</time></trkpt><trkpt lat="42.6760475" lon="12.4359509"><ele>477.79999999999995</ele><time>2026-04-12T10:44:28.879Z</time></trkpt><trkpt lat="42.6759279" lon="12.4359703"><ele>477.59999999999997</ele><time>2026-04-12T10:44:29.87Z</time></trkpt><trkpt lat="42.6758201" lon="12.4359954"><ele>477.40000000000003</ele><time>2026-04-12T10:44:30.867Z</time></trkpt><trkpt lat="42.6757186" lon="12.436013"><ele>477.20000000000005</ele><time>2026-04-12T10:44:31.874Z</time></trkpt><trkpt lat="42.6756245" lon="12.4360248"><ele>477.0</ele><time>2026-04-12T10:44:32.878Z</time></trkpt><trkpt lat="42.6755272" lon="12.4360277"><ele>477.0</ele><time>2026-04-12T10:44:33.88Z</time></trkpt><trkpt lat="42.675424" lon="12.436024"><ele>477.00000000000006</ele><time>2026-04-12T10:44:34.864Z</time></trkpt><trkpt lat="42.6753168" lon="12.4360043"><ele>477.00000000000006</ele><time>2026-04-12T10:44:35.877Z</time></trkpt><trkpt lat="42.6752051" lon="12.435965"><ele>477.0</ele><time>2026-04-12T10:44:36.881Z</time></trkpt><trkpt lat="42.6750954" lon="12.4359224"><ele>477.0</ele><time>2026-04-12T10:44:37.868Z</time></trkpt><trkpt lat="42.674981" lon="12.4358831"><ele>477.20000000000005</ele><time>2026-04-12T10:44:38.878Z</time></trkpt><trkpt lat="42.6748724" lon="12.4358424"><ele>477.40000000000003</ele><time>2026-04-12T10:44:39.871Z</time></trkpt><trkpt lat="42.6747668" lon="12.4357873"><ele>477.59999999999997</ele><time>2026-04-12T10:44:40.878Z</time></trkpt><trkpt lat="42.6746695" lon="12.4357194"><ele>477.79999999999995</ele><time>2026-04-12T10:44:41.872Z</time></trkpt><trkpt lat="42.6745744" lon="12.4356356"><ele>478.0</ele><time>2026-04-12T10:44:42.874Z</time></trkpt><trkpt lat="42.674485" lon="12.4355291"><ele>476.4</ele><time>2026-04-12T10:44:43.874Z</time></trkpt><trkpt lat="42.6744007" lon="12.4354241"><ele>474.79999999999995</ele><time>2026-04-12T10:44:44.875Z</time></trkpt><trkpt lat="42.6743244" lon="12.4353161"><ele>473.2</ele><time>2026-04-12T10:44:45.868Z</time></trkpt><trkpt lat="42.6742444" lon="12.4352268"><ele>471.6</ele><time>2026-04-12T10:44:46.876Z</time></trkpt><trkpt lat="42.6741629" lon="12.4351482"><ele>470.0</ele><time>2026-04-12T10:44:47.877Z</time></trkpt><trkpt lat="42.67408" lon="12.4350815"><ele>470.0</ele><time>2026-04-12T10:44:48.868Z</time></trkpt><trkpt lat="42.6739982" lon="12.4350175"><ele>470.0</ele><time>2026-04-12T10:44:49.866Z</time></trkpt><trkpt lat="42.6739138" lon="12.4349686"><ele>470.0</ele><time>2026-04-12T10:44:50.882Z</time></trkpt><trkpt lat="42.673828" lon="12.4349367"><ele>470.0</ele><time>2026-04-12T10:44:51.869Z</time></trkpt><trkpt lat="42.6737565" lon="12.4349015"><ele>470.0</ele><time>2026-04-12T10:44:52.869Z</time></trkpt><trkpt lat="42.673663" lon="12.4348533"><ele>470.0</ele><time>2026-04-12T10:44:54.873Z</time></trkpt><trkpt lat="42.6736166" lon="12.4349196"><ele>470.0</ele><time>2026-04-12T10:44:57.865Z</time></trkpt><trkpt lat="42.6736566" lon="12.4350325"><ele>470.0</ele><time>2026-04-12T10:44:59.877Z</time></trkpt><trkpt lat="42.6736768" lon="12.4351365"><ele>470.0</ele><time>2026-04-12T10:45:00.883Z</time></trkpt><trkpt lat="42.6736819" lon="12.4352603"><ele>470.0</ele><time>2026-04-12T10:45:01.867Z</time></trkpt><trkpt lat="42.6736943" lon="12.4354262"><ele>470.0</ele><time>2026-04-12T10:45:02.858Z</time></trkpt><trkpt lat="42.6737008" lon="12.4355987"><ele>470.0</ele><time>2026-04-12T10:45:03.868Z</time></trkpt><trkpt lat="42.6737071" lon="12.4357966"><ele>470.0</ele><time>2026-04-12T10:45:04.856Z</time></trkpt><trkpt lat="42.6737035" lon="12.4360152"><ele>470.0</ele><time>2026-04-12T10:45:05.871Z</time></trkpt><trkpt lat="42.6736916" lon="12.4362511"><ele>468.66666666666663</ele><time>2026-04-12T10:45:06.866Z</time></trkpt><trkpt lat="42.6736776" lon="12.4364656"><ele>467.33333333333337</ele><time>2026-04-12T10:45:07.896Z</time></trkpt><trkpt lat="42.6736609" lon="12.436667"><ele>466.0</ele><time>2026-04-12T10:45:08.895Z</time></trkpt><trkpt lat="42.6736532" lon="12.4368621"><ele>466.0</ele><time>2026-04-12T10:45:09.882Z</time></trkpt><trkpt lat="42.6736518" lon="12.4370247"><ele>466.0</ele><time>2026-04-12T10:45:10.86Z</time></trkpt><trkpt lat="42.6736609" lon="12.4371758"><ele>466.0</ele><time>2026-04-12T10:45:11.882Z</time></trkpt><trkpt lat="42.673697" lon="12.4373159"><ele>466.0</ele><time>2026-04-12T10:45:12.879Z</time></trkpt><trkpt lat="42.6737383" lon="12.437464"><ele>464.20000000000005</ele><time>2026-04-12T10:45:13.874Z</time></trkpt><trkpt lat="42.6737883" lon="12.4376067"><ele>462.40000000000003</ele><time>2026-04-12T10:45:14.857Z</time></trkpt><trkpt lat="42.6738303" lon="12.4377446"><ele>460.6</ele><time>2026-04-12T10:45:15.87Z</time></trkpt><trkpt lat="42.673874" lon="12.4378795"><ele>458.8</ele><time>2026-04-12T10:45:16.861Z</time></trkpt><trkpt lat="42.673922" lon="12.4380117"><ele>457.0</ele><time>2026-04-12T10:45:17.862Z</time></trkpt><trkpt lat="42.6739741" lon="12.4381257"><ele>454.40000000000003</ele><time>2026-04-12T10:45:18.865Z</time></trkpt><trkpt lat="42.674035" lon="12.438227"><ele>451.80000000000007</ele><time>2026-04-12T10:45:19.875Z</time></trkpt><trkpt lat="42.6741204" lon="12.4383061"><ele>449.2</ele><time>2026-04-12T10:45:20.863Z</time></trkpt><trkpt lat="42.6742208" lon="12.4383662"><ele>446.6</ele><time>2026-04-12T10:45:21.875Z</time></trkpt><trkpt lat="42.6743216" lon="12.4384316"><ele>444.0</ele><time>2026-04-12T10:45:22.869Z</time></trkpt><trkpt lat="42.6744128" lon="12.4384929"><ele>444.79999999999995</ele><time>2026-04-12T10:45:23.866Z</time></trkpt><trkpt lat="42.6744726" lon="12.4385851"><ele>445.59999999999997</ele><time>2026-04-12T10:45:24.865Z</time></trkpt><trkpt lat="42.6745049" lon="12.4387048"><ele>446.4</ele><time>2026-04-12T10:45:25.895Z</time></trkpt><trkpt lat="42.6745116" lon="12.4388483"><ele>447.2</ele><time>2026-04-12T10:45:26.908Z</time></trkpt><trkpt lat="42.6745056" lon="12.4389985"><ele>448.0</ele><time>2026-04-12T10:45:27.855Z</time></trkpt><trkpt lat="42.6744978" lon="12.4391562"><ele>448.25</ele><time>2026-04-12T10:45:28.883Z</time></trkpt><trkpt lat="42.6744883" lon="12.4393248"><ele>448.5</ele><time>2026-04-12T10:45:29.875Z</time></trkpt><trkpt lat="42.6745013" lon="12.4394905"><ele>448.75</ele><time>2026-04-12T10:45:30.874Z</time></trkpt><trkpt lat="42.6745319" lon="12.4396594"><ele>449.0</ele><time>2026-04-12T10:45:31.881Z</time></trkpt><trkpt lat="42.6745634" lon="12.4398221"><ele>449.4</ele><time>2026-04-12T10:45:32.863Z</time></trkpt><trkpt lat="42.6745998" lon="12.4399659"><ele>449.79999999999995</ele><time>2026-04-12T10:45:33.858Z</time></trkpt><trkpt lat="42.6746303" lon="12.4400821"><ele>450.20000000000005</ele><time>2026-04-12T10:45:34.868Z</time></trkpt><trkpt lat="42.6746477" lon="12.4401773"><ele>450.6</ele><time>2026-04-12T10:45:35.854Z</time></trkpt><trkpt lat="42.6746688" lon="12.440294"><ele>451.0</ele><time>2026-04-12T10:45:37.867Z</time></trkpt><trkpt lat="42.6746502" lon="12.4404147"><ele>449.4</ele><time>2026-04-12T10:45:45.899Z</time></trkpt><trkpt lat="42.6746697" lon="12.4406083"><ele>447.8</ele><time>2026-04-12T10:45:48.875Z</time></trkpt><trkpt lat="42.6747492" lon="12.4407229"><ele>446.19999999999993</ele><time>2026-04-12T10:45:50.863Z</time></trkpt><trkpt lat="42.6748031" lon="12.4407909"><ele>444.59999999999997</ele><time>2026-04-12T10:45:51.872Z</time></trkpt><trkpt lat="42.6748578" lon="12.4408741"><ele>443.0</ele><time>2026-04-12T10:45:52.876Z</time></trkpt><trkpt lat="42.6749158" lon="12.4409558"><ele>443.0</ele><time>2026-04-12T10:45:53.9Z</time></trkpt><trkpt lat="42.6749691" lon="12.4410432"><ele>443.0</ele><time>2026-04-12T10:45:54.869Z</time></trkpt><trkpt lat="42.6750197" lon="12.4411222"><ele>443.0</ele><time>2026-04-12T10:45:55.877Z</time></trkpt><trkpt lat="42.6750676" lon="12.4412"><ele>443.0</ele><time>2026-04-12T10:45:56.869Z</time></trkpt><trkpt lat="42.6751088" lon="12.4412755"><ele>443.0</ele><time>2026-04-12T10:45:57.863Z</time></trkpt><trkpt lat="42.6751483" lon="12.4413528"><ele>443.0</ele><time>2026-04-12T10:45:58.878Z</time></trkpt><trkpt lat="42.6751881" lon="12.4414362"><ele>443.0</ele><time>2026-04-12T10:45:59.855Z</time></trkpt><trkpt lat="42.6752211" lon="12.4415257"><ele>441.3333333333333</ele><time>2026-04-12T10:46:00.879Z</time></trkpt><trkpt lat="42.6752593" lon="12.4416188"><ele>439.66666666666663</ele><time>2026-04-12T10:46:01.888Z</time></trkpt><trkpt lat="42.6753033" lon="12.4417256"><ele>438.0</ele><time>2026-04-12T10:46:02.858Z</time></trkpt><trkpt lat="42.6753489" lon="12.4418295"><ele>436.33333333333337</ele><time>2026-04-12T10:46:03.864Z</time></trkpt><trkpt lat="42.6753934" lon="12.4419378"><ele>434.6666666666667</ele><time>2026-04-12T10:46:04.879Z</time></trkpt><trkpt lat="42.6754391" lon="12.4420478"><ele>433.0</ele><time>2026-04-12T10:46:05.859Z</time></trkpt><trkpt lat="42.6754825" lon="12.4421621"><ele>431.4</ele><time>2026-04-12T10:46:06.883Z</time></trkpt><trkpt lat="42.67553" lon="12.4422707"><ele>429.79999999999995</ele><time>2026-04-12T10:46:07.858Z</time></trkpt><trkpt lat="42.6755841" lon="12.4423732"><ele>428.2</ele><time>2026-04-12T10:46:08.894Z</time></trkpt><trkpt lat="42.6756442" lon="12.4424732"><ele>426.6</ele><time>2026-04-12T10:46:09.9Z</time></trkpt><trkpt lat="42.6757063" lon="12.4425566"><ele>425.0</ele><time>2026-04-12T10:46:10.878Z</time></trkpt><trkpt lat="42.6757737" lon="12.4426281"><ele>424.99999999999994</ele><time>2026-04-12T10:46:11.869Z</time></trkpt><trkpt lat="42.6758321" lon="12.442696"><ele>425.0</ele><time>2026-04-12T10:46:12.881Z</time></trkpt><trkpt lat="42.6758757" lon="12.4427773"><ele>425.0</ele><time>2026-04-12T10:46:13.877Z</time></trkpt><trkpt lat="42.6759175" lon="12.4428665"><ele>425.0</ele><time>2026-04-12T10:46:14.888Z</time></trkpt><trkpt lat="42.6759615" lon="12.4429691"><ele>424.99999999999994</ele><time>2026-04-12T10:46:15.898Z</time></trkpt><trkpt lat="42.676012" lon="12.4430672"><ele>425.0</ele><time>2026-04-12T10:46:16.877Z</time></trkpt><trkpt lat="42.6760723" lon="12.4431626"><ele>424.4</ele><time>2026-04-12T10:46:17.869Z</time></trkpt><trkpt lat="42.6761396" lon="12.4432558"><ele>423.8</ele><time>2026-04-12T10:46:18.883Z</time></trkpt><trkpt lat="42.6762005" lon="12.443357"><ele>423.20000000000005</ele><time>2026-04-12T10:46:19.873Z</time></trkpt><trkpt lat="42.6762761" lon="12.4434708"><ele>422.6</ele><time>2026-04-12T10:46:20.867Z</time></trkpt><trkpt lat="42.6763667" lon="12.4435995"><ele>422.0</ele><time>2026-04-12T10:46:21.88Z</time></trkpt><trkpt lat="42.6764555" lon="12.4437166"><ele>420.25</ele><time>2026-04-12T10:46:22.871Z</time></trkpt><trkpt lat="42.6765408" lon="12.4438185"><ele>418.5</ele><time>2026-04-12T10:46:23.866Z</time></trkpt><trkpt lat="42.6766239" lon="12.4439141"><ele>416.75</ele><time>2026-04-12T10:46:24.872Z</time></trkpt><trkpt lat="42.6767054" lon="12.4440219"><ele>415.0</ele><time>2026-04-12T10:46:25.879Z</time></trkpt><trkpt lat="42.6767833" lon="12.4441499"><ele>415.0</ele><time>2026-04-12T10:46:26.879Z</time></trkpt><trkpt lat="42.6768505" lon="12.4443007"><ele>415.0</ele><time>2026-04-12T10:46:27.862Z</time></trkpt><trkpt lat="42.6769189" lon="12.4444607"><ele>415.0</ele><time>2026-04-12T10:46:28.867Z</time></trkpt><trkpt lat="42.6769982" lon="12.4446126"><ele>415.0</ele><time>2026-04-12T10:46:29.872Z</time></trkpt><trkpt lat="42.6770777" lon="12.4447446"><ele>413.25</ele><time>2026-04-12T10:46:30.875Z</time></trkpt><trkpt lat="42.6771483" lon="12.4448745"><ele>411.5</ele><time>2026-04-12T10:46:31.865Z</time></trkpt><trkpt lat="42.6772119" lon="12.4450076"><ele>409.75</ele><time>2026-04-12T10:46:32.885Z</time></trkpt><trkpt lat="42.6772661" lon="12.4451402"><ele>408.0</ele><time>2026-04-12T10:46:33.883Z</time></trkpt><trkpt lat="42.6773182" lon="12.4452685"><ele>408.0</ele><time>2026-04-12T10:46:34.868Z</time></trkpt><trkpt lat="42.6773758" lon="12.445386"><ele>408.0</ele><time>2026-04-12T10:46:35.862Z</time></trkpt><trkpt lat="42.6774473" lon="12.4455001"><ele>408.0</ele><time>2026-04-12T10:46:36.87Z</time></trkpt><trkpt lat="42.6775289" lon="12.4456202"><ele>408.0</ele><time>2026-04-12T10:46:37.874Z</time></trkpt><trkpt lat="42.6776069" lon="12.4457633"><ele>407.59999999999997</ele><time>2026-04-12T10:46:38.877Z</time></trkpt><trkpt lat="42.6776801" lon="12.4458995"><ele>407.2</ele><time>2026-04-12T10:46:39.876Z</time></trkpt><trkpt lat="42.6777503" lon="12.4460077"><ele>406.8</ele><time>2026-04-12T10:46:40.881Z</time></trkpt><trkpt lat="42.6778234" lon="12.4460818"><ele>406.4</ele><time>2026-04-12T10:46:41.87Z</time></trkpt><trkpt lat="42.6779099" lon="12.446138"><ele>406.0</ele><time>2026-04-12T10:46:42.889Z</time></trkpt><trkpt lat="42.6780015" lon="12.4462091"><ele>404.75</ele><time>2026-04-12T10:46:43.869Z</time></trkpt><trkpt lat="42.6780908" lon="12.4463069"><ele>403.5</ele><time>2026-04-12T10:46:44.874Z</time></trkpt><trkpt lat="42.6781534" lon="12.4464303"><ele>402.25</ele><time>2026-04-12T10:46:45.872Z</time></trkpt><trkpt lat="42.6782245" lon="12.4465485"><ele>401.0</ele><time>2026-04-12T10:46:46.878Z</time></trkpt><trkpt lat="42.6782986" lon="12.4466722"><ele>401.0</ele><time>2026-04-12T10:46:47.879Z</time></trkpt><trkpt lat="42.6783663" lon="12.4468022"><ele>401.0</ele><time>2026-04-12T10:46:48.873Z</time></trkpt><trkpt lat="42.6784367" lon="12.4469321"><ele>401.0</ele><time>2026-04-12T10:46:49.885Z</time></trkpt><trkpt lat="42.678506" lon="12.447052"><ele>401.0</ele><time>2026-04-12T10:46:50.883Z</time></trkpt><trkpt lat="42.6785743" lon="12.4471733"><ele>399.5</ele><time>2026-04-12T10:46:51.874Z</time></trkpt><trkpt lat="42.678648" lon="12.447303"><ele>398.0</ele><time>2026-04-12T10:46:52.884Z</time></trkpt><trkpt lat="42.6787275" lon="12.4474313"><ele>396.5</ele><time>2026-04-12T10:46:53.874Z</time></trkpt><trkpt lat="42.6788035" lon="12.4475509"><ele>395.0</ele><time>2026-04-12T10:46:54.878Z</time></trkpt><trkpt lat="42.678882" lon="12.4476646"><ele>395.0</ele><time>2026-04-12T10:46:55.875Z</time></trkpt><trkpt lat="42.6789656" lon="12.4477587"><ele>395.0</ele><time>2026-04-12T10:46:56.878Z</time></trkpt><trkpt lat="42.6790528" lon="12.4478498"><ele>395.0</ele><time>2026-04-12T10:46:57.873Z</time></trkpt><trkpt lat="42.6791489" lon="12.4479371"><ele>395.0</ele><time>2026-04-12T10:46:58.875Z</time></trkpt><trkpt lat="42.6792513" lon="12.4480267"><ele>394.5</ele><time>2026-04-12T10:46:59.879Z</time></trkpt><trkpt lat="42.6793539" lon="12.4481254"><ele>394.0</ele><time>2026-04-12T10:47:00.872Z</time></trkpt><trkpt lat="42.6794527" lon="12.4482154"><ele>393.5</ele><time>2026-04-12T10:47:01.869Z</time></trkpt><trkpt lat="42.679543" lon="12.4483"><ele>393.0</ele><time>2026-04-12T10:47:02.876Z</time></trkpt><trkpt lat="42.67963" lon="12.4483845"><ele>392.59999999999997</ele><time>2026-04-12T10:47:03.874Z</time></trkpt><trkpt lat="42.6797152" lon="12.4484682"><ele>392.2</ele><time>2026-04-12T10:47:04.876Z</time></trkpt><trkpt lat="42.6797959" lon="12.4485502"><ele>391.8</ele><time>2026-04-12T10:47:05.88Z</time></trkpt><trkpt lat="42.6798679" lon="12.4486275"><ele>391.4</ele><time>2026-04-12T10:47:06.873Z</time></trkpt><trkpt lat="42.6799319" lon="12.4486978"><ele>391.0</ele><time>2026-04-12T10:47:07.873Z</time></trkpt><trkpt lat="42.6799949" lon="12.4487546"><ele>391.20000000000005</ele><time>2026-04-12T10:47:08.873Z</time></trkpt><trkpt lat="42.680049" lon="12.4487998"><ele>391.40000000000003</ele><time>2026-04-12T10:47:09.881Z</time></trkpt><trkpt lat="42.6801366" lon="12.4488793"><ele>391.6</ele><time>2026-04-12T10:47:11.876Z</time></trkpt><trkpt lat="42.6802495" lon="12.4489421"><ele>391.8</ele><time>2026-04-12T10:47:13.873Z</time></trkpt><trkpt lat="42.6803723" lon="12.4489955"><ele>392.0</ele><time>2026-04-12T10:47:15.873Z</time></trkpt><trkpt lat="42.6804521" lon="12.4490363"><ele>392.40000000000003</ele><time>2026-04-12T10:47:16.879Z</time></trkpt><trkpt lat="42.6805383" lon="12.4490876"><ele>392.8</ele><time>2026-04-12T10:47:17.88Z</time></trkpt><trkpt lat="42.6806276" lon="12.4491392"><ele>393.2</ele><time>2026-04-12T10:47:18.879Z</time></trkpt><trkpt lat="42.6807274" lon="12.4491755"><ele>393.6</ele><time>2026-04-12T10:47:19.874Z</time></trkpt><trkpt lat="42.6808252" lon="12.4492027"><ele>394.0</ele><time>2026-04-12T10:47:20.877Z</time></trkpt><trkpt lat="42.6809106" lon="12.4492215"><ele>394.0</ele><time>2026-04-12T10:47:21.886Z</time></trkpt><trkpt lat="42.6809903" lon="12.4492535"><ele>394.0</ele><time>2026-04-12T10:47:22.876Z</time></trkpt><trkpt lat="42.6810739" lon="12.4492976"><ele>394.0</ele><time>2026-04-12T10:47:23.877Z</time></trkpt><trkpt lat="42.6811649" lon="12.4493452"><ele>394.0</ele><time>2026-04-12T10:47:24.876Z</time></trkpt><trkpt lat="42.6812612" lon="12.4493982"><ele>394.0</ele><time>2026-04-12T10:47:25.885Z</time></trkpt><trkpt lat="42.6813649" lon="12.4494483"><ele>393.79999999999995</ele><time>2026-04-12T10:47:26.886Z</time></trkpt><trkpt lat="42.6814712" lon="12.4495035"><ele>393.59999999999997</ele><time>2026-04-12T10:47:27.879Z</time></trkpt><trkpt lat="42.6815685" lon="12.4495712"><ele>393.4</ele><time>2026-04-12T10:47:28.881Z</time></trkpt><trkpt lat="42.6816652" lon="12.4496396"><ele>393.2</ele><time>2026-04-12T10:47:29.87Z</time></trkpt><trkpt lat="42.6817575" lon="12.4497087"><ele>393.0</ele><time>2026-04-12T10:47:30.878Z</time></trkpt><trkpt lat="42.6818449" lon="12.4497756"><ele>391.59999999999997</ele><time>2026-04-12T10:47:31.878Z</time></trkpt><trkpt lat="42.6819338" lon="12.4498492"><ele>390.2</ele><time>2026-04-12T10:47:32.88Z</time></trkpt><trkpt lat="42.6820274" lon="12.449926"><ele>388.8</ele><time>2026-04-12T10:47:33.884Z</time></trkpt><trkpt lat="42.6821164" lon="12.4499995"><ele>387.4</ele><time>2026-04-12T10:47:34.876Z</time></trkpt><trkpt lat="42.6822047" lon="12.4500614"><ele>386.0</ele><time>2026-04-12T10:47:35.874Z</time></trkpt><trkpt lat="42.6822906" lon="12.4501208"><ele>386.0</ele><time>2026-04-12T10:47:36.881Z</time></trkpt><trkpt lat="42.6823751" lon="12.4501846"><ele>386.0</ele><time>2026-04-12T10:47:37.871Z</time></trkpt><trkpt lat="42.6824628" lon="12.45025"><ele>386.0</ele><time>2026-04-12T10:47:38.874Z</time></trkpt><trkpt lat="42.6825441" lon="12.450315"><ele>386.0</ele><time>2026-04-12T10:47:39.883Z</time></trkpt><trkpt lat="42.6826297" lon="12.450378"><ele>386.0</ele><time>2026-04-12T10:47:40.88Z</time></trkpt><trkpt lat="42.6827188" lon="12.4504475"><ele>385.20000000000005</ele><time>2026-04-12T10:47:41.87Z</time></trkpt><trkpt lat="42.6828067" lon="12.4505222"><ele>384.40000000000003</ele><time>2026-04-12T10:47:42.881Z</time></trkpt><trkpt lat="42.6828885" lon="12.4506142"><ele>383.6</ele><time>2026-04-12T10:47:43.879Z</time></trkpt><trkpt lat="42.6829711" lon="12.4507113"><ele>382.8</ele><time>2026-04-12T10:47:44.883Z</time></trkpt><trkpt lat="42.6830557" lon="12.4508095"><ele>382.0</ele><time>2026-04-12T10:47:45.879Z</time></trkpt><trkpt lat="42.683154" lon="12.450927"><ele>382.0</ele><time>2026-04-12T10:47:46.872Z</time></trkpt><trkpt lat="42.6832608" lon="12.4510524"><ele>382.0</ele><time>2026-04-12T10:47:47.883Z</time></trkpt><trkpt lat="42.6833652" lon="12.4511787"><ele>382.0</ele><time>2026-04-12T10:47:48.878Z</time></trkpt><trkpt lat="42.683468" lon="12.4513002"><ele>382.0</ele><time>2026-04-12T10:47:49.887Z</time></trkpt><trkpt lat="42.6835654" lon="12.4514279"><ele>381.0</ele><time>2026-04-12T10:47:50.88Z</time></trkpt><trkpt lat="42.6836573" lon="12.4515529"><ele>380.0</ele><time>2026-04-12T10:47:51.876Z</time></trkpt><trkpt lat="42.6837479" lon="12.4516858"><ele>379.0</ele><time>2026-04-12T10:47:52.876Z</time></trkpt><trkpt lat="42.6838357" lon="12.4518155"><ele>378.0</ele><time>2026-04-12T10:47:53.868Z</time></trkpt><trkpt lat="42.6839209" lon="12.4519513"><ele>378.0</ele><time>2026-04-12T10:47:54.887Z</time></trkpt><trkpt lat="42.6840045" lon="12.4520755"><ele>378.0</ele><time>2026-04-12T10:47:55.871Z</time></trkpt><trkpt lat="42.6840711" lon="12.4521927"><ele>371.0</ele><time>2026-04-12T10:47:56.885Z</time></trkpt><trkpt lat="42.6841345" lon="12.4523044"><ele>371.0</ele><time>2026-04-12T10:47:57.874Z</time></trkpt></trkseg><trkseg><trkpt lat="42.6869622" lon="12.4542318"><ele>331.0</ele><time>2026-04-12T10:51:55.876Z</time></trkpt><trkpt lat="42.6870665" lon="12.4542379"><ele>331.0</ele><time>2026-04-12T10:51:57.875Z</time></trkpt><trkpt lat="42.6871419" lon="12.4542566"><ele>331.0</ele><time>2026-04-12T10:51:58.877Z</time></trkpt><trkpt lat="42.6872269" lon="12.4542834"><ele>331.0</ele><time>2026-04-12T10:51:59.86Z</time></trkpt><trkpt lat="42.6873083" lon="12.454316"><ele>331.0</ele><time>2026-04-12T10:52:00.871Z</time></trkpt><trkpt lat="42.6873927" lon="12.4543313"><ele>331.0</ele><time>2026-04-12T10:52:01.88Z</time></trkpt><trkpt lat="42.6874756" lon="12.4543191"><ele>331.0</ele><time>2026-04-12T10:52:02.88Z</time></trkpt><trkpt lat="42.6875585" lon="12.4542829"><ele>331.0</ele><time>2026-04-12T10:52:03.872Z</time></trkpt><trkpt lat="42.6876511" lon="12.4542196"><ele>331.0</ele><time>2026-04-12T10:52:04.883Z</time></trkpt><trkpt lat="42.6877514" lon="12.454157"><ele>331.0</ele><time>2026-04-12T10:52:05.878Z</time></trkpt><trkpt lat="42.6878621" lon="12.4540873"><ele>331.0</ele><time>2026-04-12T10:52:06.878Z</time></trkpt><trkpt lat="42.6879778" lon="12.4540054"><ele>330.75</ele><time>2026-04-12T10:52:07.874Z</time></trkpt><trkpt lat="42.6880962" lon="12.4539102"><ele>330.5</ele><time>2026-04-12T10:52:08.869Z</time></trkpt><trkpt lat="42.6882134" lon="12.4538156"><ele>330.25</ele><time>2026-04-12T10:52:09.868Z</time></trkpt><trkpt lat="42.6883278" lon="12.4537244"><ele>330.0</ele><time>2026-04-12T10:52:10.874Z</time></trkpt><trkpt lat="42.6884445" lon="12.4536436"><ele>330.0</ele><time>2026-04-12T10:52:11.866Z</time></trkpt><trkpt lat="42.6885566" lon="12.4535778"><ele>330.0</ele><time>2026-04-12T10:52:12.876Z</time></trkpt><trkpt lat="42.6886604" lon="12.4535196"><ele>330.0</ele><time>2026-04-12T10:52:13.863Z</time></trkpt><trkpt lat="42.6887566" lon="12.4534634"><ele>330.0</ele><time>2026-04-12T10:52:14.885Z</time></trkpt><trkpt lat="42.6888439" lon="12.453399"><ele>330.0</ele><time>2026-04-12T10:52:15.874Z</time></trkpt><trkpt lat="42.6889151" lon="12.4533207"><ele>328.8333333333333</ele><time>2026-04-12T10:52:16.878Z</time></trkpt><trkpt lat="42.6889692" lon="12.4532416"><ele>327.6666666666667</ele><time>2026-04-12T10:52:17.87Z</time></trkpt><trkpt lat="42.6890048" lon="12.4531679"><ele>326.5</ele><time>2026-04-12T10:52:18.88Z</time></trkpt><trkpt lat="42.6890326" lon="12.4530507"><ele>325.33333333333337</ele><time>2026-04-12T10:52:20.871Z</time></trkpt><trkpt lat="42.6891396" lon="12.453017"><ele>324.1666666666667</ele><time>2026-04-12T10:52:42.874Z</time></trkpt><trkpt lat="42.6892111" lon="12.4530542"><ele>323.0</ele><time>2026-04-12T10:52:43.867Z</time></trkpt><trkpt lat="42.6893327" lon="12.4531142"><ele>323.0</ele><time>2026-04-12T10:52:45.877Z</time></trkpt><trkpt lat="42.6894187" lon="12.4531557"><ele>323.0</ele><time>2026-04-12T10:52:46.878Z</time></trkpt><trkpt lat="42.6895192" lon="12.4531949"><ele>323.0</ele><time>2026-04-12T10:52:47.87Z</time></trkpt><trkpt lat="42.6896157" lon="12.4532359"><ele>323.0</ele><time>2026-04-12T10:52:48.873Z</time></trkpt><trkpt lat="42.6897163" lon="12.45328"><ele>323.0</ele><time>2026-04-12T10:52:49.89Z</time></trkpt><trkpt lat="42.6898225" lon="12.4533209"><ele>322.75</ele><time>2026-04-12T10:52:50.879Z</time></trkpt><trkpt lat="42.6899334" lon="12.4533546"><ele>322.5</ele><time>2026-04-12T10:52:51.873Z</time></trkpt><trkpt lat="42.6900453" lon="12.4533644"><ele>322.25</ele><time>2026-04-12T10:52:52.872Z</time></trkpt><trkpt lat="42.6901661" lon="12.4533661"><ele>322.0</ele><time>2026-04-12T10:52:53.881Z</time></trkpt><trkpt lat="42.690291" lon="12.4533641"><ele>323.75</ele><time>2026-04-12T10:52:54.884Z</time></trkpt><trkpt lat="42.6904234" lon="12.4533459"><ele>325.5</ele><time>2026-04-12T10:52:55.881Z</time></trkpt><trkpt lat="42.690559" lon="12.4533152"><ele>327.25</ele><time>2026-04-12T10:52:56.871Z</time></trkpt><trkpt lat="42.6906998" lon="12.4532724"><ele>329.0</ele><time>2026-04-12T10:52:57.88Z</time></trkpt><trkpt lat="42.690839" lon="12.4532147"><ele>329.0</ele><time>2026-04-12T10:52:58.868Z</time></trkpt><trkpt lat="42.6909833" lon="12.4531518"><ele>329.0</ele><time>2026-04-12T10:52:59.878Z</time></trkpt><trkpt lat="42.6911292" lon="12.4530927"><ele>329.0</ele><time>2026-04-12T10:53:00.884Z</time></trkpt><trkpt lat="42.6912779" lon="12.4530411"><ele>331.6666666666667</ele><time>2026-04-12T10:53:01.876Z</time></trkpt><trkpt lat="42.6914271" lon="12.4530045"><ele>334.3333333333333</ele><time>2026-04-12T10:53:02.873Z</time></trkpt><trkpt lat="42.6915793" lon="12.4529757"><ele>337.0</ele><time>2026-04-12T10:53:03.879Z</time></trkpt><trkpt lat="42.691731" lon="12.4529648"><ele>337.0</ele><time>2026-04-12T10:53:04.882Z</time></trkpt><trkpt lat="42.6918839" lon="12.4529744"><ele>337.0</ele><time>2026-04-12T10:53:05.881Z</time></trkpt><trkpt lat="42.6920412" lon="12.4529977"><ele>337.0</ele><time>2026-04-12T10:53:06.867Z</time></trkpt><trkpt lat="42.6922028" lon="12.4530299"><ele>339.0</ele><time>2026-04-12T10:53:07.867Z</time></trkpt><trkpt lat="42.6923677" lon="12.4530683"><ele>341.0</ele><time>2026-04-12T10:53:08.88Z</time></trkpt><trkpt lat="42.6925371" lon="12.4531089"><ele>343.0</ele><time>2026-04-12T10:53:09.883Z</time></trkpt><trkpt lat="42.6927082" lon="12.4531504"><ele>346.66666666666663</ele><time>2026-04-12T10:53:10.875Z</time></trkpt><trkpt lat="42.6928786" lon="12.4531957"><ele>350.3333333333333</ele><time>2026-04-12T10:53:11.871Z</time></trkpt><trkpt lat="42.6930436" lon="12.4532535"><ele>354.0</ele><time>2026-04-12T10:53:12.885Z</time></trkpt><trkpt lat="42.6931996" lon="12.4533537"><ele>354.0</ele><time>2026-04-12T10:53:13.873Z</time></trkpt><trkpt lat="42.6933193" lon="12.4534721"><ele>354.0</ele><time>2026-04-12T10:53:14.872Z</time></trkpt><trkpt lat="42.6934331" lon="12.4536153"><ele>354.0</ele><time>2026-04-12T10:53:15.871Z</time></trkpt><trkpt lat="42.6935304" lon="12.4537778"><ele>358.0</ele><time>2026-04-12T10:53:16.878Z</time></trkpt><trkpt lat="42.6936329" lon="12.4539555"><ele>362.0</ele><time>2026-04-12T10:53:17.869Z</time></trkpt><trkpt lat="42.6937392" lon="12.4541243"><ele>366.0</ele><time>2026-04-12T10:53:18.872Z</time></trkpt><trkpt lat="42.6938489" lon="12.4543051"><ele>366.0</ele><time>2026-04-12T10:53:19.865Z</time></trkpt><trkpt lat="42.6939637" lon="12.4544808"><ele>366.0</ele><time>2026-04-12T10:53:20.881Z</time></trkpt><trkpt lat="42.6940693" lon="12.4546578"><ele>366.0</ele><time>2026-04-12T10:53:21.872Z</time></trkpt><trkpt lat="42.6941631" lon="12.4548205"><ele>368.75</ele><time>2026-04-12T10:53:22.873Z</time></trkpt><trkpt lat="42.6942461" lon="12.4549623"><ele>371.5</ele><time>2026-04-12T10:53:23.877Z</time></trkpt><trkpt lat="42.6943223" lon="12.45509"><ele>374.25</ele><time>2026-04-12T10:53:24.876Z</time></trkpt><trkpt lat="42.6943968" lon="12.4552011"><ele>377.0</ele><time>2026-04-12T10:53:25.865Z</time></trkpt><trkpt lat="42.694476" lon="12.4553091"><ele>377.75</ele><time>2026-04-12T10:53:26.877Z</time></trkpt><trkpt lat="42.6945609" lon="12.455416"><ele>378.5</ele><time>2026-04-12T10:53:27.869Z</time></trkpt><trkpt lat="42.6946504" lon="12.4555173"><ele>379.25</ele><time>2026-04-12T10:53:28.884Z</time></trkpt><trkpt lat="42.6947417" lon="12.4556076"><ele>380.0</ele><time>2026-04-12T10:53:29.886Z</time></trkpt><trkpt lat="42.6948287" lon="12.4556965"><ele>381.0</ele><time>2026-04-12T10:53:30.871Z</time></trkpt><trkpt lat="42.6949161" lon="12.4557912"><ele>382.0</ele><time>2026-04-12T10:53:31.88Z</time></trkpt><trkpt lat="42.6949873" lon="12.4559051"><ele>383.0</ele><time>2026-04-12T10:53:32.872Z</time></trkpt><trkpt lat="42.6950455" lon="12.4560284"><ele>384.0</ele><time>2026-04-12T10:53:33.873Z</time></trkpt><trkpt lat="42.6951073" lon="12.4561542"><ele>385.0</ele><time>2026-04-12T10:53:34.868Z</time></trkpt><trkpt lat="42.6951799" lon="12.4562793"><ele>385.25</ele><time>2026-04-12T10:53:35.88Z</time></trkpt><trkpt lat="42.6952519" lon="12.4563984"><ele>385.5</ele><time>2026-04-12T10:53:36.874Z</time></trkpt><trkpt lat="42.6953188" lon="12.4565163"><ele>385.75</ele><time>2026-04-12T10:53:37.88Z</time></trkpt><trkpt lat="42.6954057" lon="12.4566261"><ele>386.0</ele><time>2026-04-12T10:53:38.893Z</time></trkpt><trkpt lat="42.6955051" lon="12.4567306"><ele>386.0</ele><time>2026-04-12T10:53:39.87Z</time></trkpt><trkpt lat="42.6956191" lon="12.4568251"><ele>386.0</ele><time>2026-04-12T10:53:40.887Z</time></trkpt><trkpt lat="42.6957419" lon="12.4569436"><ele>386.0</ele><time>2026-04-12T10:53:41.857Z</time></trkpt><trkpt lat="42.6958503" lon="12.4570835"><ele>386.0</ele><time>2026-04-12T10:53:42.873Z</time></trkpt><trkpt lat="42.695945" lon="12.4572162"><ele>385.75</ele><time>2026-04-12T10:53:43.872Z</time></trkpt><trkpt lat="42.6960408" lon="12.4573316"><ele>385.5</ele><time>2026-04-12T10:53:44.875Z</time></trkpt><trkpt lat="42.6961369" lon="12.4574347"><ele>385.25</ele><time>2026-04-12T10:53:45.874Z</time></trkpt><trkpt lat="42.6962408" lon="12.457542"><ele>385.0</ele><time>2026-04-12T10:53:46.881Z</time></trkpt><trkpt lat="42.6963573" lon="12.4576451"><ele>385.0</ele><time>2026-04-12T10:53:47.872Z</time></trkpt><trkpt lat="42.696462" lon="12.4577568"><ele>385.0</ele><time>2026-04-12T10:53:48.878Z</time></trkpt><trkpt lat="42.6965671" lon="12.4578737"><ele>385.0</ele><time>2026-04-12T10:53:49.871Z</time></trkpt><trkpt lat="42.6966713" lon="12.4579998"><ele>385.0</ele><time>2026-04-12T10:53:50.872Z</time></trkpt><trkpt lat="42.6967721" lon="12.4581269"><ele>385.0</ele><time>2026-04-12T10:53:51.876Z</time></trkpt><trkpt lat="42.6968724" lon="12.4582451"><ele>385.0</ele><time>2026-04-12T10:53:52.876Z</time></trkpt><trkpt lat="42.6969773" lon="12.4583577"><ele>385.0</ele><time>2026-04-12T10:53:53.873Z</time></trkpt><trkpt lat="42.6970923" lon="12.4584639"><ele>385.0</ele><time>2026-04-12T10:53:54.897Z</time></trkpt><trkpt lat="42.6972188" lon="12.4585554"><ele>385.0</ele><time>2026-04-12T10:53:55.883Z</time></trkpt><trkpt lat="42.6973402" lon="12.4586476"><ele>385.0</ele><time>2026-04-12T10:53:56.876Z</time></trkpt><trkpt lat="42.697443" lon="12.4587449"><ele>385.0</ele><time>2026-04-12T10:53:57.878Z</time></trkpt><trkpt lat="42.697532" lon="12.4588616"><ele>385.0</ele><time>2026-04-12T10:53:58.87Z</time></trkpt><trkpt lat="42.6976171" lon="12.458991"><ele>384.8</ele><time>2026-04-12T10:53:59.878Z</time></trkpt><trkpt lat="42.6976892" lon="12.4591085"><ele>384.6</ele><time>2026-04-12T10:54:00.876Z</time></trkpt><trkpt lat="42.6977486" lon="12.4592169"><ele>384.4</ele><time>2026-04-12T10:54:01.89Z</time></trkpt><trkpt lat="42.6977976" lon="12.4593129"><ele>384.2</ele><time>2026-04-12T10:54:02.882Z</time></trkpt><trkpt lat="42.6978298" lon="12.4594101"><ele>384.0</ele><time>2026-04-12T10:54:03.871Z</time></trkpt><trkpt lat="42.6978351" lon="12.4595597"><ele>385.6</ele><time>2026-04-12T10:54:05.876Z</time></trkpt><trkpt lat="42.6977354" lon="12.4596639"><ele>387.2</ele><time>2026-04-12T10:54:07.869Z</time></trkpt><trkpt lat="42.697662" lon="12.4597158"><ele>388.8</ele><time>2026-04-12T10:54:08.877Z</time></trkpt><trkpt lat="42.6975808" lon="12.4597736"><ele>390.40000000000003</ele><time>2026-04-12T10:54:09.871Z</time></trkpt><trkpt lat="42.6974943" lon="12.4598431"><ele>392.0</ele><time>2026-04-12T10:54:10.876Z</time></trkpt><trkpt lat="42.6974036" lon="12.4599146"><ele>392.0</ele><time>2026-04-12T10:54:11.872Z</time></trkpt><trkpt lat="42.697318" lon="12.4599891"><ele>392.0</ele><time>2026-04-12T10:54:12.877Z</time></trkpt><trkpt lat="42.6972295" lon="12.4600746"><ele>392.0</ele><time>2026-04-12T10:54:13.88Z</time></trkpt><trkpt lat="42.6971503" lon="12.4601581"><ele>392.0</ele><time>2026-04-12T10:54:14.868Z</time></trkpt><trkpt lat="42.6970766" lon="12.4602346"><ele>392.0</ele><time>2026-04-12T10:54:15.874Z</time></trkpt><trkpt lat="42.6970122" lon="12.4603072"><ele>392.0</ele><time>2026-04-12T10:54:16.877Z</time></trkpt><trkpt lat="42.6969471" lon="12.4603977"><ele>392.0</ele><time>2026-04-12T10:54:18.869Z</time></trkpt><trkpt lat="42.6968648" lon="12.4604907"><ele>392.0</ele><time>2026-04-12T10:55:05.871Z</time></trkpt><trkpt lat="42.6967934" lon="12.460594"><ele>392.0</ele><time>2026-04-12T10:55:07.886Z</time></trkpt><trkpt lat="42.6967406" lon="12.4606538"><ele>392.0</ele><time>2026-04-12T10:55:08.875Z</time></trkpt><trkpt lat="42.6966756" lon="12.4607279"><ele>391.0</ele><time>2026-04-12T10:55:09.877Z</time></trkpt><trkpt lat="42.6966091" lon="12.4608074"><ele>390.0</ele><time>2026-04-12T10:55:10.871Z</time></trkpt><trkpt lat="42.6965378" lon="12.4608996"><ele>389.0</ele><time>2026-04-12T10:55:11.869Z</time></trkpt><trkpt lat="42.6964535" lon="12.4609975"><ele>388.0</ele><time>2026-04-12T10:55:12.879Z</time></trkpt><trkpt lat="42.6963564" lon="12.4611039"><ele>387.0</ele><time>2026-04-12T10:55:13.882Z</time></trkpt><trkpt lat="42.6962477" lon="12.4612223"><ele>387.0</ele><time>2026-04-12T10:55:14.874Z</time></trkpt><trkpt lat="42.6961373" lon="12.4613421"><ele>387.0</ele><time>2026-04-12T10:55:15.882Z</time></trkpt><trkpt lat="42.6960193" lon="12.4614637"><ele>387.0</ele><time>2026-04-12T10:55:16.869Z</time></trkpt><trkpt lat="42.695901" lon="12.4615872"><ele>387.0</ele><time>2026-04-12T10:55:17.87Z</time></trkpt><trkpt lat="42.695778" lon="12.4617043"><ele>387.0</ele><time>2026-04-12T10:55:18.883Z</time></trkpt><trkpt lat="42.6956486" lon="12.4618026"><ele>387.0</ele><time>2026-04-12T10:55:19.893Z</time></trkpt><trkpt lat="42.695512" lon="12.4618996"><ele>387.0</ele><time>2026-04-12T10:55:20.881Z</time></trkpt><trkpt lat="42.6953747" lon="12.4619908"><ele>385.5</ele><time>2026-04-12T10:55:21.888Z</time></trkpt><trkpt lat="42.6952495" lon="12.4620772"><ele>384.0</ele><time>2026-04-12T10:55:22.881Z</time></trkpt><trkpt lat="42.6951398" lon="12.4621623"><ele>382.5</ele><time>2026-04-12T10:55:23.878Z</time></trkpt><trkpt lat="42.69504" lon="12.4622691"><ele>381.0</ele><time>2026-04-12T10:55:24.873Z</time></trkpt><trkpt lat="42.6949504" lon="12.4623923"><ele>384.25</ele><time>2026-04-12T10:55:25.876Z</time></trkpt><trkpt lat="42.6948649" lon="12.462514"><ele>387.5</ele><time>2026-04-12T10:55:26.87Z</time></trkpt><trkpt lat="42.6947833" lon="12.4626477"><ele>390.75</ele><time>2026-04-12T10:55:27.873Z</time></trkpt><trkpt lat="42.6946999" lon="12.4627787"><ele>394.0</ele><time>2026-04-12T10:55:28.877Z</time></trkpt><trkpt lat="42.694623" lon="12.4629155"><ele>395.0</ele><time>2026-04-12T10:55:29.876Z</time></trkpt><trkpt lat="42.6945612" lon="12.4630626"><ele>396.0</ele><time>2026-04-12T10:55:30.876Z</time></trkpt><trkpt lat="42.6945167" lon="12.4632216"><ele>397.0</ele><time>2026-04-12T10:55:31.88Z</time></trkpt><trkpt lat="42.694475" lon="12.4633909"><ele>398.0</ele><time>2026-04-12T10:55:32.873Z</time></trkpt><trkpt lat="42.6944345" lon="12.4635584"><ele>397.5</ele><time>2026-04-12T10:55:33.867Z</time></trkpt><trkpt lat="42.6943939" lon="12.4637226"><ele>397.0</ele><time>2026-04-12T10:55:34.879Z</time></trkpt><trkpt lat="42.69435" lon="12.4638787"><ele>396.5</ele><time>2026-04-12T10:55:35.883Z</time></trkpt><trkpt lat="42.6943003" lon="12.4640239"><ele>396.0</ele><time>2026-04-12T10:55:36.875Z</time></trkpt><trkpt lat="42.6942307" lon="12.4641566"><ele>394.75</ele><time>2026-04-12T10:55:37.874Z</time></trkpt><trkpt lat="42.6941411" lon="12.4642663"><ele>393.5</ele><time>2026-04-12T10:55:38.881Z</time></trkpt><trkpt lat="42.6940223" lon="12.4643611"><ele>392.25</ele><time>2026-04-12T10:55:39.881Z</time></trkpt><trkpt lat="42.6939012" lon="12.4644637"><ele>391.0</ele><time>2026-04-12T10:55:40.89Z</time></trkpt><trkpt lat="42.6937891" lon="12.4645621"><ele>390.0</ele><time>2026-04-12T10:55:41.879Z</time></trkpt><trkpt lat="42.6936778" lon="12.46466"><ele>389.0</ele><time>2026-04-12T10:55:42.877Z</time></trkpt><trkpt lat="42.693577" lon="12.4647606"><ele>388.0</ele><time>2026-04-12T10:55:43.886Z</time></trkpt><trkpt lat="42.6934849" lon="12.464886"><ele>387.0</ele><time>2026-04-12T10:55:44.877Z</time></trkpt><trkpt lat="42.6934178" lon="12.4650309"><ele>387.0</ele><time>2026-04-12T10:55:45.869Z</time></trkpt><trkpt lat="42.6933714" lon="12.4651791"><ele>387.0</ele><time>2026-04-12T10:55:46.877Z</time></trkpt><trkpt lat="42.6933465" lon="12.4653382"><ele>387.0</ele><time>2026-04-12T10:55:47.863Z</time></trkpt><trkpt lat="42.6933304" lon="12.4654898"><ele>387.0</ele><time>2026-04-12T10:55:48.89Z</time></trkpt><trkpt lat="42.6933218" lon="12.4656427"><ele>385.5</ele><time>2026-04-12T10:55:49.879Z</time></trkpt><trkpt lat="42.6933309" lon="12.4657959"><ele>384.0</ele><time>2026-04-12T10:55:50.874Z</time></trkpt><trkpt lat="42.6933581" lon="12.4659433"><ele>382.5</ele><time>2026-04-12T10:55:51.881Z</time></trkpt><trkpt lat="42.6934049" lon="12.4660914"><ele>381.0</ele><time>2026-04-12T10:55:52.874Z</time></trkpt><trkpt lat="42.6934567" lon="12.4662333"><ele>380.6</ele><time>2026-04-12T10:55:53.883Z</time></trkpt><trkpt lat="42.6935069" lon="12.4663693"><ele>380.20000000000005</ele><time>2026-04-12T10:55:54.883Z</time></trkpt><trkpt lat="42.6935398" lon="12.4665055"><ele>379.79999999999995</ele><time>2026-04-12T10:55:55.878Z</time></trkpt><trkpt lat="42.6935515" lon="12.46665"><ele>379.4</ele><time>2026-04-12T10:55:56.872Z</time></trkpt><trkpt lat="42.6935368" lon="12.4667889"><ele>379.0</ele><time>2026-04-12T10:55:57.879Z</time></trkpt><trkpt lat="42.6934993" lon="12.4669381"><ele>379.0</ele><time>2026-04-12T10:55:58.867Z</time></trkpt><trkpt lat="42.6934425" lon="12.4670926"><ele>379.0</ele><time>2026-04-12T10:55:59.874Z</time></trkpt><trkpt lat="42.6933748" lon="12.4672555"><ele>379.0</ele><time>2026-04-12T10:56:00.875Z</time></trkpt><trkpt lat="42.6933103" lon="12.4674162"><ele>379.0</ele><time>2026-04-12T10:56:01.867Z</time></trkpt><trkpt lat="42.6932486" lon="12.4675734"><ele>377.5</ele><time>2026-04-12T10:56:02.878Z</time></trkpt><trkpt lat="42.6931903" lon="12.4677268"><ele>376.0</ele><time>2026-04-12T10:56:03.886Z</time></trkpt><trkpt lat="42.6931377" lon="12.4678809"><ele>374.5</ele><time>2026-04-12T10:56:04.873Z</time></trkpt><trkpt lat="42.6930851" lon="12.4680375"><ele>373.0</ele><time>2026-04-12T10:56:05.885Z</time></trkpt><trkpt lat="42.693033" lon="12.4681904"><ele>372.2</ele><time>2026-04-12T10:56:06.87Z</time></trkpt><trkpt lat="42.6929762" lon="12.4683238"><ele>371.4</ele><time>2026-04-12T10:56:07.876Z</time></trkpt><trkpt lat="42.6929229" lon="12.4684318"><ele>370.59999999999997</ele><time>2026-04-12T10:56:08.87Z</time></trkpt><trkpt lat="42.6928782" lon="12.4685114"><ele>369.79999999999995</ele><time>2026-04-12T10:56:09.874Z</time></trkpt><trkpt lat="42.6928145" lon="12.4686168"><ele>369.0</ele><time>2026-04-12T10:56:11.87Z</time></trkpt><trkpt lat="42.6927984" lon="12.4687377"><ele>368.6</ele><time>2026-04-12T10:56:13.872Z</time></trkpt><trkpt lat="42.6928168" lon="12.4689083"><ele>368.2</ele><time>2026-04-12T10:56:15.865Z</time></trkpt><trkpt lat="42.6928259" lon="12.4690179"><ele>367.8</ele><time>2026-04-12T10:56:16.891Z</time></trkpt><trkpt lat="42.6928379" lon="12.4691344"><ele>367.40000000000003</ele><time>2026-04-12T10:56:17.88Z</time></trkpt><trkpt lat="42.6928525" lon="12.4692596"><ele>367.0</ele><time>2026-04-12T10:56:18.871Z</time></trkpt><trkpt lat="42.6928607" lon="12.469391"><ele>367.0</ele><time>2026-04-12T10:56:19.871Z</time></trkpt><trkpt lat="42.6928591" lon="12.4695185"><ele>367.0</ele><time>2026-04-12T10:56:20.869Z</time></trkpt><trkpt lat="42.6928493" lon="12.4696436"><ele>367.0</ele><time>2026-04-12T10:56:21.895Z</time></trkpt><trkpt lat="42.6928334" lon="12.4697645"><ele>367.0</ele><time>2026-04-12T10:56:22.874Z</time></trkpt><trkpt lat="42.6927995" lon="12.4698729"><ele>367.0</ele><time>2026-04-12T10:56:23.876Z</time></trkpt><trkpt lat="42.6927474" lon="12.4699673"><ele>366.3333333333333</ele><time>2026-04-12T10:56:24.887Z</time></trkpt><trkpt lat="42.6926841" lon="12.4700355"><ele>365.66666666666663</ele><time>2026-04-12T10:56:25.883Z</time></trkpt><trkpt lat="42.6926139" lon="12.4700925"><ele>365.0</ele><time>2026-04-12T10:56:26.866Z</time></trkpt><trkpt lat="42.6925353" lon="12.4701467"><ele>364.3333333333333</ele><time>2026-04-12T10:56:27.896Z</time></trkpt><trkpt lat="42.6924502" lon="12.4702173"><ele>363.6666666666667</ele><time>2026-04-12T10:56:28.87Z</time></trkpt><trkpt lat="42.692376" lon="12.4703043"><ele>363.0</ele><time>2026-04-12T10:56:29.877Z</time></trkpt><trkpt lat="42.6923056" lon="12.4704016"><ele>362.59999999999997</ele><time>2026-04-12T10:56:30.891Z</time></trkpt><trkpt lat="42.6922364" lon="12.4704971"><ele>362.2</ele><time>2026-04-12T10:56:31.876Z</time></trkpt><trkpt lat="42.6921679" lon="12.4705785"><ele>361.8</ele><time>2026-04-12T10:56:32.882Z</time></trkpt><trkpt lat="42.6920925" lon="12.4706578"><ele>361.4</ele><time>2026-04-12T10:56:33.873Z</time></trkpt><trkpt lat="42.6920262" lon="12.4707394"><ele>361.0</ele><time>2026-04-12T10:56:34.878Z</time></trkpt><trkpt lat="42.691968" lon="12.4708101"><ele>361.4</ele><time>2026-04-12T10:56:35.877Z</time></trkpt><trkpt lat="42.6918968" lon="12.4709281"><ele>361.8</ele><time>2026-04-12T10:56:37.879Z</time></trkpt><trkpt lat="42.6918836" lon="12.4710465"><ele>362.2</ele><time>2026-04-12T10:56:39.863Z</time></trkpt><trkpt lat="42.6919013" lon="12.4711531"><ele>362.59999999999997</ele><time>2026-04-12T10:56:41.869Z</time></trkpt><trkpt lat="42.6919676" lon="12.4712873"><ele>363.0</ele><time>2026-04-12T10:56:43.883Z</time></trkpt><trkpt lat="42.6920387" lon="12.4714116"><ele>362.99999999999994</ele><time>2026-04-12T10:56:45.873Z</time></trkpt><trkpt lat="42.6920767" lon="12.4714824"><ele>363.0</ele><time>2026-04-12T10:56:46.87Z</time></trkpt><trkpt lat="42.6921168" lon="12.4715553"><ele>363.0</ele><time>2026-04-12T10:56:47.882Z</time></trkpt><trkpt lat="42.6921677" lon="12.4716403"><ele>363.0</ele><time>2026-04-12T10:56:49.879Z</time></trkpt><trkpt lat="42.6922093" lon="12.4717266"><ele>363.0</ele><time>2026-04-12T10:57:04.872Z</time></trkpt><trkpt lat="42.6922278" lon="12.4718303"><ele>362.99999999999994</ele><time>2026-04-12T10:57:07.881Z</time></trkpt><trkpt lat="42.6922902" lon="12.4718573"><ele>363.0</ele><time>2026-04-12T10:57:12.88Z</time></trkpt><trkpt lat="42.6922536" lon="12.4717804"><ele>363.0</ele><time>2026-04-12T10:57:28.871Z</time></trkpt><trkpt lat="42.6922028" lon="12.4716765"><ele>363.0</ele><time>2026-04-12T10:57:30.877Z</time></trkpt><trkpt lat="42.6921251" lon="12.4715314"><ele>363.0</ele><time>2026-04-12T10:57:32.871Z</time></trkpt><trkpt lat="42.6920543" lon="12.4714061"><ele>363.0</ele><time>2026-04-12T10:57:34.872Z</time></trkpt><trkpt lat="42.6919971" lon="12.4713084"><ele>363.0</ele><time>2026-04-12T10:57:36.873Z</time></trkpt><trkpt lat="42.6919449" lon="12.4712487"><ele>364.6666666666667</ele><time>2026-04-12T10:57:45.879Z</time></trkpt><trkpt lat="42.6918714" lon="12.471285"><ele>366.3333333333333</ele><time>2026-04-12T10:57:48.879Z</time></trkpt><trkpt lat="42.6918278" lon="12.4714277"><ele>368.0</ele><time>2026-04-12T10:57:50.867Z</time></trkpt><trkpt lat="42.6917849" lon="12.4714959"><ele>369.66666666666663</ele><time>2026-04-12T10:57:51.875Z</time></trkpt><trkpt lat="42.6917285" lon="12.4715645"><ele>371.3333333333333</ele><time>2026-04-12T10:57:52.874Z</time></trkpt><trkpt lat="42.6916652" lon="12.4716241"><ele>373.0</ele><time>2026-04-12T10:57:53.87Z</time></trkpt><trkpt lat="42.6915991" lon="12.4716667"><ele>373.0</ele><time>2026-04-12T10:57:54.871Z</time></trkpt><trkpt lat="42.6915338" lon="12.4717009"><ele>373.0</ele><time>2026-04-12T10:57:55.874Z</time></trkpt><trkpt lat="42.6914706" lon="12.4717349"><ele>373.0</ele><time>2026-04-12T10:57:56.885Z</time></trkpt><trkpt lat="42.6914042" lon="12.4717769"><ele>373.0</ele><time>2026-04-12T10:57:57.882Z</time></trkpt><trkpt lat="42.6913339" lon="12.4718275"><ele>373.0</ele><time>2026-04-12T10:57:58.868Z</time></trkpt><trkpt lat="42.6912563" lon="12.4718895"><ele>373.0</ele><time>2026-04-12T10:57:59.874Z</time></trkpt><trkpt lat="42.6911746" lon="12.4719589"><ele>373.79999999999995</ele><time>2026-04-12T10:58:00.886Z</time></trkpt><trkpt lat="42.6910902" lon="12.4720326"><ele>374.6</ele><time>2026-04-12T10:58:01.865Z</time></trkpt><trkpt lat="42.6910008" lon="12.4721146"><ele>375.4</ele><time>2026-04-12T10:58:02.869Z</time></trkpt><trkpt lat="42.6909093" lon="12.4722048"><ele>376.20000000000005</ele><time>2026-04-12T10:58:03.876Z</time></trkpt><trkpt lat="42.690815" lon="12.472288"><ele>377.0</ele><time>2026-04-12T10:58:04.872Z</time></trkpt><trkpt lat="42.690722" lon="12.472357"><ele>378.0</ele><time>2026-04-12T10:58:05.876Z</time></trkpt><trkpt lat="42.6906251" lon="12.4724152"><ele>379.0</ele><time>2026-04-12T10:58:06.878Z</time></trkpt><trkpt lat="42.6905306" lon="12.4724624"><ele>380.0</ele><time>2026-04-12T10:58:07.878Z</time></trkpt><trkpt lat="42.6904349" lon="12.4725078"><ele>381.0</ele><time>2026-04-12T10:58:08.883Z</time></trkpt><trkpt lat="42.690332" lon="12.4725546"><ele>382.0</ele><time>2026-04-12T10:58:09.873Z</time></trkpt><trkpt lat="42.6902315" lon="12.4725985"><ele>383.20000000000005</ele><time>2026-04-12T10:58:10.876Z</time></trkpt><trkpt lat="42.6901274" lon="12.4726428"><ele>384.4</ele><time>2026-04-12T10:58:11.881Z</time></trkpt><trkpt lat="42.6900223" lon="12.4726922"><ele>385.6</ele><time>2026-04-12T10:58:12.88Z</time></trkpt><trkpt lat="42.6899184" lon="12.4727447"><ele>386.79999999999995</ele><time>2026-04-12T10:58:13.879Z</time></trkpt><trkpt lat="42.6898234" lon="12.4727742"><ele>388.0</ele><time>2026-04-12T10:58:14.875Z</time></trkpt><trkpt lat="42.6897327" lon="12.4727727"><ele>388.0</ele><time>2026-04-12T10:58:15.883Z</time></trkpt><trkpt lat="42.6896409" lon="12.4727515"><ele>388.0</ele><time>2026-04-12T10:58:16.875Z</time></trkpt><trkpt lat="42.6895446" lon="12.4727346"><ele>388.0</ele><time>2026-04-12T10:58:17.878Z</time></trkpt><trkpt lat="42.6894382" lon="12.4727411"><ele>388.0</ele><time>2026-04-12T10:58:18.878Z</time></trkpt><trkpt lat="42.6893466" lon="12.4727782"><ele>388.0</ele><time>2026-04-12T10:58:19.899Z</time></trkpt><trkpt lat="42.6892552" lon="12.4728364"><ele>389.0</ele><time>2026-04-12T10:58:20.869Z</time></trkpt><trkpt lat="42.6891753" lon="12.472917"><ele>390.0</ele><time>2026-04-12T10:58:21.883Z</time></trkpt><trkpt lat="42.6890952" lon="12.4730157"><ele>391.0</ele><time>2026-04-12T10:58:22.876Z</time></trkpt><trkpt lat="42.6890271" lon="12.4731107"><ele>392.0</ele><time>2026-04-12T10:58:23.876Z</time></trkpt><trkpt lat="42.6889765" lon="12.4732204"><ele>393.0</ele><time>2026-04-12T10:58:24.875Z</time></trkpt><trkpt lat="42.6889369" lon="12.473345"><ele>394.0</ele><time>2026-04-12T10:58:25.878Z</time></trkpt><trkpt lat="42.6888912" lon="12.4734704"><ele>395.0</ele><time>2026-04-12T10:58:26.875Z</time></trkpt><trkpt lat="42.6888383" lon="12.4735938"><ele>396.0</ele><time>2026-04-12T10:58:27.885Z</time></trkpt><trkpt lat="42.6887868" lon="12.4737367"><ele>397.0</ele><time>2026-04-12T10:58:28.882Z</time></trkpt><trkpt lat="42.6887509" lon="12.4738906"><ele>398.0</ele><time>2026-04-12T10:58:29.87Z</time></trkpt><trkpt lat="42.6887223" lon="12.4740372"><ele>397.4</ele><time>2026-04-12T10:58:30.878Z</time></trkpt><trkpt lat="42.6886936" lon="12.4741709"><ele>396.79999999999995</ele><time>2026-04-12T10:58:31.875Z</time></trkpt><trkpt lat="42.6886619" lon="12.4742899"><ele>396.2</ele><time>2026-04-12T10:58:32.872Z</time></trkpt><trkpt lat="42.688612" lon="12.4743883"><ele>395.6</ele><time>2026-04-12T10:58:33.87Z</time></trkpt><trkpt lat="42.688536" lon="12.4744615"><ele>395.0</ele><time>2026-04-12T10:58:34.872Z</time></trkpt><trkpt lat="42.6884428" lon="12.474539"><ele>395.0</ele><time>2026-04-12T10:58:35.883Z</time></trkpt><trkpt lat="42.6883416" lon="12.4746022"><ele>395.0</ele><time>2026-04-12T10:58:36.868Z</time></trkpt><trkpt lat="42.6882426" lon="12.4746739"><ele>395.0</ele><time>2026-04-12T10:58:37.875Z</time></trkpt><trkpt lat="42.6881579" lon="12.4747523"><ele>395.0</ele><time>2026-04-12T10:58:38.874Z</time></trkpt><trkpt lat="42.6880916" lon="12.4748533"><ele>395.0</ele><time>2026-04-12T10:58:39.891Z</time></trkpt><trkpt lat="42.6880513" lon="12.4749638"><ele>395.0</ele><time>2026-04-12T10:58:40.891Z</time></trkpt><trkpt lat="42.6880326" lon="12.475064"><ele>395.0</ele><time>2026-04-12T10:58:41.89Z</time></trkpt><trkpt lat="42.6880378" lon="12.475171"><ele>395.0</ele><time>2026-04-12T10:58:42.875Z</time></trkpt><trkpt lat="42.688058" lon="12.4753047"><ele>395.0</ele><time>2026-04-12T10:58:43.884Z</time></trkpt><trkpt lat="42.6881005" lon="12.4754478"><ele>395.0</ele><time>2026-04-12T10:58:44.879Z</time></trkpt><trkpt lat="42.6881579" lon="12.4755825"><ele>394.6</ele><time>2026-04-12T10:58:45.883Z</time></trkpt><trkpt lat="42.6882274" lon="12.4756963"><ele>394.2</ele><time>2026-04-12T10:58:46.877Z</time></trkpt><trkpt lat="42.6883051" lon="12.4757955"><ele>393.79999999999995</ele><time>2026-04-12T10:58:47.879Z</time></trkpt><trkpt lat="42.6883812" lon="12.4758764"><ele>393.4</ele><time>2026-04-12T10:58:48.881Z</time></trkpt><trkpt lat="42.6884496" lon="12.4759527"><ele>393.0</ele><time>2026-04-12T10:58:49.875Z</time></trkpt><trkpt lat="42.6885094" lon="12.476024"><ele>393.0</ele><time>2026-04-12T10:58:50.874Z</time></trkpt><trkpt lat="42.688537" lon="12.4761049"><ele>393.0</ele><time>2026-04-12T10:58:51.875Z</time></trkpt><trkpt lat="42.6885378" lon="12.4761996"><ele>393.0</ele><time>2026-04-12T10:58:52.878Z</time></trkpt><trkpt lat="42.6885202" lon="12.4763176"><ele>393.0</ele><time>2026-04-12T10:58:53.877Z</time></trkpt><trkpt lat="42.6884848" lon="12.4764456"><ele>393.0</ele><time>2026-04-12T10:58:54.874Z</time></trkpt><trkpt lat="42.6884493" lon="12.4765982"><ele>393.0</ele><time>2026-04-12T10:58:55.869Z</time></trkpt><trkpt lat="42.6884188" lon="12.4767676"><ele>392.5</ele><time>2026-04-12T10:58:56.884Z</time></trkpt><trkpt lat="42.6883885" lon="12.4769305"><ele>392.0</ele><time>2026-04-12T10:58:57.866Z</time></trkpt><trkpt lat="42.6883722" lon="12.4770799"><ele>391.5</ele><time>2026-04-12T10:58:58.876Z</time></trkpt><trkpt lat="42.6883677" lon="12.4772308"><ele>391.0</ele><time>2026-04-12T10:58:59.872Z</time></trkpt><trkpt lat="42.6883681" lon="12.4773945"><ele>389.75</ele><time>2026-04-12T10:59:00.874Z</time></trkpt><trkpt lat="42.6883738" lon="12.4775713"><ele>388.5</ele><time>2026-04-12T10:59:01.871Z</time></trkpt><trkpt lat="42.6883825" lon="12.477751"><ele>387.25</ele><time>2026-04-12T10:59:02.889Z</time></trkpt><trkpt lat="42.6883937" lon="12.4779221"><ele>386.0</ele><time>2026-04-12T10:59:03.871Z</time></trkpt><trkpt lat="42.6884195" lon="12.4780866"><ele>384.25</ele><time>2026-04-12T10:59:04.87Z</time></trkpt><trkpt lat="42.6884548" lon="12.4782585"><ele>382.5</ele><time>2026-04-12T10:59:05.883Z</time></trkpt><trkpt lat="42.6884791" lon="12.4784299"><ele>380.75</ele><time>2026-04-12T10:59:06.864Z</time></trkpt><trkpt lat="42.6884957" lon="12.4785915"><ele>379.0</ele><time>2026-04-12T10:59:07.882Z</time></trkpt><trkpt lat="42.688512" lon="12.4787467"><ele>378.4</ele><time>2026-04-12T10:59:08.872Z</time></trkpt><trkpt lat="42.6885277" lon="12.4788984"><ele>377.79999999999995</ele><time>2026-04-12T10:59:09.89Z</time></trkpt><trkpt lat="42.6885388" lon="12.4790382"><ele>377.20000000000005</ele><time>2026-04-12T10:59:10.869Z</time></trkpt><trkpt lat="42.6885461" lon="12.4791684"><ele>376.6</ele><time>2026-04-12T10:59:11.873Z</time></trkpt><trkpt lat="42.6885531" lon="12.4792906"><ele>376.0</ele><time>2026-04-12T10:59:12.875Z</time></trkpt><trkpt lat="42.6885575" lon="12.4794119"><ele>376.0</ele><time>2026-04-12T10:59:13.865Z</time></trkpt><trkpt lat="42.6885604" lon="12.4795313"><ele>376.0</ele><time>2026-04-12T10:59:14.872Z</time></trkpt><trkpt lat="42.6885657" lon="12.4796608"><ele>376.0</ele><time>2026-04-12T10:59:15.884Z</time></trkpt><trkpt lat="42.6885736" lon="12.4798004"><ele>376.0</ele><time>2026-04-12T10:59:16.883Z</time></trkpt><trkpt lat="42.6885818" lon="12.4799549"><ele>376.0</ele><time>2026-04-12T10:59:17.883Z</time></trkpt><trkpt lat="42.6885814" lon="12.4801131"><ele>375.75</ele><time>2026-04-12T10:59:18.873Z</time></trkpt><trkpt lat="42.6885794" lon="12.4802731"><ele>375.5</ele><time>2026-04-12T10:59:19.877Z</time></trkpt><trkpt lat="42.6885719" lon="12.4804367"><ele>375.25</ele><time>2026-04-12T10:59:20.884Z</time></trkpt><trkpt lat="42.6885607" lon="12.4806114"><ele>375.0</ele><time>2026-04-12T10:59:21.872Z</time></trkpt><trkpt lat="42.6885437" lon="12.4807828"><ele>375.0</ele><time>2026-04-12T10:59:22.876Z</time></trkpt><trkpt lat="42.6885332" lon="12.4809521"><ele>375.0</ele><time>2026-04-12T10:59:23.88Z</time></trkpt><trkpt lat="42.688521" lon="12.4811281"><ele>375.0</ele><time>2026-04-12T10:59:24.875Z</time></trkpt><trkpt lat="42.6885081" lon="12.4813136"><ele>375.0</ele><time>2026-04-12T10:59:25.872Z</time></trkpt><trkpt lat="42.6884899" lon="12.4815052"><ele>375.0</ele><time>2026-04-12T10:59:26.874Z</time></trkpt><trkpt lat="42.6884758" lon="12.4816869"><ele>375.0</ele><time>2026-04-12T10:59:27.892Z</time></trkpt><trkpt lat="42.6884582" lon="12.4818685"><ele>375.0</ele><time>2026-04-12T10:59:28.871Z</time></trkpt><trkpt lat="42.688443" lon="12.4820503"><ele>375.0</ele><time>2026-04-12T10:59:29.87Z</time></trkpt><trkpt lat="42.688428" lon="12.4822336"><ele>375.5</ele><time>2026-04-12T10:59:30.874Z</time></trkpt><trkpt lat="42.6884078" lon="12.482409"><ele>376.0</ele><time>2026-04-12T10:59:31.867Z</time></trkpt><trkpt lat="42.6883863" lon="12.4825906"><ele>376.5</ele><time>2026-04-12T10:59:32.87Z</time></trkpt><trkpt lat="42.6883597" lon="12.4827655"><ele>377.0</ele><time>2026-04-12T10:59:33.881Z</time></trkpt><trkpt lat="42.6883367" lon="12.4829428"><ele>377.75</ele><time>2026-04-12T10:59:34.876Z</time></trkpt><trkpt lat="42.6883094" lon="12.4831223"><ele>378.5</ele><time>2026-04-12T10:59:35.871Z</time></trkpt><trkpt lat="42.6882773" lon="12.4832909"><ele>379.25</ele><time>2026-04-12T10:59:36.871Z</time></trkpt><trkpt lat="42.6882463" lon="12.4834623"><ele>380.0</ele><time>2026-04-12T10:59:37.872Z</time></trkpt><trkpt lat="42.6882119" lon="12.4836333"><ele>379.5</ele><time>2026-04-12T10:59:38.873Z</time></trkpt><trkpt lat="42.6881795" lon="12.4837883"><ele>379.0</ele><time>2026-04-12T10:59:39.886Z</time></trkpt><trkpt lat="42.6881554" lon="12.483941"><ele>378.5</ele><time>2026-04-12T10:59:40.883Z</time></trkpt><trkpt lat="42.6881315" lon="12.484092"><ele>378.0</ele><time>2026-04-12T10:59:41.89Z</time></trkpt><trkpt lat="42.6881103" lon="12.4842355"><ele>378.0</ele><time>2026-04-12T10:59:42.872Z</time></trkpt><trkpt lat="42.6880902" lon="12.4843771"><ele>378.0</ele><time>2026-04-12T10:59:43.875Z</time></trkpt><trkpt lat="42.6880696" lon="12.4845107"><ele>378.0</ele><time>2026-04-12T10:59:44.875Z</time></trkpt><trkpt lat="42.6880518" lon="12.4846325"><ele>378.0</ele><time>2026-04-12T10:59:45.874Z</time></trkpt><trkpt lat="42.6880422" lon="12.4847431"><ele>378.0</ele><time>2026-04-12T10:59:46.878Z</time></trkpt><trkpt lat="42.6880448" lon="12.4848424"><ele>377.1666666666667</ele><time>2026-04-12T10:59:47.885Z</time></trkpt><trkpt lat="42.6880578" lon="12.4849936"><ele>376.3333333333333</ele><time>2026-04-12T10:59:49.879Z</time></trkpt><trkpt lat="42.6880883" lon="12.4850901"><ele>375.5</ele><time>2026-04-12T10:59:52.888Z</time></trkpt><trkpt lat="42.6881672" lon="12.4850876"><ele>374.66666666666663</ele><time>2026-04-12T10:59:54.876Z</time></trkpt><trkpt lat="42.6882305" lon="12.4850528"><ele>373.8333333333333</ele><time>2026-04-12T10:59:55.873Z</time></trkpt><trkpt lat="42.6883083" lon="12.4850063"><ele>373.0</ele><time>2026-04-12T10:59:56.867Z</time></trkpt><trkpt lat="42.6883958" lon="12.4849469"><ele>373.0</ele><time>2026-04-12T10:59:57.877Z</time></trkpt><trkpt lat="42.688491" lon="12.4848733"><ele>373.0</ele><time>2026-04-12T10:59:58.877Z</time></trkpt><trkpt lat="42.6886008" lon="12.484791"><ele>373.0</ele><time>2026-04-12T10:59:59.891Z</time></trkpt><trkpt lat="42.6887176" lon="12.4847046"><ele>373.0</ele><time>2026-04-12T11:00:00.874Z</time></trkpt><trkpt lat="42.6888419" lon="12.4846118"><ele>373.0</ele><time>2026-04-12T11:00:01.881Z</time></trkpt><trkpt lat="42.6889694" lon="12.4845216"><ele>373.0</ele><time>2026-04-12T11:00:02.872Z</time></trkpt><trkpt lat="42.6890958" lon="12.4844446"><ele>373.0</ele><time>2026-04-12T11:00:03.886Z</time></trkpt><trkpt lat="42.6892142" lon="12.4843831"><ele>373.0</ele><time>2026-04-12T11:00:04.876Z</time></trkpt><trkpt lat="42.6893416" lon="12.4843488"><ele>371.75</ele><time>2026-04-12T11:00:05.87Z</time></trkpt><trkpt lat="42.6894636" lon="12.4843451"><ele>370.5</ele><time>2026-04-12T11:00:06.876Z</time></trkpt><trkpt lat="42.6895811" lon="12.4843576"><ele>369.25</ele><time>2026-04-12T11:00:07.88Z</time></trkpt><trkpt lat="42.6897029" lon="12.4843851"><ele>368.0</ele><time>2026-04-12T11:00:08.887Z</time></trkpt><trkpt lat="42.689822" lon="12.4844099"><ele>368.0</ele><time>2026-04-12T11:00:09.889Z</time></trkpt><trkpt lat="42.6899512" lon="12.4844547"><ele>368.0</ele><time>2026-04-12T11:00:10.877Z</time></trkpt><trkpt lat="42.6900898" lon="12.484504"><ele>368.0</ele><time>2026-04-12T11:00:11.874Z</time></trkpt><trkpt lat="42.6902417" lon="12.4845523"><ele>368.0</ele><time>2026-04-12T11:00:12.876Z</time></trkpt><trkpt lat="42.6903991" lon="12.4846068"><ele>365.5</ele><time>2026-04-12T11:00:13.875Z</time></trkpt><trkpt lat="42.6905491" lon="12.4846662"><ele>363.0</ele><time>2026-04-12T11:00:14.883Z</time></trkpt><trkpt lat="42.6906913" lon="12.484737"><ele>360.5</ele><time>2026-04-12T11:00:15.864Z</time></trkpt><trkpt lat="42.6908216" lon="12.4848114"><ele>358.0</ele><time>2026-04-12T11:00:16.879Z</time></trkpt><trkpt lat="42.6909513" lon="12.4849012"><ele>358.0</ele><time>2026-04-12T11:00:17.88Z</time></trkpt><trkpt lat="42.6910831" lon="12.4850003"><ele>358.0</ele><time>2026-04-12T11:00:18.867Z</time></trkpt><trkpt lat="42.691217" lon="12.4851013"><ele>358.0</ele><time>2026-04-12T11:00:19.882Z</time></trkpt><trkpt lat="42.6913536" lon="12.4852043"><ele>358.0</ele><time>2026-04-12T11:00:20.872Z</time></trkpt><trkpt lat="42.691489" lon="12.4853052"><ele>358.0</ele><time>2026-04-12T11:00:21.883Z</time></trkpt><trkpt lat="42.6916254" lon="12.4854013"><ele>358.0</ele><time>2026-04-12T11:00:22.873Z</time></trkpt><trkpt lat="42.6917604" lon="12.4854931"><ele>358.0</ele><time>2026-04-12T11:00:23.873Z</time></trkpt><trkpt lat="42.6918942" lon="12.485577"><ele>358.0</ele><time>2026-04-12T11:00:24.879Z</time></trkpt><trkpt lat="42.6920247" lon="12.4856486"><ele>358.0</ele><time>2026-04-12T11:00:25.879Z</time></trkpt><trkpt lat="42.6921554" lon="12.4857033"><ele>358.0</ele><time>2026-04-12T11:00:26.872Z</time></trkpt><trkpt lat="42.6922904" lon="12.4857442"><ele>357.5</ele><time>2026-04-12T11:00:27.884Z</time></trkpt><trkpt lat="42.6924321" lon="12.48578"><ele>357.0</ele><time>2026-04-12T11:00:28.867Z</time></trkpt><trkpt lat="42.6925793" lon="12.4857933"><ele>356.5</ele><time>2026-04-12T11:00:29.891Z</time></trkpt><trkpt lat="42.6927312" lon="12.4857731"><ele>356.0</ele><time>2026-04-12T11:00:30.876Z</time></trkpt><trkpt lat="42.6928754" lon="12.485723"><ele>356.0</ele><time>2026-04-12T11:00:31.876Z</time></trkpt><trkpt lat="42.6930296" lon="12.4856638"><ele>356.0</ele><time>2026-04-12T11:00:32.878Z</time></trkpt><trkpt lat="42.6931785" lon="12.4856163"><ele>356.0</ele><time>2026-04-12T11:00:33.884Z</time></trkpt><trkpt lat="42.6933434" lon="12.4855788"><ele>356.0</ele><time>2026-04-12T11:00:34.883Z</time></trkpt><trkpt lat="42.6935034" lon="12.4855587"><ele>356.0</ele><time>2026-04-12T11:00:35.882Z</time></trkpt><trkpt lat="42.6936683" lon="12.4855531"><ele>356.0</ele><time>2026-04-12T11:00:36.872Z</time></trkpt><trkpt lat="42.6938261" lon="12.4855495"><ele>354.75</ele><time>2026-04-12T11:00:37.868Z</time></trkpt><trkpt lat="42.6939804" lon="12.4855427"><ele>353.5</ele><time>2026-04-12T11:00:38.874Z</time></trkpt><trkpt lat="42.6941169" lon="12.4855488"><ele>352.25</ele><time>2026-04-12T11:00:39.871Z</time></trkpt><trkpt lat="42.6942347" lon="12.4855613"><ele>351.0</ele><time>2026-04-12T11:00:40.907Z</time></trkpt><trkpt lat="42.69433" lon="12.4855732"><ele>351.0</ele><time>2026-04-12T11:00:41.886Z</time></trkpt><trkpt lat="42.6944118" lon="12.4855821"><ele>351.0</ele><time>2026-04-12T11:00:42.863Z</time></trkpt><trkpt lat="42.6944915" lon="12.4855764"><ele>351.0</ele><time>2026-04-12T11:00:43.883Z</time></trkpt><trkpt lat="42.6945585" lon="12.4855616"><ele>351.0</ele><time>2026-04-12T11:00:44.877Z</time></trkpt><trkpt lat="42.6946625" lon="12.4855354"><ele>351.0</ele><time>2026-04-12T11:00:46.878Z</time></trkpt><trkpt lat="42.6947258" lon="12.4855191"><ele>351.0</ele><time>2026-04-12T11:00:47.879Z</time></trkpt><trkpt lat="42.6948017" lon="12.4855121"><ele>349.6</ele><time>2026-04-12T11:00:48.883Z</time></trkpt><trkpt lat="42.6948926" lon="12.485503"><ele>348.20000000000005</ele><time>2026-04-12T11:00:49.875Z</time></trkpt><trkpt lat="42.6949965" lon="12.4854882"><ele>346.79999999999995</ele><time>2026-04-12T11:00:50.879Z</time></trkpt><trkpt lat="42.6951084" lon="12.4854671"><ele>345.4</ele><time>2026-04-12T11:00:51.883Z</time></trkpt><trkpt lat="42.6952283" lon="12.4854449"><ele>344.0</ele><time>2026-04-12T11:00:52.868Z</time></trkpt><trkpt lat="42.6953482" lon="12.4854209"><ele>341.25</ele><time>2026-04-12T11:00:53.878Z</time></trkpt><trkpt lat="42.6954678" lon="12.4853958"><ele>338.5</ele><time>2026-04-12T11:00:54.877Z</time></trkpt><trkpt lat="42.6955843" lon="12.4853691"><ele>335.75</ele><time>2026-04-12T11:00:55.878Z</time></trkpt><trkpt lat="42.6956996" lon="12.4853338"><ele>333.0</ele><time>2026-04-12T11:00:56.879Z</time></trkpt><trkpt lat="42.6958126" lon="12.485297"><ele>333.0</ele><time>2026-04-12T11:00:57.895Z</time></trkpt><trkpt lat="42.6959317" lon="12.4852557"><ele>333.0</ele><time>2026-04-12T11:00:58.871Z</time></trkpt><trkpt lat="42.6960473" lon="12.4852102"><ele>333.0</ele><time>2026-04-12T11:00:59.874Z</time></trkpt><trkpt lat="42.6961744" lon="12.4851707"><ele>333.0</ele><time>2026-04-12T11:01:00.884Z</time></trkpt><trkpt lat="42.6962919" lon="12.4851267"><ele>331.79999999999995</ele><time>2026-04-12T11:01:01.868Z</time></trkpt><trkpt lat="42.696406" lon="12.4850771"><ele>330.6</ele><time>2026-04-12T11:01:02.876Z</time></trkpt><trkpt lat="42.6965043" lon="12.4850341"><ele>329.4</ele><time>2026-04-12T11:01:03.873Z</time></trkpt><trkpt lat="42.6965857" lon="12.4850026"><ele>328.20000000000005</ele><time>2026-04-12T11:01:04.868Z</time></trkpt><trkpt lat="42.6966522" lon="12.4849834"><ele>327.0</ele><time>2026-04-12T11:01:05.874Z</time></trkpt><trkpt lat="42.6967663" lon="12.4850044"><ele>327.0</ele><time>2026-04-12T11:01:07.873Z</time></trkpt><trkpt lat="42.6968185" lon="12.4851507"><ele>327.0</ele><time>2026-04-12T11:01:09.87Z</time></trkpt><trkpt lat="42.6968116" lon="12.4852562"><ele>327.0</ele><time>2026-04-12T11:01:10.877Z</time></trkpt><trkpt lat="42.6967853" lon="12.4853815"><ele>327.0</ele><time>2026-04-12T11:01:11.876Z</time></trkpt><trkpt lat="42.6967376" lon="12.485529"><ele>327.0</ele><time>2026-04-12T11:01:12.868Z</time></trkpt><trkpt lat="42.6966808" lon="12.485697"><ele>326.0</ele><time>2026-04-12T11:01:13.881Z</time></trkpt><trkpt lat="42.6966292" lon="12.4858738"><ele>325.0</ele><time>2026-04-12T11:01:14.878Z</time></trkpt><trkpt lat="42.6965737" lon="12.4860677"><ele>324.0</ele><time>2026-04-12T11:01:15.878Z</time></trkpt><trkpt lat="42.6965247" lon="12.4862573"><ele>323.0</ele><time>2026-04-12T11:01:16.869Z</time></trkpt><trkpt lat="42.6964798" lon="12.4864489"><ele>321.75</ele><time>2026-04-12T11:01:17.877Z</time></trkpt><trkpt lat="42.6964381" lon="12.4866414"><ele>320.5</ele><time>2026-04-12T11:01:18.872Z</time></trkpt><trkpt lat="42.6964" lon="12.4868296"><ele>319.25</ele><time>2026-04-12T11:01:19.871Z</time></trkpt><trkpt lat="42.6963595" lon="12.4870091"><ele>318.0</ele><time>2026-04-12T11:01:20.876Z</time></trkpt><trkpt lat="42.6963193" lon="12.4871861"><ele>317.5</ele><time>2026-04-12T11:01:21.872Z</time></trkpt><trkpt lat="42.6962825" lon="12.4873557"><ele>317.0</ele><time>2026-04-12T11:01:22.878Z</time></trkpt><trkpt lat="42.6962509" lon="12.4875156"><ele>316.5</ele><time>2026-04-12T11:01:23.87Z</time></trkpt><trkpt lat="42.6962263" lon="12.4876625"><ele>316.0</ele><time>2026-04-12T11:01:24.873Z</time></trkpt><trkpt lat="42.696201" lon="12.4877924"><ele>316.0</ele><time>2026-04-12T11:01:25.884Z</time></trkpt><trkpt lat="42.6961833" lon="12.4879058"><ele>316.0</ele><time>2026-04-12T11:01:26.873Z</time></trkpt><trkpt lat="42.6961809" lon="12.4880115"><ele>316.0</ele><time>2026-04-12T11:01:27.877Z</time></trkpt><trkpt lat="42.6961969" lon="12.488105"><ele>316.0</ele><time>2026-04-12T11:01:28.875Z</time></trkpt><trkpt lat="42.6962181" lon="12.4881898"><ele>316.0</ele><time>2026-04-12T11:01:29.871Z</time></trkpt><trkpt lat="42.6962459" lon="12.4882798"><ele>316.0</ele><time>2026-04-12T11:01:30.873Z</time></trkpt><trkpt lat="42.6962932" lon="12.4883933"><ele>316.0</ele><time>2026-04-12T11:01:31.878Z</time></trkpt><trkpt lat="42.696354" lon="12.4885176"><ele>316.0</ele><time>2026-04-12T11:01:32.872Z</time></trkpt><trkpt lat="42.6964199" lon="12.4886646"><ele>316.0</ele><time>2026-04-12T11:01:33.874Z</time></trkpt><trkpt lat="42.6964903" lon="12.4888289"><ele>316.0</ele><time>2026-04-12T11:01:34.879Z</time></trkpt><trkpt lat="42.6965685" lon="12.4890004"><ele>315.66666666666663</ele><time>2026-04-12T11:01:35.872Z</time></trkpt><trkpt lat="42.6966538" lon="12.4891796"><ele>315.3333333333333</ele><time>2026-04-12T11:01:36.867Z</time></trkpt><trkpt lat="42.6967482" lon="12.4893687"><ele>315.0</ele><time>2026-04-12T11:01:37.868Z</time></trkpt><trkpt lat="42.6968481" lon="12.4895648"><ele>315.0</ele><time>2026-04-12T11:01:38.873Z</time></trkpt><trkpt lat="42.6969474" lon="12.489765"><ele>315.0</ele><time>2026-04-12T11:01:39.886Z</time></trkpt><trkpt lat="42.6970553" lon="12.4899634"><ele>315.0</ele><time>2026-04-12T11:01:40.879Z</time></trkpt><trkpt lat="42.6971698" lon="12.4901652"><ele>315.0</ele><time>2026-04-12T11:01:41.877Z</time></trkpt><trkpt lat="42.6972884" lon="12.4903623"><ele>315.0</ele><time>2026-04-12T11:01:42.86Z</time></trkpt><trkpt lat="42.6974143" lon="12.4905577"><ele>315.0</ele><time>2026-04-12T11:01:43.88Z</time></trkpt><trkpt lat="42.6975425" lon="12.4907558"><ele>315.3333333333333</ele><time>2026-04-12T11:01:44.88Z</time></trkpt><trkpt lat="42.6976619" lon="12.4909355"><ele>315.66666666666663</ele><time>2026-04-12T11:01:45.879Z</time></trkpt><trkpt lat="42.697782" lon="12.4911031"><ele>316.0</ele><time>2026-04-12T11:01:46.874Z</time></trkpt><trkpt lat="42.6979072" lon="12.4912519"><ele>316.0</ele><time>2026-04-12T11:01:47.881Z</time></trkpt><trkpt lat="42.6980433" lon="12.4913935"><ele>316.0</ele><time>2026-04-12T11:01:48.869Z</time></trkpt><trkpt lat="42.6981835" lon="12.4915283"><ele>316.0</ele><time>2026-04-12T11:01:49.884Z</time></trkpt><trkpt lat="42.6983216" lon="12.4916629"><ele>316.0</ele><time>2026-04-12T11:01:50.871Z</time></trkpt><trkpt lat="42.6984623" lon="12.491796"><ele>316.0</ele><time>2026-04-12T11:01:51.863Z</time></trkpt><trkpt lat="42.6985988" lon="12.4919276"><ele>316.0</ele><time>2026-04-12T11:01:52.878Z</time></trkpt><trkpt lat="42.6987288" lon="12.4920639"><ele>317.66666666666663</ele><time>2026-04-12T11:01:53.873Z</time></trkpt><trkpt lat="42.6988535" lon="12.4921968"><ele>319.3333333333333</ele><time>2026-04-12T11:01:54.866Z</time></trkpt><trkpt lat="42.6989817" lon="12.4923082"><ele>321.0</ele><time>2026-04-12T11:01:55.865Z</time></trkpt><trkpt lat="42.6991299" lon="12.4923796"><ele>321.0</ele><time>2026-04-12T11:01:56.873Z</time></trkpt><trkpt lat="42.6992879" lon="12.4924162"><ele>321.0</ele><time>2026-04-12T11:01:57.871Z</time></trkpt><trkpt lat="42.6994525" lon="12.4924131"><ele>321.0</ele><time>2026-04-12T11:01:58.864Z</time></trkpt><trkpt lat="42.699616" lon="12.4923788"><ele>323.6666666666667</ele><time>2026-04-12T11:01:59.896Z</time></trkpt><trkpt lat="42.6997855" lon="12.4923368"><ele>326.33333333333337</ele><time>2026-04-12T11:02:00.871Z</time></trkpt><trkpt lat="42.6999525" lon="12.4922882"><ele>329.0</ele><time>2026-04-12T11:02:01.864Z</time></trkpt><trkpt lat="42.7001179" lon="12.4922494"><ele>332.6666666666667</ele><time>2026-04-12T11:02:02.872Z</time></trkpt><trkpt lat="42.7002738" lon="12.4922136"><ele>336.3333333333333</ele><time>2026-04-12T11:02:03.871Z</time></trkpt><trkpt lat="42.7004284" lon="12.4921796"><ele>340.0</ele><time>2026-04-12T11:02:04.867Z</time></trkpt><trkpt lat="42.7005858" lon="12.4921478"><ele>340.0</ele><time>2026-04-12T11:02:05.873Z</time></trkpt><trkpt lat="42.7007445" lon="12.4921241"><ele>340.0</ele><time>2026-04-12T11:02:06.873Z</time></trkpt><trkpt lat="42.7009026" lon="12.4921162"><ele>340.0</ele><time>2026-04-12T11:02:07.875Z</time></trkpt><trkpt lat="42.7010652" lon="12.4921411"><ele>341.66666666666663</ele><time>2026-04-12T11:02:08.872Z</time></trkpt><trkpt lat="42.7012278" lon="12.4921799"><ele>343.3333333333333</ele><time>2026-04-12T11:02:09.886Z</time></trkpt><trkpt lat="42.7013959" lon="12.4922177"><ele>345.0</ele><time>2026-04-12T11:02:10.874Z</time></trkpt><trkpt lat="42.701564" lon="12.492253"><ele>345.0</ele><time>2026-04-12T11:02:11.875Z</time></trkpt><trkpt lat="42.7017388" lon="12.4922839"><ele>345.0</ele><time>2026-04-12T11:02:12.871Z</time></trkpt><trkpt lat="42.7019122" lon="12.4923151"><ele>345.0</ele><time>2026-04-12T11:02:13.871Z</time></trkpt><trkpt lat="42.702089" lon="12.4923431"><ele>345.3333333333333</ele><time>2026-04-12T11:02:14.871Z</time></trkpt><trkpt lat="42.7022632" lon="12.4923788"><ele>345.66666666666663</ele><time>2026-04-12T11:02:15.88Z</time></trkpt><trkpt lat="42.7024308" lon="12.492419"><ele>346.0</ele><time>2026-04-12T11:02:16.874Z</time></trkpt><trkpt lat="42.7025821" lon="12.4924657"><ele>346.0</ele><time>2026-04-12T11:02:17.868Z</time></trkpt><trkpt lat="42.7027257" lon="12.4925219"><ele>346.0</ele><time>2026-04-12T11:02:18.872Z</time></trkpt><trkpt lat="42.7028799" lon="12.4925803"><ele>346.0</ele><time>2026-04-12T11:02:19.872Z</time></trkpt><trkpt lat="42.7030374" lon="12.4926296"><ele>346.0</ele><time>2026-04-12T11:02:20.867Z</time></trkpt><trkpt lat="42.703199" lon="12.492659"><ele>346.0</ele><time>2026-04-12T11:02:21.89Z</time></trkpt><trkpt lat="42.7033695" lon="12.4926498"><ele>346.0</ele><time>2026-04-12T11:02:22.871Z</time></trkpt><trkpt lat="42.7035342" lon="12.4926035"><ele>344.3333333333333</ele><time>2026-04-12T11:02:23.876Z</time></trkpt><trkpt lat="42.7037047" lon="12.4925471"><ele>342.6666666666667</ele><time>2026-04-12T11:02:24.876Z</time></trkpt><trkpt lat="42.7038819" lon="12.492488"><ele>341.0</ele><time>2026-04-12T11:02:25.884Z</time></trkpt><trkpt lat="42.7040507" lon="12.4924391"><ele>341.0</ele><time>2026-04-12T11:02:26.876Z</time></trkpt><trkpt lat="42.7042212" lon="12.4923876"><ele>341.0</ele><time>2026-04-12T11:02:27.871Z</time></trkpt><trkpt lat="42.7043915" lon="12.4923329"><ele>341.0</ele><time>2026-04-12T11:02:28.871Z</time></trkpt><trkpt lat="42.7045627" lon="12.4922743"><ele>338.33333333333337</ele><time>2026-04-12T11:02:29.872Z</time></trkpt><trkpt lat="42.7047319" lon="12.4921883"><ele>335.6666666666667</ele><time>2026-04-12T11:02:30.878Z</time></trkpt><trkpt lat="42.7049036" lon="12.4920882"><ele>333.0</ele><time>2026-04-12T11:02:31.866Z</time></trkpt><trkpt lat="42.7050767" lon="12.4919752"><ele>333.0</ele><time>2026-04-12T11:02:32.871Z</time></trkpt><trkpt lat="42.7052456" lon="12.4918598"><ele>333.0</ele><time>2026-04-12T11:02:33.877Z</time></trkpt><trkpt lat="42.7054057" lon="12.4917446"><ele>333.0</ele><time>2026-04-12T11:02:34.871Z</time></trkpt><trkpt lat="42.7055525" lon="12.4916403"><ele>333.0</ele><time>2026-04-12T11:02:35.875Z</time></trkpt><trkpt lat="42.705693" lon="12.4915365"><ele>333.0</ele><time>2026-04-12T11:02:36.878Z</time></trkpt><trkpt lat="42.7058254" lon="12.4914433"><ele>333.0</ele><time>2026-04-12T11:02:37.888Z</time></trkpt><trkpt lat="42.7059578" lon="12.4913781"><ele>333.0</ele><time>2026-04-12T11:02:38.885Z</time></trkpt><trkpt lat="42.7060938" lon="12.4913342"><ele>333.0</ele><time>2026-04-12T11:02:39.866Z</time></trkpt><trkpt lat="42.7062382" lon="12.4913084"><ele>333.0</ele><time>2026-04-12T11:02:40.877Z</time></trkpt><trkpt lat="42.7063798" lon="12.4912949"><ele>333.0</ele><time>2026-04-12T11:02:41.869Z</time></trkpt><trkpt lat="42.7065184" lon="12.4913103"><ele>333.0</ele><time>2026-04-12T11:02:42.879Z</time></trkpt><trkpt lat="42.7066484" lon="12.491371"><ele>333.0</ele><time>2026-04-12T11:02:43.871Z</time></trkpt><trkpt lat="42.7067668" lon="12.4914502"><ele>333.0</ele><time>2026-04-12T11:02:44.872Z</time></trkpt><trkpt lat="42.7068757" lon="12.4915269"><ele>333.0</ele><time>2026-04-12T11:02:45.89Z</time></trkpt><trkpt lat="42.7069772" lon="12.491599"><ele>334.25</ele><time>2026-04-12T11:02:46.877Z</time></trkpt><trkpt lat="42.7070828" lon="12.4916672"><ele>335.5</ele><time>2026-04-12T11:02:47.883Z</time></trkpt><trkpt lat="42.7071888" lon="12.4917361"><ele>336.75</ele><time>2026-04-12T11:02:48.872Z</time></trkpt><trkpt lat="42.707296" lon="12.4918091"><ele>338.0</ele><time>2026-04-12T11:02:49.879Z</time></trkpt><trkpt lat="42.7074113" lon="12.4918888"><ele>338.0</ele><time>2026-04-12T11:02:50.884Z</time></trkpt><trkpt lat="42.7075291" lon="12.4919841"><ele>338.0</ele><time>2026-04-12T11:02:51.889Z</time></trkpt><trkpt lat="42.7076506" lon="12.4920767"><ele>338.0</ele><time>2026-04-12T11:02:52.879Z</time></trkpt><trkpt lat="42.7077823" lon="12.4921659"><ele>338.0</ele><time>2026-04-12T11:02:53.887Z</time></trkpt><trkpt lat="42.7079305" lon="12.4922443"><ele>336.75</ele><time>2026-04-12T11:02:54.883Z</time></trkpt><trkpt lat="42.7080812" lon="12.4922986"><ele>335.5</ele><time>2026-04-12T11:02:55.877Z</time></trkpt><trkpt lat="42.7082232" lon="12.4923362"><ele>334.25</ele><time>2026-04-12T11:02:56.874Z</time></trkpt><trkpt lat="42.7083554" lon="12.4923722"><ele>333.0</ele><time>2026-04-12T11:02:57.872Z</time></trkpt><trkpt lat="42.7084827" lon="12.4923991"><ele>332.1666666666667</ele><time>2026-04-12T11:02:58.874Z</time></trkpt><trkpt lat="42.7085975" lon="12.4924317"><ele>331.3333333333333</ele><time>2026-04-12T11:02:59.88Z</time></trkpt><trkpt lat="42.7086905" lon="12.4924664"><ele>330.5</ele><time>2026-04-12T11:03:00.875Z</time></trkpt><trkpt lat="42.7087522" lon="12.4925031"><ele>329.66666666666663</ele><time>2026-04-12T11:03:01.874Z</time></trkpt><trkpt lat="42.7088253" lon="12.4925394"><ele>328.8333333333333</ele><time>2026-04-12T11:03:03.872Z</time></trkpt><trkpt lat="42.708905" lon="12.4925392"><ele>328.0</ele><time>2026-04-12T11:03:05.88Z</time></trkpt><trkpt lat="42.7090323" lon="12.4925373"><ele>328.0</ele><time>2026-04-12T11:03:07.885Z</time></trkpt><trkpt lat="42.7091145" lon="12.4925369"><ele>328.0</ele><time>2026-04-12T11:03:08.877Z</time></trkpt><trkpt lat="42.7092195" lon="12.492528"><ele>328.0</ele><time>2026-04-12T11:03:09.862Z</time></trkpt><trkpt lat="42.7093358" lon="12.4925218"><ele>328.0</ele><time>2026-04-12T11:03:10.88Z</time></trkpt><trkpt lat="42.7094621" lon="12.4925102"><ele>328.0</ele><time>2026-04-12T11:03:11.86Z</time></trkpt><trkpt lat="42.7095924" lon="12.4924935"><ele>325.75</ele><time>2026-04-12T11:03:12.879Z</time></trkpt><trkpt lat="42.7097215" lon="12.4924726"><ele>323.5</ele><time>2026-04-12T11:03:13.868Z</time></trkpt><trkpt lat="42.7098521" lon="12.4924502"><ele>321.25</ele><time>2026-04-12T11:03:14.875Z</time></trkpt><trkpt lat="42.709976" lon="12.4924231"><ele>319.0</ele><time>2026-04-12T11:03:15.867Z</time></trkpt><trkpt lat="42.7100983" lon="12.4923845"><ele>319.0</ele><time>2026-04-12T11:03:16.87Z</time></trkpt><trkpt lat="42.7102117" lon="12.4923463"><ele>319.0</ele><time>2026-04-12T11:03:17.882Z</time></trkpt><trkpt lat="42.7103267" lon="12.4922968"><ele>319.0</ele><time>2026-04-12T11:03:18.873Z</time></trkpt><trkpt lat="42.710443" lon="12.4922388"><ele>319.0</ele><time>2026-04-12T11:03:19.877Z</time></trkpt><trkpt lat="42.7105564" lon="12.4921793"><ele>317.0</ele><time>2026-04-12T11:03:20.877Z</time></trkpt><trkpt lat="42.7106672" lon="12.4921248"><ele>315.0</ele><time>2026-04-12T11:03:21.883Z</time></trkpt><trkpt lat="42.710781" lon="12.4920806"><ele>313.0</ele><time>2026-04-12T11:03:22.868Z</time></trkpt><trkpt lat="42.7109069" lon="12.4920447"><ele>311.0</ele><time>2026-04-12T11:03:23.865Z</time></trkpt><trkpt lat="42.7110356" lon="12.4920244"><ele>308.25</ele><time>2026-04-12T11:03:24.877Z</time></trkpt><trkpt lat="42.7111736" lon="12.4920127"><ele>305.5</ele><time>2026-04-12T11:03:25.871Z</time></trkpt><trkpt lat="42.7113092" lon="12.4920095"><ele>302.75</ele><time>2026-04-12T11:03:26.891Z</time></trkpt><trkpt lat="42.7114376" lon="12.4920178"><ele>300.0</ele><time>2026-04-12T11:03:27.884Z</time></trkpt><trkpt lat="42.7115577" lon="12.4920329"><ele>300.0</ele><time>2026-04-12T11:03:28.887Z</time></trkpt><trkpt lat="42.7116676" lon="12.4920606"><ele>300.0</ele><time>2026-04-12T11:03:29.871Z</time></trkpt><trkpt lat="42.7117612" lon="12.4920891"><ele>300.0</ele><time>2026-04-12T11:03:30.881Z</time></trkpt><trkpt lat="42.7118501" lon="12.492126"><ele>300.0</ele><time>2026-04-12T11:03:31.87Z</time></trkpt><trkpt lat="42.7119286" lon="12.4921862"><ele>300.0</ele><time>2026-04-12T11:03:32.867Z</time></trkpt><trkpt lat="42.7120037" lon="12.4922515"><ele>299.0</ele><time>2026-04-12T11:03:33.883Z</time></trkpt><trkpt lat="42.7120925" lon="12.4923353"><ele>298.0</ele><time>2026-04-12T11:03:34.865Z</time></trkpt><trkpt lat="42.7121768" lon="12.4924224"><ele>297.0</ele><time>2026-04-12T11:03:35.868Z</time></trkpt><trkpt lat="42.7122621" lon="12.4925182"><ele>296.0</ele><time>2026-04-12T11:03:36.87Z</time></trkpt><trkpt lat="42.7123431" lon="12.4926081"><ele>295.0</ele><time>2026-04-12T11:03:37.868Z</time></trkpt><trkpt lat="42.7124279" lon="12.4926837"><ele>295.0</ele><time>2026-04-12T11:03:38.914Z</time></trkpt><trkpt lat="42.7125193" lon="12.4927555"><ele>295.0</ele><time>2026-04-12T11:03:39.869Z</time></trkpt><trkpt lat="42.7126142" lon="12.4928218"><ele>295.0</ele><time>2026-04-12T11:03:40.891Z</time></trkpt><trkpt lat="42.712711" lon="12.4928867"><ele>295.0</ele><time>2026-04-12T11:03:41.88Z</time></trkpt><trkpt lat="42.7128067" lon="12.492946"><ele>295.0</ele><time>2026-04-12T11:03:42.886Z</time></trkpt><trkpt lat="42.7129022" lon="12.4929978"><ele>293.25</ele><time>2026-04-12T11:03:43.858Z</time></trkpt><trkpt lat="42.7129949" lon="12.493043"><ele>291.5</ele><time>2026-04-12T11:03:44.872Z</time></trkpt><trkpt lat="42.7130892" lon="12.4930767"><ele>289.75</ele><time>2026-04-12T11:03:45.87Z</time></trkpt><trkpt lat="42.713179" lon="12.4931091"><ele>288.0</ele><time>2026-04-12T11:03:46.864Z</time></trkpt><trkpt lat="42.7133573" lon="12.4931735"><ele>288.0</ele><time>2026-04-12T11:03:48.86Z</time></trkpt><trkpt lat="42.7134452" lon="12.4932022"><ele>288.0</ele><time>2026-04-12T11:03:49.873Z</time></trkpt><trkpt lat="42.7135295" lon="12.4932379"><ele>288.0</ele><time>2026-04-12T11:03:50.874Z</time></trkpt><trkpt lat="42.7136149" lon="12.4932738"><ele>288.0</ele><time>2026-04-12T11:03:51.882Z</time></trkpt><trkpt lat="42.7137057" lon="12.493316"><ele>288.0</ele><time>2026-04-12T11:03:52.878Z</time></trkpt><trkpt lat="42.7137956" lon="12.4933639"><ele>285.6</ele><time>2026-04-12T11:03:53.881Z</time></trkpt><trkpt lat="42.7138876" lon="12.4934332"><ele>283.20000000000005</ele><time>2026-04-12T11:03:54.901Z</time></trkpt><trkpt lat="42.7139873" lon="12.4935067"><ele>280.8</ele><time>2026-04-12T11:03:55.87Z</time></trkpt><trkpt lat="42.7140837" lon="12.4935795"><ele>278.40000000000003</ele><time>2026-04-12T11:03:56.878Z</time></trkpt><trkpt lat="42.7141772" lon="12.4936575"><ele>276.0</ele><time>2026-04-12T11:03:57.877Z</time></trkpt><trkpt lat="42.7142645" lon="12.4937407"><ele>277.0</ele><time>2026-04-12T11:03:58.882Z</time></trkpt><trkpt lat="42.7143487" lon="12.4938296"><ele>278.0</ele><time>2026-04-12T11:03:59.883Z</time></trkpt><trkpt lat="42.7144316" lon="12.4939224"><ele>279.0</ele><time>2026-04-12T11:04:00.901Z</time></trkpt><trkpt lat="42.7145145" lon="12.4940145"><ele>280.0</ele><time>2026-04-12T11:04:01.864Z</time></trkpt><trkpt lat="42.7146042" lon="12.4941137"><ele>281.0</ele><time>2026-04-12T11:04:02.872Z</time></trkpt><trkpt lat="42.7146989" lon="12.494208"><ele>278.5</ele><time>2026-04-12T11:04:03.862Z</time></trkpt><trkpt lat="42.7147979" lon="12.4942996"><ele>276.0</ele><time>2026-04-12T11:04:04.858Z</time></trkpt><trkpt lat="42.7148937" lon="12.4943916"><ele>273.5</ele><time>2026-04-12T11:04:05.874Z</time></trkpt><trkpt lat="42.7149924" lon="12.4944857"><ele>271.0</ele><time>2026-04-12T11:04:06.937Z</time></trkpt><trkpt lat="42.71509" lon="12.4945825"><ele>270.5</ele><time>2026-04-12T11:04:07.869Z</time></trkpt><trkpt lat="42.7151883" lon="12.494676"><ele>270.0</ele><time>2026-04-12T11:04:08.885Z</time></trkpt><trkpt lat="42.7152867" lon="12.494764"><ele>269.5</ele><time>2026-04-12T11:04:09.878Z</time></trkpt><trkpt lat="42.7153882" lon="12.4948487"><ele>269.0</ele><time>2026-04-12T11:04:10.875Z</time></trkpt><trkpt lat="42.7154876" lon="12.4949409"><ele>269.0</ele><time>2026-04-12T11:04:11.887Z</time></trkpt><trkpt lat="42.7155905" lon="12.4950336"><ele>269.0</ele><time>2026-04-12T11:04:12.883Z</time></trkpt><trkpt lat="42.7157006" lon="12.4951188"><ele>269.0</ele><time>2026-04-12T11:04:13.867Z</time></trkpt><trkpt lat="42.7158102" lon="12.4951998"><ele>269.0</ele><time>2026-04-12T11:04:14.938Z</time></trkpt><trkpt lat="42.7159056" lon="12.4952924"><ele>269.0</ele><time>2026-04-12T11:04:15.88Z</time></trkpt><trkpt lat="42.7159895" lon="12.495403"><ele>269.0</ele><time>2026-04-12T11:04:16.893Z</time></trkpt><trkpt lat="42.7160623" lon="12.4955331"><ele>269.0</ele><time>2026-04-12T11:04:17.88Z</time></trkpt><trkpt lat="42.7161153" lon="12.4956837"><ele>269.0</ele><time>2026-04-12T11:04:18.917Z</time></trkpt><trkpt lat="42.7161554" lon="12.4958396"><ele>269.25</ele><time>2026-04-12T11:04:19.896Z</time></trkpt><trkpt lat="42.7161991" lon="12.4960092"><ele>269.5</ele><time>2026-04-12T11:04:20.9Z</time></trkpt><trkpt lat="42.7162467" lon="12.4961776"><ele>269.75</ele><time>2026-04-12T11:04:21.876Z</time></trkpt><trkpt lat="42.7162972" lon="12.4963448"><ele>270.0</ele><time>2026-04-12T11:04:22.891Z</time></trkpt><trkpt lat="42.7163485" lon="12.496503"><ele>270.0</ele><time>2026-04-12T11:04:23.869Z</time></trkpt><trkpt lat="42.7163943" lon="12.4966547"><ele>270.0</ele><time>2026-04-12T11:04:24.871Z</time></trkpt><trkpt lat="42.7164407" lon="12.4968039"><ele>270.0</ele><time>2026-04-12T11:04:25.868Z</time></trkpt><trkpt lat="42.7164814" lon="12.496943"><ele>270.0</ele><time>2026-04-12T11:04:26.881Z</time></trkpt><trkpt lat="42.7165252" lon="12.4970751"><ele>270.4</ele><time>2026-04-12T11:04:27.884Z</time></trkpt><trkpt lat="42.716546" lon="12.4972021"><ele>270.8</ele><time>2026-04-12T11:04:28.885Z</time></trkpt><trkpt lat="42.7165527" lon="12.4973357"><ele>271.2</ele><time>2026-04-12T11:04:29.885Z</time></trkpt><trkpt lat="42.7165762" lon="12.4974551"><ele>271.6</ele><time>2026-04-12T11:04:30.885Z</time></trkpt><trkpt lat="42.7166384" lon="12.4975622"><ele>272.0</ele><time>2026-04-12T11:04:31.885Z</time></trkpt><trkpt lat="42.7167143" lon="12.4976627"><ele>272.0</ele><time>2026-04-12T11:04:32.896Z</time></trkpt><trkpt lat="42.7167901" lon="12.4977625"><ele>272.0</ele><time>2026-04-12T11:04:33.879Z</time></trkpt><trkpt lat="42.7168494" lon="12.4978672"><ele>272.0</ele><time>2026-04-12T11:04:34.89Z</time></trkpt><trkpt lat="42.7169038" lon="12.4979928"><ele>272.0</ele><time>2026-04-12T11:04:35.884Z</time></trkpt><trkpt lat="42.7169289" lon="12.4981354"><ele>272.0</ele><time>2026-04-12T11:04:36.873Z</time></trkpt><trkpt lat="42.7169469" lon="12.4982931"><ele>269.5</ele><time>2026-04-12T11:04:37.865Z</time></trkpt><trkpt lat="42.7169528" lon="12.4984646"><ele>267.0</ele><time>2026-04-12T11:04:38.879Z</time></trkpt><trkpt lat="42.7169549" lon="12.49864"><ele>264.5</ele><time>2026-04-12T11:04:39.884Z</time></trkpt><trkpt lat="42.7169464" lon="12.4988053"><ele>262.0</ele><time>2026-04-12T11:04:40.879Z</time></trkpt><trkpt lat="42.7169262" lon="12.4989651"><ele>261.5</ele><time>2026-04-12T11:04:41.876Z</time></trkpt><trkpt lat="42.7169104" lon="12.4991153"><ele>261.0</ele><time>2026-04-12T11:04:42.895Z</time></trkpt><trkpt lat="42.7168981" lon="12.4992795"><ele>260.5</ele><time>2026-04-12T11:04:43.869Z</time></trkpt><trkpt lat="42.7168857" lon="12.4994533"><ele>260.0</ele><time>2026-04-12T11:04:44.875Z</time></trkpt><trkpt lat="42.7168797" lon="12.4996333"><ele>260.0</ele><time>2026-04-12T11:04:45.878Z</time></trkpt><trkpt lat="42.716881" lon="12.4998071"><ele>260.0</ele><time>2026-04-12T11:04:46.87Z</time></trkpt><trkpt lat="42.7168883" lon="12.4999766"><ele>260.0</ele><time>2026-04-12T11:04:47.873Z</time></trkpt><trkpt lat="42.7169067" lon="12.5001478"><ele>260.0</ele><time>2026-04-12T11:04:48.87Z</time></trkpt><trkpt lat="42.716936" lon="12.5003258"><ele>257.0</ele><time>2026-04-12T11:04:49.877Z</time></trkpt><trkpt lat="42.7169725" lon="12.5005134"><ele>254.0</ele><time>2026-04-12T11:04:50.876Z</time></trkpt><trkpt lat="42.7170098" lon="12.5007081"><ele>251.0</ele><time>2026-04-12T11:04:51.882Z</time></trkpt><trkpt lat="42.7170554" lon="12.500905"><ele>248.0</ele><time>2026-04-12T11:04:52.871Z</time></trkpt><trkpt lat="42.7171009" lon="12.5010966"><ele>247.25</ele><time>2026-04-12T11:04:53.876Z</time></trkpt><trkpt lat="42.7171376" lon="12.5012752"><ele>246.5</ele><time>2026-04-12T11:04:54.891Z</time></trkpt><trkpt lat="42.7171718" lon="12.5014392"><ele>245.75</ele><time>2026-04-12T11:04:55.872Z</time></trkpt><trkpt lat="42.7171984" lon="12.5015936"><ele>245.0</ele><time>2026-04-12T11:04:56.883Z</time></trkpt><trkpt lat="42.7172253" lon="12.5017481"><ele>245.0</ele><time>2026-04-12T11:04:57.872Z</time></trkpt><trkpt lat="42.7172496" lon="12.5019051"><ele>245.0</ele><time>2026-04-12T11:04:58.881Z</time></trkpt><trkpt lat="42.7172709" lon="12.5020599"><ele>245.0</ele><time>2026-04-12T11:04:59.87Z</time></trkpt><trkpt lat="42.7172927" lon="12.5022128"><ele>245.0</ele><time>2026-04-12T11:05:00.865Z</time></trkpt><trkpt lat="42.7173122" lon="12.5023723"><ele>245.0</ele><time>2026-04-12T11:05:01.878Z</time></trkpt><trkpt lat="42.7173311" lon="12.5025507"><ele>245.0</ele><time>2026-04-12T11:05:02.898Z</time></trkpt><trkpt lat="42.7173455" lon="12.5027408"><ele>245.0</ele><time>2026-04-12T11:05:03.87Z</time></trkpt><trkpt lat="42.7173626" lon="12.5029392"><ele>245.0</ele><time>2026-04-12T11:05:04.874Z</time></trkpt><trkpt lat="42.7173793" lon="12.503144"><ele>242.66666666666669</ele><time>2026-04-12T11:05:05.867Z</time></trkpt><trkpt lat="42.7174022" lon="12.5033526"><ele>240.33333333333331</ele><time>2026-04-12T11:05:06.869Z</time></trkpt><trkpt lat="42.7174227" lon="12.5035637"><ele>238.0</ele><time>2026-04-12T11:05:07.869Z</time></trkpt><trkpt lat="42.7174434" lon="12.5037629"><ele>236.25</ele><time>2026-04-12T11:05:08.876Z</time></trkpt><trkpt lat="42.7174688" lon="12.5039479"><ele>234.5</ele><time>2026-04-12T11:05:09.87Z</time></trkpt><trkpt lat="42.7175024" lon="12.5041215"><ele>232.75</ele><time>2026-04-12T11:05:10.885Z</time></trkpt><trkpt lat="42.7175352" lon="12.5042926"><ele>231.0</ele><time>2026-04-12T11:05:11.877Z</time></trkpt><trkpt lat="42.71757" lon="12.5044599"><ele>229.8</ele><time>2026-04-12T11:05:12.873Z</time></trkpt><trkpt lat="42.717603" lon="12.5046132"><ele>228.60000000000002</ele><time>2026-04-12T11:05:13.885Z</time></trkpt><trkpt lat="42.7176392" lon="12.5047473"><ele>227.4</ele><time>2026-04-12T11:05:14.867Z</time></trkpt><trkpt lat="42.7176791" lon="12.5048706"><ele>226.2</ele><time>2026-04-12T11:05:15.874Z</time></trkpt><trkpt lat="42.717718" lon="12.5049872"><ele>225.0</ele><time>2026-04-12T11:05:16.881Z</time></trkpt><trkpt lat="42.7177498" lon="12.5050907"><ele>224.5</ele><time>2026-04-12T11:05:17.861Z</time></trkpt><trkpt lat="42.7177768" lon="12.5051913"><ele>224.0</ele><time>2026-04-12T11:05:18.87Z</time></trkpt><trkpt lat="42.7177746" lon="12.5052799"><ele>223.5</ele><time>2026-04-12T11:05:19.873Z</time></trkpt><trkpt lat="42.7177408" lon="12.5054044"><ele>223.0</ele><time>2026-04-12T11:05:21.874Z</time></trkpt><trkpt lat="42.717756" lon="12.5054943"><ele>222.5</ele><time>2026-04-12T11:05:24.874Z</time></trkpt><trkpt lat="42.7178225" lon="12.5055569"><ele>222.0</ele><time>2026-04-12T11:05:26.869Z</time></trkpt><trkpt lat="42.7178989" lon="12.5055769"><ele>220.39999999999998</ele><time>2026-04-12T11:05:27.874Z</time></trkpt><trkpt lat="42.7179921" lon="12.5055962"><ele>218.79999999999998</ele><time>2026-04-12T11:05:28.867Z</time></trkpt><trkpt lat="42.7180962" lon="12.5056219"><ele>217.2</ele><time>2026-04-12T11:05:29.871Z</time></trkpt><trkpt lat="42.7182019" lon="12.5056414"><ele>215.6</ele><time>2026-04-12T11:05:30.87Z</time></trkpt><trkpt lat="42.718303" lon="12.5056271"><ele>214.0</ele><time>2026-04-12T11:05:31.885Z</time></trkpt><trkpt lat="42.7183929" lon="12.5055675"><ele>214.0</ele><time>2026-04-12T11:05:32.867Z</time></trkpt><trkpt lat="42.7184678" lon="12.5054704"><ele>213.99999999999997</ele><time>2026-04-12T11:05:33.866Z</time></trkpt><trkpt lat="42.7185306" lon="12.5053501"><ele>213.99999999999997</ele><time>2026-04-12T11:05:34.871Z</time></trkpt><trkpt lat="42.7185852" lon="12.5052188"><ele>214.0</ele><time>2026-04-12T11:05:35.881Z</time></trkpt><trkpt lat="42.718645" lon="12.5050875"><ele>214.0</ele><time>2026-04-12T11:05:36.867Z</time></trkpt><trkpt lat="42.7187035" lon="12.5049463"><ele>213.5</ele><time>2026-04-12T11:05:37.876Z</time></trkpt><trkpt lat="42.7187638" lon="12.5048009"><ele>213.0</ele><time>2026-04-12T11:05:38.869Z</time></trkpt><trkpt lat="42.7188308" lon="12.5046424"><ele>212.5</ele><time>2026-04-12T11:05:39.882Z</time></trkpt><trkpt lat="42.7189041" lon="12.5044763"><ele>212.0</ele><time>2026-04-12T11:05:40.876Z</time></trkpt><trkpt lat="42.7189821" lon="12.504292"><ele>212.0</ele><time>2026-04-12T11:05:41.89Z</time></trkpt><trkpt lat="42.7190562" lon="12.5041144"><ele>212.0</ele><time>2026-04-12T11:05:42.89Z</time></trkpt><trkpt lat="42.7191233" lon="12.5039442"><ele>212.0</ele><time>2026-04-12T11:05:43.879Z</time></trkpt><trkpt lat="42.7191914" lon="12.5037814"><ele>212.0</ele><time>2026-04-12T11:05:44.889Z</time></trkpt><trkpt lat="42.7192601" lon="12.5036198"><ele>212.5</ele><time>2026-04-12T11:05:45.883Z</time></trkpt><trkpt lat="42.7193309" lon="12.5034531"><ele>213.0</ele><time>2026-04-12T11:05:46.877Z</time></trkpt><trkpt lat="42.719402" lon="12.5032859"><ele>213.5</ele><time>2026-04-12T11:05:47.868Z</time></trkpt><trkpt lat="42.7194741" lon="12.5031235"><ele>214.0</ele><time>2026-04-12T11:05:48.872Z</time></trkpt><trkpt lat="42.7195451" lon="12.5029566"><ele>213.0</ele><time>2026-04-12T11:05:49.869Z</time></trkpt><trkpt lat="42.7196172" lon="12.5027876"><ele>212.0</ele><time>2026-04-12T11:05:50.865Z</time></trkpt><trkpt lat="42.7196902" lon="12.5026204"><ele>211.0</ele><time>2026-04-12T11:05:51.881Z</time></trkpt><trkpt lat="42.719755" lon="12.502465"><ele>210.0</ele><time>2026-04-12T11:05:52.879Z</time></trkpt><trkpt lat="42.7198224" lon="12.502321"><ele>210.0</ele><time>2026-04-12T11:05:53.879Z</time></trkpt><trkpt lat="42.7198977" lon="12.5022012"><ele>210.0</ele><time>2026-04-12T11:05:54.872Z</time></trkpt><trkpt lat="42.7199984" lon="12.5021225"><ele>210.0</ele><time>2026-04-12T11:05:55.872Z</time></trkpt><trkpt lat="42.7201156" lon="12.5020904"><ele>210.0</ele><time>2026-04-12T11:05:56.868Z</time></trkpt><trkpt lat="42.7202313" lon="12.5020835"><ele>209.83333333333334</ele><time>2026-04-12T11:05:57.877Z</time></trkpt><trkpt lat="42.7203427" lon="12.5020968"><ele>209.66666666666669</ele><time>2026-04-12T11:05:58.87Z</time></trkpt><trkpt lat="42.7204372" lon="12.5021135"><ele>209.5</ele><time>2026-04-12T11:05:59.877Z</time></trkpt><trkpt lat="42.7205188" lon="12.5021198"><ele>209.33333333333334</ele><time>2026-04-12T11:06:00.867Z</time></trkpt><trkpt lat="42.7205836" lon="12.502125"><ele>209.16666666666669</ele><time>2026-04-12T11:06:01.889Z</time></trkpt><trkpt lat="42.7206712" lon="12.502121"><ele>209.0</ele><time>2026-04-12T11:06:03.869Z</time></trkpt><trkpt lat="42.7207501" lon="12.5020717"><ele>209.0</ele><time>2026-04-12T11:06:05.869Z</time></trkpt><trkpt lat="42.7207957" lon="12.5019949"><ele>209.0</ele><time>2026-04-12T11:06:06.872Z</time></trkpt><trkpt lat="42.7208181" lon="12.5018879"><ele>209.0</ele><time>2026-04-12T11:06:07.868Z</time></trkpt><trkpt lat="42.7208386" lon="12.5017586"><ele>209.0</ele><time>2026-04-12T11:06:08.869Z</time></trkpt><trkpt lat="42.7208612" lon="12.5016164"><ele>209.0</ele><time>2026-04-12T11:06:09.884Z</time></trkpt><trkpt lat="42.7209166" lon="12.5014661"><ele>209.0</ele><time>2026-04-12T11:06:10.869Z</time></trkpt><trkpt lat="42.7210075" lon="12.5013461"><ele>209.0</ele><time>2026-04-12T11:06:11.872Z</time></trkpt><trkpt lat="42.7211255" lon="12.5012797"><ele>209.0</ele><time>2026-04-12T11:06:12.88Z</time></trkpt><trkpt lat="42.7212577" lon="12.5012632"><ele>209.0</ele><time>2026-04-12T11:06:13.88Z</time></trkpt><trkpt lat="42.7213929" lon="12.501285"><ele>208.5</ele><time>2026-04-12T11:06:14.872Z</time></trkpt><trkpt lat="42.7215372" lon="12.501307"><ele>208.0</ele><time>2026-04-12T11:06:15.882Z</time></trkpt><trkpt lat="42.7216805" lon="12.5013267"><ele>207.5</ele><time>2026-04-12T11:06:16.881Z</time></trkpt><trkpt lat="42.7218291" lon="12.5013452"><ele>207.0</ele><time>2026-04-12T11:06:17.885Z</time></trkpt><trkpt lat="42.7219771" lon="12.5013623"><ele>206.33333333333331</ele><time>2026-04-12T11:06:18.88Z</time></trkpt><trkpt lat="42.7221254" lon="12.5013772"><ele>205.66666666666666</ele><time>2026-04-12T11:06:19.878Z</time></trkpt><trkpt lat="42.7222726" lon="12.5014016"><ele>205.0</ele><time>2026-04-12T11:06:20.872Z</time></trkpt><trkpt lat="42.7224243" lon="12.5014522"><ele>205.0</ele><time>2026-04-12T11:06:21.88Z</time></trkpt><trkpt lat="42.7225712" lon="12.5015383"><ele>205.0</ele><time>2026-04-12T11:06:22.87Z</time></trkpt><trkpt lat="42.7227065" lon="12.5016474"><ele>205.0</ele><time>2026-04-12T11:06:23.885Z</time></trkpt><trkpt lat="42.7228226" lon="12.501753"><ele>205.0</ele><time>2026-04-12T11:06:24.875Z</time></trkpt><trkpt lat="42.7229353" lon="12.5018504"><ele>205.0</ele><time>2026-04-12T11:06:25.868Z</time></trkpt><trkpt lat="42.723046" lon="12.5019449"><ele>205.0</ele><time>2026-04-12T11:06:26.874Z</time></trkpt><trkpt lat="42.7231483" lon="12.5020314"><ele>205.0</ele><time>2026-04-12T11:06:27.876Z</time></trkpt><trkpt lat="42.7232434" lon="12.5021136"><ele>205.6</ele><time>2026-04-12T11:06:28.875Z</time></trkpt><trkpt lat="42.723329" lon="12.5021858"><ele>206.2</ele><time>2026-04-12T11:06:29.882Z</time></trkpt><trkpt lat="42.7234114" lon="12.5022428"><ele>206.8</ele><time>2026-04-12T11:06:30.881Z</time></trkpt><trkpt lat="42.7234904" lon="12.5022858"><ele>207.4</ele><time>2026-04-12T11:06:31.869Z</time></trkpt><trkpt lat="42.7235706" lon="12.5023149"><ele>208.0</ele><time>2026-04-12T11:06:32.871Z</time></trkpt><trkpt lat="42.7236612" lon="12.5023189"><ele>209.0</ele><time>2026-04-12T11:06:33.897Z</time></trkpt><trkpt lat="42.7237575" lon="12.5022933"><ele>210.0</ele><time>2026-04-12T11:06:34.879Z</time></trkpt><trkpt lat="42.7238606" lon="12.5022366"><ele>211.0</ele><time>2026-04-12T11:06:35.87Z</time></trkpt><trkpt lat="42.7239726" lon="12.5021841"><ele>212.0</ele><time>2026-04-12T11:06:36.871Z</time></trkpt><trkpt lat="42.724104" lon="12.5021504"><ele>212.0</ele><time>2026-04-12T11:06:37.877Z</time></trkpt><trkpt lat="42.7242444" lon="12.5021483"><ele>212.0</ele><time>2026-04-12T11:06:38.857Z</time></trkpt><trkpt lat="42.7243918" lon="12.5021609"><ele>212.0</ele><time>2026-04-12T11:06:39.897Z</time></trkpt><trkpt lat="42.724544" lon="12.5021524"><ele>212.0</ele><time>2026-04-12T11:06:40.88Z</time></trkpt><trkpt lat="42.7247001" lon="12.5021164"><ele>211.33333333333334</ele><time>2026-04-12T11:06:41.865Z</time></trkpt><trkpt lat="42.7248486" lon="12.5020454"><ele>210.66666666666669</ele><time>2026-04-12T11:06:42.874Z</time></trkpt><trkpt lat="42.7249828" lon="12.5019403"><ele>210.0</ele><time>2026-04-12T11:06:43.873Z</time></trkpt><trkpt lat="42.7250953" lon="12.501802"><ele>210.0</ele><time>2026-04-12T11:06:44.875Z</time></trkpt><trkpt lat="42.7251863" lon="12.5016568"><ele>210.0</ele><time>2026-04-12T11:06:45.87Z</time></trkpt><trkpt lat="42.7252547" lon="12.5014958"><ele>210.0</ele><time>2026-04-12T11:06:46.879Z</time></trkpt><trkpt lat="42.7253026" lon="12.5013029"><ele>210.0</ele><time>2026-04-12T11:06:47.876Z</time></trkpt><trkpt lat="42.7253361" lon="12.5010883"><ele>209.0</ele><time>2026-04-12T11:06:48.87Z</time></trkpt><trkpt lat="42.7253625" lon="12.50087"><ele>208.0</ele><time>2026-04-12T11:06:49.883Z</time></trkpt><trkpt lat="42.7254001" lon="12.5006432"><ele>207.0</ele><time>2026-04-12T11:06:50.877Z</time></trkpt><trkpt lat="42.7254493" lon="12.5004081"><ele>206.33333333333331</ele><time>2026-04-12T11:06:51.871Z</time></trkpt><trkpt lat="42.7255081" lon="12.5001718"><ele>205.66666666666666</ele><time>2026-04-12T11:06:52.884Z</time></trkpt><trkpt lat="42.7255806" lon="12.4999372"><ele>205.0</ele><time>2026-04-12T11:06:53.869Z</time></trkpt><trkpt lat="42.7256614" lon="12.4997073"><ele>204.33333333333331</ele><time>2026-04-12T11:06:54.873Z</time></trkpt><trkpt lat="42.7257463" lon="12.4994733"><ele>203.66666666666669</ele><time>2026-04-12T11:06:55.878Z</time></trkpt><trkpt lat="42.7258376" lon="12.4992411"><ele>203.0</ele><time>2026-04-12T11:06:56.869Z</time></trkpt><trkpt lat="42.7259291" lon="12.4990037"><ele>203.0</ele><time>2026-04-12T11:06:57.878Z</time></trkpt><trkpt lat="42.7260225" lon="12.4987695"><ele>203.0</ele><time>2026-04-12T11:06:58.869Z</time></trkpt><trkpt lat="42.7261116" lon="12.4985439"><ele>203.0</ele><time>2026-04-12T11:06:59.88Z</time></trkpt><trkpt lat="42.7261913" lon="12.4983321"><ele>204.66666666666669</ele><time>2026-04-12T11:07:00.872Z</time></trkpt><trkpt lat="42.7262492" lon="12.4981216"><ele>206.33333333333331</ele><time>2026-04-12T11:07:01.88Z</time></trkpt><trkpt lat="42.72628" lon="12.4979024"><ele>208.0</ele><time>2026-04-12T11:07:02.876Z</time></trkpt><trkpt lat="42.7262863" lon="12.4976745"><ele>209.33333333333331</ele><time>2026-04-12T11:07:03.887Z</time></trkpt><trkpt lat="42.7262734" lon="12.4974316"><ele>210.66666666666669</ele><time>2026-04-12T11:07:04.881Z</time></trkpt><trkpt lat="42.7262463" lon="12.4971885"><ele>212.0</ele><time>2026-04-12T11:07:05.869Z</time></trkpt><trkpt lat="42.7262048" lon="12.4969406"><ele>214.0</ele><time>2026-04-12T11:07:06.873Z</time></trkpt><trkpt lat="42.7261588" lon="12.4966876"><ele>216.0</ele><time>2026-04-12T11:07:07.87Z</time></trkpt><trkpt lat="42.7261135" lon="12.4964283"><ele>218.0</ele><time>2026-04-12T11:07:08.865Z</time></trkpt><trkpt lat="42.726067" lon="12.4961692"><ele>214.0</ele><time>2026-04-12T11:07:09.868Z</time></trkpt><trkpt lat="42.7260188" lon="12.4958982"><ele>210.0</ele><time>2026-04-12T11:07:10.874Z</time></trkpt><trkpt lat="42.7259693" lon="12.4956247"><ele>206.0</ele><time>2026-04-12T11:07:11.865Z</time></trkpt><trkpt lat="42.7259201" lon="12.495351"><ele>206.0</ele><time>2026-04-12T11:07:12.865Z</time></trkpt><trkpt lat="42.7258719" lon="12.4950787"><ele>206.0</ele><time>2026-04-12T11:07:13.874Z</time></trkpt><trkpt lat="42.7258212" lon="12.4947962"><ele>206.0</ele><time>2026-04-12T11:07:14.871Z</time></trkpt><trkpt lat="42.7257758" lon="12.4945086"><ele>206.33333333333334</ele><time>2026-04-12T11:07:15.875Z</time></trkpt><trkpt lat="42.7257302" lon="12.4942325"><ele>206.66666666666669</ele><time>2026-04-12T11:07:16.878Z</time></trkpt><trkpt lat="42.7256951" lon="12.4939726"><ele>207.0</ele><time>2026-04-12T11:07:17.879Z</time></trkpt><trkpt lat="42.7256878" lon="12.4937205"><ele>207.0</ele><time>2026-04-12T11:07:18.875Z</time></trkpt><trkpt lat="42.7257055" lon="12.4934692"><ele>207.0</ele><time>2026-04-12T11:07:19.867Z</time></trkpt><trkpt lat="42.7257517" lon="12.493214"><ele>207.0</ele><time>2026-04-12T11:07:20.873Z</time></trkpt><trkpt lat="42.7258103" lon="12.4929698"><ele>206.0</ele><time>2026-04-12T11:07:21.873Z</time></trkpt><trkpt lat="42.7258787" lon="12.4927206"><ele>205.0</ele><time>2026-04-12T11:07:22.873Z</time></trkpt><trkpt lat="42.7259433" lon="12.4924697"><ele>204.0</ele><time>2026-04-12T11:07:23.874Z</time></trkpt><trkpt lat="42.7260045" lon="12.4922252"><ele>204.0</ele><time>2026-04-12T11:07:24.876Z</time></trkpt><trkpt lat="42.7260496" lon="12.4919868"><ele>204.0</ele><time>2026-04-12T11:07:25.862Z</time></trkpt><trkpt lat="42.7260771" lon="12.4917423"><ele>204.0</ele><time>2026-04-12T11:07:26.87Z</time></trkpt><trkpt lat="42.7260768" lon="12.4914915"><ele>204.0</ele><time>2026-04-12T11:07:27.885Z</time></trkpt><trkpt lat="42.7260476" lon="12.4912267"><ele>204.0</ele><time>2026-04-12T11:07:28.88Z</time></trkpt><trkpt lat="42.725973" lon="12.4907004"><ele>204.0</ele><time>2026-04-12T11:07:30.87Z</time></trkpt><trkpt lat="42.7259372" lon="12.4904316"><ele>204.0</ele><time>2026-04-12T11:07:31.876Z</time></trkpt><trkpt lat="42.7258999" lon="12.4901568"><ele>204.0</ele><time>2026-04-12T11:07:32.873Z</time></trkpt><trkpt lat="42.725866" lon="12.4898833"><ele>204.0</ele><time>2026-04-12T11:07:33.88Z</time></trkpt><trkpt lat="42.7258306" lon="12.4896016"><ele>204.0</ele><time>2026-04-12T11:07:34.876Z</time></trkpt><trkpt lat="42.7257958" lon="12.489316"><ele>204.0</ele><time>2026-04-12T11:07:35.869Z</time></trkpt><trkpt lat="42.7257715" lon="12.489034"><ele>204.66666666666669</ele><time>2026-04-12T11:07:36.871Z</time></trkpt><trkpt lat="42.7257609" lon="12.4887637"><ele>205.33333333333334</ele><time>2026-04-12T11:07:37.872Z</time></trkpt><trkpt lat="42.7257779" lon="12.4885014"><ele>206.0</ele><time>2026-04-12T11:07:38.864Z</time></trkpt><trkpt lat="42.7258281" lon="12.488256"><ele>206.66666666666669</ele><time>2026-04-12T11:07:39.869Z</time></trkpt><trkpt lat="42.7259057" lon="12.4880093"><ele>207.33333333333331</ele><time>2026-04-12T11:07:40.875Z</time></trkpt><trkpt lat="42.7260053" lon="12.4877778"><ele>208.0</ele><time>2026-04-12T11:07:41.874Z</time></trkpt><trkpt lat="42.7261171" lon="12.4875466"><ele>207.33333333333331</ele><time>2026-04-12T11:07:42.881Z</time></trkpt><trkpt lat="42.7262288" lon="12.4873071"><ele>206.66666666666669</ele><time>2026-04-12T11:07:43.873Z</time></trkpt><trkpt lat="42.7263467" lon="12.4870626"><ele>206.0</ele><time>2026-04-12T11:07:44.871Z</time></trkpt><trkpt lat="42.726465" lon="12.486818"><ele>206.0</ele><time>2026-04-12T11:07:45.868Z</time></trkpt><trkpt lat="42.7265816" lon="12.4865717"><ele>206.0</ele><time>2026-04-12T11:07:46.87Z</time></trkpt><trkpt lat="42.7266981" lon="12.4863272"><ele>206.0</ele><time>2026-04-12T11:07:47.881Z</time></trkpt><trkpt lat="42.7268119" lon="12.4860812"><ele>209.0</ele><time>2026-04-12T11:07:48.876Z</time></trkpt><trkpt lat="42.7269266" lon="12.4858441"><ele>212.0</ele><time>2026-04-12T11:07:49.868Z</time></trkpt><trkpt lat="42.7270471" lon="12.485603"><ele>215.0</ele><time>2026-04-12T11:07:50.872Z</time></trkpt><trkpt lat="42.7271672" lon="12.4853608"><ele>215.0</ele><time>2026-04-12T11:07:51.869Z</time></trkpt><trkpt lat="42.7272836" lon="12.4851165"><ele>215.0</ele><time>2026-04-12T11:07:52.884Z</time></trkpt><trkpt lat="42.7273995" lon="12.4848674"><ele>215.0</ele><time>2026-04-12T11:07:53.865Z</time></trkpt><trkpt lat="42.7275112" lon="12.4846207"><ele>214.33333333333334</ele><time>2026-04-12T11:07:54.868Z</time></trkpt><trkpt lat="42.7276177" lon="12.484373"><ele>213.66666666666669</ele><time>2026-04-12T11:07:55.867Z</time></trkpt><trkpt lat="42.7277086" lon="12.4841309"><ele>213.0</ele><time>2026-04-12T11:07:56.882Z</time></trkpt><trkpt lat="42.7277805" lon="12.4838904"><ele>216.33333333333331</ele><time>2026-04-12T11:07:57.87Z</time></trkpt><trkpt lat="42.7278188" lon="12.4836455"><ele>219.66666666666666</ele><time>2026-04-12T11:07:58.874Z</time></trkpt><trkpt lat="42.7278292" lon="12.4833908"><ele>223.0</ele><time>2026-04-12T11:07:59.863Z</time></trkpt><trkpt lat="42.7278165" lon="12.4831378"><ele>224.66666666666666</ele><time>2026-04-12T11:08:00.876Z</time></trkpt><trkpt lat="42.7277815" lon="12.4828785"><ele>226.33333333333331</ele><time>2026-04-12T11:08:01.872Z</time></trkpt><trkpt lat="42.7277334" lon="12.4826166"><ele>228.0</ele><time>2026-04-12T11:08:02.881Z</time></trkpt><trkpt lat="42.7276894" lon="12.4823543"><ele>227.0</ele><time>2026-04-12T11:08:03.877Z</time></trkpt><trkpt lat="42.7276527" lon="12.4820979"><ele>226.0</ele><time>2026-04-12T11:08:04.873Z</time></trkpt><trkpt lat="42.7276249" lon="12.4818582"><ele>225.0</ele><time>2026-04-12T11:08:05.86Z</time></trkpt><trkpt lat="42.7276159" lon="12.4816441"><ele>225.0</ele><time>2026-04-12T11:08:06.871Z</time></trkpt><trkpt lat="42.7276503" lon="12.4814452"><ele>225.0</ele><time>2026-04-12T11:08:07.862Z</time></trkpt><trkpt lat="42.7277277" lon="12.4812684"><ele>225.0</ele><time>2026-04-12T11:08:08.882Z</time></trkpt><trkpt lat="42.7278441" lon="12.4811264"><ele>228.0</ele><time>2026-04-12T11:08:09.883Z</time></trkpt><trkpt lat="42.7279821" lon="12.4809919"><ele>231.0</ele><time>2026-04-12T11:08:10.87Z</time></trkpt><trkpt lat="42.7281302" lon="12.4808568"><ele>234.0</ele><time>2026-04-12T11:08:11.869Z</time></trkpt><trkpt lat="42.7282848" lon="12.4807114"><ele>234.0</ele><time>2026-04-12T11:08:12.877Z</time></trkpt><trkpt lat="42.7284316" lon="12.4805544"><ele>234.0</ele><time>2026-04-12T11:08:13.87Z</time></trkpt><trkpt lat="42.7285607" lon="12.4803784"><ele>234.0</ele><time>2026-04-12T11:08:14.876Z</time></trkpt><trkpt lat="42.7286654" lon="12.4801834"><ele>236.0</ele><time>2026-04-12T11:08:15.893Z</time></trkpt><trkpt lat="42.7287469" lon="12.4799502"><ele>238.0</ele><time>2026-04-12T11:08:16.875Z</time></trkpt><trkpt lat="42.7288007" lon="12.479698"><ele>240.0</ele><time>2026-04-12T11:08:17.875Z</time></trkpt><trkpt lat="42.7288314" lon="12.4794301"><ele>240.0</ele><time>2026-04-12T11:08:18.88Z</time></trkpt><trkpt lat="42.7288577" lon="12.479152"><ele>240.0</ele><time>2026-04-12T11:08:19.881Z</time></trkpt><trkpt lat="42.7288853" lon="12.4788772"><ele>240.0</ele><time>2026-04-12T11:08:20.865Z</time></trkpt><trkpt lat="42.7289169" lon="12.4786148"><ele>240.66666666666669</ele><time>2026-04-12T11:08:21.885Z</time></trkpt><trkpt lat="42.728957" lon="12.478383"><ele>241.33333333333334</ele><time>2026-04-12T11:08:22.872Z</time></trkpt><trkpt lat="42.7290279" lon="12.4781956"><ele>242.0</ele><time>2026-04-12T11:08:23.867Z</time></trkpt><trkpt lat="42.7291403" lon="12.4780628"><ele>242.0</ele><time>2026-04-12T11:08:24.869Z</time></trkpt><trkpt lat="42.7292768" lon="12.4779695"><ele>242.0</ele><time>2026-04-12T11:08:25.864Z</time></trkpt><trkpt lat="42.7294395" lon="12.4779253"><ele>242.0</ele><time>2026-04-12T11:08:26.871Z</time></trkpt><trkpt lat="42.7296084" lon="12.4779025"><ele>240.66666666666669</ele><time>2026-04-12T11:08:27.877Z</time></trkpt><trkpt lat="42.7298003" lon="12.4778963"><ele>239.33333333333331</ele><time>2026-04-12T11:08:28.879Z</time></trkpt><trkpt lat="42.7299993" lon="12.4778877"><ele>238.0</ele><time>2026-04-12T11:08:29.882Z</time></trkpt><trkpt lat="42.7302111" lon="12.4778749"><ele>239.33333333333331</ele><time>2026-04-12T11:08:30.871Z</time></trkpt><trkpt lat="42.7304276" lon="12.4778523"><ele>240.66666666666669</ele><time>2026-04-12T11:08:31.872Z</time></trkpt><trkpt lat="42.7306572" lon="12.4778327"><ele>242.0</ele><time>2026-04-12T11:08:32.876Z</time></trkpt><trkpt lat="42.7308833" lon="12.4778103"><ele>241.66666666666669</ele><time>2026-04-12T11:08:33.871Z</time></trkpt><trkpt lat="42.7310898" lon="12.4777912"><ele>241.33333333333331</ele><time>2026-04-12T11:08:34.869Z</time></trkpt><trkpt lat="42.7312835" lon="12.4777984"><ele>241.0</ele><time>2026-04-12T11:08:35.879Z</time></trkpt><trkpt lat="42.731454" lon="12.4778456"><ele>241.0</ele><time>2026-04-12T11:08:36.875Z</time></trkpt><trkpt lat="42.7316164" lon="12.477934"><ele>241.0</ele><time>2026-04-12T11:08:37.865Z</time></trkpt><trkpt lat="42.7317547" lon="12.4780722"><ele>241.0</ele><time>2026-04-12T11:08:38.865Z</time></trkpt><trkpt lat="42.7318791" lon="12.4782497"><ele>242.0</ele><time>2026-04-12T11:08:39.867Z</time></trkpt><trkpt lat="42.731984" lon="12.4784303"><ele>243.0</ele><time>2026-04-12T11:08:40.875Z</time></trkpt><trkpt lat="42.7320726" lon="12.4785982"><ele>244.0</ele><time>2026-04-12T11:08:41.865Z</time></trkpt><trkpt lat="42.7321717" lon="12.478753"><ele>247.0</ele><time>2026-04-12T11:08:42.879Z</time></trkpt><trkpt lat="42.7322734" lon="12.4788717"><ele>250.0</ele><time>2026-04-12T11:08:43.865Z</time></trkpt><trkpt lat="42.7323829" lon="12.4789727"><ele>253.0</ele><time>2026-04-12T11:08:44.859Z</time></trkpt><trkpt lat="42.7325121" lon="12.4790538"><ele>256.0</ele><time>2026-04-12T11:08:45.857Z</time></trkpt><trkpt lat="42.7326483" lon="12.4791092"><ele>256.0</ele><time>2026-04-12T11:08:46.859Z</time></trkpt><trkpt lat="42.7327909" lon="12.4791452"><ele>256.0</ele><time>2026-04-12T11:08:47.857Z</time></trkpt><trkpt lat="42.7329356" lon="12.4791774"><ele>256.0</ele><time>2026-04-12T11:08:48.878Z</time></trkpt><trkpt lat="42.7330719" lon="12.4792078"><ele>256.0</ele><time>2026-04-12T11:08:49.861Z</time></trkpt><trkpt lat="42.7331984" lon="12.4792421"><ele>256.0</ele><time>2026-04-12T11:08:50.869Z</time></trkpt><trkpt lat="42.7333121" lon="12.4792907"><ele>256.0</ele><time>2026-04-12T11:08:51.861Z</time></trkpt><trkpt lat="42.7334164" lon="12.479347"><ele>256.0</ele><time>2026-04-12T11:08:52.868Z</time></trkpt><trkpt lat="42.7335146" lon="12.4794257"><ele>256.0</ele><time>2026-04-12T11:08:53.877Z</time></trkpt><trkpt lat="42.7336132" lon="12.4795053"><ele>256.5</ele><time>2026-04-12T11:08:54.872Z</time></trkpt><trkpt lat="42.7337182" lon="12.4795914"><ele>257.0</ele><time>2026-04-12T11:08:55.869Z</time></trkpt><trkpt lat="42.7338244" lon="12.4796761"><ele>257.5</ele><time>2026-04-12T11:08:56.871Z</time></trkpt><trkpt lat="42.7339335" lon="12.4797646"><ele>258.0</ele><time>2026-04-12T11:08:57.871Z</time></trkpt><trkpt lat="42.7340451" lon="12.4798584"><ele>258.0</ele><time>2026-04-12T11:08:58.873Z</time></trkpt><trkpt lat="42.7341552" lon="12.4799608"><ele>258.0</ele><time>2026-04-12T11:08:59.881Z</time></trkpt><trkpt lat="42.7342577" lon="12.4800701"><ele>258.0</ele><time>2026-04-12T11:09:00.869Z</time></trkpt><trkpt lat="42.7343694" lon="12.4801828"><ele>258.0</ele><time>2026-04-12T11:09:01.876Z</time></trkpt><trkpt lat="42.7344912" lon="12.4802821"><ele>259.6666666666667</ele><time>2026-04-12T11:09:02.897Z</time></trkpt><trkpt lat="42.7346279" lon="12.480371"><ele>261.33333333333337</ele><time>2026-04-12T11:09:03.863Z</time></trkpt><trkpt lat="42.7347683" lon="12.480454"><ele>263.0</ele><time>2026-04-12T11:09:04.86Z</time></trkpt><trkpt lat="42.7349135" lon="12.480535"><ele>263.0</ele><time>2026-04-12T11:09:05.87Z</time></trkpt><trkpt lat="42.735067" lon="12.4806319"><ele>263.0</ele><time>2026-04-12T11:09:06.875Z</time></trkpt><trkpt lat="42.7352203" lon="12.4807418"><ele>263.0</ele><time>2026-04-12T11:09:07.862Z</time></trkpt><trkpt lat="42.7353688" lon="12.4808631"><ele>260.33333333333337</ele><time>2026-04-12T11:09:08.87Z</time></trkpt><trkpt lat="42.7355151" lon="12.4809925"><ele>257.6666666666667</ele><time>2026-04-12T11:09:09.863Z</time></trkpt><trkpt lat="42.735666" lon="12.4811234"><ele>255.0</ele><time>2026-04-12T11:09:10.872Z</time></trkpt><trkpt lat="42.7358131" lon="12.481246"><ele>257.0</ele><time>2026-04-12T11:09:11.865Z</time></trkpt><trkpt lat="42.7359474" lon="12.4813571"><ele>259.0</ele><time>2026-04-12T11:09:12.873Z</time></trkpt><trkpt lat="42.7360871" lon="12.4814589"><ele>261.0</ele><time>2026-04-12T11:09:13.866Z</time></trkpt><trkpt lat="42.7362363" lon="12.4815457"><ele>261.0</ele><time>2026-04-12T11:09:14.865Z</time></trkpt><trkpt lat="42.7363948" lon="12.4815963"><ele>261.0</ele><time>2026-04-12T11:09:15.86Z</time></trkpt><trkpt lat="42.7365514" lon="12.4816173"><ele>261.0</ele><time>2026-04-12T11:09:16.867Z</time></trkpt><trkpt lat="42.7367127" lon="12.4816172"><ele>261.0</ele><time>2026-04-12T11:09:17.862Z</time></trkpt><trkpt lat="42.7368739" lon="12.4815988"><ele>261.0</ele><time>2026-04-12T11:09:18.879Z</time></trkpt><trkpt lat="42.7370355" lon="12.4815785"><ele>261.0</ele><time>2026-04-12T11:09:19.895Z</time></trkpt><trkpt lat="42.7371856" lon="12.4815618"><ele>262.6666666666667</ele><time>2026-04-12T11:09:20.868Z</time></trkpt><trkpt lat="42.7373321" lon="12.4815472"><ele>264.33333333333337</ele><time>2026-04-12T11:09:21.884Z</time></trkpt><trkpt lat="42.7374841" lon="12.4815478"><ele>266.0</ele><time>2026-04-12T11:09:22.866Z</time></trkpt><trkpt lat="42.7376385" lon="12.4815633"><ele>264.33333333333337</ele><time>2026-04-12T11:09:23.865Z</time></trkpt><trkpt lat="42.7377942" lon="12.4815887"><ele>262.6666666666667</ele><time>2026-04-12T11:09:24.873Z</time></trkpt><trkpt lat="42.7379429" lon="12.4816148"><ele>261.0</ele><time>2026-04-12T11:09:25.879Z</time></trkpt><trkpt lat="42.7380844" lon="12.4816443"><ele>261.0</ele><time>2026-04-12T11:09:26.863Z</time></trkpt><trkpt lat="42.7382244" lon="12.4816825"><ele>261.0</ele><time>2026-04-12T11:09:27.876Z</time></trkpt><trkpt lat="42.7383579" lon="12.4817493"><ele>261.0</ele><time>2026-04-12T11:09:28.865Z</time></trkpt><trkpt lat="42.7384822" lon="12.4818438"><ele>261.0</ele><time>2026-04-12T11:09:29.904Z</time></trkpt><trkpt lat="42.7385906" lon="12.4819787"><ele>261.6666666666667</ele><time>2026-04-12T11:09:30.87Z</time></trkpt><trkpt lat="42.7386759" lon="12.4821451"><ele>262.33333333333337</ele><time>2026-04-12T11:09:31.88Z</time></trkpt><trkpt lat="42.7387551" lon="12.4823252"><ele>263.0</ele><time>2026-04-12T11:09:32.864Z</time></trkpt><trkpt lat="42.7388299" lon="12.4824972"><ele>263.0</ele><time>2026-04-12T11:09:33.864Z</time></trkpt><trkpt lat="42.738918" lon="12.4826453"><ele>263.0</ele><time>2026-04-12T11:09:34.862Z</time></trkpt><trkpt lat="42.7390284" lon="12.4827761"><ele>263.0</ele><time>2026-04-12T11:09:35.887Z</time></trkpt><trkpt lat="42.7391605" lon="12.4828806"><ele>263.0</ele><time>2026-04-12T11:09:36.869Z</time></trkpt><trkpt lat="42.7393031" lon="12.4829621"><ele>265.33333333333337</ele><time>2026-04-12T11:09:37.871Z</time></trkpt><trkpt lat="42.7394593" lon="12.4830303"><ele>267.6666666666667</ele><time>2026-04-12T11:09:38.868Z</time></trkpt><trkpt lat="42.7396127" lon="12.4830904"><ele>270.0</ele><time>2026-04-12T11:09:39.878Z</time></trkpt><trkpt lat="42.7397748" lon="12.4831292"><ele>270.0</ele><time>2026-04-12T11:09:40.875Z</time></trkpt><trkpt lat="42.7399436" lon="12.4831336"><ele>270.0</ele><time>2026-04-12T11:09:41.866Z</time></trkpt><trkpt lat="42.7401097" lon="12.4831319"><ele>270.0</ele><time>2026-04-12T11:09:42.874Z</time></trkpt><trkpt lat="42.7402672" lon="12.4831354"><ele>271.0</ele><time>2026-04-12T11:09:43.872Z</time></trkpt><trkpt lat="42.7404163" lon="12.4831412"><ele>272.0</ele><time>2026-04-12T11:09:44.877Z</time></trkpt><trkpt lat="42.7405622" lon="12.4831526"><ele>273.0</ele><time>2026-04-12T11:09:45.863Z</time></trkpt><trkpt lat="42.7407051" lon="12.4831746"><ele>274.0</ele><time>2026-04-12T11:09:46.874Z</time></trkpt><trkpt lat="42.7408504" lon="12.4832068"><ele>274.0</ele><time>2026-04-12T11:09:47.865Z</time></trkpt><trkpt lat="42.7409978" lon="12.4832519"><ele>274.0</ele><time>2026-04-12T11:09:48.858Z</time></trkpt><trkpt lat="42.7411429" lon="12.4833092"><ele>274.0</ele><time>2026-04-12T11:09:49.865Z</time></trkpt><trkpt lat="42.7412894" lon="12.4833792"><ele>272.66666666666663</ele><time>2026-04-12T11:09:50.859Z</time></trkpt><trkpt lat="42.7414361" lon="12.4834557"><ele>271.3333333333333</ele><time>2026-04-12T11:09:51.871Z</time></trkpt><trkpt lat="42.741585" lon="12.4835416"><ele>270.0</ele><time>2026-04-12T11:09:52.86Z</time></trkpt><trkpt lat="42.7417398" lon="12.4836214"><ele>271.6666666666667</ele><time>2026-04-12T11:09:53.876Z</time></trkpt><trkpt lat="42.7419036" lon="12.4836895"><ele>273.33333333333337</ele><time>2026-04-12T11:09:54.874Z</time></trkpt><trkpt lat="42.7420707" lon="12.4837335"><ele>275.0</ele><time>2026-04-12T11:09:55.871Z</time></trkpt><trkpt lat="42.7422423" lon="12.4837575"><ele>275.0</ele><time>2026-04-12T11:09:56.867Z</time></trkpt><trkpt lat="42.7424109" lon="12.4837652"><ele>275.0</ele><time>2026-04-12T11:09:57.869Z</time></trkpt><trkpt lat="42.7425712" lon="12.483758"><ele>275.0</ele><time>2026-04-12T11:09:58.853Z</time></trkpt><trkpt lat="42.7427301" lon="12.4837571"><ele>278.33333333333337</ele><time>2026-04-12T11:09:59.864Z</time></trkpt><trkpt lat="42.7428849" lon="12.483757"><ele>281.6666666666667</ele><time>2026-04-12T11:10:00.858Z</time></trkpt><trkpt lat="42.7430382" lon="12.4837492"><ele>285.0</ele><time>2026-04-12T11:10:01.866Z</time></trkpt><trkpt lat="42.7431853" lon="12.4837276"><ele>285.0</ele><time>2026-04-12T11:10:02.863Z</time></trkpt><trkpt lat="42.7433322" lon="12.4836801"><ele>285.0</ele><time>2026-04-12T11:10:03.864Z</time></trkpt><trkpt lat="42.7434773" lon="12.4836034"><ele>285.0</ele><time>2026-04-12T11:10:04.876Z</time></trkpt><trkpt lat="42.7436135" lon="12.4835012"><ele>289.0</ele><time>2026-04-12T11:10:05.87Z</time></trkpt><trkpt lat="42.7437437" lon="12.4833859"><ele>293.0</ele><time>2026-04-12T11:10:06.868Z</time></trkpt><trkpt lat="42.74387" lon="12.483264"><ele>297.0</ele><time>2026-04-12T11:10:07.874Z</time></trkpt><trkpt lat="42.7439968" lon="12.4831361"><ele>297.0</ele><time>2026-04-12T11:10:08.862Z</time></trkpt><trkpt lat="42.744123" lon="12.4829977"><ele>297.0</ele><time>2026-04-12T11:10:09.866Z</time></trkpt><trkpt lat="42.7442302" lon="12.4828571"><ele>297.0</ele><time>2026-04-12T11:10:10.867Z</time></trkpt><trkpt lat="42.7443155" lon="12.4827173"><ele>297.0</ele><time>2026-04-12T11:10:11.866Z</time></trkpt><trkpt lat="42.7443751" lon="12.4825537"><ele>298.75</ele><time>2026-04-12T11:10:12.863Z</time></trkpt><trkpt lat="42.7444089" lon="12.4823769"><ele>300.5</ele><time>2026-04-12T11:10:13.863Z</time></trkpt><trkpt lat="42.7444088" lon="12.4821787"><ele>302.25</ele><time>2026-04-12T11:10:14.871Z</time></trkpt><trkpt lat="42.7443956" lon="12.4819678"><ele>304.0</ele><time>2026-04-12T11:10:15.865Z</time></trkpt><trkpt lat="42.7443809" lon="12.4817465"><ele>299.3333333333333</ele><time>2026-04-12T11:10:16.875Z</time></trkpt><trkpt lat="42.744361" lon="12.4815159"><ele>294.6666666666667</ele><time>2026-04-12T11:10:17.863Z</time></trkpt><trkpt lat="42.7443443" lon="12.4812874"><ele>290.0</ele><time>2026-04-12T11:10:18.871Z</time></trkpt><trkpt lat="42.7443328" lon="12.4810519"><ele>290.0</ele><time>2026-04-12T11:10:19.874Z</time></trkpt><trkpt lat="42.7443146" lon="12.480806"><ele>290.0</ele><time>2026-04-12T11:10:20.865Z</time></trkpt><trkpt lat="42.7442935" lon="12.480564"><ele>290.0</ele><time>2026-04-12T11:10:21.863Z</time></trkpt><trkpt lat="42.7442724" lon="12.4803386"><ele>290.75</ele><time>2026-04-12T11:10:22.871Z</time></trkpt><trkpt lat="42.7442559" lon="12.4801384"><ele>291.5</ele><time>2026-04-12T11:10:23.863Z</time></trkpt><trkpt lat="42.7442392" lon="12.4799542"><ele>292.25</ele><time>2026-04-12T11:10:24.868Z</time></trkpt><trkpt lat="42.7442267" lon="12.4797656"><ele>293.0</ele><time>2026-04-12T11:10:25.866Z</time></trkpt><trkpt lat="42.7442247" lon="12.479574"><ele>293.25</ele><time>2026-04-12T11:10:26.876Z</time></trkpt><trkpt lat="42.7442318" lon="12.4793829"><ele>293.5</ele><time>2026-04-12T11:10:27.872Z</time></trkpt><trkpt lat="42.7442514" lon="12.4791897"><ele>293.75</ele><time>2026-04-12T11:10:28.861Z</time></trkpt><trkpt lat="42.744276" lon="12.4789894"><ele>294.0</ele><time>2026-04-12T11:10:29.867Z</time></trkpt><trkpt lat="42.7443119" lon="12.4787912"><ele>294.3333333333333</ele><time>2026-04-12T11:10:30.869Z</time></trkpt><trkpt lat="42.7443545" lon="12.4785857"><ele>294.66666666666663</ele><time>2026-04-12T11:10:31.862Z</time></trkpt><trkpt lat="42.7444054" lon="12.4783796"><ele>295.0</ele><time>2026-04-12T11:10:32.879Z</time></trkpt><trkpt lat="42.7444638" lon="12.4781733"><ele>299.0</ele><time>2026-04-12T11:10:33.866Z</time></trkpt><trkpt lat="42.7445214" lon="12.4779647"><ele>303.0</ele><time>2026-04-12T11:10:34.875Z</time></trkpt><trkpt lat="42.7445721" lon="12.4777459"><ele>307.0</ele><time>2026-04-12T11:10:35.864Z</time></trkpt><trkpt lat="42.7446115" lon="12.4775233"><ele>307.0</ele><time>2026-04-12T11:10:36.866Z</time></trkpt><trkpt lat="42.7446426" lon="12.477289"><ele>307.0</ele><time>2026-04-12T11:10:37.865Z</time></trkpt><trkpt lat="42.7446688" lon="12.4770515"><ele>307.0</ele><time>2026-04-12T11:10:38.874Z</time></trkpt><trkpt lat="42.7446984" lon="12.4768154"><ele>306.66666666666663</ele><time>2026-04-12T11:10:39.861Z</time></trkpt><trkpt lat="42.7447241" lon="12.4765868"><ele>306.3333333333333</ele><time>2026-04-12T11:10:40.881Z</time></trkpt><trkpt lat="42.7447488" lon="12.4763679"><ele>306.0</ele><time>2026-04-12T11:10:41.864Z</time></trkpt><trkpt lat="42.74477" lon="12.4761611"><ele>306.6666666666667</ele><time>2026-04-12T11:10:42.868Z</time></trkpt><trkpt lat="42.744786" lon="12.4759541"><ele>307.33333333333337</ele><time>2026-04-12T11:10:43.867Z</time></trkpt><trkpt lat="42.7448069" lon="12.4757516"><ele>308.0</ele><time>2026-04-12T11:10:44.87Z</time></trkpt><trkpt lat="42.7448306" lon="12.4755471"><ele>307.75</ele><time>2026-04-12T11:10:45.863Z</time></trkpt><trkpt lat="42.7448495" lon="12.4753396"><ele>307.5</ele><time>2026-04-12T11:10:46.873Z</time></trkpt><trkpt lat="42.7448599" lon="12.4751495"><ele>307.25</ele><time>2026-04-12T11:10:47.866Z</time></trkpt><trkpt lat="42.7448667" lon="12.474972"><ele>307.0</ele><time>2026-04-12T11:10:48.874Z</time></trkpt><trkpt lat="42.744872" lon="12.4748072"><ele>307.0</ele><time>2026-04-12T11:10:49.867Z</time></trkpt><trkpt lat="42.7448706" lon="12.474651"><ele>307.0</ele><time>2026-04-12T11:10:50.878Z</time></trkpt><trkpt lat="42.7448662" lon="12.4745137"><ele>307.0</ele><time>2026-04-12T11:10:51.87Z</time></trkpt><trkpt lat="42.744865" lon="12.4743893"><ele>307.0</ele><time>2026-04-12T11:10:52.866Z</time></trkpt><trkpt lat="42.7448646" lon="12.4742723"><ele>307.0</ele><time>2026-04-12T11:10:53.867Z</time></trkpt><trkpt lat="42.7448687" lon="12.4741718"><ele>306.6</ele><time>2026-04-12T11:10:54.868Z</time></trkpt><trkpt lat="42.7448844" lon="12.4740789"><ele>306.2</ele><time>2026-04-12T11:10:55.88Z</time></trkpt><trkpt lat="42.7449412" lon="12.4739791"><ele>305.8</ele><time>2026-04-12T11:10:57.875Z</time></trkpt><trkpt lat="42.7450249" lon="12.4740309"><ele>305.4</ele><time>2026-04-12T11:10:59.876Z</time></trkpt><trkpt lat="42.7450407" lon="12.4741699"><ele>305.0</ele><time>2026-04-12T11:11:01.873Z</time></trkpt><trkpt lat="42.7450609" lon="12.4743236"><ele>305.0</ele><time>2026-04-12T11:11:03.872Z</time></trkpt><trkpt lat="42.7450763" lon="12.4744185"><ele>305.0</ele><time>2026-04-12T11:11:04.869Z</time></trkpt><trkpt lat="42.7450891" lon="12.4745292"><ele>305.0</ele><time>2026-04-12T11:11:05.867Z</time></trkpt><trkpt lat="42.7451072" lon="12.4746457"><ele>305.0</ele><time>2026-04-12T11:11:06.874Z</time></trkpt><trkpt lat="42.7451286" lon="12.4747675"><ele>305.0</ele><time>2026-04-12T11:11:07.877Z</time></trkpt><trkpt lat="42.7451539" lon="12.4748935"><ele>305.0</ele><time>2026-04-12T11:11:08.868Z</time></trkpt><trkpt lat="42.7451784" lon="12.4750235"><ele>305.1666666666667</ele><time>2026-04-12T11:11:09.875Z</time></trkpt><trkpt lat="42.7452038" lon="12.4751496"><ele>305.33333333333337</ele><time>2026-04-12T11:11:10.867Z</time></trkpt><trkpt lat="42.7452294" lon="12.4752689"><ele>305.5</ele><time>2026-04-12T11:11:11.879Z</time></trkpt><trkpt lat="42.7452545" lon="12.4753825"><ele>305.6666666666667</ele><time>2026-04-12T11:11:12.863Z</time></trkpt><trkpt lat="42.7452799" lon="12.4754801"><ele>305.8333333333333</ele><time>2026-04-12T11:11:13.869Z</time></trkpt><trkpt lat="42.7452983" lon="12.4755623"><ele>306.0</ele><time>2026-04-12T11:11:14.88Z</time></trkpt><trkpt lat="42.7453484" lon="12.4756741"><ele>307.42857142857144</ele><time>2026-04-12T11:11:16.872Z</time></trkpt><trkpt lat="42.7454038" lon="12.475749"><ele>308.8571428571429</ele><time>2026-04-12T11:11:18.868Z</time></trkpt><trkpt lat="42.7454285" lon="12.4758453"><ele>310.28571428571433</ele><time>2026-04-12T11:11:21.869Z</time></trkpt><trkpt lat="42.7454429" lon="12.4759412"><ele>311.7142857142857</ele><time>2026-04-12T11:11:25.865Z</time></trkpt><trkpt lat="42.7454636" lon="12.4760341"><ele>313.14285714285717</ele><time>2026-04-12T11:11:30.866Z</time></trkpt><trkpt lat="42.7454738" lon="12.4760578"><ele>314.5714285714286</ele><time>2026-04-12T11:19:13.873Z</time></trkpt><trkpt lat="42.7455111" lon="12.4761299"><ele>316.0</ele><time>2026-04-12T11:19:16.875Z</time></trkpt><trkpt lat="42.7454942" lon="12.4762345"><ele>316.66666666666663</ele><time>2026-04-12T11:19:18.883Z</time></trkpt><trkpt lat="42.7454752" lon="12.4763273"><ele>317.3333333333333</ele><time>2026-04-12T11:19:20.875Z</time></trkpt><trkpt lat="42.745475" lon="12.476468"><ele>318.0</ele><time>2026-04-12T11:19:22.884Z</time></trkpt><trkpt lat="42.7454897" lon="12.4765595"><ele>318.6666666666667</ele><time>2026-04-12T11:19:23.888Z</time></trkpt><trkpt lat="42.7455085" lon="12.4766655"><ele>319.33333333333337</ele><time>2026-04-12T11:19:24.873Z</time></trkpt><trkpt lat="42.7455338" lon="12.4767888"><ele>320.0</ele><time>2026-04-12T11:19:25.883Z</time></trkpt><trkpt lat="42.7455588" lon="12.4769207"><ele>320.0</ele><time>2026-04-12T11:19:26.867Z</time></trkpt><trkpt lat="42.7455845" lon="12.4770595"><ele>320.0</ele><time>2026-04-12T11:19:27.87Z</time></trkpt><trkpt lat="42.7456125" lon="12.4772082"><ele>320.0</ele><time>2026-04-12T11:19:28.876Z</time></trkpt><trkpt lat="42.7456392" lon="12.477369"><ele>320.0</ele><time>2026-04-12T11:19:29.884Z</time></trkpt><trkpt lat="42.7456688" lon="12.4775307"><ele>321.0</ele><time>2026-04-12T11:19:30.869Z</time></trkpt><trkpt lat="42.7457035" lon="12.4777005"><ele>322.0</ele><time>2026-04-12T11:19:31.885Z</time></trkpt><trkpt lat="42.7457398" lon="12.4778764"><ele>323.0</ele><time>2026-04-12T11:19:32.872Z</time></trkpt><trkpt lat="42.7457721" lon="12.478048"><ele>324.0</ele><time>2026-04-12T11:19:33.873Z</time></trkpt><trkpt lat="42.7458021" lon="12.4782177"><ele>324.4</ele><time>2026-04-12T11:19:34.872Z</time></trkpt><trkpt lat="42.745835" lon="12.4783845"><ele>324.79999999999995</ele><time>2026-04-12T11:19:35.874Z</time></trkpt><trkpt lat="42.745863" lon="12.4785417"><ele>325.20000000000005</ele><time>2026-04-12T11:19:36.883Z</time></trkpt><trkpt lat="42.745891" lon="12.478683"><ele>325.6</ele><time>2026-04-12T11:19:37.882Z</time></trkpt><trkpt lat="42.7459146" lon="12.4788094"><ele>326.0</ele><time>2026-04-12T11:19:38.873Z</time></trkpt><trkpt lat="42.745939" lon="12.4789251"><ele>326.0</ele><time>2026-04-12T11:19:39.891Z</time></trkpt><trkpt lat="42.7459669" lon="12.4790402"><ele>326.0</ele><time>2026-04-12T11:19:40.87Z</time></trkpt><trkpt lat="42.7459845" lon="12.4791533"><ele>326.0</ele><time>2026-04-12T11:19:41.895Z</time></trkpt><trkpt lat="42.7460021" lon="12.4792666"><ele>326.0</ele><time>2026-04-12T11:19:42.895Z</time></trkpt><trkpt lat="42.7460199" lon="12.4793796"><ele>326.0</ele><time>2026-04-12T11:19:43.872Z</time></trkpt><trkpt lat="42.7460383" lon="12.4794901"><ele>326.0</ele><time>2026-04-12T11:19:44.886Z</time></trkpt><trkpt lat="42.7460511" lon="12.4796026"><ele>328.1666666666667</ele><time>2026-04-12T11:19:45.879Z</time></trkpt><trkpt lat="42.7460649" lon="12.4797161"><ele>330.33333333333337</ele><time>2026-04-12T11:19:46.871Z</time></trkpt><trkpt lat="42.7460776" lon="12.4798259"><ele>332.5</ele><time>2026-04-12T11:19:47.876Z</time></trkpt><trkpt lat="42.7460878" lon="12.4799345"><ele>334.6666666666667</ele><time>2026-04-12T11:19:48.88Z</time></trkpt><trkpt lat="42.7460956" lon="12.4800466"><ele>336.8333333333333</ele><time>2026-04-12T11:19:49.881Z</time></trkpt><trkpt lat="42.7461065" lon="12.4801629"><ele>339.0</ele><time>2026-04-12T11:19:50.872Z</time></trkpt><trkpt lat="42.7461149" lon="12.4802801"><ele>339.0</ele><time>2026-04-12T11:19:51.878Z</time></trkpt><trkpt lat="42.746124" lon="12.4804014"><ele>339.0</ele><time>2026-04-12T11:19:52.881Z</time></trkpt><trkpt lat="42.7461353" lon="12.4805296"><ele>339.0</ele><time>2026-04-12T11:19:53.882Z</time></trkpt><trkpt lat="42.7461458" lon="12.4806696"><ele>339.0</ele><time>2026-04-12T11:19:54.875Z</time></trkpt><trkpt lat="42.7461552" lon="12.4808169"><ele>339.0</ele><time>2026-04-12T11:19:55.87Z</time></trkpt><trkpt lat="42.7461651" lon="12.4809729"><ele>339.25</ele><time>2026-04-12T11:19:56.878Z</time></trkpt><trkpt lat="42.7461756" lon="12.4811382"><ele>339.5</ele><time>2026-04-12T11:19:57.883Z</time></trkpt><trkpt lat="42.7461896" lon="12.4813054"><ele>339.75</ele><time>2026-04-12T11:19:58.874Z</time></trkpt><trkpt lat="42.746196" lon="12.4814716"><ele>340.0</ele><time>2026-04-12T11:19:59.878Z</time></trkpt><trkpt lat="42.7461976" lon="12.4816232"><ele>340.0</ele><time>2026-04-12T11:20:00.88Z</time></trkpt><trkpt lat="42.7461957" lon="12.48176"><ele>340.0</ele><time>2026-04-12T11:20:01.883Z</time></trkpt><trkpt lat="42.7461923" lon="12.4818827"><ele>340.0</ele><time>2026-04-12T11:20:02.878Z</time></trkpt><trkpt lat="42.7461863" lon="12.4820022"><ele>340.0</ele><time>2026-04-12T11:20:03.876Z</time></trkpt><trkpt lat="42.7461796" lon="12.4821253"><ele>340.0</ele><time>2026-04-12T11:20:04.888Z</time></trkpt><trkpt lat="42.7461639" lon="12.4822523"><ele>340.0</ele><time>2026-04-12T11:20:05.877Z</time></trkpt><trkpt lat="42.7461452" lon="12.4823786"><ele>340.0</ele><time>2026-04-12T11:20:06.885Z</time></trkpt><trkpt lat="42.7461268" lon="12.482512"><ele>340.0</ele><time>2026-04-12T11:20:07.887Z</time></trkpt><trkpt lat="42.7461095" lon="12.482643"><ele>340.0</ele><time>2026-04-12T11:20:08.876Z</time></trkpt><trkpt lat="42.7460931" lon="12.4827822"><ele>340.0</ele><time>2026-04-12T11:20:09.881Z</time></trkpt><trkpt lat="42.7460796" lon="12.4829198"><ele>340.2</ele><time>2026-04-12T11:20:10.874Z</time></trkpt><trkpt lat="42.7460683" lon="12.4830582"><ele>340.4</ele><time>2026-04-12T11:20:11.887Z</time></trkpt><trkpt lat="42.7460666" lon="12.4831867"><ele>340.6</ele><time>2026-04-12T11:20:12.876Z</time></trkpt><trkpt lat="42.7460744" lon="12.4833153"><ele>340.8</ele><time>2026-04-12T11:20:13.875Z</time></trkpt><trkpt lat="42.7460951" lon="12.4834395"><ele>341.0</ele><time>2026-04-12T11:20:14.878Z</time></trkpt><trkpt lat="42.7461308" lon="12.4835647"><ele>341.0</ele><time>2026-04-12T11:20:15.873Z</time></trkpt><trkpt lat="42.7461719" lon="12.483684"><ele>341.0</ele><time>2026-04-12T11:20:16.867Z</time></trkpt><trkpt lat="42.7462152" lon="12.4838067"><ele>341.0</ele><time>2026-04-12T11:20:17.883Z</time></trkpt><trkpt lat="42.7462632" lon="12.483929"><ele>341.0</ele><time>2026-04-12T11:20:18.875Z</time></trkpt><trkpt lat="42.7463093" lon="12.4840529"><ele>341.0</ele><time>2026-04-12T11:20:19.876Z</time></trkpt><trkpt lat="42.7463581" lon="12.4841754"><ele>340.83333333333337</ele><time>2026-04-12T11:20:20.875Z</time></trkpt><trkpt lat="42.7464079" lon="12.4842968"><ele>340.6666666666667</ele><time>2026-04-12T11:20:21.892Z</time></trkpt><trkpt lat="42.7464532" lon="12.4844139"><ele>340.5</ele><time>2026-04-12T11:20:22.86Z</time></trkpt><trkpt lat="42.7464895" lon="12.4845103"><ele>340.3333333333333</ele><time>2026-04-12T11:20:23.876Z</time></trkpt><trkpt lat="42.7465213" lon="12.4845961"><ele>340.16666666666663</ele><time>2026-04-12T11:20:24.884Z</time></trkpt><trkpt lat="42.746562" lon="12.4847008"><ele>340.0</ele><time>2026-04-12T11:20:26.874Z</time></trkpt><trkpt lat="42.746604" lon="12.4847848"><ele>340.8333333333333</ele><time>2026-04-12T11:20:30.868Z</time></trkpt><trkpt lat="42.7466468" lon="12.4848529"><ele>341.66666666666663</ele><time>2026-04-12T11:20:35.876Z</time></trkpt><trkpt lat="42.746682" lon="12.484942"><ele>342.5</ele><time>2026-04-12T11:20:57.874Z</time></trkpt><trkpt lat="42.7467117" lon="12.4850205"><ele>343.3333333333333</ele><time>2026-04-12T11:20:58.866Z</time></trkpt><trkpt lat="42.7467448" lon="12.4851236"><ele>344.1666666666667</ele><time>2026-04-12T11:20:59.875Z</time></trkpt><trkpt lat="42.7467826" lon="12.4852484"><ele>345.0</ele><time>2026-04-12T11:21:00.868Z</time></trkpt><trkpt lat="42.7468186" lon="12.4853808"><ele>345.75</ele><time>2026-04-12T11:21:01.868Z</time></trkpt><trkpt lat="42.7468526" lon="12.4855261"><ele>346.5</ele><time>2026-04-12T11:21:02.872Z</time></trkpt><trkpt lat="42.7468862" lon="12.4856755"><ele>347.25</ele><time>2026-04-12T11:21:03.872Z</time></trkpt><trkpt lat="42.7469169" lon="12.485839"><ele>348.0</ele><time>2026-04-12T11:21:04.876Z</time></trkpt><trkpt lat="42.7469456" lon="12.4860117"><ele>343.75</ele><time>2026-04-12T11:21:05.873Z</time></trkpt><trkpt lat="42.74697" lon="12.4861856"><ele>339.5</ele><time>2026-04-12T11:21:06.879Z</time></trkpt><trkpt lat="42.7469927" lon="12.4863588"><ele>335.25</ele><time>2026-04-12T11:21:07.885Z</time></trkpt><trkpt lat="42.7470118" lon="12.48653"><ele>331.0</ele><time>2026-04-12T11:21:08.876Z</time></trkpt><trkpt lat="42.7470401" lon="12.4867019"><ele>330.25</ele><time>2026-04-12T11:21:09.87Z</time></trkpt><trkpt lat="42.7470785" lon="12.4868658"><ele>329.5</ele><time>2026-04-12T11:21:10.871Z</time></trkpt><trkpt lat="42.7471277" lon="12.487022"><ele>328.75</ele><time>2026-04-12T11:21:11.874Z</time></trkpt><trkpt lat="42.7471904" lon="12.4871682"><ele>328.0</ele><time>2026-04-12T11:21:12.879Z</time></trkpt><trkpt lat="42.7472598" lon="12.4873121"><ele>329.5</ele><time>2026-04-12T11:21:13.887Z</time></trkpt><trkpt lat="42.7473277" lon="12.4874474"><ele>331.0</ele><time>2026-04-12T11:21:14.868Z</time></trkpt><trkpt lat="42.7473967" lon="12.4875726"><ele>332.5</ele><time>2026-04-12T11:21:15.88Z</time></trkpt><trkpt lat="42.7474663" lon="12.4876889"><ele>334.0</ele><time>2026-04-12T11:21:16.874Z</time></trkpt><trkpt lat="42.7475418" lon="12.4877968"><ele>334.0</ele><time>2026-04-12T11:21:17.871Z</time></trkpt><trkpt lat="42.7476226" lon="12.4878941"><ele>334.0</ele><time>2026-04-12T11:21:18.876Z</time></trkpt><trkpt lat="42.7477093" lon="12.4879877"><ele>334.0</ele><time>2026-04-12T11:21:19.882Z</time></trkpt><trkpt lat="42.7478022" lon="12.48808"><ele>334.0</ele><time>2026-04-12T11:21:20.895Z</time></trkpt><trkpt lat="42.7479029" lon="12.4881723"><ele>334.75</ele><time>2026-04-12T11:21:21.868Z</time></trkpt><trkpt lat="42.7480115" lon="12.4882707"><ele>335.5</ele><time>2026-04-12T11:21:22.868Z</time></trkpt><trkpt lat="42.7481198" lon="12.4883729"><ele>336.25</ele><time>2026-04-12T11:21:23.878Z</time></trkpt><trkpt lat="42.748231" lon="12.4884746"><ele>337.0</ele><time>2026-04-12T11:21:24.88Z</time></trkpt><trkpt lat="42.7483467" lon="12.4885842"><ele>337.0</ele><time>2026-04-12T11:21:25.873Z</time></trkpt><trkpt lat="42.7484662" lon="12.4886976"><ele>337.0</ele><time>2026-04-12T11:21:26.872Z</time></trkpt><trkpt lat="42.7485863" lon="12.4888121"><ele>337.0</ele><time>2026-04-12T11:21:27.884Z</time></trkpt><trkpt lat="42.748712" lon="12.4889297"><ele>337.0</ele><time>2026-04-12T11:21:28.881Z</time></trkpt><trkpt lat="42.7488395" lon="12.4890531"><ele>337.3333333333333</ele><time>2026-04-12T11:21:29.876Z</time></trkpt><trkpt lat="42.7489683" lon="12.4891729"><ele>337.6666666666667</ele><time>2026-04-12T11:21:30.876Z</time></trkpt><trkpt lat="42.7490948" lon="12.4892842"><ele>338.0</ele><time>2026-04-12T11:21:31.876Z</time></trkpt><trkpt lat="42.7492191" lon="12.4893957"><ele>338.0</ele><time>2026-04-12T11:21:32.888Z</time></trkpt><trkpt lat="42.7493445" lon="12.4895114"><ele>338.0</ele><time>2026-04-12T11:21:33.877Z</time></trkpt><trkpt lat="42.7494669" lon="12.4896219"><ele>338.0</ele><time>2026-04-12T11:21:34.875Z</time></trkpt><trkpt lat="42.7495831" lon="12.4897263"><ele>338.0</ele><time>2026-04-12T11:21:35.881Z</time></trkpt><trkpt lat="42.7496927" lon="12.489834"><ele>337.5</ele><time>2026-04-12T11:21:36.878Z</time></trkpt><trkpt lat="42.7498043" lon="12.4899387"><ele>337.0</ele><time>2026-04-12T11:21:37.873Z</time></trkpt><trkpt lat="42.7499133" lon="12.4900426"><ele>336.5</ele><time>2026-04-12T11:21:38.891Z</time></trkpt><trkpt lat="42.7500254" lon="12.4901456"><ele>336.0</ele><time>2026-04-12T11:21:39.889Z</time></trkpt><trkpt lat="42.750135" lon="12.4902481"><ele>335.25</ele><time>2026-04-12T11:21:40.878Z</time></trkpt><trkpt lat="42.7502468" lon="12.4903501"><ele>334.5</ele><time>2026-04-12T11:21:41.875Z</time></trkpt><trkpt lat="42.7503481" lon="12.4904498"><ele>333.75</ele><time>2026-04-12T11:21:42.874Z</time></trkpt><trkpt lat="42.7504512" lon="12.4905471"><ele>333.0</ele><time>2026-04-12T11:21:43.887Z</time></trkpt><trkpt lat="42.750559" lon="12.4906446"><ele>335.0</ele><time>2026-04-12T11:21:44.878Z</time></trkpt><trkpt lat="42.7506667" lon="12.4907413"><ele>337.0</ele><time>2026-04-12T11:21:45.88Z</time></trkpt><trkpt lat="42.7507715" lon="12.4908383"><ele>339.0</ele><time>2026-04-12T11:21:46.877Z</time></trkpt><trkpt lat="42.7508812" lon="12.4909369"><ele>341.0</ele><time>2026-04-12T11:21:47.883Z</time></trkpt><trkpt lat="42.7509936" lon="12.4910341"><ele>341.25</ele><time>2026-04-12T11:21:48.879Z</time></trkpt><trkpt lat="42.751107" lon="12.4911354"><ele>341.5</ele><time>2026-04-12T11:21:49.878Z</time></trkpt><trkpt lat="42.75122" lon="12.4912386"><ele>341.75</ele><time>2026-04-12T11:21:50.887Z</time></trkpt><trkpt lat="42.7513322" lon="12.4913396"><ele>342.0</ele><time>2026-04-12T11:21:51.877Z</time></trkpt><trkpt lat="42.7514388" lon="12.4914557"><ele>343.0</ele><time>2026-04-12T11:21:52.887Z</time></trkpt><trkpt lat="42.7515387" lon="12.4915889"><ele>344.0</ele><time>2026-04-12T11:21:53.887Z</time></trkpt><trkpt lat="42.751627" lon="12.4917363"><ele>345.0</ele><time>2026-04-12T11:21:54.879Z</time></trkpt><trkpt lat="42.7517125" lon="12.491896"><ele>346.0</ele><time>2026-04-12T11:21:55.884Z</time></trkpt><trkpt lat="42.7517971" lon="12.4920619"><ele>349.0</ele><time>2026-04-12T11:21:56.864Z</time></trkpt><trkpt lat="42.7518821" lon="12.4922387"><ele>352.0</ele><time>2026-04-12T11:21:57.878Z</time></trkpt><trkpt lat="42.7519631" lon="12.4924255"><ele>355.0</ele><time>2026-04-12T11:21:58.866Z</time></trkpt><trkpt lat="42.7520398" lon="12.4926163"><ele>355.0</ele><time>2026-04-12T11:21:59.871Z</time></trkpt><trkpt lat="42.7521126" lon="12.4928154"><ele>355.0</ele><time>2026-04-12T11:22:00.87Z</time></trkpt><trkpt lat="42.7521932" lon="12.4930131"><ele>355.0</ele><time>2026-04-12T11:22:01.892Z</time></trkpt><trkpt lat="42.7522791" lon="12.4931973"><ele>354.3333333333333</ele><time>2026-04-12T11:22:02.883Z</time></trkpt><trkpt lat="42.7523681" lon="12.4933738"><ele>353.6666666666667</ele><time>2026-04-12T11:22:03.867Z</time></trkpt><trkpt lat="42.7524643" lon="12.4935457"><ele>353.0</ele><time>2026-04-12T11:22:04.88Z</time></trkpt><trkpt lat="42.7525585" lon="12.4937172"><ele>352.0</ele><time>2026-04-12T11:22:05.869Z</time></trkpt><trkpt lat="42.7526509" lon="12.4938825"><ele>351.0</ele><time>2026-04-12T11:22:06.884Z</time></trkpt><trkpt lat="42.7527372" lon="12.4940487"><ele>350.0</ele><time>2026-04-12T11:22:07.876Z</time></trkpt><trkpt lat="42.752827" lon="12.494216"><ele>350.0</ele><time>2026-04-12T11:22:08.879Z</time></trkpt><trkpt lat="42.7529177" lon="12.4943817"><ele>350.0</ele><time>2026-04-12T11:22:09.868Z</time></trkpt><trkpt lat="42.7530117" lon="12.4945452"><ele>350.0</ele><time>2026-04-12T11:22:10.87Z</time></trkpt><trkpt lat="42.7531068" lon="12.4947021"><ele>350.5</ele><time>2026-04-12T11:22:11.874Z</time></trkpt><trkpt lat="42.7532014" lon="12.4948606"><ele>351.0</ele><time>2026-04-12T11:22:12.882Z</time></trkpt><trkpt lat="42.7532952" lon="12.4950176"><ele>351.5</ele><time>2026-04-12T11:22:13.878Z</time></trkpt><trkpt lat="42.7533926" lon="12.4951725"><ele>352.0</ele><time>2026-04-12T11:22:14.87Z</time></trkpt><trkpt lat="42.7534907" lon="12.49533"><ele>352.75</ele><time>2026-04-12T11:22:15.871Z</time></trkpt><trkpt lat="42.7535892" lon="12.495483"><ele>353.5</ele><time>2026-04-12T11:22:16.877Z</time></trkpt><trkpt lat="42.753687" lon="12.4956366"><ele>354.25</ele><time>2026-04-12T11:22:17.877Z</time></trkpt><trkpt lat="42.7537848" lon="12.4957894"><ele>355.0</ele><time>2026-04-12T11:22:18.872Z</time></trkpt><trkpt lat="42.7538827" lon="12.4959374"><ele>355.0</ele><time>2026-04-12T11:22:19.883Z</time></trkpt><trkpt lat="42.7539802" lon="12.496091"><ele>355.0</ele><time>2026-04-12T11:22:20.872Z</time></trkpt><trkpt lat="42.7540754" lon="12.4962393"><ele>355.0</ele><time>2026-04-12T11:22:21.868Z</time></trkpt><trkpt lat="42.754168" lon="12.496389"><ele>355.0</ele><time>2026-04-12T11:22:22.867Z</time></trkpt><trkpt lat="42.7542505" lon="12.4965365"><ele>355.0</ele><time>2026-04-12T11:22:23.881Z</time></trkpt><trkpt lat="42.7543311" lon="12.4966851"><ele>355.0</ele><time>2026-04-12T11:22:24.871Z</time></trkpt><trkpt lat="42.7544135" lon="12.4968363"><ele>355.0</ele><time>2026-04-12T11:22:25.884Z</time></trkpt><trkpt lat="42.7544937" lon="12.4969898"><ele>355.0</ele><time>2026-04-12T11:22:26.865Z</time></trkpt><trkpt lat="42.754583" lon="12.4971503"><ele>354.66666666666663</ele><time>2026-04-12T11:22:27.873Z</time></trkpt><trkpt lat="42.754671" lon="12.497317"><ele>354.3333333333333</ele><time>2026-04-12T11:22:28.868Z</time></trkpt><trkpt lat="42.7547608" lon="12.4974918"><ele>354.0</ele><time>2026-04-12T11:22:29.864Z</time></trkpt><trkpt lat="42.7548556" lon="12.497664"><ele>354.0</ele><time>2026-04-12T11:22:30.877Z</time></trkpt><trkpt lat="42.7549503" lon="12.4978369"><ele>354.0</ele><time>2026-04-12T11:22:31.874Z</time></trkpt><trkpt lat="42.7550437" lon="12.4979998"><ele>354.0</ele><time>2026-04-12T11:22:32.871Z</time></trkpt><trkpt lat="42.755135" lon="12.4981627"><ele>352.0</ele><time>2026-04-12T11:22:33.872Z</time></trkpt><trkpt lat="42.7552238" lon="12.4983303"><ele>350.0</ele><time>2026-04-12T11:22:34.871Z</time></trkpt><trkpt lat="42.7553164" lon="12.498497"><ele>348.0</ele><time>2026-04-12T11:22:35.873Z</time></trkpt><trkpt lat="42.7554096" lon="12.4986563"><ele>350.0</ele><time>2026-04-12T11:22:36.916Z</time></trkpt><trkpt lat="42.7555037" lon="12.4988132"><ele>352.0</ele><time>2026-04-12T11:22:37.864Z</time></trkpt><trkpt lat="42.7556047" lon="12.498961"><ele>354.0</ele><time>2026-04-12T11:22:38.874Z</time></trkpt><trkpt lat="42.7557072" lon="12.4991002"><ele>356.0</ele><time>2026-04-12T11:22:39.883Z</time></trkpt><trkpt lat="42.7558132" lon="12.4992369"><ele>356.0</ele><time>2026-04-12T11:22:40.875Z</time></trkpt><trkpt lat="42.7559162" lon="12.4993659"><ele>356.0</ele><time>2026-04-12T11:22:41.878Z</time></trkpt><trkpt lat="42.75602" lon="12.4994894"><ele>356.0</ele><time>2026-04-12T11:22:42.885Z</time></trkpt><trkpt lat="42.7561317" lon="12.4996041"><ele>356.0</ele><time>2026-04-12T11:22:43.872Z</time></trkpt><trkpt lat="42.7562496" lon="12.4997128"><ele>356.5</ele><time>2026-04-12T11:22:44.879Z</time></trkpt><trkpt lat="42.7563706" lon="12.4998143"><ele>357.0</ele><time>2026-04-12T11:22:45.872Z</time></trkpt><trkpt lat="42.7564945" lon="12.4999164"><ele>357.5</ele><time>2026-04-12T11:22:46.873Z</time></trkpt><trkpt lat="42.7566212" lon="12.5000193"><ele>358.0</ele><time>2026-04-12T11:22:47.874Z</time></trkpt><trkpt lat="42.7567443" lon="12.5001183"><ele>357.75</ele><time>2026-04-12T11:22:48.883Z</time></trkpt><trkpt lat="42.7568706" lon="12.5002086"><ele>357.5</ele><time>2026-04-12T11:22:49.873Z</time></trkpt><trkpt lat="42.7570056" lon="12.5002856"><ele>357.25</ele><time>2026-04-12T11:22:50.867Z</time></trkpt><trkpt lat="42.7571454" lon="12.5003348"><ele>357.0</ele><time>2026-04-12T11:22:51.878Z</time></trkpt><trkpt lat="42.7572894" lon="12.5003665"><ele>357.0</ele><time>2026-04-12T11:22:52.871Z</time></trkpt><trkpt lat="42.757435" lon="12.5003952"><ele>357.0</ele><time>2026-04-12T11:22:53.869Z</time></trkpt><trkpt lat="42.7575759" lon="12.5004111"><ele>357.0</ele><time>2026-04-12T11:22:54.869Z</time></trkpt><trkpt lat="42.7577135" lon="12.5004375"><ele>357.0</ele><time>2026-04-12T11:22:55.875Z</time></trkpt><trkpt lat="42.7578554" lon="12.5004623"><ele>357.5</ele><time>2026-04-12T11:22:56.877Z</time></trkpt><trkpt lat="42.7579947" lon="12.5004774"><ele>358.0</ele><time>2026-04-12T11:22:57.878Z</time></trkpt><trkpt lat="42.7581357" lon="12.5004966"><ele>358.5</ele><time>2026-04-12T11:22:58.881Z</time></trkpt><trkpt lat="42.7582781" lon="12.5005181"><ele>359.0</ele><time>2026-04-12T11:22:59.863Z</time></trkpt><trkpt lat="42.7584251" lon="12.5005416"><ele>359.0</ele><time>2026-04-12T11:23:00.874Z</time></trkpt><trkpt lat="42.7585734" lon="12.500566"><ele>359.0</ele><time>2026-04-12T11:23:01.87Z</time></trkpt><trkpt lat="42.7587229" lon="12.5005908"><ele>359.0</ele><time>2026-04-12T11:23:02.887Z</time></trkpt><trkpt lat="42.7588744" lon="12.5006174"><ele>359.0</ele><time>2026-04-12T11:23:03.873Z</time></trkpt><trkpt lat="42.7590277" lon="12.5006401"><ele>359.0</ele><time>2026-04-12T11:23:04.872Z</time></trkpt><trkpt lat="42.7591829" lon="12.5006671"><ele>359.0</ele><time>2026-04-12T11:23:05.879Z</time></trkpt><trkpt lat="42.7593423" lon="12.5006918"><ele>358.33333333333337</ele><time>2026-04-12T11:23:06.861Z</time></trkpt><trkpt lat="42.7595016" lon="12.500718"><ele>357.6666666666667</ele><time>2026-04-12T11:23:07.866Z</time></trkpt><trkpt lat="42.7596617" lon="12.5007408"><ele>357.0</ele><time>2026-04-12T11:23:08.872Z</time></trkpt><trkpt lat="42.759819" lon="12.5007659"><ele>357.0</ele><time>2026-04-12T11:23:09.868Z</time></trkpt><trkpt lat="42.759973" lon="12.5007925"><ele>357.0</ele><time>2026-04-12T11:23:10.86Z</time></trkpt><trkpt lat="42.7601277" lon="12.5008151"><ele>357.0</ele><time>2026-04-12T11:23:11.871Z</time></trkpt><trkpt lat="42.760284" lon="12.5008418"><ele>356.3333333333333</ele><time>2026-04-12T11:23:12.868Z</time></trkpt><trkpt lat="42.7604414" lon="12.50087"><ele>355.66666666666663</ele><time>2026-04-12T11:23:13.867Z</time></trkpt><trkpt lat="42.7605993" lon="12.5008954"><ele>355.0</ele><time>2026-04-12T11:23:14.871Z</time></trkpt><trkpt lat="42.760755" lon="12.5009218"><ele>355.0</ele><time>2026-04-12T11:23:15.875Z</time></trkpt><trkpt lat="42.7609006" lon="12.5009471"><ele>355.0</ele><time>2026-04-12T11:23:16.867Z</time></trkpt><trkpt lat="42.7610424" lon="12.5009721"><ele>355.0</ele><time>2026-04-12T11:23:17.864Z</time></trkpt><trkpt lat="42.7611841" lon="12.5009947"><ele>355.0</ele><time>2026-04-12T11:23:18.864Z</time></trkpt><trkpt lat="42.7613265" lon="12.5010186"><ele>355.25</ele><time>2026-04-12T11:23:19.874Z</time></trkpt><trkpt lat="42.7614667" lon="12.5010456"><ele>355.5</ele><time>2026-04-12T11:23:20.869Z</time></trkpt><trkpt lat="42.7616102" lon="12.5010708"><ele>355.75</ele><time>2026-04-12T11:23:21.874Z</time></trkpt><trkpt lat="42.7617569" lon="12.5010938"><ele>356.0</ele><time>2026-04-12T11:23:22.873Z</time></trkpt><trkpt lat="42.7619039" lon="12.5011154"><ele>356.6666666666667</ele><time>2026-04-12T11:23:23.877Z</time></trkpt><trkpt lat="42.762058" lon="12.5011353"><ele>357.3333333333333</ele><time>2026-04-12T11:23:24.864Z</time></trkpt><trkpt lat="42.762208" lon="12.5011604"><ele>358.0</ele><time>2026-04-12T11:23:25.864Z</time></trkpt><trkpt lat="42.7623597" lon="12.5011894"><ele>358.0</ele><time>2026-04-12T11:23:26.865Z</time></trkpt><trkpt lat="42.7625104" lon="12.5012136"><ele>358.0</ele><time>2026-04-12T11:23:27.866Z</time></trkpt><trkpt lat="42.762662" lon="12.501235"><ele>358.0</ele><time>2026-04-12T11:23:28.861Z</time></trkpt><trkpt lat="42.7628112" lon="12.5012617"><ele>355.0</ele><time>2026-04-12T11:23:29.861Z</time></trkpt><trkpt lat="42.7629625" lon="12.5012881"><ele>352.0</ele><time>2026-04-12T11:23:30.864Z</time></trkpt><trkpt lat="42.7631148" lon="12.501314"><ele>349.0</ele><time>2026-04-12T11:23:31.868Z</time></trkpt><trkpt lat="42.7632691" lon="12.5013418"><ele>349.0</ele><time>2026-04-12T11:23:32.863Z</time></trkpt><trkpt lat="42.7634229" lon="12.5013679"><ele>349.0</ele><time>2026-04-12T11:23:33.864Z</time></trkpt><trkpt lat="42.7635798" lon="12.5013925"><ele>349.0</ele><time>2026-04-12T11:23:34.866Z</time></trkpt><trkpt lat="42.7637398" lon="12.5014259"><ele>349.3333333333333</ele><time>2026-04-12T11:23:35.864Z</time></trkpt><trkpt lat="42.7638965" lon="12.5014552"><ele>349.6666666666667</ele><time>2026-04-12T11:23:36.872Z</time></trkpt><trkpt lat="42.7640549" lon="12.5014803"><ele>350.0</ele><time>2026-04-12T11:23:37.867Z</time></trkpt><trkpt lat="42.7642156" lon="12.5015008"><ele>351.33333333333337</ele><time>2026-04-12T11:23:38.867Z</time></trkpt><trkpt lat="42.7643733" lon="12.5015245"><ele>352.6666666666667</ele><time>2026-04-12T11:23:39.871Z</time></trkpt><trkpt lat="42.7645263" lon="12.5015509"><ele>354.0</ele><time>2026-04-12T11:23:40.87Z</time></trkpt><trkpt lat="42.7646758" lon="12.5015769"><ele>354.0</ele><time>2026-04-12T11:23:41.872Z</time></trkpt><trkpt lat="42.7648276" lon="12.5016021"><ele>354.0</ele><time>2026-04-12T11:23:42.868Z</time></trkpt><trkpt lat="42.7649768" lon="12.5016274"><ele>354.0</ele><time>2026-04-12T11:23:43.859Z</time></trkpt><trkpt lat="42.7651252" lon="12.5016533"><ele>353.6666666666667</ele><time>2026-04-12T11:23:44.869Z</time></trkpt><trkpt lat="42.7652767" lon="12.5016776"><ele>353.33333333333337</ele><time>2026-04-12T11:23:45.89Z</time></trkpt><trkpt lat="42.7654289" lon="12.5016962"><ele>353.0</ele><time>2026-04-12T11:23:46.863Z</time></trkpt><trkpt lat="42.76558" lon="12.5017086"><ele>353.0</ele><time>2026-04-12T11:23:47.872Z</time></trkpt><trkpt lat="42.7657216" lon="12.501716"><ele>353.0</ele><time>2026-04-12T11:23:48.869Z</time></trkpt><trkpt lat="42.7658583" lon="12.5017266"><ele>353.0</ele><time>2026-04-12T11:23:49.861Z</time></trkpt><trkpt lat="42.7659899" lon="12.5017337"><ele>353.0</ele><time>2026-04-12T11:23:50.87Z</time></trkpt><trkpt lat="42.7661233" lon="12.5017424"><ele>353.25</ele><time>2026-04-12T11:23:51.874Z</time></trkpt><trkpt lat="42.7662557" lon="12.5017508"><ele>353.5</ele><time>2026-04-12T11:23:52.866Z</time></trkpt><trkpt lat="42.7663895" lon="12.5017606"><ele>353.75</ele><time>2026-04-12T11:23:53.872Z</time></trkpt><trkpt lat="42.766524" lon="12.5017671"><ele>354.0</ele><time>2026-04-12T11:23:54.875Z</time></trkpt><trkpt lat="42.7666606" lon="12.5017743"><ele>354.0</ele><time>2026-04-12T11:23:55.868Z</time></trkpt><trkpt lat="42.7667901" lon="12.5017812"><ele>354.0</ele><time>2026-04-12T11:23:56.875Z</time></trkpt><trkpt lat="42.7669167" lon="12.501789"><ele>354.0</ele><time>2026-04-12T11:23:57.879Z</time></trkpt><trkpt lat="42.7670401" lon="12.501795"><ele>354.0</ele><time>2026-04-12T11:23:58.866Z</time></trkpt><trkpt lat="42.767156" lon="12.501803"><ele>354.0</ele><time>2026-04-12T11:23:59.871Z</time></trkpt><trkpt lat="42.7672693" lon="12.5018092"><ele>354.0</ele><time>2026-04-12T11:24:00.869Z</time></trkpt><trkpt lat="42.7673843" lon="12.5018145"><ele>354.0</ele><time>2026-04-12T11:24:01.867Z</time></trkpt><trkpt lat="42.7675014" lon="12.5018227"><ele>354.0</ele><time>2026-04-12T11:24:02.861Z</time></trkpt><trkpt lat="42.76762" lon="12.5018268"><ele>354.25</ele><time>2026-04-12T11:24:03.859Z</time></trkpt><trkpt lat="42.7677408" lon="12.5018261"><ele>354.5</ele><time>2026-04-12T11:24:04.863Z</time></trkpt><trkpt lat="42.7678632" lon="12.5018311"><ele>354.75</ele><time>2026-04-12T11:24:05.866Z</time></trkpt><trkpt lat="42.7679883" lon="12.501839"><ele>355.0</ele><time>2026-04-12T11:24:06.866Z</time></trkpt><trkpt lat="42.7681176" lon="12.5018521"><ele>355.0</ele><time>2026-04-12T11:24:07.871Z</time></trkpt><trkpt lat="42.7682442" lon="12.5018631"><ele>355.0</ele><time>2026-04-12T11:24:08.893Z</time></trkpt><trkpt lat="42.7683749" lon="12.5018779"><ele>355.0</ele><time>2026-04-12T11:24:09.876Z</time></trkpt><trkpt lat="42.7685054" lon="12.5018918"><ele>355.0</ele><time>2026-04-12T11:24:10.879Z</time></trkpt><trkpt lat="42.7686432" lon="12.5019051"><ele>354.75</ele><time>2026-04-12T11:24:11.864Z</time></trkpt><trkpt lat="42.768777" lon="12.5019163"><ele>354.5</ele><time>2026-04-12T11:24:12.864Z</time></trkpt><trkpt lat="42.7689158" lon="12.5019322"><ele>354.25</ele><time>2026-04-12T11:24:13.866Z</time></trkpt><trkpt lat="42.7690514" lon="12.5019414"><ele>354.0</ele><time>2026-04-12T11:24:14.866Z</time></trkpt><trkpt lat="42.7691946" lon="12.5019538"><ele>354.0</ele><time>2026-04-12T11:24:15.865Z</time></trkpt><trkpt lat="42.7693362" lon="12.5019652"><ele>354.0</ele><time>2026-04-12T11:24:16.867Z</time></trkpt><trkpt lat="42.7694834" lon="12.5019756"><ele>354.0</ele><time>2026-04-12T11:24:17.877Z</time></trkpt><trkpt lat="42.7696352" lon="12.5019807"><ele>354.0</ele><time>2026-04-12T11:24:18.865Z</time></trkpt><trkpt lat="42.7697853" lon="12.5019966"><ele>353.6666666666667</ele><time>2026-04-12T11:24:19.884Z</time></trkpt><trkpt lat="42.7699395" lon="12.5020337"><ele>353.33333333333337</ele><time>2026-04-12T11:24:20.872Z</time></trkpt><trkpt lat="42.7700876" lon="12.5020808"><ele>353.0</ele><time>2026-04-12T11:24:21.872Z</time></trkpt><trkpt lat="42.7702341" lon="12.5021383"><ele>355.33333333333337</ele><time>2026-04-12T11:24:22.865Z</time></trkpt><trkpt lat="42.7703806" lon="12.5022093"><ele>357.6666666666667</ele><time>2026-04-12T11:24:23.863Z</time></trkpt><trkpt lat="42.7705238" lon="12.5022805"><ele>360.0</ele><time>2026-04-12T11:24:24.873Z</time></trkpt><trkpt lat="42.7706664" lon="12.5023499"><ele>360.0</ele><time>2026-04-12T11:24:25.875Z</time></trkpt><trkpt lat="42.7708098" lon="12.5024134"><ele>360.0</ele><time>2026-04-12T11:24:26.865Z</time></trkpt><trkpt lat="42.7709522" lon="12.5024759"><ele>360.0</ele><time>2026-04-12T11:24:27.863Z</time></trkpt><trkpt lat="42.7710921" lon="12.5025415"><ele>360.0</ele><time>2026-04-12T11:24:28.884Z</time></trkpt><trkpt lat="42.7712325" lon="12.5025992"><ele>360.0</ele><time>2026-04-12T11:24:29.872Z</time></trkpt><trkpt lat="42.7713724" lon="12.5026606"><ele>360.0</ele><time>2026-04-12T11:24:30.87Z</time></trkpt><trkpt lat="42.7715158" lon="12.5027226"><ele>360.0</ele><time>2026-04-12T11:24:31.873Z</time></trkpt><trkpt lat="42.7716579" lon="12.5027837"><ele>360.0</ele><time>2026-04-12T11:24:32.866Z</time></trkpt><trkpt lat="42.7717972" lon="12.5028498"><ele>360.0</ele><time>2026-04-12T11:24:33.867Z</time></trkpt><trkpt lat="42.7719371" lon="12.5029131"><ele>360.0</ele><time>2026-04-12T11:24:34.861Z</time></trkpt><trkpt lat="42.7720774" lon="12.5029775"><ele>360.0</ele><time>2026-04-12T11:24:35.877Z</time></trkpt><trkpt lat="42.7722177" lon="12.503036"><ele>360.0</ele><time>2026-04-12T11:24:36.867Z</time></trkpt><trkpt lat="42.7723592" lon="12.5030904"><ele>363.0</ele><time>2026-04-12T11:24:37.876Z</time></trkpt><trkpt lat="42.7725002" lon="12.503132"><ele>366.0</ele><time>2026-04-12T11:24:38.857Z</time></trkpt><trkpt lat="42.7726487" lon="12.5031748"><ele>369.0</ele><time>2026-04-12T11:24:39.877Z</time></trkpt><trkpt lat="42.772801" lon="12.5032118"><ele>369.3333333333333</ele><time>2026-04-12T11:24:40.87Z</time></trkpt><trkpt lat="42.7729552" lon="12.5032436"><ele>369.66666666666663</ele><time>2026-04-12T11:24:41.865Z</time></trkpt><trkpt lat="42.7731104" lon="12.5032767"><ele>370.0</ele><time>2026-04-12T11:24:42.865Z</time></trkpt><trkpt lat="42.7732647" lon="12.5033071"><ele>370.0</ele><time>2026-04-12T11:24:43.863Z</time></trkpt><trkpt lat="42.7734192" lon="12.5033397"><ele>370.0</ele><time>2026-04-12T11:24:44.864Z</time></trkpt><trkpt lat="42.7735769" lon="12.5033728"><ele>370.0</ele><time>2026-04-12T11:24:45.862Z</time></trkpt><trkpt lat="42.7737368" lon="12.5034062"><ele>370.0</ele><time>2026-04-12T11:24:46.871Z</time></trkpt><trkpt lat="42.7738954" lon="12.5034342"><ele>370.0</ele><time>2026-04-12T11:24:47.862Z</time></trkpt><trkpt lat="42.7740521" lon="12.5034622"><ele>370.0</ele><time>2026-04-12T11:24:48.87Z</time></trkpt><trkpt lat="42.7742063" lon="12.5034886"><ele>370.3333333333333</ele><time>2026-04-12T11:24:49.871Z</time></trkpt><trkpt lat="42.7743605" lon="12.5035216"><ele>370.6666666666667</ele><time>2026-04-12T11:24:50.87Z</time></trkpt><trkpt lat="42.7745116" lon="12.5035525"><ele>371.0</ele><time>2026-04-12T11:24:51.864Z</time></trkpt><trkpt lat="42.7746587" lon="12.5035809"><ele>371.0</ele><time>2026-04-12T11:24:52.865Z</time></trkpt><trkpt lat="42.7748077" lon="12.5036068"><ele>371.0</ele><time>2026-04-12T11:24:53.883Z</time></trkpt><trkpt lat="42.7749597" lon="12.5036374"><ele>371.0</ele><time>2026-04-12T11:24:54.872Z</time></trkpt><trkpt lat="42.7751118" lon="12.5036628"><ele>371.5</ele><time>2026-04-12T11:24:55.868Z</time></trkpt><trkpt lat="42.7752595" lon="12.5036899"><ele>372.0</ele><time>2026-04-12T11:24:56.865Z</time></trkpt><trkpt lat="42.7754105" lon="12.5037174"><ele>372.5</ele><time>2026-04-12T11:24:57.866Z</time></trkpt><trkpt lat="42.7755537" lon="12.5037445"><ele>373.0</ele><time>2026-04-12T11:24:58.872Z</time></trkpt><trkpt lat="42.7756889" lon="12.5037749"><ele>374.0</ele><time>2026-04-12T11:24:59.866Z</time></trkpt><trkpt lat="42.7758101" lon="12.5037944"><ele>375.0</ele><time>2026-04-12T11:25:00.864Z</time></trkpt><trkpt lat="42.775923" lon="12.5038206"><ele>376.0</ele><time>2026-04-12T11:25:01.876Z</time></trkpt><trkpt lat="42.7760296" lon="12.5038533"><ele>377.0</ele><time>2026-04-12T11:25:02.86Z</time></trkpt><trkpt lat="42.7761267" lon="12.503907"><ele>378.8</ele><time>2026-04-12T11:25:03.865Z</time></trkpt><trkpt lat="42.7762077" lon="12.5039807"><ele>380.6</ele><time>2026-04-12T11:25:04.872Z</time></trkpt><trkpt lat="42.7762673" lon="12.5041057"><ele>382.40000000000003</ele><time>2026-04-12T11:25:05.869Z</time></trkpt><trkpt lat="42.7762923" lon="12.5042557"><ele>384.20000000000005</ele><time>2026-04-12T11:25:06.857Z</time></trkpt><trkpt lat="42.7762863" lon="12.5044101"><ele>386.0</ele><time>2026-04-12T11:25:07.862Z</time></trkpt><trkpt lat="42.7762639" lon="12.5045699"><ele>386.25</ele><time>2026-04-12T11:25:08.865Z</time></trkpt><trkpt lat="42.7762432" lon="12.5047377"><ele>386.5</ele><time>2026-04-12T11:25:09.865Z</time></trkpt><trkpt lat="42.7762275" lon="12.5049219"><ele>386.75</ele><time>2026-04-12T11:25:10.872Z</time></trkpt><trkpt lat="42.776208" lon="12.5051105"><ele>387.0</ele><time>2026-04-12T11:25:11.871Z</time></trkpt><trkpt lat="42.7761924" lon="12.505297"><ele>386.5</ele><time>2026-04-12T11:25:12.858Z</time></trkpt><trkpt lat="42.7761901" lon="12.5054685"><ele>386.0</ele><time>2026-04-12T11:25:13.874Z</time></trkpt><trkpt lat="42.7762199" lon="12.5056406"><ele>385.5</ele><time>2026-04-12T11:25:14.865Z</time></trkpt><trkpt lat="42.7762868" lon="12.5058128"><ele>385.0</ele><time>2026-04-12T11:25:15.862Z</time></trkpt><trkpt lat="42.7763858" lon="12.5059566"><ele>385.0</ele><time>2026-04-12T11:25:16.862Z</time></trkpt><trkpt lat="42.7764909" lon="12.5060859"><ele>385.0</ele><time>2026-04-12T11:25:17.87Z</time></trkpt><trkpt lat="42.7765984" lon="12.5062085"><ele>385.0</ele><time>2026-04-12T11:25:18.871Z</time></trkpt><trkpt lat="42.77671" lon="12.5063351"><ele>385.0</ele><time>2026-04-12T11:25:19.873Z</time></trkpt><trkpt lat="42.7768236" lon="12.5064626"><ele>386.0</ele><time>2026-04-12T11:25:20.871Z</time></trkpt><trkpt lat="42.776935" lon="12.5065888"><ele>387.0</ele><time>2026-04-12T11:25:21.872Z</time></trkpt><trkpt lat="42.7770467" lon="12.5067163"><ele>388.0</ele><time>2026-04-12T11:25:22.867Z</time></trkpt><trkpt lat="42.7771548" lon="12.5068433"><ele>389.0</ele><time>2026-04-12T11:25:23.87Z</time></trkpt><trkpt lat="42.7772638" lon="12.5069653"><ele>388.75</ele><time>2026-04-12T11:25:24.872Z</time></trkpt><trkpt lat="42.7773666" lon="12.5070882"><ele>388.5</ele><time>2026-04-12T11:25:25.861Z</time></trkpt><trkpt lat="42.777473" lon="12.5072126"><ele>388.25</ele><time>2026-04-12T11:25:26.87Z</time></trkpt><trkpt lat="42.7775784" lon="12.5073242"><ele>388.0</ele><time>2026-04-12T11:25:27.864Z</time></trkpt><trkpt lat="42.7776926" lon="12.5074227"><ele>390.0</ele><time>2026-04-12T11:25:28.871Z</time></trkpt><trkpt lat="42.7778165" lon="12.507497"><ele>392.0</ele><time>2026-04-12T11:25:29.868Z</time></trkpt><trkpt lat="42.7779466" lon="12.5075484"><ele>394.0</ele><time>2026-04-12T11:25:30.863Z</time></trkpt><trkpt lat="42.7780836" lon="12.5075787"><ele>396.0</ele><time>2026-04-12T11:25:31.867Z</time></trkpt><trkpt lat="42.778218" lon="12.5075852"><ele>396.0</ele><time>2026-04-12T11:25:32.868Z</time></trkpt><trkpt lat="42.7783551" lon="12.5075704"><ele>396.0</ele><time>2026-04-12T11:25:33.852Z</time></trkpt><trkpt lat="42.7784965" lon="12.507526"><ele>396.0</ele><time>2026-04-12T11:25:34.866Z</time></trkpt><trkpt lat="42.7786352" lon="12.5074752"><ele>396.0</ele><time>2026-04-12T11:25:35.869Z</time></trkpt><trkpt lat="42.7787762" lon="12.5074384"><ele>396.5</ele><time>2026-04-12T11:25:36.864Z</time></trkpt><trkpt lat="42.7789195" lon="12.5074128"><ele>397.0</ele><time>2026-04-12T11:25:37.867Z</time></trkpt><trkpt lat="42.7790634" lon="12.5073936"><ele>397.5</ele><time>2026-04-12T11:25:38.863Z</time></trkpt><trkpt lat="42.7792093" lon="12.5073944"><ele>398.0</ele><time>2026-04-12T11:25:39.86Z</time></trkpt><trkpt lat="42.7793582" lon="12.5074032"><ele>400.66666666666663</ele><time>2026-04-12T11:25:40.867Z</time></trkpt><trkpt lat="42.7795081" lon="12.5074187"><ele>403.33333333333337</ele><time>2026-04-12T11:25:41.871Z</time></trkpt><trkpt lat="42.7796553" lon="12.5074514"><ele>406.0</ele><time>2026-04-12T11:25:42.857Z</time></trkpt><trkpt lat="42.7798057" lon="12.5074821"><ele>406.0</ele><time>2026-04-12T11:25:43.86Z</time></trkpt><trkpt lat="42.7799546" lon="12.507505"><ele>406.0</ele><time>2026-04-12T11:25:44.865Z</time></trkpt><trkpt lat="42.7801114" lon="12.5075323"><ele>406.0</ele><time>2026-04-12T11:25:45.878Z</time></trkpt><trkpt lat="42.7802645" lon="12.5075663"><ele>406.6666666666667</ele><time>2026-04-12T11:25:46.863Z</time></trkpt><trkpt lat="42.7804206" lon="12.5075964"><ele>407.33333333333337</ele><time>2026-04-12T11:25:47.861Z</time></trkpt><trkpt lat="42.7805795" lon="12.5076233"><ele>408.0</ele><time>2026-04-12T11:25:48.866Z</time></trkpt><trkpt lat="42.7807395" lon="12.5076551"><ele>408.0</ele><time>2026-04-12T11:25:49.867Z</time></trkpt><trkpt lat="42.7809019" lon="12.5076824"><ele>408.0</ele><time>2026-04-12T11:25:50.877Z</time></trkpt><trkpt lat="42.78106" lon="12.5077036"><ele>408.0</ele><time>2026-04-12T11:25:51.872Z</time></trkpt><trkpt lat="42.7812121" lon="12.5077205"><ele>408.66666666666663</ele><time>2026-04-12T11:25:52.857Z</time></trkpt><trkpt lat="42.7813653" lon="12.5077344"><ele>409.3333333333333</ele><time>2026-04-12T11:25:53.863Z</time></trkpt><trkpt lat="42.7815193" lon="12.5077406"><ele>410.0</ele><time>2026-04-12T11:25:54.861Z</time></trkpt><trkpt lat="42.7816698" lon="12.5077403"><ele>410.0</ele><time>2026-04-12T11:25:55.867Z</time></trkpt><trkpt lat="42.7818257" lon="12.507725"><ele>410.0</ele><time>2026-04-12T11:25:56.861Z</time></trkpt><trkpt lat="42.7819833" lon="12.5077066"><ele>410.0</ele><time>2026-04-12T11:25:57.872Z</time></trkpt><trkpt lat="42.7821384" lon="12.5076923"><ele>410.75</ele><time>2026-04-12T11:25:58.869Z</time></trkpt><trkpt lat="42.7822957" lon="12.5076717"><ele>411.5</ele><time>2026-04-12T11:25:59.869Z</time></trkpt><trkpt lat="42.7824453" lon="12.50764"><ele>412.25</ele><time>2026-04-12T11:26:00.87Z</time></trkpt><trkpt lat="42.7825798" lon="12.507594"><ele>413.0</ele><time>2026-04-12T11:26:01.877Z</time></trkpt><trkpt lat="42.7827088" lon="12.507525"><ele>414.25</ele><time>2026-04-12T11:26:02.868Z</time></trkpt><trkpt lat="42.7828387" lon="12.507427"><ele>415.5</ele><time>2026-04-12T11:26:03.864Z</time></trkpt><trkpt lat="42.7829588" lon="12.5073193"><ele>416.75</ele><time>2026-04-12T11:26:04.861Z</time></trkpt><trkpt lat="42.7830812" lon="12.507213"><ele>418.0</ele><time>2026-04-12T11:26:05.854Z</time></trkpt><trkpt lat="42.7832037" lon="12.5071162"><ele>418.0</ele><time>2026-04-12T11:26:06.857Z</time></trkpt><trkpt lat="42.7833246" lon="12.5070207"><ele>418.0</ele><time>2026-04-12T11:26:07.861Z</time></trkpt><trkpt lat="42.7834429" lon="12.5069288"><ele>418.0</ele><time>2026-04-12T11:26:08.862Z</time></trkpt><trkpt lat="42.7835554" lon="12.5068513"><ele>418.0</ele><time>2026-04-12T11:26:09.863Z</time></trkpt><trkpt lat="42.783664" lon="12.5067689"><ele>418.0</ele><time>2026-04-12T11:26:10.867Z</time></trkpt><trkpt lat="42.783774" lon="12.5066863"><ele>418.0</ele><time>2026-04-12T11:26:11.871Z</time></trkpt><trkpt lat="42.7838882" lon="12.5065926"><ele>418.0</ele><time>2026-04-12T11:26:12.866Z</time></trkpt><trkpt lat="42.7840052" lon="12.5064925"><ele>418.0</ele><time>2026-04-12T11:26:13.864Z</time></trkpt><trkpt lat="42.7841264" lon="12.5063889"><ele>418.0</ele><time>2026-04-12T11:26:14.853Z</time></trkpt><trkpt lat="42.7842506" lon="12.5062894"><ele>418.0</ele><time>2026-04-12T11:26:15.863Z</time></trkpt><trkpt lat="42.7843812" lon="12.5061874"><ele>418.0</ele><time>2026-04-12T11:26:16.862Z</time></trkpt><trkpt lat="42.7845143" lon="12.5060864"><ele>418.0</ele><time>2026-04-12T11:26:17.875Z</time></trkpt><trkpt lat="42.7846471" lon="12.5059792"><ele>420.6666666666667</ele><time>2026-04-12T11:26:18.866Z</time></trkpt><trkpt lat="42.7847862" lon="12.5058683"><ele>423.33333333333337</ele><time>2026-04-12T11:26:19.859Z</time></trkpt><trkpt lat="42.7849211" lon="12.5057532"><ele>426.0</ele><time>2026-04-12T11:26:20.867Z</time></trkpt><trkpt lat="42.7850604" lon="12.5056425"><ele>426.0</ele><time>2026-04-12T11:26:21.87Z</time></trkpt><trkpt lat="42.7852044" lon="12.5055292"><ele>426.0</ele><time>2026-04-12T11:26:22.861Z</time></trkpt><trkpt lat="42.7853511" lon="12.5054163"><ele>426.0</ele><time>2026-04-12T11:26:23.875Z</time></trkpt><trkpt lat="42.785499" lon="12.5053052"><ele>425.66666666666663</ele><time>2026-04-12T11:26:24.864Z</time></trkpt><trkpt lat="42.7856417" lon="12.5051874"><ele>425.3333333333333</ele><time>2026-04-12T11:26:25.86Z</time></trkpt><trkpt lat="42.7857878" lon="12.5050723"><ele>425.0</ele><time>2026-04-12T11:26:26.864Z</time></trkpt><trkpt lat="42.7859261" lon="12.504953"><ele>425.66666666666663</ele><time>2026-04-12T11:26:27.867Z</time></trkpt><trkpt lat="42.78607" lon="12.5048348"><ele>426.33333333333337</ele><time>2026-04-12T11:26:28.866Z</time></trkpt><trkpt lat="42.7862088" lon="12.5047132"><ele>427.0</ele><time>2026-04-12T11:26:29.861Z</time></trkpt><trkpt lat="42.7863438" lon="12.5045922"><ele>427.33333333333337</ele><time>2026-04-12T11:26:30.874Z</time></trkpt><trkpt lat="42.7864757" lon="12.5044675"><ele>427.66666666666663</ele><time>2026-04-12T11:26:31.875Z</time></trkpt><trkpt lat="42.7866049" lon="12.5043407"><ele>428.0</ele><time>2026-04-12T11:26:32.867Z</time></trkpt><trkpt lat="42.7867289" lon="12.5042113"><ele>429.3333333333333</ele><time>2026-04-12T11:26:33.877Z</time></trkpt><trkpt lat="42.7868503" lon="12.5040852"><ele>430.66666666666663</ele><time>2026-04-12T11:26:34.859Z</time></trkpt><trkpt lat="42.7869681" lon="12.5039618"><ele>432.0</ele><time>2026-04-12T11:26:35.877Z</time></trkpt><trkpt lat="42.787089" lon="12.5038293"><ele>432.0</ele><time>2026-04-12T11:26:36.869Z</time></trkpt><trkpt lat="42.7872113" lon="12.5037008"><ele>432.0</ele><time>2026-04-12T11:26:37.861Z</time></trkpt><trkpt lat="42.787337" lon="12.5035775"><ele>432.0</ele><time>2026-04-12T11:26:38.855Z</time></trkpt><trkpt lat="42.7874632" lon="12.5034572"><ele>432.0</ele><time>2026-04-12T11:26:39.865Z</time></trkpt><trkpt lat="42.7875932" lon="12.5033389"><ele>432.0</ele><time>2026-04-12T11:26:40.88Z</time></trkpt><trkpt lat="42.7877219" lon="12.5032152"><ele>432.0</ele><time>2026-04-12T11:26:41.858Z</time></trkpt><trkpt lat="42.7878526" lon="12.5030913"><ele>433.33333333333337</ele><time>2026-04-12T11:26:42.877Z</time></trkpt><trkpt lat="42.7879839" lon="12.5029689"><ele>434.6666666666667</ele><time>2026-04-12T11:26:43.857Z</time></trkpt><trkpt lat="42.7881134" lon="12.5028469"><ele>436.0</ele><time>2026-04-12T11:26:44.861Z</time></trkpt><trkpt lat="42.7882473" lon="12.5027203"><ele>436.0</ele><time>2026-04-12T11:26:45.872Z</time></trkpt><trkpt lat="42.7883774" lon="12.5025983"><ele>436.0</ele><time>2026-04-12T11:26:46.871Z</time></trkpt><trkpt lat="42.7885084" lon="12.5024742"><ele>436.0</ele><time>2026-04-12T11:26:47.868Z</time></trkpt><trkpt lat="42.7886411" lon="12.5023481"><ele>436.33333333333337</ele><time>2026-04-12T11:26:48.874Z</time></trkpt><trkpt lat="42.7887734" lon="12.5022242"><ele>436.66666666666663</ele><time>2026-04-12T11:26:49.866Z</time></trkpt><trkpt lat="42.7889089" lon="12.5020956"><ele>437.0</ele><time>2026-04-12T11:26:50.865Z</time></trkpt><trkpt lat="42.7890476" lon="12.5019649"><ele>437.0</ele><time>2026-04-12T11:26:51.86Z</time></trkpt><trkpt lat="42.789186" lon="12.5018337"><ele>437.0</ele><time>2026-04-12T11:26:52.861Z</time></trkpt><trkpt lat="42.7893261" lon="12.5017087"><ele>437.0</ele><time>2026-04-12T11:26:53.865Z</time></trkpt><trkpt lat="42.7894724" lon="12.5015924"><ele>437.3333333333333</ele><time>2026-04-12T11:26:54.859Z</time></trkpt><trkpt lat="42.7896227" lon="12.5014798"><ele>437.66666666666663</ele><time>2026-04-12T11:26:55.877Z</time></trkpt><trkpt lat="42.7897788" lon="12.5013756"><ele>438.0</ele><time>2026-04-12T11:26:56.859Z</time></trkpt><trkpt lat="42.7899388" lon="12.5012816"><ele>438.66666666666663</ele><time>2026-04-12T11:26:57.88Z</time></trkpt><trkpt lat="42.7900989" lon="12.5011881"><ele>439.3333333333333</ele><time>2026-04-12T11:26:58.864Z</time></trkpt><trkpt lat="42.7902586" lon="12.5010947"><ele>440.0</ele><time>2026-04-12T11:26:59.864Z</time></trkpt><trkpt lat="42.7904142" lon="12.5009996"><ele>440.3333333333333</ele><time>2026-04-12T11:27:00.86Z</time></trkpt><trkpt lat="42.7905698" lon="12.5009074"><ele>440.66666666666663</ele><time>2026-04-12T11:27:01.864Z</time></trkpt><trkpt lat="42.7907242" lon="12.5008161"><ele>441.0</ele><time>2026-04-12T11:27:02.862Z</time></trkpt><trkpt lat="42.7908783" lon="12.500733"><ele>441.0</ele><time>2026-04-12T11:27:03.862Z</time></trkpt><trkpt lat="42.791036" lon="12.5006717"><ele>441.0</ele><time>2026-04-12T11:27:04.859Z</time></trkpt><trkpt lat="42.7911963" lon="12.5006367"><ele>441.0</ele><time>2026-04-12T11:27:05.864Z</time></trkpt><trkpt lat="42.7913606" lon="12.5006128"><ele>441.0</ele><time>2026-04-12T11:27:06.855Z</time></trkpt><trkpt lat="42.7915287" lon="12.5005915"><ele>441.0</ele><time>2026-04-12T11:27:07.859Z</time></trkpt><trkpt lat="42.7916955" lon="12.5005647"><ele>441.0</ele><time>2026-04-12T11:27:08.853Z</time></trkpt><trkpt lat="42.7918563" lon="12.5005373"><ele>442.66666666666663</ele><time>2026-04-12T11:27:09.868Z</time></trkpt><trkpt lat="42.7920138" lon="12.5005148"><ele>444.3333333333333</ele><time>2026-04-12T11:27:10.87Z</time></trkpt><trkpt lat="42.7921787" lon="12.5004874"><ele>446.0</ele><time>2026-04-12T11:27:11.853Z</time></trkpt><trkpt lat="42.7923392" lon="12.5004556"><ele>446.0</ele><time>2026-04-12T11:27:12.876Z</time></trkpt><trkpt lat="42.7924979" lon="12.5004251"><ele>446.0</ele><time>2026-04-12T11:27:13.882Z</time></trkpt><trkpt lat="42.7926569" lon="12.5003843"><ele>446.0</ele><time>2026-04-12T11:27:14.878Z</time></trkpt><trkpt lat="42.7928101" lon="12.500329"><ele>446.66666666666663</ele><time>2026-04-12T11:27:15.858Z</time></trkpt><trkpt lat="42.7929615" lon="12.5002585"><ele>447.33333333333337</ele><time>2026-04-12T11:27:16.887Z</time></trkpt><trkpt lat="42.7931141" lon="12.500177"><ele>448.0</ele><time>2026-04-12T11:27:17.865Z</time></trkpt><trkpt lat="42.7932648" lon="12.5000886"><ele>448.0</ele><time>2026-04-12T11:27:18.869Z</time></trkpt><trkpt lat="42.7934222" lon="12.5000045"><ele>448.0</ele><time>2026-04-12T11:27:19.879Z</time></trkpt><trkpt lat="42.7935797" lon="12.4999216"><ele>448.0</ele><time>2026-04-12T11:27:20.901Z</time></trkpt><trkpt lat="42.7937388" lon="12.4998388"><ele>447.6666666666667</ele><time>2026-04-12T11:27:21.874Z</time></trkpt><trkpt lat="42.7939035" lon="12.4997496"><ele>447.33333333333337</ele><time>2026-04-12T11:27:22.866Z</time></trkpt><trkpt lat="42.7940685" lon="12.4996528"><ele>447.0</ele><time>2026-04-12T11:27:23.88Z</time></trkpt><trkpt lat="42.794235" lon="12.4995574"><ele>446.33333333333337</ele><time>2026-04-12T11:27:24.89Z</time></trkpt><trkpt lat="42.7944059" lon="12.4994573"><ele>445.6666666666667</ele><time>2026-04-12T11:27:25.867Z</time></trkpt><trkpt lat="42.794582" lon="12.4993549"><ele>445.0</ele><time>2026-04-12T11:27:26.858Z</time></trkpt><trkpt lat="42.7947578" lon="12.4992563"><ele>445.0</ele><time>2026-04-12T11:27:27.86Z</time></trkpt><trkpt lat="42.7949272" lon="12.4991583"><ele>445.0</ele><time>2026-04-12T11:27:28.87Z</time></trkpt><trkpt lat="42.7950911" lon="12.4990631"><ele>445.0</ele><time>2026-04-12T11:27:29.86Z</time></trkpt><trkpt lat="42.7952495" lon="12.4989588"><ele>445.6666666666667</ele><time>2026-04-12T11:27:30.904Z</time></trkpt><trkpt lat="42.7954006" lon="12.498843"><ele>446.33333333333337</ele><time>2026-04-12T11:27:31.867Z</time></trkpt><trkpt lat="42.7955494" lon="12.4987119"><ele>447.0</ele><time>2026-04-12T11:27:32.863Z</time></trkpt><trkpt lat="42.7956919" lon="12.4985702"><ele>447.0</ele><time>2026-04-12T11:27:33.879Z</time></trkpt><trkpt lat="42.7958359" lon="12.4984258"><ele>447.0</ele><time>2026-04-12T11:27:34.878Z</time></trkpt><trkpt lat="42.7959785" lon="12.4982784"><ele>447.0</ele><time>2026-04-12T11:27:35.858Z</time></trkpt><trkpt lat="42.7961184" lon="12.4981298"><ele>447.0</ele><time>2026-04-12T11:27:36.874Z</time></trkpt><trkpt lat="42.7962578" lon="12.4979816"><ele>447.0</ele><time>2026-04-12T11:27:37.881Z</time></trkpt><trkpt lat="42.7964023" lon="12.4978319"><ele>447.0</ele><time>2026-04-12T11:27:38.87Z</time></trkpt><trkpt lat="42.7965451" lon="12.4976886"><ele>447.66666666666663</ele><time>2026-04-12T11:27:39.868Z</time></trkpt><trkpt lat="42.796683" lon="12.4975407"><ele>448.3333333333333</ele><time>2026-04-12T11:27:40.864Z</time></trkpt><trkpt lat="42.7968187" lon="12.4973982"><ele>449.0</ele><time>2026-04-12T11:27:41.862Z</time></trkpt><trkpt lat="42.7969576" lon="12.4972649"><ele>449.0</ele><time>2026-04-12T11:27:42.863Z</time></trkpt><trkpt lat="42.7970967" lon="12.4971476"><ele>449.0</ele><time>2026-04-12T11:27:43.876Z</time></trkpt><trkpt lat="42.7972395" lon="12.4970324"><ele>449.0</ele><time>2026-04-12T11:27:44.855Z</time></trkpt><trkpt lat="42.797383" lon="12.4969213"><ele>450.0</ele><time>2026-04-12T11:27:45.862Z</time></trkpt><trkpt lat="42.7975248" lon="12.496809"><ele>451.0</ele><time>2026-04-12T11:27:46.872Z</time></trkpt><trkpt lat="42.7976715" lon="12.4966992"><ele>452.0</ele><time>2026-04-12T11:27:47.874Z</time></trkpt><trkpt lat="42.7978174" lon="12.4965875"><ele>452.0</ele><time>2026-04-12T11:27:48.867Z</time></trkpt><trkpt lat="42.7979604" lon="12.4964718"><ele>452.0</ele><time>2026-04-12T11:27:49.875Z</time></trkpt><trkpt lat="42.7981001" lon="12.4963524"><ele>452.0</ele><time>2026-04-12T11:27:50.864Z</time></trkpt><trkpt lat="42.7982329" lon="12.4962396"><ele>451.66666666666663</ele><time>2026-04-12T11:27:51.865Z</time></trkpt><trkpt lat="42.7983727" lon="12.496132"><ele>451.33333333333337</ele><time>2026-04-12T11:27:52.881Z</time></trkpt><trkpt lat="42.7985132" lon="12.496034"><ele>451.0</ele><time>2026-04-12T11:27:53.864Z</time></trkpt><trkpt lat="42.7986595" lon="12.4959491"><ele>452.33333333333337</ele><time>2026-04-12T11:27:54.865Z</time></trkpt><trkpt lat="42.7988078" lon="12.4958661"><ele>453.66666666666663</ele><time>2026-04-12T11:27:55.875Z</time></trkpt><trkpt lat="42.79896" lon="12.4957883"><ele>455.0</ele><time>2026-04-12T11:27:56.876Z</time></trkpt><trkpt lat="42.7991133" lon="12.4957026"><ele>455.0</ele><time>2026-04-12T11:27:57.865Z</time></trkpt><trkpt lat="42.7992705" lon="12.4956173"><ele>455.0</ele><time>2026-04-12T11:27:58.866Z</time></trkpt><trkpt lat="42.7994283" lon="12.4955302"><ele>455.0</ele><time>2026-04-12T11:27:59.859Z</time></trkpt><trkpt lat="42.7995922" lon="12.4954469"><ele>455.3333333333333</ele><time>2026-04-12T11:28:00.871Z</time></trkpt><trkpt lat="42.7997479" lon="12.4953645"><ele>455.66666666666663</ele><time>2026-04-12T11:28:01.869Z</time></trkpt><trkpt lat="42.7998909" lon="12.4952872"><ele>456.0</ele><time>2026-04-12T11:28:02.874Z</time></trkpt><trkpt lat="42.8000144" lon="12.4952205"><ele>456.0</ele><time>2026-04-12T11:28:03.875Z</time></trkpt><trkpt lat="42.8001207" lon="12.4951656"><ele>456.0</ele><time>2026-04-12T11:28:04.859Z</time></trkpt><trkpt lat="42.8002111" lon="12.4951131"><ele>456.0</ele><time>2026-04-12T11:28:05.863Z</time></trkpt><trkpt lat="42.800293" lon="12.4950626"><ele>456.0</ele><time>2026-04-12T11:28:06.868Z</time></trkpt><trkpt lat="42.8003736" lon="12.4950196"><ele>456.0</ele><time>2026-04-12T11:28:07.865Z</time></trkpt><trkpt lat="42.8004589" lon="12.4949757"><ele>456.3333333333333</ele><time>2026-04-12T11:28:08.873Z</time></trkpt><trkpt lat="42.8005407" lon="12.4949316"><ele>456.66666666666663</ele><time>2026-04-12T11:28:09.87Z</time></trkpt><trkpt lat="42.8006161" lon="12.4948911"><ele>457.0</ele><time>2026-04-12T11:28:10.869Z</time></trkpt><trkpt lat="42.8006861" lon="12.494852"><ele>457.3333333333333</ele><time>2026-04-12T11:28:11.869Z</time></trkpt><trkpt lat="42.8007544" lon="12.4948146"><ele>457.66666666666663</ele><time>2026-04-12T11:28:12.861Z</time></trkpt><trkpt lat="42.8008167" lon="12.4947863"><ele>458.0</ele><time>2026-04-12T11:28:13.871Z</time></trkpt><trkpt lat="42.8008983" lon="12.4948147"><ele>457.99999999999994</ele><time>2026-04-12T11:28:15.87Z</time></trkpt><trkpt lat="42.8009184" lon="12.4949159"><ele>458.0</ele><time>2026-04-12T11:28:20.872Z</time></trkpt><trkpt lat="42.8008822" lon="12.4950041"><ele>458.0</ele><time>2026-04-12T11:28:23.865Z</time></trkpt><trkpt lat="42.8008016" lon="12.4950165"><ele>458.0</ele><time>2026-04-12T11:28:25.862Z</time></trkpt><trkpt lat="42.800721" lon="12.4950456"><ele>457.99999999999994</ele><time>2026-04-12T11:28:27.865Z</time></trkpt><trkpt lat="42.8006283" lon="12.4950878"><ele>458.0</ele><time>2026-04-12T11:28:29.868Z</time></trkpt><trkpt lat="42.8005337" lon="12.495138"><ele>457.99999999999994</ele><time>2026-04-12T11:28:31.869Z</time></trkpt><trkpt lat="42.8004618" lon="12.4951824"><ele>458.0</ele><time>2026-04-12T11:28:33.865Z</time></trkpt><trkpt lat="42.8004023" lon="12.4952582"><ele>458.0</ele><time>2026-04-12T11:28:36.866Z</time></trkpt><trkpt lat="42.8004568" lon="12.4953336"><ele>458.0</ele><time>2026-04-12T11:28:39.858Z</time></trkpt><trkpt lat="42.8005416" lon="12.495327"><ele>457.99999999999994</ele><time>2026-04-12T11:28:42.868Z</time></trkpt><trkpt lat="42.8006343" lon="12.495309"><ele>458.0</ele><time>2026-04-12T11:28:45.864Z</time></trkpt><trkpt lat="42.8007272" lon="12.4952647"><ele>457.99999999999994</ele><time>2026-04-12T11:28:48.87Z</time></trkpt><trkpt lat="42.8008001" lon="12.4952232"><ele>458.0</ele><time>2026-04-12T11:28:50.869Z</time></trkpt><trkpt lat="42.8008649" lon="12.4951885"><ele>458.0</ele><time>2026-04-12T11:28:52.871Z</time></trkpt><trkpt lat="42.8009225" lon="12.4951513"><ele>458.0</ele><time>2026-04-12T11:29:14.859Z</time></trkpt><trkpt lat="42.8008884" lon="12.4950419"><ele>457.99999999999994</ele><time>2026-04-12T11:29:17.869Z</time></trkpt><trkpt lat="42.8007975" lon="12.4950313"><ele>458.0</ele><time>2026-04-12T11:29:19.864Z</time></trkpt><trkpt lat="42.8007342" lon="12.4950473"><ele>457.99999999999994</ele><time>2026-04-12T11:29:20.864Z</time></trkpt><trkpt lat="42.8006739" lon="12.4950852"><ele>458.0</ele><time>2026-04-12T11:29:21.862Z</time></trkpt><trkpt lat="42.8006056" lon="12.4951222"><ele>458.0</ele><time>2026-04-12T11:29:22.861Z</time></trkpt><trkpt lat="42.8005403" lon="12.4951498"><ele>458.0</ele><time>2026-04-12T11:29:23.876Z</time></trkpt><trkpt lat="42.8004412" lon="12.4951921"><ele>457.99999999999994</ele><time>2026-04-12T11:29:25.87Z</time></trkpt><trkpt lat="42.8003995" lon="12.4952683"><ele>458.0</ele><time>2026-04-12T11:29:27.872Z</time></trkpt><trkpt lat="42.8004339" lon="12.4953517"><ele>457.99999999999994</ele><time>2026-04-12T11:29:30.865Z</time></trkpt><trkpt lat="42.8005106" lon="12.4953468"><ele>458.0</ele><time>2026-04-12T11:29:32.865Z</time></trkpt><trkpt lat="42.8005842" lon="12.4953192"><ele>458.0</ele><time>2026-04-12T11:29:35.863Z</time></trkpt><trkpt lat="42.8005656" lon="12.4954046"><ele>458.0</ele><time>2026-04-12T11:33:48.876Z</time></trkpt><trkpt lat="42.8005614" lon="12.4955498"><ele>457.99999999999994</ele><time>2026-04-12T11:34:01.039Z</time></trkpt><trkpt lat="42.8005052" lon="12.4955961"><ele>458.0</ele><time>2026-04-12T11:34:06.85Z</time></trkpt><trkpt lat="42.8004778" lon="12.4955087"><ele>457.8333333333333</ele><time>2026-04-12T11:34:16.857Z</time></trkpt><trkpt lat="42.8004146" lon="12.4954748"><ele>457.66666666666663</ele><time>2026-04-12T11:34:26.87Z</time></trkpt><trkpt lat="42.8003594" lon="12.4955232"><ele>457.5</ele><time>2026-04-12T11:34:33.914Z</time></trkpt><trkpt lat="42.8003404" lon="12.4956093"><ele>457.33333333333337</ele><time>2026-04-12T11:35:02.87Z</time></trkpt><trkpt lat="42.8004295" lon="12.4955092"><ele>457.1666666666667</ele><time>2026-04-12T11:35:21.869Z</time></trkpt><trkpt lat="42.8003817" lon="12.4956118"><ele>457.0</ele><time>2026-04-12T11:35:34.87Z</time></trkpt><trkpt lat="42.8003703" lon="12.4957053"><ele>457.00000000000006</ele><time>2026-04-12T11:45:29.857Z</time></trkpt><trkpt lat="42.8004226" lon="12.4956506"><ele>457.0</ele><time>2026-04-12T11:55:40.849Z</time></trkpt><trkpt lat="42.8004646" lon="12.4955803"><ele>457.00000000000006</ele><time>2026-04-12T11:55:46.863Z</time></trkpt><trkpt lat="42.8004112" lon="12.4955176"><ele>457.00000000000006</ele><time>2026-04-12T11:55:56.829Z</time></trkpt><trkpt lat="42.8004734" lon="12.4955334"><ele>457.0</ele><time>2026-04-12T11:56:15.837Z</time></trkpt><trkpt lat="42.8005504" lon="12.4955556"><ele>457.00000000000006</ele><time>2026-04-12T11:56:20.866Z</time></trkpt><trkpt lat="42.8004865" lon="12.495571"><ele>457.00000000000006</ele><time>2026-04-12T11:56:51.808Z</time></trkpt><trkpt lat="42.800511" lon="12.4954866"><ele>457.0</ele><time>2026-04-12T11:57:00.839Z</time></trkpt><trkpt lat="42.8005004" lon="12.495574"><ele>457.00000000000006</ele><time>2026-04-12T11:58:17.853Z</time></trkpt><trkpt lat="42.8004944" lon="12.4956789"><ele>457.00000000000006</ele><time>2026-04-12T12:00:09.847Z</time></trkpt><trkpt lat="42.8004841" lon="12.4957883"><ele>457.0</ele><time>2026-04-12T12:00:10.846Z</time></trkpt><trkpt lat="42.8003682" lon="12.4959566"><ele>457.0</ele><time>2026-04-12T12:00:11.847Z</time></trkpt><trkpt lat="42.8001707" lon="12.4960005"><ele>458.5</ele><time>2026-04-12T12:00:12.844Z</time></trkpt><trkpt lat="42.7997643" lon="12.496088"><ele>460.0</ele><time>2026-04-12T12:00:14.846Z</time></trkpt><trkpt lat="42.7994791" lon="12.4961035"><ele>457.5</ele><time>2026-04-12T12:00:15.851Z</time></trkpt><trkpt lat="42.7990492" lon="12.4960122"><ele>455.0</ele><time>2026-04-12T12:00:16.837Z</time></trkpt><trkpt lat="42.7987273" lon="12.495958"><ele>444.0</ele><time>2026-04-12T12:00:17.849Z</time></trkpt><trkpt lat="42.7964973" lon="12.4946136"><ele>457.0</ele><time>2026-04-12T12:00:18.832Z</time></trkpt><trkpt lat="42.8004549" lon="12.4955717"><ele>457.0</ele><time>2026-04-12T12:00:36.038Z</time></trkpt><trkpt lat="42.8005898" lon="12.4954568"><ele>457.00000000000006</ele><time>2026-04-12T12:01:25.856Z</time></trkpt><trkpt lat="42.8006214" lon="12.4953683"><ele>457.00000000000006</ele><time>2026-04-12T12:01:31.844Z</time></trkpt><trkpt lat="42.8006897" lon="12.4953306"><ele>457.0</ele><time>2026-04-12T12:01:34.856Z</time></trkpt><trkpt lat="42.800753" lon="12.4953243"><ele>457.0</ele><time>2026-04-12T12:01:41.852Z</time></trkpt><trkpt lat="42.8006485" lon="12.4953196"><ele>457.1666666666667</ele><time>2026-04-12T12:02:05.848Z</time></trkpt><trkpt lat="42.800583" lon="12.4953517"><ele>457.33333333333337</ele><time>2026-04-12T12:02:14.874Z</time></trkpt><trkpt lat="42.8005209" lon="12.4953346"><ele>457.5</ele><time>2026-04-12T12:02:17.869Z</time></trkpt><trkpt lat="42.8004849" lon="12.4952546"><ele>457.66666666666663</ele><time>2026-04-12T12:02:24.871Z</time></trkpt><trkpt lat="42.8006008" lon="12.4953263"><ele>457.8333333333333</ele><time>2026-04-12T12:02:38.851Z</time></trkpt><trkpt lat="42.8006768" lon="12.4953373"><ele>458.0</ele><time>2026-04-12T12:02:40.84Z</time></trkpt><trkpt lat="42.8007444" lon="12.4953864"><ele>457.8333333333333</ele><time>2026-04-12T12:02:42.842Z</time></trkpt><trkpt lat="42.8007934" lon="12.4954678"><ele>457.66666666666663</ele><time>2026-04-12T12:02:44.839Z</time></trkpt><trkpt lat="42.8008075" lon="12.4955551"><ele>457.5</ele><time>2026-04-12T12:02:46.861Z</time></trkpt><trkpt lat="42.8008523" lon="12.4956517"><ele>457.33333333333337</ele><time>2026-04-12T12:02:49.858Z</time></trkpt><trkpt lat="42.8007864" lon="12.4956983"><ele>457.1666666666667</ele><time>2026-04-12T12:02:52.854Z</time></trkpt><trkpt lat="42.8007176" lon="12.4956111"><ele>457.0</ele><time>2026-04-12T12:02:53.86Z</time></trkpt><trkpt lat="42.8006404" lon="12.4955652"><ele>457.00000000000006</ele><time>2026-04-12T12:02:55.852Z</time></trkpt><trkpt lat="42.8006332" lon="12.495477"><ele>457.0</ele><time>2026-04-12T12:02:58.857Z</time></trkpt><trkpt lat="42.8006208" lon="12.4953882"><ele>457.00000000000006</ele><time>2026-04-12T12:03:02.859Z</time></trkpt><trkpt lat="42.8005931" lon="12.4953103"><ele>457.00000000000006</ele><time>2026-04-12T12:11:15.856Z</time></trkpt><trkpt lat="42.8006553" lon="12.4953303"><ele>457.0</ele><time>2026-04-12T12:12:38.857Z</time></trkpt><trkpt lat="42.8007223" lon="12.4952934"><ele>457.00000000000006</ele><time>2026-04-12T12:12:43.873Z</time></trkpt><trkpt lat="42.8007943" lon="12.4952462"><ele>457.00000000000006</ele><time>2026-04-12T12:12:46.857Z</time></trkpt><trkpt lat="42.800876" lon="12.4951984"><ele>457.1428571428572</ele><time>2026-04-12T12:12:49.858Z</time></trkpt><trkpt lat="42.8009508" lon="12.4951661"><ele>457.28571428571433</ele><time>2026-04-12T12:12:52.871Z</time></trkpt><trkpt lat="42.8009313" lon="12.495063"><ele>457.42857142857144</ele><time>2026-04-12T12:12:57.857Z</time></trkpt><trkpt lat="42.8009176" lon="12.4951492"><ele>457.5714285714286</ele><time>2026-04-12T12:13:05.881Z</time></trkpt><trkpt lat="42.8009738" lon="12.495101"><ele>457.7142857142858</ele><time>2026-04-12T12:13:11.869Z</time></trkpt><trkpt lat="42.8009351" lon="12.4950265"><ele>457.85714285714283</ele><time>2026-04-12T12:13:29.865Z</time></trkpt><trkpt lat="42.8009212" lon="12.4949127"><ele>458.0</ele><time>2026-04-12T12:13:31.871Z</time></trkpt><trkpt lat="42.8009208" lon="12.4947777"><ele>458.0</ele><time>2026-04-12T12:13:33.869Z</time></trkpt><trkpt lat="42.8009728" lon="12.4946985"><ele>457.99999999999994</ele><time>2026-04-12T12:13:39.873Z</time></trkpt><trkpt lat="42.8010765" lon="12.4946466"><ele>457.99999999999994</ele><time>2026-04-12T12:13:41.865Z</time></trkpt><trkpt lat="42.8012024" lon="12.4945961"><ele>458.0</ele><time>2026-04-12T12:13:43.871Z</time></trkpt><trkpt lat="42.8012797" lon="12.4945585"><ele>458.0</ele><time>2026-04-12T12:13:44.865Z</time></trkpt><trkpt lat="42.8013639" lon="12.4945161"><ele>458.16666666666663</ele><time>2026-04-12T12:13:45.869Z</time></trkpt><trkpt lat="42.8014446" lon="12.4944744"><ele>458.3333333333333</ele><time>2026-04-12T12:13:46.861Z</time></trkpt><trkpt lat="42.8015197" lon="12.4944357"><ele>458.5</ele><time>2026-04-12T12:13:47.86Z</time></trkpt><trkpt lat="42.801594" lon="12.4944025"><ele>458.66666666666663</ele><time>2026-04-12T12:13:48.866Z</time></trkpt><trkpt lat="42.8016666" lon="12.4943721"><ele>458.8333333333333</ele><time>2026-04-12T12:13:49.862Z</time></trkpt><trkpt lat="42.801735" lon="12.4943421"><ele>459.0</ele><time>2026-04-12T12:13:50.868Z</time></trkpt><trkpt lat="42.8017977" lon="12.4943114"><ele>458.6666666666667</ele><time>2026-04-12T12:13:51.875Z</time></trkpt><trkpt lat="42.8018573" lon="12.4942803"><ele>458.33333333333337</ele><time>2026-04-12T12:13:52.861Z</time></trkpt><trkpt lat="42.8019694" lon="12.4942217"><ele>458.0</ele><time>2026-04-12T12:13:54.867Z</time></trkpt><trkpt lat="42.8020323" lon="12.4941924"><ele>457.6666666666667</ele><time>2026-04-12T12:13:55.863Z</time></trkpt><trkpt lat="42.8020938" lon="12.4941675"><ele>457.33333333333337</ele><time>2026-04-12T12:13:56.852Z</time></trkpt><trkpt lat="42.802163" lon="12.4941406"><ele>457.0</ele><time>2026-04-12T12:13:57.86Z</time></trkpt><trkpt lat="42.8022426" lon="12.4941059"><ele>457.0</ele><time>2026-04-12T12:13:58.851Z</time></trkpt><trkpt lat="42.8023282" lon="12.494069"><ele>457.00000000000006</ele><time>2026-04-12T12:13:59.865Z</time></trkpt><trkpt lat="42.8024206" lon="12.4940297"><ele>457.00000000000006</ele><time>2026-04-12T12:14:00.865Z</time></trkpt><trkpt lat="42.8025227" lon="12.4939871"><ele>457.0</ele><time>2026-04-12T12:14:01.867Z</time></trkpt><trkpt lat="42.8026312" lon="12.4939439"><ele>457.0</ele><time>2026-04-12T12:14:02.865Z</time></trkpt><trkpt lat="42.8027391" lon="12.4938917"><ele>457.20000000000005</ele><time>2026-04-12T12:14:03.871Z</time></trkpt><trkpt lat="42.8028495" lon="12.4938417"><ele>457.40000000000003</ele><time>2026-04-12T12:14:04.868Z</time></trkpt><trkpt lat="42.8029527" lon="12.4937988"><ele>457.59999999999997</ele><time>2026-04-12T12:14:05.865Z</time></trkpt><trkpt lat="42.8030497" lon="12.4937555"><ele>457.79999999999995</ele><time>2026-04-12T12:14:06.86Z</time></trkpt><trkpt lat="42.8031374" lon="12.4937116"><ele>458.0</ele><time>2026-04-12T12:14:07.859Z</time></trkpt><trkpt lat="42.8032174" lon="12.4936707"><ele>458.16666666666663</ele><time>2026-04-12T12:14:08.863Z</time></trkpt><trkpt lat="42.8032933" lon="12.4936437"><ele>458.3333333333333</ele><time>2026-04-12T12:14:09.864Z</time></trkpt><trkpt lat="42.8033644" lon="12.4936191"><ele>458.5</ele><time>2026-04-12T12:14:10.865Z</time></trkpt><trkpt lat="42.8034276" lon="12.4935876"><ele>458.66666666666663</ele><time>2026-04-12T12:14:11.865Z</time></trkpt><trkpt lat="42.8034943" lon="12.4935495"><ele>458.8333333333333</ele><time>2026-04-12T12:14:12.862Z</time></trkpt><trkpt lat="42.8035708" lon="12.4935178"><ele>459.0</ele><time>2026-04-12T12:14:13.863Z</time></trkpt><trkpt lat="42.8036506" lon="12.4934827"><ele>459.0</ele><time>2026-04-12T12:14:14.878Z</time></trkpt><trkpt lat="42.8037333" lon="12.4934438"><ele>459.0</ele><time>2026-04-12T12:14:15.869Z</time></trkpt><trkpt lat="42.8038218" lon="12.493407"><ele>459.0</ele><time>2026-04-12T12:14:16.858Z</time></trkpt><trkpt lat="42.8039187" lon="12.4933731"><ele>459.0</ele><time>2026-04-12T12:14:17.865Z</time></trkpt><trkpt lat="42.8040269" lon="12.4933358"><ele>459.0</ele><time>2026-04-12T12:14:18.867Z</time></trkpt><trkpt lat="42.8041433" lon="12.4932942"><ele>459.0</ele><time>2026-04-12T12:14:19.866Z</time></trkpt><trkpt lat="42.8042678" lon="12.4932546"><ele>459.0</ele><time>2026-04-12T12:14:20.878Z</time></trkpt><trkpt lat="42.8043981" lon="12.4932227"><ele>459.0</ele><time>2026-04-12T12:14:21.879Z</time></trkpt><trkpt lat="42.80453" lon="12.4932001"><ele>459.0</ele><time>2026-04-12T12:14:22.879Z</time></trkpt><trkpt lat="42.8046581" lon="12.4931842"><ele>459.25</ele><time>2026-04-12T12:14:23.86Z</time></trkpt><trkpt lat="42.8047808" lon="12.4931745"><ele>459.5</ele><time>2026-04-12T12:14:24.877Z</time></trkpt><trkpt lat="42.8049058" lon="12.4931677"><ele>459.75</ele><time>2026-04-12T12:14:25.862Z</time></trkpt><trkpt lat="42.8050286" lon="12.493172"><ele>460.0</ele><time>2026-04-12T12:14:26.863Z</time></trkpt><trkpt lat="42.8051485" lon="12.4931755"><ele>459.8</ele><time>2026-04-12T12:14:27.863Z</time></trkpt><trkpt lat="42.8052634" lon="12.4931775"><ele>459.6</ele><time>2026-04-12T12:14:28.86Z</time></trkpt><trkpt lat="42.8053762" lon="12.4931809"><ele>459.4</ele><time>2026-04-12T12:14:29.86Z</time></trkpt><trkpt lat="42.8054866" lon="12.4931838"><ele>459.2</ele><time>2026-04-12T12:14:30.861Z</time></trkpt><trkpt lat="42.8055967" lon="12.4931828"><ele>459.0</ele><time>2026-04-12T12:14:31.875Z</time></trkpt><trkpt lat="42.8057114" lon="12.4931858"><ele>459.0</ele><time>2026-04-12T12:14:32.87Z</time></trkpt><trkpt lat="42.8058296" lon="12.4931887"><ele>459.0</ele><time>2026-04-12T12:14:33.874Z</time></trkpt><trkpt lat="42.805954" lon="12.4931906"><ele>459.0</ele><time>2026-04-12T12:14:34.879Z</time></trkpt><trkpt lat="42.8060859" lon="12.4932071"><ele>459.0</ele><time>2026-04-12T12:14:35.863Z</time></trkpt><trkpt lat="42.8062102" lon="12.4932474"><ele>459.25</ele><time>2026-04-12T12:14:36.859Z</time></trkpt><trkpt lat="42.8063349" lon="12.4933138"><ele>459.5</ele><time>2026-04-12T12:14:37.868Z</time></trkpt><trkpt lat="42.8064443" lon="12.4934194"><ele>459.75</ele><time>2026-04-12T12:14:38.862Z</time></trkpt><trkpt lat="42.8065448" lon="12.4935474"><ele>460.0</ele><time>2026-04-12T12:14:39.864Z</time></trkpt><trkpt lat="42.8066388" lon="12.4936919"><ele>459.25</ele><time>2026-04-12T12:14:40.873Z</time></trkpt><trkpt lat="42.8067362" lon="12.4938381"><ele>458.5</ele><time>2026-04-12T12:14:41.868Z</time></trkpt><trkpt lat="42.806837" lon="12.4939817"><ele>457.75</ele><time>2026-04-12T12:14:42.865Z</time></trkpt><trkpt lat="42.8069373" lon="12.4941236"><ele>457.0</ele><time>2026-04-12T12:14:43.871Z</time></trkpt><trkpt lat="42.8070371" lon="12.4942659"><ele>457.0</ele><time>2026-04-12T12:14:44.861Z</time></trkpt><trkpt lat="42.8071365" lon="12.4944087"><ele>457.0</ele><time>2026-04-12T12:14:45.874Z</time></trkpt><trkpt lat="42.8072363" lon="12.4945555"><ele>457.0</ele><time>2026-04-12T12:14:46.86Z</time></trkpt><trkpt lat="42.8073382" lon="12.4947037"><ele>457.0</ele><time>2026-04-12T12:14:47.871Z</time></trkpt><trkpt lat="42.8074424" lon="12.494853"><ele>456.33333333333337</ele><time>2026-04-12T12:14:48.871Z</time></trkpt><trkpt lat="42.8075478" lon="12.4950088"><ele>455.66666666666663</ele><time>2026-04-12T12:14:49.859Z</time></trkpt><trkpt lat="42.8076536" lon="12.4951622"><ele>455.0</ele><time>2026-04-12T12:14:50.861Z</time></trkpt><trkpt lat="42.8077624" lon="12.4953207"><ele>455.66666666666663</ele><time>2026-04-12T12:14:51.854Z</time></trkpt><trkpt lat="42.8078749" lon="12.4954786"><ele>456.33333333333337</ele><time>2026-04-12T12:14:52.854Z</time></trkpt><trkpt lat="42.8079865" lon="12.4956391"><ele>457.0</ele><time>2026-04-12T12:14:53.857Z</time></trkpt><trkpt lat="42.808098" lon="12.4958007"><ele>457.0</ele><time>2026-04-12T12:14:54.862Z</time></trkpt><trkpt lat="42.8082107" lon="12.4959583"><ele>457.0</ele><time>2026-04-12T12:14:55.861Z</time></trkpt><trkpt lat="42.8083267" lon="12.496126"><ele>457.0</ele><time>2026-04-12T12:14:56.861Z</time></trkpt><trkpt lat="42.8084373" lon="12.4962926"><ele>457.6666666666667</ele><time>2026-04-12T12:14:57.866Z</time></trkpt><trkpt lat="42.8085437" lon="12.4964493"><ele>458.33333333333337</ele><time>2026-04-12T12:14:58.858Z</time></trkpt><trkpt lat="42.8086496" lon="12.4966055"><ele>459.0</ele><time>2026-04-12T12:14:59.878Z</time></trkpt><trkpt lat="42.8087573" lon="12.4967544"><ele>459.0</ele><time>2026-04-12T12:15:00.865Z</time></trkpt><trkpt lat="42.8088727" lon="12.4968984"><ele>459.0</ele><time>2026-04-12T12:15:01.859Z</time></trkpt><trkpt lat="42.808993" lon="12.4970329"><ele>459.0</ele><time>2026-04-12T12:15:02.867Z</time></trkpt><trkpt lat="42.8091329" lon="12.4971517"><ele>458.66666666666663</ele><time>2026-04-12T12:15:03.854Z</time></trkpt><trkpt lat="42.8092818" lon="12.497253"><ele>458.3333333333333</ele><time>2026-04-12T12:15:04.87Z</time></trkpt><trkpt lat="42.8094298" lon="12.4973558"><ele>458.0</ele><time>2026-04-12T12:15:05.865Z</time></trkpt><trkpt lat="42.8095811" lon="12.4974595"><ele>458.0</ele><time>2026-04-12T12:15:06.869Z</time></trkpt><trkpt lat="42.8097301" lon="12.497565"><ele>458.0</ele><time>2026-04-12T12:15:07.868Z</time></trkpt><trkpt lat="42.809887" lon="12.4976712"><ele>458.0</ele><time>2026-04-12T12:15:08.859Z</time></trkpt><trkpt lat="42.8100471" lon="12.497778"><ele>458.66666666666663</ele><time>2026-04-12T12:15:09.861Z</time></trkpt><trkpt lat="42.8102085" lon="12.4978826"><ele>459.33333333333337</ele><time>2026-04-12T12:15:10.867Z</time></trkpt><trkpt lat="42.8103703" lon="12.4979744"><ele>460.0</ele><time>2026-04-12T12:15:11.873Z</time></trkpt><trkpt lat="42.8105411" lon="12.4980581"><ele>460.0</ele><time>2026-04-12T12:15:12.862Z</time></trkpt><trkpt lat="42.8107135" lon="12.4981241"><ele>460.0</ele><time>2026-04-12T12:15:13.858Z</time></trkpt><trkpt lat="42.8108954" lon="12.4981832"><ele>460.0</ele><time>2026-04-12T12:15:14.856Z</time></trkpt><trkpt lat="42.8110746" lon="12.4982367"><ele>460.6666666666667</ele><time>2026-04-12T12:15:15.88Z</time></trkpt><trkpt lat="42.8112588" lon="12.4982857"><ele>461.33333333333337</ele><time>2026-04-12T12:15:16.864Z</time></trkpt><trkpt lat="42.8114411" lon="12.4983367"><ele>462.0</ele><time>2026-04-12T12:15:17.864Z</time></trkpt><trkpt lat="42.8116263" lon="12.4983898"><ele>462.0</ele><time>2026-04-12T12:15:18.862Z</time></trkpt><trkpt lat="42.8118116" lon="12.4984427"><ele>462.0</ele><time>2026-04-12T12:15:19.863Z</time></trkpt><trkpt lat="42.8119942" lon="12.4984986"><ele>462.0</ele><time>2026-04-12T12:15:20.866Z</time></trkpt><trkpt lat="42.8121779" lon="12.4985571"><ele>462.66666666666663</ele><time>2026-04-12T12:15:21.857Z</time></trkpt><trkpt lat="42.8123622" lon="12.4986131"><ele>463.3333333333333</ele><time>2026-04-12T12:15:22.866Z</time></trkpt><trkpt lat="42.812544" lon="12.4986701"><ele>464.0</ele><time>2026-04-12T12:15:23.868Z</time></trkpt><trkpt lat="42.812722" lon="12.4987222"><ele>464.66666666666663</ele><time>2026-04-12T12:15:24.859Z</time></trkpt><trkpt lat="42.8129006" lon="12.4987706"><ele>465.33333333333337</ele><time>2026-04-12T12:15:25.861Z</time></trkpt><trkpt lat="42.8130743" lon="12.498822"><ele>466.0</ele><time>2026-04-12T12:15:26.861Z</time></trkpt><trkpt lat="42.8132514" lon="12.4988742"><ele>466.0</ele><time>2026-04-12T12:15:27.865Z</time></trkpt><trkpt lat="42.8134257" lon="12.4989294"><ele>466.0</ele><time>2026-04-12T12:15:28.865Z</time></trkpt><trkpt lat="42.8136026" lon="12.4989897"><ele>466.0</ele><time>2026-04-12T12:15:29.862Z</time></trkpt><trkpt lat="42.8137794" lon="12.4990601"><ele>467.0</ele><time>2026-04-12T12:15:30.869Z</time></trkpt><trkpt lat="42.8139525" lon="12.4991415"><ele>468.0</ele><time>2026-04-12T12:15:31.862Z</time></trkpt><trkpt lat="42.8141211" lon="12.4992334"><ele>469.0</ele><time>2026-04-12T12:15:32.854Z</time></trkpt><trkpt lat="42.8142882" lon="12.499327"><ele>468.6666666666667</ele><time>2026-04-12T12:15:33.855Z</time></trkpt><trkpt lat="42.8144591" lon="12.4994205"><ele>468.33333333333337</ele><time>2026-04-12T12:15:34.856Z</time></trkpt><trkpt lat="42.8146263" lon="12.4995102"><ele>468.0</ele><time>2026-04-12T12:15:35.851Z</time></trkpt><trkpt lat="42.8147896" lon="12.4996009"><ele>468.0</ele><time>2026-04-12T12:15:36.872Z</time></trkpt><trkpt lat="42.8149497" lon="12.4996903"><ele>468.0</ele><time>2026-04-12T12:15:37.863Z</time></trkpt><trkpt lat="42.8150978" lon="12.4997786"><ele>468.0</ele><time>2026-04-12T12:15:38.844Z</time></trkpt><trkpt lat="42.8152371" lon="12.4998599"><ele>468.0</ele><time>2026-04-12T12:15:39.866Z</time></trkpt><trkpt lat="42.8153738" lon="12.4999406"><ele>468.0</ele><time>2026-04-12T12:15:40.858Z</time></trkpt><trkpt lat="42.8155143" lon="12.5000169"><ele>468.0</ele><time>2026-04-12T12:15:41.861Z</time></trkpt><trkpt lat="42.8156573" lon="12.5000924"><ele>468.0</ele><time>2026-04-12T12:15:42.861Z</time></trkpt><trkpt lat="42.8158044" lon="12.5001704"><ele>468.0</ele><time>2026-04-12T12:15:43.874Z</time></trkpt><trkpt lat="42.8159541" lon="12.5002472"><ele>468.0</ele><time>2026-04-12T12:15:44.868Z</time></trkpt><trkpt lat="42.8161059" lon="12.500326"><ele>467.33333333333337</ele><time>2026-04-12T12:15:45.86Z</time></trkpt><trkpt lat="42.8162556" lon="12.5004078"><ele>466.6666666666667</ele><time>2026-04-12T12:15:46.869Z</time></trkpt><trkpt lat="42.816408" lon="12.5004916"><ele>466.0</ele><time>2026-04-12T12:15:47.861Z</time></trkpt><trkpt lat="42.8165622" lon="12.5005722"><ele>466.0</ele><time>2026-04-12T12:15:48.86Z</time></trkpt><trkpt lat="42.8167152" lon="12.5006554"><ele>466.0</ele><time>2026-04-12T12:15:49.86Z</time></trkpt><trkpt lat="42.8168686" lon="12.5007358"><ele>466.0</ele><time>2026-04-12T12:15:50.863Z</time></trkpt><trkpt lat="42.8170223" lon="12.5008188"><ele>465.6666666666667</ele><time>2026-04-12T12:15:51.86Z</time></trkpt><trkpt lat="42.8171768" lon="12.5009048"><ele>465.33333333333337</ele><time>2026-04-12T12:15:52.863Z</time></trkpt><trkpt lat="42.8173305" lon="12.5009892"><ele>465.0</ele><time>2026-04-12T12:15:53.864Z</time></trkpt><trkpt lat="42.8174859" lon="12.5010768"><ele>465.0</ele><time>2026-04-12T12:15:54.853Z</time></trkpt><trkpt lat="42.8176416" lon="12.5011622"><ele>465.0</ele><time>2026-04-12T12:15:55.861Z</time></trkpt><trkpt lat="42.8177962" lon="12.5012496"><ele>465.0</ele><time>2026-04-12T12:15:56.865Z</time></trkpt><trkpt lat="42.8179494" lon="12.5013343"><ele>465.66666666666663</ele><time>2026-04-12T12:15:57.859Z</time></trkpt><trkpt lat="42.8181056" lon="12.5014106"><ele>466.3333333333333</ele><time>2026-04-12T12:15:58.86Z</time></trkpt><trkpt lat="42.8182615" lon="12.5014893"><ele>467.0</ele><time>2026-04-12T12:15:59.866Z</time></trkpt><trkpt lat="42.8184171" lon="12.5015763"><ele>467.66666666666663</ele><time>2026-04-12T12:16:00.865Z</time></trkpt><trkpt lat="42.8185701" lon="12.5016626"><ele>468.33333333333337</ele><time>2026-04-12T12:16:01.867Z</time></trkpt><trkpt lat="42.8187271" lon="12.5017481"><ele>469.0</ele><time>2026-04-12T12:16:02.857Z</time></trkpt><trkpt lat="42.8188815" lon="12.5018336"><ele>469.0</ele><time>2026-04-12T12:16:03.865Z</time></trkpt><trkpt lat="42.819032" lon="12.5019144"><ele>469.0</ele><time>2026-04-12T12:16:04.853Z</time></trkpt><trkpt lat="42.8191817" lon="12.5019952"><ele>469.0</ele><time>2026-04-12T12:16:05.851Z</time></trkpt><trkpt lat="42.8193353" lon="12.5020748"><ele>469.0</ele><time>2026-04-12T12:16:06.867Z</time></trkpt><trkpt lat="42.8194902" lon="12.502149"><ele>469.0</ele><time>2026-04-12T12:16:07.847Z</time></trkpt><trkpt lat="42.8196478" lon="12.5022207"><ele>469.0</ele><time>2026-04-12T12:16:08.859Z</time></trkpt><trkpt lat="42.8198033" lon="12.5022977"><ele>469.0</ele><time>2026-04-12T12:16:09.859Z</time></trkpt><trkpt lat="42.8199645" lon="12.5023787"><ele>469.0</ele><time>2026-04-12T12:16:10.855Z</time></trkpt><trkpt lat="42.8201263" lon="12.5024569"><ele>469.0</ele><time>2026-04-12T12:16:11.856Z</time></trkpt><trkpt lat="42.8202879" lon="12.5025333"><ele>470.0</ele><time>2026-04-12T12:16:12.855Z</time></trkpt><trkpt lat="42.820447" lon="12.5026126"><ele>471.0</ele><time>2026-04-12T12:16:13.858Z</time></trkpt><trkpt lat="42.8206094" lon="12.5026912"><ele>472.0</ele><time>2026-04-12T12:16:14.861Z</time></trkpt><trkpt lat="42.8207668" lon="12.502766"><ele>472.0</ele><time>2026-04-12T12:16:15.868Z</time></trkpt><trkpt lat="42.8209247" lon="12.5028388"><ele>472.0</ele><time>2026-04-12T12:16:16.848Z</time></trkpt><trkpt lat="42.8210823" lon="12.5029114"><ele>472.0</ele><time>2026-04-12T12:16:17.863Z</time></trkpt><trkpt lat="42.8212383" lon="12.5029851"><ele>471.6666666666667</ele><time>2026-04-12T12:16:18.844Z</time></trkpt><trkpt lat="42.8213945" lon="12.5030597"><ele>471.33333333333337</ele><time>2026-04-12T12:16:19.858Z</time></trkpt><trkpt lat="42.821547" lon="12.5031384"><ele>471.0</ele><time>2026-04-12T12:16:20.846Z</time></trkpt><trkpt lat="42.8216891" lon="12.5032072"><ele>472.0</ele><time>2026-04-12T12:16:21.856Z</time></trkpt><trkpt lat="42.8218273" lon="12.5032826"><ele>473.0</ele><time>2026-04-12T12:16:22.86Z</time></trkpt><trkpt lat="42.8219608" lon="12.5033741"><ele>474.0</ele><time>2026-04-12T12:16:23.864Z</time></trkpt><trkpt lat="42.8220866" lon="12.5035005"><ele>474.0</ele><time>2026-04-12T12:16:24.867Z</time></trkpt><trkpt lat="42.8221948" lon="12.5036409"><ele>474.0</ele><time>2026-04-12T12:16:25.852Z</time></trkpt><trkpt lat="42.8222945" lon="12.5038061"><ele>474.0</ele><time>2026-04-12T12:16:26.855Z</time></trkpt><trkpt lat="42.8223799" lon="12.5039878"><ele>474.0</ele><time>2026-04-12T12:16:27.854Z</time></trkpt><trkpt lat="42.8224636" lon="12.5041799"><ele>474.0</ele><time>2026-04-12T12:16:28.853Z</time></trkpt><trkpt lat="42.8225371" lon="12.5043752"><ele>474.0</ele><time>2026-04-12T12:16:29.846Z</time></trkpt><trkpt lat="42.8226059" lon="12.504575"><ele>475.0</ele><time>2026-04-12T12:16:30.847Z</time></trkpt><trkpt lat="42.8226767" lon="12.5047713"><ele>476.0</ele><time>2026-04-12T12:16:31.855Z</time></trkpt><trkpt lat="42.8227465" lon="12.5049642"><ele>477.0</ele><time>2026-04-12T12:16:32.851Z</time></trkpt><trkpt lat="42.8228088" lon="12.5051624"><ele>477.0</ele><time>2026-04-12T12:16:33.853Z</time></trkpt><trkpt lat="42.8228605" lon="12.5053653"><ele>477.0</ele><time>2026-04-12T12:16:34.846Z</time></trkpt><trkpt lat="42.8229035" lon="12.5055753"><ele>477.0</ele><time>2026-04-12T12:16:35.849Z</time></trkpt><trkpt lat="42.8229395" lon="12.5057797"><ele>477.0</ele><time>2026-04-12T12:16:36.859Z</time></trkpt><trkpt lat="42.8229661" lon="12.5059799"><ele>477.0</ele><time>2026-04-12T12:16:37.857Z</time></trkpt><trkpt lat="42.8229923" lon="12.5061771"><ele>477.0</ele><time>2026-04-12T12:16:38.862Z</time></trkpt><trkpt lat="42.8230224" lon="12.5063734"><ele>477.0</ele><time>2026-04-12T12:16:39.85Z</time></trkpt><trkpt lat="42.8230449" lon="12.5065685"><ele>477.0</ele><time>2026-04-12T12:16:40.858Z</time></trkpt><trkpt lat="42.8230713" lon="12.5067648"><ele>477.0</ele><time>2026-04-12T12:16:41.857Z</time></trkpt><trkpt lat="42.8231008" lon="12.5069593"><ele>477.0</ele><time>2026-04-12T12:16:42.851Z</time></trkpt><trkpt lat="42.8231322" lon="12.507154"><ele>477.0</ele><time>2026-04-12T12:16:43.863Z</time></trkpt><trkpt lat="42.8231699" lon="12.5073327"><ele>477.25</ele><time>2026-04-12T12:16:44.852Z</time></trkpt><trkpt lat="42.8232197" lon="12.5074936"><ele>477.5</ele><time>2026-04-12T12:16:45.851Z</time></trkpt><trkpt lat="42.8232832" lon="12.5076425"><ele>477.75</ele><time>2026-04-12T12:16:46.851Z</time></trkpt><trkpt lat="42.8233479" lon="12.5077715"><ele>478.0</ele><time>2026-04-12T12:16:47.864Z</time></trkpt><trkpt lat="42.8234107" lon="12.5078909"><ele>478.1666666666667</ele><time>2026-04-12T12:16:48.868Z</time></trkpt><trkpt lat="42.823471" lon="12.5080006"><ele>478.33333333333337</ele><time>2026-04-12T12:16:49.86Z</time></trkpt><trkpt lat="42.8235238" lon="12.5080929"><ele>478.5</ele><time>2026-04-12T12:16:50.866Z</time></trkpt><trkpt lat="42.8235742" lon="12.5081679"><ele>478.66666666666663</ele><time>2026-04-12T12:16:51.859Z</time></trkpt><trkpt lat="42.8236234" lon="12.5082602"><ele>478.8333333333333</ele><time>2026-04-12T12:16:53.854Z</time></trkpt><trkpt lat="42.8236808" lon="12.5083523"><ele>479.0</ele><time>2026-04-12T12:16:56.872Z</time></trkpt><trkpt lat="42.8237411" lon="12.5084434"><ele>478.99999999999994</ele><time>2026-04-12T12:16:58.86Z</time></trkpt><trkpt lat="42.8237798" lon="12.5085117"><ele>479.0</ele><time>2026-04-12T12:16:59.866Z</time></trkpt><trkpt lat="42.8238237" lon="12.5085914"><ele>479.0</ele><time>2026-04-12T12:17:00.853Z</time></trkpt><trkpt lat="42.8238749" lon="12.5086819"><ele>479.0</ele><time>2026-04-12T12:17:01.855Z</time></trkpt><trkpt lat="42.8239245" lon="12.5087682"><ele>478.99999999999994</ele><time>2026-04-12T12:17:02.87Z</time></trkpt><trkpt lat="42.8239737" lon="12.5088557"><ele>479.0</ele><time>2026-04-12T12:17:03.865Z</time></trkpt><trkpt lat="42.8240289" lon="12.5089466"><ele>479.0</ele><time>2026-04-12T12:17:04.85Z</time></trkpt><trkpt lat="42.8240851" lon="12.5090419"><ele>479.0</ele><time>2026-04-12T12:17:05.858Z</time></trkpt><trkpt lat="42.8241469" lon="12.5091422"><ele>479.0</ele><time>2026-04-12T12:17:06.859Z</time></trkpt><trkpt lat="42.8242125" lon="12.5092476"><ele>479.0</ele><time>2026-04-12T12:17:07.855Z</time></trkpt><trkpt lat="42.8242811" lon="12.5093573"><ele>479.0</ele><time>2026-04-12T12:17:08.861Z</time></trkpt><trkpt lat="42.8243508" lon="12.5094731"><ele>479.25</ele><time>2026-04-12T12:17:09.849Z</time></trkpt><trkpt lat="42.8244184" lon="12.5095923"><ele>479.5</ele><time>2026-04-12T12:17:10.854Z</time></trkpt><trkpt lat="42.8244878" lon="12.5097096"><ele>479.75</ele><time>2026-04-12T12:17:11.862Z</time></trkpt><trkpt lat="42.8245622" lon="12.5098267"><ele>480.0</ele><time>2026-04-12T12:17:12.867Z</time></trkpt><trkpt lat="42.8246453" lon="12.5099389"><ele>480.0</ele><time>2026-04-12T12:17:13.857Z</time></trkpt><trkpt lat="42.8247331" lon="12.5100465"><ele>480.0</ele><time>2026-04-12T12:17:14.857Z</time></trkpt><trkpt lat="42.8248199" lon="12.510149"><ele>480.0</ele><time>2026-04-12T12:17:15.861Z</time></trkpt><trkpt lat="42.8249081" lon="12.5102559"><ele>480.0</ele><time>2026-04-12T12:17:16.854Z</time></trkpt><trkpt lat="42.8231699" lon="12.5073327"><ele>479.5</ele><time>2026-04-12T12:16:44.852Z</time></trkpt><trkpt lat="42.8232197" lon="12.5074936"><ele>479.0</ele><time>2026-04-12T12:16:45.851Z</time></trkpt><trkpt lat="42.8232832" lon="12.5076425"><ele>478.5</ele><time>2026-04-12T12:16:46.851Z</time></trkpt><trkpt lat="42.8233479" lon="12.5077715"><ele>478.0</ele><time>2026-04-12T12:16:47.864Z</time></trkpt><trkpt lat="42.8234107" lon="12.5078909"><ele>478.1666666666667</ele><time>2026-04-12T12:16:48.868Z</time></trkpt><trkpt lat="42.823471" lon="12.5080006"><ele>478.33333333333337</ele><time>2026-04-12T12:16:49.86Z</time></trkpt><trkpt lat="42.8235238" lon="12.5080929"><ele>478.5</ele><time>2026-04-12T12:16:50.866Z</time></trkpt><trkpt lat="42.8235742" lon="12.5081679"><ele>478.66666666666663</ele><time>2026-04-12T12:16:51.859Z</time></trkpt><trkpt lat="42.8236234" lon="12.5082602"><ele>478.8333333333333</ele><time>2026-04-12T12:16:53.854Z</time></trkpt><trkpt lat="42.8236808" lon="12.5083523"><ele>479.0</ele><time>2026-04-12T12:16:56.872Z</time></trkpt><trkpt lat="42.8237411" lon="12.5084434"><ele>478.99999999999994</ele><time>2026-04-12T12:16:58.86Z</time></trkpt><trkpt lat="42.8237798" lon="12.5085117"><ele>479.0</ele><time>2026-04-12T12:16:59.866Z</time></trkpt><trkpt lat="42.8238237" lon="12.5085914"><ele>479.0</ele><time>2026-04-12T12:17:00.853Z</time></trkpt><trkpt lat="42.8238749" lon="12.5086819"><ele>479.0</ele><time>2026-04-12T12:17:01.855Z</time></trkpt><trkpt lat="42.8239245" lon="12.5087682"><ele>478.99999999999994</ele><time>2026-04-12T12:17:02.87Z</time></trkpt><trkpt lat="42.8239737" lon="12.5088557"><ele>479.0</ele><time>2026-04-12T12:17:03.865Z</time></trkpt><trkpt lat="42.8240289" lon="12.5089466"><ele>479.0</ele><time>2026-04-12T12:17:04.85Z</time></trkpt><trkpt lat="42.8240851" lon="12.5090419"><ele>479.0</ele><time>2026-04-12T12:17:05.858Z</time></trkpt><trkpt lat="42.8241469" lon="12.5091422"><ele>479.0</ele><time>2026-04-12T12:17:06.859Z</time></trkpt><trkpt lat="42.8242125" lon="12.5092476"><ele>479.0</ele><time>2026-04-12T12:17:07.855Z</time></trkpt><trkpt lat="42.8242811" lon="12.5093573"><ele>479.0</ele><time>2026-04-12T12:17:08.861Z</time></trkpt><trkpt lat="42.8243508" lon="12.5094731"><ele>479.25</ele><time>2026-04-12T12:17:09.849Z</time></trkpt><trkpt lat="42.8244184" lon="12.5095923"><ele>479.5</ele><time>2026-04-12T12:17:10.854Z</time></trkpt><trkpt lat="42.8244878" lon="12.5097096"><ele>479.75</ele><time>2026-04-12T12:17:11.862Z</time></trkpt><trkpt lat="42.8245622" lon="12.5098267"><ele>480.0</ele><time>2026-04-12T12:17:12.867Z</time></trkpt><trkpt lat="42.8246453" lon="12.5099389"><ele>480.0</ele><time>2026-04-12T12:17:13.857Z</time></trkpt><trkpt lat="42.8247331" lon="12.5100465"><ele>480.0</ele><time>2026-04-12T12:17:14.857Z</time></trkpt><trkpt lat="42.8248199" lon="12.510149"><ele>480.0</ele><time>2026-04-12T12:17:15.861Z</time></trkpt><trkpt lat="42.8249081" lon="12.5102559"><ele>480.0</ele><time>2026-04-12T12:17:16.854Z</time></trkpt><trkpt lat="42.8249994" lon="12.5103635"><ele>479.5</ele><time>2026-04-12T12:17:17.863Z</time></trkpt><trkpt lat="42.8250937" lon="12.5104771"><ele>479.0</ele><time>2026-04-12T12:17:18.862Z</time></trkpt><trkpt lat="42.8251884" lon="12.5105909"><ele>478.5</ele><time>2026-04-12T12:17:19.868Z</time></trkpt><trkpt lat="42.825283" lon="12.5107075"><ele>478.0</ele><time>2026-04-12T12:17:20.854Z</time></trkpt><trkpt lat="42.8253813" lon="12.510824"><ele>478.0</ele><time>2026-04-12T12:17:21.856Z</time></trkpt><trkpt lat="42.8254784" lon="12.5109399"><ele>478.0</ele><time>2026-04-12T12:17:22.871Z</time></trkpt><trkpt lat="42.8255743" lon="12.5110569"><ele>478.0</ele><time>2026-04-12T12:17:23.853Z</time></trkpt><trkpt lat="42.8256702" lon="12.5111702"><ele>478.0</ele><time>2026-04-12T12:17:24.871Z</time></trkpt><trkpt lat="42.825763" lon="12.5112836"><ele>477.25</ele><time>2026-04-12T12:17:25.861Z</time></trkpt><trkpt lat="42.8258472" lon="12.5113963"><ele>476.5</ele><time>2026-04-12T12:17:26.852Z</time></trkpt><trkpt lat="42.8259224" lon="12.5115221"><ele>475.75</ele><time>2026-04-12T12:17:27.848Z</time></trkpt><trkpt lat="42.8259797" lon="12.5116663"><ele>475.0</ele><time>2026-04-12T12:17:28.858Z</time></trkpt><trkpt lat="42.8260033" lon="12.5118206"><ele>473.5</ele><time>2026-04-12T12:17:29.854Z</time></trkpt><trkpt lat="42.8259968" lon="12.5119807"><ele>472.0</ele><time>2026-04-12T12:17:30.867Z</time></trkpt><trkpt lat="42.8259658" lon="12.5121457"><ele>470.5</ele><time>2026-04-12T12:17:31.855Z</time></trkpt><trkpt lat="42.8259463" lon="12.5123108"><ele>469.0</ele><time>2026-04-12T12:17:32.85Z</time></trkpt><trkpt lat="42.8259587" lon="12.5124656"><ele>468.25</ele><time>2026-04-12T12:17:33.863Z</time></trkpt><trkpt lat="42.826013" lon="12.5126153"><ele>467.5</ele><time>2026-04-12T12:17:34.858Z</time></trkpt><trkpt lat="42.8260915" lon="12.5127314"><ele>466.75</ele><time>2026-04-12T12:17:35.851Z</time></trkpt><trkpt lat="42.8262013" lon="12.512838"><ele>466.0</ele><time>2026-04-12T12:17:36.86Z</time></trkpt><trkpt lat="42.8263213" lon="12.5129275"><ele>466.0</ele><time>2026-04-12T12:17:37.863Z</time></trkpt><trkpt lat="42.826446" lon="12.5130236"><ele>466.0</ele><time>2026-04-12T12:17:38.874Z</time></trkpt><trkpt lat="42.8265726" lon="12.5131339"><ele>466.0</ele><time>2026-04-12T12:17:39.862Z</time></trkpt><trkpt lat="42.8266895" lon="12.5132478"><ele>466.0</ele><time>2026-04-12T12:17:40.85Z</time></trkpt><trkpt lat="42.8268064" lon="12.5133555"><ele>466.75</ele><time>2026-04-12T12:17:41.856Z</time></trkpt><trkpt lat="42.826929" lon="12.5134526"><ele>467.5</ele><time>2026-04-12T12:17:42.876Z</time></trkpt><trkpt lat="42.8270628" lon="12.5135162"><ele>468.25</ele><time>2026-04-12T12:17:43.855Z</time></trkpt><trkpt lat="42.8272033" lon="12.5135548"><ele>469.0</ele><time>2026-04-12T12:17:44.858Z</time></trkpt><trkpt lat="42.8273518" lon="12.5135803"><ele>469.0</ele><time>2026-04-12T12:17:45.86Z</time></trkpt><trkpt lat="42.8275006" lon="12.5136023"><ele>469.0</ele><time>2026-04-12T12:17:46.855Z</time></trkpt><trkpt lat="42.8276577" lon="12.513614"><ele>469.0</ele><time>2026-04-12T12:17:47.851Z</time></trkpt><trkpt lat="42.8278169" lon="12.5136282"><ele>469.0</ele><time>2026-04-12T12:17:48.859Z</time></trkpt><trkpt lat="42.8279732" lon="12.5136496"><ele>469.0</ele><time>2026-04-12T12:17:49.869Z</time></trkpt><trkpt lat="42.8281281" lon="12.5136833"><ele>469.0</ele><time>2026-04-12T12:17:50.86Z</time></trkpt><trkpt lat="42.8282797" lon="12.5137315"><ele>463.33333333333337</ele><time>2026-04-12T12:17:51.86Z</time></trkpt><trkpt lat="42.828427" lon="12.5137722"><ele>457.66666666666663</ele><time>2026-04-12T12:17:52.858Z</time></trkpt><trkpt lat="42.8285775" lon="12.5138182"><ele>452.0</ele><time>2026-04-12T12:17:53.859Z</time></trkpt><trkpt lat="42.8287237" lon="12.5138664"><ele>452.0</ele><time>2026-04-12T12:17:54.86Z</time></trkpt><trkpt lat="42.8288588" lon="12.5139089"><ele>452.0</ele><time>2026-04-12T12:17:55.854Z</time></trkpt><trkpt lat="42.8289954" lon="12.5139268"><ele>452.0</ele><time>2026-04-12T12:17:56.852Z</time></trkpt><trkpt lat="42.8291337" lon="12.5139022"><ele>452.0</ele><time>2026-04-12T12:17:57.855Z</time></trkpt><trkpt lat="42.8292684" lon="12.5138325"><ele>453.25</ele><time>2026-04-12T12:17:58.85Z</time></trkpt><trkpt lat="42.8293936" lon="12.5137342"><ele>454.5</ele><time>2026-04-12T12:17:59.856Z</time></trkpt><trkpt lat="42.8295159" lon="12.5136398"><ele>455.75</ele><time>2026-04-12T12:18:00.846Z</time></trkpt><trkpt lat="42.8296458" lon="12.5135431"><ele>457.0</ele><time>2026-04-12T12:18:01.85Z</time></trkpt><trkpt lat="42.8297785" lon="12.5134749"><ele>457.0</ele><time>2026-04-12T12:18:02.844Z</time></trkpt><trkpt lat="42.8299104" lon="12.5134319"><ele>457.0</ele><time>2026-04-12T12:18:03.853Z</time></trkpt><trkpt lat="42.8300377" lon="12.5134003"><ele>457.0</ele><time>2026-04-12T12:18:04.856Z</time></trkpt><trkpt lat="42.8301653" lon="12.5133494"><ele>457.0</ele><time>2026-04-12T12:18:05.854Z</time></trkpt><trkpt lat="42.8302815" lon="12.5132591"><ele>456.5</ele><time>2026-04-12T12:18:06.851Z</time></trkpt><trkpt lat="42.8303893" lon="12.5131442"><ele>456.0</ele><time>2026-04-12T12:18:07.855Z</time></trkpt><trkpt lat="42.8304785" lon="12.5130179"><ele>455.5</ele><time>2026-04-12T12:18:08.854Z</time></trkpt><trkpt lat="42.8305563" lon="12.5128764"><ele>455.0</ele><time>2026-04-12T12:18:09.859Z</time></trkpt><trkpt lat="42.830633" lon="12.5127397"><ele>455.0</ele><time>2026-04-12T12:18:10.85Z</time></trkpt><trkpt lat="42.8307294" lon="12.5126427"><ele>455.0</ele><time>2026-04-12T12:18:11.853Z</time></trkpt><trkpt lat="42.8308517" lon="12.5125888"><ele>455.0</ele><time>2026-04-12T12:18:12.856Z</time></trkpt><trkpt lat="42.8309891" lon="12.5125878"><ele>455.0</ele><time>2026-04-12T12:18:13.854Z</time></trkpt><trkpt lat="42.8311148" lon="12.5126346"><ele>453.75</ele><time>2026-04-12T12:18:14.857Z</time></trkpt><trkpt lat="42.8312464" lon="12.5126868"><ele>452.5</ele><time>2026-04-12T12:18:15.864Z</time></trkpt><trkpt lat="42.8313712" lon="12.5127195"><ele>451.25</ele><time>2026-04-12T12:18:16.851Z</time></trkpt><trkpt lat="42.8314991" lon="12.5127157"><ele>450.0</ele><time>2026-04-12T12:18:17.859Z</time></trkpt><trkpt lat="42.8316299" lon="12.5126682"><ele>450.0</ele><time>2026-04-12T12:18:18.855Z</time></trkpt><trkpt lat="42.8317545" lon="12.5125946"><ele>450.0</ele><time>2026-04-12T12:18:19.856Z</time></trkpt><trkpt lat="42.8318767" lon="12.5125046"><ele>450.0</ele><time>2026-04-12T12:18:20.853Z</time></trkpt><trkpt lat="42.831992" lon="12.5124308"><ele>450.0</ele><time>2026-04-12T12:18:21.86Z</time></trkpt><trkpt lat="42.8321189" lon="12.5123984"><ele>448.25</ele><time>2026-04-12T12:18:22.847Z</time></trkpt><trkpt lat="42.8322565" lon="12.5124087"><ele>446.5</ele><time>2026-04-12T12:18:23.856Z</time></trkpt><trkpt lat="42.832389" lon="12.5124571"><ele>444.75</ele><time>2026-04-12T12:18:24.859Z</time></trkpt><trkpt lat="42.8325249" lon="12.5125305"><ele>443.0</ele><time>2026-04-12T12:18:25.847Z</time></trkpt><trkpt lat="42.8326617" lon="12.5126056"><ele>442.5</ele><time>2026-04-12T12:18:26.841Z</time></trkpt><trkpt lat="42.8327957" lon="12.5126607"><ele>442.0</ele><time>2026-04-12T12:18:27.865Z</time></trkpt><trkpt lat="42.8329342" lon="12.5126992"><ele>441.5</ele><time>2026-04-12T12:18:28.845Z</time></trkpt><trkpt lat="42.8330684" lon="12.5127274"><ele>441.0</ele><time>2026-04-12T12:18:29.858Z</time></trkpt><trkpt lat="42.8332067" lon="12.5127425"><ele>441.0</ele><time>2026-04-12T12:18:30.85Z</time></trkpt><trkpt lat="42.833349" lon="12.5127472"><ele>441.0</ele><time>2026-04-12T12:18:31.858Z</time></trkpt><trkpt lat="42.8334842" lon="12.5127265"><ele>441.0</ele><time>2026-04-12T12:18:32.853Z</time></trkpt><trkpt lat="42.8336091" lon="12.5126845"><ele>441.0</ele><time>2026-04-12T12:18:33.858Z</time></trkpt><trkpt lat="42.83372" lon="12.5126027"><ele>438.25</ele><time>2026-04-12T12:18:34.849Z</time></trkpt><trkpt lat="42.8338162" lon="12.5124885"><ele>435.5</ele><time>2026-04-12T12:18:35.858Z</time></trkpt><trkpt lat="42.8338819" lon="12.5123396"><ele>432.75</ele><time>2026-04-12T12:18:36.858Z</time></trkpt><trkpt lat="42.833914" lon="12.5121715"><ele>430.0</ele><time>2026-04-12T12:18:37.862Z</time></trkpt><trkpt lat="42.8339076" lon="12.5120012"><ele>430.0</ele><time>2026-04-12T12:18:38.856Z</time></trkpt><trkpt lat="42.8338668" lon="12.5118383"><ele>430.0</ele><time>2026-04-12T12:18:39.854Z</time></trkpt><trkpt lat="42.8337895" lon="12.5117023"><ele>430.0</ele><time>2026-04-12T12:18:40.855Z</time></trkpt><trkpt lat="42.8336971" lon="12.5115866"><ele>430.0</ele><time>2026-04-12T12:18:41.86Z</time></trkpt><trkpt lat="42.8335747" lon="12.5115302"><ele>432.0</ele><time>2026-04-12T12:18:42.857Z</time></trkpt><trkpt lat="42.8334543" lon="12.5115145"><ele>434.0</ele><time>2026-04-12T12:18:43.849Z</time></trkpt><trkpt lat="42.8333397" lon="12.5114989"><ele>436.0</ele><time>2026-04-12T12:18:44.85Z</time></trkpt><trkpt lat="42.833233" lon="12.511468"><ele>438.0</ele><time>2026-04-12T12:18:45.857Z</time></trkpt><trkpt lat="42.8331478" lon="12.5113882"><ele>440.0</ele><time>2026-04-12T12:18:46.844Z</time></trkpt><trkpt lat="42.8330863" lon="12.5112872"><ele>439.4</ele><time>2026-04-12T12:18:47.863Z</time></trkpt><trkpt lat="42.8330845" lon="12.5111681"><ele>438.8</ele><time>2026-04-12T12:18:48.859Z</time></trkpt><trkpt lat="42.8331203" lon="12.5110525"><ele>438.20000000000005</ele><time>2026-04-12T12:18:49.848Z</time></trkpt><trkpt lat="42.8331932" lon="12.5109612"><ele>437.6</ele><time>2026-04-12T12:18:50.862Z</time></trkpt><trkpt lat="42.8332923" lon="12.5108961"><ele>437.0</ele><time>2026-04-12T12:18:51.861Z</time></trkpt><trkpt lat="42.8334014" lon="12.5108549"><ele>437.75</ele><time>2026-04-12T12:18:52.858Z</time></trkpt><trkpt lat="42.8335115" lon="12.5108514"><ele>438.5</ele><time>2026-04-12T12:18:53.848Z</time></trkpt><trkpt lat="42.8336206" lon="12.5109017"><ele>439.25</ele><time>2026-04-12T12:18:54.853Z</time></trkpt><trkpt lat="42.833715" lon="12.5110174"><ele>440.0</ele><time>2026-04-12T12:18:55.852Z</time></trkpt><trkpt lat="42.8337938" lon="12.5111541"><ele>437.5</ele><time>2026-04-12T12:18:56.856Z</time></trkpt><trkpt lat="42.833871" lon="12.5113075"><ele>435.0</ele><time>2026-04-12T12:18:57.845Z</time></trkpt><trkpt lat="42.8339567" lon="12.5114638"><ele>432.5</ele><time>2026-04-12T12:18:58.867Z</time></trkpt><trkpt lat="42.8340467" lon="12.5116266"><ele>430.0</ele><time>2026-04-12T12:18:59.847Z</time></trkpt><trkpt lat="42.8341424" lon="12.5117962"><ele>430.0</ele><time>2026-04-12T12:19:00.849Z</time></trkpt><trkpt lat="42.8342378" lon="12.5119673"><ele>430.0</ele><time>2026-04-12T12:19:01.851Z</time></trkpt><trkpt lat="42.8343301" lon="12.5121316"><ele>430.0</ele><time>2026-04-12T12:19:02.855Z</time></trkpt><trkpt lat="42.8344277" lon="12.5122932"><ele>426.6666666666667</ele><time>2026-04-12T12:19:03.848Z</time></trkpt><trkpt lat="42.8345415" lon="12.5124434"><ele>423.33333333333337</ele><time>2026-04-12T12:19:04.847Z</time></trkpt><trkpt lat="42.8346807" lon="12.5125476"><ele>420.0</ele><time>2026-04-12T12:19:05.85Z</time></trkpt><trkpt lat="42.8348426" lon="12.5126072"><ele>420.0</ele><time>2026-04-12T12:19:06.848Z</time></trkpt><trkpt lat="42.8350058" lon="12.5126551"><ele>420.0</ele><time>2026-04-12T12:19:07.851Z</time></trkpt><trkpt lat="42.8351697" lon="12.512705"><ele>420.0</ele><time>2026-04-12T12:19:08.85Z</time></trkpt><trkpt lat="42.8353357" lon="12.5127544"><ele>417.33333333333337</ele><time>2026-04-12T12:19:09.853Z</time></trkpt><trkpt lat="42.8355038" lon="12.5128092"><ele>414.6666666666667</ele><time>2026-04-12T12:19:10.857Z</time></trkpt><trkpt lat="42.8356677" lon="12.5128638"><ele>412.0</ele><time>2026-04-12T12:19:11.85Z</time></trkpt><trkpt lat="42.8358286" lon="12.5129147"><ele>410.0</ele><time>2026-04-12T12:19:12.845Z</time></trkpt><trkpt lat="42.835982" lon="12.5129724"><ele>408.0</ele><time>2026-04-12T12:19:13.857Z</time></trkpt><trkpt lat="42.8361376" lon="12.5130332"><ele>406.0</ele><time>2026-04-12T12:19:14.849Z</time></trkpt><trkpt lat="42.8362924" lon="12.5130964"><ele>406.0</ele><time>2026-04-12T12:19:15.852Z</time></trkpt><trkpt lat="42.8364436" lon="12.5131629"><ele>406.0</ele><time>2026-04-12T12:19:16.852Z</time></trkpt><trkpt lat="42.8365923" lon="12.5132247"><ele>406.0</ele><time>2026-04-12T12:19:17.854Z</time></trkpt><trkpt lat="42.8367413" lon="12.5132914"><ele>406.33333333333337</ele><time>2026-04-12T12:19:18.853Z</time></trkpt><trkpt lat="42.8368944" lon="12.5133495"><ele>406.66666666666663</ele><time>2026-04-12T12:19:19.863Z</time></trkpt><trkpt lat="42.8370475" lon="12.5133984"><ele>407.0</ele><time>2026-04-12T12:19:20.849Z</time></trkpt><trkpt lat="42.8372077" lon="12.5134181"><ele>407.0</ele><time>2026-04-12T12:19:21.858Z</time></trkpt><trkpt lat="42.8373692" lon="12.5133939"><ele>407.0</ele><time>2026-04-12T12:19:22.847Z</time></trkpt><trkpt lat="42.8375273" lon="12.5133383"><ele>407.0</ele><time>2026-04-12T12:19:23.86Z</time></trkpt><trkpt lat="42.8376831" lon="12.5132601"><ele>407.0</ele><time>2026-04-12T12:19:24.849Z</time></trkpt><trkpt lat="42.8378384" lon="12.5131837"><ele>407.0</ele><time>2026-04-12T12:19:25.847Z</time></trkpt><trkpt lat="42.8379937" lon="12.5131044"><ele>407.0</ele><time>2026-04-12T12:19:26.851Z</time></trkpt><trkpt lat="42.8333397" lon="12.5114989"><ele>413.0</ele><time>2026-04-12T12:18:44.85Z</time></trkpt><trkpt lat="42.833233" lon="12.511468"><ele>419.0</ele><time>2026-04-12T12:18:45.857Z</time></trkpt><trkpt lat="42.8331478" lon="12.5113882"><ele>425.00000000000006</ele><time>2026-04-12T12:18:46.844Z</time></trkpt><trkpt lat="42.8330863" lon="12.5112872"><ele>431.0</ele><time>2026-04-12T12:18:47.863Z</time></trkpt><trkpt lat="42.8330845" lon="12.5111681"><ele>437.0</ele><time>2026-04-12T12:18:48.859Z</time></trkpt><trkpt lat="42.8331203" lon="12.5110525"><ele>437.0</ele><time>2026-04-12T12:18:49.848Z</time></trkpt><trkpt lat="42.8331932" lon="12.5109612"><ele>437.00000000000006</ele><time>2026-04-12T12:18:50.862Z</time></trkpt><trkpt lat="42.8332923" lon="12.5108961"><ele>437.00000000000006</ele><time>2026-04-12T12:18:51.861Z</time></trkpt><trkpt lat="42.8334014" lon="12.5108549"><ele>437.0</ele><time>2026-04-12T12:18:52.858Z</time></trkpt><trkpt lat="42.8335115" lon="12.5108514"><ele>437.0</ele><time>2026-04-12T12:18:53.848Z</time></trkpt><trkpt lat="42.8336206" lon="12.5109017"><ele>437.75</ele><time>2026-04-12T12:18:54.853Z</time></trkpt><trkpt lat="42.833715" lon="12.5110174"><ele>438.5</ele><time>2026-04-12T12:18:55.852Z</time></trkpt><trkpt lat="42.8337938" lon="12.5111541"><ele>439.25</ele><time>2026-04-12T12:18:56.856Z</time></trkpt><trkpt lat="42.833871" lon="12.5113075"><ele>440.0</ele><time>2026-04-12T12:18:57.845Z</time></trkpt><trkpt lat="42.8339567" lon="12.5114638"><ele>436.66666666666663</ele><time>2026-04-12T12:18:58.867Z</time></trkpt><trkpt lat="42.8340467" lon="12.5116266"><ele>433.33333333333337</ele><time>2026-04-12T12:18:59.847Z</time></trkpt><trkpt lat="42.8341424" lon="12.5117962"><ele>430.0</ele><time>2026-04-12T12:19:00.849Z</time></trkpt><trkpt lat="42.8342378" lon="12.5119673"><ele>426.6666666666667</ele><time>2026-04-12T12:19:01.851Z</time></trkpt><trkpt lat="42.8343301" lon="12.5121316"><ele>423.33333333333337</ele><time>2026-04-12T12:19:02.855Z</time></trkpt><trkpt lat="42.8344277" lon="12.5122932"><ele>420.0</ele><time>2026-04-12T12:19:03.848Z</time></trkpt><trkpt lat="42.8345415" lon="12.5124434"><ele>420.0</ele><time>2026-04-12T12:19:04.847Z</time></trkpt><trkpt lat="42.8346807" lon="12.5125476"><ele>420.0</ele><time>2026-04-12T12:19:05.85Z</time></trkpt><trkpt lat="42.8348426" lon="12.5126072"><ele>420.0</ele><time>2026-04-12T12:19:06.848Z</time></trkpt><trkpt lat="42.8350058" lon="12.5126551"><ele>417.33333333333337</ele><time>2026-04-12T12:19:07.851Z</time></trkpt><trkpt lat="42.8351697" lon="12.512705"><ele>414.6666666666667</ele><time>2026-04-12T12:19:08.85Z</time></trkpt><trkpt lat="42.8353357" lon="12.5127544"><ele>412.0</ele><time>2026-04-12T12:19:09.853Z</time></trkpt><trkpt lat="42.8355038" lon="12.5128092"><ele>412.0</ele><time>2026-04-12T12:19:10.857Z</time></trkpt><trkpt lat="42.8356677" lon="12.5128638"><ele>412.0</ele><time>2026-04-12T12:19:11.85Z</time></trkpt><trkpt lat="42.8358286" lon="12.5129147"><ele>412.0</ele><time>2026-04-12T12:19:12.845Z</time></trkpt><trkpt lat="42.835982" lon="12.5129724"><ele>410.0</ele><time>2026-04-12T12:19:13.857Z</time></trkpt><trkpt lat="42.8361376" lon="12.5130332"><ele>408.0</ele><time>2026-04-12T12:19:14.849Z</time></trkpt><trkpt lat="42.8362924" lon="12.5130964"><ele>406.0</ele><time>2026-04-12T12:19:15.852Z</time></trkpt><trkpt lat="42.8364436" lon="12.5131629"><ele>406.0</ele><time>2026-04-12T12:19:16.852Z</time></trkpt><trkpt lat="42.8365923" lon="12.5132247"><ele>406.0</ele><time>2026-04-12T12:19:17.854Z</time></trkpt><trkpt lat="42.8367413" lon="12.5132914"><ele>406.0</ele><time>2026-04-12T12:19:18.853Z</time></trkpt><trkpt lat="42.8368944" lon="12.5133495"><ele>406.33333333333337</ele><time>2026-04-12T12:19:19.863Z</time></trkpt><trkpt lat="42.8370475" lon="12.5133984"><ele>406.66666666666663</ele><time>2026-04-12T12:19:20.849Z</time></trkpt><trkpt lat="42.8372077" lon="12.5134181"><ele>407.0</ele><time>2026-04-12T12:19:21.858Z</time></trkpt><trkpt lat="42.8373692" lon="12.5133939"><ele>407.0</ele><time>2026-04-12T12:19:22.847Z</time></trkpt><trkpt lat="42.8375273" lon="12.5133383"><ele>407.0</ele><time>2026-04-12T12:19:23.86Z</time></trkpt><trkpt lat="42.8376831" lon="12.5132601"><ele>407.0</ele><time>2026-04-12T12:19:24.849Z</time></trkpt><trkpt lat="42.8378384" lon="12.5131837"><ele>407.0</ele><time>2026-04-12T12:19:25.847Z</time></trkpt><trkpt lat="42.8379937" lon="12.5131044"><ele>407.0</ele><time>2026-04-12T12:19:26.851Z</time></trkpt><trkpt lat="42.8381498" lon="12.5130258"><ele>407.0</ele><time>2026-04-12T12:19:27.852Z</time></trkpt><trkpt lat="42.8383045" lon="12.5129459"><ele>409.0</ele><time>2026-04-12T12:19:28.852Z</time></trkpt><trkpt lat="42.8384612" lon="12.5128669"><ele>411.0</ele><time>2026-04-12T12:19:29.86Z</time></trkpt><trkpt lat="42.8386251" lon="12.5127881"><ele>413.0</ele><time>2026-04-12T12:19:30.866Z</time></trkpt><trkpt lat="42.8387908" lon="12.5127176"><ele>414.0</ele><time>2026-04-12T12:19:31.847Z</time></trkpt><trkpt lat="42.838956" lon="12.5126521"><ele>415.0</ele><time>2026-04-12T12:19:32.854Z</time></trkpt><trkpt lat="42.8391217" lon="12.5125863"><ele>416.0</ele><time>2026-04-12T12:19:33.856Z</time></trkpt><trkpt lat="42.839285" lon="12.5125201"><ele>415.3333333333333</ele><time>2026-04-12T12:19:34.847Z</time></trkpt><trkpt lat="42.8394498" lon="12.5124531"><ele>414.66666666666663</ele><time>2026-04-12T12:19:35.862Z</time></trkpt><trkpt lat="42.8396204" lon="12.5123901"><ele>414.0</ele><time>2026-04-12T12:19:36.859Z</time></trkpt><trkpt lat="42.8397892" lon="12.5123253"><ele>414.0</ele><time>2026-04-12T12:19:37.868Z</time></trkpt><trkpt lat="42.8399574" lon="12.5122601"><ele>414.0</ele><time>2026-04-12T12:19:38.869Z</time></trkpt><trkpt lat="42.8401294" lon="12.5121996"><ele>414.0</ele><time>2026-04-12T12:19:39.854Z</time></trkpt><trkpt lat="42.8403023" lon="12.5121383"><ele>413.66666666666663</ele><time>2026-04-12T12:19:40.847Z</time></trkpt><trkpt lat="42.8404764" lon="12.5120838"><ele>413.3333333333333</ele><time>2026-04-12T12:19:41.847Z</time></trkpt><trkpt lat="42.8406462" lon="12.5120278"><ele>413.0</ele><time>2026-04-12T12:19:42.861Z</time></trkpt><trkpt lat="42.8408075" lon="12.5119638"><ele>415.3333333333333</ele><time>2026-04-12T12:19:43.854Z</time></trkpt><trkpt lat="42.8409624" lon="12.5118753"><ele>417.66666666666663</ele><time>2026-04-12T12:19:44.858Z</time></trkpt><trkpt lat="42.8411084" lon="12.5117643"><ele>420.0</ele><time>2026-04-12T12:19:45.85Z</time></trkpt><trkpt lat="42.8412534" lon="12.5116491"><ele>420.0</ele><time>2026-04-12T12:19:46.853Z</time></trkpt><trkpt lat="42.8414045" lon="12.5115434"><ele>420.0</ele><time>2026-04-12T12:19:47.857Z</time></trkpt><trkpt lat="42.8415652" lon="12.5114686"><ele>420.0</ele><time>2026-04-12T12:19:48.863Z</time></trkpt><trkpt lat="42.8417344" lon="12.511447"><ele>421.0</ele><time>2026-04-12T12:19:49.848Z</time></trkpt><trkpt lat="42.8418953" lon="12.5114465"><ele>422.0</ele><time>2026-04-12T12:19:50.861Z</time></trkpt><trkpt lat="42.8420645" lon="12.5114478"><ele>423.0</ele><time>2026-04-12T12:19:51.857Z</time></trkpt><trkpt lat="42.8422328" lon="12.5114476"><ele>423.0</ele><time>2026-04-12T12:19:52.861Z</time></trkpt><trkpt lat="42.8423989" lon="12.5114337"><ele>423.0</ele><time>2026-04-12T12:19:53.844Z</time></trkpt><trkpt lat="42.8425445" lon="12.5113842"><ele>423.0</ele><time>2026-04-12T12:19:54.871Z</time></trkpt><trkpt lat="42.8426614" lon="12.5112831"><ele>423.75</ele><time>2026-04-12T12:19:55.858Z</time></trkpt><trkpt lat="42.842758" lon="12.511125"><ele>424.5</ele><time>2026-04-12T12:19:56.862Z</time></trkpt><trkpt lat="42.8428249" lon="12.5109423"><ele>425.25</ele><time>2026-04-12T12:19:57.859Z</time></trkpt><trkpt lat="42.842893" lon="12.5107618"><ele>426.0</ele><time>2026-04-12T12:19:58.851Z</time></trkpt><trkpt lat="42.8429731" lon="12.5105917"><ele>426.0</ele><time>2026-04-12T12:19:59.853Z</time></trkpt><trkpt lat="42.8430769" lon="12.5104663"><ele>426.0</ele><time>2026-04-12T12:20:00.861Z</time></trkpt><trkpt lat="42.843215" lon="12.5103761"><ele>426.0</ele><time>2026-04-12T12:20:01.851Z</time></trkpt><trkpt lat="42.8433602" lon="12.5103136"><ele>426.0</ele><time>2026-04-12T12:20:02.852Z</time></trkpt><trkpt lat="42.8435133" lon="12.5103127"><ele>428.0</ele><time>2026-04-12T12:20:03.86Z</time></trkpt><trkpt lat="42.8436536" lon="12.5103693"><ele>430.0</ele><time>2026-04-12T12:20:04.849Z</time></trkpt><trkpt lat="42.8437885" lon="12.5104855"><ele>432.0</ele><time>2026-04-12T12:20:05.861Z</time></trkpt><trkpt lat="42.8439067" lon="12.5106201"><ele>432.0</ele><time>2026-04-12T12:20:06.856Z</time></trkpt><trkpt lat="42.8440234" lon="12.5107615"><ele>432.0</ele><time>2026-04-12T12:20:07.85Z</time></trkpt><trkpt lat="42.8441483" lon="12.5109007"><ele>432.0</ele><time>2026-04-12T12:20:08.856Z</time></trkpt><trkpt lat="42.8442824" lon="12.5110142"><ele>431.33333333333337</ele><time>2026-04-12T12:20:09.858Z</time></trkpt><trkpt lat="42.8444203" lon="12.5111112"><ele>430.6666666666667</ele><time>2026-04-12T12:20:10.86Z</time></trkpt><trkpt lat="42.8445651" lon="12.5111971"><ele>430.0</ele><time>2026-04-12T12:20:11.86Z</time></trkpt><trkpt lat="42.8447133" lon="12.5112717"><ele>430.0</ele><time>2026-04-12T12:20:12.862Z</time></trkpt><trkpt lat="42.8448585" lon="12.5113317"><ele>430.0</ele><time>2026-04-12T12:20:13.851Z</time></trkpt><trkpt lat="42.8450044" lon="12.5113767"><ele>430.0</ele><time>2026-04-12T12:20:14.853Z</time></trkpt><trkpt lat="42.8451541" lon="12.5114157"><ele>430.75</ele><time>2026-04-12T12:20:15.855Z</time></trkpt><trkpt lat="42.8453038" lon="12.511454"><ele>431.5</ele><time>2026-04-12T12:20:16.86Z</time></trkpt><trkpt lat="42.8454471" lon="12.5114858"><ele>432.25</ele><time>2026-04-12T12:20:17.861Z</time></trkpt><trkpt lat="42.8455835" lon="12.5115145"><ele>433.0</ele><time>2026-04-12T12:20:18.857Z</time></trkpt><trkpt lat="42.8457161" lon="12.5115508"><ele>433.0</ele><time>2026-04-12T12:20:19.86Z</time></trkpt><trkpt lat="42.8458417" lon="12.5116033"><ele>433.0</ele><time>2026-04-12T12:20:20.868Z</time></trkpt><trkpt lat="42.845969" lon="12.5116847"><ele>433.0</ele><time>2026-04-12T12:20:21.861Z</time></trkpt><trkpt lat="42.8460834" lon="12.5117935"><ele>433.0</ele><time>2026-04-12T12:20:22.861Z</time></trkpt><trkpt lat="42.8461852" lon="12.5119212"><ele>433.25</ele><time>2026-04-12T12:20:23.864Z</time></trkpt><trkpt lat="42.8462792" lon="12.5120674"><ele>433.5</ele><time>2026-04-12T12:20:24.864Z</time></trkpt><trkpt lat="42.8463663" lon="12.5122292"><ele>433.75</ele><time>2026-04-12T12:20:25.861Z</time></trkpt><trkpt lat="42.8464473" lon="12.5123893"><ele>434.0</ele><time>2026-04-12T12:20:26.857Z</time></trkpt><trkpt lat="42.8465208" lon="12.5125434"><ele>434.0</ele><time>2026-04-12T12:20:27.851Z</time></trkpt><trkpt lat="42.8465924" lon="12.5126997"><ele>434.0</ele><time>2026-04-12T12:20:28.853Z</time></trkpt><trkpt lat="42.8466602" lon="12.5128469"><ele>434.0</ele><time>2026-04-12T12:20:29.856Z</time></trkpt><trkpt lat="42.846728" lon="12.5129935"><ele>434.0</ele><time>2026-04-12T12:20:30.85Z</time></trkpt><trkpt lat="42.8467993" lon="12.5131237"><ele>432.5</ele><time>2026-04-12T12:20:31.856Z</time></trkpt><trkpt lat="42.8468778" lon="12.5132388"><ele>431.0</ele><time>2026-04-12T12:20:32.852Z</time></trkpt><trkpt lat="42.8469762" lon="12.5133441"><ele>429.5</ele><time>2026-04-12T12:20:33.858Z</time></trkpt><trkpt lat="42.8470885" lon="12.5134152"><ele>428.0</ele><time>2026-04-12T12:20:34.857Z</time></trkpt><trkpt lat="42.8472045" lon="12.5134386"><ele>428.0</ele><time>2026-04-12T12:20:35.867Z</time></trkpt><trkpt lat="42.8473323" lon="12.5134195"><ele>428.0</ele><time>2026-04-12T12:20:36.855Z</time></trkpt><trkpt lat="42.8474566" lon="12.5133525"><ele>428.0</ele><time>2026-04-12T12:20:37.858Z</time></trkpt><trkpt lat="42.8475796" lon="12.5132717"><ele>428.0</ele><time>2026-04-12T12:20:38.856Z</time></trkpt><trkpt lat="42.847697" lon="12.5131823"><ele>427.75</ele><time>2026-04-12T12:20:39.857Z</time></trkpt><trkpt lat="42.8478194" lon="12.513093"><ele>427.5</ele><time>2026-04-12T12:20:40.858Z</time></trkpt><trkpt lat="42.8479403" lon="12.5130077"><ele>427.25</ele><time>2026-04-12T12:20:41.854Z</time></trkpt><trkpt lat="42.8480568" lon="12.5129246"><ele>427.0</ele><time>2026-04-12T12:20:42.855Z</time></trkpt><trkpt lat="42.8481694" lon="12.5128637"><ele>427.0</ele><time>2026-04-12T12:20:43.859Z</time></trkpt><trkpt lat="42.8482805" lon="12.5128541"><ele>427.00000000000006</ele><time>2026-04-12T12:20:44.848Z</time></trkpt><trkpt lat="42.8483795" lon="12.512932"><ele>427.00000000000006</ele><time>2026-04-12T12:20:45.853Z</time></trkpt><trkpt lat="42.8484344" lon="12.513034"><ele>427.0</ele><time>2026-04-12T12:20:46.863Z</time></trkpt><trkpt lat="42.8484517" lon="12.5131657"><ele>427.0</ele><time>2026-04-12T12:20:47.866Z</time></trkpt><trkpt lat="42.8484441" lon="12.513324"><ele>426.25</ele><time>2026-04-12T12:20:48.865Z</time></trkpt><trkpt lat="42.8484313" lon="12.5134844"><ele>425.5</ele><time>2026-04-12T12:20:49.852Z</time></trkpt><trkpt lat="42.8484058" lon="12.5136712"><ele>424.75</ele><time>2026-04-12T12:20:50.854Z</time></trkpt><trkpt lat="42.8483832" lon="12.5138648"><ele>424.0</ele><time>2026-04-12T12:20:51.865Z</time></trkpt><trkpt lat="42.8483562" lon="12.5140657"><ele>423.25</ele><time>2026-04-12T12:20:52.856Z</time></trkpt><trkpt lat="42.8483336" lon="12.5142701"><ele>422.5</ele><time>2026-04-12T12:20:53.867Z</time></trkpt><trkpt lat="42.8483094" lon="12.5144724"><ele>421.75</ele><time>2026-04-12T12:20:54.866Z</time></trkpt><trkpt lat="42.8482893" lon="12.5146598"><ele>421.0</ele><time>2026-04-12T12:20:55.861Z</time></trkpt><trkpt lat="42.8482761" lon="12.5148397"><ele>420.75</ele><time>2026-04-12T12:20:56.848Z</time></trkpt><trkpt lat="42.8482746" lon="12.5150156"><ele>420.5</ele><time>2026-04-12T12:20:57.865Z</time></trkpt><trkpt lat="42.848295" lon="12.5151834"><ele>420.25</ele><time>2026-04-12T12:20:58.856Z</time></trkpt><trkpt lat="42.8483477" lon="12.5153488"><ele>420.0</ele><time>2026-04-12T12:20:59.86Z</time></trkpt><trkpt lat="42.8484228" lon="12.5155006"><ele>418.0</ele><time>2026-04-12T12:21:00.845Z</time></trkpt><trkpt lat="42.8485235" lon="12.5156287"><ele>416.0</ele><time>2026-04-12T12:21:01.851Z</time></trkpt><trkpt lat="42.8486432" lon="12.5157397"><ele>414.0</ele><time>2026-04-12T12:21:02.91Z</time></trkpt><trkpt lat="42.8487817" lon="12.515819"><ele>412.0</ele><time>2026-04-12T12:21:03.851Z</time></trkpt><trkpt lat="42.848922" lon="12.5158526"><ele>412.0</ele><time>2026-04-12T12:21:04.851Z</time></trkpt><trkpt lat="42.8490656" lon="12.5158571"><ele>412.0</ele><time>2026-04-12T12:21:05.859Z</time></trkpt><trkpt lat="42.8492096" lon="12.5158428"><ele>412.0</ele><time>2026-04-12T12:21:06.855Z</time></trkpt><trkpt lat="42.8493466" lon="12.515824"><ele>412.0</ele><time>2026-04-12T12:21:07.857Z</time></trkpt><trkpt lat="42.8494713" lon="12.5158017"><ele>413.20000000000005</ele><time>2026-04-12T12:21:08.865Z</time></trkpt><trkpt lat="42.8495911" lon="12.5157885"><ele>414.4</ele><time>2026-04-12T12:21:09.851Z</time></trkpt><trkpt lat="42.8496997" lon="12.5157869"><ele>415.6</ele><time>2026-04-12T12:21:10.851Z</time></trkpt><trkpt lat="42.8497974" lon="12.5158109"><ele>416.79999999999995</ele><time>2026-04-12T12:21:11.857Z</time></trkpt><trkpt lat="42.8498581" lon="12.515903"><ele>418.0</ele><time>2026-04-12T12:21:12.854Z</time></trkpt><trkpt lat="42.8498708" lon="12.516007"><ele>418.0</ele><time>2026-04-12T12:21:13.858Z</time></trkpt><trkpt lat="42.8498501" lon="12.5161136"><ele>418.0</ele><time>2026-04-12T12:21:14.852Z</time></trkpt><trkpt lat="42.8497952" lon="12.5162114"><ele>418.0</ele><time>2026-04-12T12:21:15.866Z</time></trkpt><trkpt lat="42.8497136" lon="12.5163305"><ele>418.0</ele><time>2026-04-12T12:21:16.85Z</time></trkpt><trkpt lat="42.8496329" lon="12.5164596"><ele>418.0</ele><time>2026-04-12T12:21:17.862Z</time></trkpt><trkpt lat="42.8495494" lon="12.5165913"><ele>417.75</ele><time>2026-04-12T12:21:18.871Z</time></trkpt><trkpt lat="42.8494686" lon="12.5167315"><ele>417.5</ele><time>2026-04-12T12:21:19.85Z</time></trkpt><trkpt lat="42.8494" lon="12.5168621"><ele>417.25</ele><time>2026-04-12T12:21:20.859Z</time></trkpt><trkpt lat="42.8493612" lon="12.517008"><ele>417.0</ele><time>2026-04-12T12:21:21.862Z</time></trkpt><trkpt lat="42.8493486" lon="12.5171543"><ele>415.25</ele><time>2026-04-12T12:21:22.859Z</time></trkpt><trkpt lat="42.8493693" lon="12.5172918"><ele>413.5</ele><time>2026-04-12T12:21:23.851Z</time></trkpt><trkpt lat="42.8494272" lon="12.5174159"><ele>411.75</ele><time>2026-04-12T12:21:24.862Z</time></trkpt><trkpt lat="42.8495181" lon="12.5175239"><ele>410.0</ele><time>2026-04-12T12:21:25.852Z</time></trkpt><trkpt lat="42.8496242" lon="12.5176266"><ele>410.0</ele><time>2026-04-12T12:21:26.849Z</time></trkpt><trkpt lat="42.8497428" lon="12.5177286"><ele>410.0</ele><time>2026-04-12T12:21:27.856Z</time></trkpt><trkpt lat="42.8498621" lon="12.5178435"><ele>410.0</ele><time>2026-04-12T12:21:28.845Z</time></trkpt><trkpt lat="42.8499835" lon="12.5179633"><ele>410.0</ele><time>2026-04-12T12:21:29.849Z</time></trkpt><trkpt lat="42.850101" lon="12.5180896"><ele>408.75</ele><time>2026-04-12T12:21:30.849Z</time></trkpt><trkpt lat="42.8502159" lon="12.5182125"><ele>407.5</ele><time>2026-04-12T12:21:31.849Z</time></trkpt><trkpt lat="42.850336" lon="12.5183336"><ele>406.25</ele><time>2026-04-12T12:21:32.854Z</time></trkpt><trkpt lat="42.8504623" lon="12.5184459"><ele>405.0</ele><time>2026-04-12T12:21:33.846Z</time></trkpt><trkpt lat="42.8505956" lon="12.5185417"><ele>405.0</ele><time>2026-04-12T12:21:34.86Z</time></trkpt><trkpt lat="42.8507318" lon="12.5186347"><ele>405.0</ele><time>2026-04-12T12:21:35.845Z</time></trkpt><trkpt lat="42.8508641" lon="12.5187365"><ele>405.0</ele><time>2026-04-12T12:21:36.856Z</time></trkpt><trkpt lat="42.8509952" lon="12.518858"><ele>404.0</ele><time>2026-04-12T12:21:37.854Z</time></trkpt><trkpt lat="42.8511174" lon="12.5189912"><ele>403.0</ele><time>2026-04-12T12:21:38.859Z</time></trkpt><trkpt lat="42.8512333" lon="12.5191419"><ele>402.0</ele><time>2026-04-12T12:21:39.854Z</time></trkpt><trkpt lat="42.8513539" lon="12.5192945"><ele>402.0</ele><time>2026-04-12T12:21:40.849Z</time></trkpt><trkpt lat="42.8514739" lon="12.5194509"><ele>402.0</ele><time>2026-04-12T12:21:41.851Z</time></trkpt><trkpt lat="42.8515999" lon="12.5196127"><ele>402.0</ele><time>2026-04-12T12:21:42.851Z</time></trkpt><trkpt lat="42.8517245" lon="12.5197689"><ele>400.66666666666663</ele><time>2026-04-12T12:21:43.862Z</time></trkpt><trkpt lat="42.8518481" lon="12.5199275"><ele>399.3333333333333</ele><time>2026-04-12T12:21:44.853Z</time></trkpt><trkpt lat="42.8519703" lon="12.5200865"><ele>398.0</ele><time>2026-04-12T12:21:45.859Z</time></trkpt><trkpt lat="42.8521011" lon="12.5202452"><ele>394.66666666666663</ele><time>2026-04-12T12:21:46.851Z</time></trkpt><trkpt lat="42.8522291" lon="12.5204036"><ele>391.33333333333337</ele><time>2026-04-12T12:21:47.854Z</time></trkpt><trkpt lat="42.8523471" lon="12.5205632"><ele>388.0</ele><time>2026-04-12T12:21:48.865Z</time></trkpt><trkpt lat="42.8524556" lon="12.5207217"><ele>388.0</ele><time>2026-04-12T12:21:49.858Z</time></trkpt><trkpt lat="42.8525708" lon="12.5208844"><ele>388.0</ele><time>2026-04-12T12:21:50.858Z</time></trkpt><trkpt lat="42.8526933" lon="12.5210457"><ele>388.0</ele><time>2026-04-12T12:21:51.852Z</time></trkpt><trkpt lat="42.8528183" lon="12.5212042"><ele>386.6666666666667</ele><time>2026-04-12T12:21:52.854Z</time></trkpt><trkpt lat="42.8529443" lon="12.5213469"><ele>385.33333333333337</ele><time>2026-04-12T12:21:53.861Z</time></trkpt><trkpt lat="42.853061" lon="12.5214853"><ele>384.0</ele><time>2026-04-12T12:21:54.853Z</time></trkpt><trkpt lat="42.8531724" lon="12.521623"><ele>384.0</ele><time>2026-04-12T12:21:55.865Z</time></trkpt><trkpt lat="42.8532817" lon="12.5217558"><ele>384.0</ele><time>2026-04-12T12:21:56.854Z</time></trkpt><trkpt lat="42.8533921" lon="12.5218605"><ele>384.0</ele><time>2026-04-12T12:21:57.857Z</time></trkpt><trkpt lat="42.8535244" lon="12.5219356"><ele>384.0</ele><time>2026-04-12T12:21:58.855Z</time></trkpt><trkpt lat="42.8536786" lon="12.5219789"><ele>383.3333333333333</ele><time>2026-04-12T12:21:59.849Z</time></trkpt><trkpt lat="42.8538253" lon="12.5219898"><ele>382.66666666666663</ele><time>2026-04-12T12:22:00.859Z</time></trkpt><trkpt lat="42.8539784" lon="12.5219827"><ele>382.0</ele><time>2026-04-12T12:22:01.856Z</time></trkpt><trkpt lat="42.8541449" lon="12.5219752"><ele>381.66666666666663</ele><time>2026-04-12T12:22:02.849Z</time></trkpt><trkpt lat="42.8543185" lon="12.5219747"><ele>381.3333333333333</ele><time>2026-04-12T12:22:03.849Z</time></trkpt><trkpt lat="42.854486" lon="12.5219862"><ele>381.0</ele><time>2026-04-12T12:22:04.871Z</time></trkpt><trkpt lat="42.854659" lon="12.522017"><ele>378.0</ele><time>2026-04-12T12:22:05.85Z</time></trkpt><trkpt lat="42.8548242" lon="12.5220745"><ele>375.0</ele><time>2026-04-12T12:22:06.85Z</time></trkpt><trkpt lat="42.8549846" lon="12.5221365"><ele>372.0</ele><time>2026-04-12T12:22:07.851Z</time></trkpt><trkpt lat="42.8551465" lon="12.5222064"><ele>371.3333333333333</ele><time>2026-04-12T12:22:08.848Z</time></trkpt><trkpt lat="42.85531" lon="12.5222674"><ele>370.66666666666663</ele><time>2026-04-12T12:22:09.857Z</time></trkpt><trkpt lat="42.8554736" lon="12.5223344"><ele>370.0</ele><time>2026-04-12T12:22:10.856Z</time></trkpt><trkpt lat="42.8556384" lon="12.5224048"><ele>370.0</ele><time>2026-04-12T12:22:11.851Z</time></trkpt><trkpt lat="42.855805" lon="12.5224814"><ele>370.0</ele><time>2026-04-12T12:22:12.852Z</time></trkpt><trkpt lat="42.8559673" lon="12.5225655"><ele>370.0</ele><time>2026-04-12T12:22:13.853Z</time></trkpt><trkpt lat="42.8561252" lon="12.5226626"><ele>369.66666666666663</ele><time>2026-04-12T12:22:14.852Z</time></trkpt><trkpt lat="42.8562685" lon="12.5227803"><ele>369.3333333333333</ele><time>2026-04-12T12:22:15.851Z</time></trkpt><trkpt lat="42.8563955" lon="12.5229205"><ele>369.0</ele><time>2026-04-12T12:22:16.848Z</time></trkpt><trkpt lat="42.8565137" lon="12.5230735"><ele>367.3333333333333</ele><time>2026-04-12T12:22:17.849Z</time></trkpt><trkpt lat="42.856621" lon="12.5232368"><ele>365.66666666666663</ele><time>2026-04-12T12:22:18.856Z</time></trkpt><trkpt lat="42.8567226" lon="12.5234152"><ele>364.0</ele><time>2026-04-12T12:22:19.851Z</time></trkpt><trkpt lat="42.8568115" lon="12.5235708"><ele>363.4</ele><time>2026-04-12T12:22:20.837Z</time></trkpt><trkpt lat="42.8568852" lon="12.5237228"><ele>362.79999999999995</ele><time>2026-04-12T12:22:21.858Z</time></trkpt><trkpt lat="42.8569441" lon="12.5238464"><ele>362.20000000000005</ele><time>2026-04-12T12:22:22.884Z</time></trkpt><trkpt lat="42.8569621" lon="12.5239723"><ele>361.6</ele><time>2026-04-12T12:22:23.898Z</time></trkpt><trkpt lat="42.8569542" lon="12.5241251"><ele>361.0</ele><time>2026-04-12T12:22:24.848Z</time></trkpt><trkpt lat="42.8568919" lon="12.5242463"><ele>360.5</ele><time>2026-04-12T12:22:25.855Z</time></trkpt><trkpt lat="42.8567977" lon="12.5243136"><ele>360.0</ele><time>2026-04-12T12:22:26.864Z</time></trkpt><trkpt lat="42.8566738" lon="12.5243343"><ele>359.5</ele><time>2026-04-12T12:22:27.861Z</time></trkpt><trkpt lat="42.8565449" lon="12.5243221"><ele>359.0</ele><time>2026-04-12T12:22:28.843Z</time></trkpt><trkpt lat="42.8564096" lon="12.5242748"><ele>359.0</ele><time>2026-04-12T12:22:29.846Z</time></trkpt><trkpt lat="42.8562702" lon="12.5242535"><ele>359.0</ele><time>2026-04-12T12:22:30.847Z</time></trkpt><trkpt lat="42.8561265" lon="12.5242658"><ele>359.0</ele><time>2026-04-12T12:22:31.848Z</time></trkpt><trkpt lat="42.8559765" lon="12.5242993"><ele>359.0</ele><time>2026-04-12T12:22:32.851Z</time></trkpt><trkpt lat="42.8558261" lon="12.5243566"><ele>358.33333333333337</ele><time>2026-04-12T12:22:33.865Z</time></trkpt><trkpt lat="42.8556749" lon="12.5244189"><ele>357.6666666666667</ele><time>2026-04-12T12:22:34.864Z</time></trkpt><trkpt lat="42.8555218" lon="12.5244785"><ele>357.0</ele><time>2026-04-12T12:22:35.883Z</time></trkpt><trkpt lat="42.85537" lon="12.5245409"><ele>356.0</ele><time>2026-04-12T12:22:36.864Z</time></trkpt><trkpt lat="42.8552228" lon="12.5246004"><ele>355.0</ele><time>2026-04-12T12:22:37.861Z</time></trkpt><trkpt lat="42.8550846" lon="12.5246617"><ele>354.0</ele><time>2026-04-12T12:22:38.843Z</time></trkpt><trkpt lat="42.854954" lon="12.5247156"><ele>353.0</ele><time>2026-04-12T12:22:39.85Z</time></trkpt><trkpt lat="42.8548297" lon="12.5247682"><ele>353.0</ele><time>2026-04-12T12:22:40.865Z</time></trkpt><trkpt lat="42.8547152" lon="12.5248241"><ele>353.0</ele><time>2026-04-12T12:22:41.868Z</time></trkpt><trkpt lat="42.8546177" lon="12.5248922"><ele>353.0</ele><time>2026-04-12T12:22:42.859Z</time></trkpt><trkpt lat="42.8545503" lon="12.5249924"><ele>353.0</ele><time>2026-04-12T12:22:43.871Z</time></trkpt><trkpt lat="42.8545304" lon="12.5251305"><ele>353.0</ele><time>2026-04-12T12:22:44.858Z</time></trkpt><trkpt lat="42.8545677" lon="12.5252454"><ele>353.0</ele><time>2026-04-12T12:22:45.851Z</time></trkpt><trkpt lat="42.8546426" lon="12.5253531"><ele>353.0</ele><time>2026-04-12T12:22:46.865Z</time></trkpt><trkpt lat="42.8547529" lon="12.5254078"><ele>353.0</ele><time>2026-04-12T12:22:47.855Z</time></trkpt><trkpt lat="42.8548817" lon="12.525441"><ele>353.0</ele><time>2026-04-12T12:22:48.857Z</time></trkpt><trkpt lat="42.8550124" lon="12.5254748"><ele>350.75</ele><time>2026-04-12T12:22:49.874Z</time></trkpt><trkpt lat="42.8551547" lon="12.5255074"><ele>348.5</ele><time>2026-04-12T12:22:50.86Z</time></trkpt><trkpt lat="42.8553032" lon="12.5255403"><ele>346.25</ele><time>2026-04-12T12:22:51.856Z</time></trkpt><trkpt lat="42.855454" lon="12.5255704"><ele>344.0</ele><time>2026-04-12T12:22:52.864Z</time></trkpt><trkpt lat="42.8555957" lon="12.5256112"><ele>344.0</ele><time>2026-04-12T12:22:53.872Z</time></trkpt><trkpt lat="42.8557347" lon="12.5256563"><ele>344.0</ele><time>2026-04-12T12:22:54.858Z</time></trkpt><trkpt lat="42.8558737" lon="12.5257255"><ele>344.0</ele><time>2026-04-12T12:22:55.855Z</time></trkpt><trkpt lat="42.8559909" lon="12.5258329"><ele>344.0</ele><time>2026-04-12T12:22:56.863Z</time></trkpt><trkpt lat="42.8560857" lon="12.5259772"><ele>344.5</ele><time>2026-04-12T12:22:57.863Z</time></trkpt><trkpt lat="42.8561376" lon="12.5261615"><ele>345.0</ele><time>2026-04-12T12:22:58.857Z</time></trkpt><trkpt lat="42.8561771" lon="12.5263536"><ele>345.5</ele><time>2026-04-12T12:22:59.857Z</time></trkpt><trkpt lat="42.8562165" lon="12.5265517"><ele>346.0</ele><time>2026-04-12T12:23:00.853Z</time></trkpt><trkpt lat="42.8562553" lon="12.5267466"><ele>344.75</ele><time>2026-04-12T12:23:01.846Z</time></trkpt><trkpt lat="42.8562957" lon="12.5269364"><ele>343.5</ele><time>2026-04-12T12:23:02.855Z</time></trkpt><trkpt lat="42.8563373" lon="12.5271149"><ele>342.25</ele><time>2026-04-12T12:23:03.856Z</time></trkpt><trkpt lat="42.8563974" lon="12.5272816"><ele>341.0</ele><time>2026-04-12T12:23:04.861Z</time></trkpt><trkpt lat="42.8564822" lon="12.5274194"><ele>339.5</ele><time>2026-04-12T12:23:05.856Z</time></trkpt><trkpt lat="42.8566005" lon="12.5275115"><ele>338.0</ele><time>2026-04-12T12:23:06.857Z</time></trkpt><trkpt lat="42.8567411" lon="12.5275794"><ele>336.5</ele><time>2026-04-12T12:23:07.856Z</time></trkpt><trkpt lat="42.8568848" lon="12.5276438"><ele>335.0</ele><time>2026-04-12T12:23:08.855Z</time></trkpt><trkpt lat="42.8570339" lon="12.5277011"><ele>334.33333333333337</ele><time>2026-04-12T12:23:09.861Z</time></trkpt><trkpt lat="42.8571884" lon="12.5277552"><ele>333.6666666666667</ele><time>2026-04-12T12:23:10.86Z</time></trkpt><trkpt lat="42.8573494" lon="12.5278156"><ele>333.0</ele><time>2026-04-12T12:23:11.86Z</time></trkpt><trkpt lat="42.8575119" lon="12.5278836"><ele>329.3333333333333</ele><time>2026-04-12T12:23:12.852Z</time></trkpt><trkpt lat="42.8576674" lon="12.527953"><ele>325.66666666666663</ele><time>2026-04-12T12:23:13.853Z</time></trkpt><trkpt lat="42.8578246" lon="12.5280139"><ele>322.0</ele><time>2026-04-12T12:23:14.859Z</time></trkpt><trkpt lat="42.8579834" lon="12.5280702"><ele>322.0</ele><time>2026-04-12T12:23:15.854Z</time></trkpt><trkpt lat="42.858143" lon="12.5281347"><ele>322.0</ele><time>2026-04-12T12:23:16.848Z</time></trkpt><trkpt lat="42.8583084" lon="12.528201"><ele>322.0</ele><time>2026-04-12T12:23:17.857Z</time></trkpt><trkpt lat="42.8584735" lon="12.5282629"><ele>321.0</ele><time>2026-04-12T12:23:18.848Z</time></trkpt><trkpt lat="42.8586395" lon="12.5283194"><ele>320.0</ele><time>2026-04-12T12:23:19.856Z</time></trkpt><trkpt lat="42.8588023" lon="12.5283822"><ele>319.0</ele><time>2026-04-12T12:23:20.85Z</time></trkpt><trkpt lat="42.8589686" lon="12.5284432"><ele>319.0</ele><time>2026-04-12T12:23:21.867Z</time></trkpt><trkpt lat="42.8591323" lon="12.5285121"><ele>319.0</ele><time>2026-04-12T12:23:22.845Z</time></trkpt><trkpt lat="42.8592927" lon="12.5285815"><ele>319.0</ele><time>2026-04-12T12:23:23.852Z</time></trkpt><trkpt lat="42.8594455" lon="12.5286719"><ele>317.66666666666663</ele><time>2026-04-12T12:23:24.856Z</time></trkpt><trkpt lat="42.8595804" lon="12.528793"><ele>316.3333333333333</ele><time>2026-04-12T12:23:25.858Z</time></trkpt><trkpt lat="42.859693" lon="12.5289614"><ele>315.0</ele><time>2026-04-12T12:23:26.85Z</time></trkpt><trkpt lat="42.8597656" lon="12.5291331"><ele>315.0</ele><time>2026-04-12T12:23:27.844Z</time></trkpt><trkpt lat="42.8598051" lon="12.5293304"><ele>315.0</ele><time>2026-04-12T12:23:28.863Z</time></trkpt><trkpt lat="42.8598175" lon="12.5295429"><ele>315.0</ele><time>2026-04-12T12:23:29.852Z</time></trkpt><trkpt lat="42.8597972" lon="12.5297583"><ele>315.0</ele><time>2026-04-12T12:23:30.843Z</time></trkpt><trkpt lat="42.8597608" lon="12.5299831"><ele>315.0</ele><time>2026-04-12T12:23:31.864Z</time></trkpt><trkpt lat="42.8597184" lon="12.5302044"><ele>315.0</ele><time>2026-04-12T12:23:32.853Z</time></trkpt><trkpt lat="42.8596799" lon="12.5304325"><ele>314.6666666666667</ele><time>2026-04-12T12:23:33.86Z</time></trkpt><trkpt lat="42.8596375" lon="12.5306642"><ele>314.33333333333337</ele><time>2026-04-12T12:23:34.862Z</time></trkpt><trkpt lat="42.8595971" lon="12.5308895"><ele>314.0</ele><time>2026-04-12T12:23:35.857Z</time></trkpt><trkpt lat="42.8595563" lon="12.5311128"><ele>313.6666666666667</ele><time>2026-04-12T12:23:36.853Z</time></trkpt><trkpt lat="42.8595169" lon="12.5313347"><ele>313.3333333333333</ele><time>2026-04-12T12:23:37.848Z</time></trkpt><trkpt lat="42.8594833" lon="12.5315505"><ele>313.0</ele><time>2026-04-12T12:23:38.854Z</time></trkpt><trkpt lat="42.8594478" lon="12.5317633"><ele>313.0</ele><time>2026-04-12T12:23:39.852Z</time></trkpt><trkpt lat="42.8594128" lon="12.5319766"><ele>313.0</ele><time>2026-04-12T12:23:40.853Z</time></trkpt><trkpt lat="42.8593764" lon="12.5321858"><ele>313.0</ele><time>2026-04-12T12:23:41.856Z</time></trkpt><trkpt lat="42.8593425" lon="12.5323944"><ele>312.66666666666663</ele><time>2026-04-12T12:23:42.862Z</time></trkpt><trkpt lat="42.8593088" lon="12.5326065"><ele>312.3333333333333</ele><time>2026-04-12T12:23:43.854Z</time></trkpt><trkpt lat="42.8592725" lon="12.5328188"><ele>312.0</ele><time>2026-04-12T12:23:44.849Z</time></trkpt><trkpt lat="42.8592333" lon="12.5330334"><ele>311.3333333333333</ele><time>2026-04-12T12:23:45.845Z</time></trkpt><trkpt lat="42.8591917" lon="12.5332535"><ele>310.66666666666663</ele><time>2026-04-12T12:23:46.846Z</time></trkpt><trkpt lat="42.8591501" lon="12.5334628"><ele>310.0</ele><time>2026-04-12T12:23:47.847Z</time></trkpt><trkpt lat="42.8591097" lon="12.5336767"><ele>309.66666666666663</ele><time>2026-04-12T12:23:48.848Z</time></trkpt><trkpt lat="42.8590709" lon="12.5338918"><ele>309.3333333333333</ele><time>2026-04-12T12:23:49.854Z</time></trkpt><trkpt lat="42.8590321" lon="12.5341053"><ele>309.0</ele><time>2026-04-12T12:23:50.846Z</time></trkpt><trkpt lat="42.8589952" lon="12.5343262"><ele>309.0</ele><time>2026-04-12T12:23:51.85Z</time></trkpt><trkpt lat="42.8589565" lon="12.5345402"><ele>309.0</ele><time>2026-04-12T12:23:52.846Z</time></trkpt><trkpt lat="42.8589195" lon="12.534754"><ele>309.0</ele><time>2026-04-12T12:23:53.848Z</time></trkpt><trkpt lat="42.858885" lon="12.5349697"><ele>309.0</ele><time>2026-04-12T12:23:54.859Z</time></trkpt><trkpt lat="42.8588489" lon="12.535186"><ele>309.0</ele><time>2026-04-12T12:23:55.858Z</time></trkpt><trkpt lat="42.8588116" lon="12.5353916"><ele>309.0</ele><time>2026-04-12T12:23:56.863Z</time></trkpt><trkpt lat="42.8587778" lon="12.5355874"><ele>308.6666666666667</ele><time>2026-04-12T12:23:57.852Z</time></trkpt><trkpt lat="42.8587539" lon="12.5357876"><ele>308.33333333333337</ele><time>2026-04-12T12:23:58.854Z</time></trkpt><trkpt lat="42.8587515" lon="12.5359988"><ele>308.0</ele><time>2026-04-12T12:23:59.861Z</time></trkpt><trkpt lat="42.8587723" lon="12.536213"><ele>307.6666666666667</ele><time>2026-04-12T12:24:00.852Z</time></trkpt><trkpt lat="42.8588181" lon="12.5364271"><ele>307.3333333333333</ele><time>2026-04-12T12:24:01.858Z</time></trkpt><trkpt lat="42.858889" lon="12.536632"><ele>307.0</ele><time>2026-04-12T12:24:02.854Z</time></trkpt><trkpt lat="42.8589707" lon="12.5368193"><ele>307.0</ele><time>2026-04-12T12:24:03.858Z</time></trkpt><trkpt lat="42.8590519" lon="12.5370052"><ele>307.0</ele><time>2026-04-12T12:24:04.853Z</time></trkpt><trkpt lat="42.8591295" lon="12.537187"><ele>307.0</ele><time>2026-04-12T12:24:05.861Z</time></trkpt><trkpt lat="42.8592021" lon="12.5373538"><ele>306.75</ele><time>2026-04-12T12:24:06.854Z</time></trkpt><trkpt lat="42.8592738" lon="12.5375162"><ele>306.5</ele><time>2026-04-12T12:24:07.855Z</time></trkpt><trkpt lat="42.8593384" lon="12.5376753"><ele>306.25</ele><time>2026-04-12T12:24:08.861Z</time></trkpt><trkpt lat="42.8594057" lon="12.5378286"><ele>306.0</ele><time>2026-04-12T12:24:09.862Z</time></trkpt><trkpt lat="42.8594746" lon="12.5379855"><ele>306.0</ele><time>2026-04-12T12:24:10.851Z</time></trkpt><trkpt lat="42.8595435" lon="12.5381395"><ele>306.0</ele><time>2026-04-12T12:24:11.868Z</time></trkpt><trkpt lat="42.8596103" lon="12.5382978"><ele>306.0</ele><time>2026-04-12T12:24:12.849Z</time></trkpt><trkpt lat="42.8596796" lon="12.5384613"><ele>306.0</ele><time>2026-04-12T12:24:13.852Z</time></trkpt><trkpt lat="42.8597494" lon="12.5386278"><ele>306.25</ele><time>2026-04-12T12:24:14.857Z</time></trkpt><trkpt lat="42.8598208" lon="12.5387974"><ele>306.5</ele><time>2026-04-12T12:24:15.852Z</time></trkpt><trkpt lat="42.8598964" lon="12.5389721"><ele>306.75</ele><time>2026-04-12T12:24:16.85Z</time></trkpt><trkpt lat="42.8599689" lon="12.5391524"><ele>307.0</ele><time>2026-04-12T12:24:17.866Z</time></trkpt><trkpt lat="42.860037" lon="12.5393328"><ele>307.0</ele><time>2026-04-12T12:24:18.856Z</time></trkpt><trkpt lat="42.8600993" lon="12.5395163"><ele>307.0</ele><time>2026-04-12T12:24:19.853Z</time></trkpt><trkpt lat="42.8601568" lon="12.5397092"><ele>307.0</ele><time>2026-04-12T12:24:20.874Z</time></trkpt><trkpt lat="42.8602131" lon="12.5399031"><ele>306.25</ele><time>2026-04-12T12:24:21.853Z</time></trkpt><trkpt lat="42.8602644" lon="12.5400868"><ele>305.5</ele><time>2026-04-12T12:24:22.851Z</time></trkpt><trkpt lat="42.8603173" lon="12.5402683"><ele>304.75</ele><time>2026-04-12T12:24:23.851Z</time></trkpt><trkpt lat="42.8603665" lon="12.5404458"><ele>304.0</ele><time>2026-04-12T12:24:24.867Z</time></trkpt><trkpt lat="42.8604161" lon="12.5406211"><ele>304.0</ele><time>2026-04-12T12:24:25.851Z</time></trkpt><trkpt lat="42.8604686" lon="12.5407972"><ele>304.0</ele><time>2026-04-12T12:24:26.85Z</time></trkpt><trkpt lat="42.8605214" lon="12.5409692"><ele>304.0</ele><time>2026-04-12T12:24:27.853Z</time></trkpt><trkpt lat="42.8605737" lon="12.5411503"><ele>304.0</ele><time>2026-04-12T12:24:28.867Z</time></trkpt><trkpt lat="42.8606261" lon="12.5413341"><ele>304.0</ele><time>2026-04-12T12:24:29.866Z</time></trkpt><trkpt lat="42.8606768" lon="12.54152"><ele>304.0</ele><time>2026-04-12T12:24:30.853Z</time></trkpt><trkpt lat="42.8607275" lon="12.5417037"><ele>304.0</ele><time>2026-04-12T12:24:31.864Z</time></trkpt><trkpt lat="42.8607834" lon="12.5418939"><ele>304.0</ele><time>2026-04-12T12:24:32.853Z</time></trkpt><trkpt lat="42.8608443" lon="12.54208"><ele>303.66666666666663</ele><time>2026-04-12T12:24:33.851Z</time></trkpt><trkpt lat="42.8609153" lon="12.5422645"><ele>303.3333333333333</ele><time>2026-04-12T12:24:34.863Z</time></trkpt><trkpt lat="42.8609907" lon="12.5424502"><ele>303.0</ele><time>2026-04-12T12:24:35.867Z</time></trkpt><trkpt lat="42.8610707" lon="12.542634"><ele>302.3333333333333</ele><time>2026-04-12T12:24:36.85Z</time></trkpt><trkpt lat="42.8611544" lon="12.5428185"><ele>301.66666666666663</ele><time>2026-04-12T12:24:37.852Z</time></trkpt><trkpt lat="42.8612406" lon="12.5430074"><ele>301.0</ele><time>2026-04-12T12:24:38.864Z</time></trkpt><trkpt lat="42.8613276" lon="12.5431977"><ele>299.66666666666663</ele><time>2026-04-12T12:24:39.859Z</time></trkpt><trkpt lat="42.8614118" lon="12.5433919"><ele>298.3333333333333</ele><time>2026-04-12T12:24:40.861Z</time></trkpt><trkpt lat="42.8615005" lon="12.5435897"><ele>297.0</ele><time>2026-04-12T12:24:41.855Z</time></trkpt><trkpt lat="42.8615887" lon="12.5437911"><ele>296.6666666666667</ele><time>2026-04-12T12:24:42.856Z</time></trkpt><trkpt lat="42.8616787" lon="12.5439939"><ele>296.33333333333337</ele><time>2026-04-12T12:24:43.856Z</time></trkpt><trkpt lat="42.8617683" lon="12.5441969"><ele>296.0</ele><time>2026-04-12T12:24:44.858Z</time></trkpt><trkpt lat="42.8618573" lon="12.5444012"><ele>295.6666666666667</ele><time>2026-04-12T12:24:45.858Z</time></trkpt><trkpt lat="42.8619524" lon="12.5446094"><ele>295.3333333333333</ele><time>2026-04-12T12:24:46.866Z</time></trkpt><trkpt lat="42.8620451" lon="12.5448185"><ele>295.0</ele><time>2026-04-12T12:24:47.862Z</time></trkpt><trkpt lat="42.8621378" lon="12.5450304"><ele>295.0</ele><time>2026-04-12T12:24:48.857Z</time></trkpt><trkpt lat="42.8622306" lon="12.5452444"><ele>295.0</ele><time>2026-04-12T12:24:49.859Z</time></trkpt><trkpt lat="42.8623234" lon="12.5454624"><ele>295.0</ele><time>2026-04-12T12:24:50.849Z</time></trkpt><trkpt lat="42.8624164" lon="12.5456815"><ele>294.66666666666663</ele><time>2026-04-12T12:24:51.853Z</time></trkpt><trkpt lat="42.8625105" lon="12.5458974"><ele>294.3333333333333</ele><time>2026-04-12T12:24:52.865Z</time></trkpt><trkpt lat="42.8626061" lon="12.5461123"><ele>294.0</ele><time>2026-04-12T12:24:53.852Z</time></trkpt><trkpt lat="42.8627006" lon="12.5463248"><ele>294.0</ele><time>2026-04-12T12:24:54.856Z</time></trkpt><trkpt lat="42.8627952" lon="12.5465402"><ele>294.0</ele><time>2026-04-12T12:24:55.865Z</time></trkpt><trkpt lat="42.8628916" lon="12.5467611"><ele>294.0</ele><time>2026-04-12T12:24:56.846Z</time></trkpt><trkpt lat="42.8629863" lon="12.5469806"><ele>293.6666666666667</ele><time>2026-04-12T12:24:57.862Z</time></trkpt><trkpt lat="42.863086" lon="12.5472005"><ele>293.33333333333337</ele><time>2026-04-12T12:24:58.854Z</time></trkpt><trkpt lat="42.8631854" lon="12.5474184"><ele>293.0</ele><time>2026-04-12T12:24:59.858Z</time></trkpt><trkpt lat="42.8632855" lon="12.5476405"><ele>293.0</ele><time>2026-04-12T12:25:00.854Z</time></trkpt><trkpt lat="42.863381" lon="12.5478605"><ele>293.0</ele><time>2026-04-12T12:25:01.854Z</time></trkpt><trkpt lat="42.8634743" lon="12.5480771"><ele>293.0</ele><time>2026-04-12T12:25:02.851Z</time></trkpt><trkpt lat="42.8635632" lon="12.5482747"><ele>292.6666666666667</ele><time>2026-04-12T12:25:03.855Z</time></trkpt><trkpt lat="42.8636531" lon="12.5484715"><ele>292.3333333333333</ele><time>2026-04-12T12:25:04.854Z</time></trkpt><trkpt lat="42.8637459" lon="12.5486756"><ele>292.0</ele><time>2026-04-12T12:25:05.866Z</time></trkpt><trkpt lat="42.8638393" lon="12.5488827"><ele>292.66666666666663</ele><time>2026-04-12T12:25:06.854Z</time></trkpt><trkpt lat="42.8639288" lon="12.549094"><ele>293.3333333333333</ele><time>2026-04-12T12:25:07.858Z</time></trkpt><trkpt lat="42.8640225" lon="12.5493089"><ele>294.0</ele><time>2026-04-12T12:25:08.859Z</time></trkpt><trkpt lat="42.8641172" lon="12.5495246"><ele>294.0</ele><time>2026-04-12T12:25:09.865Z</time></trkpt><trkpt lat="42.8642123" lon="12.5497396"><ele>294.0</ele><time>2026-04-12T12:25:10.856Z</time></trkpt><trkpt lat="42.8643058" lon="12.5499487"><ele>294.0</ele><time>2026-04-12T12:25:11.856Z</time></trkpt><trkpt lat="42.8643979" lon="12.5501554"><ele>293.3333333333333</ele><time>2026-04-12T12:25:12.851Z</time></trkpt><trkpt lat="42.8644942" lon="12.5503631"><ele>292.66666666666663</ele><time>2026-04-12T12:25:13.865Z</time></trkpt><trkpt lat="42.8645951" lon="12.5505589"><ele>292.0</ele><time>2026-04-12T12:25:14.858Z</time></trkpt><trkpt lat="42.8647123" lon="12.5507478"><ele>291.66666666666663</ele><time>2026-04-12T12:25:15.86Z</time></trkpt><trkpt lat="42.8648325" lon="12.5509248"><ele>291.3333333333333</ele><time>2026-04-12T12:25:16.857Z</time></trkpt><trkpt lat="42.8649581" lon="12.5510947"><ele>291.0</ele><time>2026-04-12T12:25:17.857Z</time></trkpt><trkpt lat="42.8650887" lon="12.5512639"><ele>290.0</ele><time>2026-04-12T12:25:18.854Z</time></trkpt><trkpt lat="42.8652159" lon="12.5514277"><ele>289.0</ele><time>2026-04-12T12:25:19.858Z</time></trkpt><trkpt lat="42.8653461" lon="12.5515947"><ele>288.0</ele><time>2026-04-12T12:25:20.853Z</time></trkpt><trkpt lat="42.865476" lon="12.5517608"><ele>288.0</ele><time>2026-04-12T12:25:21.843Z</time></trkpt><trkpt lat="42.8656058" lon="12.5519317"><ele>288.0</ele><time>2026-04-12T12:25:22.853Z</time></trkpt><trkpt lat="42.8657364" lon="12.5520995"><ele>288.0</ele><time>2026-04-12T12:25:23.861Z</time></trkpt><trkpt lat="42.8658668" lon="12.5522682"><ele>286.3333333333333</ele><time>2026-04-12T12:25:24.854Z</time></trkpt><trkpt lat="42.8659984" lon="12.5524409"><ele>284.66666666666663</ele><time>2026-04-12T12:25:25.854Z</time></trkpt><trkpt lat="42.8661325" lon="12.5526122"><ele>283.0</ele><time>2026-04-12T12:25:26.852Z</time></trkpt><trkpt lat="42.8662669" lon="12.5527822"><ele>284.3333333333333</ele><time>2026-04-12T12:25:27.851Z</time></trkpt><trkpt lat="42.8663926" lon="12.5529484"><ele>285.6666666666667</ele><time>2026-04-12T12:25:28.85Z</time></trkpt><trkpt lat="42.8665071" lon="12.5531052"><ele>287.0</ele><time>2026-04-12T12:25:29.852Z</time></trkpt><trkpt lat="42.8666133" lon="12.5532427"><ele>287.0</ele><time>2026-04-12T12:25:30.855Z</time></trkpt><trkpt lat="42.8667077" lon="12.5533704"><ele>287.0</ele><time>2026-04-12T12:25:31.861Z</time></trkpt><trkpt lat="42.8667994" lon="12.5534927"><ele>287.0</ele><time>2026-04-12T12:25:32.863Z</time></trkpt><trkpt lat="42.866889" lon="12.5536156"><ele>287.0</ele><time>2026-04-12T12:25:33.853Z</time></trkpt><trkpt lat="42.8669804" lon="12.5537336"><ele>287.25</ele><time>2026-04-12T12:25:34.855Z</time></trkpt><trkpt lat="42.8670716" lon="12.5538468"><ele>287.5</ele><time>2026-04-12T12:25:35.856Z</time></trkpt><trkpt lat="42.8671651" lon="12.5539594"><ele>287.75</ele><time>2026-04-12T12:25:36.86Z</time></trkpt><trkpt lat="42.8672578" lon="12.5540754"><ele>288.0</ele><time>2026-04-12T12:25:37.86Z</time></trkpt><trkpt lat="42.8673552" lon="12.5541971"><ele>288.0</ele><time>2026-04-12T12:25:38.848Z</time></trkpt><trkpt lat="42.8674428" lon="12.5543098"><ele>288.0</ele><time>2026-04-12T12:25:39.857Z</time></trkpt><trkpt lat="42.8675337" lon="12.5544112"><ele>288.0</ele><time>2026-04-12T12:25:40.855Z</time></trkpt><trkpt lat="42.8676321" lon="12.5545064"><ele>288.0</ele><time>2026-04-12T12:25:41.854Z</time></trkpt><trkpt lat="42.8677395" lon="12.5545869"><ele>289.5</ele><time>2026-04-12T12:25:42.85Z</time></trkpt><trkpt lat="42.8678586" lon="12.5546592"><ele>291.0</ele><time>2026-04-12T12:25:43.858Z</time></trkpt><trkpt lat="42.8679799" lon="12.5547156"><ele>292.5</ele><time>2026-04-12T12:25:44.863Z</time></trkpt><trkpt lat="42.8681079" lon="12.5547576"><ele>294.0</ele><time>2026-04-12T12:25:45.854Z</time></trkpt><trkpt lat="42.8682424" lon="12.5547896"><ele>294.0</ele><time>2026-04-12T12:25:46.847Z</time></trkpt><trkpt lat="42.8683776" lon="12.5548145"><ele>294.0</ele><time>2026-04-12T12:25:47.848Z</time></trkpt><trkpt lat="42.8685095" lon="12.5548365"><ele>294.0</ele><time>2026-04-12T12:25:48.865Z</time></trkpt><trkpt lat="42.8686363" lon="12.5548584"><ele>294.0</ele><time>2026-04-12T12:25:49.851Z</time></trkpt><trkpt lat="42.8687624" lon="12.5548794"><ele>293.5</ele><time>2026-04-12T12:25:50.843Z</time></trkpt><trkpt lat="42.8688875" lon="12.5549078"><ele>293.0</ele><time>2026-04-12T12:25:51.851Z</time></trkpt><trkpt lat="42.8690053" lon="12.5549503"><ele>292.5</ele><time>2026-04-12T12:25:52.855Z</time></trkpt><trkpt lat="42.8691107" lon="12.555024"><ele>292.0</ele><time>2026-04-12T12:25:53.852Z</time></trkpt><trkpt lat="42.8692202" lon="12.5551159"><ele>290.75</ele><time>2026-04-12T12:25:54.86Z</time></trkpt><trkpt lat="42.8693171" lon="12.5552267"><ele>289.5</ele><time>2026-04-12T12:25:55.846Z</time></trkpt><trkpt lat="42.8694014" lon="12.555341"><ele>288.25</ele><time>2026-04-12T12:25:56.859Z</time></trkpt><trkpt lat="42.8694779" lon="12.5554671"><ele>287.0</ele><time>2026-04-12T12:25:57.85Z</time></trkpt><trkpt lat="42.8695556" lon="12.5556013"><ele>287.0</ele><time>2026-04-12T12:25:58.855Z</time></trkpt><trkpt lat="42.8696417" lon="12.5557399"><ele>287.0</ele><time>2026-04-12T12:25:59.863Z</time></trkpt><trkpt lat="42.869729" lon="12.5558866"><ele>287.0</ele><time>2026-04-12T12:26:00.864Z</time></trkpt><trkpt lat="42.8698046" lon="12.5560329"><ele>287.0</ele><time>2026-04-12T12:26:01.861Z</time></trkpt><trkpt lat="42.8698727" lon="12.5561699"><ele>288.0</ele><time>2026-04-12T12:26:02.856Z</time></trkpt><trkpt lat="42.8699308" lon="12.5563044"><ele>289.0</ele><time>2026-04-12T12:26:03.849Z</time></trkpt><trkpt lat="42.8699823" lon="12.5564395"><ele>290.0</ele><time>2026-04-12T12:26:04.851Z</time></trkpt><trkpt lat="42.870022" lon="12.5565617"><ele>291.0</ele><time>2026-04-12T12:26:05.858Z</time></trkpt><trkpt lat="42.8700437" lon="12.5566795"><ele>292.0</ele><time>2026-04-12T12:26:06.856Z</time></trkpt><trkpt lat="42.8700484" lon="12.5567834"><ele>292.0</ele><time>2026-04-12T12:26:07.859Z</time></trkpt><trkpt lat="42.8700468" lon="12.5568706"><ele>292.0</ele><time>2026-04-12T12:26:08.856Z</time></trkpt><trkpt lat="42.8700873" lon="12.5570005"><ele>292.0</ele><time>2026-04-12T12:26:10.856Z</time></trkpt><trkpt lat="42.8701753" lon="12.557115"><ele>292.0</ele><time>2026-04-12T12:26:12.853Z</time></trkpt><trkpt lat="42.8702137" lon="12.5571995"><ele>292.0</ele><time>2026-04-12T12:26:13.852Z</time></trkpt><trkpt lat="42.8702327" lon="12.5573141"><ele>292.0</ele><time>2026-04-12T12:26:14.857Z</time></trkpt><trkpt lat="42.8702303" lon="12.5574405"><ele>291.5</ele><time>2026-04-12T12:26:15.854Z</time></trkpt><trkpt lat="42.8702284" lon="12.5575798"><ele>291.0</ele><time>2026-04-12T12:26:16.857Z</time></trkpt><trkpt lat="42.8702207" lon="12.5577297"><ele>290.5</ele><time>2026-04-12T12:26:17.861Z</time></trkpt><trkpt lat="42.8702142" lon="12.5578876"><ele>290.0</ele><time>2026-04-12T12:26:18.849Z</time></trkpt><trkpt lat="42.8702119" lon="12.5580532"><ele>290.0</ele><time>2026-04-12T12:26:19.855Z</time></trkpt><trkpt lat="42.8702178" lon="12.5582199"><ele>290.0</ele><time>2026-04-12T12:26:20.848Z</time></trkpt><trkpt lat="42.8702368" lon="12.5583929"><ele>290.0</ele><time>2026-04-12T12:26:21.85Z</time></trkpt><trkpt lat="42.8702685" lon="12.5585529"><ele>290.0</ele><time>2026-04-12T12:26:22.845Z</time></trkpt><trkpt lat="42.8703211" lon="12.5587044"><ele>289.5</ele><time>2026-04-12T12:26:23.848Z</time></trkpt><trkpt lat="42.870383" lon="12.5588499"><ele>289.0</ele><time>2026-04-12T12:26:24.861Z</time></trkpt><trkpt lat="42.870447" lon="12.5589952"><ele>288.5</ele><time>2026-04-12T12:26:25.851Z</time></trkpt><trkpt lat="42.8705141" lon="12.5591394"><ele>288.0</ele><time>2026-04-12T12:26:26.842Z</time></trkpt><trkpt lat="42.8705797" lon="12.5592845"><ele>288.0</ele><time>2026-04-12T12:26:27.848Z</time></trkpt><trkpt lat="42.8706489" lon="12.5594214"><ele>288.0</ele><time>2026-04-12T12:26:28.869Z</time></trkpt><trkpt lat="42.8707172" lon="12.5595628"><ele>288.0</ele><time>2026-04-12T12:26:29.845Z</time></trkpt><trkpt lat="42.8707907" lon="12.5596952"><ele>288.0</ele><time>2026-04-12T12:26:30.848Z</time></trkpt><trkpt lat="42.8708748" lon="12.5598101"><ele>288.0</ele><time>2026-04-12T12:26:31.846Z</time></trkpt><trkpt lat="42.8709626" lon="12.5599057"><ele>288.0</ele><time>2026-04-12T12:26:32.846Z</time></trkpt><trkpt lat="42.8710475" lon="12.5599962"><ele>288.0</ele><time>2026-04-12T12:26:33.844Z</time></trkpt><trkpt lat="42.8711327" lon="12.5600795"><ele>288.0</ele><time>2026-04-12T12:26:34.847Z</time></trkpt><trkpt lat="42.8712136" lon="12.560151"><ele>288.0</ele><time>2026-04-12T12:26:35.846Z</time></trkpt><trkpt lat="42.8712832" lon="12.5602193"><ele>288.0</ele><time>2026-04-12T12:26:36.856Z</time></trkpt><trkpt lat="42.8713477" lon="12.560287"><ele>288.0</ele><time>2026-04-12T12:26:37.848Z</time></trkpt><trkpt lat="42.871404" lon="12.5603533"><ele>288.0</ele><time>2026-04-12T12:26:38.849Z</time></trkpt><trkpt lat="42.8714626" lon="12.5604115"><ele>288.0</ele><time>2026-04-12T12:26:39.85Z</time></trkpt><trkpt lat="42.871531" lon="12.5604607"><ele>288.0</ele><time>2026-04-12T12:26:40.86Z</time></trkpt><trkpt lat="42.871604" lon="12.5605115"><ele>288.0</ele><time>2026-04-12T12:26:41.842Z</time></trkpt><trkpt lat="42.871671" lon="12.5605666"><ele>288.28571428571433</ele><time>2026-04-12T12:26:42.85Z</time></trkpt><trkpt lat="42.8717418" lon="12.5606199"><ele>288.57142857142856</ele><time>2026-04-12T12:26:43.848Z</time></trkpt><trkpt lat="42.871808" lon="12.5606629"><ele>288.8571428571429</ele><time>2026-04-12T12:26:44.847Z</time></trkpt><trkpt lat="42.8718734" lon="12.5606827"><ele>289.14285714285717</ele><time>2026-04-12T12:26:45.845Z</time></trkpt><trkpt lat="42.8719367" lon="12.5606736"><ele>289.42857142857144</ele><time>2026-04-12T12:26:46.852Z</time></trkpt><trkpt lat="42.8720045" lon="12.5606662"><ele>289.7142857142857</ele><time>2026-04-12T12:26:47.847Z</time></trkpt><trkpt lat="42.872074" lon="12.5606887"><ele>290.0</ele><time>2026-04-12T12:26:48.853Z</time></trkpt><trkpt lat="42.872144" lon="12.5607263"><ele>290.0</ele><time>2026-04-12T12:26:49.852Z</time></trkpt><trkpt lat="42.872225" lon="12.5607937"><ele>290.0</ele><time>2026-04-12T12:26:50.854Z</time></trkpt><trkpt lat="42.8723194" lon="12.5608718"><ele>290.0</ele><time>2026-04-12T12:26:51.852Z</time></trkpt><trkpt lat="42.8724153" lon="12.5609499"><ele>290.0</ele><time>2026-04-12T12:26:52.86Z</time></trkpt><trkpt lat="42.8725184" lon="12.5610333"><ele>290.0</ele><time>2026-04-12T12:26:53.846Z</time></trkpt><trkpt lat="42.8726261" lon="12.5611177"><ele>289.25</ele><time>2026-04-12T12:26:54.856Z</time></trkpt><trkpt lat="42.8727461" lon="12.5612084"><ele>288.5</ele><time>2026-04-12T12:26:55.853Z</time></trkpt><trkpt lat="42.8728663" lon="12.5613006"><ele>287.75</ele><time>2026-04-12T12:26:56.848Z</time></trkpt><trkpt lat="42.8729848" lon="12.5613838"><ele>287.0</ele><time>2026-04-12T12:26:57.847Z</time></trkpt><trkpt lat="42.873108" lon="12.5614728"><ele>287.0</ele><time>2026-04-12T12:26:58.858Z</time></trkpt><trkpt lat="42.8732367" lon="12.5615668"><ele>287.0</ele><time>2026-04-12T12:26:59.864Z</time></trkpt><trkpt lat="42.8733593" lon="12.561661"><ele>287.0</ele><time>2026-04-12T12:27:00.863Z</time></trkpt><trkpt lat="42.87348" lon="12.5617559"><ele>287.0</ele><time>2026-04-12T12:27:01.852Z</time></trkpt><trkpt lat="42.8736006" lon="12.5618444"><ele>286.25</ele><time>2026-04-12T12:27:02.848Z</time></trkpt><trkpt lat="42.8737099" lon="12.5619316"><ele>285.5</ele><time>2026-04-12T12:27:03.855Z</time></trkpt><trkpt lat="42.8738233" lon="12.5620202"><ele>284.75</ele><time>2026-04-12T12:27:04.851Z</time></trkpt><trkpt lat="42.8739337" lon="12.5621045"><ele>284.0</ele><time>2026-04-12T12:27:05.861Z</time></trkpt><trkpt lat="42.8740436" lon="12.5621916"><ele>284.0</ele><time>2026-04-12T12:27:06.853Z</time></trkpt><trkpt lat="42.8741502" lon="12.5622744"><ele>284.0</ele><time>2026-04-12T12:27:07.848Z</time></trkpt><trkpt lat="42.8742581" lon="12.5623539"><ele>284.0</ele><time>2026-04-12T12:27:08.854Z</time></trkpt><trkpt lat="42.8743678" lon="12.5624355"><ele>284.0</ele><time>2026-04-12T12:27:09.855Z</time></trkpt><trkpt lat="42.8744767" lon="12.5625182"><ele>283.5</ele><time>2026-04-12T12:27:10.858Z</time></trkpt><trkpt lat="42.8745853" lon="12.5626074"><ele>283.0</ele><time>2026-04-12T12:27:11.848Z</time></trkpt><trkpt lat="42.874691" lon="12.5627131"><ele>282.5</ele><time>2026-04-12T12:27:12.853Z</time></trkpt><trkpt lat="42.8747852" lon="12.5628275"><ele>282.0</ele><time>2026-04-12T12:27:13.843Z</time></trkpt><trkpt lat="42.8748642" lon="12.5629426"><ele>281.6</ele><time>2026-04-12T12:27:14.849Z</time></trkpt><trkpt lat="42.8749296" lon="12.5630557"><ele>281.2</ele><time>2026-04-12T12:27:15.852Z</time></trkpt><trkpt lat="42.8749892" lon="12.5631625"><ele>280.8</ele><time>2026-04-12T12:27:16.859Z</time></trkpt><trkpt lat="42.8750187" lon="12.5632745"><ele>280.4</ele><time>2026-04-12T12:27:17.854Z</time></trkpt><trkpt lat="42.875047" lon="12.5633861"><ele>280.0</ele><time>2026-04-12T12:27:18.857Z</time></trkpt><trkpt lat="42.8750896" lon="12.5634833"><ele>279.8</ele><time>2026-04-12T12:27:19.867Z</time></trkpt><trkpt lat="42.8751611" lon="12.5635548"><ele>279.6</ele><time>2026-04-12T12:27:20.877Z</time></trkpt><trkpt lat="42.8752376" lon="12.5636008"><ele>279.4</ele><time>2026-04-12T12:27:21.856Z</time></trkpt><trkpt lat="42.8753207" lon="12.5636357"><ele>279.2</ele><time>2026-04-12T12:27:22.866Z</time></trkpt><trkpt lat="42.875399" lon="12.5636983"><ele>279.0</ele><time>2026-04-12T12:27:23.862Z</time></trkpt><trkpt lat="42.8754792" lon="12.563815"><ele>279.0</ele><time>2026-04-12T12:27:24.878Z</time></trkpt><trkpt lat="42.8755719" lon="12.5639215"><ele>279.0</ele><time>2026-04-12T12:27:25.856Z</time></trkpt><trkpt lat="42.8756528" lon="12.5640514"><ele>279.0</ele><time>2026-04-12T12:27:26.864Z</time></trkpt><trkpt lat="42.8757441" lon="12.5641798"><ele>279.0</ele><time>2026-04-12T12:27:27.86Z</time></trkpt><trkpt lat="42.8758359" lon="12.5643102"><ele>279.0</ele><time>2026-04-12T12:27:28.864Z</time></trkpt><trkpt lat="42.8759329" lon="12.5644475"><ele>279.0</ele><time>2026-04-12T12:27:29.867Z</time></trkpt><trkpt lat="42.8760283" lon="12.5645879"><ele>279.0</ele><time>2026-04-12T12:27:30.861Z</time></trkpt><trkpt lat="42.8761253" lon="12.5647242"><ele>279.0</ele><time>2026-04-12T12:27:31.855Z</time></trkpt><trkpt lat="42.8762243" lon="12.5648555"><ele>279.25</ele><time>2026-04-12T12:27:32.86Z</time></trkpt><trkpt lat="42.8763241" lon="12.5649931"><ele>279.5</ele><time>2026-04-12T12:27:33.852Z</time></trkpt><trkpt lat="42.8764223" lon="12.5651342"><ele>279.75</ele><time>2026-04-12T12:27:34.855Z</time></trkpt><trkpt lat="42.8765175" lon="12.5652683"><ele>280.0</ele><time>2026-04-12T12:27:35.852Z</time></trkpt><trkpt lat="42.8766087" lon="12.5653972"><ele>280.75</ele><time>2026-04-12T12:27:36.856Z</time></trkpt><trkpt lat="42.8766972" lon="12.5655209"><ele>281.5</ele><time>2026-04-12T12:27:37.85Z</time></trkpt><trkpt lat="42.8767891" lon="12.5656492"><ele>282.25</ele><time>2026-04-12T12:27:38.86Z</time></trkpt><trkpt lat="42.8768818" lon="12.5657795"><ele>283.0</ele><time>2026-04-12T12:27:39.853Z</time></trkpt><trkpt lat="42.8769798" lon="12.565914"><ele>282.5</ele><time>2026-04-12T12:27:40.86Z</time></trkpt><trkpt lat="42.8770818" lon="12.5660573"><ele>282.0</ele><time>2026-04-12T12:27:41.85Z</time></trkpt><trkpt lat="42.8771865" lon="12.566202"><ele>281.5</ele><time>2026-04-12T12:27:42.859Z</time></trkpt><trkpt lat="42.8772896" lon="12.5663446"><ele>281.0</ele><time>2026-04-12T12:27:43.852Z</time></trkpt><trkpt lat="42.8773948" lon="12.5664923"><ele>281.0</ele><time>2026-04-12T12:27:44.856Z</time></trkpt><trkpt lat="42.8774976" lon="12.5666318"><ele>281.0</ele><time>2026-04-12T12:27:45.853Z</time></trkpt><trkpt lat="42.8776018" lon="12.5667499"><ele>281.0</ele><time>2026-04-12T12:27:46.853Z</time></trkpt><trkpt lat="42.8777233" lon="12.5668407"><ele>281.0</ele><time>2026-04-12T12:27:47.852Z</time></trkpt><trkpt lat="42.8778634" lon="12.5668997"><ele>282.0</ele><time>2026-04-12T12:27:48.849Z</time></trkpt><trkpt lat="42.8780045" lon="12.5669231"><ele>283.0</ele><time>2026-04-12T12:27:49.855Z</time></trkpt><trkpt lat="42.8781568" lon="12.5669164"><ele>284.0</ele><time>2026-04-12T12:27:50.847Z</time></trkpt><trkpt lat="42.8783173" lon="12.5669035"><ele>284.6666666666667</ele><time>2026-04-12T12:27:51.859Z</time></trkpt><trkpt lat="42.8784875" lon="12.5668912"><ele>285.3333333333333</ele><time>2026-04-12T12:27:52.85Z</time></trkpt><trkpt lat="42.8786587" lon="12.5668795"><ele>286.0</ele><time>2026-04-12T12:27:53.853Z</time></trkpt><trkpt lat="42.8788369" lon="12.5668673"><ele>286.0</ele><time>2026-04-12T12:27:54.854Z</time></trkpt><trkpt lat="42.8790128" lon="12.5668602"><ele>286.0</ele><time>2026-04-12T12:27:55.855Z</time></trkpt><trkpt lat="42.8791956" lon="12.566842"><ele>286.0</ele><time>2026-04-12T12:27:56.845Z</time></trkpt><trkpt lat="42.8793775" lon="12.5668212"><ele>286.66666666666663</ele><time>2026-04-12T12:27:57.849Z</time></trkpt><trkpt lat="42.8795625" lon="12.5668016"><ele>287.3333333333333</ele><time>2026-04-12T12:27:58.854Z</time></trkpt><trkpt lat="42.8797434" lon="12.5667856"><ele>288.0</ele><time>2026-04-12T12:27:59.851Z</time></trkpt><trkpt lat="42.8799184" lon="12.5667711"><ele>288.0</ele><time>2026-04-12T12:28:00.859Z</time></trkpt><trkpt lat="42.8800835" lon="12.5667543"><ele>288.0</ele><time>2026-04-12T12:28:01.851Z</time></trkpt><trkpt lat="42.8802379" lon="12.5667472"><ele>288.0</ele><time>2026-04-12T12:28:02.845Z</time></trkpt><trkpt lat="42.8803894" lon="12.5667389"><ele>288.6666666666667</ele><time>2026-04-12T12:28:03.847Z</time></trkpt><trkpt lat="42.8805383" lon="12.5667374"><ele>289.33333333333337</ele><time>2026-04-12T12:28:04.859Z</time></trkpt><trkpt lat="42.8806843" lon="12.5667614"><ele>290.0</ele><time>2026-04-12T12:28:05.857Z</time></trkpt><trkpt lat="42.880832" lon="12.5668208"><ele>290.0</ele><time>2026-04-12T12:28:06.847Z</time></trkpt><trkpt lat="42.880974" lon="12.5668958"><ele>290.0</ele><time>2026-04-12T12:28:07.852Z</time></trkpt><trkpt lat="42.8811124" lon="12.5669856"><ele>290.0</ele><time>2026-04-12T12:28:08.85Z</time></trkpt><trkpt lat="42.8812548" lon="12.5670824"><ele>292.0</ele><time>2026-04-12T12:28:09.849Z</time></trkpt><trkpt lat="42.8813996" lon="12.5671784"><ele>294.0</ele><time>2026-04-12T12:28:10.848Z</time></trkpt><trkpt lat="42.8815463" lon="12.5672709"><ele>296.0</ele><time>2026-04-12T12:28:11.849Z</time></trkpt><trkpt lat="42.8816858" lon="12.5673613"><ele>295.0</ele><time>2026-04-12T12:28:12.854Z</time></trkpt><trkpt lat="42.8818264" lon="12.5674508"><ele>294.0</ele><time>2026-04-12T12:28:13.853Z</time></trkpt><trkpt lat="42.88196" lon="12.5675443"><ele>293.0</ele><time>2026-04-12T12:28:14.853Z</time></trkpt><trkpt lat="42.8820906" lon="12.5676361"><ele>293.0</ele><time>2026-04-12T12:28:15.849Z</time></trkpt><trkpt lat="42.8822149" lon="12.5677231"><ele>293.0</ele><time>2026-04-12T12:28:16.85Z</time></trkpt><trkpt lat="42.8823406" lon="12.567814"><ele>293.0</ele><time>2026-04-12T12:28:17.846Z</time></trkpt><trkpt lat="42.8824723" lon="12.5679047"><ele>293.0</ele><time>2026-04-12T12:28:18.85Z</time></trkpt><trkpt lat="42.8826065" lon="12.5679937"><ele>292.25</ele><time>2026-04-12T12:28:19.851Z</time></trkpt><trkpt lat="42.8827364" lon="12.5680785"><ele>291.5</ele><time>2026-04-12T12:28:20.852Z</time></trkpt><trkpt lat="42.8828601" lon="12.5681564"><ele>290.75</ele><time>2026-04-12T12:28:21.858Z</time></trkpt><trkpt lat="42.8829717" lon="12.5682454"><ele>290.0</ele><time>2026-04-12T12:28:22.844Z</time></trkpt><trkpt lat="42.8830693" lon="12.5683441"><ele>290.0</ele><time>2026-04-12T12:28:23.857Z</time></trkpt><trkpt lat="42.8831511" lon="12.5684637"><ele>290.0</ele><time>2026-04-12T12:28:24.856Z</time></trkpt><trkpt lat="42.8832087" lon="12.5686035"><ele>290.0</ele><time>2026-04-12T12:28:25.858Z</time></trkpt><trkpt lat="42.8832387" lon="12.5687535"><ele>290.0</ele><time>2026-04-12T12:28:26.86Z</time></trkpt><trkpt lat="42.8832626" lon="12.5689068"><ele>290.75</ele><time>2026-04-12T12:28:27.846Z</time></trkpt><trkpt lat="42.8832763" lon="12.5690588"><ele>291.5</ele><time>2026-04-12T12:28:28.85Z</time></trkpt><trkpt lat="42.8832903" lon="12.569208"><ele>292.25</ele><time>2026-04-12T12:28:29.85Z</time></trkpt><trkpt lat="42.8833058" lon="12.569361"><ele>293.0</ele><time>2026-04-12T12:28:30.844Z</time></trkpt><trkpt lat="42.8833255" lon="12.5695249"><ele>293.5</ele><time>2026-04-12T12:28:31.843Z</time></trkpt><trkpt lat="42.8833392" lon="12.5696968"><ele>294.0</ele><time>2026-04-12T12:28:32.867Z</time></trkpt><trkpt lat="42.8833486" lon="12.5698746"><ele>294.5</ele><time>2026-04-12T12:28:33.847Z</time></trkpt><trkpt lat="42.8833602" lon="12.5700548"><ele>295.0</ele><time>2026-04-12T12:28:34.851Z</time></trkpt><trkpt lat="42.883369" lon="12.5702348"><ele>294.75</ele><time>2026-04-12T12:28:35.845Z</time></trkpt><trkpt lat="42.8833809" lon="12.5704212"><ele>294.5</ele><time>2026-04-12T12:28:36.85Z</time></trkpt><trkpt lat="42.8833909" lon="12.5706126"><ele>294.25</ele><time>2026-04-12T12:28:37.853Z</time></trkpt><trkpt lat="42.8834034" lon="12.5708123"><ele>294.0</ele><time>2026-04-12T12:28:38.852Z</time></trkpt><trkpt lat="42.8834212" lon="12.5710246"><ele>290.3333333333333</ele><time>2026-04-12T12:28:39.854Z</time></trkpt><trkpt lat="42.8834392" lon="12.5712447"><ele>286.66666666666663</ele><time>2026-04-12T12:28:40.861Z</time></trkpt><trkpt lat="42.8834568" lon="12.5714682"><ele>283.0</ele><time>2026-04-12T12:28:41.846Z</time></trkpt><trkpt lat="42.8834728" lon="12.5716932"><ele>283.0</ele><time>2026-04-12T12:28:42.835Z</time></trkpt><trkpt lat="42.8834907" lon="12.5719209"><ele>283.0</ele><time>2026-04-12T12:28:43.851Z</time></trkpt><trkpt lat="42.8835079" lon="12.5721513"><ele>283.0</ele><time>2026-04-12T12:28:44.864Z</time></trkpt><trkpt lat="42.8835267" lon="12.5723834"><ele>283.3333333333333</ele><time>2026-04-12T12:28:45.849Z</time></trkpt><trkpt lat="42.8835421" lon="12.5726174"><ele>283.6666666666667</ele><time>2026-04-12T12:28:46.861Z</time></trkpt><trkpt lat="42.8835562" lon="12.5728518"><ele>284.0</ele><time>2026-04-12T12:28:47.848Z</time></trkpt><trkpt lat="42.8835748" lon="12.5730843"><ele>283.0</ele><time>2026-04-12T12:28:48.851Z</time></trkpt><trkpt lat="42.8835916" lon="12.5733103"><ele>282.0</ele><time>2026-04-12T12:28:49.846Z</time></trkpt><trkpt lat="42.8836067" lon="12.5735334"><ele>281.0</ele><time>2026-04-12T12:28:50.857Z</time></trkpt><trkpt lat="42.8836106" lon="12.5737533"><ele>280.0</ele><time>2026-04-12T12:28:51.858Z</time></trkpt><trkpt lat="42.8835914" lon="12.5739698"><ele>279.0</ele><time>2026-04-12T12:28:52.848Z</time></trkpt><trkpt lat="42.8835562" lon="12.5741918"><ele>278.0</ele><time>2026-04-12T12:28:53.86Z</time></trkpt><trkpt lat="42.8835051" lon="12.5744078"><ele>278.0</ele><time>2026-04-12T12:28:54.844Z</time></trkpt><trkpt lat="42.8834521" lon="12.574623"><ele>278.0</ele><time>2026-04-12T12:28:55.85Z</time></trkpt><trkpt lat="42.8833969" lon="12.5748433"><ele>278.0</ele><time>2026-04-12T12:28:56.852Z</time></trkpt><trkpt lat="42.8833423" lon="12.5750646"><ele>279.6666666666667</ele><time>2026-04-12T12:28:57.859Z</time></trkpt><trkpt lat="42.8832865" lon="12.5752866"><ele>281.3333333333333</ele><time>2026-04-12T12:28:58.85Z</time></trkpt><trkpt lat="42.883231" lon="12.5755106"><ele>283.0</ele><time>2026-04-12T12:28:59.862Z</time></trkpt><trkpt lat="42.8831753" lon="12.5757407"><ele>283.0</ele><time>2026-04-12T12:29:00.858Z</time></trkpt><trkpt lat="42.8831178" lon="12.5759671"><ele>283.0</ele><time>2026-04-12T12:29:01.848Z</time></trkpt><trkpt lat="42.8830608" lon="12.5761944"><ele>283.0</ele><time>2026-04-12T12:29:02.849Z</time></trkpt><trkpt lat="42.8830041" lon="12.5764234"><ele>282.0</ele><time>2026-04-12T12:29:03.854Z</time></trkpt><trkpt lat="42.8829436" lon="12.576654"><ele>281.0</ele><time>2026-04-12T12:29:04.857Z</time></trkpt><trkpt lat="42.8828828" lon="12.57689"><ele>280.0</ele><time>2026-04-12T12:29:05.847Z</time></trkpt><trkpt lat="42.8828237" lon="12.5771281"><ele>279.66666666666663</ele><time>2026-04-12T12:29:06.846Z</time></trkpt><trkpt lat="42.8827668" lon="12.5773723"><ele>279.3333333333333</ele><time>2026-04-12T12:29:07.854Z</time></trkpt><trkpt lat="42.8827106" lon="12.5776121"><ele>279.0</ele><time>2026-04-12T12:29:08.848Z</time></trkpt><trkpt lat="42.8826505" lon="12.5778583"><ele>279.6666666666667</ele><time>2026-04-12T12:29:09.861Z</time></trkpt><trkpt lat="42.8825877" lon="12.5781031"><ele>280.33333333333337</ele><time>2026-04-12T12:29:10.852Z</time></trkpt><trkpt lat="42.8825272" lon="12.5783321"><ele>281.0</ele><time>2026-04-12T12:29:11.856Z</time></trkpt><trkpt lat="42.8824726" lon="12.5785537"><ele>281.0</ele><time>2026-04-12T12:29:12.852Z</time></trkpt><trkpt lat="42.8824183" lon="12.5787668"><ele>281.0</ele><time>2026-04-12T12:29:13.855Z</time></trkpt><trkpt lat="42.8823617" lon="12.5789761"><ele>281.0</ele><time>2026-04-12T12:29:14.852Z</time></trkpt><trkpt lat="42.8823142" lon="12.5791787"><ele>281.0</ele><time>2026-04-12T12:29:15.85Z</time></trkpt><trkpt lat="42.8822677" lon="12.579368"><ele>281.0</ele><time>2026-04-12T12:29:16.851Z</time></trkpt><trkpt lat="42.8822232" lon="12.5795546"><ele>281.0</ele><time>2026-04-12T12:29:17.86Z</time></trkpt><trkpt lat="42.8821754" lon="12.5797395"><ele>281.0</ele><time>2026-04-12T12:29:18.85Z</time></trkpt><trkpt lat="42.8821286" lon="12.5799278"><ele>281.25</ele><time>2026-04-12T12:29:19.852Z</time></trkpt><trkpt lat="42.8820792" lon="12.580118"><ele>281.5</ele><time>2026-04-12T12:29:20.844Z</time></trkpt><trkpt lat="42.8820245" lon="12.580299"><ele>281.75</ele><time>2026-04-12T12:29:21.853Z</time></trkpt><trkpt lat="42.8819557" lon="12.5804793"><ele>282.0</ele><time>2026-04-12T12:29:22.85Z</time></trkpt><trkpt lat="42.8818829" lon="12.5806562"><ele>282.0</ele><time>2026-04-12T12:29:23.86Z</time></trkpt><trkpt lat="42.8818097" lon="12.5808297"><ele>282.0</ele><time>2026-04-12T12:29:24.849Z</time></trkpt><trkpt lat="42.8817324" lon="12.581005"><ele>282.0</ele><time>2026-04-12T12:29:25.849Z</time></trkpt><trkpt lat="42.8816545" lon="12.5811859"><ele>282.3333333333333</ele><time>2026-04-12T12:29:26.847Z</time></trkpt><trkpt lat="42.8815728" lon="12.5813649"><ele>282.66666666666663</ele><time>2026-04-12T12:29:27.846Z</time></trkpt><trkpt lat="42.8814935" lon="12.5815485"><ele>283.0</ele><time>2026-04-12T12:29:28.855Z</time></trkpt><trkpt lat="42.8814178" lon="12.5817392"><ele>283.0</ele><time>2026-04-12T12:29:29.854Z</time></trkpt><trkpt lat="42.8813483" lon="12.5819318"><ele>283.0</ele><time>2026-04-12T12:29:30.855Z</time></trkpt><trkpt lat="42.8812971" lon="12.5821465"><ele>283.0</ele><time>2026-04-12T12:29:31.847Z</time></trkpt><trkpt lat="42.8812595" lon="12.582362"><ele>283.0</ele><time>2026-04-12T12:29:32.851Z</time></trkpt><trkpt lat="42.8812347" lon="12.5825822"><ele>283.0</ele><time>2026-04-12T12:29:33.847Z</time></trkpt><trkpt lat="42.8812149" lon="12.5828114"><ele>283.0</ele><time>2026-04-12T12:29:34.842Z</time></trkpt><trkpt lat="42.8812006" lon="12.5830451"><ele>283.66666666666663</ele><time>2026-04-12T12:29:35.852Z</time></trkpt><trkpt lat="42.8811828" lon="12.5832791"><ele>284.3333333333333</ele><time>2026-04-12T12:29:36.856Z</time></trkpt><trkpt lat="42.881166" lon="12.5835152"><ele>285.0</ele><time>2026-04-12T12:29:37.859Z</time></trkpt><trkpt lat="42.8811514" lon="12.5837522"><ele>285.0</ele><time>2026-04-12T12:29:38.855Z</time></trkpt><trkpt lat="42.8811319" lon="12.5839919"><ele>285.0</ele><time>2026-04-12T12:29:39.858Z</time></trkpt><trkpt lat="42.8811156" lon="12.5842335"><ele>285.0</ele><time>2026-04-12T12:29:40.869Z</time></trkpt><trkpt lat="42.8810965" lon="12.5844772"><ele>285.6666666666667</ele><time>2026-04-12T12:29:41.854Z</time></trkpt><trkpt lat="42.8810797" lon="12.5847258"><ele>286.33333333333337</ele><time>2026-04-12T12:29:42.86Z</time></trkpt><trkpt lat="42.8810602" lon="12.5849792"><ele>287.0</ele><time>2026-04-12T12:29:43.849Z</time></trkpt><trkpt lat="42.8810408" lon="12.5852345"><ele>288.33333333333337</ele><time>2026-04-12T12:29:44.866Z</time></trkpt><trkpt lat="42.8810181" lon="12.5854982"><ele>289.6666666666667</ele><time>2026-04-12T12:29:45.854Z</time></trkpt><trkpt lat="42.8809986" lon="12.5857568"><ele>291.0</ele><time>2026-04-12T12:29:46.861Z</time></trkpt><trkpt lat="42.8809825" lon="12.586012"><ele>291.3333333333333</ele><time>2026-04-12T12:29:47.857Z</time></trkpt><trkpt lat="42.8809659" lon="12.5862597"><ele>291.66666666666663</ele><time>2026-04-12T12:29:48.856Z</time></trkpt><trkpt lat="42.8809483" lon="12.5864979"><ele>292.0</ele><time>2026-04-12T12:29:49.85Z</time></trkpt><trkpt lat="42.8809322" lon="12.5867364"><ele>292.0</ele><time>2026-04-12T12:29:50.857Z</time></trkpt><trkpt lat="42.8809164" lon="12.5869705"><ele>292.0</ele><time>2026-04-12T12:29:51.85Z</time></trkpt><trkpt lat="42.8808968" lon="12.5871957"><ele>292.0</ele><time>2026-04-12T12:29:52.848Z</time></trkpt><trkpt lat="42.8808796" lon="12.5874062"><ele>292.75</ele><time>2026-04-12T12:29:53.859Z</time></trkpt><trkpt lat="42.8808696" lon="12.5875943"><ele>293.5</ele><time>2026-04-12T12:29:54.859Z</time></trkpt><trkpt lat="42.8808773" lon="12.587763"><ele>294.25</ele><time>2026-04-12T12:29:55.849Z</time></trkpt><trkpt lat="42.8809117" lon="12.5879227"><ele>295.0</ele><time>2026-04-12T12:29:56.856Z</time></trkpt><trkpt lat="42.8809756" lon="12.5880655"><ele>297.25</ele><time>2026-04-12T12:29:57.854Z</time></trkpt><trkpt lat="42.8810696" lon="12.5881752"><ele>299.5</ele><time>2026-04-12T12:29:58.854Z</time></trkpt><trkpt lat="42.881182" lon="12.588252"><ele>301.75</ele><time>2026-04-12T12:29:59.85Z</time></trkpt><trkpt lat="42.8813005" lon="12.5883078"><ele>304.0</ele><time>2026-04-12T12:30:00.851Z</time></trkpt><trkpt lat="42.8814144" lon="12.5883477"><ele>304.0</ele><time>2026-04-12T12:30:01.847Z</time></trkpt><trkpt lat="42.8815219" lon="12.5883831"><ele>304.0</ele><time>2026-04-12T12:30:02.851Z</time></trkpt><trkpt lat="42.8816153" lon="12.5884121"><ele>304.0</ele><time>2026-04-12T12:30:03.853Z</time></trkpt><trkpt lat="42.8817055" lon="12.5884438"><ele>304.0</ele><time>2026-04-12T12:30:04.85Z</time></trkpt><trkpt lat="42.8817949" lon="12.588473"><ele>304.0</ele><time>2026-04-12T12:30:05.848Z</time></trkpt><trkpt lat="42.8818811" lon="12.5885044"><ele>304.66666666666663</ele><time>2026-04-12T12:30:06.843Z</time></trkpt><trkpt lat="42.8819616" lon="12.588536"><ele>305.3333333333333</ele><time>2026-04-12T12:30:07.853Z</time></trkpt><trkpt lat="42.8820347" lon="12.5885674"><ele>306.0</ele><time>2026-04-12T12:30:08.85Z</time></trkpt><trkpt lat="42.8820988" lon="12.5886062"><ele>306.6666666666667</ele><time>2026-04-12T12:30:09.851Z</time></trkpt><trkpt lat="42.8821595" lon="12.5886521"><ele>307.33333333333337</ele><time>2026-04-12T12:30:10.865Z</time></trkpt><trkpt lat="42.8822224" lon="12.5887072"><ele>308.0</ele><time>2026-04-12T12:30:11.849Z</time></trkpt><trkpt lat="42.8822885" lon="12.5887818"><ele>308.0</ele><time>2026-04-12T12:30:12.854Z</time></trkpt><trkpt lat="42.8823524" lon="12.5888702"><ele>308.0</ele><time>2026-04-12T12:30:13.851Z</time></trkpt><trkpt lat="42.8824204" lon="12.5889849"><ele>308.0</ele><time>2026-04-12T12:30:14.87Z</time></trkpt><trkpt lat="42.8824755" lon="12.5891049"><ele>308.0</ele><time>2026-04-12T12:30:15.85Z</time></trkpt><trkpt lat="42.8825156" lon="12.589241"><ele>308.0</ele><time>2026-04-12T12:30:16.852Z</time></trkpt><trkpt lat="42.8825453" lon="12.5893794"><ele>307.25</ele><time>2026-04-12T12:30:17.852Z</time></trkpt><trkpt lat="42.8825659" lon="12.58954"><ele>306.5</ele><time>2026-04-12T12:30:18.847Z</time></trkpt><trkpt lat="42.8825703" lon="12.5897108"><ele>305.75</ele><time>2026-04-12T12:30:19.85Z</time></trkpt><trkpt lat="42.8825672" lon="12.589894"><ele>305.0</ele><time>2026-04-12T12:30:20.85Z</time></trkpt><trkpt lat="42.8825572" lon="12.5900907"><ele>305.0</ele><time>2026-04-12T12:30:21.856Z</time></trkpt><trkpt lat="42.8825443" lon="12.5903024"><ele>305.0</ele><time>2026-04-12T12:30:22.859Z</time></trkpt><trkpt lat="42.8825343" lon="12.5905283"><ele>305.0</ele><time>2026-04-12T12:30:23.848Z</time></trkpt><trkpt lat="42.8825225" lon="12.5907678"><ele>303.6666666666667</ele><time>2026-04-12T12:30:24.851Z</time></trkpt><trkpt lat="42.8825042" lon="12.5910183"><ele>302.3333333333333</ele><time>2026-04-12T12:30:25.857Z</time></trkpt><trkpt lat="42.8824867" lon="12.5912785"><ele>301.0</ele><time>2026-04-12T12:30:26.855Z</time></trkpt><trkpt lat="42.8824629" lon="12.5915441"><ele>299.66666666666663</ele><time>2026-04-12T12:30:27.846Z</time></trkpt><trkpt lat="42.8824371" lon="12.5918067"><ele>298.3333333333333</ele><time>2026-04-12T12:30:28.86Z</time></trkpt><trkpt lat="42.8824116" lon="12.5920685"><ele>297.0</ele><time>2026-04-12T12:30:29.849Z</time></trkpt><trkpt lat="42.8823825" lon="12.5923317"><ele>296.0</ele><time>2026-04-12T12:30:30.852Z</time></trkpt><trkpt lat="42.8823578" lon="12.5925947"><ele>295.0</ele><time>2026-04-12T12:30:31.866Z</time></trkpt><trkpt lat="42.8823361" lon="12.5928585"><ele>294.0</ele><time>2026-04-12T12:30:32.859Z</time></trkpt><trkpt lat="42.882317" lon="12.5931119"><ele>294.0</ele><time>2026-04-12T12:30:33.86Z</time></trkpt><trkpt lat="42.8822989" lon="12.5933578"><ele>294.0</ele><time>2026-04-12T12:30:34.854Z</time></trkpt><trkpt lat="42.8822809" lon="12.5935878"><ele>294.0</ele><time>2026-04-12T12:30:35.845Z</time></trkpt><trkpt lat="42.8822701" lon="12.5938042"><ele>293.5</ele><time>2026-04-12T12:30:36.857Z</time></trkpt><trkpt lat="42.882268" lon="12.5940096"><ele>293.0</ele><time>2026-04-12T12:30:37.852Z</time></trkpt><trkpt lat="42.8823035" lon="12.5941931"><ele>292.5</ele><time>2026-04-12T12:30:38.855Z</time></trkpt><trkpt lat="42.8823705" lon="12.5943398"><ele>292.0</ele><time>2026-04-12T12:30:39.856Z</time></trkpt><trkpt lat="42.8824812" lon="12.5944614"><ele>292.75</ele><time>2026-04-12T12:30:40.856Z</time></trkpt><trkpt lat="42.8826044" lon="12.5945685"><ele>293.5</ele><time>2026-04-12T12:30:41.852Z</time></trkpt><trkpt lat="42.8827241" lon="12.5946652"><ele>294.25</ele><time>2026-04-12T12:30:42.848Z</time></trkpt><trkpt lat="42.8828513" lon="12.5947191"><ele>295.0</ele><time>2026-04-12T12:30:43.84Z</time></trkpt><trkpt lat="42.8829789" lon="12.5947142"><ele>295.0</ele><time>2026-04-12T12:30:44.858Z</time></trkpt><trkpt lat="42.8830909" lon="12.5946522"><ele>295.0</ele><time>2026-04-12T12:30:45.85Z</time></trkpt><trkpt lat="42.8831997" lon="12.5945407"><ele>295.0</ele><time>2026-04-12T12:30:46.845Z</time></trkpt><trkpt lat="42.8833" lon="12.594389"><ele>295.0</ele><time>2026-04-12T12:30:47.844Z</time></trkpt><trkpt lat="42.8834031" lon="12.5942407"><ele>295.0</ele><time>2026-04-12T12:30:48.844Z</time></trkpt><trkpt lat="42.883504" lon="12.5940813"><ele>295.0</ele><time>2026-04-12T12:30:49.861Z</time></trkpt><trkpt lat="42.8836162" lon="12.5939177"><ele>295.0</ele><time>2026-04-12T12:30:50.849Z</time></trkpt><trkpt lat="42.883728" lon="12.5937654"><ele>293.66666666666663</ele><time>2026-04-12T12:30:51.845Z</time></trkpt><trkpt lat="42.8838437" lon="12.5936313"><ele>292.3333333333333</ele><time>2026-04-12T12:30:52.849Z</time></trkpt><trkpt lat="42.8839799" lon="12.5935287"><ele>291.0</ele><time>2026-04-12T12:30:53.845Z</time></trkpt><trkpt lat="42.8841374" lon="12.5934914"><ele>290.3333333333333</ele><time>2026-04-12T12:30:54.848Z</time></trkpt><trkpt lat="42.8842974" lon="12.5935001"><ele>289.66666666666663</ele><time>2026-04-12T12:30:55.862Z</time></trkpt><trkpt lat="42.8844609" lon="12.5935569"><ele>289.0</ele><time>2026-04-12T12:30:56.853Z</time></trkpt><trkpt lat="42.8846145" lon="12.5936428"><ele>291.0</ele><time>2026-04-12T12:30:57.844Z</time></trkpt><trkpt lat="42.8847627" lon="12.5937519"><ele>293.0</ele><time>2026-04-12T12:30:58.85Z</time></trkpt><trkpt lat="42.8849083" lon="12.5938699"><ele>295.0</ele><time>2026-04-12T12:30:59.854Z</time></trkpt><trkpt lat="42.8850568" lon="12.5940026"><ele>295.0</ele><time>2026-04-12T12:31:00.843Z</time></trkpt><trkpt lat="42.8852049" lon="12.5941454"><ele>295.0</ele><time>2026-04-12T12:31:01.844Z</time></trkpt><trkpt lat="42.8853499" lon="12.5942936"><ele>295.0</ele><time>2026-04-12T12:31:02.865Z</time></trkpt><trkpt lat="42.885495" lon="12.5944477"><ele>295.66666666666663</ele><time>2026-04-12T12:31:03.85Z</time></trkpt><trkpt lat="42.8856388" lon="12.5946109"><ele>296.3333333333333</ele><time>2026-04-12T12:31:04.845Z</time></trkpt><trkpt lat="42.8857707" lon="12.5947851"><ele>297.0</ele><time>2026-04-12T12:31:05.846Z</time></trkpt><trkpt lat="42.8858884" lon="12.5949796"><ele>297.0</ele><time>2026-04-12T12:31:06.85Z</time></trkpt><trkpt lat="42.885988" lon="12.5951976"><ele>297.0</ele><time>2026-04-12T12:31:07.851Z</time></trkpt><trkpt lat="42.8860707" lon="12.5954302"><ele>297.0</ele><time>2026-04-12T12:31:08.864Z</time></trkpt><trkpt lat="42.8861504" lon="12.5956701"><ele>297.0</ele><time>2026-04-12T12:31:09.856Z</time></trkpt><trkpt lat="42.8862309" lon="12.5959066"><ele>297.0</ele><time>2026-04-12T12:31:10.847Z</time></trkpt><trkpt lat="42.8863113" lon="12.5961376"><ele>297.0</ele><time>2026-04-12T12:31:11.848Z</time></trkpt><trkpt lat="42.8863899" lon="12.596365"><ele>297.3333333333333</ele><time>2026-04-12T12:31:12.852Z</time></trkpt><trkpt lat="42.8864703" lon="12.5965849"><ele>297.66666666666663</ele><time>2026-04-12T12:31:13.844Z</time></trkpt><trkpt lat="42.8865492" lon="12.5968023"><ele>298.0</ele><time>2026-04-12T12:31:14.85Z</time></trkpt><trkpt lat="42.8866203" lon="12.5970148"><ele>299.0</ele><time>2026-04-12T12:31:15.844Z</time></trkpt><trkpt lat="42.886692" lon="12.5972099"><ele>300.0</ele><time>2026-04-12T12:31:16.864Z</time></trkpt><trkpt lat="42.8867628" lon="12.5973848"><ele>301.0</ele><time>2026-04-12T12:31:17.849Z</time></trkpt><trkpt lat="42.8868535" lon="12.5975393"><ele>301.0</ele><time>2026-04-12T12:31:18.855Z</time></trkpt><trkpt lat="42.886968" lon="12.5976544"><ele>301.0</ele><time>2026-04-12T12:31:19.847Z</time></trkpt><trkpt lat="42.8870942" lon="12.597753"><ele>301.0</ele><time>2026-04-12T12:31:20.848Z</time></trkpt><trkpt lat="42.8872293" lon="12.5978251"><ele>301.0</ele><time>2026-04-12T12:31:21.848Z</time></trkpt><trkpt lat="42.8873651" lon="12.5978296"><ele>301.0</ele><time>2026-04-12T12:31:22.849Z</time></trkpt><trkpt lat="42.8874825" lon="12.5977758"><ele>301.0</ele><time>2026-04-12T12:31:23.848Z</time></trkpt><trkpt lat="42.8875812" lon="12.5976684"><ele>301.0</ele><time>2026-04-12T12:31:24.861Z</time></trkpt><trkpt lat="42.8876305" lon="12.5975329"><ele>301.0</ele><time>2026-04-12T12:31:25.844Z</time></trkpt><trkpt lat="42.8876563" lon="12.5973679"><ele>304.25</ele><time>2026-04-12T12:31:26.845Z</time></trkpt><trkpt lat="42.8876551" lon="12.5971911"><ele>307.5</ele><time>2026-04-12T12:31:27.843Z</time></trkpt><trkpt lat="42.8876463" lon="12.5969973"><ele>310.75</ele><time>2026-04-12T12:31:28.848Z</time></trkpt><trkpt lat="42.8876383" lon="12.5967904"><ele>314.0</ele><time>2026-04-12T12:31:29.845Z</time></trkpt><trkpt lat="42.8876288" lon="12.5965782"><ele>314.6666666666667</ele><time>2026-04-12T12:31:30.86Z</time></trkpt><trkpt lat="42.8876221" lon="12.5963509"><ele>315.3333333333333</ele><time>2026-04-12T12:31:31.858Z</time></trkpt><trkpt lat="42.8876159" lon="12.5961193"><ele>316.0</ele><time>2026-04-12T12:31:32.856Z</time></trkpt><trkpt lat="42.8876088" lon="12.5958885"><ele>316.66666666666663</ele><time>2026-04-12T12:31:33.849Z</time></trkpt><trkpt lat="42.8875982" lon="12.5956647"><ele>317.3333333333333</ele><time>2026-04-12T12:31:34.858Z</time></trkpt><trkpt lat="42.8875907" lon="12.595458"><ele>318.0</ele><time>2026-04-12T12:31:35.852Z</time></trkpt><trkpt lat="42.8875956" lon="12.5952608"><ele>318.0</ele><time>2026-04-12T12:31:36.853Z</time></trkpt><trkpt lat="42.8876221" lon="12.5950655"><ele>318.0</ele><time>2026-04-12T12:31:37.852Z</time></trkpt><trkpt lat="42.8876741" lon="12.5948859"><ele>318.0</ele><time>2026-04-12T12:31:38.854Z</time></trkpt><trkpt lat="42.8877604" lon="12.5947249"><ele>318.0</ele><time>2026-04-12T12:31:39.848Z</time></trkpt><trkpt lat="42.8878773" lon="12.5945948"><ele>316.0</ele><time>2026-04-12T12:31:40.86Z</time></trkpt><trkpt lat="42.888018" lon="12.5944913"><ele>314.0</ele><time>2026-04-12T12:31:41.849Z</time></trkpt><trkpt lat="42.8881703" lon="12.5944258"><ele>312.0</ele><time>2026-04-12T12:31:42.852Z</time></trkpt><trkpt lat="42.8883417" lon="12.5943676"><ele>313.3333333333333</ele><time>2026-04-12T12:31:43.85Z</time></trkpt><trkpt lat="42.888522" lon="12.5943305"><ele>314.66666666666663</ele><time>2026-04-12T12:31:44.849Z</time></trkpt><trkpt lat="42.8887089" lon="12.5943257"><ele>316.0</ele><time>2026-04-12T12:31:45.848Z</time></trkpt><trkpt lat="42.8888958" lon="12.5943455"><ele>316.0</ele><time>2026-04-12T12:31:46.849Z</time></trkpt><trkpt lat="42.8890879" lon="12.5943779"><ele>316.0</ele><time>2026-04-12T12:31:47.847Z</time></trkpt><trkpt lat="42.8892762" lon="12.5944372"><ele>316.0</ele><time>2026-04-12T12:31:48.858Z</time></trkpt><trkpt lat="42.8894649" lon="12.5945039"><ele>319.0</ele><time>2026-04-12T12:31:49.846Z</time></trkpt><trkpt lat="42.889652" lon="12.5945639"><ele>322.0</ele><time>2026-04-12T12:31:50.863Z</time></trkpt><trkpt lat="42.889842" lon="12.594629"><ele>325.0</ele><time>2026-04-12T12:31:51.847Z</time></trkpt><trkpt lat="42.8900305" lon="12.5946889"><ele>326.3333333333333</ele><time>2026-04-12T12:31:52.859Z</time></trkpt><trkpt lat="42.8902129" lon="12.5947505"><ele>327.6666666666667</ele><time>2026-04-12T12:31:53.845Z</time></trkpt><trkpt lat="42.8903854" lon="12.5948099"><ele>329.0</ele><time>2026-04-12T12:31:54.87Z</time></trkpt><trkpt lat="42.890545" lon="12.5948614"><ele>329.0</ele><time>2026-04-12T12:31:55.848Z</time></trkpt><trkpt lat="42.8906984" lon="12.5949198"><ele>329.0</ele><time>2026-04-12T12:31:56.842Z</time></trkpt><trkpt lat="42.8908471" lon="12.5949902"><ele>329.0</ele><time>2026-04-12T12:31:57.848Z</time></trkpt><trkpt lat="42.8909851" lon="12.5950997"><ele>328.33333333333337</ele><time>2026-04-12T12:31:58.849Z</time></trkpt><trkpt lat="42.8911101" lon="12.5952399"><ele>327.6666666666667</ele><time>2026-04-12T12:31:59.85Z</time></trkpt><trkpt lat="42.8912318" lon="12.5953925"><ele>327.0</ele><time>2026-04-12T12:32:00.858Z</time></trkpt><trkpt lat="42.8913537" lon="12.5955512"><ele>329.0</ele><time>2026-04-12T12:32:01.845Z</time></trkpt><trkpt lat="42.891482" lon="12.5957149"><ele>331.0</ele><time>2026-04-12T12:32:02.851Z</time></trkpt><trkpt lat="42.8916093" lon="12.5958789"><ele>333.0</ele><time>2026-04-12T12:32:03.846Z</time></trkpt><trkpt lat="42.8917379" lon="12.5960446"><ele>335.0</ele><time>2026-04-12T12:32:04.859Z</time></trkpt><trkpt lat="42.8918655" lon="12.5962158"><ele>337.0</ele><time>2026-04-12T12:32:05.848Z</time></trkpt><trkpt lat="42.891996" lon="12.5963826"><ele>339.0</ele><time>2026-04-12T12:32:06.848Z</time></trkpt><trkpt lat="42.8921267" lon="12.5965381"><ele>339.0</ele><time>2026-04-12T12:32:07.857Z</time></trkpt><trkpt lat="42.8922615" lon="12.59667"><ele>339.0</ele><time>2026-04-12T12:32:08.842Z</time></trkpt><trkpt lat="42.8924109" lon="12.5967634"><ele>339.0</ele><time>2026-04-12T12:32:09.844Z</time></trkpt><trkpt lat="42.892569" lon="12.596814"><ele>340.3333333333333</ele><time>2026-04-12T12:32:10.842Z</time></trkpt><trkpt lat="42.8927398" lon="12.5968414"><ele>341.66666666666663</ele><time>2026-04-12T12:32:11.85Z</time></trkpt><trkpt lat="42.8929158" lon="12.5968708"><ele>343.0</ele><time>2026-04-12T12:32:12.847Z</time></trkpt><trkpt lat="42.8930945" lon="12.5968939"><ele>343.0</ele><time>2026-04-12T12:32:13.867Z</time></trkpt><trkpt lat="42.8932728" lon="12.5969272"><ele>343.0</ele><time>2026-04-12T12:32:14.842Z</time></trkpt><trkpt lat="42.893444" lon="12.5969511"><ele>343.0</ele><time>2026-04-12T12:32:15.85Z</time></trkpt><trkpt lat="42.8936051" lon="12.5969753"><ele>344.0</ele><time>2026-04-12T12:32:16.849Z</time></trkpt><trkpt lat="42.8937565" lon="12.5969985"><ele>345.0</ele><time>2026-04-12T12:32:17.843Z</time></trkpt><trkpt lat="42.8939076" lon="12.5970325"><ele>346.0</ele><time>2026-04-12T12:32:18.852Z</time></trkpt><trkpt lat="42.8940516" lon="12.5970847"><ele>346.75</ele><time>2026-04-12T12:32:19.85Z</time></trkpt><trkpt lat="42.8941808" lon="12.5971815"><ele>347.5</ele><time>2026-04-12T12:32:20.858Z</time></trkpt><trkpt lat="42.8942786" lon="12.5973195"><ele>348.25</ele><time>2026-04-12T12:32:21.857Z</time></trkpt><trkpt lat="42.8943486" lon="12.5974971"><ele>349.0</ele><time>2026-04-12T12:32:22.846Z</time></trkpt><trkpt lat="42.8943725" lon="12.5976902"><ele>350.0</ele><time>2026-04-12T12:32:23.85Z</time></trkpt><trkpt lat="42.8943787" lon="12.5979021"><ele>351.0</ele><time>2026-04-12T12:32:24.844Z</time></trkpt><trkpt lat="42.8943882" lon="12.5981327"><ele>352.0</ele><time>2026-04-12T12:32:25.848Z</time></trkpt><trkpt lat="42.8943997" lon="12.5983696"><ele>352.0</ele><time>2026-04-12T12:32:26.848Z</time></trkpt><trkpt lat="42.8944154" lon="12.59862"><ele>352.0</ele><time>2026-04-12T12:32:27.85Z</time></trkpt><trkpt lat="42.8944271" lon="12.5988823"><ele>352.0</ele><time>2026-04-12T12:32:28.844Z</time></trkpt><trkpt lat="42.8944237" lon="12.5991438"><ele>352.3333333333333</ele><time>2026-04-12T12:32:29.843Z</time></trkpt><trkpt lat="42.8943846" lon="12.5993923"><ele>352.6666666666667</ele><time>2026-04-12T12:32:30.857Z</time></trkpt><trkpt lat="42.8943249" lon="12.5996411"><ele>353.0</ele><time>2026-04-12T12:32:31.856Z</time></trkpt><trkpt lat="42.8942534" lon="12.5998952"><ele>356.6666666666667</ele><time>2026-04-12T12:32:32.846Z</time></trkpt><trkpt lat="42.894183" lon="12.6001576"><ele>360.3333333333333</ele><time>2026-04-12T12:32:33.85Z</time></trkpt><trkpt lat="42.8941236" lon="12.6004136"><ele>364.0</ele><time>2026-04-12T12:32:34.844Z</time></trkpt><trkpt lat="42.8940762" lon="12.600673"><ele>365.0</ele><time>2026-04-12T12:32:35.86Z</time></trkpt><trkpt lat="42.8940433" lon="12.6009435"><ele>366.0</ele><time>2026-04-12T12:32:36.848Z</time></trkpt><trkpt lat="42.8940324" lon="12.6012091"><ele>367.0</ele><time>2026-04-12T12:32:37.855Z</time></trkpt><trkpt lat="42.8940245" lon="12.6014723"><ele>367.66666666666663</ele><time>2026-04-12T12:32:38.863Z</time></trkpt><trkpt lat="42.8940169" lon="12.6017391"><ele>368.3333333333333</ele><time>2026-04-12T12:32:39.857Z</time></trkpt><trkpt lat="42.8940047" lon="12.6020057"><ele>369.0</ele><time>2026-04-12T12:32:40.856Z</time></trkpt><trkpt lat="42.8939947" lon="12.6022722"><ele>369.6666666666667</ele><time>2026-04-12T12:32:41.854Z</time></trkpt><trkpt lat="42.8939862" lon="12.6025377"><ele>370.33333333333337</ele><time>2026-04-12T12:32:42.837Z</time></trkpt><trkpt lat="42.8939797" lon="12.6027993"><ele>371.0</ele><time>2026-04-12T12:32:43.846Z</time></trkpt><trkpt lat="42.8939742" lon="12.6030567"><ele>372.33333333333337</ele><time>2026-04-12T12:32:44.853Z</time></trkpt><trkpt lat="42.8939703" lon="12.6032973"><ele>373.6666666666667</ele><time>2026-04-12T12:32:45.843Z</time></trkpt><trkpt lat="42.8939646" lon="12.6035214"><ele>375.0</ele><time>2026-04-12T12:32:46.855Z</time></trkpt><trkpt lat="42.8939573" lon="12.603736"><ele>375.3333333333333</ele><time>2026-04-12T12:32:47.845Z</time></trkpt><trkpt lat="42.8939475" lon="12.6039418"><ele>375.66666666666663</ele><time>2026-04-12T12:32:48.85Z</time></trkpt><trkpt lat="42.8939254" lon="12.6041478"><ele>376.0</ele><time>2026-04-12T12:32:49.845Z</time></trkpt><trkpt lat="42.8938895" lon="12.6043539"><ele>375.3333333333333</ele><time>2026-04-12T12:32:50.843Z</time></trkpt><trkpt lat="42.8938359" lon="12.6045534"><ele>374.6666666666667</ele><time>2026-04-12T12:32:51.842Z</time></trkpt><trkpt lat="42.8937718" lon="12.6047442"><ele>374.0</ele><time>2026-04-12T12:32:52.852Z</time></trkpt><trkpt lat="42.8937042" lon="12.6049273"><ele>374.0</ele><time>2026-04-12T12:32:53.856Z</time></trkpt><trkpt lat="42.8936381" lon="12.6051047"><ele>374.0</ele><time>2026-04-12T12:32:54.857Z</time></trkpt><trkpt lat="42.8935722" lon="12.6052902"><ele>374.0</ele><time>2026-04-12T12:32:55.857Z</time></trkpt><trkpt lat="42.8935222" lon="12.6054609"><ele>374.0</ele><time>2026-04-12T12:32:56.856Z</time></trkpt><trkpt lat="42.8934777" lon="12.6056472"><ele>375.5</ele><time>2026-04-12T12:32:57.868Z</time></trkpt><trkpt lat="42.8934534" lon="12.6058313"><ele>377.0</ele><time>2026-04-12T12:32:58.847Z</time></trkpt><trkpt lat="42.8934724" lon="12.6060154"><ele>378.5</ele><time>2026-04-12T12:32:59.841Z</time></trkpt><trkpt lat="42.8935211" lon="12.6062084"><ele>380.0</ele><time>2026-04-12T12:33:00.858Z</time></trkpt><trkpt lat="42.893593" lon="12.6063971"><ele>382.0</ele><time>2026-04-12T12:33:01.853Z</time></trkpt><trkpt lat="42.8936717" lon="12.6065741"><ele>384.0</ele><time>2026-04-12T12:33:02.846Z</time></trkpt><trkpt lat="42.8937493" lon="12.606755"><ele>386.0</ele><time>2026-04-12T12:33:03.848Z</time></trkpt><trkpt lat="42.8938311" lon="12.6069323"><ele>388.0</ele><time>2026-04-12T12:33:04.848Z</time></trkpt><trkpt lat="42.8939204" lon="12.6071075"><ele>390.0</ele><time>2026-04-12T12:33:05.858Z</time></trkpt><trkpt lat="42.8940184" lon="12.6072865"><ele>392.0</ele><time>2026-04-12T12:33:06.846Z</time></trkpt><trkpt lat="42.8941134" lon="12.6074649"><ele>392.0</ele><time>2026-04-12T12:33:07.853Z</time></trkpt><trkpt lat="42.8942155" lon="12.6076339"><ele>392.0</ele><time>2026-04-12T12:33:08.855Z</time></trkpt><trkpt lat="42.8943266" lon="12.6078011"><ele>392.0</ele><time>2026-04-12T12:33:09.848Z</time></trkpt><trkpt lat="42.8944394" lon="12.6079649"><ele>393.0</ele><time>2026-04-12T12:33:10.857Z</time></trkpt><trkpt lat="42.894562" lon="12.6081225"><ele>394.0</ele><time>2026-04-12T12:33:11.853Z</time></trkpt><trkpt lat="42.894692" lon="12.608272"><ele>395.0</ele><time>2026-04-12T12:33:12.854Z</time></trkpt><trkpt lat="42.8948286" lon="12.6084149"><ele>395.0</ele><time>2026-04-12T12:33:13.854Z</time></trkpt><trkpt lat="42.8949717" lon="12.6085481"><ele>395.0</ele><time>2026-04-12T12:33:14.855Z</time></trkpt><trkpt lat="42.8951192" lon="12.6086729"><ele>395.0</ele><time>2026-04-12T12:33:15.844Z</time></trkpt><trkpt lat="42.895264" lon="12.6087973"><ele>396.0</ele><time>2026-04-12T12:33:16.857Z</time></trkpt><trkpt lat="42.895407" lon="12.6089168"><ele>397.0</ele><time>2026-04-12T12:33:17.85Z</time></trkpt><trkpt lat="42.895546" lon="12.6090287"><ele>398.0</ele><time>2026-04-12T12:33:18.858Z</time></trkpt><trkpt lat="42.8956872" lon="12.6091346"><ele>398.0</ele><time>2026-04-12T12:33:19.843Z</time></trkpt><trkpt lat="42.8958348" lon="12.609228"><ele>398.0</ele><time>2026-04-12T12:33:20.848Z</time></trkpt><trkpt lat="42.895994" lon="12.6093097"><ele>398.0</ele><time>2026-04-12T12:33:21.854Z</time></trkpt><trkpt lat="42.8961553" lon="12.6093796"><ele>399.0</ele><time>2026-04-12T12:33:22.851Z</time></trkpt><trkpt lat="42.8963212" lon="12.60944"><ele>400.0</ele><time>2026-04-12T12:33:23.852Z</time></trkpt><trkpt lat="42.8964875" lon="12.609505"><ele>401.0</ele><time>2026-04-12T12:33:24.851Z</time></trkpt><trkpt lat="42.8966517" lon="12.6095721"><ele>398.3333333333333</ele><time>2026-04-12T12:33:25.849Z</time></trkpt><trkpt lat="42.8968159" lon="12.6096418"><ele>395.66666666666663</ele><time>2026-04-12T12:33:26.842Z</time></trkpt><trkpt lat="42.896977" lon="12.60972"><ele>393.0</ele><time>2026-04-12T12:33:27.85Z</time></trkpt><trkpt lat="42.8971372" lon="12.6097945"><ele>393.0</ele><time>2026-04-12T12:33:28.852Z</time></trkpt><trkpt lat="42.8972975" lon="12.6098477"><ele>393.0</ele><time>2026-04-12T12:33:29.85Z</time></trkpt><trkpt lat="42.89746" lon="12.6098676"><ele>393.0</ele><time>2026-04-12T12:33:30.849Z</time></trkpt><trkpt lat="42.8976127" lon="12.6098439"><ele>391.33333333333337</ele><time>2026-04-12T12:33:31.842Z</time></trkpt><trkpt lat="42.8977571" lon="12.6097752"><ele>389.6666666666667</ele><time>2026-04-12T12:33:32.843Z</time></trkpt><trkpt lat="42.8978953" lon="12.6096693"><ele>388.0</ele><time>2026-04-12T12:33:33.844Z</time></trkpt><trkpt lat="42.8980378" lon="12.6095445"><ele>388.0</ele><time>2026-04-12T12:33:34.854Z</time></trkpt><trkpt lat="42.8981831" lon="12.6094198"><ele>388.0</ele><time>2026-04-12T12:33:35.855Z</time></trkpt><trkpt lat="42.8983322" lon="12.6092999"><ele>388.0</ele><time>2026-04-12T12:33:36.851Z</time></trkpt><trkpt lat="42.8984878" lon="12.6091699"><ele>386.6666666666667</ele><time>2026-04-12T12:33:37.85Z</time></trkpt><trkpt lat="42.8986459" lon="12.6090414"><ele>385.33333333333337</ele><time>2026-04-12T12:33:38.854Z</time></trkpt><trkpt lat="42.8988074" lon="12.6089087"><ele>384.0</ele><time>2026-04-12T12:33:39.855Z</time></trkpt><trkpt lat="42.8989697" lon="12.6087685"><ele>383.6666666666667</ele><time>2026-04-12T12:33:40.86Z</time></trkpt><trkpt lat="42.8991294" lon="12.6086272"><ele>383.33333333333337</ele><time>2026-04-12T12:33:41.847Z</time></trkpt><trkpt lat="42.8992937" lon="12.608484"><ele>383.0</ele><time>2026-04-12T12:33:42.861Z</time></trkpt><trkpt lat="42.8994647" lon="12.6083364"><ele>384.0</ele><time>2026-04-12T12:33:43.85Z</time></trkpt><trkpt lat="42.8996342" lon="12.608188"><ele>385.0</ele><time>2026-04-12T12:33:44.848Z</time></trkpt><trkpt lat="42.8998019" lon="12.6080413"><ele>386.0</ele><time>2026-04-12T12:33:45.875Z</time></trkpt><trkpt lat="42.8999705" lon="12.6078958"><ele>383.66666666666663</ele><time>2026-04-12T12:33:46.855Z</time></trkpt><trkpt lat="42.9001374" lon="12.6077502"><ele>381.3333333333333</ele><time>2026-04-12T12:33:47.846Z</time></trkpt><trkpt lat="42.9002994" lon="12.6076112"><ele>379.0</ele><time>2026-04-12T12:33:48.857Z</time></trkpt><trkpt lat="42.9004574" lon="12.6074725"><ele>379.0</ele><time>2026-04-12T12:33:49.849Z</time></trkpt><trkpt lat="42.9006084" lon="12.6073397"><ele>379.0</ele><time>2026-04-12T12:33:50.856Z</time></trkpt><trkpt lat="42.9007551" lon="12.6072178"><ele>379.0</ele><time>2026-04-12T12:33:51.849Z</time></trkpt><trkpt lat="42.9009062" lon="12.6070976"><ele>377.66666666666663</ele><time>2026-04-12T12:33:52.84Z</time></trkpt><trkpt lat="42.9010714" lon="12.6070056"><ele>376.3333333333333</ele><time>2026-04-12T12:33:53.859Z</time></trkpt><trkpt lat="42.9012467" lon="12.6069486"><ele>375.0</ele><time>2026-04-12T12:33:54.85Z</time></trkpt><trkpt lat="42.9014327" lon="12.606912"><ele>375.0</ele><time>2026-04-12T12:33:55.843Z</time></trkpt><trkpt lat="42.901606" lon="12.6068891"><ele>375.0</ele><time>2026-04-12T12:33:56.848Z</time></trkpt><trkpt lat="42.9017898" lon="12.6068706"><ele>375.0</ele><time>2026-04-12T12:33:57.855Z</time></trkpt><trkpt lat="42.9019725" lon="12.6068491"><ele>374.0</ele><time>2026-04-12T12:33:58.851Z</time></trkpt><trkpt lat="42.9021596" lon="12.6068269"><ele>373.0</ele><time>2026-04-12T12:33:59.857Z</time></trkpt><trkpt lat="42.9023456" lon="12.606801"><ele>372.0</ele><time>2026-04-12T12:34:00.86Z</time></trkpt><trkpt lat="42.902533" lon="12.6067716"><ele>370.0</ele><time>2026-04-12T12:34:01.849Z</time></trkpt><trkpt lat="42.90272" lon="12.6067402"><ele>368.0</ele><time>2026-04-12T12:34:02.842Z</time></trkpt><trkpt lat="42.9029041" lon="12.6067107"><ele>366.0</ele><time>2026-04-12T12:34:03.851Z</time></trkpt><trkpt lat="42.9030862" lon="12.6066867"><ele>366.0</ele><time>2026-04-12T12:34:04.845Z</time></trkpt><trkpt lat="42.9032678" lon="12.6066769"><ele>366.0</ele><time>2026-04-12T12:34:05.849Z</time></trkpt><trkpt lat="42.9034471" lon="12.6067044"><ele>366.0</ele><time>2026-04-12T12:34:06.849Z</time></trkpt><trkpt lat="42.9036102" lon="12.6067736"><ele>365.3333333333333</ele><time>2026-04-12T12:34:07.847Z</time></trkpt><trkpt lat="42.9037695" lon="12.6068822"><ele>364.66666666666663</ele><time>2026-04-12T12:34:08.865Z</time></trkpt><trkpt lat="42.9039228" lon="12.6070128"><ele>364.0</ele><time>2026-04-12T12:34:09.859Z</time></trkpt><trkpt lat="42.9040653" lon="12.6071481"><ele>364.0</ele><time>2026-04-12T12:34:10.877Z</time></trkpt><trkpt lat="42.9042167" lon="12.607288"><ele>364.0</ele><time>2026-04-12T12:34:11.866Z</time></trkpt><trkpt lat="42.9043623" lon="12.6074283"><ele>364.0</ele><time>2026-04-12T12:34:12.848Z</time></trkpt><trkpt lat="42.9045035" lon="12.6075656"><ele>365.0</ele><time>2026-04-12T12:34:13.851Z</time></trkpt><trkpt lat="42.9046392" lon="12.6076982"><ele>366.0</ele><time>2026-04-12T12:34:14.851Z</time></trkpt><trkpt lat="42.9047773" lon="12.6078224"><ele>367.0</ele><time>2026-04-12T12:34:15.846Z</time></trkpt><trkpt lat="42.904916" lon="12.6079106"><ele>363.3333333333333</ele><time>2026-04-12T12:34:16.845Z</time></trkpt><trkpt lat="42.9050669" lon="12.6079609"><ele>359.6666666666667</ele><time>2026-04-12T12:34:17.876Z</time></trkpt><trkpt lat="42.9052313" lon="12.6079523"><ele>356.0</ele><time>2026-04-12T12:34:18.843Z</time></trkpt><trkpt lat="42.9053892" lon="12.607904"><ele>358.33333333333337</ele><time>2026-04-12T12:34:19.867Z</time></trkpt><trkpt lat="42.905545" lon="12.6078172"><ele>360.6666666666667</ele><time>2026-04-12T12:34:20.85Z</time></trkpt><trkpt lat="42.9056986" lon="12.6077042"><ele>363.0</ele><time>2026-04-12T12:34:21.869Z</time></trkpt><trkpt lat="42.9058412" lon="12.6075749"><ele>359.0</ele><time>2026-04-12T12:34:22.849Z</time></trkpt><trkpt lat="42.9059852" lon="12.6074344"><ele>355.0</ele><time>2026-04-12T12:34:23.848Z</time></trkpt><trkpt lat="42.9061327" lon="12.6072942"><ele>351.0</ele><time>2026-04-12T12:34:24.855Z</time></trkpt><trkpt lat="42.9062857" lon="12.6071607"><ele>351.0</ele><time>2026-04-12T12:34:25.845Z</time></trkpt><trkpt lat="42.9064419" lon="12.6070393"><ele>351.0</ele><time>2026-04-12T12:34:26.847Z</time></trkpt><trkpt lat="42.9066081" lon="12.6069383"><ele>351.0</ele><time>2026-04-12T12:34:27.851Z</time></trkpt><trkpt lat="42.9067802" lon="12.606869"><ele>352.0</ele><time>2026-04-12T12:34:28.843Z</time></trkpt><trkpt lat="42.9069577" lon="12.6068189"><ele>353.0</ele><time>2026-04-12T12:34:29.848Z</time></trkpt><trkpt lat="42.907131" lon="12.6067995"><ele>354.0</ele><time>2026-04-12T12:34:30.845Z</time></trkpt><trkpt lat="42.9073071" lon="12.6067968"><ele>354.0</ele><time>2026-04-12T12:34:31.86Z</time></trkpt><trkpt lat="42.9074704" lon="12.6068032"><ele>354.0</ele><time>2026-04-12T12:34:32.855Z</time></trkpt><trkpt lat="42.9076271" lon="12.6068136"><ele>354.0</ele><time>2026-04-12T12:34:33.852Z</time></trkpt><trkpt lat="42.9077722" lon="12.6068408"><ele>354.0</ele><time>2026-04-12T12:34:34.843Z</time></trkpt><trkpt lat="42.9079066" lon="12.6069021"><ele>354.0</ele><time>2026-04-12T12:34:35.864Z</time></trkpt><trkpt lat="42.9080164" lon="12.607007"><ele>354.0</ele><time>2026-04-12T12:34:36.858Z</time></trkpt><trkpt lat="42.9081082" lon="12.607142"><ele>354.0</ele><time>2026-04-12T12:34:37.85Z</time></trkpt><trkpt lat="42.9081722" lon="12.6073191"><ele>355.0</ele><time>2026-04-12T12:34:38.851Z</time></trkpt><trkpt lat="42.9082014" lon="12.6075135"><ele>356.0</ele><time>2026-04-12T12:34:39.854Z</time></trkpt><trkpt lat="42.9082013" lon="12.6077217"><ele>357.0</ele><time>2026-04-12T12:34:40.853Z</time></trkpt><trkpt lat="42.908163" lon="12.6079304"><ele>357.0</ele><time>2026-04-12T12:34:41.855Z</time></trkpt><trkpt lat="42.9080968" lon="12.6081263"><ele>357.0</ele><time>2026-04-12T12:34:42.859Z</time></trkpt><trkpt lat="42.9080175" lon="12.6083221"><ele>357.0</ele><time>2026-04-12T12:34:43.856Z</time></trkpt><trkpt lat="42.9079396" lon="12.6085193"><ele>356.0</ele><time>2026-04-12T12:34:44.854Z</time></trkpt><trkpt lat="42.9078542" lon="12.6087228"><ele>355.0</ele><time>2026-04-12T12:34:45.857Z</time></trkpt><trkpt lat="42.907773" lon="12.6089178"><ele>354.0</ele><time>2026-04-12T12:34:46.854Z</time></trkpt><trkpt lat="42.9076915" lon="12.6091119"><ele>354.0</ele><time>2026-04-12T12:34:47.863Z</time></trkpt><trkpt lat="42.9076099" lon="12.6093046"><ele>354.0</ele><time>2026-04-12T12:34:48.841Z</time></trkpt><trkpt lat="42.9075186" lon="12.6094854"><ele>354.0</ele><time>2026-04-12T12:34:49.848Z</time></trkpt><trkpt lat="42.9074115" lon="12.6096494"><ele>351.6666666666667</ele><time>2026-04-12T12:34:50.843Z</time></trkpt><trkpt lat="42.9072772" lon="12.6097781"><ele>349.33333333333337</ele><time>2026-04-12T12:34:51.858Z</time></trkpt><trkpt lat="42.9071211" lon="12.6098806"><ele>347.0</ele><time>2026-04-12T12:34:52.843Z</time></trkpt><trkpt lat="42.9069743" lon="12.6099643"><ele>347.0</ele><time>2026-04-12T12:34:53.849Z</time></trkpt><trkpt lat="42.9068394" lon="12.6100484"><ele>347.0</ele><time>2026-04-12T12:34:54.858Z</time></trkpt><trkpt lat="42.90671" lon="12.6101382"><ele>347.0</ele><time>2026-04-12T12:34:55.858Z</time></trkpt><trkpt lat="42.9066026" lon="12.6102551"><ele>347.0</ele><time>2026-04-12T12:34:56.853Z</time></trkpt><trkpt lat="42.9065423" lon="12.6103743"><ele>345.5</ele><time>2026-04-12T12:34:57.851Z</time></trkpt><trkpt lat="42.9065224" lon="12.6105131"><ele>344.0</ele><time>2026-04-12T12:34:58.851Z</time></trkpt><trkpt lat="42.9065681" lon="12.6106463"><ele>342.5</ele><time>2026-04-12T12:34:59.85Z</time></trkpt><trkpt lat="42.9066548" lon="12.6107587"><ele>341.0</ele><time>2026-04-12T12:35:00.85Z</time></trkpt><trkpt lat="42.9067697" lon="12.6108203"><ele>340.0</ele><time>2026-04-12T12:35:01.861Z</time></trkpt><trkpt lat="42.9068852" lon="12.610834"><ele>339.0</ele><time>2026-04-12T12:35:02.854Z</time></trkpt><trkpt lat="42.9070219" lon="12.6108016"><ele>338.0</ele><time>2026-04-12T12:35:03.848Z</time></trkpt><trkpt lat="42.9071664" lon="12.6107406"><ele>337.0</ele><time>2026-04-12T12:35:04.861Z</time></trkpt><trkpt lat="42.9073146" lon="12.6106737"><ele>337.0</ele><time>2026-04-12T12:35:05.847Z</time></trkpt><trkpt lat="42.9074667" lon="12.6106123"><ele>337.0</ele><time>2026-04-12T12:35:06.844Z</time></trkpt><trkpt lat="42.9076208" lon="12.6105491"><ele>337.0</ele><time>2026-04-12T12:35:07.85Z</time></trkpt><trkpt lat="42.9077803" lon="12.6104893"><ele>334.0</ele><time>2026-04-12T12:35:08.85Z</time></trkpt><trkpt lat="42.9079388" lon="12.6104355"><ele>331.0</ele><time>2026-04-12T12:35:09.843Z</time></trkpt><trkpt lat="42.9081079" lon="12.6103888"><ele>328.0</ele><time>2026-04-12T12:35:10.854Z</time></trkpt><trkpt lat="42.9082801" lon="12.6103519"><ele>329.0</ele><time>2026-04-12T12:35:11.856Z</time></trkpt><trkpt lat="42.9084472" lon="12.6103157"><ele>330.0</ele><time>2026-04-12T12:35:12.852Z</time></trkpt><trkpt lat="42.9086115" lon="12.6102665"><ele>331.0</ele><time>2026-04-12T12:35:13.847Z</time></trkpt><trkpt lat="42.9087682" lon="12.6101982"><ele>331.0</ele><time>2026-04-12T12:35:14.85Z</time></trkpt><trkpt lat="42.9089212" lon="12.6101096"><ele>331.0</ele><time>2026-04-12T12:35:15.851Z</time></trkpt><trkpt lat="42.9090763" lon="12.6100151"><ele>331.0</ele><time>2026-04-12T12:35:16.844Z</time></trkpt><trkpt lat="42.9092358" lon="12.6099246"><ele>327.66666666666663</ele><time>2026-04-12T12:35:17.852Z</time></trkpt><trkpt lat="42.9093984" lon="12.6098467"><ele>324.3333333333333</ele><time>2026-04-12T12:35:18.857Z</time></trkpt><trkpt lat="42.9095664" lon="12.6097874"><ele>321.0</ele><time>2026-04-12T12:35:19.848Z</time></trkpt><trkpt lat="42.9097381" lon="12.6097392"><ele>321.0</ele><time>2026-04-12T12:35:20.849Z</time></trkpt><trkpt lat="42.9099138" lon="12.6096865"><ele>321.0</ele><time>2026-04-12T12:35:21.853Z</time></trkpt><trkpt lat="42.910082" lon="12.6096331"><ele>321.0</ele><time>2026-04-12T12:35:22.856Z</time></trkpt><trkpt lat="42.9102387" lon="12.6095688"><ele>322.0</ele><time>2026-04-12T12:35:23.847Z</time></trkpt><trkpt lat="42.9103881" lon="12.6094974"><ele>323.0</ele><time>2026-04-12T12:35:24.856Z</time></trkpt><trkpt lat="42.9105383" lon="12.609399"><ele>324.0</ele><time>2026-04-12T12:35:25.851Z</time></trkpt><trkpt lat="42.9106924" lon="12.6092869"><ele>324.0</ele><time>2026-04-12T12:35:26.86Z</time></trkpt><trkpt lat="42.9108435" lon="12.6091652"><ele>324.0</ele><time>2026-04-12T12:35:27.852Z</time></trkpt><trkpt lat="42.9109919" lon="12.6090678"><ele>324.0</ele><time>2026-04-12T12:35:28.85Z</time></trkpt><trkpt lat="42.9111431" lon="12.6090051"><ele>322.3333333333333</ele><time>2026-04-12T12:35:29.851Z</time></trkpt><trkpt lat="42.9113015" lon="12.6089888"><ele>320.66666666666663</ele><time>2026-04-12T12:35:30.846Z</time></trkpt><trkpt lat="42.9114613" lon="12.6090392"><ele>319.0</ele><time>2026-04-12T12:35:31.855Z</time></trkpt><trkpt lat="42.91161" lon="12.6091163"><ele>317.0</ele><time>2026-04-12T12:35:32.856Z</time></trkpt><trkpt lat="42.9117564" lon="12.6091914"><ele>315.0</ele><time>2026-04-12T12:35:33.858Z</time></trkpt><trkpt lat="42.9119093" lon="12.6092279"><ele>313.0</ele><time>2026-04-12T12:35:34.849Z</time></trkpt><trkpt lat="42.9120714" lon="12.6092242"><ele>313.0</ele><time>2026-04-12T12:35:35.843Z</time></trkpt><trkpt lat="42.9122258" lon="12.6091601"><ele>313.0</ele><time>2026-04-12T12:35:36.85Z</time></trkpt><trkpt lat="42.912368" lon="12.6090647"><ele>313.0</ele><time>2026-04-12T12:35:37.858Z</time></trkpt><trkpt lat="42.9124947" lon="12.608958"><ele>311.0</ele><time>2026-04-12T12:35:38.851Z</time></trkpt><trkpt lat="42.912615" lon="12.6088613"><ele>309.0</ele><time>2026-04-12T12:35:39.857Z</time></trkpt><trkpt lat="42.9127339" lon="12.6087932"><ele>307.0</ele><time>2026-04-12T12:35:40.858Z</time></trkpt><trkpt lat="42.9128576" lon="12.6087833"><ele>305.0</ele><time>2026-04-12T12:35:41.844Z</time></trkpt><trkpt lat="42.9129782" lon="12.6088243"><ele>305.0</ele><time>2026-04-12T12:35:42.846Z</time></trkpt><trkpt lat="42.9130711" lon="12.6089428"><ele>305.0</ele><time>2026-04-12T12:35:43.854Z</time></trkpt><trkpt lat="42.9131271" lon="12.6091114"><ele>305.0</ele><time>2026-04-12T12:35:44.856Z</time></trkpt><trkpt lat="42.9131701" lon="12.6092908"><ele>305.0</ele><time>2026-04-12T12:35:45.848Z</time></trkpt><trkpt lat="42.9132096" lon="12.6094886"><ele>304.33333333333337</ele><time>2026-04-12T12:35:46.85Z</time></trkpt><trkpt lat="42.9132527" lon="12.6096989"><ele>303.6666666666667</ele><time>2026-04-12T12:35:47.847Z</time></trkpt><trkpt lat="42.913297" lon="12.6099062"><ele>303.0</ele><time>2026-04-12T12:35:48.852Z</time></trkpt><trkpt lat="42.9133435" lon="12.610115"><ele>302.0</ele><time>2026-04-12T12:35:49.85Z</time></trkpt><trkpt lat="42.9133925" lon="12.6103264"><ele>301.0</ele><time>2026-04-12T12:35:50.856Z</time></trkpt><trkpt lat="42.9134407" lon="12.6105403"><ele>300.0</ele><time>2026-04-12T12:35:51.853Z</time></trkpt><trkpt lat="42.9134949" lon="12.6107576"><ele>299.0</ele><time>2026-04-12T12:35:52.841Z</time></trkpt><trkpt lat="42.91357" lon="12.6109626"><ele>298.0</ele><time>2026-04-12T12:35:53.856Z</time></trkpt><trkpt lat="42.9136638" lon="12.6111629"><ele>297.0</ele><time>2026-04-12T12:35:54.848Z</time></trkpt><trkpt lat="42.9137883" lon="12.611333"><ele>296.0</ele><time>2026-04-12T12:35:55.846Z</time></trkpt><trkpt lat="42.9139183" lon="12.6114855"><ele>295.0</ele><time>2026-04-12T12:35:56.843Z</time></trkpt><trkpt lat="42.9140708" lon="12.6116334"><ele>294.0</ele><time>2026-04-12T12:35:57.844Z</time></trkpt><trkpt lat="42.914219" lon="12.6117658"><ele>292.0</ele><time>2026-04-12T12:35:58.856Z</time></trkpt><trkpt lat="42.9143564" lon="12.6118917"><ele>290.0</ele><time>2026-04-12T12:35:59.858Z</time></trkpt><trkpt lat="42.9144864" lon="12.6120052"><ele>288.0</ele><time>2026-04-12T12:36:00.857Z</time></trkpt><trkpt lat="42.9146029" lon="12.6120994"><ele>288.0</ele><time>2026-04-12T12:36:01.849Z</time></trkpt><trkpt lat="42.914717" lon="12.6121677"><ele>288.0</ele><time>2026-04-12T12:36:02.85Z</time></trkpt><trkpt lat="42.9148289" lon="12.6122109"><ele>288.0</ele><time>2026-04-12T12:36:03.843Z</time></trkpt><trkpt lat="42.9149452" lon="12.6121842"><ele>288.0</ele><time>2026-04-12T12:36:04.85Z</time></trkpt><trkpt lat="42.9150458" lon="12.612106"><ele>286.0</ele><time>2026-04-12T12:36:05.852Z</time></trkpt><trkpt lat="42.9151182" lon="12.6119972"><ele>284.0</ele><time>2026-04-12T12:36:06.844Z</time></trkpt><trkpt lat="42.9151615" lon="12.6118687"><ele>282.0</ele><time>2026-04-12T12:36:07.853Z</time></trkpt><trkpt lat="42.9151846" lon="12.6117103"><ele>280.0</ele><time>2026-04-12T12:36:08.85Z</time></trkpt><trkpt lat="42.9151838" lon="12.6115365"><ele>279.75</ele><time>2026-04-12T12:36:09.847Z</time></trkpt><trkpt lat="42.9151686" lon="12.6113507"><ele>279.5</ele><time>2026-04-12T12:36:10.855Z</time></trkpt><trkpt lat="42.9151419" lon="12.6111596"><ele>279.25</ele><time>2026-04-12T12:36:11.876Z</time></trkpt><trkpt lat="42.915112" lon="12.610961"><ele>279.0</ele><time>2026-04-12T12:36:12.854Z</time></trkpt><trkpt lat="42.9150836" lon="12.6107643"><ele>280.25</ele><time>2026-04-12T12:36:13.856Z</time></trkpt><trkpt lat="42.9150544" lon="12.6105812"><ele>281.5</ele><time>2026-04-12T12:36:14.849Z</time></trkpt><trkpt lat="42.9150346" lon="12.6104134"><ele>282.75</ele><time>2026-04-12T12:36:15.86Z</time></trkpt><trkpt lat="42.9150273" lon="12.6102581"><ele>284.0</ele><time>2026-04-12T12:36:16.849Z</time></trkpt><trkpt lat="42.9150637" lon="12.6101204"><ele>281.4</ele><time>2026-04-12T12:36:17.854Z</time></trkpt><trkpt lat="42.9151226" lon="12.6099966"><ele>278.79999999999995</ele><time>2026-04-12T12:36:18.844Z</time></trkpt><trkpt lat="42.9152109" lon="12.6099215"><ele>276.20000000000005</ele><time>2026-04-12T12:36:19.836Z</time></trkpt><trkpt lat="42.9153122" lon="12.6099113"><ele>273.6</ele><time>2026-04-12T12:36:20.847Z</time></trkpt><trkpt lat="42.9154078" lon="12.6099682"><ele>271.0</ele><time>2026-04-12T12:36:21.839Z</time></trkpt><trkpt lat="42.9154836" lon="12.6100689"><ele>271.0</ele><time>2026-04-12T12:36:22.85Z</time></trkpt><trkpt lat="42.9155616" lon="12.6102142"><ele>271.0</ele><time>2026-04-12T12:36:23.853Z</time></trkpt><trkpt lat="42.9156253" lon="12.6103785"><ele>271.0</ele><time>2026-04-12T12:36:24.846Z</time></trkpt><trkpt lat="42.9156702" lon="12.6105754"><ele>271.0</ele><time>2026-04-12T12:36:25.843Z</time></trkpt><trkpt lat="42.9157383" lon="12.6107582"><ele>271.5</ele><time>2026-04-12T12:36:26.843Z</time></trkpt><trkpt lat="42.91584" lon="12.6108959"><ele>272.0</ele><time>2026-04-12T12:36:27.851Z</time></trkpt><trkpt lat="42.915947" lon="12.6109839"><ele>272.5</ele><time>2026-04-12T12:36:28.871Z</time></trkpt><trkpt lat="42.9160727" lon="12.6110326"><ele>273.0</ele><time>2026-04-12T12:36:29.868Z</time></trkpt><trkpt lat="42.9161958" lon="12.6110877"><ele>271.25</ele><time>2026-04-12T12:36:30.858Z</time></trkpt><trkpt lat="42.916313" lon="12.611165"><ele>269.5</ele><time>2026-04-12T12:36:31.843Z</time></trkpt><trkpt lat="42.9164272" lon="12.6112844"><ele>267.75</ele><time>2026-04-12T12:36:32.858Z</time></trkpt><trkpt lat="42.9165245" lon="12.6114493"><ele>266.0</ele><time>2026-04-12T12:36:33.841Z</time></trkpt><trkpt lat="42.9166063" lon="12.611634"><ele>266.0</ele><time>2026-04-12T12:36:34.844Z</time></trkpt><trkpt lat="42.9166834" lon="12.61184"><ele>266.0</ele><time>2026-04-12T12:36:35.841Z</time></trkpt><trkpt lat="42.9167537" lon="12.6120537"><ele>266.0</ele><time>2026-04-12T12:36:36.843Z</time></trkpt><trkpt lat="42.9168165" lon="12.6122777"><ele>262.0</ele><time>2026-04-12T12:36:37.838Z</time></trkpt><trkpt lat="42.9168838" lon="12.6125033"><ele>258.0</ele><time>2026-04-12T12:36:38.854Z</time></trkpt><trkpt lat="42.9169497" lon="12.6127268"><ele>254.0</ele><time>2026-04-12T12:36:39.852Z</time></trkpt><trkpt lat="42.9170109" lon="12.6129459"><ele>254.0</ele><time>2026-04-12T12:36:40.852Z</time></trkpt><trkpt lat="42.917071" lon="12.6131499"><ele>254.0</ele><time>2026-04-12T12:36:41.841Z</time></trkpt><trkpt lat="42.9171261" lon="12.6133402"><ele>254.0</ele><time>2026-04-12T12:36:42.844Z</time></trkpt><trkpt lat="42.9171849" lon="12.6135276"><ele>254.75</ele><time>2026-04-12T12:36:43.845Z</time></trkpt><trkpt lat="42.9172467" lon="12.6137141"><ele>255.5</ele><time>2026-04-12T12:36:44.854Z</time></trkpt><trkpt lat="42.9173318" lon="12.6138814"><ele>256.25</ele><time>2026-04-12T12:36:45.851Z</time></trkpt><trkpt lat="42.9174342" lon="12.6140151"><ele>257.0</ele><time>2026-04-12T12:36:46.862Z</time></trkpt><trkpt lat="42.9175654" lon="12.6141091"><ele>253.66666666666669</ele><time>2026-04-12T12:36:47.844Z</time></trkpt><trkpt lat="42.9177159" lon="12.6141625"><ele>250.33333333333331</ele><time>2026-04-12T12:36:48.857Z</time></trkpt><trkpt lat="42.9178879" lon="12.6141878"><ele>247.0</ele><time>2026-04-12T12:36:49.847Z</time></trkpt><trkpt lat="42.9180634" lon="12.6142139"><ele>247.0</ele><time>2026-04-12T12:36:50.85Z</time></trkpt><trkpt lat="42.9182447" lon="12.6142303"><ele>247.0</ele><time>2026-04-12T12:36:51.852Z</time></trkpt><trkpt lat="42.9184298" lon="12.61425"><ele>247.0</ele><time>2026-04-12T12:36:52.841Z</time></trkpt><trkpt lat="42.9186136" lon="12.6142744"><ele>245.66666666666666</ele><time>2026-04-12T12:36:53.845Z</time></trkpt><trkpt lat="42.9187997" lon="12.6142876"><ele>244.33333333333331</ele><time>2026-04-12T12:36:54.842Z</time></trkpt><trkpt lat="42.918985" lon="12.6142873"><ele>243.0</ele><time>2026-04-12T12:36:55.844Z</time></trkpt><trkpt lat="42.9191683" lon="12.6142635"><ele>242.66666666666669</ele><time>2026-04-12T12:36:56.857Z</time></trkpt><trkpt lat="42.9193478" lon="12.6142245"><ele>242.33333333333334</ele><time>2026-04-12T12:36:57.855Z</time></trkpt><trkpt lat="42.9195281" lon="12.6141708"><ele>242.0</ele><time>2026-04-12T12:36:58.865Z</time></trkpt><trkpt lat="42.9197061" lon="12.6141071"><ele>242.0</ele><time>2026-04-12T12:36:59.853Z</time></trkpt><trkpt lat="42.919888" lon="12.6140407"><ele>242.0</ele><time>2026-04-12T12:37:00.862Z</time></trkpt><trkpt lat="42.9200704" lon="12.6139826"><ele>242.0</ele><time>2026-04-12T12:37:01.847Z</time></trkpt><trkpt lat="42.9202517" lon="12.6139251"><ele>240.0</ele><time>2026-04-12T12:37:02.847Z</time></trkpt><trkpt lat="42.9204227" lon="12.6138786"><ele>238.0</ele><time>2026-04-12T12:37:03.848Z</time></trkpt><trkpt lat="42.9205874" lon="12.6138297"><ele>236.0</ele><time>2026-04-12T12:37:04.863Z</time></trkpt><trkpt lat="42.9207518" lon="12.6137991"><ele>234.66666666666669</ele><time>2026-04-12T12:37:05.843Z</time></trkpt><trkpt lat="42.9209133" lon="12.6137714"><ele>233.33333333333331</ele><time>2026-04-12T12:37:06.852Z</time></trkpt><trkpt lat="42.921078" lon="12.6137493"><ele>232.0</ele><time>2026-04-12T12:37:07.848Z</time></trkpt><trkpt lat="42.9212441" lon="12.613726"><ele>232.0</ele><time>2026-04-12T12:37:08.852Z</time></trkpt><trkpt lat="42.9214022" lon="12.613711"><ele>232.0</ele><time>2026-04-12T12:37:09.854Z</time></trkpt><trkpt lat="42.9215526" lon="12.6137058"><ele>232.0</ele><time>2026-04-12T12:37:10.859Z</time></trkpt><trkpt lat="42.9217024" lon="12.6137072"><ele>230.0</ele><time>2026-04-12T12:37:11.842Z</time></trkpt><trkpt lat="42.9218485" lon="12.6137336"><ele>228.0</ele><time>2026-04-12T12:37:12.842Z</time></trkpt><trkpt lat="42.9219977" lon="12.6137947"><ele>226.0</ele><time>2026-04-12T12:37:13.844Z</time></trkpt><trkpt lat="42.9221443" lon="12.6138729"><ele>226.0</ele><time>2026-04-12T12:37:14.848Z</time></trkpt><trkpt lat="42.9222937" lon="12.6139773"><ele>226.0</ele><time>2026-04-12T12:37:15.84Z</time></trkpt><trkpt lat="42.92244" lon="12.6140873"><ele>226.0</ele><time>2026-04-12T12:37:16.842Z</time></trkpt><trkpt lat="42.9225911" lon="12.6141992"><ele>224.66666666666666</ele><time>2026-04-12T12:37:17.843Z</time></trkpt><trkpt lat="42.9227414" lon="12.6143061"><ele>223.33333333333331</ele><time>2026-04-12T12:37:18.843Z</time></trkpt><trkpt lat="42.9228915" lon="12.6144135"><ele>222.0</ele><time>2026-04-12T12:37:19.843Z</time></trkpt><trkpt lat="42.923042" lon="12.6145241"><ele>222.0</ele><time>2026-04-12T12:37:20.854Z</time></trkpt><trkpt lat="42.9231921" lon="12.6146356"><ele>222.0</ele><time>2026-04-12T12:37:21.865Z</time></trkpt><trkpt lat="42.9233422" lon="12.6147468"><ele>222.0</ele><time>2026-04-12T12:37:22.852Z</time></trkpt><trkpt lat="42.9234945" lon="12.6148666"><ele>219.66666666666669</ele><time>2026-04-12T12:37:23.856Z</time></trkpt><trkpt lat="42.9236387" lon="12.6149755"><ele>217.33333333333334</ele><time>2026-04-12T12:37:24.849Z</time></trkpt><trkpt lat="42.9237735" lon="12.6150781"><ele>215.0</ele><time>2026-04-12T12:37:25.86Z</time></trkpt><trkpt lat="42.9239069" lon="12.6151745"><ele>215.0</ele><time>2026-04-12T12:37:26.856Z</time></trkpt><trkpt lat="42.9240407" lon="12.615261"><ele>215.0</ele><time>2026-04-12T12:37:27.853Z</time></trkpt><trkpt lat="42.9241792" lon="12.6153311"><ele>215.0</ele><time>2026-04-12T12:37:28.859Z</time></trkpt><trkpt lat="42.9243256" lon="12.6153793"><ele>215.0</ele><time>2026-04-12T12:37:29.856Z</time></trkpt><trkpt lat="42.9244768" lon="12.6153907"><ele>214.0</ele><time>2026-04-12T12:37:30.851Z</time></trkpt><trkpt lat="42.9246277" lon="12.6153575"><ele>213.0</ele><time>2026-04-12T12:37:31.851Z</time></trkpt><trkpt lat="42.9247802" lon="12.6152828"><ele>212.0</ele><time>2026-04-12T12:37:32.848Z</time></trkpt><trkpt lat="42.9249231" lon="12.6151852"><ele>209.66666666666669</ele><time>2026-04-12T12:37:33.853Z</time></trkpt><trkpt lat="42.9250628" lon="12.6150704"><ele>207.33333333333331</ele><time>2026-04-12T12:37:34.851Z</time></trkpt><trkpt lat="42.9252061" lon="12.6149447"><ele>205.0</ele><time>2026-04-12T12:37:35.844Z</time></trkpt><trkpt lat="42.9253466" lon="12.6148245"><ele>205.0</ele><time>2026-04-12T12:37:36.846Z</time></trkpt><trkpt lat="42.9254852" lon="12.6146977"><ele>205.0</ele><time>2026-04-12T12:37:37.845Z</time></trkpt><trkpt lat="42.9256231" lon="12.6145779"><ele>205.0</ele><time>2026-04-12T12:37:38.841Z</time></trkpt><trkpt lat="42.925751" lon="12.6144644"><ele>205.0</ele><time>2026-04-12T12:37:39.852Z</time></trkpt><trkpt lat="42.9258753" lon="12.6143583"><ele>205.0</ele><time>2026-04-12T12:37:40.847Z</time></trkpt><trkpt lat="42.9259988" lon="12.6142534"><ele>205.0</ele><time>2026-04-12T12:37:41.863Z</time></trkpt><trkpt lat="42.9261189" lon="12.6141499"><ele>205.0</ele><time>2026-04-12T12:37:42.844Z</time></trkpt><trkpt lat="42.9262316" lon="12.6140487"><ele>205.0</ele><time>2026-04-12T12:37:43.843Z</time></trkpt><trkpt lat="42.9263373" lon="12.6139511"><ele>205.0</ele><time>2026-04-12T12:37:44.853Z</time></trkpt><trkpt lat="42.9264433" lon="12.6138533"><ele>205.0</ele><time>2026-04-12T12:37:45.844Z</time></trkpt><trkpt lat="42.9265516" lon="12.6137604"><ele>205.0</ele><time>2026-04-12T12:37:46.851Z</time></trkpt><trkpt lat="42.9266581" lon="12.6136612"><ele>204.75</ele><time>2026-04-12T12:37:47.853Z</time></trkpt><trkpt lat="42.9267645" lon="12.6135628"><ele>204.5</ele><time>2026-04-12T12:37:48.854Z</time></trkpt><trkpt lat="42.9268694" lon="12.613468"><ele>204.25</ele><time>2026-04-12T12:37:49.844Z</time></trkpt><trkpt lat="42.9269781" lon="12.6133753"><ele>204.0</ele><time>2026-04-12T12:37:50.839Z</time></trkpt><trkpt lat="42.9270952" lon="12.6132718"><ele>204.0</ele><time>2026-04-12T12:37:51.844Z</time></trkpt><trkpt lat="42.9272162" lon="12.613167"><ele>204.0</ele><time>2026-04-12T12:37:52.856Z</time></trkpt><trkpt lat="42.927341" lon="12.6130537"><ele>204.0</ele><time>2026-04-12T12:37:53.85Z</time></trkpt><trkpt lat="42.9274688" lon="12.6129344"><ele>204.0</ele><time>2026-04-12T12:37:54.861Z</time></trkpt><trkpt lat="42.9276011" lon="12.612812"><ele>203.66666666666669</ele><time>2026-04-12T12:37:55.855Z</time></trkpt><trkpt lat="42.9277367" lon="12.6126878"><ele>203.33333333333334</ele><time>2026-04-12T12:37:56.845Z</time></trkpt><trkpt lat="42.9278762" lon="12.612566"><ele>203.0</ele><time>2026-04-12T12:37:57.868Z</time></trkpt><trkpt lat="42.9280186" lon="12.6124396"><ele>203.0</ele><time>2026-04-12T12:37:58.846Z</time></trkpt><trkpt lat="42.9281612" lon="12.6123154"><ele>203.0</ele><time>2026-04-12T12:37:59.854Z</time></trkpt><trkpt lat="42.9283065" lon="12.6121883"><ele>203.0</ele><time>2026-04-12T12:38:00.84Z</time></trkpt><trkpt lat="42.9284501" lon="12.612055"><ele>203.33333333333334</ele><time>2026-04-12T12:38:01.846Z</time></trkpt><trkpt lat="42.928592" lon="12.6119238"><ele>203.66666666666669</ele><time>2026-04-12T12:38:02.845Z</time></trkpt><trkpt lat="42.9287336" lon="12.6117971"><ele>204.0</ele><time>2026-04-12T12:38:03.849Z</time></trkpt><trkpt lat="42.9288759" lon="12.6116739"><ele>204.0</ele><time>2026-04-12T12:38:04.846Z</time></trkpt><trkpt lat="42.9290134" lon="12.6115564"><ele>204.0</ele><time>2026-04-12T12:38:05.848Z</time></trkpt><trkpt lat="42.9291416" lon="12.6114394"><ele>204.0</ele><time>2026-04-12T12:38:06.848Z</time></trkpt><trkpt lat="42.9292643" lon="12.6113305"><ele>203.75</ele><time>2026-04-12T12:38:07.852Z</time></trkpt><trkpt lat="42.9293797" lon="12.6112239"><ele>203.5</ele><time>2026-04-12T12:38:08.843Z</time></trkpt><trkpt lat="42.9294915" lon="12.6111201"><ele>203.25</ele><time>2026-04-12T12:38:09.845Z</time></trkpt><trkpt lat="42.9296047" lon="12.6110195"><ele>203.0</ele><time>2026-04-12T12:38:10.85Z</time></trkpt><trkpt lat="42.9297179" lon="12.6109249"><ele>203.0</ele><time>2026-04-12T12:38:11.845Z</time></trkpt><trkpt lat="42.9298249" lon="12.6108259"><ele>203.0</ele><time>2026-04-12T12:38:12.845Z</time></trkpt><trkpt lat="42.9299275" lon="12.6107312"><ele>203.0</ele><time>2026-04-12T12:38:13.843Z</time></trkpt><trkpt lat="42.9300266" lon="12.6106389"><ele>203.0</ele><time>2026-04-12T12:38:14.866Z</time></trkpt><trkpt lat="42.930126" lon="12.6105535"><ele>203.0</ele><time>2026-04-12T12:38:15.845Z</time></trkpt><trkpt lat="42.9302235" lon="12.610462"><ele>203.0</ele><time>2026-04-12T12:38:16.842Z</time></trkpt><trkpt lat="42.9303206" lon="12.6103716"><ele>203.0</ele><time>2026-04-12T12:38:17.852Z</time></trkpt><trkpt lat="42.9304196" lon="12.6102846"><ele>203.0</ele><time>2026-04-12T12:38:18.851Z</time></trkpt><trkpt lat="42.9305179" lon="12.6101996"><ele>203.5</ele><time>2026-04-12T12:38:19.846Z</time></trkpt><trkpt lat="42.9306193" lon="12.6101123"><ele>204.0</ele><time>2026-04-12T12:38:20.849Z</time></trkpt><trkpt lat="42.9307199" lon="12.6100409"><ele>204.5</ele><time>2026-04-12T12:38:21.854Z</time></trkpt><trkpt lat="42.9308339" lon="12.609997"><ele>205.0</ele><time>2026-04-12T12:38:22.843Z</time></trkpt><trkpt lat="42.930962" lon="12.6100135"><ele>205.0</ele><time>2026-04-12T12:38:23.845Z</time></trkpt><trkpt lat="42.9310881" lon="12.6100549"><ele>205.0</ele><time>2026-04-12T12:38:24.846Z</time></trkpt><trkpt lat="42.9312087" lon="12.6101255"><ele>205.0</ele><time>2026-04-12T12:38:25.851Z</time></trkpt><trkpt lat="42.931331" lon="12.6102022"><ele>205.0</ele><time>2026-04-12T12:38:26.845Z</time></trkpt><trkpt lat="42.9314597" lon="12.6102824"><ele>204.75</ele><time>2026-04-12T12:38:27.861Z</time></trkpt><trkpt lat="42.931592" lon="12.6103576"><ele>204.5</ele><time>2026-04-12T12:38:28.856Z</time></trkpt><trkpt lat="42.9317272" lon="12.6104321"><ele>204.25</ele><time>2026-04-12T12:38:29.859Z</time></trkpt><trkpt lat="42.931864" lon="12.6105113"><ele>204.0</ele><time>2026-04-12T12:38:30.849Z</time></trkpt><trkpt lat="42.932" lon="12.6105886"><ele>204.0</ele><time>2026-04-12T12:38:31.847Z</time></trkpt><trkpt lat="42.9321318" lon="12.6106687"><ele>204.0</ele><time>2026-04-12T12:38:32.858Z</time></trkpt><trkpt lat="42.9322666" lon="12.6107429"><ele>204.0</ele><time>2026-04-12T12:38:33.857Z</time></trkpt><trkpt lat="42.9323916" lon="12.6108196"><ele>204.0</ele><time>2026-04-12T12:38:34.852Z</time></trkpt><trkpt lat="42.9325175" lon="12.6108921"><ele>205.0</ele><time>2026-04-12T12:38:35.846Z</time></trkpt><trkpt lat="42.9326384" lon="12.6109608"><ele>206.0</ele><time>2026-04-12T12:38:36.846Z</time></trkpt><trkpt lat="42.9327577" lon="12.6110298"><ele>207.0</ele><time>2026-04-12T12:38:37.843Z</time></trkpt><trkpt lat="42.9328806" lon="12.6111006"><ele>208.0</ele><time>2026-04-12T12:38:38.854Z</time></trkpt><trkpt lat="42.9330002" lon="12.611172"><ele>208.0</ele><time>2026-04-12T12:38:39.851Z</time></trkpt><trkpt lat="42.933118" lon="12.6112427"><ele>208.0</ele><time>2026-04-12T12:38:40.848Z</time></trkpt><trkpt lat="42.933237" lon="12.6113142"><ele>208.0</ele><time>2026-04-12T12:38:41.845Z</time></trkpt><trkpt lat="42.9333559" lon="12.6113762"><ele>208.0</ele><time>2026-04-12T12:38:42.843Z</time></trkpt><trkpt lat="42.9334688" lon="12.6114417"><ele>209.25</ele><time>2026-04-12T12:38:43.84Z</time></trkpt><trkpt lat="42.9335854" lon="12.6115066"><ele>210.5</ele><time>2026-04-12T12:38:44.854Z</time></trkpt><trkpt lat="42.9337002" lon="12.6115748"><ele>211.75</ele><time>2026-04-12T12:38:45.845Z</time></trkpt><trkpt lat="42.933813" lon="12.6116438"><ele>213.0</ele><time>2026-04-12T12:38:46.857Z</time></trkpt><trkpt lat="42.9339239" lon="12.6117094"><ele>213.0</ele><time>2026-04-12T12:38:47.848Z</time></trkpt><trkpt lat="42.9340367" lon="12.6117724"><ele>213.0</ele><time>2026-04-12T12:38:48.852Z</time></trkpt><trkpt lat="42.9341476" lon="12.6118407"><ele>213.0</ele><time>2026-04-12T12:38:49.843Z</time></trkpt><trkpt lat="42.9342652" lon="12.6119075"><ele>213.0</ele><time>2026-04-12T12:38:50.863Z</time></trkpt><trkpt lat="42.9343746" lon="12.6119661"><ele>213.33333333333334</ele><time>2026-04-12T12:38:51.847Z</time></trkpt><trkpt lat="42.9344761" lon="12.6120174"><ele>213.66666666666669</ele><time>2026-04-12T12:38:52.866Z</time></trkpt><trkpt lat="42.9345662" lon="12.6120711"><ele>214.0</ele><time>2026-04-12T12:38:53.849Z</time></trkpt><trkpt lat="42.934652" lon="12.6121177"><ele>214.33333333333334</ele><time>2026-04-12T12:38:54.841Z</time></trkpt><trkpt lat="42.9347279" lon="12.6121611"><ele>214.66666666666669</ele><time>2026-04-12T12:38:55.84Z</time></trkpt><trkpt lat="42.9347898" lon="12.6121997"><ele>215.0</ele><time>2026-04-12T12:38:56.853Z</time></trkpt><trkpt lat="42.9348904" lon="12.6122603"><ele>215.00000000000003</ele><time>2026-04-12T12:38:58.852Z</time></trkpt><trkpt lat="42.9349614" lon="12.6123153"><ele>215.0</ele><time>2026-04-12T12:39:00.852Z</time></trkpt><trkpt lat="42.9350175" lon="12.6123786"><ele>215.0</ele><time>2026-04-12T12:39:02.848Z</time></trkpt><trkpt lat="42.9350701" lon="12.6124458"><ele>215.0</ele><time>2026-04-12T12:39:04.85Z</time></trkpt><trkpt lat="42.935114" lon="12.6125301"><ele>215.00000000000003</ele><time>2026-04-12T12:39:07.841Z</time></trkpt><trkpt lat="42.9351668" lon="12.6126027"><ele>215.0</ele><time>2026-04-12T12:39:10.859Z</time></trkpt><trkpt lat="42.9352047" lon="12.6127173"><ele>216.0</ele><time>2026-04-12T12:39:12.846Z</time></trkpt><trkpt lat="42.9352494" lon="12.612863"><ele>217.0</ele><time>2026-04-12T12:39:14.861Z</time></trkpt><trkpt lat="42.9352825" lon="12.6130004"><ele>218.0</ele><time>2026-04-12T12:39:16.864Z</time></trkpt><trkpt lat="42.9353335" lon="12.6131489"><ele>219.0</ele><time>2026-04-12T12:39:18.845Z</time></trkpt><trkpt lat="42.935361" lon="12.6132394"><ele>220.0</ele><time>2026-04-12T12:39:19.852Z</time></trkpt><trkpt lat="42.9353925" lon="12.6133305"><ele>219.99999999999997</ele><time>2026-04-12T12:39:20.846Z</time></trkpt><trkpt lat="42.9354228" lon="12.6134284"><ele>220.0</ele><time>2026-04-12T12:39:21.846Z</time></trkpt><trkpt lat="42.935459" lon="12.6135144"><ele>220.0</ele><time>2026-04-12T12:39:22.851Z</time></trkpt><trkpt lat="42.9354955" lon="12.6135911"><ele>220.0</ele><time>2026-04-12T12:39:23.847Z</time></trkpt><trkpt lat="42.9355623" lon="12.6136984"><ele>219.99999999999997</ele><time>2026-04-12T12:39:25.842Z</time></trkpt><trkpt lat="42.9356138" lon="12.6137791"><ele>220.0</ele><time>2026-04-12T12:39:27.852Z</time></trkpt><trkpt lat="42.935663" lon="12.6138633"><ele>220.0</ele><time>2026-04-12T12:39:30.853Z</time></trkpt><trkpt lat="42.9356639" lon="12.6140653"><ele>220.0</ele><time>2026-04-12T12:43:51.858Z</time></trkpt><trkpt lat="42.9356376" lon="12.6141683"><ele>220.0</ele><time>2026-04-12T12:43:56.855Z</time></trkpt><trkpt lat="42.9356535" lon="12.6142663"><ele>220.0</ele><time>2026-04-12T12:43:58.855Z</time></trkpt><trkpt lat="42.9356806" lon="12.6143868"><ele>220.0</ele><time>2026-04-12T12:44:00.855Z</time></trkpt><trkpt lat="42.9357193" lon="12.6145206"><ele>220.0</ele><time>2026-04-12T12:44:02.857Z</time></trkpt><trkpt lat="42.9357608" lon="12.6146595"><ele>220.0</ele><time>2026-04-12T12:44:04.858Z</time></trkpt><trkpt lat="42.9358004" lon="12.614796"><ele>220.0</ele><time>2026-04-12T12:44:06.855Z</time></trkpt><trkpt lat="42.9358426" lon="12.6149407"><ele>220.0</ele><time>2026-04-12T12:44:08.853Z</time></trkpt><trkpt lat="42.9358824" lon="12.615095"><ele>220.14285714285714</ele><time>2026-04-12T12:44:10.868Z</time></trkpt><trkpt lat="42.9359061" lon="12.6151801"><ele>220.28571428571428</ele><time>2026-04-12T12:44:11.858Z</time></trkpt><trkpt lat="42.9359311" lon="12.6152715"><ele>220.42857142857144</ele><time>2026-04-12T12:44:12.855Z</time></trkpt><trkpt lat="42.9359561" lon="12.6153642"><ele>220.57142857142856</ele><time>2026-04-12T12:44:13.859Z</time></trkpt><trkpt lat="42.9359827" lon="12.6154567"><ele>220.71428571428572</ele><time>2026-04-12T12:44:14.86Z</time></trkpt><trkpt lat="42.9360081" lon="12.6155531"><ele>220.85714285714286</ele><time>2026-04-12T12:44:15.854Z</time></trkpt><trkpt lat="42.9360357" lon="12.6156536"><ele>221.0</ele><time>2026-04-12T12:44:16.858Z</time></trkpt><trkpt lat="42.9360643" lon="12.6157624"><ele>221.16666666666669</ele><time>2026-04-12T12:44:17.863Z</time></trkpt><trkpt lat="42.9360977" lon="12.6158688"><ele>221.33333333333334</ele><time>2026-04-12T12:44:18.854Z</time></trkpt><trkpt lat="42.9361302" lon="12.6159743"><ele>221.5</ele><time>2026-04-12T12:44:19.859Z</time></trkpt><trkpt lat="42.936159" lon="12.616086"><ele>221.66666666666669</ele><time>2026-04-12T12:44:20.848Z</time></trkpt><trkpt lat="42.9361902" lon="12.6161973"><ele>221.83333333333334</ele><time>2026-04-12T12:44:21.864Z</time></trkpt><trkpt lat="42.9362159" lon="12.616298"><ele>222.0</ele><time>2026-04-12T12:44:22.859Z</time></trkpt><trkpt lat="42.9362511" lon="12.6164016"><ele>221.2</ele><time>2026-04-12T12:44:23.858Z</time></trkpt><trkpt lat="42.9362878" lon="12.616509"><ele>220.39999999999998</ele><time>2026-04-12T12:44:24.86Z</time></trkpt><trkpt lat="42.9363225" lon="12.6166201"><ele>219.60000000000002</ele><time>2026-04-12T12:44:25.845Z</time></trkpt><trkpt lat="42.9363592" lon="12.6167336"><ele>218.8</ele><time>2026-04-12T12:44:26.861Z</time></trkpt><trkpt lat="42.9363949" lon="12.6168504"><ele>218.0</ele><time>2026-04-12T12:44:27.853Z</time></trkpt><trkpt lat="42.9364318" lon="12.6169752"><ele>217.2</ele><time>2026-04-12T12:44:28.856Z</time></trkpt><trkpt lat="42.9364696" lon="12.6171014"><ele>216.4</ele><time>2026-04-12T12:44:29.866Z</time></trkpt><trkpt lat="42.9365104" lon="12.6172266"><ele>215.59999999999997</ele><time>2026-04-12T12:44:30.873Z</time></trkpt><trkpt lat="42.9365504" lon="12.6173523"><ele>214.79999999999998</ele><time>2026-04-12T12:44:31.864Z</time></trkpt><trkpt lat="42.9365936" lon="12.6174834"><ele>214.0</ele><time>2026-04-12T12:44:32.867Z</time></trkpt><trkpt lat="42.9366366" lon="12.6176208"><ele>214.0</ele><time>2026-04-12T12:44:33.881Z</time></trkpt><trkpt lat="42.9366774" lon="12.6177589"><ele>213.99999999999997</ele><time>2026-04-12T12:44:34.876Z</time></trkpt><trkpt lat="42.9367215" lon="12.6178974"><ele>213.99999999999997</ele><time>2026-04-12T12:44:35.872Z</time></trkpt><trkpt lat="42.9367673" lon="12.6180375"><ele>214.0</ele><time>2026-04-12T12:44:36.876Z</time></trkpt><trkpt lat="42.9368117" lon="12.6181781"><ele>214.0</ele><time>2026-04-12T12:44:37.862Z</time></trkpt><trkpt lat="42.9368564" lon="12.6183229"><ele>214.0</ele><time>2026-04-12T12:44:38.853Z</time></trkpt><trkpt lat="42.9369012" lon="12.6184656"><ele>213.99999999999997</ele><time>2026-04-12T12:44:39.856Z</time></trkpt><trkpt lat="42.9369445" lon="12.6186034"><ele>213.99999999999997</ele><time>2026-04-12T12:44:40.868Z</time></trkpt><trkpt lat="42.9369884" lon="12.6187434"><ele>214.0</ele><time>2026-04-12T12:44:41.848Z</time></trkpt><trkpt lat="42.9370293" lon="12.618882"><ele>214.0</ele><time>2026-04-12T12:44:42.875Z</time></trkpt><trkpt lat="42.9370693" lon="12.6190178"><ele>213.79999999999998</ele><time>2026-04-12T12:44:43.852Z</time></trkpt><trkpt lat="42.9371073" lon="12.6191515"><ele>213.59999999999997</ele><time>2026-04-12T12:44:44.853Z</time></trkpt><trkpt lat="42.9371477" lon="12.619284"><ele>213.4</ele><time>2026-04-12T12:44:45.854Z</time></trkpt><trkpt lat="42.9371873" lon="12.6194177"><ele>213.2</ele><time>2026-04-12T12:44:46.864Z</time></trkpt><trkpt lat="42.9372284" lon="12.6195496"><ele>213.0</ele><time>2026-04-12T12:44:47.858Z</time></trkpt><trkpt lat="42.9372709" lon="12.6196777"><ele>212.60000000000002</ele><time>2026-04-12T12:44:48.869Z</time></trkpt><trkpt lat="42.9373075" lon="12.6198064"><ele>212.20000000000002</ele><time>2026-04-12T12:44:49.851Z</time></trkpt><trkpt lat="42.937351" lon="12.6199415"><ele>211.8</ele><time>2026-04-12T12:44:50.853Z</time></trkpt><trkpt lat="42.9373946" lon="12.6200747"><ele>211.4</ele><time>2026-04-12T12:44:51.859Z</time></trkpt><trkpt lat="42.9374403" lon="12.6202093"><ele>211.0</ele><time>2026-04-12T12:44:52.851Z</time></trkpt><trkpt lat="42.9374805" lon="12.6203456"><ele>210.60000000000002</ele><time>2026-04-12T12:44:53.856Z</time></trkpt><trkpt lat="42.9375228" lon="12.6204893"><ele>210.2</ele><time>2026-04-12T12:44:54.856Z</time></trkpt><trkpt lat="42.9375675" lon="12.6206273"><ele>209.8</ele><time>2026-04-12T12:44:55.859Z</time></trkpt><trkpt lat="42.9376126" lon="12.6207669"><ele>209.39999999999998</ele><time>2026-04-12T12:44:56.852Z</time></trkpt><trkpt lat="42.9376555" lon="12.6209063"><ele>209.0</ele><time>2026-04-12T12:44:57.857Z</time></trkpt><trkpt lat="42.9376989" lon="12.6210476"><ele>210.75</ele><time>2026-04-12T12:44:58.858Z</time></trkpt><trkpt lat="42.9377413" lon="12.621188"><ele>212.5</ele><time>2026-04-12T12:44:59.852Z</time></trkpt><trkpt lat="42.937782" lon="12.6213281"><ele>214.25</ele><time>2026-04-12T12:45:00.856Z</time></trkpt><trkpt lat="42.9378289" lon="12.6214721"><ele>216.0</ele><time>2026-04-12T12:45:01.858Z</time></trkpt><trkpt lat="42.9378773" lon="12.6216155"><ele>216.0</ele><time>2026-04-12T12:45:02.856Z</time></trkpt><trkpt lat="42.9379263" lon="12.6217597"><ele>216.0</ele><time>2026-04-12T12:45:03.854Z</time></trkpt><trkpt lat="42.9379755" lon="12.6219083"><ele>216.0</ele><time>2026-04-12T12:45:04.85Z</time></trkpt><trkpt lat="42.9380241" lon="12.6220621"><ele>216.0</ele><time>2026-04-12T12:45:05.854Z</time></trkpt><trkpt lat="42.9380719" lon="12.6222149"><ele>214.75</ele><time>2026-04-12T12:45:06.853Z</time></trkpt><trkpt lat="42.9381203" lon="12.6223677"><ele>213.5</ele><time>2026-04-12T12:45:07.849Z</time></trkpt><trkpt lat="42.9381687" lon="12.6225346"><ele>212.25</ele><time>2026-04-12T12:45:08.851Z</time></trkpt><trkpt lat="42.9382194" lon="12.6226955"><ele>211.0</ele><time>2026-04-12T12:45:09.849Z</time></trkpt><trkpt lat="42.9382699" lon="12.6228612"><ele>210.75</ele><time>2026-04-12T12:45:10.862Z</time></trkpt><trkpt lat="42.9383213" lon="12.623021"><ele>210.5</ele><time>2026-04-12T12:45:11.842Z</time></trkpt><trkpt lat="42.9383728" lon="12.6231745"><ele>210.25</ele><time>2026-04-12T12:45:12.849Z</time></trkpt><trkpt lat="42.9384246" lon="12.6233219"><ele>210.0</ele><time>2026-04-12T12:45:13.86Z</time></trkpt><trkpt lat="42.9384788" lon="12.6234556"><ele>210.0</ele><time>2026-04-12T12:45:14.853Z</time></trkpt><trkpt lat="42.938535" lon="12.6235836"><ele>210.0</ele><time>2026-04-12T12:45:15.855Z</time></trkpt><trkpt lat="42.9385891" lon="12.6237078"><ele>210.0</ele><time>2026-04-12T12:45:16.856Z</time></trkpt><trkpt lat="42.9386397" lon="12.6238277"><ele>210.0</ele><time>2026-04-12T12:45:17.857Z</time></trkpt><trkpt lat="42.9386847" lon="12.6239435"><ele>210.0</ele><time>2026-04-12T12:45:18.86Z</time></trkpt><trkpt lat="42.9387175" lon="12.624065"><ele>209.0</ele><time>2026-04-12T12:45:19.856Z</time></trkpt><trkpt lat="42.9387311" lon="12.6241788"><ele>208.0</ele><time>2026-04-12T12:45:20.86Z</time></trkpt><trkpt lat="42.9387378" lon="12.6242872"><ele>207.0</ele><time>2026-04-12T12:45:21.852Z</time></trkpt><trkpt lat="42.9387476" lon="12.6243973"><ele>206.0</ele><time>2026-04-12T12:45:22.849Z</time></trkpt><trkpt lat="42.9387726" lon="12.6245116"><ele>205.0</ele><time>2026-04-12T12:45:23.852Z</time></trkpt><trkpt lat="42.9388126" lon="12.6246169"><ele>204.0</ele><time>2026-04-12T12:45:24.862Z</time></trkpt><trkpt lat="42.9388563" lon="12.6247262"><ele>204.0</ele><time>2026-04-12T12:45:25.854Z</time></trkpt><trkpt lat="42.9388938" lon="12.6248423"><ele>204.0</ele><time>2026-04-12T12:45:26.858Z</time></trkpt><trkpt lat="42.9389238" lon="12.6249682"><ele>204.0</ele><time>2026-04-12T12:45:27.853Z</time></trkpt><trkpt lat="42.938957" lon="12.6250985"><ele>204.0</ele><time>2026-04-12T12:45:28.858Z</time></trkpt><trkpt lat="42.9389938" lon="12.6252352"><ele>204.0</ele><time>2026-04-12T12:45:29.856Z</time></trkpt><trkpt lat="42.9390338" lon="12.6253697"><ele>204.2</ele><time>2026-04-12T12:45:30.852Z</time></trkpt><trkpt lat="42.9390761" lon="12.6255081"><ele>204.39999999999998</ele><time>2026-04-12T12:45:31.862Z</time></trkpt><trkpt lat="42.9391207" lon="12.6256457"><ele>204.6</ele><time>2026-04-12T12:45:32.859Z</time></trkpt><trkpt lat="42.9391648" lon="12.625783"><ele>204.8</ele><time>2026-04-12T12:45:33.869Z</time></trkpt><trkpt lat="42.9392082" lon="12.6259161"><ele>205.0</ele><time>2026-04-12T12:45:34.854Z</time></trkpt><trkpt lat="42.939256" lon="12.626049"><ele>205.0</ele><time>2026-04-12T12:45:35.867Z</time></trkpt><trkpt lat="42.9393005" lon="12.6261855"><ele>205.0</ele><time>2026-04-12T12:45:36.857Z</time></trkpt><trkpt lat="42.9393442" lon="12.6263266"><ele>205.0</ele><time>2026-04-12T12:45:37.853Z</time></trkpt><trkpt lat="42.9393865" lon="12.6264656"><ele>205.0</ele><time>2026-04-12T12:45:38.863Z</time></trkpt><trkpt lat="42.9394288" lon="12.6266044"><ele>205.0</ele><time>2026-04-12T12:45:39.87Z</time></trkpt><trkpt lat="42.9394743" lon="12.6267482"><ele>205.0</ele><time>2026-04-12T12:45:40.866Z</time></trkpt><trkpt lat="42.939521" lon="12.6268977"><ele>205.0</ele><time>2026-04-12T12:45:41.857Z</time></trkpt><trkpt lat="42.9395689" lon="12.6270506"><ele>205.0</ele><time>2026-04-12T12:45:42.863Z</time></trkpt><trkpt lat="42.9396171" lon="12.6272013"><ele>205.0</ele><time>2026-04-12T12:45:43.856Z</time></trkpt><trkpt lat="42.9396651" lon="12.6273549"><ele>205.0</ele><time>2026-04-12T12:45:44.863Z</time></trkpt><trkpt lat="42.939714" lon="12.6275081"><ele>205.0</ele><time>2026-04-12T12:45:45.861Z</time></trkpt><trkpt lat="42.9397639" lon="12.6276649"><ele>205.0</ele><time>2026-04-12T12:45:46.885Z</time></trkpt><trkpt lat="42.9398139" lon="12.6278164"><ele>205.0</ele><time>2026-04-12T12:45:47.855Z</time></trkpt><trkpt lat="42.9398626" lon="12.6279681"><ele>205.25</ele><time>2026-04-12T12:45:48.853Z</time></trkpt><trkpt lat="42.939909" lon="12.6281206"><ele>205.5</ele><time>2026-04-12T12:45:49.865Z</time></trkpt><trkpt lat="42.9399562" lon="12.6282732"><ele>205.75</ele><time>2026-04-12T12:45:50.858Z</time></trkpt><trkpt lat="42.9400108" lon="12.6284254"><ele>206.0</ele><time>2026-04-12T12:45:51.862Z</time></trkpt><trkpt lat="42.9400659" lon="12.6285732"><ele>205.25</ele><time>2026-04-12T12:45:52.86Z</time></trkpt><trkpt lat="42.9401212" lon="12.6287224"><ele>204.5</ele><time>2026-04-12T12:45:53.86Z</time></trkpt><trkpt lat="42.9401747" lon="12.628871"><ele>203.75</ele><time>2026-04-12T12:45:54.858Z</time></trkpt><trkpt lat="42.9402301" lon="12.6290205"><ele>203.0</ele><time>2026-04-12T12:45:55.852Z</time></trkpt><trkpt lat="42.9402875" lon="12.6291746"><ele>203.0</ele><time>2026-04-12T12:45:56.855Z</time></trkpt><trkpt lat="42.9403437" lon="12.6293244"><ele>203.0</ele><time>2026-04-12T12:45:57.865Z</time></trkpt><trkpt lat="42.9403992" lon="12.6294692"><ele>203.0</ele><time>2026-04-12T12:45:58.851Z</time></trkpt><trkpt lat="42.9404575" lon="12.6296157"><ele>203.0</ele><time>2026-04-12T12:45:59.874Z</time></trkpt><trkpt lat="42.9405135" lon="12.6297685"><ele>203.25</ele><time>2026-04-12T12:46:00.858Z</time></trkpt><trkpt lat="42.9405697" lon="12.6299265"><ele>203.5</ele><time>2026-04-12T12:46:01.868Z</time></trkpt><trkpt lat="42.940625" lon="12.6300807"><ele>203.75</ele><time>2026-04-12T12:46:02.864Z</time></trkpt><trkpt lat="42.9406807" lon="12.6302384"><ele>204.0</ele><time>2026-04-12T12:46:03.863Z</time></trkpt><trkpt lat="42.9407383" lon="12.630391"><ele>204.0</ele><time>2026-04-12T12:46:04.866Z</time></trkpt><trkpt lat="42.9407971" lon="12.6305435"><ele>204.0</ele><time>2026-04-12T12:46:05.865Z</time></trkpt><trkpt lat="42.9408528" lon="12.6306916"><ele>204.0</ele><time>2026-04-12T12:46:06.857Z</time></trkpt><trkpt lat="42.9409075" lon="12.6308416"><ele>204.0</ele><time>2026-04-12T12:46:07.858Z</time></trkpt><trkpt lat="42.9409624" lon="12.6309908"><ele>204.0</ele><time>2026-04-12T12:46:08.858Z</time></trkpt><trkpt lat="42.9410205" lon="12.6311405"><ele>204.0</ele><time>2026-04-12T12:46:09.851Z</time></trkpt><trkpt lat="42.9410749" lon="12.6312905"><ele>204.0</ele><time>2026-04-12T12:46:10.854Z</time></trkpt><trkpt lat="42.9411289" lon="12.6314412"><ele>204.0</ele><time>2026-04-12T12:46:11.851Z</time></trkpt><trkpt lat="42.9411856" lon="12.6315982"><ele>204.25</ele><time>2026-04-12T12:46:12.853Z</time></trkpt><trkpt lat="42.9412437" lon="12.6317561"><ele>204.5</ele><time>2026-04-12T12:46:13.864Z</time></trkpt><trkpt lat="42.9413011" lon="12.6319126"><ele>204.75</ele><time>2026-04-12T12:46:14.856Z</time></trkpt><trkpt lat="42.9413601" lon="12.6320686"><ele>205.0</ele><time>2026-04-12T12:46:15.846Z</time></trkpt><trkpt lat="42.9414159" lon="12.6322199"><ele>205.0</ele><time>2026-04-12T12:46:16.852Z</time></trkpt><trkpt lat="42.9414695" lon="12.6323733"><ele>205.0</ele><time>2026-04-12T12:46:17.847Z</time></trkpt><trkpt lat="42.9415237" lon="12.6325251"><ele>205.0</ele><time>2026-04-12T12:46:18.849Z</time></trkpt><trkpt lat="42.941581" lon="12.6326773"><ele>205.0</ele><time>2026-04-12T12:46:19.856Z</time></trkpt><trkpt lat="42.941637" lon="12.6328314"><ele>205.0</ele><time>2026-04-12T12:46:20.852Z</time></trkpt><trkpt lat="42.9416947" lon="12.6329884"><ele>205.0</ele><time>2026-04-12T12:46:21.861Z</time></trkpt><trkpt lat="42.9417517" lon="12.6331489"><ele>205.0</ele><time>2026-04-12T12:46:22.858Z</time></trkpt><trkpt lat="42.9418122" lon="12.6333144"><ele>205.0</ele><time>2026-04-12T12:46:23.847Z</time></trkpt><trkpt lat="42.9418723" lon="12.6334754"><ele>205.25</ele><time>2026-04-12T12:46:24.848Z</time></trkpt><trkpt lat="42.9419328" lon="12.6336389"><ele>205.5</ele><time>2026-04-12T12:46:25.863Z</time></trkpt><trkpt lat="42.9419929" lon="12.6338039"><ele>205.75</ele><time>2026-04-12T12:46:26.849Z</time></trkpt><trkpt lat="42.9420537" lon="12.6339682"><ele>206.0</ele><time>2026-04-12T12:46:27.85Z</time></trkpt><trkpt lat="42.9421148" lon="12.6341332"><ele>206.0</ele><time>2026-04-12T12:46:28.848Z</time></trkpt><trkpt lat="42.9421731" lon="12.6342939"><ele>206.0</ele><time>2026-04-12T12:46:29.853Z</time></trkpt><trkpt lat="42.9422376" lon="12.6344597"><ele>206.0</ele><time>2026-04-12T12:46:30.836Z</time></trkpt><trkpt lat="42.9423" lon="12.6346244"><ele>206.0</ele><time>2026-04-12T12:46:31.846Z</time></trkpt><trkpt lat="42.9423612" lon="12.634791"><ele>206.0</ele><time>2026-04-12T12:46:32.858Z</time></trkpt><trkpt lat="42.9424244" lon="12.6349654"><ele>206.0</ele><time>2026-04-12T12:46:33.838Z</time></trkpt><trkpt lat="42.9424883" lon="12.6351403"><ele>206.0</ele><time>2026-04-12T12:46:34.845Z</time></trkpt><trkpt lat="42.9425524" lon="12.6353125"><ele>206.0</ele><time>2026-04-12T12:46:35.853Z</time></trkpt><trkpt lat="42.942613" lon="12.6354897"><ele>206.5</ele><time>2026-04-12T12:46:36.855Z</time></trkpt><trkpt lat="42.9426742" lon="12.6356669"><ele>207.0</ele><time>2026-04-12T12:46:37.85Z</time></trkpt><trkpt lat="42.9427383" lon="12.6358428"><ele>207.5</ele><time>2026-04-12T12:46:38.852Z</time></trkpt><trkpt lat="42.9428061" lon="12.6360154"><ele>208.0</ele><time>2026-04-12T12:46:39.842Z</time></trkpt><trkpt lat="42.9428729" lon="12.6361895"><ele>208.0</ele><time>2026-04-12T12:46:40.846Z</time></trkpt><trkpt lat="42.9429375" lon="12.6363653"><ele>208.0</ele><time>2026-04-12T12:46:41.851Z</time></trkpt><trkpt lat="42.9430029" lon="12.6365425"><ele>208.0</ele><time>2026-04-12T12:46:42.852Z</time></trkpt><trkpt lat="42.9430642" lon="12.6367225"><ele>208.0</ele><time>2026-04-12T12:46:43.849Z</time></trkpt><trkpt lat="42.9431277" lon="12.6368965"><ele>208.0</ele><time>2026-04-12T12:46:44.853Z</time></trkpt><trkpt lat="42.9431928" lon="12.6370725"><ele>208.0</ele><time>2026-04-12T12:46:45.855Z</time></trkpt><trkpt lat="42.9432572" lon="12.6372464"><ele>208.0</ele><time>2026-04-12T12:46:46.849Z</time></trkpt><trkpt lat="42.9433193" lon="12.6374183"><ele>208.0</ele><time>2026-04-12T12:46:47.851Z</time></trkpt><trkpt lat="42.9433835" lon="12.6375952"><ele>207.75</ele><time>2026-04-12T12:46:48.852Z</time></trkpt><trkpt lat="42.9434511" lon="12.6377717"><ele>207.5</ele><time>2026-04-12T12:46:49.875Z</time></trkpt><trkpt lat="42.943517" lon="12.637947"><ele>207.25</ele><time>2026-04-12T12:46:50.852Z</time></trkpt><trkpt lat="42.9435911" lon="12.638118"><ele>207.0</ele><time>2026-04-12T12:46:51.849Z</time></trkpt><trkpt lat="42.943672" lon="12.6382724"><ele>207.0</ele><time>2026-04-12T12:46:52.852Z</time></trkpt><trkpt lat="42.9437646" lon="12.6384136"><ele>207.0</ele><time>2026-04-12T12:46:53.851Z</time></trkpt><trkpt lat="42.9438692" lon="12.6385447"><ele>207.0</ele><time>2026-04-12T12:46:54.853Z</time></trkpt><trkpt lat="42.943975" lon="12.6386674"><ele>207.0</ele><time>2026-04-12T12:46:55.853Z</time></trkpt><trkpt lat="42.9440778" lon="12.6387957"><ele>207.0</ele><time>2026-04-12T12:46:56.852Z</time></trkpt><trkpt lat="42.9441784" lon="12.6389338"><ele>207.0</ele><time>2026-04-12T12:46:57.859Z</time></trkpt><trkpt lat="42.9442789" lon="12.6390824"><ele>207.0</ele><time>2026-04-12T12:46:58.847Z</time></trkpt><trkpt lat="42.9443747" lon="12.6392366"><ele>207.0</ele><time>2026-04-12T12:46:59.848Z</time></trkpt><trkpt lat="42.9444587" lon="12.6393954"><ele>206.5</ele><time>2026-04-12T12:47:00.854Z</time></trkpt><trkpt lat="42.9445323" lon="12.6395586"><ele>206.0</ele><time>2026-04-12T12:47:01.851Z</time></trkpt><trkpt lat="42.9446043" lon="12.6397249"><ele>205.5</ele><time>2026-04-12T12:47:02.849Z</time></trkpt><trkpt lat="42.9446768" lon="12.6399034"><ele>205.0</ele><time>2026-04-12T12:47:03.849Z</time></trkpt><trkpt lat="42.9447483" lon="12.6400847"><ele>205.0</ele><time>2026-04-12T12:47:04.848Z</time></trkpt><trkpt lat="42.9448218" lon="12.6402686"><ele>205.0</ele><time>2026-04-12T12:47:05.852Z</time></trkpt><trkpt lat="42.9448962" lon="12.6404476"><ele>205.0</ele><time>2026-04-12T12:47:06.849Z</time></trkpt><trkpt lat="42.944964" lon="12.6406191"><ele>205.0</ele><time>2026-04-12T12:47:07.845Z</time></trkpt><trkpt lat="42.9450278" lon="12.6407854"><ele>205.0</ele><time>2026-04-12T12:47:08.863Z</time></trkpt><trkpt lat="42.9450924" lon="12.6409438"><ele>205.0</ele><time>2026-04-12T12:47:09.841Z</time></trkpt><trkpt lat="42.9451562" lon="12.6411072"><ele>205.0</ele><time>2026-04-12T12:47:10.854Z</time></trkpt><trkpt lat="42.9452207" lon="12.6412641"><ele>205.0</ele><time>2026-04-12T12:47:11.848Z</time></trkpt><trkpt lat="42.9452857" lon="12.6414225"><ele>205.0</ele><time>2026-04-12T12:47:12.846Z</time></trkpt><trkpt lat="42.9453495" lon="12.6415832"><ele>205.0</ele><time>2026-04-12T12:47:13.861Z</time></trkpt><trkpt lat="42.9454149" lon="12.6417453"><ele>205.0</ele><time>2026-04-12T12:47:14.858Z</time></trkpt><trkpt lat="42.9454794" lon="12.6419121"><ele>205.0</ele><time>2026-04-12T12:47:15.85Z</time></trkpt><trkpt lat="42.9455403" lon="12.6420735"><ele>205.0</ele><time>2026-04-12T12:47:16.854Z</time></trkpt><trkpt lat="42.9456061" lon="12.6422454"><ele>205.0</ele><time>2026-04-12T12:47:17.851Z</time></trkpt><trkpt lat="42.9456739" lon="12.642412"><ele>205.0</ele><time>2026-04-12T12:47:18.844Z</time></trkpt><trkpt lat="42.9457394" lon="12.6425768"><ele>205.0</ele><time>2026-04-12T12:47:19.854Z</time></trkpt><trkpt lat="42.9458045" lon="12.6427438"><ele>205.0</ele><time>2026-04-12T12:47:20.852Z</time></trkpt><trkpt lat="42.9458695" lon="12.6429108"><ele>205.0</ele><time>2026-04-12T12:47:21.852Z</time></trkpt><trkpt lat="42.9459374" lon="12.6430776"><ele>205.0</ele><time>2026-04-12T12:47:22.846Z</time></trkpt><trkpt lat="42.9460073" lon="12.6432449"><ele>205.0</ele><time>2026-04-12T12:47:23.849Z</time></trkpt><trkpt lat="42.9460749" lon="12.6434085"><ele>205.0</ele><time>2026-04-12T12:47:24.85Z</time></trkpt><trkpt lat="42.9461411" lon="12.6435733"><ele>205.0</ele><time>2026-04-12T12:47:25.858Z</time></trkpt><trkpt lat="42.94621" lon="12.6437343"><ele>205.0</ele><time>2026-04-12T12:47:26.85Z</time></trkpt><trkpt lat="42.9462725" lon="12.6438961"><ele>205.0</ele><time>2026-04-12T12:47:27.854Z</time></trkpt><trkpt lat="42.9463395" lon="12.644059"><ele>205.25</ele><time>2026-04-12T12:47:28.846Z</time></trkpt><trkpt lat="42.9464029" lon="12.6442179"><ele>205.5</ele><time>2026-04-12T12:47:29.859Z</time></trkpt><trkpt lat="42.9464683" lon="12.6443834"><ele>205.75</ele><time>2026-04-12T12:47:30.854Z</time></trkpt><trkpt lat="42.9465317" lon="12.6445489"><ele>206.0</ele><time>2026-04-12T12:47:31.856Z</time></trkpt><trkpt lat="42.9465989" lon="12.6447152"><ele>206.0</ele><time>2026-04-12T12:47:32.854Z</time></trkpt><trkpt lat="42.9466654" lon="12.6448815"><ele>206.0</ele><time>2026-04-12T12:47:33.857Z</time></trkpt><trkpt lat="42.9467324" lon="12.6450473"><ele>206.0</ele><time>2026-04-12T12:47:34.856Z</time></trkpt><trkpt lat="42.9467995" lon="12.6452125"><ele>206.0</ele><time>2026-04-12T12:47:35.85Z</time></trkpt><trkpt lat="42.9468646" lon="12.6453751"><ele>206.25</ele><time>2026-04-12T12:47:36.846Z</time></trkpt><trkpt lat="42.9469312" lon="12.6455346"><ele>206.5</ele><time>2026-04-12T12:47:37.843Z</time></trkpt><trkpt lat="42.9469943" lon="12.6456968"><ele>206.75</ele><time>2026-04-12T12:47:38.846Z</time></trkpt><trkpt lat="42.9470556" lon="12.6458555"><ele>207.0</ele><time>2026-04-12T12:47:39.854Z</time></trkpt><trkpt lat="42.9471196" lon="12.6460188"><ele>207.0</ele><time>2026-04-12T12:47:40.86Z</time></trkpt><trkpt lat="42.9471827" lon="12.6461843"><ele>207.0</ele><time>2026-04-12T12:47:41.861Z</time></trkpt><trkpt lat="42.9472517" lon="12.6463501"><ele>207.0</ele><time>2026-04-12T12:47:42.85Z</time></trkpt><trkpt lat="42.9473207" lon="12.6465156"><ele>207.0</ele><time>2026-04-12T12:47:43.846Z</time></trkpt><trkpt lat="42.9473904" lon="12.6466881"><ele>207.0</ele><time>2026-04-12T12:47:44.84Z</time></trkpt><trkpt lat="42.9474578" lon="12.6468575"><ele>207.0</ele><time>2026-04-12T12:47:45.846Z</time></trkpt><trkpt lat="42.947525" lon="12.6470293"><ele>207.0</ele><time>2026-04-12T12:47:46.843Z</time></trkpt><trkpt lat="42.9475959" lon="12.6472037"><ele>207.0</ele><time>2026-04-12T12:47:47.843Z</time></trkpt><trkpt lat="42.9476665" lon="12.6473766"><ele>207.0</ele><time>2026-04-12T12:47:48.855Z</time></trkpt><trkpt lat="42.9477327" lon="12.647548"><ele>207.0</ele><time>2026-04-12T12:47:49.871Z</time></trkpt><trkpt lat="42.9478043" lon="12.6477217"><ele>207.0</ele><time>2026-04-12T12:47:50.847Z</time></trkpt><trkpt lat="42.9478734" lon="12.6478962"><ele>207.0</ele><time>2026-04-12T12:47:51.86Z</time></trkpt><trkpt lat="42.947944" lon="12.6480675"><ele>207.0</ele><time>2026-04-12T12:47:52.852Z</time></trkpt><trkpt lat="42.9480124" lon="12.648239"><ele>207.0</ele><time>2026-04-12T12:47:53.858Z</time></trkpt><trkpt lat="42.9480815" lon="12.648412"><ele>207.0</ele><time>2026-04-12T12:47:54.845Z</time></trkpt><trkpt lat="42.9481533" lon="12.6485853"><ele>207.0</ele><time>2026-04-12T12:47:55.853Z</time></trkpt><trkpt lat="42.9482235" lon="12.6487606"><ele>207.0</ele><time>2026-04-12T12:47:56.858Z</time></trkpt><trkpt lat="42.9482974" lon="12.6489366"><ele>207.0</ele><time>2026-04-12T12:47:57.85Z</time></trkpt><trkpt lat="42.9483676" lon="12.6491131"><ele>207.0</ele><time>2026-04-12T12:47:58.852Z</time></trkpt><trkpt lat="42.948436" lon="12.6492896"><ele>207.0</ele><time>2026-04-12T12:47:59.852Z</time></trkpt><trkpt lat="42.9485093" lon="12.6494666"><ele>206.66666666666669</ele><time>2026-04-12T12:48:00.858Z</time></trkpt><trkpt lat="42.9485847" lon="12.649648"><ele>206.33333333333334</ele><time>2026-04-12T12:48:01.845Z</time></trkpt><trkpt lat="42.9486578" lon="12.6498295"><ele>206.0</ele><time>2026-04-12T12:48:02.847Z</time></trkpt><trkpt lat="42.9487311" lon="12.6500124"><ele>206.0</ele><time>2026-04-12T12:48:03.843Z</time></trkpt><trkpt lat="42.9488052" lon="12.6501911"><ele>206.0</ele><time>2026-04-12T12:48:04.857Z</time></trkpt><trkpt lat="42.9488791" lon="12.6503725"><ele>206.0</ele><time>2026-04-12T12:48:05.854Z</time></trkpt><trkpt lat="42.9489549" lon="12.6505576"><ele>206.33333333333334</ele><time>2026-04-12T12:48:06.855Z</time></trkpt><trkpt lat="42.9490282" lon="12.6507415"><ele>206.66666666666669</ele><time>2026-04-12T12:48:07.857Z</time></trkpt><trkpt lat="42.9491037" lon="12.6509251"><ele>207.0</ele><time>2026-04-12T12:48:08.858Z</time></trkpt><trkpt lat="42.949178" lon="12.6511111"><ele>207.0</ele><time>2026-04-12T12:48:09.857Z</time></trkpt><trkpt lat="42.9492513" lon="12.6512969"><ele>207.0</ele><time>2026-04-12T12:48:10.857Z</time></trkpt><trkpt lat="42.9493233" lon="12.6514816"><ele>207.0</ele><time>2026-04-12T12:48:11.844Z</time></trkpt><trkpt lat="42.9493979" lon="12.6516669"><ele>207.0</ele><time>2026-04-12T12:48:12.866Z</time></trkpt><trkpt lat="42.9494722" lon="12.6518525"><ele>207.0</ele><time>2026-04-12T12:48:13.849Z</time></trkpt><trkpt lat="42.9495468" lon="12.6520384"><ele>207.0</ele><time>2026-04-12T12:48:14.847Z</time></trkpt><trkpt lat="42.9496241" lon="12.6522256"><ele>207.0</ele><time>2026-04-12T12:48:15.848Z</time></trkpt><trkpt lat="42.9497028" lon="12.6524124"><ele>207.0</ele><time>2026-04-12T12:48:16.857Z</time></trkpt><trkpt lat="42.9497791" lon="12.6526022"><ele>207.0</ele><time>2026-04-12T12:48:17.845Z</time></trkpt><trkpt lat="42.9498533" lon="12.6527876"><ele>207.0</ele><time>2026-04-12T12:48:18.85Z</time></trkpt><trkpt lat="42.9499285" lon="12.6529775"><ele>207.0</ele><time>2026-04-12T12:48:19.865Z</time></trkpt><trkpt lat="42.9500026" lon="12.6531692"><ele>207.0</ele><time>2026-04-12T12:48:20.858Z</time></trkpt><trkpt lat="42.9500783" lon="12.6533612"><ele>207.0</ele><time>2026-04-12T12:48:21.844Z</time></trkpt><trkpt lat="42.9501503" lon="12.6535509"><ele>207.0</ele><time>2026-04-12T12:48:22.842Z</time></trkpt><trkpt lat="42.9502236" lon="12.6537369"><ele>207.0</ele><time>2026-04-12T12:48:23.851Z</time></trkpt><trkpt lat="42.9503048" lon="12.6539234"><ele>207.0</ele><time>2026-04-12T12:48:24.849Z</time></trkpt><trkpt lat="42.9503795" lon="12.65411"><ele>207.0</ele><time>2026-04-12T12:48:25.849Z</time></trkpt><trkpt lat="42.9504521" lon="12.6542989"><ele>207.0</ele><time>2026-04-12T12:48:26.85Z</time></trkpt><trkpt lat="42.9505265" lon="12.6544844"><ele>207.33333333333331</ele><time>2026-04-12T12:48:27.851Z</time></trkpt><trkpt lat="42.9506018" lon="12.6546709"><ele>207.66666666666666</ele><time>2026-04-12T12:48:28.855Z</time></trkpt><trkpt lat="42.9506742" lon="12.6548638"><ele>208.0</ele><time>2026-04-12T12:48:29.858Z</time></trkpt><trkpt lat="42.9507512" lon="12.6550516"><ele>208.0</ele><time>2026-04-12T12:48:30.85Z</time></trkpt><trkpt lat="42.9508284" lon="12.6552397"><ele>208.0</ele><time>2026-04-12T12:48:31.848Z</time></trkpt><trkpt lat="42.9509081" lon="12.6554268"><ele>208.0</ele><time>2026-04-12T12:48:32.847Z</time></trkpt><trkpt lat="42.9509859" lon="12.6556131"><ele>208.33333333333331</ele><time>2026-04-12T12:48:33.842Z</time></trkpt><trkpt lat="42.9510615" lon="12.6558017"><ele>208.66666666666669</ele><time>2026-04-12T12:48:34.843Z</time></trkpt><trkpt lat="42.9511354" lon="12.6559916"><ele>209.0</ele><time>2026-04-12T12:48:35.85Z</time></trkpt><trkpt lat="42.9512096" lon="12.6561762"><ele>209.33333333333334</ele><time>2026-04-12T12:48:36.853Z</time></trkpt><trkpt lat="42.9512869" lon="12.6563659"><ele>209.66666666666669</ele><time>2026-04-12T12:48:37.866Z</time></trkpt><trkpt lat="42.9513625" lon="12.6565541"><ele>210.0</ele><time>2026-04-12T12:48:38.85Z</time></trkpt><trkpt lat="42.9514401" lon="12.6567413"><ele>210.0</ele><time>2026-04-12T12:48:39.848Z</time></trkpt><trkpt lat="42.9515163" lon="12.6569325"><ele>210.0</ele><time>2026-04-12T12:48:40.869Z</time></trkpt><trkpt lat="42.9515907" lon="12.657123"><ele>210.0</ele><time>2026-04-12T12:48:41.873Z</time></trkpt><trkpt lat="42.9516664" lon="12.6573146"><ele>210.0</ele><time>2026-04-12T12:48:42.855Z</time></trkpt><trkpt lat="42.9517426" lon="12.657509"><ele>210.0</ele><time>2026-04-12T12:48:43.857Z</time></trkpt><trkpt lat="42.9518202" lon="12.6576965"><ele>210.0</ele><time>2026-04-12T12:48:44.855Z</time></trkpt><trkpt lat="42.9518989" lon="12.6578859"><ele>210.0</ele><time>2026-04-12T12:48:45.854Z</time></trkpt><trkpt lat="42.9519768" lon="12.6580737"><ele>210.0</ele><time>2026-04-12T12:48:46.847Z</time></trkpt><trkpt lat="42.952055" lon="12.6582657"><ele>210.0</ele><time>2026-04-12T12:48:47.861Z</time></trkpt><trkpt lat="42.9521331" lon="12.6584497"><ele>210.66666666666669</ele><time>2026-04-12T12:48:48.855Z</time></trkpt><trkpt lat="42.9522112" lon="12.6586377"><ele>211.33333333333334</ele><time>2026-04-12T12:48:49.854Z</time></trkpt><trkpt lat="42.952287" lon="12.6588251"><ele>212.0</ele><time>2026-04-12T12:48:50.857Z</time></trkpt><trkpt lat="42.9523619" lon="12.6590092"><ele>212.0</ele><time>2026-04-12T12:48:51.852Z</time></trkpt><trkpt lat="42.9524367" lon="12.6591982"><ele>212.0</ele><time>2026-04-12T12:48:52.856Z</time></trkpt><trkpt lat="42.95251" lon="12.6593858"><ele>212.0</ele><time>2026-04-12T12:48:53.858Z</time></trkpt><trkpt lat="42.9525842" lon="12.6595655"><ele>212.0</ele><time>2026-04-12T12:48:54.851Z</time></trkpt><trkpt lat="42.9526569" lon="12.6597419"><ele>212.0</ele><time>2026-04-12T12:48:55.846Z</time></trkpt><trkpt lat="42.9527229" lon="12.6599064"><ele>212.0</ele><time>2026-04-12T12:48:56.856Z</time></trkpt><trkpt lat="42.9527855" lon="12.6600641"><ele>212.0</ele><time>2026-04-12T12:48:57.854Z</time></trkpt><trkpt lat="42.952846" lon="12.6602218"><ele>212.5</ele><time>2026-04-12T12:48:58.85Z</time></trkpt><trkpt lat="42.9529076" lon="12.6603726"><ele>213.0</ele><time>2026-04-12T12:48:59.853Z</time></trkpt><trkpt lat="42.952973" lon="12.6605371"><ele>213.5</ele><time>2026-04-12T12:49:00.852Z</time></trkpt><trkpt lat="42.9530362" lon="12.6607083"><ele>214.0</ele><time>2026-04-12T12:49:01.841Z</time></trkpt><trkpt lat="42.9531" lon="12.660874"><ele>214.0</ele><time>2026-04-12T12:49:02.853Z</time></trkpt><trkpt lat="42.9531553" lon="12.6610327"><ele>214.0</ele><time>2026-04-12T12:49:03.849Z</time></trkpt><trkpt lat="42.9532044" lon="12.6611781"><ele>214.0</ele><time>2026-04-12T12:49:04.858Z</time></trkpt><trkpt lat="42.9532462" lon="12.6613201"><ele>214.0</ele><time>2026-04-12T12:49:05.852Z</time></trkpt><trkpt lat="42.9532813" lon="12.661454"><ele>213.99999999999997</ele><time>2026-04-12T12:49:06.857Z</time></trkpt><trkpt lat="42.9533168" lon="12.6615796"><ele>214.0</ele><time>2026-04-12T12:49:07.843Z</time></trkpt><trkpt lat="42.9533492" lon="12.6616985"><ele>214.0</ele><time>2026-04-12T12:49:08.856Z</time></trkpt><trkpt lat="42.9533813" lon="12.6618054"><ele>214.0</ele><time>2026-04-12T12:49:09.855Z</time></trkpt><trkpt lat="42.9534089" lon="12.6619139"><ele>213.99999999999997</ele><time>2026-04-12T12:49:10.849Z</time></trkpt><trkpt lat="42.953435" lon="12.6620167"><ele>214.0</ele><time>2026-04-12T12:49:11.862Z</time></trkpt><trkpt lat="42.9534593" lon="12.6621083"><ele>213.6</ele><time>2026-04-12T12:49:12.853Z</time></trkpt><trkpt lat="42.9534918" lon="12.6622347"><ele>213.2</ele><time>2026-04-12T12:49:14.857Z</time></trkpt><trkpt lat="42.9535332" lon="12.6623711"><ele>212.79999999999998</ele><time>2026-04-12T12:49:17.849Z</time></trkpt><trkpt lat="42.9535719" lon="12.6625258"><ele>212.39999999999998</ele><time>2026-04-12T12:49:19.846Z</time></trkpt><trkpt lat="42.953599" lon="12.6626259"><ele>212.0</ele><time>2026-04-12T12:49:20.845Z</time></trkpt><trkpt lat="42.9536291" lon="12.6627394"><ele>212.39999999999998</ele><time>2026-04-12T12:49:21.855Z</time></trkpt><trkpt lat="42.9536607" lon="12.6628621"><ele>212.79999999999998</ele><time>2026-04-12T12:49:22.851Z</time></trkpt><trkpt lat="42.9536903" lon="12.6629897"><ele>213.2</ele><time>2026-04-12T12:49:23.852Z</time></trkpt><trkpt lat="42.9537246" lon="12.6631232"><ele>213.6</ele><time>2026-04-12T12:49:24.857Z</time></trkpt><trkpt lat="42.9537589" lon="12.6632594"><ele>214.0</ele><time>2026-04-12T12:49:25.859Z</time></trkpt><trkpt lat="42.9537942" lon="12.6634042"><ele>214.0</ele><time>2026-04-12T12:49:26.847Z</time></trkpt><trkpt lat="42.9538325" lon="12.6635532"><ele>214.0</ele><time>2026-04-12T12:49:27.872Z</time></trkpt><trkpt lat="42.9538692" lon="12.6637002"><ele>214.0</ele><time>2026-04-12T12:49:28.848Z</time></trkpt><trkpt lat="42.9539098" lon="12.6638515"><ele>214.0</ele><time>2026-04-12T12:49:29.848Z</time></trkpt><trkpt lat="42.9539524" lon="12.6640066"><ele>214.25</ele><time>2026-04-12T12:49:30.858Z</time></trkpt><trkpt lat="42.9539987" lon="12.6641529"><ele>214.5</ele><time>2026-04-12T12:49:31.853Z</time></trkpt><trkpt lat="42.9540513" lon="12.664295"><ele>214.75</ele><time>2026-04-12T12:49:32.844Z</time></trkpt><trkpt lat="42.9541123" lon="12.6644338"><ele>215.0</ele><time>2026-04-12T12:49:33.835Z</time></trkpt><trkpt lat="42.9541774" lon="12.6645726"><ele>215.25</ele><time>2026-04-12T12:49:34.841Z</time></trkpt><trkpt lat="42.9542445" lon="12.6647198"><ele>215.5</ele><time>2026-04-12T12:49:35.848Z</time></trkpt><trkpt lat="42.9543054" lon="12.6648632"><ele>215.75</ele><time>2026-04-12T12:49:36.844Z</time></trkpt><trkpt lat="42.9543713" lon="12.6650088"><ele>216.0</ele><time>2026-04-12T12:49:37.85Z</time></trkpt><trkpt lat="42.9544382" lon="12.6651473"><ele>216.0</ele><time>2026-04-12T12:49:38.853Z</time></trkpt><trkpt lat="42.95451" lon="12.6652846"><ele>216.0</ele><time>2026-04-12T12:49:39.849Z</time></trkpt><trkpt lat="42.9545883" lon="12.6654113"><ele>216.0</ele><time>2026-04-12T12:49:40.845Z</time></trkpt><trkpt lat="42.9546671" lon="12.6655291"><ele>216.0</ele><time>2026-04-12T12:49:41.862Z</time></trkpt><trkpt lat="42.9547432" lon="12.6656361"><ele>216.0</ele><time>2026-04-12T12:49:42.845Z</time></trkpt><trkpt lat="42.9548131" lon="12.6657295"><ele>216.0</ele><time>2026-04-12T12:49:43.843Z</time></trkpt><trkpt lat="42.9548783" lon="12.6658234"><ele>216.0</ele><time>2026-04-12T12:49:44.852Z</time></trkpt><trkpt lat="42.95494" lon="12.6659091"><ele>216.0</ele><time>2026-04-12T12:49:45.86Z</time></trkpt><trkpt lat="42.9549942" lon="12.6659857"><ele>216.0</ele><time>2026-04-12T12:49:46.848Z</time></trkpt><trkpt lat="42.955045" lon="12.6660566"><ele>216.0</ele><time>2026-04-12T12:49:47.854Z</time></trkpt><trkpt lat="42.9550947" lon="12.6661262"><ele>215.66666666666666</ele><time>2026-04-12T12:49:48.855Z</time></trkpt><trkpt lat="42.9551471" lon="12.666196"><ele>215.33333333333331</ele><time>2026-04-12T12:49:49.843Z</time></trkpt><trkpt lat="42.9552022" lon="12.6662687"><ele>215.0</ele><time>2026-04-12T12:49:50.849Z</time></trkpt><trkpt lat="42.9552554" lon="12.6663484"><ele>214.66666666666666</ele><time>2026-04-12T12:49:51.847Z</time></trkpt><trkpt lat="42.9553111" lon="12.6664332"><ele>214.33333333333331</ele><time>2026-04-12T12:49:52.852Z</time></trkpt><trkpt lat="42.955367" lon="12.666527"><ele>214.0</ele><time>2026-04-12T12:49:53.849Z</time></trkpt><trkpt lat="42.9554224" lon="12.6666198"><ele>214.00000000000003</ele><time>2026-04-12T12:49:54.865Z</time></trkpt><trkpt lat="42.9554701" lon="12.6667149"><ele>214.0</ele><time>2026-04-12T12:49:55.848Z</time></trkpt><trkpt lat="42.9555093" lon="12.6668091"><ele>214.0</ele><time>2026-04-12T12:49:56.846Z</time></trkpt><trkpt lat="42.9555485" lon="12.6668942"><ele>214.0</ele><time>2026-04-12T12:49:57.857Z</time></trkpt><trkpt lat="42.9555841" lon="12.6669751"><ele>214.0</ele><time>2026-04-12T12:49:58.857Z</time></trkpt><trkpt lat="42.955619" lon="12.6670569"><ele>214.00000000000003</ele><time>2026-04-12T12:49:59.855Z</time></trkpt><trkpt lat="42.9556545" lon="12.6671423"><ele>214.0</ele><time>2026-04-12T12:50:00.859Z</time></trkpt><trkpt lat="42.9556899" lon="12.6672362"><ele>214.0</ele><time>2026-04-12T12:50:01.855Z</time></trkpt><trkpt lat="42.9557315" lon="12.6673283"><ele>213.99999999999997</ele><time>2026-04-12T12:50:02.847Z</time></trkpt><trkpt lat="42.9557788" lon="12.6674327"><ele>213.99999999999997</ele><time>2026-04-12T12:50:03.846Z</time></trkpt><trkpt lat="42.9558264" lon="12.6675515"><ele>214.0</ele><time>2026-04-12T12:50:04.855Z</time></trkpt><trkpt lat="42.9558793" lon="12.6676734"><ele>214.0</ele><time>2026-04-12T12:50:05.845Z</time></trkpt><trkpt lat="42.9559372" lon="12.6678138"><ele>214.0</ele><time>2026-04-12T12:50:06.861Z</time></trkpt><trkpt lat="42.955994" lon="12.6679665"><ele>214.0</ele><time>2026-04-12T12:50:07.853Z</time></trkpt><trkpt lat="42.9560504" lon="12.6681153"><ele>214.0</ele><time>2026-04-12T12:50:08.855Z</time></trkpt><trkpt lat="42.9561136" lon="12.6682619"><ele>214.0</ele><time>2026-04-12T12:50:09.858Z</time></trkpt><trkpt lat="42.9561718" lon="12.6683899"><ele>214.0</ele><time>2026-04-12T12:50:10.852Z</time></trkpt><trkpt lat="42.9562193" lon="12.6685124"><ele>213.99999999999997</ele><time>2026-04-12T12:50:11.851Z</time></trkpt><trkpt lat="42.956268" lon="12.6686236"><ele>213.99999999999997</ele><time>2026-04-12T12:50:12.853Z</time></trkpt><trkpt lat="42.956312" lon="12.6687297"><ele>214.0</ele><time>2026-04-12T12:50:13.848Z</time></trkpt><trkpt lat="42.9563489" lon="12.6688323"><ele>214.0</ele><time>2026-04-12T12:50:14.845Z</time></trkpt><trkpt lat="42.9563897" lon="12.6689329"><ele>214.79999999999998</ele><time>2026-04-12T12:50:15.845Z</time></trkpt><trkpt lat="42.9564322" lon="12.6690362"><ele>215.59999999999997</ele><time>2026-04-12T12:50:16.847Z</time></trkpt><trkpt lat="42.9564796" lon="12.6691465"><ele>216.4</ele><time>2026-04-12T12:50:17.847Z</time></trkpt><trkpt lat="42.956527" lon="12.6692667"><ele>217.2</ele><time>2026-04-12T12:50:18.844Z</time></trkpt><trkpt lat="42.9565783" lon="12.6693906"><ele>218.0</ele><time>2026-04-12T12:50:19.85Z</time></trkpt><trkpt lat="42.9566331" lon="12.6695216"><ele>218.0</ele><time>2026-04-12T12:50:20.846Z</time></trkpt><trkpt lat="42.956688" lon="12.6696579"><ele>218.0</ele><time>2026-04-12T12:50:21.852Z</time></trkpt><trkpt lat="42.9567467" lon="12.6697986"><ele>218.0</ele><time>2026-04-12T12:50:22.852Z</time></trkpt><trkpt lat="42.9568074" lon="12.6699434"><ele>218.0</ele><time>2026-04-12T12:50:23.86Z</time></trkpt><trkpt lat="42.9568717" lon="12.6700914"><ele>217.75</ele><time>2026-04-12T12:50:24.858Z</time></trkpt><trkpt lat="42.9569389" lon="12.6702497"><ele>217.5</ele><time>2026-04-12T12:50:25.848Z</time></trkpt><trkpt lat="42.9570054" lon="12.6704132"><ele>217.25</ele><time>2026-04-12T12:50:26.847Z</time></trkpt><trkpt lat="42.9570693" lon="12.6705753"><ele>217.0</ele><time>2026-04-12T12:50:27.857Z</time></trkpt><trkpt lat="42.9571409" lon="12.6707432"><ele>217.0</ele><time>2026-04-12T12:50:28.846Z</time></trkpt><trkpt lat="42.9572131" lon="12.6709189"><ele>217.0</ele><time>2026-04-12T12:50:29.859Z</time></trkpt><trkpt lat="42.9572864" lon="12.6711031"><ele>217.0</ele><time>2026-04-12T12:50:30.851Z</time></trkpt><trkpt lat="42.9573606" lon="12.671289"><ele>217.0</ele><time>2026-04-12T12:50:31.849Z</time></trkpt><trkpt lat="42.9574382" lon="12.6714774"><ele>217.0</ele><time>2026-04-12T12:50:32.855Z</time></trkpt><trkpt lat="42.9575153" lon="12.6716649"><ele>217.0</ele><time>2026-04-12T12:50:33.854Z</time></trkpt><trkpt lat="42.9575959" lon="12.6718619"><ele>216.66666666666666</ele><time>2026-04-12T12:50:34.85Z</time></trkpt><trkpt lat="42.9576747" lon="12.6720554"><ele>216.33333333333331</ele><time>2026-04-12T12:50:35.844Z</time></trkpt><trkpt lat="42.957751" lon="12.6722533"><ele>216.0</ele><time>2026-04-12T12:50:36.841Z</time></trkpt><trkpt lat="42.9578309" lon="12.6724536"><ele>216.0</ele><time>2026-04-12T12:50:37.849Z</time></trkpt><trkpt lat="42.9579114" lon="12.6726514"><ele>216.0</ele><time>2026-04-12T12:50:38.842Z</time></trkpt><trkpt lat="42.9579904" lon="12.6728477"><ele>216.0</ele><time>2026-04-12T12:50:39.849Z</time></trkpt><trkpt lat="42.958071" lon="12.6730506"><ele>216.0</ele><time>2026-04-12T12:50:40.85Z</time></trkpt><trkpt lat="42.9581569" lon="12.6732569"><ele>216.0</ele><time>2026-04-12T12:50:41.862Z</time></trkpt><trkpt lat="42.9582446" lon="12.6734664"><ele>216.0</ele><time>2026-04-12T12:50:42.85Z</time></trkpt><trkpt lat="42.95833" lon="12.6736781"><ele>216.33333333333331</ele><time>2026-04-12T12:50:43.844Z</time></trkpt><trkpt lat="42.9584152" lon="12.673889"><ele>216.66666666666666</ele><time>2026-04-12T12:50:44.855Z</time></trkpt><trkpt lat="42.9585022" lon="12.6741002"><ele>217.0</ele><time>2026-04-12T12:50:45.862Z</time></trkpt><trkpt lat="42.9585877" lon="12.6743071"><ele>217.33333333333331</ele><time>2026-04-12T12:50:46.853Z</time></trkpt><trkpt lat="42.9586719" lon="12.6745135"><ele>217.66666666666669</ele><time>2026-04-12T12:50:47.858Z</time></trkpt><trkpt lat="42.9587553" lon="12.6747194"><ele>218.0</ele><time>2026-04-12T12:50:48.847Z</time></trkpt><trkpt lat="42.9588353" lon="12.6749239"><ele>218.0</ele><time>2026-04-12T12:50:49.845Z</time></trkpt><trkpt lat="42.9589174" lon="12.6751298"><ele>218.0</ele><time>2026-04-12T12:50:50.853Z</time></trkpt><trkpt lat="42.9589993" lon="12.6753409"><ele>218.0</ele><time>2026-04-12T12:50:51.853Z</time></trkpt><trkpt lat="42.9590822" lon="12.6755579"><ele>218.0</ele><time>2026-04-12T12:50:52.848Z</time></trkpt><trkpt lat="42.9591691" lon="12.6757691"><ele>218.0</ele><time>2026-04-12T12:50:53.855Z</time></trkpt><trkpt lat="42.9592552" lon="12.6759823"><ele>218.0</ele><time>2026-04-12T12:50:54.853Z</time></trkpt><trkpt lat="42.9593389" lon="12.6761957"><ele>218.0</ele><time>2026-04-12T12:50:55.853Z</time></trkpt><trkpt lat="42.9594237" lon="12.6764093"><ele>218.0</ele><time>2026-04-12T12:50:56.852Z</time></trkpt><trkpt lat="42.9595118" lon="12.6766254"><ele>218.0</ele><time>2026-04-12T12:50:57.855Z</time></trkpt><trkpt lat="42.9595955" lon="12.6768298"><ele>219.0</ele><time>2026-04-12T12:50:58.845Z</time></trkpt><trkpt lat="42.9596749" lon="12.6770203"><ele>220.0</ele><time>2026-04-12T12:50:59.847Z</time></trkpt><trkpt lat="42.9597521" lon="12.6772029"><ele>221.0</ele><time>2026-04-12T12:51:00.85Z</time></trkpt><trkpt lat="42.9598243" lon="12.6773791"><ele>221.0</ele><time>2026-04-12T12:51:01.852Z</time></trkpt><trkpt lat="42.9598964" lon="12.6775545"><ele>221.0</ele><time>2026-04-12T12:51:02.852Z</time></trkpt><trkpt lat="42.9599571" lon="12.6777208"><ele>221.0</ele><time>2026-04-12T12:51:03.851Z</time></trkpt><trkpt lat="42.9600217" lon="12.6778876"><ele>221.0</ele><time>2026-04-12T12:51:04.847Z</time></trkpt><trkpt lat="42.9600898" lon="12.6780589"><ele>221.5</ele><time>2026-04-12T12:51:05.854Z</time></trkpt><trkpt lat="42.9601546" lon="12.6782307"><ele>222.0</ele><time>2026-04-12T12:51:06.849Z</time></trkpt><trkpt lat="42.9602233" lon="12.6784122"><ele>222.5</ele><time>2026-04-12T12:51:07.852Z</time></trkpt><trkpt lat="42.9602979" lon="12.6785912"><ele>223.0</ele><time>2026-04-12T12:51:08.851Z</time></trkpt><trkpt lat="42.9603722" lon="12.6787783"><ele>223.0</ele><time>2026-04-12T12:51:09.857Z</time></trkpt><trkpt lat="42.9604494" lon="12.6789662"><ele>223.0</ele><time>2026-04-12T12:51:10.855Z</time></trkpt><trkpt lat="42.9605292" lon="12.6791551"><ele>223.0</ele><time>2026-04-12T12:51:11.859Z</time></trkpt><trkpt lat="42.96061" lon="12.6793504"><ele>223.33333333333331</ele><time>2026-04-12T12:51:12.855Z</time></trkpt><trkpt lat="42.9606878" lon="12.6795462"><ele>223.66666666666669</ele><time>2026-04-12T12:51:13.846Z</time></trkpt><trkpt lat="42.9607666" lon="12.679749"><ele>224.0</ele><time>2026-04-12T12:51:14.852Z</time></trkpt><trkpt lat="42.9608488" lon="12.6799522"><ele>224.0</ele><time>2026-04-12T12:51:15.852Z</time></trkpt><trkpt lat="42.9609309" lon="12.6801537"><ele>224.0</ele><time>2026-04-12T12:51:16.857Z</time></trkpt><trkpt lat="42.9610121" lon="12.6803549"><ele>224.0</ele><time>2026-04-12T12:51:17.854Z</time></trkpt><trkpt lat="42.9610925" lon="12.680552"><ele>224.33333333333334</ele><time>2026-04-12T12:51:18.847Z</time></trkpt><trkpt lat="42.9611745" lon="12.6807459"><ele>224.66666666666669</ele><time>2026-04-12T12:51:19.857Z</time></trkpt><trkpt lat="42.9612565" lon="12.680935"><ele>225.0</ele><time>2026-04-12T12:51:20.848Z</time></trkpt><trkpt lat="42.9613338" lon="12.6811227"><ele>225.0</ele><time>2026-04-12T12:51:21.855Z</time></trkpt><trkpt lat="42.9614071" lon="12.6813089"><ele>225.0</ele><time>2026-04-12T12:51:22.855Z</time></trkpt><trkpt lat="42.961485" lon="12.6814965"><ele>225.0</ele><time>2026-04-12T12:51:23.856Z</time></trkpt><trkpt lat="42.9615607" lon="12.681685"><ele>225.0</ele><time>2026-04-12T12:51:24.851Z</time></trkpt><trkpt lat="42.961635" lon="12.68186"><ele>225.0</ele><time>2026-04-12T12:51:25.85Z</time></trkpt><trkpt lat="42.9616985" lon="12.6820249"><ele>225.0</ele><time>2026-04-12T12:51:26.858Z</time></trkpt><trkpt lat="42.9617584" lon="12.6821796"><ele>225.0</ele><time>2026-04-12T12:51:27.852Z</time></trkpt><trkpt lat="42.9618161" lon="12.6823213"><ele>225.0</ele><time>2026-04-12T12:51:28.847Z</time></trkpt><trkpt lat="42.9618696" lon="12.6824601"><ele>225.0</ele><time>2026-04-12T12:51:29.857Z</time></trkpt><trkpt lat="42.9619068" lon="12.6825883"><ele>225.0</ele><time>2026-04-12T12:51:30.846Z</time></trkpt><trkpt lat="42.961931" lon="12.6827076"><ele>225.0</ele><time>2026-04-12T12:51:31.855Z</time></trkpt><trkpt lat="42.961941" lon="12.6828094"><ele>225.0</ele><time>2026-04-12T12:51:32.84Z</time></trkpt><trkpt lat="42.9619321" lon="12.6829117"><ele>225.0</ele><time>2026-04-12T12:51:33.846Z</time></trkpt><trkpt lat="42.9619163" lon="12.6830157"><ele>225.0</ele><time>2026-04-12T12:51:34.846Z</time></trkpt><trkpt lat="42.9619089" lon="12.6831196"><ele>225.0</ele><time>2026-04-12T12:51:35.853Z</time></trkpt><trkpt lat="42.9619211" lon="12.6832195"><ele>225.0</ele><time>2026-04-12T12:51:36.852Z</time></trkpt><trkpt lat="42.9619622" lon="12.6833092"><ele>225.0</ele><time>2026-04-12T12:51:37.847Z</time></trkpt><trkpt lat="42.9620189" lon="12.6833779"><ele>225.0</ele><time>2026-04-12T12:51:38.844Z</time></trkpt><trkpt lat="42.9620879" lon="12.6834057"><ele>225.0</ele><time>2026-04-12T12:51:39.855Z</time></trkpt><trkpt lat="42.9621568" lon="12.6834052"><ele>225.0</ele><time>2026-04-12T12:51:40.856Z</time></trkpt><trkpt lat="42.9622234" lon="12.6833733"><ele>225.0</ele><time>2026-04-12T12:51:41.853Z</time></trkpt><trkpt lat="42.9622731" lon="12.6833069"><ele>225.0</ele><time>2026-04-12T12:51:42.84Z</time></trkpt><trkpt lat="42.9623215" lon="12.6832005"><ele>225.0</ele><time>2026-04-12T12:51:43.857Z</time></trkpt><trkpt lat="42.9623661" lon="12.6831047"><ele>225.0</ele><time>2026-04-12T12:51:44.856Z</time></trkpt><trkpt lat="42.9624311" lon="12.6830044"><ele>225.0</ele><time>2026-04-12T12:51:45.846Z</time></trkpt><trkpt lat="42.9625071" lon="12.6829057"><ele>225.0</ele><time>2026-04-12T12:51:46.852Z</time></trkpt><trkpt lat="42.9625965" lon="12.6828164"><ele>225.0</ele><time>2026-04-12T12:51:47.851Z</time></trkpt><trkpt lat="42.9626955" lon="12.6827382"><ele>225.0</ele><time>2026-04-12T12:51:48.853Z</time></trkpt><trkpt lat="42.9627991" lon="12.6826546"><ele>224.75</ele><time>2026-04-12T12:51:49.853Z</time></trkpt><trkpt lat="42.9629055" lon="12.6825625"><ele>224.5</ele><time>2026-04-12T12:51:50.845Z</time></trkpt><trkpt lat="42.9630089" lon="12.6824699"><ele>224.25</ele><time>2026-04-12T12:51:51.864Z</time></trkpt><trkpt lat="42.9631149" lon="12.6823787"><ele>224.0</ele><time>2026-04-12T12:51:52.845Z</time></trkpt><trkpt lat="42.9632208" lon="12.6822859"><ele>224.0</ele><time>2026-04-12T12:51:53.849Z</time></trkpt><trkpt lat="42.9633248" lon="12.6821943"><ele>224.0</ele><time>2026-04-12T12:51:54.858Z</time></trkpt><trkpt lat="42.9634328" lon="12.6820988"><ele>224.0</ele><time>2026-04-12T12:51:55.861Z</time></trkpt><trkpt lat="42.9635434" lon="12.6819972"><ele>224.0</ele><time>2026-04-12T12:51:56.852Z</time></trkpt><trkpt lat="42.9636529" lon="12.6818975"><ele>223.75</ele><time>2026-04-12T12:51:57.853Z</time></trkpt><trkpt lat="42.9637653" lon="12.6817971"><ele>223.5</ele><time>2026-04-12T12:51:58.848Z</time></trkpt><trkpt lat="42.9638797" lon="12.6816932"><ele>223.25</ele><time>2026-04-12T12:51:59.852Z</time></trkpt><trkpt lat="42.9639913" lon="12.6815898"><ele>223.0</ele><time>2026-04-12T12:52:00.852Z</time></trkpt><trkpt lat="42.9640953" lon="12.6814862"><ele>223.0</ele><time>2026-04-12T12:52:01.857Z</time></trkpt><trkpt lat="42.9641943" lon="12.6813923"><ele>223.0</ele><time>2026-04-12T12:52:02.848Z</time></trkpt><trkpt lat="42.9642887" lon="12.6813115"><ele>223.0</ele><time>2026-04-12T12:52:03.856Z</time></trkpt><trkpt lat="42.964392" lon="12.6812556"><ele>223.0</ele><time>2026-04-12T12:52:04.853Z</time></trkpt><trkpt lat="42.9644859" lon="12.6812446"><ele>223.0</ele><time>2026-04-12T12:52:05.853Z</time></trkpt><trkpt lat="42.9645795" lon="12.6812378"><ele>223.4</ele><time>2026-04-12T12:52:06.851Z</time></trkpt><trkpt lat="42.9646592" lon="12.6811837"><ele>223.8</ele><time>2026-04-12T12:52:07.856Z</time></trkpt><trkpt lat="42.964724" lon="12.681094"><ele>224.2</ele><time>2026-04-12T12:52:08.85Z</time></trkpt><trkpt lat="42.9647706" lon="12.6809673"><ele>224.6</ele><time>2026-04-12T12:52:09.856Z</time></trkpt><trkpt lat="42.9648412" lon="12.6808542"><ele>225.0</ele><time>2026-04-12T12:52:10.844Z</time></trkpt><trkpt lat="42.9649305" lon="12.6807495"><ele>224.75</ele><time>2026-04-12T12:52:11.844Z</time></trkpt><trkpt lat="42.9650376" lon="12.6806577"><ele>224.5</ele><time>2026-04-12T12:52:12.85Z</time></trkpt><trkpt lat="42.9651477" lon="12.6805675"><ele>224.25</ele><time>2026-04-12T12:52:13.851Z</time></trkpt><trkpt lat="42.9652563" lon="12.6804729"><ele>224.0</ele><time>2026-04-12T12:52:14.857Z</time></trkpt><trkpt lat="42.9653685" lon="12.6803735"><ele>224.0</ele><time>2026-04-12T12:52:15.856Z</time></trkpt><trkpt lat="42.9654812" lon="12.6802731"><ele>224.0</ele><time>2026-04-12T12:52:16.844Z</time></trkpt><trkpt lat="42.9655951" lon="12.6801677"><ele>224.0</ele><time>2026-04-12T12:52:17.847Z</time></trkpt><trkpt lat="42.9657081" lon="12.6800641"><ele>224.0</ele><time>2026-04-12T12:52:18.854Z</time></trkpt><trkpt lat="42.9658182" lon="12.6799636"><ele>224.5</ele><time>2026-04-12T12:52:19.854Z</time></trkpt><trkpt lat="42.9659291" lon="12.6798601"><ele>225.0</ele><time>2026-04-12T12:52:20.856Z</time></trkpt><trkpt lat="42.9660463" lon="12.6797574"><ele>225.5</ele><time>2026-04-12T12:52:21.849Z</time></trkpt><trkpt lat="42.9661638" lon="12.6796564"><ele>226.0</ele><time>2026-04-12T12:52:22.845Z</time></trkpt><trkpt lat="42.9662837" lon="12.679553"><ele>226.0</ele><time>2026-04-12T12:52:23.844Z</time></trkpt><trkpt lat="42.9663965" lon="12.6794472"><ele>226.0</ele><time>2026-04-12T12:52:24.852Z</time></trkpt><trkpt lat="42.9665131" lon="12.6793386"><ele>226.0</ele><time>2026-04-12T12:52:25.853Z</time></trkpt><trkpt lat="42.966629" lon="12.6792347"><ele>226.0</ele><time>2026-04-12T12:52:26.859Z</time></trkpt><trkpt lat="42.9667464" lon="12.6791322"><ele>226.25</ele><time>2026-04-12T12:52:27.855Z</time></trkpt><trkpt lat="42.9668645" lon="12.6790298"><ele>226.5</ele><time>2026-04-12T12:52:28.842Z</time></trkpt><trkpt lat="42.9669802" lon="12.678928"><ele>226.75</ele><time>2026-04-12T12:52:29.858Z</time></trkpt><trkpt lat="42.967098" lon="12.6788241"><ele>227.0</ele><time>2026-04-12T12:52:30.861Z</time></trkpt><trkpt lat="42.9672092" lon="12.6787216"><ele>227.0</ele><time>2026-04-12T12:52:31.853Z</time></trkpt><trkpt lat="42.9673231" lon="12.6786131"><ele>227.0</ele><time>2026-04-12T12:52:32.858Z</time></trkpt><trkpt lat="42.9674351" lon="12.6785087"><ele>227.0</ele><time>2026-04-12T12:52:33.853Z</time></trkpt><trkpt lat="42.967543" lon="12.6784072"><ele>227.0</ele><time>2026-04-12T12:52:34.857Z</time></trkpt><trkpt lat="42.96765" lon="12.6783074"><ele>226.39999999999998</ele><time>2026-04-12T12:52:35.842Z</time></trkpt><trkpt lat="42.9677466" lon="12.6782164"><ele>225.79999999999998</ele><time>2026-04-12T12:52:36.857Z</time></trkpt><trkpt lat="42.9678416" lon="12.6781309"><ele>225.2</ele><time>2026-04-12T12:52:37.855Z</time></trkpt><trkpt lat="42.9679328" lon="12.6780466"><ele>224.6</ele><time>2026-04-12T12:52:38.85Z</time></trkpt><trkpt lat="42.968021" lon="12.6779664"><ele>224.0</ele><time>2026-04-12T12:52:39.852Z</time></trkpt><trkpt lat="42.9681074" lon="12.6778999"><ele>224.00000000000003</ele><time>2026-04-12T12:52:40.861Z</time></trkpt><trkpt lat="42.9681887" lon="12.6778446"><ele>224.0</ele><time>2026-04-12T12:52:41.853Z</time></trkpt><trkpt lat="42.9682768" lon="12.6778094"><ele>224.0</ele><time>2026-04-12T12:52:42.849Z</time></trkpt><trkpt lat="42.9683654" lon="12.6777831"><ele>224.0</ele><time>2026-04-12T12:52:43.849Z</time></trkpt><trkpt lat="42.9684488" lon="12.6777516"><ele>224.00000000000003</ele><time>2026-04-12T12:52:44.846Z</time></trkpt><trkpt lat="42.9685214" lon="12.6776837"><ele>224.0</ele><time>2026-04-12T12:52:45.855Z</time></trkpt><trkpt lat="42.968577" lon="12.6775843"><ele>224.2</ele><time>2026-04-12T12:52:46.854Z</time></trkpt><trkpt lat="42.9686272" lon="12.6774688"><ele>224.39999999999998</ele><time>2026-04-12T12:52:47.857Z</time></trkpt><trkpt lat="42.9686901" lon="12.6773669"><ele>224.6</ele><time>2026-04-12T12:52:48.849Z</time></trkpt><trkpt lat="42.9687783" lon="12.6772664"><ele>224.8</ele><time>2026-04-12T12:52:49.859Z</time></trkpt><trkpt lat="42.9688755" lon="12.6771711"><ele>225.0</ele><time>2026-04-12T12:52:50.85Z</time></trkpt><trkpt lat="42.9689813" lon="12.677079"><ele>225.0</ele><time>2026-04-12T12:52:51.845Z</time></trkpt><trkpt lat="42.9690874" lon="12.6769815"><ele>225.0</ele><time>2026-04-12T12:52:52.85Z</time></trkpt><trkpt lat="42.9691955" lon="12.6768836"><ele>225.0</ele><time>2026-04-12T12:52:53.857Z</time></trkpt><trkpt lat="42.9693009" lon="12.6767844"><ele>225.0</ele><time>2026-04-12T12:52:54.85Z</time></trkpt><trkpt lat="42.9694083" lon="12.6766863"><ele>224.75</ele><time>2026-04-12T12:52:55.859Z</time></trkpt><trkpt lat="42.9695171" lon="12.6765906"><ele>224.5</ele><time>2026-04-12T12:52:56.849Z</time></trkpt><trkpt lat="42.9696264" lon="12.6764926"><ele>224.25</ele><time>2026-04-12T12:52:57.865Z</time></trkpt><trkpt lat="42.9697404" lon="12.676391"><ele>224.0</ele><time>2026-04-12T12:52:58.849Z</time></trkpt><trkpt lat="42.9698549" lon="12.676285"><ele>224.0</ele><time>2026-04-12T12:52:59.861Z</time></trkpt><trkpt lat="42.9699732" lon="12.6761811"><ele>224.0</ele><time>2026-04-12T12:53:00.85Z</time></trkpt><trkpt lat="42.9700898" lon="12.6760739"><ele>224.0</ele><time>2026-04-12T12:53:01.852Z</time></trkpt><trkpt lat="42.9702056" lon="12.6759673"><ele>224.0</ele><time>2026-04-12T12:53:02.845Z</time></trkpt><trkpt lat="42.9703216" lon="12.6758603"><ele>224.25</ele><time>2026-04-12T12:53:03.856Z</time></trkpt><trkpt lat="42.9704424" lon="12.6757519"><ele>224.5</ele><time>2026-04-12T12:53:04.857Z</time></trkpt><trkpt lat="42.9705629" lon="12.6756467"><ele>224.75</ele><time>2026-04-12T12:53:05.854Z</time></trkpt><trkpt lat="42.9706785" lon="12.6755434"><ele>225.0</ele><time>2026-04-12T12:53:06.871Z</time></trkpt><trkpt lat="42.9707904" lon="12.6754348"><ele>224.75</ele><time>2026-04-12T12:53:07.848Z</time></trkpt><trkpt lat="42.9709034" lon="12.6753312"><ele>224.5</ele><time>2026-04-12T12:53:08.84Z</time></trkpt><trkpt lat="42.9710241" lon="12.6752288"><ele>224.25</ele><time>2026-04-12T12:53:09.85Z</time></trkpt><trkpt lat="42.9711484" lon="12.6751368"><ele>224.0</ele><time>2026-04-12T12:53:10.846Z</time></trkpt><trkpt lat="42.9712747" lon="12.6750525"><ele>223.75</ele><time>2026-04-12T12:53:11.848Z</time></trkpt><trkpt lat="42.9714051" lon="12.6749686"><ele>223.5</ele><time>2026-04-12T12:53:12.851Z</time></trkpt><trkpt lat="42.9715331" lon="12.6748794"><ele>223.25</ele><time>2026-04-12T12:53:13.848Z</time></trkpt><trkpt lat="42.9716669" lon="12.6747842"><ele>223.0</ele><time>2026-04-12T12:53:14.856Z</time></trkpt><trkpt lat="42.9717977" lon="12.6746908"><ele>222.75</ele><time>2026-04-12T12:53:15.851Z</time></trkpt><trkpt lat="42.9719307" lon="12.6745995"><ele>222.5</ele><time>2026-04-12T12:53:16.851Z</time></trkpt><trkpt lat="42.972061" lon="12.6745179"><ele>222.25</ele><time>2026-04-12T12:53:17.849Z</time></trkpt><trkpt lat="42.9721867" lon="12.674444"><ele>222.0</ele><time>2026-04-12T12:53:18.848Z</time></trkpt><trkpt lat="42.9723106" lon="12.6743881"><ele>221.0</ele><time>2026-04-12T12:53:19.851Z</time></trkpt><trkpt lat="42.9724351" lon="12.6743675"><ele>220.0</ele><time>2026-04-12T12:53:20.851Z</time></trkpt><trkpt lat="42.9725511" lon="12.674378"><ele>219.0</ele><time>2026-04-12T12:53:21.845Z</time></trkpt><trkpt lat="42.9726602" lon="12.6743843"><ele>218.0</ele><time>2026-04-12T12:53:22.857Z</time></trkpt><trkpt lat="42.9727645" lon="12.6743447"><ele>217.75</ele><time>2026-04-12T12:53:23.85Z</time></trkpt><trkpt lat="42.9728579" lon="12.6742547"><ele>217.5</ele><time>2026-04-12T12:53:24.855Z</time></trkpt><trkpt lat="42.97294" lon="12.674147"><ele>217.25</ele><time>2026-04-12T12:53:25.846Z</time></trkpt><trkpt lat="42.9730428" lon="12.6740604"><ele>217.0</ele><time>2026-04-12T12:53:26.846Z</time></trkpt><trkpt lat="42.973159" lon="12.6739926"><ele>217.0</ele><time>2026-04-12T12:53:27.854Z</time></trkpt><trkpt lat="42.973291" lon="12.6739447"><ele>217.0</ele><time>2026-04-12T12:53:28.843Z</time></trkpt><trkpt lat="42.9734248" lon="12.6738923"><ele>217.0</ele><time>2026-04-12T12:53:29.862Z</time></trkpt><trkpt lat="42.9735616" lon="12.6738439"><ele>217.0</ele><time>2026-04-12T12:53:30.845Z</time></trkpt><trkpt lat="42.9737059" lon="12.6738059"><ele>217.33333333333331</ele><time>2026-04-12T12:53:31.835Z</time></trkpt><trkpt lat="42.973856" lon="12.6737844"><ele>217.66666666666669</ele><time>2026-04-12T12:53:32.856Z</time></trkpt><trkpt lat="42.9740035" lon="12.673779"><ele>218.0</ele><time>2026-04-12T12:53:33.846Z</time></trkpt><trkpt lat="42.9741554" lon="12.6737931"><ele>217.0</ele><time>2026-04-12T12:53:34.856Z</time></trkpt><trkpt lat="42.9743027" lon="12.6738251"><ele>216.0</ele><time>2026-04-12T12:53:35.846Z</time></trkpt><trkpt lat="42.9744461" lon="12.6738812"><ele>215.0</ele><time>2026-04-12T12:53:36.85Z</time></trkpt><trkpt lat="42.9745866" lon="12.6739513"><ele>214.0</ele><time>2026-04-12T12:53:37.86Z</time></trkpt><trkpt lat="42.9747246" lon="12.67404"><ele>214.0</ele><time>2026-04-12T12:53:38.85Z</time></trkpt><trkpt lat="42.9748544" lon="12.6741437"><ele>214.0</ele><time>2026-04-12T12:53:39.848Z</time></trkpt><trkpt lat="42.9749745" lon="12.6742711"><ele>214.0</ele><time>2026-04-12T12:53:40.854Z</time></trkpt><trkpt lat="42.9750903" lon="12.6744134"><ele>216.0</ele><time>2026-04-12T12:53:41.852Z</time></trkpt><trkpt lat="42.9751942" lon="12.6745692"><ele>218.0</ele><time>2026-04-12T12:53:42.843Z</time></trkpt><trkpt lat="42.9752911" lon="12.6747318"><ele>220.0</ele><time>2026-04-12T12:53:43.838Z</time></trkpt><trkpt lat="42.9753879" lon="12.6749048"><ele>220.0</ele><time>2026-04-12T12:53:44.848Z</time></trkpt><trkpt lat="42.9754809" lon="12.6750831"><ele>220.0</ele><time>2026-04-12T12:53:45.855Z</time></trkpt><trkpt lat="42.9755798" lon="12.675262"><ele>220.0</ele><time>2026-04-12T12:53:46.849Z</time></trkpt><trkpt lat="42.9756748" lon="12.6754463"><ele>220.33333333333331</ele><time>2026-04-12T12:53:47.843Z</time></trkpt><trkpt lat="42.9757764" lon="12.6756329"><ele>220.66666666666669</ele><time>2026-04-12T12:53:48.852Z</time></trkpt><trkpt lat="42.9758767" lon="12.675819"><ele>221.0</ele><time>2026-04-12T12:53:49.844Z</time></trkpt><trkpt lat="42.9759776" lon="12.6760113"><ele>220.33333333333334</ele><time>2026-04-12T12:53:50.836Z</time></trkpt><trkpt lat="42.9760748" lon="12.6761993"><ele>219.66666666666669</ele><time>2026-04-12T12:53:51.849Z</time></trkpt><trkpt lat="42.9761756" lon="12.6763883"><ele>219.0</ele><time>2026-04-12T12:53:52.85Z</time></trkpt><trkpt lat="42.976276" lon="12.6765811"><ele>219.0</ele><time>2026-04-12T12:53:53.847Z</time></trkpt><trkpt lat="42.9763767" lon="12.6767741"><ele>219.0</ele><time>2026-04-12T12:53:54.85Z</time></trkpt><trkpt lat="42.9764811" lon="12.6769672"><ele>219.0</ele><time>2026-04-12T12:53:55.847Z</time></trkpt><trkpt lat="42.9765841" lon="12.6771613"><ele>219.33333333333331</ele><time>2026-04-12T12:53:56.851Z</time></trkpt><trkpt lat="42.9766864" lon="12.6773569"><ele>219.66666666666666</ele><time>2026-04-12T12:53:57.852Z</time></trkpt><trkpt lat="42.9767885" lon="12.6775464"><ele>220.0</ele><time>2026-04-12T12:53:58.849Z</time></trkpt><trkpt lat="42.9768891" lon="12.677729"><ele>219.5</ele><time>2026-04-12T12:53:59.853Z</time></trkpt><trkpt lat="42.9769835" lon="12.6778969"><ele>219.0</ele><time>2026-04-12T12:54:00.854Z</time></trkpt><trkpt lat="42.9770732" lon="12.6780466"><ele>218.5</ele><time>2026-04-12T12:54:01.844Z</time></trkpt><trkpt lat="42.9771632" lon="12.6781869"><ele>218.0</ele><time>2026-04-12T12:54:02.858Z</time></trkpt><trkpt lat="42.9772499" lon="12.6783159"><ele>218.0</ele><time>2026-04-12T12:54:03.848Z</time></trkpt><trkpt lat="42.9773283" lon="12.6784392"><ele>218.0</ele><time>2026-04-12T12:54:04.854Z</time></trkpt><trkpt lat="42.9774042" lon="12.6785583"><ele>218.0</ele><time>2026-04-12T12:54:05.856Z</time></trkpt><trkpt lat="42.9774737" lon="12.6786697"><ele>218.0</ele><time>2026-04-12T12:54:06.86Z</time></trkpt><trkpt lat="42.9775341" lon="12.6787795"><ele>218.0</ele><time>2026-04-12T12:54:07.856Z</time></trkpt><trkpt lat="42.9775806" lon="12.6788904"><ele>218.50000000000003</ele><time>2026-04-12T12:54:08.846Z</time></trkpt><trkpt lat="42.9776029" lon="12.6790179"><ele>219.0</ele><time>2026-04-12T12:54:09.846Z</time></trkpt><trkpt lat="42.9776276" lon="12.6791378"><ele>219.5</ele><time>2026-04-12T12:54:10.85Z</time></trkpt><trkpt lat="42.9776807" lon="12.6792159"><ele>220.0</ele><time>2026-04-12T12:54:11.863Z</time></trkpt><trkpt lat="42.977753" lon="12.6792605"><ele>220.50000000000003</ele><time>2026-04-12T12:54:12.855Z</time></trkpt><trkpt lat="42.9778323" lon="12.6792623"><ele>221.0</ele><time>2026-04-12T12:54:13.858Z</time></trkpt><trkpt lat="42.9779107" lon="12.6792118"><ele>221.0</ele><time>2026-04-12T12:54:14.852Z</time></trkpt><trkpt lat="42.9779819" lon="12.6791315"><ele>221.00000000000003</ele><time>2026-04-12T12:54:15.852Z</time></trkpt><trkpt lat="42.9780516" lon="12.679033"><ele>221.00000000000003</ele><time>2026-04-12T12:54:16.847Z</time></trkpt><trkpt lat="42.9781286" lon="12.6789212"><ele>221.0</ele><time>2026-04-12T12:54:17.851Z</time></trkpt><trkpt lat="42.9782123" lon="12.6787928"><ele>221.0</ele><time>2026-04-12T12:54:18.854Z</time></trkpt><trkpt lat="42.9782952" lon="12.6786532"><ele>221.0</ele><time>2026-04-12T12:54:19.848Z</time></trkpt><trkpt lat="42.9783847" lon="12.6785066"><ele>221.0</ele><time>2026-04-12T12:54:20.859Z</time></trkpt><trkpt lat="42.9784797" lon="12.6783553"><ele>221.0</ele><time>2026-04-12T12:54:21.861Z</time></trkpt><trkpt lat="42.9785804" lon="12.6781955"><ele>221.0</ele><time>2026-04-12T12:54:22.859Z</time></trkpt><trkpt lat="42.9786857" lon="12.6780357"><ele>221.0</ele><time>2026-04-12T12:54:23.853Z</time></trkpt><trkpt lat="42.9787925" lon="12.677867"><ele>221.0</ele><time>2026-04-12T12:54:24.857Z</time></trkpt><trkpt lat="42.9788989" lon="12.6776961"><ele>221.0</ele><time>2026-04-12T12:54:25.862Z</time></trkpt><trkpt lat="42.9790035" lon="12.6775237"><ele>221.0</ele><time>2026-04-12T12:54:26.857Z</time></trkpt><trkpt lat="42.9791134" lon="12.6773483"><ele>221.0</ele><time>2026-04-12T12:54:27.89Z</time></trkpt><trkpt lat="42.9792244" lon="12.6771708"><ele>221.0</ele><time>2026-04-12T12:54:28.854Z</time></trkpt><trkpt lat="42.9793353" lon="12.6769909"><ele>221.0</ele><time>2026-04-12T12:54:29.852Z</time></trkpt><trkpt lat="42.9794469" lon="12.6768014"><ele>221.0</ele><time>2026-04-12T12:54:30.844Z</time></trkpt><trkpt lat="42.9795528" lon="12.6766181"><ele>221.0</ele><time>2026-04-12T12:54:31.847Z</time></trkpt><trkpt lat="42.9796626" lon="12.6764367"><ele>221.0</ele><time>2026-04-12T12:54:32.846Z</time></trkpt><trkpt lat="42.9797756" lon="12.6762582"><ele>221.0</ele><time>2026-04-12T12:54:33.854Z</time></trkpt><trkpt lat="42.9798868" lon="12.6760812"><ele>221.0</ele><time>2026-04-12T12:54:34.847Z</time></trkpt><trkpt lat="42.9800005" lon="12.6759014"><ele>221.33333333333334</ele><time>2026-04-12T12:54:35.865Z</time></trkpt><trkpt lat="42.9801098" lon="12.675721"><ele>221.66666666666669</ele><time>2026-04-12T12:54:36.85Z</time></trkpt><trkpt lat="42.980224" lon="12.6755378"><ele>222.0</ele><time>2026-04-12T12:54:37.852Z</time></trkpt><trkpt lat="42.9803359" lon="12.6753541"><ele>221.66666666666669</ele><time>2026-04-12T12:54:38.855Z</time></trkpt><trkpt lat="42.9804488" lon="12.6751699"><ele>221.33333333333334</ele><time>2026-04-12T12:54:39.854Z</time></trkpt><trkpt lat="42.9805611" lon="12.6749831"><ele>221.0</ele><time>2026-04-12T12:54:40.861Z</time></trkpt><trkpt lat="42.9806708" lon="12.6747992"><ele>221.0</ele><time>2026-04-12T12:54:41.847Z</time></trkpt><trkpt lat="42.9807819" lon="12.6746083"><ele>221.0</ele><time>2026-04-12T12:54:42.846Z</time></trkpt><trkpt lat="42.9808893" lon="12.6744137"><ele>221.0</ele><time>2026-04-12T12:54:43.851Z</time></trkpt><trkpt lat="42.9810002" lon="12.67422"><ele>220.33333333333334</ele><time>2026-04-12T12:54:44.847Z</time></trkpt><trkpt lat="42.9811111" lon="12.674025"><ele>219.66666666666669</ele><time>2026-04-12T12:54:45.849Z</time></trkpt><trkpt lat="42.9812232" lon="12.6738337"><ele>219.0</ele><time>2026-04-12T12:54:46.853Z</time></trkpt><trkpt lat="42.9813348" lon="12.6736403"><ele>219.33333333333331</ele><time>2026-04-12T12:54:47.855Z</time></trkpt><trkpt lat="42.9814452" lon="12.6734449"><ele>219.66666666666666</ele><time>2026-04-12T12:54:48.861Z</time></trkpt><trkpt lat="42.9815563" lon="12.6732465"><ele>220.0</ele><time>2026-04-12T12:54:49.845Z</time></trkpt><trkpt lat="42.9816647" lon="12.6730521"><ele>220.33333333333331</ele><time>2026-04-12T12:54:50.852Z</time></trkpt><trkpt lat="42.9817688" lon="12.6728599"><ele>220.66666666666669</ele><time>2026-04-12T12:54:51.841Z</time></trkpt><trkpt lat="42.9818752" lon="12.6726743"><ele>221.0</ele><time>2026-04-12T12:54:52.863Z</time></trkpt><trkpt lat="42.9819824" lon="12.6724855"><ele>221.33333333333334</ele><time>2026-04-12T12:54:53.855Z</time></trkpt><trkpt lat="42.9820936" lon="12.6722958"><ele>221.66666666666669</ele><time>2026-04-12T12:54:54.852Z</time></trkpt><trkpt lat="42.9822033" lon="12.6721028"><ele>222.0</ele><time>2026-04-12T12:54:55.851Z</time></trkpt><trkpt lat="42.9823147" lon="12.6719123"><ele>222.0</ele><time>2026-04-12T12:54:56.855Z</time></trkpt><trkpt lat="42.9824266" lon="12.6717205"><ele>222.0</ele><time>2026-04-12T12:54:57.848Z</time></trkpt><trkpt lat="42.982535" lon="12.6715338"><ele>222.0</ele><time>2026-04-12T12:54:58.851Z</time></trkpt><trkpt lat="42.9826408" lon="12.6713488"><ele>221.0</ele><time>2026-04-12T12:54:59.842Z</time></trkpt><trkpt lat="42.9827451" lon="12.671163"><ele>220.0</ele><time>2026-04-12T12:55:00.858Z</time></trkpt><trkpt lat="42.9828536" lon="12.670981"><ele>219.0</ele><time>2026-04-12T12:55:01.845Z</time></trkpt><trkpt lat="42.9829656" lon="12.6708013"><ele>219.0</ele><time>2026-04-12T12:55:02.851Z</time></trkpt><trkpt lat="42.9830739" lon="12.6706262"><ele>219.0</ele><time>2026-04-12T12:55:03.846Z</time></trkpt><trkpt lat="42.9831759" lon="12.6704622"><ele>219.0</ele><time>2026-04-12T12:55:04.856Z</time></trkpt><trkpt lat="42.9832698" lon="12.6703088"><ele>219.25</ele><time>2026-04-12T12:55:05.851Z</time></trkpt><trkpt lat="42.9833611" lon="12.6701625"><ele>219.5</ele><time>2026-04-12T12:55:06.853Z</time></trkpt><trkpt lat="42.9834465" lon="12.6700201"><ele>219.75</ele><time>2026-04-12T12:55:07.858Z</time></trkpt><trkpt lat="42.9835328" lon="12.6698801"><ele>220.0</ele><time>2026-04-12T12:55:08.844Z</time></trkpt><trkpt lat="42.9836191" lon="12.6697377"><ele>220.0</ele><time>2026-04-12T12:55:09.856Z</time></trkpt><trkpt lat="42.9837046" lon="12.6695984"><ele>220.0</ele><time>2026-04-12T12:55:10.855Z</time></trkpt><trkpt lat="42.9837831" lon="12.6694708"><ele>220.0</ele><time>2026-04-12T12:55:11.845Z</time></trkpt><trkpt lat="42.9838595" lon="12.6693455"><ele>220.0</ele><time>2026-04-12T12:55:12.851Z</time></trkpt><trkpt lat="42.9839354" lon="12.6692301"><ele>219.83333333333331</ele><time>2026-04-12T12:55:13.85Z</time></trkpt><trkpt lat="42.9839985" lon="12.6691244"><ele>219.66666666666666</ele><time>2026-04-12T12:55:14.854Z</time></trkpt><trkpt lat="42.9840491" lon="12.6690285"><ele>219.5</ele><time>2026-04-12T12:55:15.851Z</time></trkpt><trkpt lat="42.9840781" lon="12.6689344"><ele>219.33333333333331</ele><time>2026-04-12T12:55:16.852Z</time></trkpt><trkpt lat="42.9840763" lon="12.668835"><ele>219.16666666666666</ele><time>2026-04-12T12:55:17.853Z</time></trkpt><trkpt lat="42.9840498" lon="12.6687434"><ele>219.0</ele><time>2026-04-12T12:55:18.846Z</time></trkpt><trkpt lat="42.9840149" lon="12.6686518"><ele>219.0</ele><time>2026-04-12T12:55:19.852Z</time></trkpt><trkpt lat="42.9839795" lon="12.6685415"><ele>218.99999999999997</ele><time>2026-04-12T12:55:20.847Z</time></trkpt><trkpt lat="42.9839489" lon="12.6684141"><ele>218.99999999999997</ele><time>2026-04-12T12:55:21.857Z</time></trkpt><trkpt lat="42.983928" lon="12.6682787"><ele>219.0</ele><time>2026-04-12T12:55:22.864Z</time></trkpt><trkpt lat="42.9839029" lon="12.668123"><ele>219.0</ele><time>2026-04-12T12:55:23.847Z</time></trkpt><trkpt lat="42.9838727" lon="12.6679663"><ele>219.0</ele><time>2026-04-12T12:55:24.846Z</time></trkpt><trkpt lat="42.9838469" lon="12.6678086"><ele>219.0</ele><time>2026-04-12T12:55:25.853Z</time></trkpt><trkpt lat="42.9838169" lon="12.6676457"><ele>219.0</ele><time>2026-04-12T12:55:26.852Z</time></trkpt><trkpt lat="42.9837775" lon="12.6674807"><ele>219.0</ele><time>2026-04-12T12:55:27.854Z</time></trkpt><trkpt lat="42.9837366" lon="12.6673148"><ele>219.5</ele><time>2026-04-12T12:55:28.851Z</time></trkpt><trkpt lat="42.9836907" lon="12.6671473"><ele>220.0</ele><time>2026-04-12T12:55:29.861Z</time></trkpt><trkpt lat="42.9836447" lon="12.6669856"><ele>220.5</ele><time>2026-04-12T12:55:30.853Z</time></trkpt><trkpt lat="42.9836016" lon="12.666828"><ele>221.0</ele><time>2026-04-12T12:55:31.863Z</time></trkpt><trkpt lat="42.9835806" lon="12.6666809"><ele>220.20000000000002</ele><time>2026-04-12T12:55:32.862Z</time></trkpt><trkpt lat="42.983591" lon="12.6665387"><ele>219.40000000000003</ele><time>2026-04-12T12:55:33.85Z</time></trkpt><trkpt lat="42.9836353" lon="12.6664173"><ele>218.6</ele><time>2026-04-12T12:55:34.845Z</time></trkpt><trkpt lat="42.9836931" lon="12.6663177"><ele>217.8</ele><time>2026-04-12T12:55:35.852Z</time></trkpt><trkpt lat="42.9837687" lon="12.6662321"><ele>217.0</ele><time>2026-04-12T12:55:36.851Z</time></trkpt><trkpt lat="42.9838577" lon="12.6661415"><ele>216.8</ele><time>2026-04-12T12:55:37.852Z</time></trkpt><trkpt lat="42.9839528" lon="12.6660546"><ele>216.6</ele><time>2026-04-12T12:55:38.847Z</time></trkpt><trkpt lat="42.9840445" lon="12.6659802"><ele>216.40000000000003</ele><time>2026-04-12T12:55:39.848Z</time></trkpt><trkpt lat="42.9841355" lon="12.6659149"><ele>216.20000000000002</ele><time>2026-04-12T12:55:40.856Z</time></trkpt><trkpt lat="42.9842281" lon="12.6658821"><ele>216.0</ele><time>2026-04-12T12:55:41.868Z</time></trkpt><trkpt lat="42.9843203" lon="12.6658801"><ele>216.0</ele><time>2026-04-12T12:55:42.852Z</time></trkpt><trkpt lat="42.9844055" lon="12.6659225"><ele>216.00000000000003</ele><time>2026-04-12T12:55:43.845Z</time></trkpt><trkpt lat="42.9844748" lon="12.6659891"><ele>216.00000000000003</ele><time>2026-04-12T12:55:44.851Z</time></trkpt><trkpt lat="42.9845384" lon="12.6660474"><ele>216.0</ele><time>2026-04-12T12:55:45.855Z</time></trkpt><trkpt lat="42.9846363" lon="12.6660272"><ele>216.0</ele><time>2026-04-12T12:55:46.848Z</time></trkpt><trkpt lat="42.9847586" lon="12.6659899"><ele>216.0</ele><time>2026-04-12T12:55:47.85Z</time></trkpt><trkpt lat="42.9848748" lon="12.6659808"><ele>216.0</ele><time>2026-04-12T12:55:48.852Z</time></trkpt><trkpt lat="42.9849938" lon="12.666003"><ele>216.0</ele><time>2026-04-12T12:55:49.855Z</time></trkpt><trkpt lat="42.9851067" lon="12.6660515"><ele>216.0</ele><time>2026-04-12T12:55:50.856Z</time></trkpt><trkpt lat="42.9852213" lon="12.6661185"><ele>216.75</ele><time>2026-04-12T12:55:51.853Z</time></trkpt><trkpt lat="42.9853401" lon="12.666182"><ele>217.5</ele><time>2026-04-12T12:55:52.844Z</time></trkpt><trkpt lat="42.9854649" lon="12.6662499"><ele>218.25</ele><time>2026-04-12T12:55:53.858Z</time></trkpt><trkpt lat="42.9855897" lon="12.6663168"><ele>219.0</ele><time>2026-04-12T12:55:54.855Z</time></trkpt><trkpt lat="42.985708" lon="12.6663882"><ele>219.0</ele><time>2026-04-12T12:55:55.848Z</time></trkpt><trkpt lat="42.9858192" lon="12.6664534"><ele>219.0</ele><time>2026-04-12T12:55:56.854Z</time></trkpt><trkpt lat="42.9859212" lon="12.666517"><ele>219.0</ele><time>2026-04-12T12:55:57.85Z</time></trkpt><trkpt lat="42.9860202" lon="12.6665858"><ele>219.0</ele><time>2026-04-12T12:55:58.854Z</time></trkpt><trkpt lat="42.9861126" lon="12.6666686"><ele>219.0</ele><time>2026-04-12T12:55:59.851Z</time></trkpt><trkpt lat="42.9862049" lon="12.6667735"><ele>219.0</ele><time>2026-04-12T12:56:00.847Z</time></trkpt><trkpt lat="42.9862829" lon="12.6668973"><ele>219.0</ele><time>2026-04-12T12:56:01.859Z</time></trkpt><trkpt lat="42.9863546" lon="12.6670362"><ele>219.0</ele><time>2026-04-12T12:56:02.85Z</time></trkpt><trkpt lat="42.986424" lon="12.6671901"><ele>219.5</ele><time>2026-04-12T12:56:03.855Z</time></trkpt><trkpt lat="42.9864925" lon="12.6673434"><ele>220.0</ele><time>2026-04-12T12:56:04.851Z</time></trkpt><trkpt lat="42.986568" lon="12.6674958"><ele>220.5</ele><time>2026-04-12T12:56:05.85Z</time></trkpt><trkpt lat="42.9866429" lon="12.667646"><ele>221.0</ele><time>2026-04-12T12:56:06.844Z</time></trkpt><trkpt lat="42.9867122" lon="12.6677907"><ele>221.0</ele><time>2026-04-12T12:56:07.846Z</time></trkpt><trkpt lat="42.9867814" lon="12.6679322"><ele>221.00000000000003</ele><time>2026-04-12T12:56:08.85Z</time></trkpt><trkpt lat="42.9868523" lon="12.6680635"><ele>221.00000000000003</ele><time>2026-04-12T12:56:09.846Z</time></trkpt><trkpt lat="42.9869068" lon="12.6681929"><ele>221.0</ele><time>2026-04-12T12:56:10.851Z</time></trkpt><trkpt lat="42.9869395" lon="12.6683074"><ele>221.0</ele><time>2026-04-12T12:56:11.845Z</time></trkpt><trkpt lat="42.9869543" lon="12.6683976"><ele>221.00000000000003</ele><time>2026-04-12T12:56:12.841Z</time></trkpt><trkpt lat="42.9869455" lon="12.6685266"><ele>221.0</ele><time>2026-04-12T12:56:14.841Z</time></trkpt><trkpt lat="42.9869262" lon="12.6686768"><ele>221.0</ele><time>2026-04-12T12:56:16.851Z</time></trkpt><trkpt lat="42.9869254" lon="12.6687683"><ele>221.0</ele><time>2026-04-12T12:56:17.844Z</time></trkpt><trkpt lat="42.9869261" lon="12.6688736"><ele>221.00000000000003</ele><time>2026-04-12T12:56:18.851Z</time></trkpt><trkpt lat="42.9869344" lon="12.6689842"><ele>221.0</ele><time>2026-04-12T12:56:19.848Z</time></trkpt><trkpt lat="42.9869474" lon="12.6690974"><ele>221.0</ele><time>2026-04-12T12:56:20.853Z</time></trkpt><trkpt lat="42.9869666" lon="12.6692203"><ele>221.00000000000003</ele><time>2026-04-12T12:56:21.845Z</time></trkpt><trkpt lat="42.9869899" lon="12.6693497"><ele>221.00000000000003</ele><time>2026-04-12T12:56:22.858Z</time></trkpt><trkpt lat="42.9870176" lon="12.6694749"><ele>221.0</ele><time>2026-04-12T12:56:23.855Z</time></trkpt><trkpt lat="42.9870454" lon="12.6696019"><ele>221.0</ele><time>2026-04-12T12:56:24.853Z</time></trkpt><trkpt lat="42.9870809" lon="12.6697268"><ele>221.0</ele><time>2026-04-12T12:56:25.853Z</time></trkpt><trkpt lat="42.9871138" lon="12.6698518"><ele>221.00000000000003</ele><time>2026-04-12T12:56:26.855Z</time></trkpt><trkpt lat="42.9871484" lon="12.6699777"><ele>221.00000000000003</ele><time>2026-04-12T12:56:27.85Z</time></trkpt><trkpt lat="42.9871808" lon="12.6700999"><ele>221.0</ele><time>2026-04-12T12:56:28.857Z</time></trkpt><trkpt lat="42.9872133" lon="12.6702273"><ele>221.0</ele><time>2026-04-12T12:56:29.847Z</time></trkpt><trkpt lat="42.987246" lon="12.6703559"><ele>222.0</ele><time>2026-04-12T12:56:30.85Z</time></trkpt><trkpt lat="42.9872783" lon="12.6704863"><ele>223.00000000000003</ele><time>2026-04-12T12:56:31.853Z</time></trkpt><trkpt lat="42.9873152" lon="12.6706192"><ele>224.00000000000003</ele><time>2026-04-12T12:56:32.853Z</time></trkpt><trkpt lat="42.987353" lon="12.6707479"><ele>225.0</ele><time>2026-04-12T12:56:33.849Z</time></trkpt><trkpt lat="42.9873911" lon="12.6708622"><ele>226.0</ele><time>2026-04-12T12:56:34.849Z</time></trkpt><trkpt lat="42.9874283" lon="12.6709635"><ele>226.0</ele><time>2026-04-12T12:56:35.853Z</time></trkpt><trkpt lat="42.9874597" lon="12.6710488"><ele>226.00000000000003</ele><time>2026-04-12T12:56:36.851Z</time></trkpt><trkpt lat="42.9875102" lon="12.6711771"><ele>226.00000000000003</ele><time>2026-04-12T12:56:38.855Z</time></trkpt><trkpt lat="42.9875485" lon="12.6712961"><ele>226.0</ele><time>2026-04-12T12:56:40.86Z</time></trkpt><trkpt lat="42.9875649" lon="12.671408"><ele>226.0</ele><time>2026-04-12T12:56:42.849Z</time></trkpt><trkpt lat="42.9875246" lon="12.6715502"><ele>226.33333333333331</ele><time>2026-04-12T12:56:44.854Z</time></trkpt><trkpt lat="42.9874847" lon="12.6716271"><ele>226.66666666666666</ele><time>2026-04-12T12:56:45.849Z</time></trkpt><trkpt lat="42.9874446" lon="12.6717214"><ele>227.0</ele><time>2026-04-12T12:56:46.845Z</time></trkpt><trkpt lat="42.9873896" lon="12.6718263"><ele>227.33333333333331</ele><time>2026-04-12T12:56:47.853Z</time></trkpt><trkpt lat="42.9873317" lon="12.6719324"><ele>227.66666666666666</ele><time>2026-04-12T12:56:48.85Z</time></trkpt><trkpt lat="42.9872796" lon="12.6720527"><ele>228.0</ele><time>2026-04-12T12:56:49.851Z</time></trkpt><trkpt lat="42.9872298" lon="12.6721775"><ele>228.2</ele><time>2026-04-12T12:56:50.852Z</time></trkpt><trkpt lat="42.9871793" lon="12.6723141"><ele>228.4</ele><time>2026-04-12T12:56:51.852Z</time></trkpt><trkpt lat="42.9871266" lon="12.6724488"><ele>228.59999999999997</ele><time>2026-04-12T12:56:52.855Z</time></trkpt><trkpt lat="42.9870747" lon="12.6725839"><ele>228.79999999999998</ele><time>2026-04-12T12:56:53.845Z</time></trkpt><trkpt lat="42.9870232" lon="12.6727202"><ele>229.0</ele><time>2026-04-12T12:56:54.861Z</time></trkpt><trkpt lat="42.9869727" lon="12.6728412"><ele>228.99999999999997</ele><time>2026-04-12T12:56:55.851Z</time></trkpt><trkpt lat="42.986929" lon="12.6729512"><ele>229.0</ele><time>2026-04-12T12:56:56.847Z</time></trkpt><trkpt lat="42.9868898" lon="12.6730565"><ele>229.0</ele><time>2026-04-12T12:56:57.872Z</time></trkpt><trkpt lat="42.9868449" lon="12.6731574"><ele>229.0</ele><time>2026-04-12T12:56:58.858Z</time></trkpt><trkpt lat="42.9868014" lon="12.6732452"><ele>228.99999999999997</ele><time>2026-04-12T12:56:59.856Z</time></trkpt><trkpt lat="42.9867638" lon="12.6733301"><ele>229.0</ele><time>2026-04-12T12:57:00.855Z</time></trkpt><trkpt lat="42.9867138" lon="12.6734018"><ele>229.0</ele><time>2026-04-12T12:57:01.859Z</time></trkpt><trkpt lat="42.9866151" lon="12.6735125"><ele>229.0</ele><time>2026-04-12T12:57:03.865Z</time></trkpt><trkpt lat="42.9865942" lon="12.6736638"><ele>229.0</ele><time>2026-04-12T12:57:05.848Z</time></trkpt><trkpt lat="42.9866734" lon="12.6737549"><ele>229.0</ele><time>2026-04-12T12:57:07.851Z</time></trkpt><trkpt lat="42.9867822" lon="12.6737326"><ele>228.99999999999997</ele><time>2026-04-12T12:57:09.853Z</time></trkpt><trkpt lat="42.9868437" lon="12.6736903"><ele>229.0</ele><time>2026-04-12T12:57:10.844Z</time></trkpt><trkpt lat="42.9869101" lon="12.6736401"><ele>229.0</ele><time>2026-04-12T12:57:11.854Z</time></trkpt><trkpt lat="42.9869811" lon="12.6735824"><ele>229.0</ele><time>2026-04-12T12:57:12.85Z</time></trkpt><trkpt lat="42.9870564" lon="12.6735165"><ele>228.99999999999997</ele><time>2026-04-12T12:57:13.848Z</time></trkpt><trkpt lat="42.9871271" lon="12.673451"><ele>229.0</ele><time>2026-04-12T12:57:14.847Z</time></trkpt><trkpt lat="42.9871927" lon="12.6733931"><ele>229.0</ele><time>2026-04-12T12:57:15.85Z</time></trkpt><trkpt lat="42.9873171" lon="12.673343"><ele>228.99999999999997</ele><time>2026-04-12T12:57:17.84Z</time></trkpt><trkpt lat="42.9874092" lon="12.6734549"><ele>228.99999999999997</ele><time>2026-04-12T12:57:19.849Z</time></trkpt><trkpt lat="42.9874378" lon="12.6735338"><ele>229.0</ele><time>2026-04-12T12:57:20.855Z</time></trkpt><trkpt lat="42.9874696" lon="12.673636"><ele>229.0</ele><time>2026-04-12T12:57:21.86Z</time></trkpt><trkpt lat="42.987512" lon="12.6737383"><ele>229.2</ele><time>2026-04-12T12:57:22.85Z</time></trkpt><trkpt lat="42.9875602" lon="12.673839"><ele>229.39999999999998</ele><time>2026-04-12T12:57:23.855Z</time></trkpt><trkpt lat="42.9876107" lon="12.6739385"><ele>229.6</ele><time>2026-04-12T12:57:24.848Z</time></trkpt><trkpt lat="42.9876636" lon="12.6740379"><ele>229.8</ele><time>2026-04-12T12:57:25.858Z</time></trkpt><trkpt lat="42.9877195" lon="12.6741423"><ele>230.0</ele><time>2026-04-12T12:57:26.84Z</time></trkpt><trkpt lat="42.9877698" lon="12.6742469"><ele>230.0</ele><time>2026-04-12T12:57:27.85Z</time></trkpt><trkpt lat="42.9878279" lon="12.6743472"><ele>230.0</ele><time>2026-04-12T12:57:28.855Z</time></trkpt><trkpt lat="42.9878881" lon="12.6744495"><ele>230.0</ele><time>2026-04-12T12:57:29.858Z</time></trkpt><trkpt lat="42.987949" lon="12.6745537"><ele>230.0</ele><time>2026-04-12T12:57:30.854Z</time></trkpt><trkpt lat="42.9880074" lon="12.6746599"><ele>230.0</ele><time>2026-04-12T12:57:31.855Z</time></trkpt><trkpt lat="42.9880666" lon="12.6747515"><ele>230.2</ele><time>2026-04-12T12:57:32.849Z</time></trkpt><trkpt lat="42.9881298" lon="12.6748429"><ele>230.4</ele><time>2026-04-12T12:57:33.849Z</time></trkpt><trkpt lat="42.9881958" lon="12.6749249"><ele>230.60000000000002</ele><time>2026-04-12T12:57:34.85Z</time></trkpt><trkpt lat="42.9882783" lon="12.6749939"><ele>230.8</ele><time>2026-04-12T12:57:35.842Z</time></trkpt><trkpt lat="42.9883761" lon="12.6750402"><ele>231.0</ele><time>2026-04-12T12:57:36.85Z</time></trkpt><trkpt lat="42.9884807" lon="12.6750764"><ele>231.5</ele><time>2026-04-12T12:57:37.848Z</time></trkpt><trkpt lat="42.9885848" lon="12.6750925"><ele>232.0</ele><time>2026-04-12T12:57:38.855Z</time></trkpt><trkpt lat="42.988698" lon="12.6750887"><ele>232.5</ele><time>2026-04-12T12:57:39.856Z</time></trkpt><trkpt lat="42.9888148" lon="12.6750805"><ele>233.0</ele><time>2026-04-12T12:57:40.857Z</time></trkpt><trkpt lat="42.9889291" lon="12.6750673"><ele>233.0</ele><time>2026-04-12T12:57:41.856Z</time></trkpt><trkpt lat="42.9890435" lon="12.6750604"><ele>233.0</ele><time>2026-04-12T12:57:42.847Z</time></trkpt><trkpt lat="42.9891576" lon="12.6750514"><ele>233.0</ele><time>2026-04-12T12:57:43.845Z</time></trkpt><trkpt lat="42.9892722" lon="12.6750472"><ele>233.0</ele><time>2026-04-12T12:57:44.849Z</time></trkpt><trkpt lat="42.9893855" lon="12.6750414"><ele>233.60000000000002</ele><time>2026-04-12T12:57:45.847Z</time></trkpt><trkpt lat="42.9894969" lon="12.6750322"><ele>234.20000000000002</ele><time>2026-04-12T12:57:46.856Z</time></trkpt><trkpt lat="42.9896034" lon="12.6750127"><ele>234.8</ele><time>2026-04-12T12:57:47.852Z</time></trkpt><trkpt lat="42.9897083" lon="12.6749753"><ele>235.4</ele><time>2026-04-12T12:57:48.848Z</time></trkpt><trkpt lat="42.9898027" lon="12.6749261"><ele>236.0</ele><time>2026-04-12T12:57:49.845Z</time></trkpt><trkpt lat="42.9898948" lon="12.6748681"><ele>236.0</ele><time>2026-04-12T12:57:50.85Z</time></trkpt><trkpt lat="42.9899762" lon="12.6747955"><ele>236.00000000000003</ele><time>2026-04-12T12:57:51.852Z</time></trkpt><trkpt lat="42.9900538" lon="12.6747109"><ele>236.00000000000003</ele><time>2026-04-12T12:57:52.844Z</time></trkpt><trkpt lat="42.9901303" lon="12.6746153"><ele>236.0</ele><time>2026-04-12T12:57:53.844Z</time></trkpt><trkpt lat="42.9902183" lon="12.6745088"><ele>236.0</ele><time>2026-04-12T12:57:54.845Z</time></trkpt><trkpt lat="42.9903064" lon="12.6744008"><ele>236.5</ele><time>2026-04-12T12:57:55.845Z</time></trkpt><trkpt lat="42.9904023" lon="12.6742967"><ele>237.0</ele><time>2026-04-12T12:57:56.851Z</time></trkpt><trkpt lat="42.9904983" lon="12.6741924"><ele>237.5</ele><time>2026-04-12T12:57:57.848Z</time></trkpt><trkpt lat="42.9905981" lon="12.6741019"><ele>238.0</ele><time>2026-04-12T12:57:58.847Z</time></trkpt><trkpt lat="42.9907067" lon="12.6740267"><ele>238.0</ele><time>2026-04-12T12:57:59.849Z</time></trkpt><trkpt lat="42.9908323" lon="12.6739651"><ele>238.0</ele><time>2026-04-12T12:58:00.848Z</time></trkpt><trkpt lat="42.9909687" lon="12.6739326"><ele>238.0</ele><time>2026-04-12T12:58:01.852Z</time></trkpt><trkpt lat="42.9911076" lon="12.6739229"><ele>238.0</ele><time>2026-04-12T12:58:02.857Z</time></trkpt><trkpt lat="42.9912325" lon="12.6739258"><ele>238.0</ele><time>2026-04-12T12:58:03.85Z</time></trkpt><trkpt lat="42.9913572" lon="12.6739292"><ele>238.0</ele><time>2026-04-12T12:58:04.85Z</time></trkpt><trkpt lat="42.9914709" lon="12.6739196"><ele>238.0</ele><time>2026-04-12T12:58:05.853Z</time></trkpt><trkpt lat="42.9915736" lon="12.6739128"><ele>238.0</ele><time>2026-04-12T12:58:06.855Z</time></trkpt><trkpt lat="42.9916667" lon="12.6738978"><ele>238.0</ele><time>2026-04-12T12:58:07.842Z</time></trkpt><trkpt lat="42.991747" lon="12.6738772"><ele>237.99999999999997</ele><time>2026-04-12T12:58:08.862Z</time></trkpt><trkpt lat="42.9918226" lon="12.6738343"><ele>238.0</ele><time>2026-04-12T12:58:09.844Z</time></trkpt><trkpt lat="42.9918765" lon="12.6737548"><ele>238.0</ele><time>2026-04-12T12:58:10.844Z</time></trkpt><trkpt lat="42.9919099" lon="12.6736435"><ele>238.0</ele><time>2026-04-12T12:58:11.854Z</time></trkpt><trkpt lat="42.991931" lon="12.6735205"><ele>237.99999999999997</ele><time>2026-04-12T12:58:12.852Z</time></trkpt><trkpt lat="42.9919672" lon="12.6734059"><ele>238.0</ele><time>2026-04-12T12:58:13.852Z</time></trkpt><trkpt lat="42.9920446" lon="12.6733446"><ele>239.4</ele><time>2026-04-12T12:58:14.838Z</time></trkpt><trkpt lat="42.9921393" lon="12.6733234"><ele>240.8</ele><time>2026-04-12T12:58:15.848Z</time></trkpt><trkpt lat="42.9922451" lon="12.6733332"><ele>242.2</ele><time>2026-04-12T12:58:16.843Z</time></trkpt><trkpt lat="42.9923463" lon="12.6733511"><ele>243.6</ele><time>2026-04-12T12:58:17.855Z</time></trkpt><trkpt lat="42.9924668" lon="12.6733751"><ele>245.0</ele><time>2026-04-12T12:58:18.855Z</time></trkpt><trkpt lat="42.9925906" lon="12.6733981"><ele>246.25</ele><time>2026-04-12T12:58:19.85Z</time></trkpt><trkpt lat="42.992717" lon="12.6734251"><ele>247.5</ele><time>2026-04-12T12:58:20.854Z</time></trkpt><trkpt lat="42.9928441" lon="12.6734538"><ele>248.75</ele><time>2026-04-12T12:58:21.856Z</time></trkpt><trkpt lat="42.9929775" lon="12.6734891"><ele>250.0</ele><time>2026-04-12T12:58:22.854Z</time></trkpt><trkpt lat="42.993117" lon="12.6735254"><ele>250.0</ele><time>2026-04-12T12:58:23.854Z</time></trkpt><trkpt lat="42.9932606" lon="12.6735567"><ele>250.0</ele><time>2026-04-12T12:58:24.845Z</time></trkpt><trkpt lat="42.9934036" lon="12.6735762"><ele>250.0</ele><time>2026-04-12T12:58:25.855Z</time></trkpt><trkpt lat="42.9935383" lon="12.6735991"><ele>250.0</ele><time>2026-04-12T12:58:26.853Z</time></trkpt><trkpt lat="42.9936737" lon="12.6736231"><ele>249.0</ele><time>2026-04-12T12:58:27.84Z</time></trkpt><trkpt lat="42.993811" lon="12.6736493"><ele>248.0</ele><time>2026-04-12T12:58:28.843Z</time></trkpt><trkpt lat="42.9939486" lon="12.6736759"><ele>247.0</ele><time>2026-04-12T12:58:29.853Z</time></trkpt><trkpt lat="42.994071" lon="12.6736944"><ele>246.0</ele><time>2026-04-12T12:58:30.848Z</time></trkpt><trkpt lat="42.9941931" lon="12.6737219"><ele>246.0</ele><time>2026-04-12T12:58:31.847Z</time></trkpt><trkpt lat="42.9943107" lon="12.6737591"><ele>246.0</ele><time>2026-04-12T12:58:32.845Z</time></trkpt><trkpt lat="42.9944341" lon="12.6738086"><ele>246.0</ele><time>2026-04-12T12:58:33.838Z</time></trkpt><trkpt lat="42.9945578" lon="12.673861"><ele>246.0</ele><time>2026-04-12T12:58:34.857Z</time></trkpt><trkpt lat="42.9946802" lon="12.6739096"><ele>246.0</ele><time>2026-04-12T12:58:35.848Z</time></trkpt><trkpt lat="42.9948032" lon="12.6739569"><ele>246.0</ele><time>2026-04-12T12:58:36.855Z</time></trkpt><trkpt lat="42.9949185" lon="12.6740011"><ele>246.0</ele><time>2026-04-12T12:58:37.857Z</time></trkpt><trkpt lat="42.9950269" lon="12.6740433"><ele>246.0</ele><time>2026-04-12T12:58:38.855Z</time></trkpt><trkpt lat="42.9951271" lon="12.6740825"><ele>246.4</ele><time>2026-04-12T12:58:39.847Z</time></trkpt><trkpt lat="42.9952259" lon="12.6741154"><ele>246.8</ele><time>2026-04-12T12:58:40.847Z</time></trkpt><trkpt lat="42.9953195" lon="12.6741395"><ele>247.20000000000002</ele><time>2026-04-12T12:58:41.86Z</time></trkpt><trkpt lat="42.9954142" lon="12.6741519"><ele>247.60000000000002</ele><time>2026-04-12T12:58:42.855Z</time></trkpt><trkpt lat="42.9955215" lon="12.6741516"><ele>248.0</ele><time>2026-04-12T12:58:43.85Z</time></trkpt><trkpt lat="42.9956301" lon="12.6741314"><ele>248.0</ele><time>2026-04-12T12:58:44.848Z</time></trkpt><trkpt lat="42.9957436" lon="12.6740964"><ele>248.0</ele><time>2026-04-12T12:58:45.859Z</time></trkpt><trkpt lat="42.995855" lon="12.674067"><ele>248.0</ele><time>2026-04-12T12:58:46.842Z</time></trkpt><trkpt lat="42.9959695" lon="12.6740425"><ele>248.0</ele><time>2026-04-12T12:58:47.877Z</time></trkpt><trkpt lat="42.9960865" lon="12.6740229"><ele>248.75</ele><time>2026-04-12T12:58:48.852Z</time></trkpt><trkpt lat="42.99621" lon="12.6739991"><ele>249.5</ele><time>2026-04-12T12:58:49.853Z</time></trkpt><trkpt lat="42.9963354" lon="12.6739735"><ele>250.25</ele><time>2026-04-12T12:58:50.849Z</time></trkpt><trkpt lat="42.9964636" lon="12.6739494"><ele>251.0</ele><time>2026-04-12T12:58:51.845Z</time></trkpt><trkpt lat="42.9965949" lon="12.6739265"><ele>252.75</ele><time>2026-04-12T12:58:52.853Z</time></trkpt><trkpt lat="42.9967259" lon="12.673907"><ele>254.5</ele><time>2026-04-12T12:58:53.848Z</time></trkpt><trkpt lat="42.9968623" lon="12.6738982"><ele>256.25</ele><time>2026-04-12T12:58:54.852Z</time></trkpt><trkpt lat="42.997001" lon="12.6738925"><ele>258.0</ele><time>2026-04-12T12:58:55.849Z</time></trkpt><trkpt lat="42.9971408" lon="12.6738908"><ele>258.0</ele><time>2026-04-12T12:58:56.841Z</time></trkpt><trkpt lat="42.9972763" lon="12.6738983"><ele>258.0</ele><time>2026-04-12T12:58:57.843Z</time></trkpt><trkpt lat="42.9974131" lon="12.6739192"><ele>258.0</ele><time>2026-04-12T12:58:58.844Z</time></trkpt><trkpt lat="42.9975512" lon="12.6739654"><ele>258.0</ele><time>2026-04-12T12:58:59.844Z</time></trkpt><trkpt lat="42.9976842" lon="12.6740321"><ele>259.25</ele><time>2026-04-12T12:59:00.852Z</time></trkpt><trkpt lat="42.997812" lon="12.6741197"><ele>260.5</ele><time>2026-04-12T12:59:01.852Z</time></trkpt><trkpt lat="42.9979367" lon="12.674215"><ele>261.75</ele><time>2026-04-12T12:59:02.862Z</time></trkpt><trkpt lat="42.9980579" lon="12.6743226"><ele>263.0</ele><time>2026-04-12T12:59:03.852Z</time></trkpt><trkpt lat="42.9981767" lon="12.674439"><ele>263.0</ele><time>2026-04-12T12:59:04.852Z</time></trkpt><trkpt lat="42.9982987" lon="12.674553"><ele>263.0</ele><time>2026-04-12T12:59:05.851Z</time></trkpt><trkpt lat="42.9984174" lon="12.6746577"><ele>263.0</ele><time>2026-04-12T12:59:06.854Z</time></trkpt><trkpt lat="42.9985313" lon="12.6747558"><ele>263.0</ele><time>2026-04-12T12:59:07.856Z</time></trkpt><trkpt lat="42.9986429" lon="12.6748564"><ele>264.8</ele><time>2026-04-12T12:59:08.844Z</time></trkpt><trkpt lat="42.9987474" lon="12.6749501"><ele>266.6</ele><time>2026-04-12T12:59:09.839Z</time></trkpt><trkpt lat="42.9988367" lon="12.675045"><ele>268.4</ele><time>2026-04-12T12:59:10.855Z</time></trkpt><trkpt lat="42.9989041" lon="12.6751421"><ele>270.2</ele><time>2026-04-12T12:59:11.849Z</time></trkpt><trkpt lat="42.9989591" lon="12.675244"><ele>272.0</ele><time>2026-04-12T12:59:12.853Z</time></trkpt><trkpt lat="42.9989966" lon="12.6753296"><ele>272.0</ele><time>2026-04-12T12:59:13.845Z</time></trkpt><trkpt lat="42.9990786" lon="12.675426"><ele>272.0</ele><time>2026-04-12T12:59:15.844Z</time></trkpt><trkpt lat="42.9991252" lon="12.6753319"><ele>272.0</ele><time>2026-04-12T12:59:17.852Z</time></trkpt><trkpt lat="42.9990615" lon="12.6751763"><ele>272.0</ele><time>2026-04-12T12:59:19.843Z</time></trkpt><trkpt lat="42.999009" lon="12.6750843"><ele>272.0</ele><time>2026-04-12T12:59:20.85Z</time></trkpt><trkpt lat="42.9989521" lon="12.6749842"><ele>275.2</ele><time>2026-04-12T12:59:21.848Z</time></trkpt><trkpt lat="42.9988872" lon="12.6748745"><ele>278.4</ele><time>2026-04-12T12:59:22.852Z</time></trkpt><trkpt lat="42.9988218" lon="12.67476"><ele>281.6</ele><time>2026-04-12T12:59:23.845Z</time></trkpt><trkpt lat="42.9987476" lon="12.6746438"><ele>284.8</ele><time>2026-04-12T12:59:24.842Z</time></trkpt><trkpt lat="42.9986663" lon="12.6745257"><ele>288.0</ele><time>2026-04-12T12:59:25.849Z</time></trkpt><trkpt lat="42.9985734" lon="12.6744087"><ele>286.0</ele><time>2026-04-12T12:59:26.847Z</time></trkpt><trkpt lat="42.998478" lon="12.6742879"><ele>284.0</ele><time>2026-04-12T12:59:27.845Z</time></trkpt><trkpt lat="42.9983924" lon="12.6741636"><ele>282.0</ele><time>2026-04-12T12:59:28.853Z</time></trkpt><trkpt lat="42.9983152" lon="12.6740418"><ele>280.0</ele><time>2026-04-12T12:59:29.858Z</time></trkpt><trkpt lat="42.9982385" lon="12.6739061"><ele>280.0</ele><time>2026-04-12T12:59:30.844Z</time></trkpt><trkpt lat="42.9981634" lon="12.6737706"><ele>280.0</ele><time>2026-04-12T12:59:31.845Z</time></trkpt><trkpt lat="42.9980878" lon="12.6736342"><ele>280.0</ele><time>2026-04-12T12:59:32.854Z</time></trkpt><trkpt lat="42.9980105" lon="12.6735021"><ele>280.0</ele><time>2026-04-12T12:59:33.847Z</time></trkpt><trkpt lat="42.9979304" lon="12.6733828"><ele>283.2</ele><time>2026-04-12T12:59:34.849Z</time></trkpt><trkpt lat="42.9978503" lon="12.6732689"><ele>286.4</ele><time>2026-04-12T12:59:35.85Z</time></trkpt><trkpt lat="42.997779" lon="12.6731626"><ele>289.6</ele><time>2026-04-12T12:59:36.847Z</time></trkpt><trkpt lat="42.9977096" lon="12.6730538"><ele>292.8</ele><time>2026-04-12T12:59:37.863Z</time></trkpt><trkpt lat="42.9976437" lon="12.6729444"><ele>296.0</ele><time>2026-04-12T12:59:38.847Z</time></trkpt><trkpt lat="42.9975786" lon="12.6728365"><ele>296.2</ele><time>2026-04-12T12:59:39.85Z</time></trkpt><trkpt lat="42.9975103" lon="12.6727363"><ele>296.40000000000003</ele><time>2026-04-12T12:59:40.845Z</time></trkpt><trkpt lat="42.997435" lon="12.6726357"><ele>296.6</ele><time>2026-04-12T12:59:41.871Z</time></trkpt><trkpt lat="42.9973599" lon="12.6725411"><ele>296.8</ele><time>2026-04-12T12:59:42.861Z</time></trkpt><trkpt lat="42.9972848" lon="12.672451"><ele>297.0</ele><time>2026-04-12T12:59:43.849Z</time></trkpt><trkpt lat="42.9972182" lon="12.6723659"><ele>297.0</ele><time>2026-04-12T12:59:44.849Z</time></trkpt><trkpt lat="42.9971577" lon="12.67229"><ele>297.0</ele><time>2026-04-12T12:59:45.841Z</time></trkpt><trkpt lat="42.9971059" lon="12.672231"><ele>297.0</ele><time>2026-04-12T12:59:46.855Z</time></trkpt><trkpt lat="42.9970657" lon="12.6721634"><ele>297.0</ele><time>2026-04-12T12:59:47.855Z</time></trkpt><trkpt lat="42.9970301" lon="12.6720909"><ele>297.0</ele><time>2026-04-12T12:59:48.857Z</time></trkpt><trkpt lat="42.997019" lon="12.6719557"><ele>297.0</ele><time>2026-04-12T12:59:50.84Z</time></trkpt><trkpt lat="42.9970384" lon="12.6718543"><ele>297.6</ele><time>2026-04-12T12:59:53.857Z</time></trkpt><trkpt lat="42.997113" lon="12.6718268"><ele>298.2</ele><time>2026-04-12T12:59:55.849Z</time></trkpt><trkpt lat="42.9972164" lon="12.6717779"><ele>298.8</ele><time>2026-04-12T12:59:57.853Z</time></trkpt><trkpt lat="42.9973112" lon="12.6717262"><ele>299.4</ele><time>2026-04-12T12:59:59.853Z</time></trkpt><trkpt lat="42.997392" lon="12.6717292"><ele>300.0</ele><time>2026-04-12T13:00:01.852Z</time></trkpt><trkpt lat="42.9974718" lon="12.6718359"><ele>302.4</ele><time>2026-04-12T13:00:03.844Z</time></trkpt><trkpt lat="42.9975533" lon="12.6719609"><ele>304.8</ele><time>2026-04-12T13:00:05.852Z</time></trkpt><trkpt lat="42.9976106" lon="12.6720281"><ele>307.2</ele><time>2026-04-12T13:00:06.855Z</time></trkpt><trkpt lat="42.9976706" lon="12.6720992"><ele>309.6</ele><time>2026-04-12T13:00:07.84Z</time></trkpt><trkpt lat="42.9977401" lon="12.672176"><ele>312.0</ele><time>2026-04-12T13:00:08.85Z</time></trkpt><trkpt lat="42.9978108" lon="12.6722438"><ele>312.0</ele><time>2026-04-12T13:00:09.845Z</time></trkpt><trkpt lat="42.9978902" lon="12.6723028"><ele>312.0</ele><time>2026-04-12T13:00:10.872Z</time></trkpt><trkpt lat="42.9979756" lon="12.6723351"><ele>312.0</ele><time>2026-04-12T13:00:11.866Z</time></trkpt><trkpt lat="42.9980569" lon="12.6723697"><ele>312.0</ele><time>2026-04-12T13:00:12.858Z</time></trkpt><trkpt lat="42.9981374" lon="12.672402"><ele>312.0</ele><time>2026-04-12T13:00:13.854Z</time></trkpt><trkpt lat="42.9982141" lon="12.6724401"><ele>312.0</ele><time>2026-04-12T13:00:14.867Z</time></trkpt><trkpt lat="42.9982702" lon="12.6725059"><ele>312.0</ele><time>2026-04-12T13:00:15.845Z</time></trkpt><trkpt lat="42.9983175" lon="12.6725712"><ele>312.0</ele><time>2026-04-12T13:00:16.86Z</time></trkpt><trkpt lat="42.9983606" lon="12.672651"><ele>312.0</ele><time>2026-04-12T13:00:17.844Z</time></trkpt><trkpt lat="42.9984191" lon="12.6727384"><ele>312.0</ele><time>2026-04-12T13:00:18.844Z</time></trkpt><trkpt lat="42.9984778" lon="12.6728154"><ele>312.0</ele><time>2026-04-12T13:00:19.847Z</time></trkpt><trkpt lat="42.9985412" lon="12.6728975"><ele>312.0</ele><time>2026-04-12T13:00:20.854Z</time></trkpt><trkpt lat="42.9986041" lon="12.6729849"><ele>314.4</ele><time>2026-04-12T13:00:21.855Z</time></trkpt><trkpt lat="42.9986638" lon="12.6730799"><ele>316.79999999999995</ele><time>2026-04-12T13:00:22.848Z</time></trkpt><trkpt lat="42.9987276" lon="12.6731748"><ele>319.2</ele><time>2026-04-12T13:00:23.841Z</time></trkpt><trkpt lat="42.9987978" lon="12.6732776"><ele>321.59999999999997</ele><time>2026-04-12T13:00:24.853Z</time></trkpt><trkpt lat="42.9988698" lon="12.6733907"><ele>324.0</ele><time>2026-04-12T13:00:25.84Z</time></trkpt><trkpt lat="42.9989451" lon="12.6735052"><ele>326.4</ele><time>2026-04-12T13:00:26.851Z</time></trkpt><trkpt lat="42.9990178" lon="12.6736159"><ele>328.79999999999995</ele><time>2026-04-12T13:00:27.844Z</time></trkpt><trkpt lat="42.9990893" lon="12.6737271"><ele>331.20000000000005</ele><time>2026-04-12T13:00:28.851Z</time></trkpt><trkpt lat="42.9991621" lon="12.6738386"><ele>333.6</ele><time>2026-04-12T13:00:29.855Z</time></trkpt><trkpt lat="42.9992346" lon="12.6739559"><ele>336.0</ele><time>2026-04-12T13:00:30.85Z</time></trkpt><trkpt lat="42.9993032" lon="12.6740771"><ele>336.0</ele><time>2026-04-12T13:00:31.845Z</time></trkpt><trkpt lat="42.9993738" lon="12.6741953"><ele>336.0</ele><time>2026-04-12T13:00:32.851Z</time></trkpt><trkpt lat="42.9994433" lon="12.6743146"><ele>336.0</ele><time>2026-04-12T13:00:33.849Z</time></trkpt><trkpt lat="42.999512" lon="12.6744361"><ele>336.0</ele><time>2026-04-12T13:00:34.853Z</time></trkpt><trkpt lat="42.9995829" lon="12.6745532"><ele>336.0</ele><time>2026-04-12T13:00:35.841Z</time></trkpt><trkpt lat="42.9996527" lon="12.6746745"><ele>332.0</ele><time>2026-04-12T13:00:36.847Z</time></trkpt><trkpt lat="42.9997246" lon="12.6747981"><ele>328.0</ele><time>2026-04-12T13:00:37.85Z</time></trkpt><trkpt lat="42.999798" lon="12.6749285"><ele>324.0</ele><time>2026-04-12T13:00:38.856Z</time></trkpt><trkpt lat="42.999872" lon="12.6750607"><ele>320.0</ele><time>2026-04-12T13:00:39.848Z</time></trkpt><trkpt lat="42.9999465" lon="12.6752003"><ele>316.25</ele><time>2026-04-12T13:00:40.851Z</time></trkpt><trkpt lat="43.0000275" lon="12.675337"><ele>312.5</ele><time>2026-04-12T13:00:41.855Z</time></trkpt><trkpt lat="43.0001082" lon="12.6754786"><ele>308.75</ele><time>2026-04-12T13:00:42.844Z</time></trkpt><trkpt lat="43.0001855" lon="12.6756177"><ele>305.0</ele><time>2026-04-12T13:00:43.848Z</time></trkpt><trkpt lat="43.0002585" lon="12.6757666"><ele>305.0</ele><time>2026-04-12T13:00:44.852Z</time></trkpt><trkpt lat="43.0003277" lon="12.6759191"><ele>305.0</ele><time>2026-04-12T13:00:45.839Z</time></trkpt><trkpt lat="43.0003942" lon="12.6760715"><ele>305.0</ele><time>2026-04-12T13:00:46.842Z</time></trkpt><trkpt lat="43.0004708" lon="12.6762283"><ele>305.0</ele><time>2026-04-12T13:00:47.843Z</time></trkpt><trkpt lat="43.0005489" lon="12.6763796"><ele>305.0</ele><time>2026-04-12T13:00:48.858Z</time></trkpt><trkpt lat="43.0006305" lon="12.6765302"><ele>305.0</ele><time>2026-04-12T13:00:49.841Z</time></trkpt><trkpt lat="43.0007178" lon="12.6766778"><ele>305.0</ele><time>2026-04-12T13:00:50.85Z</time></trkpt><trkpt lat="43.000806" lon="12.676822"><ele>305.0</ele><time>2026-04-12T13:00:51.842Z</time></trkpt><trkpt lat="43.0008876" lon="12.6769536"><ele>305.0</ele><time>2026-04-12T13:00:52.838Z</time></trkpt><trkpt lat="43.0009605" lon="12.6770844"><ele>305.0</ele><time>2026-04-12T13:00:53.853Z</time></trkpt><trkpt lat="43.0010318" lon="12.6772152"><ele>305.0</ele><time>2026-04-12T13:00:54.85Z</time></trkpt><trkpt lat="43.0011034" lon="12.6773509"><ele>305.0</ele><time>2026-04-12T13:00:55.85Z</time></trkpt><trkpt lat="43.0011676" lon="12.6774803"><ele>305.0</ele><time>2026-04-12T13:00:56.853Z</time></trkpt><trkpt lat="43.0012323" lon="12.6776083"><ele>305.0</ele><time>2026-04-12T13:00:57.854Z</time></trkpt><trkpt lat="43.0013003" lon="12.6777378"><ele>305.0</ele><time>2026-04-12T13:00:58.846Z</time></trkpt><trkpt lat="43.0013723" lon="12.6778614"><ele>305.0</ele><time>2026-04-12T13:00:59.844Z</time></trkpt><trkpt lat="43.001449" lon="12.6779847"><ele>302.75</ele><time>2026-04-12T13:01:00.841Z</time></trkpt><trkpt lat="43.0015291" lon="12.678106"><ele>300.5</ele><time>2026-04-12T13:01:01.842Z</time></trkpt><trkpt lat="43.001612" lon="12.6782206"><ele>298.25</ele><time>2026-04-12T13:01:02.844Z</time></trkpt><trkpt lat="43.0016945" lon="12.6783325"><ele>296.0</ele><time>2026-04-12T13:01:03.845Z</time></trkpt><trkpt lat="43.0017787" lon="12.6784409"><ele>298.75</ele><time>2026-04-12T13:01:04.847Z</time></trkpt><trkpt lat="43.0018587" lon="12.6785474"><ele>301.5</ele><time>2026-04-12T13:01:05.844Z</time></trkpt><trkpt lat="43.0019374" lon="12.6786594"><ele>304.25</ele><time>2026-04-12T13:01:06.842Z</time></trkpt><trkpt lat="43.002016" lon="12.6787728"><ele>307.0</ele><time>2026-04-12T13:01:07.845Z</time></trkpt><trkpt lat="43.0020969" lon="12.6788891"><ele>307.0</ele><time>2026-04-12T13:01:08.848Z</time></trkpt><trkpt lat="43.002179" lon="12.6790007"><ele>307.0</ele><time>2026-04-12T13:01:09.847Z</time></trkpt><trkpt lat="43.0022568" lon="12.6791161"><ele>307.0</ele><time>2026-04-12T13:01:10.845Z</time></trkpt><trkpt lat="43.0023371" lon="12.6792309"><ele>307.0</ele><time>2026-04-12T13:01:11.857Z</time></trkpt><trkpt lat="43.00242" lon="12.6793554"><ele>311.0</ele><time>2026-04-12T13:01:12.846Z</time></trkpt><trkpt lat="43.0025068" lon="12.6794718"><ele>315.0</ele><time>2026-04-12T13:01:13.843Z</time></trkpt><trkpt lat="43.0025962" lon="12.6795858"><ele>319.0</ele><time>2026-04-12T13:01:14.844Z</time></trkpt><trkpt lat="43.0026938" lon="12.6796978"><ele>323.0</ele><time>2026-04-12T13:01:15.851Z</time></trkpt><trkpt lat="43.0027959" lon="12.6798119"><ele>323.0</ele><time>2026-04-12T13:01:16.845Z</time></trkpt><trkpt lat="43.0028921" lon="12.6799369"><ele>323.0</ele><time>2026-04-12T13:01:17.849Z</time></trkpt><trkpt lat="43.0029804" lon="12.6800691"><ele>323.0</ele><time>2026-04-12T13:01:18.844Z</time></trkpt><trkpt lat="43.0030597" lon="12.6802118"><ele>323.0</ele><time>2026-04-12T13:01:19.845Z</time></trkpt><trkpt lat="43.0031313" lon="12.6803596"><ele>320.75</ele><time>2026-04-12T13:01:20.848Z</time></trkpt><trkpt lat="43.0031914" lon="12.6805167"><ele>318.5</ele><time>2026-04-12T13:01:21.848Z</time></trkpt><trkpt lat="43.00323" lon="12.6806893"><ele>316.25</ele><time>2026-04-12T13:01:22.837Z</time></trkpt><trkpt lat="43.0032476" lon="12.6808568"><ele>314.0</ele><time>2026-04-12T13:01:23.844Z</time></trkpt><trkpt lat="43.0032614" lon="12.6810263"><ele>312.75</ele><time>2026-04-12T13:01:24.842Z</time></trkpt><trkpt lat="43.0032902" lon="12.6811947"><ele>311.5</ele><time>2026-04-12T13:01:25.845Z</time></trkpt><trkpt lat="43.0033342" lon="12.6813591"><ele>310.25</ele><time>2026-04-12T13:01:26.841Z</time></trkpt><trkpt lat="43.0033832" lon="12.6815199"><ele>309.0</ele><time>2026-04-12T13:01:27.854Z</time></trkpt><trkpt lat="43.0034401" lon="12.6816778"><ele>314.75</ele><time>2026-04-12T13:01:28.846Z</time></trkpt><trkpt lat="43.0035004" lon="12.6818307"><ele>320.5</ele><time>2026-04-12T13:01:29.845Z</time></trkpt><trkpt lat="43.0035635" lon="12.6819834"><ele>326.25</ele><time>2026-04-12T13:01:30.858Z</time></trkpt><trkpt lat="43.0036275" lon="12.6821391"><ele>332.0</ele><time>2026-04-12T13:01:31.85Z</time></trkpt><trkpt lat="43.0036898" lon="12.6822849"><ele>332.0</ele><time>2026-04-12T13:01:32.857Z</time></trkpt><trkpt lat="43.0037527" lon="12.6824323"><ele>332.0</ele><time>2026-04-12T13:01:33.844Z</time></trkpt><trkpt lat="43.0038151" lon="12.6825698"><ele>332.0</ele><time>2026-04-12T13:01:34.854Z</time></trkpt><trkpt lat="43.0038826" lon="12.6827086"><ele>332.0</ele><time>2026-04-12T13:01:35.849Z</time></trkpt><trkpt lat="43.0039581" lon="12.6828485"><ele>330.5</ele><time>2026-04-12T13:01:36.849Z</time></trkpt><trkpt lat="43.0040334" lon="12.6829771"><ele>329.0</ele><time>2026-04-12T13:01:37.848Z</time></trkpt><trkpt lat="43.004116" lon="12.6830951"><ele>327.5</ele><time>2026-04-12T13:01:38.864Z</time></trkpt><trkpt lat="43.0041898" lon="12.683209"><ele>326.0</ele><time>2026-04-12T13:01:39.858Z</time></trkpt><trkpt lat="43.0042553" lon="12.6833282"><ele>331.0</ele><time>2026-04-12T13:01:40.846Z</time></trkpt><trkpt lat="43.0042958" lon="12.6834649"><ele>336.0</ele><time>2026-04-12T13:01:41.864Z</time></trkpt><trkpt lat="43.0043045" lon="12.6836138"><ele>341.0</ele><time>2026-04-12T13:01:42.86Z</time></trkpt><trkpt lat="43.004287" lon="12.6837649"><ele>346.0</ele><time>2026-04-12T13:01:43.85Z</time></trkpt><trkpt lat="43.00425" lon="12.6839156"><ele>351.0</ele><time>2026-04-12T13:01:44.841Z</time></trkpt><trkpt lat="43.0042013" lon="12.6840626"><ele>345.20000000000005</ele><time>2026-04-12T13:01:45.845Z</time></trkpt><trkpt lat="43.0041611" lon="12.6842132"><ele>339.40000000000003</ele><time>2026-04-12T13:01:46.853Z</time></trkpt><trkpt lat="43.0041363" lon="12.6843665"><ele>333.6</ele><time>2026-04-12T13:01:47.845Z</time></trkpt><trkpt lat="43.0041263" lon="12.6845086"><ele>327.8</ele><time>2026-04-12T13:01:48.858Z</time></trkpt><trkpt lat="43.0041264" lon="12.6846361"><ele>322.0</ele><time>2026-04-12T13:01:49.852Z</time></trkpt><trkpt lat="43.0041383" lon="12.6847634"><ele>321.8</ele><time>2026-04-12T13:01:50.846Z</time></trkpt><trkpt lat="43.0041626" lon="12.6848959"><ele>321.6</ele><time>2026-04-12T13:01:51.863Z</time></trkpt><trkpt lat="43.004193" lon="12.6850327"><ele>321.40000000000003</ele><time>2026-04-12T13:01:52.857Z</time></trkpt><trkpt lat="43.0042347" lon="12.6851716"><ele>321.20000000000005</ele><time>2026-04-12T13:01:53.848Z</time></trkpt><trkpt lat="43.004284" lon="12.6853101"><ele>321.0</ele><time>2026-04-12T13:01:54.854Z</time></trkpt><trkpt lat="43.0043434" lon="12.685442"><ele>327.25</ele><time>2026-04-12T13:01:55.844Z</time></trkpt><trkpt lat="43.0044137" lon="12.6855646"><ele>333.5</ele><time>2026-04-12T13:01:56.856Z</time></trkpt><trkpt lat="43.0044871" lon="12.6856805"><ele>339.75</ele><time>2026-04-12T13:01:57.843Z</time></trkpt><trkpt lat="43.0045656" lon="12.6857943"><ele>346.0</ele><time>2026-04-12T13:01:58.857Z</time></trkpt><trkpt lat="43.0046422" lon="12.6859119"><ele>346.0</ele><time>2026-04-12T13:01:59.846Z</time></trkpt><trkpt lat="43.0047156" lon="12.6860316"><ele>346.0</ele><time>2026-04-12T13:02:00.843Z</time></trkpt><trkpt lat="43.0047877" lon="12.6861485"><ele>346.0</ele><time>2026-04-12T13:02:01.84Z</time></trkpt><trkpt lat="43.0048622" lon="12.6862672"><ele>346.0</ele><time>2026-04-12T13:02:02.843Z</time></trkpt><trkpt lat="43.0049337" lon="12.6863851"><ele>347.0</ele><time>2026-04-12T13:02:03.849Z</time></trkpt><trkpt lat="43.0050049" lon="12.6865047"><ele>348.0</ele><time>2026-04-12T13:02:04.851Z</time></trkpt><trkpt lat="43.0050737" lon="12.6866209"><ele>349.0</ele><time>2026-04-12T13:02:05.851Z</time></trkpt><trkpt lat="43.005146" lon="12.6867363"><ele>350.0</ele><time>2026-04-12T13:02:06.848Z</time></trkpt><trkpt lat="43.00522" lon="12.6868512"><ele>351.0</ele><time>2026-04-12T13:02:07.859Z</time></trkpt><trkpt lat="43.0053001" lon="12.6869647"><ele>351.0</ele><time>2026-04-12T13:02:08.854Z</time></trkpt><trkpt lat="43.0053837" lon="12.6870744"><ele>351.0</ele><time>2026-04-12T13:02:09.841Z</time></trkpt><trkpt lat="43.0054686" lon="12.6871809"><ele>351.0</ele><time>2026-04-12T13:02:10.846Z</time></trkpt><trkpt lat="43.005553" lon="12.6872832"><ele>351.0</ele><time>2026-04-12T13:02:11.85Z</time></trkpt><trkpt lat="43.0056413" lon="12.6873785"><ele>351.0</ele><time>2026-04-12T13:02:12.843Z</time></trkpt><trkpt lat="43.0057353" lon="12.6874674"><ele>351.0</ele><time>2026-04-12T13:02:13.843Z</time></trkpt><trkpt lat="43.0058328" lon="12.6875364"><ele>351.0</ele><time>2026-04-12T13:02:14.848Z</time></trkpt><trkpt lat="43.0059351" lon="12.6876049"><ele>351.0</ele><time>2026-04-12T13:02:15.845Z</time></trkpt><trkpt lat="43.0060407" lon="12.6876703"><ele>354.0</ele><time>2026-04-12T13:02:16.854Z</time></trkpt><trkpt lat="43.0061473" lon="12.6877372"><ele>357.0</ele><time>2026-04-12T13:02:17.852Z</time></trkpt><trkpt lat="43.0062549" lon="12.6878075"><ele>360.0</ele><time>2026-04-12T13:02:18.85Z</time></trkpt><trkpt lat="43.0063557" lon="12.6878805"><ele>363.0</ele><time>2026-04-12T13:02:19.844Z</time></trkpt><trkpt lat="43.0064481" lon="12.6879658"><ele>363.0</ele><time>2026-04-12T13:02:20.847Z</time></trkpt><trkpt lat="43.0065216" lon="12.6880799"><ele>363.0</ele><time>2026-04-12T13:02:21.859Z</time></trkpt><trkpt lat="43.0065779" lon="12.6882248"><ele>363.0</ele><time>2026-04-12T13:02:22.847Z</time></trkpt><trkpt lat="43.0066205" lon="12.6883687"><ele>363.0</ele><time>2026-04-12T13:02:23.84Z</time></trkpt><trkpt lat="43.0066715" lon="12.6885022"><ele>365.5</ele><time>2026-04-12T13:02:24.859Z</time></trkpt><trkpt lat="43.0067507" lon="12.6886217"><ele>368.0</ele><time>2026-04-12T13:02:25.847Z</time></trkpt><trkpt lat="43.0068522" lon="12.6887266"><ele>370.5</ele><time>2026-04-12T13:02:26.847Z</time></trkpt><trkpt lat="43.0069618" lon="12.6888062"><ele>373.0</ele><time>2026-04-12T13:02:27.844Z</time></trkpt><trkpt lat="43.0070761" lon="12.688873"><ele>373.0</ele><time>2026-04-12T13:02:28.859Z</time></trkpt><trkpt lat="43.0071901" lon="12.6889322"><ele>373.0</ele><time>2026-04-12T13:02:29.85Z</time></trkpt><trkpt lat="43.007311" lon="12.6889851"><ele>373.0</ele><time>2026-04-12T13:02:30.861Z</time></trkpt><trkpt lat="43.0074359" lon="12.6890288"><ele>373.0</ele><time>2026-04-12T13:02:31.843Z</time></trkpt><trkpt lat="43.0075564" lon="12.6890704"><ele>376.75</ele><time>2026-04-12T13:02:32.838Z</time></trkpt><trkpt lat="43.0076802" lon="12.6891009"><ele>380.5</ele><time>2026-04-12T13:02:33.843Z</time></trkpt><trkpt lat="43.0078063" lon="12.6891271"><ele>384.25</ele><time>2026-04-12T13:02:34.852Z</time></trkpt><trkpt lat="43.0079271" lon="12.6891511"><ele>388.0</ele><time>2026-04-12T13:02:35.841Z</time></trkpt><trkpt lat="43.0080406" lon="12.6891743"><ele>388.0</ele><time>2026-04-12T13:02:36.846Z</time></trkpt><trkpt lat="43.0081472" lon="12.6891917"><ele>388.0</ele><time>2026-04-12T13:02:37.843Z</time></trkpt><trkpt lat="43.0082462" lon="12.6892037"><ele>388.0</ele><time>2026-04-12T13:02:38.851Z</time></trkpt><trkpt lat="43.0083353" lon="12.6892231"><ele>388.0</ele><time>2026-04-12T13:02:39.839Z</time></trkpt><trkpt lat="43.0084144" lon="12.6892595"><ele>388.0</ele><time>2026-04-12T13:02:40.837Z</time></trkpt><trkpt lat="43.0084722" lon="12.6893216"><ele>390.00000000000006</ele><time>2026-04-12T13:02:41.852Z</time></trkpt><trkpt lat="43.0084912" lon="12.6894233"><ele>392.0</ele><time>2026-04-12T13:02:42.854Z</time></trkpt><trkpt lat="43.0084666" lon="12.6895259"><ele>394.0</ele><time>2026-04-12T13:02:43.837Z</time></trkpt><trkpt lat="43.0083922" lon="12.6896116"><ele>396.0</ele><time>2026-04-12T13:02:44.835Z</time></trkpt><trkpt lat="43.0083053" lon="12.6896466"><ele>398.00000000000006</ele><time>2026-04-12T13:02:45.85Z</time></trkpt><trkpt lat="43.0082136" lon="12.6896557"><ele>400.0</ele><time>2026-04-12T13:02:46.844Z</time></trkpt><trkpt lat="43.0081234" lon="12.689691"><ele>400.0</ele><time>2026-04-12T13:02:47.856Z</time></trkpt><trkpt lat="43.0080226" lon="12.6897392"><ele>400.0</ele><time>2026-04-12T13:02:48.84Z</time></trkpt><trkpt lat="43.0079197" lon="12.6897948"><ele>400.0</ele><time>2026-04-12T13:02:49.854Z</time></trkpt><trkpt lat="43.0078168" lon="12.6898577"><ele>400.0</ele><time>2026-04-12T13:02:50.842Z</time></trkpt><trkpt lat="43.0077139" lon="12.6899267"><ele>400.0</ele><time>2026-04-12T13:02:51.848Z</time></trkpt><trkpt lat="43.0076139" lon="12.6899984"><ele>400.0</ele><time>2026-04-12T13:02:52.841Z</time></trkpt><trkpt lat="43.0075182" lon="12.690067"><ele>400.0</ele><time>2026-04-12T13:02:53.836Z</time></trkpt><trkpt lat="43.0074316" lon="12.6901333"><ele>400.0</ele><time>2026-04-12T13:02:54.84Z</time></trkpt><trkpt lat="43.0073515" lon="12.6901908"><ele>400.0</ele><time>2026-04-12T13:02:55.841Z</time></trkpt><trkpt lat="43.0072715" lon="12.6902462"><ele>400.0</ele><time>2026-04-12T13:02:56.842Z</time></trkpt><trkpt lat="43.0071843" lon="12.6903006"><ele>401.8</ele><time>2026-04-12T13:02:57.84Z</time></trkpt><trkpt lat="43.0070893" lon="12.6903555"><ele>403.6</ele><time>2026-04-12T13:02:58.846Z</time></trkpt><trkpt lat="43.0069888" lon="12.6904107"><ele>405.4</ele><time>2026-04-12T13:02:59.847Z</time></trkpt><trkpt lat="43.0068946" lon="12.6904779"><ele>407.2</ele><time>2026-04-12T13:03:00.846Z</time></trkpt><trkpt lat="43.0068085" lon="12.6905616"><ele>409.0</ele><time>2026-04-12T13:03:01.841Z</time></trkpt><trkpt lat="43.0067283" lon="12.6906616"><ele>409.0</ele><time>2026-04-12T13:03:02.843Z</time></trkpt><trkpt lat="43.006662" lon="12.6907731"><ele>409.0</ele><time>2026-04-12T13:03:03.85Z</time></trkpt><trkpt lat="43.0066145" lon="12.6909039"><ele>409.0</ele><time>2026-04-12T13:03:04.854Z</time></trkpt><trkpt lat="43.0065808" lon="12.6910428"><ele>409.0</ele><time>2026-04-12T13:03:05.842Z</time></trkpt><trkpt lat="43.0065665" lon="12.6911854"><ele>409.0</ele><time>2026-04-12T13:03:06.842Z</time></trkpt><trkpt lat="43.0065673" lon="12.6913315"><ele>405.6</ele><time>2026-04-12T13:03:07.848Z</time></trkpt><trkpt lat="43.0065773" lon="12.6914716"><ele>402.2</ele><time>2026-04-12T13:03:08.848Z</time></trkpt><trkpt lat="43.0065738" lon="12.6916058"><ele>398.8</ele><time>2026-04-12T13:03:09.838Z</time></trkpt><trkpt lat="43.0065367" lon="12.6917309"><ele>395.40000000000003</ele><time>2026-04-12T13:03:10.839Z</time></trkpt><trkpt lat="43.0064682" lon="12.6918334"><ele>392.0</ele><time>2026-04-12T13:03:11.845Z</time></trkpt><trkpt lat="43.0063825" lon="12.691898"><ele>396.0</ele><time>2026-04-12T13:03:12.84Z</time></trkpt><trkpt lat="43.0062904" lon="12.6919578"><ele>400.0</ele><time>2026-04-12T13:03:13.847Z</time></trkpt><trkpt lat="43.0062028" lon="12.692048"><ele>404.0</ele><time>2026-04-12T13:03:14.856Z</time></trkpt><trkpt lat="43.0061287" lon="12.6921626"><ele>408.0</ele><time>2026-04-12T13:03:15.855Z</time></trkpt><trkpt lat="43.0060566" lon="12.692284"><ele>412.0</ele><time>2026-04-12T13:03:16.846Z</time></trkpt><trkpt lat="43.0059872" lon="12.6924161"><ele>412.0</ele><time>2026-04-12T13:03:17.852Z</time></trkpt><trkpt lat="43.0059325" lon="12.6925622"><ele>412.0</ele><time>2026-04-12T13:03:18.834Z</time></trkpt><trkpt lat="43.0058996" lon="12.6927026"><ele>412.0</ele><time>2026-04-12T13:03:19.832Z</time></trkpt><trkpt lat="43.0058792" lon="12.6928427"><ele>412.0</ele><time>2026-04-12T13:03:20.841Z</time></trkpt><trkpt lat="43.0058714" lon="12.6930106"><ele>413.8</ele><time>2026-04-12T13:03:21.856Z</time></trkpt><trkpt lat="43.005876" lon="12.6931725"><ele>415.6</ele><time>2026-04-12T13:03:22.834Z</time></trkpt><trkpt lat="43.0058796" lon="12.6933236"><ele>417.40000000000003</ele><time>2026-04-12T13:03:23.858Z</time></trkpt><trkpt lat="43.0058877" lon="12.6934737"><ele>419.20000000000005</ele><time>2026-04-12T13:03:24.872Z</time></trkpt><trkpt lat="43.0059004" lon="12.6936219"><ele>421.0</ele><time>2026-04-12T13:03:25.862Z</time></trkpt><trkpt lat="43.0059133" lon="12.6937596"><ele>421.0</ele><time>2026-04-12T13:03:26.855Z</time></trkpt><trkpt lat="43.0059349" lon="12.6939033"><ele>421.0</ele><time>2026-04-12T13:03:27.851Z</time></trkpt><trkpt lat="43.0059705" lon="12.6940374"><ele>421.0</ele><time>2026-04-12T13:03:28.841Z</time></trkpt><trkpt lat="43.006024" lon="12.6941696"><ele>421.0</ele><time>2026-04-12T13:03:29.863Z</time></trkpt><trkpt lat="43.0060907" lon="12.6942983"><ele>421.0</ele><time>2026-04-12T13:03:30.832Z</time></trkpt><trkpt lat="43.0061494" lon="12.6944163"><ele>419.75</ele><time>2026-04-12T13:03:31.838Z</time></trkpt><trkpt lat="43.0062075" lon="12.6945384"><ele>418.5</ele><time>2026-04-12T13:03:32.855Z</time></trkpt><trkpt lat="43.0062462" lon="12.6946768"><ele>417.25</ele><time>2026-04-12T13:03:33.855Z</time></trkpt><trkpt lat="43.0062549" lon="12.6948322"><ele>416.0</ele><time>2026-04-12T13:03:34.86Z</time></trkpt><trkpt lat="43.006238" lon="12.6949982"><ele>416.0</ele><time>2026-04-12T13:03:35.84Z</time></trkpt><trkpt lat="43.0062182" lon="12.695159"><ele>416.0</ele><time>2026-04-12T13:03:36.854Z</time></trkpt><trkpt lat="43.0061876" lon="12.6953198"><ele>416.0</ele><time>2026-04-12T13:03:37.85Z</time></trkpt><trkpt lat="43.0061643" lon="12.6954911"><ele>416.0</ele><time>2026-04-12T13:03:38.841Z</time></trkpt><trkpt lat="43.0061455" lon="12.6956538"><ele>415.75</ele><time>2026-04-12T13:03:39.857Z</time></trkpt><trkpt lat="43.0061407" lon="12.695818"><ele>415.5</ele><time>2026-04-12T13:03:40.853Z</time></trkpt><trkpt lat="43.0061578" lon="12.6959811"><ele>415.25</ele><time>2026-04-12T13:03:41.872Z</time></trkpt><trkpt lat="43.0061895" lon="12.6961509"><ele>415.0</ele><time>2026-04-12T13:03:42.852Z</time></trkpt><trkpt lat="43.0062228" lon="12.6963201"><ele>415.0</ele><time>2026-04-12T13:03:43.842Z</time></trkpt><trkpt lat="43.0062567" lon="12.696496"><ele>415.0</ele><time>2026-04-12T13:03:44.85Z</time></trkpt><trkpt lat="43.0062954" lon="12.6966659"><ele>415.0</ele><time>2026-04-12T13:03:45.851Z</time></trkpt><trkpt lat="43.0063418" lon="12.6968343"><ele>415.0</ele><time>2026-04-12T13:03:46.85Z</time></trkpt><trkpt lat="43.0063884" lon="12.6969983"><ele>412.5</ele><time>2026-04-12T13:03:47.836Z</time></trkpt><trkpt lat="43.0064306" lon="12.6971651"><ele>410.0</ele><time>2026-04-12T13:03:48.886Z</time></trkpt><trkpt lat="43.0064803" lon="12.6973306"><ele>407.5</ele><time>2026-04-12T13:03:49.839Z</time></trkpt><trkpt lat="43.0065305" lon="12.6974958"><ele>405.0</ele><time>2026-04-12T13:03:50.848Z</time></trkpt><trkpt lat="43.0065772" lon="12.6976522"><ele>402.4</ele><time>2026-04-12T13:03:51.855Z</time></trkpt><trkpt lat="43.0066331" lon="12.6978044"><ele>399.8</ele><time>2026-04-12T13:03:52.848Z</time></trkpt><trkpt lat="43.006684" lon="12.697943"><ele>397.20000000000005</ele><time>2026-04-12T13:03:53.858Z</time></trkpt><trkpt lat="43.0067318" lon="12.6980708"><ele>394.6</ele><time>2026-04-12T13:03:54.86Z</time></trkpt><trkpt lat="43.0067798" lon="12.6981876"><ele>392.0</ele><time>2026-04-12T13:03:55.85Z</time></trkpt><trkpt lat="43.0068402" lon="12.6982965"><ele>403.5</ele><time>2026-04-12T13:03:56.858Z</time></trkpt><trkpt lat="43.0069243" lon="12.6983743"><ele>415.0</ele><time>2026-04-12T13:03:57.859Z</time></trkpt><trkpt lat="43.0070299" lon="12.698437"><ele>426.5</ele><time>2026-04-12T13:03:58.846Z</time></trkpt><trkpt lat="43.0071399" lon="12.6984877"><ele>438.0</ele><time>2026-04-12T13:03:59.858Z</time></trkpt><trkpt lat="43.0072553" lon="12.6985417"><ele>438.5</ele><time>2026-04-12T13:04:00.861Z</time></trkpt><trkpt lat="43.0073776" lon="12.698602"><ele>439.0</ele><time>2026-04-12T13:04:01.861Z</time></trkpt><trkpt lat="43.0075018" lon="12.6986612"><ele>439.5</ele><time>2026-04-12T13:04:02.838Z</time></trkpt><trkpt lat="43.0076297" lon="12.6987203"><ele>440.0</ele><time>2026-04-12T13:04:03.853Z</time></trkpt><trkpt lat="43.0077562" lon="12.6987727"><ele>440.0</ele><time>2026-04-12T13:04:04.841Z</time></trkpt><trkpt lat="43.0078882" lon="12.6988274"><ele>440.0</ele><time>2026-04-12T13:04:05.84Z</time></trkpt><trkpt lat="43.0080218" lon="12.6988803"><ele>440.0</ele><time>2026-04-12T13:04:06.841Z</time></trkpt><trkpt lat="43.0081536" lon="12.6989344"><ele>440.0</ele><time>2026-04-12T13:04:07.865Z</time></trkpt><trkpt lat="43.0082933" lon="12.6989918"><ele>445.5</ele><time>2026-04-12T13:04:08.839Z</time></trkpt><trkpt lat="43.0084302" lon="12.6990597"><ele>451.0</ele><time>2026-04-12T13:04:09.856Z</time></trkpt><trkpt lat="43.0085592" lon="12.6991368"><ele>456.5</ele><time>2026-04-12T13:04:10.84Z</time></trkpt><trkpt lat="43.0086807" lon="12.6992311"><ele>462.0</ele><time>2026-04-12T13:04:11.85Z</time></trkpt><trkpt lat="43.0087937" lon="12.6993285"><ele>463.0</ele><time>2026-04-12T13:04:12.853Z</time></trkpt><trkpt lat="43.0089027" lon="12.6994195"><ele>464.0</ele><time>2026-04-12T13:04:13.851Z</time></trkpt><trkpt lat="43.0090131" lon="12.699501"><ele>465.0</ele><time>2026-04-12T13:04:14.85Z</time></trkpt><trkpt lat="43.0091235" lon="12.6995602"><ele>466.0</ele><time>2026-04-12T13:04:15.857Z</time></trkpt><trkpt lat="43.0092442" lon="12.6996016"><ele>466.0</ele><time>2026-04-12T13:04:16.847Z</time></trkpt><trkpt lat="43.0093626" lon="12.6996286"><ele>466.0</ele><time>2026-04-12T13:04:17.849Z</time></trkpt><trkpt lat="43.0094868" lon="12.6996509"><ele>466.0</ele><time>2026-04-12T13:04:18.863Z</time></trkpt><trkpt lat="43.0096123" lon="12.6996668"><ele>466.0</ele><time>2026-04-12T13:04:19.851Z</time></trkpt><trkpt lat="43.0097333" lon="12.6996875"><ele>466.0</ele><time>2026-04-12T13:04:20.842Z</time></trkpt><trkpt lat="43.0098536" lon="12.6997039"><ele>466.0</ele><time>2026-04-12T13:04:21.85Z</time></trkpt><trkpt lat="43.0099728" lon="12.6997241"><ele>466.0</ele><time>2026-04-12T13:04:22.841Z</time></trkpt><trkpt lat="43.0100911" lon="12.6997448"><ele>466.0</ele><time>2026-04-12T13:04:23.857Z</time></trkpt><trkpt lat="43.0102109" lon="12.6997574"><ele>470.5</ele><time>2026-04-12T13:04:24.849Z</time></trkpt><trkpt lat="43.0103311" lon="12.6997699"><ele>475.0</ele><time>2026-04-12T13:04:25.838Z</time></trkpt><trkpt lat="43.0104529" lon="12.6997793"><ele>479.5</ele><time>2026-04-12T13:04:26.839Z</time></trkpt><trkpt lat="43.0105764" lon="12.6997916"><ele>484.0</ele><time>2026-04-12T13:04:27.886Z</time></trkpt><trkpt lat="43.0107005" lon="12.6998087"><ele>487.0</ele><time>2026-04-12T13:04:28.852Z</time></trkpt><trkpt lat="43.010828" lon="12.6998326"><ele>490.0</ele><time>2026-04-12T13:04:29.834Z</time></trkpt><trkpt lat="43.0109552" lon="12.6998568"><ele>493.0</ele><time>2026-04-12T13:04:30.856Z</time></trkpt><trkpt lat="43.0110811" lon="12.6998866"><ele>496.0</ele><time>2026-04-12T13:04:31.856Z</time></trkpt><trkpt lat="43.0112082" lon="12.6999169"><ele>496.0</ele><time>2026-04-12T13:04:32.852Z</time></trkpt><trkpt lat="43.0113354" lon="12.6999454"><ele>496.0</ele><time>2026-04-12T13:04:33.846Z</time></trkpt><trkpt lat="43.0114647" lon="12.6999725"><ele>496.0</ele><time>2026-04-12T13:04:34.852Z</time></trkpt><trkpt lat="43.0115951" lon="12.6999979"><ele>496.0</ele><time>2026-04-12T13:04:35.85Z</time></trkpt><trkpt lat="43.0117316" lon="12.7000237"><ele>499.0</ele><time>2026-04-12T13:04:36.843Z</time></trkpt><trkpt lat="43.0118651" lon="12.7000498"><ele>502.0</ele><time>2026-04-12T13:04:37.845Z</time></trkpt><trkpt lat="43.0119988" lon="12.7000786"><ele>505.0</ele><time>2026-04-12T13:04:38.849Z</time></trkpt><trkpt lat="43.0121305" lon="12.700107"><ele>508.0</ele><time>2026-04-12T13:04:39.85Z</time></trkpt><trkpt lat="43.012257" lon="12.7001204"><ele>508.0</ele><time>2026-04-12T13:04:40.85Z</time></trkpt><trkpt lat="43.0123733" lon="12.7001046"><ele>508.0</ele><time>2026-04-12T13:04:41.859Z</time></trkpt><trkpt lat="43.012497" lon="12.7000827"><ele>508.0</ele><time>2026-04-12T13:04:42.863Z</time></trkpt><trkpt lat="43.0126261" lon="12.700064"><ele>508.0</ele><time>2026-04-12T13:04:43.845Z</time></trkpt><trkpt lat="43.0127478" lon="12.700046"><ele>510.25</ele><time>2026-04-12T13:04:44.853Z</time></trkpt><trkpt lat="43.0128692" lon="12.7000193"><ele>512.5</ele><time>2026-04-12T13:04:45.839Z</time></trkpt><trkpt lat="43.0129931" lon="12.6999821"><ele>514.75</ele><time>2026-04-12T13:04:46.849Z</time></trkpt><trkpt lat="43.0131076" lon="12.6999323"><ele>517.0</ele><time>2026-04-12T13:04:47.846Z</time></trkpt><trkpt lat="43.0132214" lon="12.6998615"><ele>517.0</ele><time>2026-04-12T13:04:48.839Z</time></trkpt><trkpt lat="43.0133347" lon="12.6997624"><ele>517.0</ele><time>2026-04-12T13:04:49.842Z</time></trkpt><trkpt lat="43.0134441" lon="12.6996494"><ele>517.0</ele><time>2026-04-12T13:04:50.848Z</time></trkpt><trkpt lat="43.0135469" lon="12.6995223"><ele>517.0</ele><time>2026-04-12T13:04:51.846Z</time></trkpt><trkpt lat="43.0136542" lon="12.6993945"><ele>522.5</ele><time>2026-04-12T13:04:52.841Z</time></trkpt><trkpt lat="43.0137562" lon="12.6992621"><ele>528.0</ele><time>2026-04-12T13:04:53.846Z</time></trkpt><trkpt lat="43.013863" lon="12.6991395"><ele>533.5</ele><time>2026-04-12T13:04:54.849Z</time></trkpt><trkpt lat="43.0139705" lon="12.6990229"><ele>539.0</ele><time>2026-04-12T13:04:55.846Z</time></trkpt><trkpt lat="43.0140746" lon="12.6989086"><ele>540.5</ele><time>2026-04-12T13:04:56.856Z</time></trkpt><trkpt lat="43.0141768" lon="12.6987947"><ele>542.0</ele><time>2026-04-12T13:04:57.847Z</time></trkpt><trkpt lat="43.0142555" lon="12.6986483"><ele>543.5</ele><time>2026-04-12T13:04:58.841Z</time></trkpt><trkpt lat="43.0143136" lon="12.6984997"><ele>545.0</ele><time>2026-04-12T13:04:59.845Z</time></trkpt><trkpt lat="43.0143592" lon="12.69836"><ele>545.0</ele><time>2026-04-12T13:05:00.835Z</time></trkpt><trkpt lat="43.0143988" lon="12.6982224"><ele>545.0</ele><time>2026-04-12T13:05:01.84Z</time></trkpt><trkpt lat="43.0144425" lon="12.6981013"><ele>545.0</ele><time>2026-04-12T13:05:02.838Z</time></trkpt><trkpt lat="43.0145069" lon="12.6980296"><ele>545.0</ele><time>2026-04-12T13:05:03.835Z</time></trkpt><trkpt lat="43.0145946" lon="12.6980078"><ele>545.0</ele><time>2026-04-12T13:05:04.838Z</time></trkpt><trkpt lat="43.0146918" lon="12.6980568"><ele>545.0</ele><time>2026-04-12T13:05:05.838Z</time></trkpt><trkpt lat="43.0147617" lon="12.6981449"><ele>545.0</ele><time>2026-04-12T13:05:06.839Z</time></trkpt><trkpt lat="43.0148113" lon="12.698263"><ele>545.0</ele><time>2026-04-12T13:05:07.843Z</time></trkpt><trkpt lat="43.0148438" lon="12.6983807"><ele>545.0</ele><time>2026-04-12T13:05:08.841Z</time></trkpt><trkpt lat="43.0148868" lon="12.6985115"><ele>545.0</ele><time>2026-04-12T13:05:09.844Z</time></trkpt><trkpt lat="43.0149254" lon="12.6986588"><ele>544.75</ele><time>2026-04-12T13:05:10.856Z</time></trkpt><trkpt lat="43.0149598" lon="12.6988156"><ele>544.5</ele><time>2026-04-12T13:05:11.839Z</time></trkpt><trkpt lat="43.0149755" lon="12.6989814"><ele>544.25</ele><time>2026-04-12T13:05:12.84Z</time></trkpt><trkpt lat="43.0149839" lon="12.6991482"><ele>544.0</ele><time>2026-04-12T13:05:13.833Z</time></trkpt><trkpt lat="43.0149954" lon="12.6993212"><ele>541.0</ele><time>2026-04-12T13:05:14.848Z</time></trkpt><trkpt lat="43.0150147" lon="12.6994897"><ele>538.0</ele><time>2026-04-12T13:05:15.855Z</time></trkpt><trkpt lat="43.0150505" lon="12.6996427"><ele>535.0</ele><time>2026-04-12T13:05:16.866Z</time></trkpt><trkpt lat="43.0151191" lon="12.6997599"><ele>532.0</ele><time>2026-04-12T13:05:17.842Z</time></trkpt><trkpt lat="43.0152132" lon="12.6998477"><ele>532.0</ele><time>2026-04-12T13:05:18.844Z</time></trkpt><trkpt lat="43.0153279" lon="12.6998893"><ele>532.0</ele><time>2026-04-12T13:05:19.854Z</time></trkpt><trkpt lat="43.0154534" lon="12.6999204"><ele>532.0</ele><time>2026-04-12T13:05:20.844Z</time></trkpt><trkpt lat="43.0155744" lon="12.6999439"><ele>532.0</ele><time>2026-04-12T13:05:21.846Z</time></trkpt><trkpt lat="43.0156827" lon="12.6999762"><ele>532.0</ele><time>2026-04-12T13:05:22.839Z</time></trkpt><trkpt lat="43.0157956" lon="12.700029"><ele>532.0</ele><time>2026-04-12T13:05:23.86Z</time></trkpt><trkpt lat="43.0159044" lon="12.7000916"><ele>532.0</ele><time>2026-04-12T13:05:24.848Z</time></trkpt><trkpt lat="43.0160089" lon="12.7001528"><ele>532.0</ele><time>2026-04-12T13:05:25.853Z</time></trkpt><trkpt lat="43.0161115" lon="12.7002171"><ele>531.6</ele><time>2026-04-12T13:05:26.844Z</time></trkpt><trkpt lat="43.0162134" lon="12.7002777"><ele>531.2</ele><time>2026-04-12T13:05:27.841Z</time></trkpt><trkpt lat="43.0163178" lon="12.700333"><ele>530.8</ele><time>2026-04-12T13:05:28.846Z</time></trkpt><trkpt lat="43.0164222" lon="12.7003709"><ele>530.4</ele><time>2026-04-12T13:05:29.846Z</time></trkpt><trkpt lat="43.0165275" lon="12.7003979"><ele>530.0</ele><time>2026-04-12T13:05:30.842Z</time></trkpt><trkpt lat="43.016631" lon="12.7004122"><ele>532.4</ele><time>2026-04-12T13:05:31.846Z</time></trkpt><trkpt lat="43.0167323" lon="12.700416"><ele>534.8</ele><time>2026-04-12T13:05:32.843Z</time></trkpt><trkpt lat="43.0168298" lon="12.7004026"><ele>537.2</ele><time>2026-04-12T13:05:33.854Z</time></trkpt><trkpt lat="43.0169228" lon="12.7003777"><ele>539.6</ele><time>2026-04-12T13:05:34.848Z</time></trkpt><trkpt lat="43.0170163" lon="12.7003396"><ele>542.0</ele><time>2026-04-12T13:05:35.855Z</time></trkpt><trkpt lat="43.0171119" lon="12.7003056"><ele>542.0</ele><time>2026-04-12T13:05:36.836Z</time></trkpt><trkpt lat="43.0172147" lon="12.7002827"><ele>542.0</ele><time>2026-04-12T13:05:37.848Z</time></trkpt><trkpt lat="43.0173131" lon="12.7002557"><ele>542.0</ele><time>2026-04-12T13:05:38.844Z</time></trkpt><trkpt lat="43.0174152" lon="12.7002241"><ele>542.0</ele><time>2026-04-12T13:05:39.847Z</time></trkpt><trkpt lat="43.017517" lon="12.7001879"><ele>542.0</ele><time>2026-04-12T13:05:40.842Z</time></trkpt><trkpt lat="43.0176138" lon="12.700143"><ele>548.2</ele><time>2026-04-12T13:05:41.86Z</time></trkpt><trkpt lat="43.0177094" lon="12.7000859"><ele>554.4000000000001</ele><time>2026-04-12T13:05:42.849Z</time></trkpt><trkpt lat="43.0178012" lon="12.7000257"><ele>560.5999999999999</ele><time>2026-04-12T13:05:43.841Z</time></trkpt><trkpt lat="43.0178969" lon="12.6999843"><ele>566.8</ele><time>2026-04-12T13:05:44.84Z</time></trkpt><trkpt lat="43.0179822" lon="12.6999895"><ele>573.0</ele><time>2026-04-12T13:05:45.852Z</time></trkpt><trkpt lat="43.0180717" lon="12.7000433"><ele>573.0</ele><time>2026-04-12T13:05:46.843Z</time></trkpt><trkpt lat="43.0181398" lon="12.7001293"><ele>573.0</ele><time>2026-04-12T13:05:47.842Z</time></trkpt><trkpt lat="43.0182135" lon="12.7002372"><ele>573.0</ele><time>2026-04-12T13:05:48.835Z</time></trkpt><trkpt lat="43.01828" lon="12.7003221"><ele>573.0</ele><time>2026-04-12T13:05:49.839Z</time></trkpt><trkpt lat="43.0183706" lon="12.7003868"><ele>573.0</ele><time>2026-04-12T13:05:50.843Z</time></trkpt><trkpt lat="43.0184686" lon="12.7004473"><ele>569.25</ele><time>2026-04-12T13:05:51.847Z</time></trkpt><trkpt lat="43.0185732" lon="12.7005152"><ele>565.5</ele><time>2026-04-12T13:05:52.84Z</time></trkpt><trkpt lat="43.0186767" lon="12.7006033"><ele>561.75</ele><time>2026-04-12T13:05:53.839Z</time></trkpt><trkpt lat="43.018774" lon="12.7007111"><ele>558.0</ele><time>2026-04-12T13:05:54.839Z</time></trkpt><trkpt lat="43.0188745" lon="12.7008204"><ele>558.0</ele><time>2026-04-12T13:05:55.839Z</time></trkpt><trkpt lat="43.0189756" lon="12.7009289"><ele>558.0</ele><time>2026-04-12T13:05:56.853Z</time></trkpt><trkpt lat="43.0190907" lon="12.7010283"><ele>558.0</ele><time>2026-04-12T13:05:57.84Z</time></trkpt><trkpt lat="43.0192066" lon="12.7011255"><ele>558.0</ele><time>2026-04-12T13:05:58.837Z</time></trkpt><trkpt lat="43.0193242" lon="12.7012203"><ele>558.5</ele><time>2026-04-12T13:05:59.847Z</time></trkpt><trkpt lat="43.0194437" lon="12.7013165"><ele>559.0</ele><time>2026-04-12T13:06:00.838Z</time></trkpt><trkpt lat="43.0195565" lon="12.701408"><ele>559.5</ele><time>2026-04-12T13:06:01.848Z</time></trkpt><trkpt lat="43.019659" lon="12.7014908"><ele>560.0</ele><time>2026-04-12T13:06:02.855Z</time></trkpt><trkpt lat="43.0197599" lon="12.7015643"><ele>560.0</ele><time>2026-04-12T13:06:03.846Z</time></trkpt><trkpt lat="43.0198664" lon="12.7016222"><ele>560.0</ele><time>2026-04-12T13:06:04.842Z</time></trkpt><trkpt lat="43.0199779" lon="12.701667"><ele>560.0</ele><time>2026-04-12T13:06:05.852Z</time></trkpt><trkpt lat="43.0200917" lon="12.7016787"><ele>560.0</ele><time>2026-04-12T13:06:06.847Z</time></trkpt><trkpt lat="43.0202103" lon="12.7016702"><ele>563.0</ele><time>2026-04-12T13:06:07.848Z</time></trkpt><trkpt lat="43.0203323" lon="12.7016495"><ele>566.0</ele><time>2026-04-12T13:06:08.855Z</time></trkpt><trkpt lat="43.0204365" lon="12.7016267"><ele>569.0</ele><time>2026-04-12T13:06:09.845Z</time></trkpt><trkpt lat="43.0205307" lon="12.7016024"><ele>572.0</ele><time>2026-04-12T13:06:10.863Z</time></trkpt><trkpt lat="43.0206281" lon="12.7015683"><ele>575.0</ele><time>2026-04-12T13:06:11.849Z</time></trkpt><trkpt lat="43.020726" lon="12.7015217"><ele>575.6</ele><time>2026-04-12T13:06:12.854Z</time></trkpt><trkpt lat="43.0208188" lon="12.7014519"><ele>576.2</ele><time>2026-04-12T13:06:13.84Z</time></trkpt><trkpt lat="43.0209033" lon="12.7013776"><ele>576.8</ele><time>2026-04-12T13:06:14.838Z</time></trkpt><trkpt lat="43.0209797" lon="12.7013062"><ele>577.4</ele><time>2026-04-12T13:06:15.844Z</time></trkpt><trkpt lat="43.0210409" lon="12.7012489"><ele>578.0</ele><time>2026-04-12T13:06:16.843Z</time></trkpt><trkpt lat="43.0211645" lon="12.7012502"><ele>578.0</ele><time>2026-04-12T13:06:18.852Z</time></trkpt><trkpt lat="43.0212241" lon="12.7012983"><ele>578.0</ele><time>2026-04-12T13:06:19.846Z</time></trkpt><trkpt lat="43.0212627" lon="12.7013825"><ele>578.0</ele><time>2026-04-12T13:06:20.846Z</time></trkpt><trkpt lat="43.0212955" lon="12.7014772"><ele>578.0</ele><time>2026-04-12T13:06:21.838Z</time></trkpt><trkpt lat="43.0213317" lon="12.7015831"><ele>578.0</ele><time>2026-04-12T13:06:22.848Z</time></trkpt><trkpt lat="43.021368" lon="12.7017051"><ele>578.0</ele><time>2026-04-12T13:06:23.848Z</time></trkpt><trkpt lat="43.0214017" lon="12.7018336"><ele>576.1999999999999</ele><time>2026-04-12T13:06:24.845Z</time></trkpt><trkpt lat="43.0214299" lon="12.7019738"><ele>574.4</ele><time>2026-04-12T13:06:25.838Z</time></trkpt><trkpt lat="43.0214494" lon="12.7021177"><ele>572.5999999999999</ele><time>2026-04-12T13:06:26.845Z</time></trkpt><trkpt lat="43.0214658" lon="12.7022557"><ele>570.8</ele><time>2026-04-12T13:06:27.84Z</time></trkpt><trkpt lat="43.0214723" lon="12.7023875"><ele>569.0</ele><time>2026-04-12T13:06:28.847Z</time></trkpt><trkpt lat="43.0214649" lon="12.7025086"><ele>569.0</ele><time>2026-04-12T13:06:29.845Z</time></trkpt><trkpt lat="43.0214501" lon="12.7026096"><ele>569.0</ele><time>2026-04-12T13:06:30.85Z</time></trkpt><trkpt lat="43.0214316" lon="12.7026961"><ele>569.0</ele><time>2026-04-12T13:06:31.843Z</time></trkpt><trkpt lat="43.021415" lon="12.7027873"><ele>569.0</ele><time>2026-04-12T13:06:32.845Z</time></trkpt><trkpt lat="43.0213933" lon="12.7028741"><ele>569.0</ele><time>2026-04-12T13:06:33.847Z</time></trkpt><trkpt lat="43.0213565" lon="12.7030166"><ele>569.0</ele><time>2026-04-12T13:06:35.849Z</time></trkpt><trkpt lat="43.0213778" lon="12.7031185"><ele>571.0</ele><time>2026-04-12T13:06:37.844Z</time></trkpt><trkpt lat="43.0214584" lon="12.703083"><ele>573.0</ele><time>2026-04-12T13:06:39.851Z</time></trkpt><trkpt lat="43.0215143" lon="12.7030396"><ele>575.0</ele><time>2026-04-12T13:06:40.839Z</time></trkpt><trkpt lat="43.0216169" lon="12.7029626"><ele>577.0</ele><time>2026-04-12T13:06:42.843Z</time></trkpt><trkpt lat="43.0217133" lon="12.7029242"><ele>579.0</ele><time>2026-04-12T13:06:44.844Z</time></trkpt><trkpt lat="43.0217867" lon="12.7029011"><ele>581.0</ele><time>2026-04-12T13:06:47.853Z</time></trkpt><trkpt lat="43.0218551" lon="12.7028882"><ele>584.2</ele><time>2026-04-12T13:06:49.857Z</time></trkpt><trkpt lat="43.0219368" lon="12.7028486"><ele>587.4000000000001</ele><time>2026-04-12T13:06:51.85Z</time></trkpt><trkpt lat="43.0220224" lon="12.7027727"><ele>590.6</ele><time>2026-04-12T13:06:53.848Z</time></trkpt><trkpt lat="43.0221241" lon="12.702682"><ele>593.8000000000001</ele><time>2026-04-12T13:06:55.852Z</time></trkpt><trkpt lat="43.0221883" lon="12.7026308"><ele>597.0</ele><time>2026-04-12T13:06:56.835Z</time></trkpt><trkpt lat="43.0222538" lon="12.7025796"><ele>597.0</ele><time>2026-04-12T13:06:57.846Z</time></trkpt><trkpt lat="43.0223206" lon="12.7025295"><ele>597.0</ele><time>2026-04-12T13:06:58.84Z</time></trkpt><trkpt lat="43.0223861" lon="12.7024831"><ele>597.0</ele><time>2026-04-12T13:06:59.848Z</time></trkpt><trkpt lat="43.0224528" lon="12.7024273"><ele>597.0</ele><time>2026-04-12T13:07:00.855Z</time></trkpt><trkpt lat="43.0225229" lon="12.7023615"><ele>597.0</ele><time>2026-04-12T13:07:01.85Z</time></trkpt><trkpt lat="43.0226021" lon="12.7022917"><ele>597.0</ele><time>2026-04-12T13:07:02.845Z</time></trkpt><trkpt lat="43.0226792" lon="12.7022154"><ele>597.4</ele><time>2026-04-12T13:07:03.844Z</time></trkpt><trkpt lat="43.0227572" lon="12.7021308"><ele>597.8000000000001</ele><time>2026-04-12T13:07:04.849Z</time></trkpt><trkpt lat="43.0228464" lon="12.702036"><ele>598.2</ele><time>2026-04-12T13:07:05.846Z</time></trkpt><trkpt lat="43.0229367" lon="12.7019402"><ele>598.6</ele><time>2026-04-12T13:07:06.841Z</time></trkpt><trkpt lat="43.0230229" lon="12.7018476"><ele>599.0</ele><time>2026-04-12T13:07:07.847Z</time></trkpt><trkpt lat="43.023105" lon="12.7017454"><ele>601.4</ele><time>2026-04-12T13:07:08.845Z</time></trkpt><trkpt lat="43.0231695" lon="12.7016216"><ele>603.8</ele><time>2026-04-12T13:07:09.867Z</time></trkpt><trkpt lat="43.0232183" lon="12.7014911"><ele>606.2</ele><time>2026-04-12T13:07:10.843Z</time></trkpt><trkpt lat="43.0232583" lon="12.7013678"><ele>608.6</ele><time>2026-04-12T13:07:11.849Z</time></trkpt><trkpt lat="43.0232964" lon="12.701263"><ele>611.0</ele><time>2026-04-12T13:07:12.839Z</time></trkpt><trkpt lat="43.0233519" lon="12.7011774"><ele>611.0000000000001</ele><time>2026-04-12T13:07:13.837Z</time></trkpt><trkpt lat="43.0234184" lon="12.7011294"><ele>611.0</ele><time>2026-04-12T13:07:14.834Z</time></trkpt><trkpt lat="43.0234814" lon="12.7011189"><ele>611.0</ele><time>2026-04-12T13:07:15.834Z</time></trkpt><trkpt lat="43.0235439" lon="12.7011608"><ele>611.0</ele><time>2026-04-12T13:07:16.842Z</time></trkpt><trkpt lat="43.0235817" lon="12.7012311"><ele>611.0</ele><time>2026-04-12T13:07:17.831Z</time></trkpt><trkpt lat="43.0236178" lon="12.7013282"><ele>611.0000000000001</ele><time>2026-04-12T13:07:18.846Z</time></trkpt><trkpt lat="43.0236311" lon="12.701419"><ele>611.0</ele><time>2026-04-12T13:07:19.839Z</time></trkpt><trkpt lat="43.0236507" lon="12.7015223"><ele>611.0</ele><time>2026-04-12T13:07:20.839Z</time></trkpt><trkpt lat="43.0236778" lon="12.701637"><ele>611.0</ele><time>2026-04-12T13:07:21.838Z</time></trkpt><trkpt lat="43.0237045" lon="12.7017696"><ele>611.0</ele><time>2026-04-12T13:07:22.837Z</time></trkpt><trkpt lat="43.0237337" lon="12.7019021"><ele>611.0</ele><time>2026-04-12T13:07:23.835Z</time></trkpt><trkpt lat="43.0237596" lon="12.7020377"><ele>611.0</ele><time>2026-04-12T13:07:24.839Z</time></trkpt><trkpt lat="43.0237826" lon="12.7021775"><ele>607.5</ele><time>2026-04-12T13:07:25.842Z</time></trkpt><trkpt lat="43.0237973" lon="12.7023263"><ele>604.0</ele><time>2026-04-12T13:07:26.84Z</time></trkpt><trkpt lat="43.0238103" lon="12.7024789"><ele>600.5</ele><time>2026-04-12T13:07:27.836Z</time></trkpt><trkpt lat="43.023818" lon="12.7026364"><ele>597.0</ele><time>2026-04-12T13:07:28.838Z</time></trkpt><trkpt lat="43.023822" lon="12.7027935"><ele>595.0</ele><time>2026-04-12T13:07:29.841Z</time></trkpt><trkpt lat="43.0238258" lon="12.7029504"><ele>593.0</ele><time>2026-04-12T13:07:30.84Z</time></trkpt><trkpt lat="43.0238337" lon="12.7031114"><ele>591.0</ele><time>2026-04-12T13:07:31.845Z</time></trkpt><trkpt lat="43.0238499" lon="12.7032726"><ele>589.0</ele><time>2026-04-12T13:07:32.84Z</time></trkpt><trkpt lat="43.0238734" lon="12.703434"><ele>588.5</ele><time>2026-04-12T13:07:33.838Z</time></trkpt><trkpt lat="43.0238951" lon="12.7036002"><ele>588.0</ele><time>2026-04-12T13:07:34.84Z</time></trkpt><trkpt lat="43.0239139" lon="12.7037694"><ele>587.5</ele><time>2026-04-12T13:07:35.837Z</time></trkpt><trkpt lat="43.0239347" lon="12.7039365"><ele>587.0</ele><time>2026-04-12T13:07:36.842Z</time></trkpt><trkpt lat="43.0239538" lon="12.7041045"><ele>587.0</ele><time>2026-04-12T13:07:37.842Z</time></trkpt><trkpt lat="43.0239785" lon="12.7042651"><ele>587.0</ele><time>2026-04-12T13:07:38.846Z</time></trkpt><trkpt lat="43.0240132" lon="12.7044173"><ele>587.0</ele><time>2026-04-12T13:07:39.846Z</time></trkpt><trkpt lat="43.0240565" lon="12.7045652"><ele>587.0</ele><time>2026-04-12T13:07:40.844Z</time></trkpt><trkpt lat="43.0241077" lon="12.7047109"><ele>593.25</ele><time>2026-04-12T13:07:41.842Z</time></trkpt><trkpt lat="43.0241565" lon="12.7048568"><ele>599.5</ele><time>2026-04-12T13:07:42.85Z</time></trkpt><trkpt lat="43.0241977" lon="12.705003"><ele>605.75</ele><time>2026-04-12T13:07:43.85Z</time></trkpt><trkpt lat="43.0242381" lon="12.7051548"><ele>612.0</ele><time>2026-04-12T13:07:44.837Z</time></trkpt><trkpt lat="43.0242794" lon="12.7053066"><ele>612.0</ele><time>2026-04-12T13:07:45.837Z</time></trkpt><trkpt lat="43.0243249" lon="12.7054495"><ele>612.0</ele><time>2026-04-12T13:07:46.841Z</time></trkpt><trkpt lat="43.0243738" lon="12.7055853"><ele>612.0</ele><time>2026-04-12T13:07:47.837Z</time></trkpt><trkpt lat="43.0244345" lon="12.7057015"><ele>612.0</ele><time>2026-04-12T13:07:48.84Z</time></trkpt><trkpt lat="43.0245257" lon="12.7057933"><ele>612.0</ele><time>2026-04-12T13:07:49.841Z</time></trkpt><trkpt lat="43.0246293" lon="12.7058534"><ele>612.0</ele><time>2026-04-12T13:07:50.84Z</time></trkpt><trkpt lat="43.0247431" lon="12.7059002"><ele>612.0</ele><time>2026-04-12T13:07:51.841Z</time></trkpt><trkpt lat="43.0248574" lon="12.705944"><ele>612.0</ele><time>2026-04-12T13:07:52.852Z</time></trkpt><trkpt lat="43.0249792" lon="12.705988"><ele>612.0</ele><time>2026-04-12T13:07:53.845Z</time></trkpt><trkpt lat="43.0251082" lon="12.706028"><ele>609.25</ele><time>2026-04-12T13:07:54.846Z</time></trkpt><trkpt lat="43.025236" lon="12.7060597"><ele>606.5</ele><time>2026-04-12T13:07:55.842Z</time></trkpt><trkpt lat="43.0253655" lon="12.7060827"><ele>603.75</ele><time>2026-04-12T13:07:56.836Z</time></trkpt><trkpt lat="43.0254962" lon="12.7060958"><ele>601.0</ele><time>2026-04-12T13:07:57.849Z</time></trkpt><trkpt lat="43.0256269" lon="12.7061037"><ele>601.0</ele><time>2026-04-12T13:07:58.832Z</time></trkpt><trkpt lat="43.0257562" lon="12.7061098"><ele>601.0</ele><time>2026-04-12T13:07:59.828Z</time></trkpt><trkpt lat="43.0258881" lon="12.7061087"><ele>601.0</ele><time>2026-04-12T13:08:00.846Z</time></trkpt><trkpt lat="43.0260202" lon="12.7060892"><ele>601.0</ele><time>2026-04-12T13:08:01.849Z</time></trkpt><trkpt lat="43.026151" lon="12.7060457"><ele>615.25</ele><time>2026-04-12T13:08:02.861Z</time></trkpt><trkpt lat="43.0262742" lon="12.7059833"><ele>629.5</ele><time>2026-04-12T13:08:03.853Z</time></trkpt><trkpt lat="43.0263944" lon="12.7059204"><ele>643.75</ele><time>2026-04-12T13:08:04.835Z</time></trkpt><trkpt lat="43.0265193" lon="12.7058959"><ele>658.0</ele><time>2026-04-12T13:08:05.85Z</time></trkpt><trkpt lat="43.0266344" lon="12.7059036"><ele>659.5</ele><time>2026-04-12T13:08:06.838Z</time></trkpt><trkpt lat="43.0267525" lon="12.7059543"><ele>661.0</ele><time>2026-04-12T13:08:07.844Z</time></trkpt><trkpt lat="43.0268664" lon="12.7060238"><ele>662.5</ele><time>2026-04-12T13:08:08.844Z</time></trkpt><trkpt lat="43.0269746" lon="12.706084"><ele>664.0</ele><time>2026-04-12T13:08:09.841Z</time></trkpt><trkpt lat="43.0270841" lon="12.7061249"><ele>657.5</ele><time>2026-04-12T13:08:10.837Z</time></trkpt><trkpt lat="43.0272052" lon="12.7061403"><ele>651.0</ele><time>2026-04-12T13:08:11.844Z</time></trkpt><trkpt lat="43.0273405" lon="12.7061459"><ele>644.5</ele><time>2026-04-12T13:08:12.832Z</time></trkpt><trkpt lat="43.0274804" lon="12.7061697"><ele>638.0</ele><time>2026-04-12T13:08:13.839Z</time></trkpt><trkpt lat="43.0276128" lon="12.706222"><ele>638.0</ele><time>2026-04-12T13:08:14.832Z</time></trkpt><trkpt lat="43.0277279" lon="12.7063015"><ele>638.0</ele><time>2026-04-12T13:08:15.84Z</time></trkpt><trkpt lat="43.0278227" lon="12.7063883"><ele>638.0</ele><time>2026-04-12T13:08:16.834Z</time></trkpt><trkpt lat="43.0279044" lon="12.7064656"><ele>638.0</ele><time>2026-04-12T13:08:17.841Z</time></trkpt><trkpt lat="43.0279833" lon="12.706535"><ele>638.0</ele><time>2026-04-12T13:08:18.836Z</time></trkpt><trkpt lat="43.0280649" lon="12.706597"><ele>638.0</ele><time>2026-04-12T13:08:19.849Z</time></trkpt><trkpt lat="43.0281566" lon="12.7066614"><ele>638.0</ele><time>2026-04-12T13:08:20.839Z</time></trkpt><trkpt lat="43.0282543" lon="12.7067164"><ele>638.0</ele><time>2026-04-12T13:08:21.853Z</time></trkpt><trkpt lat="43.0283527" lon="12.7067637"><ele>638.0</ele><time>2026-04-12T13:08:22.841Z</time></trkpt><trkpt lat="43.0284497" lon="12.7068023"><ele>638.0</ele><time>2026-04-12T13:08:23.846Z</time></trkpt><trkpt lat="43.0285501" lon="12.7068444"><ele>634.75</ele><time>2026-04-12T13:08:24.837Z</time></trkpt><trkpt lat="43.028656" lon="12.7068934"><ele>631.5</ele><time>2026-04-12T13:08:25.857Z</time></trkpt><trkpt lat="43.0287656" lon="12.7069521"><ele>628.25</ele><time>2026-04-12T13:08:26.837Z</time></trkpt><trkpt lat="43.0288757" lon="12.7070184"><ele>625.0</ele><time>2026-04-12T13:08:27.835Z</time></trkpt><trkpt lat="43.0289908" lon="12.7070929"><ele>625.0</ele><time>2026-04-12T13:08:28.862Z</time></trkpt><trkpt lat="43.0291064" lon="12.7071708"><ele>625.0</ele><time>2026-04-12T13:08:29.838Z</time></trkpt><trkpt lat="43.0292198" lon="12.7072527"><ele>625.0</ele><time>2026-04-12T13:08:30.841Z</time></trkpt><trkpt lat="43.0293302" lon="12.7073382"><ele>625.0</ele><time>2026-04-12T13:08:31.834Z</time></trkpt><trkpt lat="43.0294481" lon="12.7074146"><ele>622.5</ele><time>2026-04-12T13:08:32.832Z</time></trkpt><trkpt lat="43.0295677" lon="12.7074965"><ele>620.0</ele><time>2026-04-12T13:08:33.842Z</time></trkpt><trkpt lat="43.0296843" lon="12.7075832"><ele>617.5</ele><time>2026-04-12T13:08:34.84Z</time></trkpt><trkpt lat="43.0297943" lon="12.7076705"><ele>615.0</ele><time>2026-04-12T13:08:35.849Z</time></trkpt><trkpt lat="43.0299076" lon="12.7077491"><ele>622.25</ele><time>2026-04-12T13:08:36.838Z</time></trkpt><trkpt lat="43.0300179" lon="12.7078252"><ele>629.5</ele><time>2026-04-12T13:08:37.837Z</time></trkpt><trkpt lat="43.0301242" lon="12.7079039"><ele>636.75</ele><time>2026-04-12T13:08:38.835Z</time></trkpt><trkpt lat="43.0302216" lon="12.7079964"><ele>644.0</ele><time>2026-04-12T13:08:39.837Z</time></trkpt><trkpt lat="43.0303134" lon="12.7081027"><ele>644.0</ele><time>2026-04-12T13:08:40.844Z</time></trkpt><trkpt lat="43.0304103" lon="12.7081995"><ele>644.0</ele><time>2026-04-12T13:08:41.838Z</time></trkpt><trkpt lat="43.0305127" lon="12.7082847"><ele>644.0</ele><time>2026-04-12T13:08:42.849Z</time></trkpt><trkpt lat="43.0306272" lon="12.7083542"><ele>644.0</ele><time>2026-04-12T13:08:43.853Z</time></trkpt><trkpt lat="43.0307493" lon="12.7084205"><ele>642.0</ele><time>2026-04-12T13:08:44.844Z</time></trkpt><trkpt lat="43.0308754" lon="12.7084874"><ele>640.0</ele><time>2026-04-12T13:08:45.841Z</time></trkpt><trkpt lat="43.0310078" lon="12.7085568"><ele>638.0</ele><time>2026-04-12T13:08:46.835Z</time></trkpt><trkpt lat="43.0311374" lon="12.7086211"><ele>636.0</ele><time>2026-04-12T13:08:47.843Z</time></trkpt><trkpt lat="43.0312642" lon="12.7086938"><ele>636.0</ele><time>2026-04-12T13:08:48.84Z</time></trkpt><trkpt lat="43.0313925" lon="12.7087582"><ele>636.0</ele><time>2026-04-12T13:08:49.834Z</time></trkpt><trkpt lat="43.0315207" lon="12.7088291"><ele>636.0</ele><time>2026-04-12T13:08:50.843Z</time></trkpt><trkpt lat="43.0316488" lon="12.7088956"><ele>636.0</ele><time>2026-04-12T13:08:51.851Z</time></trkpt><trkpt lat="43.0317764" lon="12.7089614"><ele>639.5</ele><time>2026-04-12T13:08:52.841Z</time></trkpt><trkpt lat="43.0319041" lon="12.7090286"><ele>643.0</ele><time>2026-04-12T13:08:53.841Z</time></trkpt><trkpt lat="43.0320293" lon="12.709096"><ele>646.5</ele><time>2026-04-12T13:08:54.846Z</time></trkpt><trkpt lat="43.0321583" lon="12.7091657"><ele>650.0</ele><time>2026-04-12T13:08:55.837Z</time></trkpt><trkpt lat="43.0322881" lon="12.7092321"><ele>650.0</ele><time>2026-04-12T13:08:56.84Z</time></trkpt><trkpt lat="43.0324157" lon="12.7092885"><ele>650.0</ele><time>2026-04-12T13:08:57.843Z</time></trkpt><trkpt lat="43.0325488" lon="12.7093365"><ele>650.0</ele><time>2026-04-12T13:08:58.845Z</time></trkpt><trkpt lat="43.0326847" lon="12.7093848"><ele>650.0</ele><time>2026-04-12T13:08:59.84Z</time></trkpt><trkpt lat="43.0328255" lon="12.7094308"><ele>647.5</ele><time>2026-04-12T13:09:00.846Z</time></trkpt><trkpt lat="43.0329679" lon="12.7094787"><ele>645.0</ele><time>2026-04-12T13:09:01.839Z</time></trkpt><trkpt lat="43.0331062" lon="12.7095314"><ele>642.5</ele><time>2026-04-12T13:09:02.844Z</time></trkpt><trkpt lat="43.0332343" lon="12.709588"><ele>640.0</ele><time>2026-04-12T13:09:03.839Z</time></trkpt><trkpt lat="43.0333625" lon="12.7096453"><ele>640.0</ele><time>2026-04-12T13:09:04.842Z</time></trkpt><trkpt lat="43.0334841" lon="12.7097058"><ele>640.0</ele><time>2026-04-12T13:09:05.841Z</time></trkpt><trkpt lat="43.0336057" lon="12.7097651"><ele>640.0</ele><time>2026-04-12T13:09:06.847Z</time></trkpt><trkpt lat="43.0337302" lon="12.7098128"><ele>640.0</ele><time>2026-04-12T13:09:07.841Z</time></trkpt><trkpt lat="43.0338623" lon="12.7098425"><ele>640.0</ele><time>2026-04-12T13:09:08.853Z</time></trkpt><trkpt lat="43.0339926" lon="12.7098758"><ele>640.0</ele><time>2026-04-12T13:09:09.839Z</time></trkpt><trkpt lat="43.0341266" lon="12.7099277"><ele>640.0</ele><time>2026-04-12T13:09:10.843Z</time></trkpt><trkpt lat="43.0342574" lon="12.7099929"><ele>640.0</ele><time>2026-04-12T13:09:11.845Z</time></trkpt><trkpt lat="43.0343949" lon="12.7100555"><ele>642.25</ele><time>2026-04-12T13:09:12.839Z</time></trkpt><trkpt lat="43.0345401" lon="12.7100902"><ele>644.5</ele><time>2026-04-12T13:09:13.851Z</time></trkpt><trkpt lat="43.0346734" lon="12.7101042"><ele>646.75</ele><time>2026-04-12T13:09:14.837Z</time></trkpt><trkpt lat="43.0347939" lon="12.7101035"><ele>649.0</ele><time>2026-04-12T13:09:15.839Z</time></trkpt><trkpt lat="43.0349079" lon="12.7100948"><ele>651.4000000000001</ele><time>2026-04-12T13:09:16.837Z</time></trkpt><trkpt lat="43.035005" lon="12.7100912"><ele>653.8</ele><time>2026-04-12T13:09:17.849Z</time></trkpt><trkpt lat="43.0350908" lon="12.7101204"><ele>656.2</ele><time>2026-04-12T13:09:18.837Z</time></trkpt><trkpt lat="43.0351607" lon="12.7102036"><ele>658.5999999999999</ele><time>2026-04-12T13:09:19.843Z</time></trkpt><trkpt lat="43.0352169" lon="12.7103119"><ele>661.0</ele><time>2026-04-12T13:09:20.835Z</time></trkpt><trkpt lat="43.0352548" lon="12.7104279"><ele>655.8333333333334</ele><time>2026-04-12T13:09:21.843Z</time></trkpt><trkpt lat="43.0352721" lon="12.7105564"><ele>650.6666666666667</ele><time>2026-04-12T13:09:22.837Z</time></trkpt><trkpt lat="43.0352742" lon="12.7106727"><ele>645.5</ele><time>2026-04-12T13:09:23.832Z</time></trkpt><trkpt lat="43.0352894" lon="12.7107847"><ele>640.3333333333334</ele><time>2026-04-12T13:09:24.85Z</time></trkpt><trkpt lat="43.035337" lon="12.7108821"><ele>635.1666666666666</ele><time>2026-04-12T13:09:25.834Z</time></trkpt><trkpt lat="43.0354168" lon="12.7109541"><ele>630.0</ele><time>2026-04-12T13:09:26.838Z</time></trkpt><trkpt lat="43.0355248" lon="12.7110121"><ele>630.0</ele><time>2026-04-12T13:09:27.837Z</time></trkpt><trkpt lat="43.0356415" lon="12.7110663"><ele>630.0</ele><time>2026-04-12T13:09:28.844Z</time></trkpt><trkpt lat="43.0357601" lon="12.7111195"><ele>630.0</ele><time>2026-04-12T13:09:29.835Z</time></trkpt><trkpt lat="43.0358742" lon="12.7111668"><ele>630.0</ele><time>2026-04-12T13:09:30.843Z</time></trkpt><trkpt lat="43.0359915" lon="12.7112158"><ele>630.25</ele><time>2026-04-12T13:09:31.844Z</time></trkpt><trkpt lat="43.0361051" lon="12.7112579"><ele>630.5</ele><time>2026-04-12T13:09:32.837Z</time></trkpt><trkpt lat="43.0362159" lon="12.7112686"><ele>630.75</ele><time>2026-04-12T13:09:33.847Z</time></trkpt><trkpt lat="43.0363313" lon="12.7112454"><ele>631.0</ele><time>2026-04-12T13:09:34.846Z</time></trkpt><trkpt lat="43.0364502" lon="12.7111843"><ele>631.0</ele><time>2026-04-12T13:09:35.846Z</time></trkpt><trkpt lat="43.0365593" lon="12.7111101"><ele>631.0</ele><time>2026-04-12T13:09:36.842Z</time></trkpt><trkpt lat="43.0366647" lon="12.7110254"><ele>631.0</ele><time>2026-04-12T13:09:37.845Z</time></trkpt><trkpt lat="43.0367707" lon="12.7109318"><ele>631.0</ele><time>2026-04-12T13:09:38.844Z</time></trkpt><trkpt lat="43.0368668" lon="12.710831"><ele>635.8333333333334</ele><time>2026-04-12T13:09:39.836Z</time></trkpt><trkpt lat="43.0369566" lon="12.7107336"><ele>640.6666666666667</ele><time>2026-04-12T13:09:40.839Z</time></trkpt><trkpt lat="43.0370258" lon="12.7106426"><ele>645.5</ele><time>2026-04-12T13:09:41.836Z</time></trkpt><trkpt lat="43.0370791" lon="12.7105588"><ele>650.3333333333334</ele><time>2026-04-12T13:09:42.846Z</time></trkpt><trkpt lat="43.0371349" lon="12.7105102"><ele>655.1666666666666</ele><time>2026-04-12T13:09:43.839Z</time></trkpt><trkpt lat="43.0371976" lon="12.7105194"><ele>660.0</ele><time>2026-04-12T13:09:44.837Z</time></trkpt><trkpt lat="43.0372648" lon="12.7106761"><ele>660.0</ele><time>2026-04-12T13:09:46.845Z</time></trkpt><trkpt lat="43.0372639" lon="12.7107941"><ele>660.0</ele><time>2026-04-12T13:09:47.84Z</time></trkpt><trkpt lat="43.0372721" lon="12.710915"><ele>660.0</ele><time>2026-04-12T13:09:48.837Z</time></trkpt><trkpt lat="43.0372978" lon="12.711038"><ele>660.0</ele><time>2026-04-12T13:09:49.861Z</time></trkpt><trkpt lat="43.0373331" lon="12.7111706"><ele>660.0</ele><time>2026-04-12T13:09:50.837Z</time></trkpt><trkpt lat="43.0373785" lon="12.7112995"><ele>658.2</ele><time>2026-04-12T13:09:51.843Z</time></trkpt><trkpt lat="43.0374317" lon="12.7114344"><ele>656.4</ele><time>2026-04-12T13:09:52.85Z</time></trkpt><trkpt lat="43.0374959" lon="12.7115557"><ele>654.5999999999999</ele><time>2026-04-12T13:09:53.846Z</time></trkpt><trkpt lat="43.0375553" lon="12.7116625"><ele>652.8</ele><time>2026-04-12T13:09:54.852Z</time></trkpt><trkpt lat="43.037628" lon="12.7117655"><ele>651.0</ele><time>2026-04-12T13:09:55.841Z</time></trkpt><trkpt lat="43.0377149" lon="12.7118478"><ele>647.1999999999999</ele><time>2026-04-12T13:09:56.844Z</time></trkpt><trkpt lat="43.037814" lon="12.7119135"><ele>643.4</ele><time>2026-04-12T13:09:57.838Z</time></trkpt><trkpt lat="43.0379121" lon="12.7119641"><ele>639.6</ele><time>2026-04-12T13:09:58.836Z</time></trkpt><trkpt lat="43.0380121" lon="12.7119958"><ele>635.8</ele><time>2026-04-12T13:09:59.852Z</time></trkpt><trkpt lat="43.0381235" lon="12.7120078"><ele>632.0</ele><time>2026-04-12T13:10:00.845Z</time></trkpt><trkpt lat="43.0382471" lon="12.7119829"><ele>633.4</ele><time>2026-04-12T13:10:01.845Z</time></trkpt><trkpt lat="43.0383675" lon="12.7119632"><ele>634.8000000000001</ele><time>2026-04-12T13:10:02.844Z</time></trkpt><trkpt lat="43.0384866" lon="12.7119443"><ele>636.2</ele><time>2026-04-12T13:10:03.844Z</time></trkpt><trkpt lat="43.0385971" lon="12.7119386"><ele>637.6</ele><time>2026-04-12T13:10:04.849Z</time></trkpt><trkpt lat="43.0386918" lon="12.7119515"><ele>639.0</ele><time>2026-04-12T13:10:05.843Z</time></trkpt><trkpt lat="43.0387679" lon="12.711973"><ele>639.0</ele><time>2026-04-12T13:10:06.843Z</time></trkpt><trkpt lat="43.0388295" lon="12.7120265"><ele>639.0</ele><time>2026-04-12T13:10:07.846Z</time></trkpt><trkpt lat="43.0388758" lon="12.7120963"><ele>639.0</ele><time>2026-04-12T13:10:08.845Z</time></trkpt><trkpt lat="43.0388836" lon="12.7121956"><ele>639.0</ele><time>2026-04-12T13:10:09.849Z</time></trkpt><trkpt lat="43.0388467" lon="12.7122982"><ele>639.0</ele><time>2026-04-12T13:10:10.844Z</time></trkpt><trkpt lat="43.0387898" lon="12.7123781"><ele>639.0</ele><time>2026-04-12T13:10:11.84Z</time></trkpt><trkpt lat="43.0387308" lon="12.7124601"><ele>639.0</ele><time>2026-04-12T13:10:12.838Z</time></trkpt><trkpt lat="43.0386857" lon="12.7125491"><ele>639.0</ele><time>2026-04-12T13:10:13.847Z</time></trkpt><trkpt lat="43.0387226" lon="12.7127279"><ele>639.0</ele><time>2026-04-12T13:10:15.848Z</time></trkpt><trkpt lat="43.0387865" lon="12.7128031"><ele>639.0</ele><time>2026-04-12T13:10:16.85Z</time></trkpt><trkpt lat="43.0388513" lon="12.7128881"><ele>639.0</ele><time>2026-04-12T13:10:17.843Z</time></trkpt><trkpt lat="43.038897" lon="12.7129946"><ele>639.2</ele><time>2026-04-12T13:10:18.852Z</time></trkpt><trkpt lat="43.0389148" lon="12.7131204"><ele>639.4</ele><time>2026-04-12T13:10:19.84Z</time></trkpt><trkpt lat="43.0389163" lon="12.7132654"><ele>639.6</ele><time>2026-04-12T13:10:20.842Z</time></trkpt><trkpt lat="43.0389038" lon="12.7134105"><ele>639.8</ele><time>2026-04-12T13:10:21.842Z</time></trkpt><trkpt lat="43.0388878" lon="12.7135707"><ele>640.0</ele><time>2026-04-12T13:10:22.843Z</time></trkpt><trkpt lat="43.0388862" lon="12.7137381"><ele>639.4</ele><time>2026-04-12T13:10:23.847Z</time></trkpt><trkpt lat="43.0389001" lon="12.7138983"><ele>638.8</ele><time>2026-04-12T13:10:24.849Z</time></trkpt><trkpt lat="43.0389227" lon="12.7140514"><ele>638.2</ele><time>2026-04-12T13:10:25.844Z</time></trkpt><trkpt lat="43.038941" lon="12.714193"><ele>637.6</ele><time>2026-04-12T13:10:26.846Z</time></trkpt><trkpt lat="43.0389424" lon="12.7143269"><ele>637.0</ele><time>2026-04-12T13:10:27.844Z</time></trkpt><trkpt lat="43.0389056" lon="12.7144548"><ele>633.2</ele><time>2026-04-12T13:10:28.853Z</time></trkpt><trkpt lat="43.0388334" lon="12.7145525"><ele>629.4000000000001</ele><time>2026-04-12T13:10:29.84Z</time></trkpt><trkpt lat="43.0387459" lon="12.7146202"><ele>625.5999999999999</ele><time>2026-04-12T13:10:30.841Z</time></trkpt><trkpt lat="43.0386455" lon="12.7146688"><ele>621.8</ele><time>2026-04-12T13:10:31.844Z</time></trkpt><trkpt lat="43.0385624" lon="12.7147616"><ele>618.0</ele><time>2026-04-12T13:10:32.841Z</time></trkpt><trkpt lat="43.0384855" lon="12.7148779"><ele>618.0</ele><time>2026-04-12T13:10:33.847Z</time></trkpt><trkpt lat="43.038423" lon="12.7149846"><ele>618.0</ele><time>2026-04-12T13:10:34.845Z</time></trkpt><trkpt lat="43.0383694" lon="12.7150908"><ele>618.0</ele><time>2026-04-12T13:10:35.846Z</time></trkpt><trkpt lat="43.0383466" lon="12.7152024"><ele>618.0</ele><time>2026-04-12T13:10:36.847Z</time></trkpt><trkpt lat="43.0383449" lon="12.7153272"><ele>618.0</ele><time>2026-04-12T13:10:37.835Z</time></trkpt><trkpt lat="43.0383543" lon="12.7154599"><ele>619.0</ele><time>2026-04-12T13:10:38.835Z</time></trkpt><trkpt lat="43.0383804" lon="12.7155906"><ele>620.0</ele><time>2026-04-12T13:10:39.838Z</time></trkpt><trkpt lat="43.0384104" lon="12.7157251"><ele>621.0</ele><time>2026-04-12T13:10:40.84Z</time></trkpt><trkpt lat="43.0384429" lon="12.7158648"><ele>622.0</ele><time>2026-04-12T13:10:41.844Z</time></trkpt><trkpt lat="43.0384767" lon="12.7160074"><ele>623.0</ele><time>2026-04-12T13:10:42.831Z</time></trkpt><trkpt lat="43.038513" lon="12.7161434"><ele>623.0</ele><time>2026-04-12T13:10:43.846Z</time></trkpt><trkpt lat="43.0385645" lon="12.7162628"><ele>623.0</ele><time>2026-04-12T13:10:44.844Z</time></trkpt><trkpt lat="43.0386432" lon="12.7163544"><ele>623.0</ele><time>2026-04-12T13:10:45.842Z</time></trkpt><trkpt lat="43.0387343" lon="12.7164098"><ele>623.0</ele><time>2026-04-12T13:10:46.839Z</time></trkpt><trkpt lat="43.0388295" lon="12.716454"><ele>623.0</ele><time>2026-04-12T13:10:47.846Z</time></trkpt><trkpt lat="43.0389246" lon="12.7165026"><ele>623.0</ele><time>2026-04-12T13:10:48.84Z</time></trkpt><trkpt lat="43.0390163" lon="12.7165805"><ele>623.0</ele><time>2026-04-12T13:10:49.843Z</time></trkpt><trkpt lat="43.0391084" lon="12.7166719"><ele>623.0</ele><time>2026-04-12T13:10:50.844Z</time></trkpt><trkpt lat="43.0391949" lon="12.7167658"><ele>623.0</ele><time>2026-04-12T13:10:51.843Z</time></trkpt><trkpt lat="43.0392844" lon="12.7168633"><ele>623.0</ele><time>2026-04-12T13:10:52.855Z</time></trkpt><trkpt lat="43.0393658" lon="12.7169791"><ele>628.75</ele><time>2026-04-12T13:10:53.833Z</time></trkpt><trkpt lat="43.0394456" lon="12.717099"><ele>634.5</ele><time>2026-04-12T13:10:54.846Z</time></trkpt><trkpt lat="43.0395333" lon="12.7172169"><ele>640.25</ele><time>2026-04-12T13:10:55.857Z</time></trkpt><trkpt lat="43.0396251" lon="12.7173179"><ele>646.0</ele><time>2026-04-12T13:10:56.841Z</time></trkpt><trkpt lat="43.0397231" lon="12.7174105"><ele>646.0</ele><time>2026-04-12T13:10:57.835Z</time></trkpt><trkpt lat="43.0398276" lon="12.717478"><ele>646.0</ele><time>2026-04-12T13:10:58.84Z</time></trkpt><trkpt lat="43.0399388" lon="12.7175192"><ele>646.0</ele><time>2026-04-12T13:10:59.842Z</time></trkpt><trkpt lat="43.0400551" lon="12.7175618"><ele>646.0</ele><time>2026-04-12T13:11:00.83Z</time></trkpt><trkpt lat="43.0401591" lon="12.7176179"><ele>646.1999999999999</ele><time>2026-04-12T13:11:01.838Z</time></trkpt><trkpt lat="43.0402575" lon="12.7176856"><ele>646.4</ele><time>2026-04-12T13:11:02.838Z</time></trkpt><trkpt lat="43.0403681" lon="12.7177322"><ele>646.6</ele><time>2026-04-12T13:11:03.827Z</time></trkpt><trkpt lat="43.040479" lon="12.7177323"><ele>646.8</ele><time>2026-04-12T13:11:04.827Z</time></trkpt><trkpt lat="43.0405858" lon="12.7177265"><ele>647.0</ele><time>2026-04-12T13:11:05.834Z</time></trkpt><trkpt lat="43.0406807" lon="12.7177514"><ele>647.0</ele><time>2026-04-12T13:11:06.84Z</time></trkpt><trkpt lat="43.0407708" lon="12.7178088"><ele>647.0</ele><time>2026-04-12T13:11:07.838Z</time></trkpt><trkpt lat="43.0408616" lon="12.7178675"><ele>647.0</ele><time>2026-04-12T13:11:08.828Z</time></trkpt><trkpt lat="43.0409766" lon="12.7179038"><ele>647.0</ele><time>2026-04-12T13:11:09.838Z</time></trkpt><trkpt lat="43.0410894" lon="12.7179023"><ele>647.0</ele><time>2026-04-12T13:11:10.832Z</time></trkpt><trkpt lat="43.0412019" lon="12.7178694"><ele>643.4</ele><time>2026-04-12T13:11:11.829Z</time></trkpt><trkpt lat="43.0413147" lon="12.7178274"><ele>639.8000000000001</ele><time>2026-04-12T13:11:12.832Z</time></trkpt><trkpt lat="43.0414258" lon="12.7177994"><ele>636.2</ele><time>2026-04-12T13:11:13.839Z</time></trkpt><trkpt lat="43.0415332" lon="12.7177916"><ele>632.6</ele><time>2026-04-12T13:11:14.843Z</time></trkpt><trkpt lat="43.0416352" lon="12.7178105"><ele>629.0</ele><time>2026-04-12T13:11:15.841Z</time></trkpt><trkpt lat="43.0417194" lon="12.717866"><ele>624.6</ele><time>2026-04-12T13:11:16.835Z</time></trkpt><trkpt lat="43.0417967" lon="12.7179681"><ele>620.2</ele><time>2026-04-12T13:11:17.836Z</time></trkpt><trkpt lat="43.0418383" lon="12.7180962"><ele>615.8000000000001</ele><time>2026-04-12T13:11:18.833Z</time></trkpt><trkpt lat="43.0418573" lon="12.7182231"><ele>611.4</ele><time>2026-04-12T13:11:19.833Z</time></trkpt><trkpt lat="43.0418587" lon="12.7183685"><ele>607.0</ele><time>2026-04-12T13:11:20.836Z</time></trkpt><trkpt lat="43.041824" lon="12.718512"><ele>606.0</ele><time>2026-04-12T13:11:21.837Z</time></trkpt><trkpt lat="43.0417741" lon="12.7186378"><ele>605.0</ele><time>2026-04-12T13:11:22.832Z</time></trkpt><trkpt lat="43.0417215" lon="12.7187663"><ele>604.0</ele><time>2026-04-12T13:11:23.838Z</time></trkpt><trkpt lat="43.0416965" lon="12.7189103"><ele>603.0</ele><time>2026-04-12T13:11:24.843Z</time></trkpt><trkpt lat="43.0417104" lon="12.7190625"><ele>602.0</ele><time>2026-04-12T13:11:25.839Z</time></trkpt><trkpt lat="43.0417179" lon="12.7192066"><ele>602.0</ele><time>2026-04-12T13:11:26.85Z</time></trkpt><trkpt lat="43.0417189" lon="12.7193413"><ele>602.0</ele><time>2026-04-12T13:11:27.845Z</time></trkpt><trkpt lat="43.0417019" lon="12.7194638"><ele>602.0</ele><time>2026-04-12T13:11:28.833Z</time></trkpt><trkpt lat="43.0417" lon="12.7195804"><ele>602.0</ele><time>2026-04-12T13:11:29.835Z</time></trkpt><trkpt lat="43.0417211" lon="12.7196661"><ele>602.0</ele><time>2026-04-12T13:11:30.864Z</time></trkpt><trkpt lat="43.0418672" lon="12.719714"><ele>603.4</ele><time>2026-04-12T13:11:32.827Z</time></trkpt><trkpt lat="43.0419606" lon="12.7196976"><ele>604.8000000000001</ele><time>2026-04-12T13:11:33.837Z</time></trkpt><trkpt lat="43.0420608" lon="12.7196824"><ele>606.2</ele><time>2026-04-12T13:11:34.833Z</time></trkpt><trkpt lat="43.0421618" lon="12.7196727"><ele>607.6</ele><time>2026-04-12T13:11:35.844Z</time></trkpt><trkpt lat="43.0422657" lon="12.719677"><ele>609.0</ele><time>2026-04-12T13:11:36.836Z</time></trkpt><trkpt lat="43.0423701" lon="12.7196787"><ele>609.0</ele><time>2026-04-12T13:11:37.827Z</time></trkpt><trkpt lat="43.0424497" lon="12.719635"><ele>609.0</ele><time>2026-04-12T13:11:38.833Z</time></trkpt><trkpt lat="43.0425253" lon="12.7195243"><ele>609.0</ele><time>2026-04-12T13:11:39.834Z</time></trkpt><trkpt lat="43.0425934" lon="12.7194141"><ele>609.0</ele><time>2026-04-12T13:11:40.832Z</time></trkpt><trkpt lat="43.0426456" lon="12.7192896"><ele>609.0</ele><time>2026-04-12T13:11:41.826Z</time></trkpt><trkpt lat="43.0427027" lon="12.7191566"><ele>604.25</ele><time>2026-04-12T13:11:42.841Z</time></trkpt><trkpt lat="43.0427566" lon="12.7190099"><ele>599.5</ele><time>2026-04-12T13:11:43.844Z</time></trkpt><trkpt lat="43.0428269" lon="12.7188779"><ele>594.75</ele><time>2026-04-12T13:11:44.836Z</time></trkpt><trkpt lat="43.0429158" lon="12.7187641"><ele>590.0</ele><time>2026-04-12T13:11:45.84Z</time></trkpt><trkpt lat="43.0430282" lon="12.7186806"><ele>590.0</ele><time>2026-04-12T13:11:46.834Z</time></trkpt><trkpt lat="43.043138" lon="12.7185988"><ele>590.0</ele><time>2026-04-12T13:11:47.837Z</time></trkpt><trkpt lat="43.0432385" lon="12.7185186"><ele>590.0</ele><time>2026-04-12T13:11:48.841Z</time></trkpt><trkpt lat="43.0433356" lon="12.718441"><ele>590.0</ele><time>2026-04-12T13:11:49.835Z</time></trkpt><trkpt lat="43.0434331" lon="12.7183846"><ele>588.75</ele><time>2026-04-12T13:11:50.836Z</time></trkpt><trkpt lat="43.0435497" lon="12.7183758"><ele>587.5</ele><time>2026-04-12T13:11:51.838Z</time></trkpt><trkpt lat="43.0436707" lon="12.7184055"><ele>586.25</ele><time>2026-04-12T13:11:52.841Z</time></trkpt><trkpt lat="43.0437872" lon="12.7184534"><ele>585.0</ele><time>2026-04-12T13:11:53.836Z</time></trkpt><trkpt lat="43.043898" lon="12.7184871"><ele>585.0</ele><time>2026-04-12T13:11:54.837Z</time></trkpt><trkpt lat="43.0440044" lon="12.7184988"><ele>585.0</ele><time>2026-04-12T13:11:55.842Z</time></trkpt><trkpt lat="43.0441168" lon="12.7184934"><ele>585.0</ele><time>2026-04-12T13:11:56.835Z</time></trkpt><trkpt lat="43.0442291" lon="12.7184835"><ele>585.0</ele><time>2026-04-12T13:11:57.847Z</time></trkpt><trkpt lat="43.0443297" lon="12.718477"><ele>585.0</ele><time>2026-04-12T13:11:58.843Z</time></trkpt><trkpt lat="43.0444328" lon="12.7184917"><ele>585.8</ele><time>2026-04-12T13:11:59.833Z</time></trkpt><trkpt lat="43.0445288" lon="12.7185451"><ele>586.6</ele><time>2026-04-12T13:12:00.83Z</time></trkpt><trkpt lat="43.044604" lon="12.718644"><ele>587.4</ele><time>2026-04-12T13:12:01.833Z</time></trkpt><trkpt lat="43.0446821" lon="12.7187688"><ele>588.2</ele><time>2026-04-12T13:12:02.838Z</time></trkpt><trkpt lat="43.0447542" lon="12.7188989"><ele>589.0</ele><time>2026-04-12T13:12:03.827Z</time></trkpt><trkpt lat="43.0448248" lon="12.7190452"><ele>589.75</ele><time>2026-04-12T13:12:04.834Z</time></trkpt><trkpt lat="43.0448967" lon="12.7191897"><ele>590.5</ele><time>2026-04-12T13:12:05.84Z</time></trkpt><trkpt lat="43.0449757" lon="12.7193139"><ele>591.25</ele><time>2026-04-12T13:12:06.841Z</time></trkpt><trkpt lat="43.0450769" lon="12.719406"><ele>592.0</ele><time>2026-04-12T13:12:07.838Z</time></trkpt><trkpt lat="43.0451971" lon="12.71949"><ele>597.25</ele><time>2026-04-12T13:12:08.845Z</time></trkpt><trkpt lat="43.0453058" lon="12.7195713"><ele>602.5</ele><time>2026-04-12T13:12:09.838Z</time></trkpt><trkpt lat="43.0454224" lon="12.7196511"><ele>607.75</ele><time>2026-04-12T13:12:10.835Z</time></trkpt><trkpt lat="43.0455377" lon="12.7197238"><ele>613.0</ele><time>2026-04-12T13:12:11.836Z</time></trkpt><trkpt lat="43.0456586" lon="12.7197886"><ele>613.0</ele><time>2026-04-12T13:12:12.841Z</time></trkpt><trkpt lat="43.045784" lon="12.7198507"><ele>613.0</ele><time>2026-04-12T13:12:13.843Z</time></trkpt><trkpt lat="43.0459102" lon="12.7199045"><ele>613.0</ele><time>2026-04-12T13:12:14.833Z</time></trkpt><trkpt lat="43.0460296" lon="12.7199399"><ele>613.0</ele><time>2026-04-12T13:12:15.833Z</time></trkpt><trkpt lat="43.0461501" lon="12.7199545"><ele>610.0</ele><time>2026-04-12T13:12:16.842Z</time></trkpt><trkpt lat="43.0462661" lon="12.7199469"><ele>607.0</ele><time>2026-04-12T13:12:17.837Z</time></trkpt><trkpt lat="43.0463833" lon="12.7199526"><ele>604.0</ele><time>2026-04-12T13:12:18.832Z</time></trkpt><trkpt lat="43.0464929" lon="12.7199934"><ele>601.0</ele><time>2026-04-12T13:12:19.836Z</time></trkpt><trkpt lat="43.0466038" lon="12.7200533"><ele>599.0</ele><time>2026-04-12T13:12:20.839Z</time></trkpt><trkpt lat="43.0467294" lon="12.7201085"><ele>597.0</ele><time>2026-04-12T13:12:21.844Z</time></trkpt><trkpt lat="43.0468537" lon="12.7201445"><ele>595.0</ele><time>2026-04-12T13:12:22.835Z</time></trkpt><trkpt lat="43.0469663" lon="12.7201685"><ele>593.0</ele><time>2026-04-12T13:12:23.838Z</time></trkpt><trkpt lat="43.0470684" lon="12.7202075"><ele>593.75</ele><time>2026-04-12T13:12:24.837Z</time></trkpt><trkpt lat="43.0471504" lon="12.7202744"><ele>594.5</ele><time>2026-04-12T13:12:25.851Z</time></trkpt><trkpt lat="43.0472436" lon="12.7203492"><ele>595.25</ele><time>2026-04-12T13:12:26.834Z</time></trkpt><trkpt lat="43.0473494" lon="12.7204221"><ele>596.0</ele><time>2026-04-12T13:12:27.842Z</time></trkpt><trkpt lat="43.0474787" lon="12.7204708"><ele>593.0</ele><time>2026-04-12T13:12:28.845Z</time></trkpt><trkpt lat="43.0476156" lon="12.7205059"><ele>590.0</ele><time>2026-04-12T13:12:29.835Z</time></trkpt><trkpt lat="43.0477424" lon="12.7205206"><ele>587.0</ele><time>2026-04-12T13:12:30.837Z</time></trkpt><trkpt lat="43.0478712" lon="12.720516"><ele>584.0</ele><time>2026-04-12T13:12:31.842Z</time></trkpt><trkpt lat="43.0479912" lon="12.7205079"><ele>584.0</ele><time>2026-04-12T13:12:32.84Z</time></trkpt><trkpt lat="43.0481028" lon="12.7205228"><ele>584.0</ele><time>2026-04-12T13:12:33.849Z</time></trkpt><trkpt lat="43.048201" lon="12.7205997"><ele>584.0</ele><time>2026-04-12T13:12:34.84Z</time></trkpt><trkpt lat="43.0482838" lon="12.7207312"><ele>584.0</ele><time>2026-04-12T13:12:35.84Z</time></trkpt><trkpt lat="43.0483646" lon="12.7208467"><ele>582.2</ele><time>2026-04-12T13:12:36.846Z</time></trkpt><trkpt lat="43.0484599" lon="12.720933"><ele>580.4</ele><time>2026-04-12T13:12:37.855Z</time></trkpt><trkpt lat="43.048559" lon="12.720995"><ele>578.6</ele><time>2026-04-12T13:12:38.845Z</time></trkpt><trkpt lat="43.0486659" lon="12.7210343"><ele>576.8</ele><time>2026-04-12T13:12:39.843Z</time></trkpt><trkpt lat="43.0487709" lon="12.7210617"><ele>575.0</ele><time>2026-04-12T13:12:40.839Z</time></trkpt><trkpt lat="43.0488796" lon="12.7210777"><ele>575.0</ele><time>2026-04-12T13:12:41.844Z</time></trkpt><trkpt lat="43.048981" lon="12.7210785"><ele>575.0</ele><time>2026-04-12T13:12:42.853Z</time></trkpt><trkpt lat="43.0490755" lon="12.7210355"><ele>575.0</ele><time>2026-04-12T13:12:43.846Z</time></trkpt><trkpt lat="43.0491726" lon="12.7209642"><ele>575.0</ele><time>2026-04-12T13:12:44.841Z</time></trkpt><trkpt lat="43.0492728" lon="12.7208814"><ele>575.0</ele><time>2026-04-12T13:12:45.846Z</time></trkpt><trkpt lat="43.0493813" lon="12.7207895"><ele>573.0</ele><time>2026-04-12T13:12:46.841Z</time></trkpt><trkpt lat="43.0494842" lon="12.7206913"><ele>571.0</ele><time>2026-04-12T13:12:47.856Z</time></trkpt><trkpt lat="43.0495883" lon="12.7205954"><ele>569.0</ele><time>2026-04-12T13:12:48.843Z</time></trkpt><trkpt lat="43.0496867" lon="12.7205014"><ele>567.0</ele><time>2026-04-12T13:12:49.843Z</time></trkpt><trkpt lat="43.0497885" lon="12.7204257"><ele>567.0</ele><time>2026-04-12T13:12:50.849Z</time></trkpt><trkpt lat="43.0498972" lon="12.7203742"><ele>567.0</ele><time>2026-04-12T13:12:51.847Z</time></trkpt><trkpt lat="43.0500145" lon="12.7203364"><ele>567.0</ele><time>2026-04-12T13:12:52.845Z</time></trkpt><trkpt lat="43.0501343" lon="12.7203116"><ele>567.0</ele><time>2026-04-12T13:12:53.834Z</time></trkpt><trkpt lat="43.0502568" lon="12.7202926"><ele>567.75</ele><time>2026-04-12T13:12:54.836Z</time></trkpt><trkpt lat="43.0503842" lon="12.7202768"><ele>568.5</ele><time>2026-04-12T13:12:55.843Z</time></trkpt><trkpt lat="43.0505045" lon="12.7202557"><ele>569.25</ele><time>2026-04-12T13:12:56.835Z</time></trkpt><trkpt lat="43.0506269" lon="12.7202446"><ele>570.0</ele><time>2026-04-12T13:12:57.84Z</time></trkpt><trkpt lat="43.0507503" lon="12.7202322"><ele>567.2</ele><time>2026-04-12T13:12:58.847Z</time></trkpt><trkpt lat="43.0508762" lon="12.7202277"><ele>564.4</ele><time>2026-04-12T13:12:59.849Z</time></trkpt><trkpt lat="43.0510007" lon="12.7202348"><ele>561.6</ele><time>2026-04-12T13:13:00.853Z</time></trkpt><trkpt lat="43.0511024" lon="12.7202561"><ele>558.8</ele><time>2026-04-12T13:13:01.848Z</time></trkpt><trkpt lat="43.0511844" lon="12.7202988"><ele>556.0</ele><time>2026-04-12T13:13:02.847Z</time></trkpt><trkpt lat="43.0512434" lon="12.7203782"><ele>556.0</ele><time>2026-04-12T13:13:03.857Z</time></trkpt><trkpt lat="43.0512665" lon="12.7204886"><ele>556.0</ele><time>2026-04-12T13:13:04.841Z</time></trkpt><trkpt lat="43.0512503" lon="12.7206312"><ele>556.0</ele><time>2026-04-12T13:13:05.845Z</time></trkpt><trkpt lat="43.0512199" lon="12.7207871"><ele>556.0</ele><time>2026-04-12T13:13:06.838Z</time></trkpt><trkpt lat="43.0512069" lon="12.7209565"><ele>556.0</ele><time>2026-04-12T13:13:07.842Z</time></trkpt><trkpt lat="43.0512004" lon="12.7211328"><ele>556.75</ele><time>2026-04-12T13:13:08.844Z</time></trkpt><trkpt lat="43.0512008" lon="12.7213097"><ele>557.5</ele><time>2026-04-12T13:13:09.841Z</time></trkpt><trkpt lat="43.0512074" lon="12.7214866"><ele>558.25</ele><time>2026-04-12T13:13:10.851Z</time></trkpt><trkpt lat="43.0512238" lon="12.7216641"><ele>559.0</ele><time>2026-04-12T13:13:11.84Z</time></trkpt><trkpt lat="43.0512501" lon="12.7218355"><ele>557.5</ele><time>2026-04-12T13:13:12.842Z</time></trkpt><trkpt lat="43.0512819" lon="12.7219947"><ele>556.0</ele><time>2026-04-12T13:13:13.836Z</time></trkpt><trkpt lat="43.0512923" lon="12.7221545"><ele>554.5</ele><time>2026-04-12T13:13:14.834Z</time></trkpt><trkpt lat="43.0512716" lon="12.7223126"><ele>553.0</ele><time>2026-04-12T13:13:15.847Z</time></trkpt><trkpt lat="43.0512362" lon="12.7224662"><ele>553.0</ele><time>2026-04-12T13:13:16.845Z</time></trkpt><trkpt lat="43.0512104" lon="12.7226353"><ele>553.0</ele><time>2026-04-12T13:13:17.832Z</time></trkpt><trkpt lat="43.0511982" lon="12.7228208"><ele>553.0</ele><time>2026-04-12T13:13:18.835Z</time></trkpt><trkpt lat="43.0512074" lon="12.7230089"><ele>553.0</ele><time>2026-04-12T13:13:19.838Z</time></trkpt><trkpt lat="43.0512306" lon="12.7231929"><ele>549.25</ele><time>2026-04-12T13:13:20.842Z</time></trkpt><trkpt lat="43.0512536" lon="12.723369"><ele>545.5</ele><time>2026-04-12T13:13:21.841Z</time></trkpt><trkpt lat="43.0512739" lon="12.7235444"><ele>541.75</ele><time>2026-04-12T13:13:22.833Z</time></trkpt><trkpt lat="43.0512679" lon="12.7237124"><ele>538.0</ele><time>2026-04-12T13:13:23.841Z</time></trkpt><trkpt lat="43.0512419" lon="12.723877"><ele>534.25</ele><time>2026-04-12T13:13:24.836Z</time></trkpt><trkpt lat="43.0512039" lon="12.7240394"><ele>530.5</ele><time>2026-04-12T13:13:25.838Z</time></trkpt><trkpt lat="43.0511695" lon="12.7241971"><ele>526.75</ele><time>2026-04-12T13:13:26.841Z</time></trkpt><trkpt lat="43.0511353" lon="12.7243519"><ele>523.0</ele><time>2026-04-12T13:13:27.844Z</time></trkpt><trkpt lat="43.0511039" lon="12.7244986"><ele>520.1999999999999</ele><time>2026-04-12T13:13:28.846Z</time></trkpt><trkpt lat="43.0510632" lon="12.7246293"><ele>517.4</ele><time>2026-04-12T13:13:29.847Z</time></trkpt><trkpt lat="43.0509997" lon="12.724732"><ele>514.5999999999999</ele><time>2026-04-12T13:13:30.845Z</time></trkpt><trkpt lat="43.050911" lon="12.7248056"><ele>511.79999999999995</ele><time>2026-04-12T13:13:31.843Z</time></trkpt><trkpt lat="43.0508162" lon="12.7248454"><ele>509.0</ele><time>2026-04-12T13:13:32.838Z</time></trkpt><trkpt lat="43.0507432" lon="12.7248885"><ele>508.99999999999994</ele><time>2026-04-12T13:13:33.845Z</time></trkpt><trkpt lat="43.0506918" lon="12.7249579"><ele>509.0</ele><time>2026-04-12T13:13:34.849Z</time></trkpt><trkpt lat="43.050676" lon="12.7250627"><ele>509.0</ele><time>2026-04-12T13:13:35.843Z</time></trkpt><trkpt lat="43.0507147" lon="12.7251358"><ele>509.0</ele><time>2026-04-12T13:13:36.838Z</time></trkpt><trkpt lat="43.0507952" lon="12.7251886"><ele>508.99999999999994</ele><time>2026-04-12T13:13:37.84Z</time></trkpt><trkpt lat="43.0508852" lon="12.7252152"><ele>509.0</ele><time>2026-04-12T13:13:38.848Z</time></trkpt><trkpt lat="43.0509872" lon="12.7252332"><ele>503.25</ele><time>2026-04-12T13:13:39.839Z</time></trkpt><trkpt lat="43.0511037" lon="12.7252455"><ele>497.5</ele><time>2026-04-12T13:13:40.843Z</time></trkpt><trkpt lat="43.0512237" lon="12.7252554"><ele>491.75</ele><time>2026-04-12T13:13:41.846Z</time></trkpt><trkpt lat="43.051345" lon="12.7252658"><ele>486.0</ele><time>2026-04-12T13:13:42.863Z</time></trkpt><trkpt lat="43.0514684" lon="12.7252729"><ele>486.0</ele><time>2026-04-12T13:13:43.856Z</time></trkpt><trkpt lat="43.0515826" lon="12.7252684"><ele>486.0</ele><time>2026-04-12T13:13:44.848Z</time></trkpt><trkpt lat="43.0516791" lon="12.7252324"><ele>486.0</ele><time>2026-04-12T13:13:45.842Z</time></trkpt><trkpt lat="43.0517608" lon="12.7251439"><ele>486.0</ele><time>2026-04-12T13:13:46.842Z</time></trkpt><trkpt lat="43.0518095" lon="12.7250125"><ele>486.0</ele><time>2026-04-12T13:13:47.846Z</time></trkpt><trkpt lat="43.051844" lon="12.7248666"><ele>488.75</ele><time>2026-04-12T13:13:48.834Z</time></trkpt><trkpt lat="43.0518743" lon="12.7247023"><ele>491.5</ele><time>2026-04-12T13:13:49.838Z</time></trkpt><trkpt lat="43.0519173" lon="12.7245455"><ele>494.25</ele><time>2026-04-12T13:13:50.846Z</time></trkpt><trkpt lat="43.0519675" lon="12.7243933"><ele>497.0</ele><time>2026-04-12T13:13:51.846Z</time></trkpt><trkpt lat="43.0520291" lon="12.7242536"><ele>498.8</ele><time>2026-04-12T13:13:52.841Z</time></trkpt><trkpt lat="43.0521034" lon="12.7241312"><ele>500.6</ele><time>2026-04-12T13:13:53.836Z</time></trkpt><trkpt lat="43.0521748" lon="12.7240418"><ele>502.40000000000003</ele><time>2026-04-12T13:13:54.851Z</time></trkpt><trkpt lat="43.0522418" lon="12.7239764"><ele>504.20000000000005</ele><time>2026-04-12T13:13:55.844Z</time></trkpt><trkpt lat="43.0523159" lon="12.7239468"><ele>506.0</ele><time>2026-04-12T13:13:56.847Z</time></trkpt><trkpt lat="43.0523945" lon="12.723968"><ele>506.0</ele><time>2026-04-12T13:13:57.844Z</time></trkpt><trkpt lat="43.0524449" lon="12.7240376"><ele>506.0</ele><time>2026-04-12T13:13:58.844Z</time></trkpt><trkpt lat="43.0524503" lon="12.7241498"><ele>506.0</ele><time>2026-04-12T13:13:59.835Z</time></trkpt><trkpt lat="43.0524318" lon="12.7242707"><ele>506.0</ele><time>2026-04-12T13:14:00.834Z</time></trkpt><trkpt lat="43.0523822" lon="12.7243951"><ele>506.0</ele><time>2026-04-12T13:14:01.848Z</time></trkpt><trkpt lat="43.0523539" lon="12.7245639"><ele>503.75</ele><time>2026-04-12T13:14:02.84Z</time></trkpt><trkpt lat="43.0523274" lon="12.7247437"><ele>501.5</ele><time>2026-04-12T13:14:03.843Z</time></trkpt><trkpt lat="43.0522994" lon="12.7249209"><ele>499.25</ele><time>2026-04-12T13:14:04.837Z</time></trkpt><trkpt lat="43.0522651" lon="12.7250924"><ele>497.0</ele><time>2026-04-12T13:14:05.839Z</time></trkpt><trkpt lat="43.0522364" lon="12.7252634"><ele>492.25</ele><time>2026-04-12T13:14:06.847Z</time></trkpt><trkpt lat="43.0522016" lon="12.725431"><ele>487.5</ele><time>2026-04-12T13:14:07.83Z</time></trkpt><trkpt lat="43.0521525" lon="12.7255906"><ele>482.75</ele><time>2026-04-12T13:14:08.84Z</time></trkpt><trkpt lat="43.0520856" lon="12.725739"><ele>478.0</ele><time>2026-04-12T13:14:09.835Z</time></trkpt><trkpt lat="43.0520125" lon="12.7258825"><ele>478.0</ele><time>2026-04-12T13:14:10.861Z</time></trkpt><trkpt lat="43.0519433" lon="12.726019"><ele>478.0</ele><time>2026-04-12T13:14:11.848Z</time></trkpt><trkpt lat="43.0518757" lon="12.7261576"><ele>478.0</ele><time>2026-04-12T13:14:12.844Z</time></trkpt><trkpt lat="43.0518039" lon="12.7262791"><ele>478.0</ele><time>2026-04-12T13:14:13.841Z</time></trkpt><trkpt lat="43.0517109" lon="12.7263854"><ele>474.79999999999995</ele><time>2026-04-12T13:14:14.833Z</time></trkpt><trkpt lat="43.0516226" lon="12.7264494"><ele>471.59999999999997</ele><time>2026-04-12T13:14:15.837Z</time></trkpt><trkpt lat="43.0515266" lon="12.7264805"><ele>468.40000000000003</ele><time>2026-04-12T13:14:16.833Z</time></trkpt><trkpt lat="43.0514493" lon="12.7265266"><ele>465.20000000000005</ele><time>2026-04-12T13:14:17.834Z</time></trkpt><trkpt lat="43.051404" lon="12.7265965"><ele>462.0</ele><time>2026-04-12T13:14:18.842Z</time></trkpt><trkpt lat="43.0514462" lon="12.7267694"><ele>462.0</ele><time>2026-04-12T13:14:20.839Z</time></trkpt><trkpt lat="43.0515212" lon="12.7268409"><ele>462.00000000000006</ele><time>2026-04-12T13:14:21.844Z</time></trkpt><trkpt lat="43.0516094" lon="12.726907"><ele>462.00000000000006</ele><time>2026-04-12T13:14:22.839Z</time></trkpt><trkpt lat="43.0516937" lon="12.7269659"><ele>462.0</ele><time>2026-04-12T13:14:23.839Z</time></trkpt><trkpt lat="43.0517732" lon="12.7270059"><ele>462.0</ele><time>2026-04-12T13:14:24.845Z</time></trkpt><trkpt lat="43.0518525" lon="12.726999"><ele>459.0</ele><time>2026-04-12T13:14:25.849Z</time></trkpt><trkpt lat="43.0519251" lon="12.7269506"><ele>456.0</ele><time>2026-04-12T13:14:26.842Z</time></trkpt><trkpt lat="43.0519991" lon="12.7269141"><ele>453.0</ele><time>2026-04-12T13:14:27.845Z</time></trkpt><trkpt lat="43.052076" lon="12.7269196"><ele>450.0</ele><time>2026-04-12T13:14:28.832Z</time></trkpt><trkpt lat="43.0521263" lon="12.7269917"><ele>447.0</ele><time>2026-04-12T13:14:29.839Z</time></trkpt><trkpt lat="43.0521377" lon="12.7270997"><ele>444.0</ele><time>2026-04-12T13:14:30.837Z</time></trkpt><trkpt lat="43.0521526" lon="12.727234"><ele>444.0</ele><time>2026-04-12T13:14:31.845Z</time></trkpt><trkpt lat="43.0521596" lon="12.7273554"><ele>444.0</ele><time>2026-04-12T13:14:32.831Z</time></trkpt><trkpt lat="43.0522089" lon="12.7274326"><ele>444.0</ele><time>2026-04-12T13:14:33.837Z</time></trkpt><trkpt lat="43.0522876" lon="12.7274512"><ele>444.0</ele><time>2026-04-12T13:14:34.838Z</time></trkpt><trkpt lat="43.0523617" lon="12.7273951"><ele>444.0</ele><time>2026-04-12T13:14:35.838Z</time></trkpt><trkpt lat="43.0524379" lon="12.7273442"><ele>444.0</ele><time>2026-04-12T13:14:36.839Z</time></trkpt><trkpt lat="43.0525406" lon="12.7273914"><ele>442.0</ele><time>2026-04-12T13:14:38.848Z</time></trkpt><trkpt lat="43.0525566" lon="12.7274869"><ele>440.0</ele><time>2026-04-12T13:14:39.839Z</time></trkpt><trkpt lat="43.0525524" lon="12.7275934"><ele>438.0</ele><time>2026-04-12T13:14:40.839Z</time></trkpt><trkpt lat="43.0525349" lon="12.7277038"><ele>436.0</ele><time>2026-04-12T13:14:41.842Z</time></trkpt><trkpt lat="43.052522" lon="12.7278142"><ele>434.0</ele><time>2026-04-12T13:14:42.841Z</time></trkpt><trkpt lat="43.0525427" lon="12.727916"><ele>432.0</ele><time>2026-04-12T13:14:43.84Z</time></trkpt><trkpt lat="43.0526065" lon="12.7279879"><ele>432.0</ele><time>2026-04-12T13:14:44.837Z</time></trkpt><trkpt lat="43.0526756" lon="12.7280333"><ele>432.00000000000006</ele><time>2026-04-12T13:14:45.833Z</time></trkpt><trkpt lat="43.0527584" lon="12.728091"><ele>432.00000000000006</ele><time>2026-04-12T13:14:46.849Z</time></trkpt><trkpt lat="43.0528297" lon="12.7281637"><ele>432.0</ele><time>2026-04-12T13:14:47.838Z</time></trkpt><trkpt lat="43.0528945" lon="12.728271"><ele>432.0</ele><time>2026-04-12T13:14:48.835Z</time></trkpt><trkpt lat="43.0529431" lon="12.728395"><ele>432.0</ele><time>2026-04-12T13:14:49.845Z</time></trkpt><trkpt lat="43.0529901" lon="12.7285279"><ele>432.00000000000006</ele><time>2026-04-12T13:14:50.833Z</time></trkpt><trkpt lat="43.0530368" lon="12.7286582"><ele>432.00000000000006</ele><time>2026-04-12T13:14:51.829Z</time></trkpt><trkpt lat="43.0530832" lon="12.7287908"><ele>432.0</ele><time>2026-04-12T13:14:52.842Z</time></trkpt><trkpt lat="43.0531282" lon="12.7289234"><ele>432.0</ele><time>2026-04-12T13:14:53.835Z</time></trkpt><trkpt lat="43.0531615" lon="12.7290566"><ele>432.40000000000003</ele><time>2026-04-12T13:14:54.837Z</time></trkpt><trkpt lat="43.0531738" lon="12.7291921"><ele>432.80000000000007</ele><time>2026-04-12T13:14:55.834Z</time></trkpt><trkpt lat="43.0531582" lon="12.7293192"><ele>433.2</ele><time>2026-04-12T13:14:56.839Z</time></trkpt><trkpt lat="43.0531355" lon="12.7294551"><ele>433.6</ele><time>2026-04-12T13:14:57.855Z</time></trkpt><trkpt lat="43.0531071" lon="12.7296056"><ele>434.0</ele><time>2026-04-12T13:14:58.836Z</time></trkpt><trkpt lat="43.0530829" lon="12.7297578"><ele>434.0</ele><time>2026-04-12T13:14:59.839Z</time></trkpt><trkpt lat="43.0530799" lon="12.7299058"><ele>434.0</ele><time>2026-04-12T13:15:00.839Z</time></trkpt><trkpt lat="43.0531126" lon="12.730053"><ele>434.0</ele><time>2026-04-12T13:15:01.833Z</time></trkpt><trkpt lat="43.0531651" lon="12.7302029"><ele>434.0</ele><time>2026-04-12T13:15:02.831Z</time></trkpt><trkpt lat="43.0532301" lon="12.7303449"><ele>432.4</ele><time>2026-04-12T13:15:03.831Z</time></trkpt><trkpt lat="43.0533017" lon="12.7304729"><ele>430.79999999999995</ele><time>2026-04-12T13:15:04.846Z</time></trkpt><trkpt lat="43.0533507" lon="12.7306022"><ele>429.20000000000005</ele><time>2026-04-12T13:15:05.837Z</time></trkpt><trkpt lat="43.0533885" lon="12.7307403"><ele>427.6</ele><time>2026-04-12T13:15:06.838Z</time></trkpt><trkpt lat="43.0533816" lon="12.7308875"><ele>426.0</ele><time>2026-04-12T13:15:07.856Z</time></trkpt><trkpt lat="43.0533495" lon="12.7310284"><ele>425.8</ele><time>2026-04-12T13:15:08.835Z</time></trkpt><trkpt lat="43.0533072" lon="12.7311496"><ele>425.6</ele><time>2026-04-12T13:15:09.843Z</time></trkpt><trkpt lat="43.0532659" lon="12.7312663"><ele>425.4</ele><time>2026-04-12T13:15:10.838Z</time></trkpt><trkpt lat="43.0532332" lon="12.731399"><ele>425.2</ele><time>2026-04-12T13:15:11.842Z</time></trkpt><trkpt lat="43.0532139" lon="12.73154"><ele>425.0</ele><time>2026-04-12T13:15:12.842Z</time></trkpt><trkpt lat="43.0532091" lon="12.7316901"><ele>427.75</ele><time>2026-04-12T13:15:13.84Z</time></trkpt><trkpt lat="43.0532169" lon="12.731847"><ele>430.5</ele><time>2026-04-12T13:15:14.842Z</time></trkpt><trkpt lat="43.053225" lon="12.7320077"><ele>433.25</ele><time>2026-04-12T13:15:15.826Z</time></trkpt><trkpt lat="43.0532382" lon="12.7321611"><ele>436.0</ele><time>2026-04-12T13:15:16.838Z</time></trkpt><trkpt lat="43.0532538" lon="12.7323243"><ele>436.75</ele><time>2026-04-12T13:15:17.83Z</time></trkpt><trkpt lat="43.0532817" lon="12.7324949"><ele>437.5</ele><time>2026-04-12T13:15:18.844Z</time></trkpt><trkpt lat="43.0533102" lon="12.7326651"><ele>438.25</ele><time>2026-04-12T13:15:19.843Z</time></trkpt><trkpt lat="43.0533394" lon="12.7328428"><ele>439.0</ele><time>2026-04-12T13:15:20.833Z</time></trkpt><trkpt lat="43.0533573" lon="12.7330282"><ele>435.0</ele><time>2026-04-12T13:15:21.837Z</time></trkpt><trkpt lat="43.053364" lon="12.7332131"><ele>431.0</ele><time>2026-04-12T13:15:22.839Z</time></trkpt><trkpt lat="43.0533752" lon="12.733404"><ele>427.0</ele><time>2026-04-12T13:15:23.845Z</time></trkpt><trkpt lat="43.0533911" lon="12.733602"><ele>423.0</ele><time>2026-04-12T13:15:24.834Z</time></trkpt><trkpt lat="43.0534075" lon="12.733792"><ele>423.0</ele><time>2026-04-12T13:15:25.843Z</time></trkpt><trkpt lat="43.0534354" lon="12.7339849"><ele>423.0</ele><time>2026-04-12T13:15:26.842Z</time></trkpt><trkpt lat="43.0534662" lon="12.7341795"><ele>423.0</ele><time>2026-04-12T13:15:27.842Z</time></trkpt><trkpt lat="43.0534995" lon="12.734377"><ele>423.0</ele><time>2026-04-12T13:15:28.836Z</time></trkpt><trkpt lat="43.0535387" lon="12.7345673"><ele>423.0</ele><time>2026-04-12T13:15:29.84Z</time></trkpt><trkpt lat="43.0535854" lon="12.7347485"><ele>423.0</ele><time>2026-04-12T13:15:30.842Z</time></trkpt><trkpt lat="43.0536376" lon="12.7349179"><ele>423.0</ele><time>2026-04-12T13:15:31.831Z</time></trkpt><trkpt lat="43.0536975" lon="12.7350819"><ele>423.0</ele><time>2026-04-12T13:15:32.833Z</time></trkpt><trkpt lat="43.053767" lon="12.7352442"><ele>421.75</ele><time>2026-04-12T13:15:33.842Z</time></trkpt><trkpt lat="43.0538453" lon="12.7353992"><ele>420.5</ele><time>2026-04-12T13:15:34.835Z</time></trkpt><trkpt lat="43.0539248" lon="12.7355513"><ele>419.25</ele><time>2026-04-12T13:15:35.85Z</time></trkpt><trkpt lat="43.0540007" lon="12.7356996"><ele>418.0</ele><time>2026-04-12T13:15:36.835Z</time></trkpt><trkpt lat="43.0540676" lon="12.735849"><ele>418.0</ele><time>2026-04-12T13:15:37.836Z</time></trkpt><trkpt lat="43.054116" lon="12.7360005"><ele>418.0</ele><time>2026-04-12T13:15:38.832Z</time></trkpt><trkpt lat="43.0541353" lon="12.7361742"><ele>418.0</ele><time>2026-04-12T13:15:39.841Z</time></trkpt><trkpt lat="43.0541411" lon="12.7363602"><ele>418.0</ele><time>2026-04-12T13:15:40.834Z</time></trkpt><trkpt lat="43.054139" lon="12.7365482"><ele>417.75</ele><time>2026-04-12T13:15:41.842Z</time></trkpt><trkpt lat="43.0541384" lon="12.7367277"><ele>417.5</ele><time>2026-04-12T13:15:42.834Z</time></trkpt><trkpt lat="43.0541337" lon="12.7369103"><ele>417.25</ele><time>2026-04-12T13:15:43.84Z</time></trkpt><trkpt lat="43.054113" lon="12.7370826"><ele>417.0</ele><time>2026-04-12T13:15:44.841Z</time></trkpt><trkpt lat="43.0540755" lon="12.737237"><ele>417.0</ele><time>2026-04-12T13:15:45.836Z</time></trkpt><trkpt lat="43.0540592" lon="12.7373914"><ele>417.0</ele><time>2026-04-12T13:15:46.837Z</time></trkpt><trkpt lat="43.0540604" lon="12.7375485"><ele>417.0</ele><time>2026-04-12T13:15:47.837Z</time></trkpt><trkpt lat="43.054078" lon="12.7377048"><ele>417.0</ele><time>2026-04-12T13:15:48.832Z</time></trkpt><trkpt lat="43.0541338" lon="12.737855"><ele>413.75</ele><time>2026-04-12T13:15:49.842Z</time></trkpt><trkpt lat="43.054212" lon="12.7379687"><ele>410.5</ele><time>2026-04-12T13:15:50.835Z</time></trkpt><trkpt lat="43.0542981" lon="12.738068"><ele>407.25</ele><time>2026-04-12T13:15:51.841Z</time></trkpt><trkpt lat="43.0543831" lon="12.7381867"><ele>404.0</ele><time>2026-04-12T13:15:52.835Z</time></trkpt><trkpt lat="43.0544389" lon="12.7383441"><ele>404.0</ele><time>2026-04-12T13:15:53.836Z</time></trkpt><trkpt lat="43.0544812" lon="12.738531"><ele>404.0</ele><time>2026-04-12T13:15:54.829Z</time></trkpt><trkpt lat="43.0545123" lon="12.7387226"><ele>404.0</ele><time>2026-04-12T13:15:55.842Z</time></trkpt><trkpt lat="43.0545304" lon="12.7388994"><ele>404.0</ele><time>2026-04-12T13:15:56.842Z</time></trkpt><trkpt lat="43.0545452" lon="12.7390605"><ele>405.0</ele><time>2026-04-12T13:15:57.838Z</time></trkpt><trkpt lat="43.0545752" lon="12.739212"><ele>406.0</ele><time>2026-04-12T13:15:58.842Z</time></trkpt><trkpt lat="43.0546466" lon="12.7393517"><ele>407.0</ele><time>2026-04-12T13:15:59.841Z</time></trkpt><trkpt lat="43.0547308" lon="12.7394675"><ele>408.0</ele><time>2026-04-12T13:16:00.846Z</time></trkpt><trkpt lat="43.0548283" lon="12.7395945"><ele>408.75</ele><time>2026-04-12T13:16:01.834Z</time></trkpt><trkpt lat="43.0549144" lon="12.739734"><ele>409.5</ele><time>2026-04-12T13:16:02.846Z</time></trkpt><trkpt lat="43.0549905" lon="12.7398698"><ele>410.25</ele><time>2026-04-12T13:16:03.841Z</time></trkpt><trkpt lat="43.0550496" lon="12.7400144"><ele>411.0</ele><time>2026-04-12T13:16:04.837Z</time></trkpt><trkpt lat="43.0550934" lon="12.740178"><ele>407.5</ele><time>2026-04-12T13:16:05.845Z</time></trkpt><trkpt lat="43.0551161" lon="12.7403412"><ele>404.0</ele><time>2026-04-12T13:16:06.842Z</time></trkpt><trkpt lat="43.0551245" lon="12.740515"><ele>400.5</ele><time>2026-04-12T13:16:07.834Z</time></trkpt><trkpt lat="43.0551288" lon="12.7406866"><ele>397.0</ele><time>2026-04-12T13:16:08.84Z</time></trkpt><trkpt lat="43.0551327" lon="12.7408549"><ele>397.0</ele><time>2026-04-12T13:16:09.83Z</time></trkpt><trkpt lat="43.055135" lon="12.7410184"><ele>397.0</ele><time>2026-04-12T13:16:10.839Z</time></trkpt><trkpt lat="43.0551335" lon="12.7411766"><ele>397.0</ele><time>2026-04-12T13:16:11.828Z</time></trkpt><trkpt lat="43.05513" lon="12.7413158"><ele>397.0</ele><time>2026-04-12T13:16:12.834Z</time></trkpt><trkpt lat="43.0551164" lon="12.7414536"><ele>397.0</ele><time>2026-04-12T13:16:13.841Z</time></trkpt><trkpt lat="43.0551038" lon="12.741595"><ele>396.5</ele><time>2026-04-12T13:16:14.834Z</time></trkpt><trkpt lat="43.0551009" lon="12.741749"><ele>396.0</ele><time>2026-04-12T13:16:15.832Z</time></trkpt><trkpt lat="43.0551149" lon="12.7419075"><ele>395.5</ele><time>2026-04-12T13:16:16.833Z</time></trkpt><trkpt lat="43.0551361" lon="12.7420736"><ele>395.0</ele><time>2026-04-12T13:16:17.831Z</time></trkpt><trkpt lat="43.0551662" lon="12.7422435"><ele>395.0</ele><time>2026-04-12T13:16:18.835Z</time></trkpt><trkpt lat="43.055204" lon="12.7424146"><ele>395.0</ele><time>2026-04-12T13:16:19.836Z</time></trkpt><trkpt lat="43.0552548" lon="12.7425882"><ele>395.0</ele><time>2026-04-12T13:16:20.844Z</time></trkpt><trkpt lat="43.0553108" lon="12.7427615"><ele>395.0</ele><time>2026-04-12T13:16:21.84Z</time></trkpt><trkpt lat="43.0553722" lon="12.7429343"><ele>394.25</ele><time>2026-04-12T13:16:22.837Z</time></trkpt><trkpt lat="43.0554375" lon="12.7431018"><ele>393.5</ele><time>2026-04-12T13:16:23.843Z</time></trkpt><trkpt lat="43.0555135" lon="12.743258"><ele>392.75</ele><time>2026-04-12T13:16:24.838Z</time></trkpt><trkpt lat="43.0555789" lon="12.7434067"><ele>392.0</ele><time>2026-04-12T13:16:25.843Z</time></trkpt><trkpt lat="43.0556178" lon="12.7435557"><ele>391.25</ele><time>2026-04-12T13:16:26.84Z</time></trkpt><trkpt lat="43.0556192" lon="12.7436992"><ele>390.5</ele><time>2026-04-12T13:16:27.844Z</time></trkpt><trkpt lat="43.0555836" lon="12.7438344"><ele>389.75</ele><time>2026-04-12T13:16:28.833Z</time></trkpt><trkpt lat="43.0555331" lon="12.7439832"><ele>389.0</ele><time>2026-04-12T13:16:29.838Z</time></trkpt><trkpt lat="43.0554832" lon="12.7441447"><ele>389.0</ele><time>2026-04-12T13:16:30.843Z</time></trkpt><trkpt lat="43.05546" lon="12.744308"><ele>389.0</ele><time>2026-04-12T13:16:31.845Z</time></trkpt><trkpt lat="43.0554476" lon="12.7444767"><ele>389.0</ele><time>2026-04-12T13:16:32.853Z</time></trkpt><trkpt lat="43.0554413" lon="12.7446508"><ele>389.0</ele><time>2026-04-12T13:16:33.848Z</time></trkpt><trkpt lat="43.055443" lon="12.7448289"><ele>388.25</ele><time>2026-04-12T13:16:34.846Z</time></trkpt><trkpt lat="43.0554604" lon="12.7450014"><ele>387.5</ele><time>2026-04-12T13:16:35.845Z</time></trkpt><trkpt lat="43.0554944" lon="12.7451765"><ele>386.75</ele><time>2026-04-12T13:16:36.843Z</time></trkpt><trkpt lat="43.0555309" lon="12.7453503"><ele>386.0</ele><time>2026-04-12T13:16:37.84Z</time></trkpt><trkpt lat="43.0555708" lon="12.7455246"><ele>386.0</ele><time>2026-04-12T13:16:38.839Z</time></trkpt><trkpt lat="43.0556087" lon="12.7457055"><ele>386.0</ele><time>2026-04-12T13:16:39.835Z</time></trkpt><trkpt lat="43.0556405" lon="12.7458823"><ele>386.0</ele><time>2026-04-12T13:16:40.836Z</time></trkpt><trkpt lat="43.055674" lon="12.7460593"><ele>386.0</ele><time>2026-04-12T13:16:41.84Z</time></trkpt><trkpt lat="43.0557103" lon="12.7462315"><ele>385.75</ele><time>2026-04-12T13:16:42.856Z</time></trkpt><trkpt lat="43.0557536" lon="12.7464047"><ele>385.5</ele><time>2026-04-12T13:16:43.842Z</time></trkpt><trkpt lat="43.0557958" lon="12.7465785"><ele>385.25</ele><time>2026-04-12T13:16:44.849Z</time></trkpt><trkpt lat="43.0558386" lon="12.7467507"><ele>385.0</ele><time>2026-04-12T13:16:45.839Z</time></trkpt><trkpt lat="43.0558699" lon="12.7469277"><ele>384.25</ele><time>2026-04-12T13:16:46.842Z</time></trkpt><trkpt lat="43.0558774" lon="12.7470976"><ele>383.5</ele><time>2026-04-12T13:16:47.845Z</time></trkpt><trkpt lat="43.0558795" lon="12.7472604"><ele>382.75</ele><time>2026-04-12T13:16:48.836Z</time></trkpt><trkpt lat="43.0558947" lon="12.7474422"><ele>382.0</ele><time>2026-04-12T13:16:49.843Z</time></trkpt><trkpt lat="43.0559199" lon="12.7476237"><ele>380.25</ele><time>2026-04-12T13:16:50.842Z</time></trkpt><trkpt lat="43.055944" lon="12.7478165"><ele>378.5</ele><time>2026-04-12T13:16:51.845Z</time></trkpt><trkpt lat="43.0559588" lon="12.748011"><ele>376.75</ele><time>2026-04-12T13:16:52.839Z</time></trkpt><trkpt lat="43.055971" lon="12.7482065"><ele>375.0</ele><time>2026-04-12T13:16:53.839Z</time></trkpt><trkpt lat="43.0559852" lon="12.7483942"><ele>374.5</ele><time>2026-04-12T13:16:54.841Z</time></trkpt><trkpt lat="43.05601" lon="12.7485829"><ele>374.0</ele><time>2026-04-12T13:16:55.84Z</time></trkpt><trkpt lat="43.0560532" lon="12.7487716"><ele>373.5</ele><time>2026-04-12T13:16:56.842Z</time></trkpt><trkpt lat="43.0561044" lon="12.7489623"><ele>373.0</ele><time>2026-04-12T13:16:57.841Z</time></trkpt><trkpt lat="43.0561575" lon="12.7491431"><ele>373.0</ele><time>2026-04-12T13:16:58.859Z</time></trkpt><trkpt lat="43.0562216" lon="12.7493196"><ele>373.0</ele><time>2026-04-12T13:16:59.844Z</time></trkpt><trkpt lat="43.0562905" lon="12.7494858"><ele>373.0</ele><time>2026-04-12T13:17:00.845Z</time></trkpt><trkpt lat="43.0563468" lon="12.7496538"><ele>373.0</ele><time>2026-04-12T13:17:01.837Z</time></trkpt><trkpt lat="43.0563911" lon="12.7498421"><ele>372.0</ele><time>2026-04-12T13:17:02.839Z</time></trkpt><trkpt lat="43.0564267" lon="12.7500347"><ele>371.0</ele><time>2026-04-12T13:17:03.856Z</time></trkpt><trkpt lat="43.0564726" lon="12.7502261"><ele>370.0</ele><time>2026-04-12T13:17:04.842Z</time></trkpt><trkpt lat="43.0565098" lon="12.750412"><ele>369.0</ele><time>2026-04-12T13:17:05.826Z</time></trkpt><trkpt lat="43.0565371" lon="12.7506035"><ele>368.25</ele><time>2026-04-12T13:17:06.842Z</time></trkpt><trkpt lat="43.0565627" lon="12.750801"><ele>367.5</ele><time>2026-04-12T13:17:07.835Z</time></trkpt><trkpt lat="43.0565909" lon="12.7509938"><ele>366.75</ele><time>2026-04-12T13:17:08.838Z</time></trkpt><trkpt lat="43.0566186" lon="12.7511749"><ele>366.0</ele><time>2026-04-12T13:17:09.833Z</time></trkpt><trkpt lat="43.0566421" lon="12.7513499"><ele>368.25</ele><time>2026-04-12T13:17:10.833Z</time></trkpt><trkpt lat="43.0566594" lon="12.7515285"><ele>370.5</ele><time>2026-04-12T13:17:11.832Z</time></trkpt><trkpt lat="43.0566583" lon="12.7517141"><ele>372.75</ele><time>2026-04-12T13:17:12.829Z</time></trkpt><trkpt lat="43.056652" lon="12.7518987"><ele>375.0</ele><time>2026-04-12T13:17:13.846Z</time></trkpt><trkpt lat="43.0566616" lon="12.7520774"><ele>375.0</ele><time>2026-04-12T13:17:14.853Z</time></trkpt><trkpt lat="43.0566808" lon="12.7522529"><ele>375.0</ele><time>2026-04-12T13:17:15.843Z</time></trkpt><trkpt lat="43.0567073" lon="12.7524154"><ele>375.0</ele><time>2026-04-12T13:17:16.842Z</time></trkpt><trkpt lat="43.0567306" lon="12.7525612"><ele>375.0</ele><time>2026-04-12T13:17:17.844Z</time></trkpt><trkpt lat="43.0567549" lon="12.7527041"><ele>373.0</ele><time>2026-04-12T13:17:18.837Z</time></trkpt><trkpt lat="43.0567797" lon="12.7528445"><ele>371.0</ele><time>2026-04-12T13:17:19.834Z</time></trkpt><trkpt lat="43.0568044" lon="12.7529693"><ele>369.0</ele><time>2026-04-12T13:17:20.844Z</time></trkpt><trkpt lat="43.0568303" lon="12.7530893"><ele>367.0</ele><time>2026-04-12T13:17:21.856Z</time></trkpt><trkpt lat="43.0568576" lon="12.7531963"><ele>365.0</ele><time>2026-04-12T13:17:22.839Z</time></trkpt><trkpt lat="43.0568778" lon="12.7533041"><ele>365.0</ele><time>2026-04-12T13:17:23.842Z</time></trkpt><trkpt lat="43.0568781" lon="12.753416"><ele>365.0</ele><time>2026-04-12T13:17:24.84Z</time></trkpt><trkpt lat="43.056871" lon="12.7535285"><ele>365.0</ele><time>2026-04-12T13:17:25.837Z</time></trkpt><trkpt lat="43.056861" lon="12.7536336"><ele>365.0</ele><time>2026-04-12T13:17:26.843Z</time></trkpt><trkpt lat="43.0568511" lon="12.7537303"><ele>365.0</ele><time>2026-04-12T13:17:27.845Z</time></trkpt><trkpt lat="43.0568465" lon="12.7538291"><ele>365.0</ele><time>2026-04-12T13:17:28.846Z</time></trkpt><trkpt lat="43.0568411" lon="12.7539311"><ele>364.5714285714286</ele><time>2026-04-12T13:17:29.837Z</time></trkpt><trkpt lat="43.0568381" lon="12.754028"><ele>364.14285714285717</ele><time>2026-04-12T13:17:30.845Z</time></trkpt><trkpt lat="43.0568315" lon="12.7541241"><ele>363.7142857142857</ele><time>2026-04-12T13:17:31.841Z</time></trkpt><trkpt lat="43.0568295" lon="12.7542232"><ele>363.28571428571433</ele><time>2026-04-12T13:17:32.843Z</time></trkpt><trkpt lat="43.0568229" lon="12.7543206"><ele>362.85714285714283</ele><time>2026-04-12T13:17:33.846Z</time></trkpt><trkpt lat="43.0568175" lon="12.7544126"><ele>362.42857142857144</ele><time>2026-04-12T13:17:34.834Z</time></trkpt><trkpt lat="43.0568108" lon="12.7544983"><ele>362.0</ele><time>2026-04-12T13:17:35.836Z</time></trkpt><trkpt lat="43.0568141" lon="12.7545851"><ele>361.6</ele><time>2026-04-12T13:17:36.841Z</time></trkpt><trkpt lat="43.0568059" lon="12.7547135"><ele>361.20000000000005</ele><time>2026-04-12T13:17:38.837Z</time></trkpt><trkpt lat="43.0568165" lon="12.7548097"><ele>360.8</ele><time>2026-04-12T13:17:42.84Z</time></trkpt><trkpt lat="43.0569163" lon="12.7548132"><ele>360.4</ele><time>2026-04-12T13:17:45.851Z</time></trkpt><trkpt lat="43.0570326" lon="12.7547804"><ele>360.0</ele><time>2026-04-12T13:17:47.837Z</time></trkpt><trkpt lat="43.0571008" lon="12.7547473"><ele>360.0</ele><time>2026-04-12T13:17:48.845Z</time></trkpt><trkpt lat="43.0571729" lon="12.7547098"><ele>360.0</ele><time>2026-04-12T13:17:49.851Z</time></trkpt><trkpt lat="43.0572532" lon="12.7546759"><ele>360.0</ele><time>2026-04-12T13:17:50.844Z</time></trkpt><trkpt lat="43.0573407" lon="12.754638"><ele>360.0</ele><time>2026-04-12T13:17:51.84Z</time></trkpt><trkpt lat="43.0574434" lon="12.75461"><ele>360.0</ele><time>2026-04-12T13:17:52.83Z</time></trkpt><trkpt lat="43.057545" lon="12.7545826"><ele>360.2</ele><time>2026-04-12T13:17:53.854Z</time></trkpt><trkpt lat="43.057654" lon="12.7545689"><ele>360.4</ele><time>2026-04-12T13:17:54.847Z</time></trkpt><trkpt lat="43.0577564" lon="12.7545681"><ele>360.6</ele><time>2026-04-12T13:17:55.854Z</time></trkpt><trkpt lat="43.0578549" lon="12.7545678"><ele>360.8</ele><time>2026-04-12T13:17:56.837Z</time></trkpt><trkpt lat="43.0579427" lon="12.7545769"><ele>361.0</ele><time>2026-04-12T13:17:57.839Z</time></trkpt><trkpt lat="43.0580281" lon="12.7545784"><ele>361.0</ele><time>2026-04-12T13:17:58.842Z</time></trkpt><trkpt lat="43.058119" lon="12.7545817"><ele>361.0</ele><time>2026-04-12T13:17:59.844Z</time></trkpt><trkpt lat="43.0582129" lon="12.7545728"><ele>361.0</ele><time>2026-04-12T13:18:00.845Z</time></trkpt><trkpt lat="43.0582999" lon="12.7545582"><ele>361.0</ele><time>2026-04-12T13:18:01.849Z</time></trkpt><trkpt lat="43.0583891" lon="12.7545535"><ele>361.0</ele><time>2026-04-12T13:18:02.841Z</time></trkpt><trkpt lat="43.0584799" lon="12.754541"><ele>361.3333333333333</ele><time>2026-04-12T13:18:03.841Z</time></trkpt><trkpt lat="43.0585695" lon="12.7545298"><ele>361.66666666666663</ele><time>2026-04-12T13:18:04.842Z</time></trkpt><trkpt lat="43.0586586" lon="12.7545214"><ele>362.0</ele><time>2026-04-12T13:18:05.835Z</time></trkpt><trkpt lat="43.0587437" lon="12.7545116"><ele>362.3333333333333</ele><time>2026-04-12T13:18:06.849Z</time></trkpt><trkpt lat="43.0588348" lon="12.7544996"><ele>362.6666666666667</ele><time>2026-04-12T13:18:07.838Z</time></trkpt><trkpt lat="43.058923" lon="12.7544775"><ele>363.0</ele><time>2026-04-12T13:18:08.852Z</time></trkpt><trkpt lat="43.0590182" lon="12.7544601"><ele>363.2</ele><time>2026-04-12T13:18:09.846Z</time></trkpt><trkpt lat="43.059118" lon="12.7544406"><ele>363.4</ele><time>2026-04-12T13:18:10.831Z</time></trkpt><trkpt lat="43.059215" lon="12.7544198"><ele>363.59999999999997</ele><time>2026-04-12T13:18:11.844Z</time></trkpt><trkpt lat="43.059326" lon="12.754409"><ele>363.79999999999995</ele><time>2026-04-12T13:18:12.843Z</time></trkpt><trkpt lat="43.0594304" lon="12.7543992"><ele>364.0</ele><time>2026-04-12T13:18:13.854Z</time></trkpt><trkpt lat="43.0595426" lon="12.7543941"><ele>364.0</ele><time>2026-04-12T13:18:14.83Z</time></trkpt><trkpt lat="43.0596583" lon="12.7543866"><ele>364.0</ele><time>2026-04-12T13:18:15.831Z</time></trkpt><trkpt lat="43.0597752" lon="12.75438"><ele>364.0</ele><time>2026-04-12T13:18:16.833Z</time></trkpt><trkpt lat="43.059889" lon="12.7543782"><ele>364.0</ele><time>2026-04-12T13:18:17.844Z</time></trkpt><trkpt lat="43.0600019" lon="12.7543992"><ele>363.25</ele><time>2026-04-12T13:18:18.828Z</time></trkpt><trkpt lat="43.0601159" lon="12.7544448"><ele>362.5</ele><time>2026-04-12T13:18:19.828Z</time></trkpt><trkpt lat="43.0602253" lon="12.7545085"><ele>361.75</ele><time>2026-04-12T13:18:20.833Z</time></trkpt><trkpt lat="43.0603394" lon="12.7545848"><ele>361.0</ele><time>2026-04-12T13:18:21.836Z</time></trkpt><trkpt lat="43.0604577" lon="12.7546622"><ele>361.0</ele><time>2026-04-12T13:18:22.834Z</time></trkpt><trkpt lat="43.0605779" lon="12.7547445"><ele>361.0</ele><time>2026-04-12T13:18:23.848Z</time></trkpt><trkpt lat="43.0607093" lon="12.7548279"><ele>361.0</ele><time>2026-04-12T13:18:24.849Z</time></trkpt><trkpt lat="43.0608445" lon="12.7549159"><ele>361.0</ele><time>2026-04-12T13:18:25.834Z</time></trkpt><trkpt lat="43.060983" lon="12.7550023"><ele>361.66666666666663</ele><time>2026-04-12T13:18:26.839Z</time></trkpt><trkpt lat="43.0611259" lon="12.7550971"><ele>362.3333333333333</ele><time>2026-04-12T13:18:27.84Z</time></trkpt><trkpt lat="43.0612767" lon="12.755186"><ele>363.0</ele><time>2026-04-12T13:18:28.845Z</time></trkpt><trkpt lat="43.0614211" lon="12.7552721"><ele>363.0</ele><time>2026-04-12T13:18:29.833Z</time></trkpt><trkpt lat="43.0615702" lon="12.7553585"><ele>363.0</ele><time>2026-04-12T13:18:30.839Z</time></trkpt><trkpt lat="43.0617217" lon="12.7554342"><ele>363.0</ele><time>2026-04-12T13:18:31.842Z</time></trkpt><trkpt lat="43.0618706" lon="12.7555081"><ele>363.75</ele><time>2026-04-12T13:18:32.839Z</time></trkpt><trkpt lat="43.0620146" lon="12.7555829"><ele>364.5</ele><time>2026-04-12T13:18:33.851Z</time></trkpt><trkpt lat="43.0621544" lon="12.7556579"><ele>365.25</ele><time>2026-04-12T13:18:34.847Z</time></trkpt><trkpt lat="43.0622914" lon="12.7557231"><ele>366.0</ele><time>2026-04-12T13:18:35.833Z</time></trkpt><trkpt lat="43.0624306" lon="12.7557747"><ele>366.6666666666667</ele><time>2026-04-12T13:18:36.853Z</time></trkpt><trkpt lat="43.0625785" lon="12.7558095"><ele>367.33333333333337</ele><time>2026-04-12T13:18:37.844Z</time></trkpt><trkpt lat="43.0627284" lon="12.7558242"><ele>368.0</ele><time>2026-04-12T13:18:38.837Z</time></trkpt><trkpt lat="43.0628802" lon="12.7558309"><ele>368.0</ele><time>2026-04-12T13:18:39.846Z</time></trkpt><trkpt lat="43.063035" lon="12.7558351"><ele>368.0</ele><time>2026-04-12T13:18:40.842Z</time></trkpt><trkpt lat="43.0631918" lon="12.7558407"><ele>368.0</ele><time>2026-04-12T13:18:41.844Z</time></trkpt><trkpt lat="43.0633507" lon="12.7558399"><ele>368.33333333333337</ele><time>2026-04-12T13:18:42.837Z</time></trkpt><trkpt lat="43.0635201" lon="12.7558376"><ele>368.6666666666667</ele><time>2026-04-12T13:18:43.831Z</time></trkpt><trkpt lat="43.0636908" lon="12.7558324"><ele>369.0</ele><time>2026-04-12T13:18:44.835Z</time></trkpt><trkpt lat="43.0638551" lon="12.7558356"><ele>369.0</ele><time>2026-04-12T13:18:45.841Z</time></trkpt><trkpt lat="43.0640168" lon="12.755848"><ele>369.0</ele><time>2026-04-12T13:18:46.828Z</time></trkpt><trkpt lat="43.0641655" lon="12.7558653"><ele>369.0</ele><time>2026-04-12T13:18:47.828Z</time></trkpt><trkpt lat="43.0642985" lon="12.7558816"><ele>369.0</ele><time>2026-04-12T13:18:48.835Z</time></trkpt><trkpt lat="43.0644348" lon="12.7559019"><ele>369.75</ele><time>2026-04-12T13:18:49.838Z</time></trkpt><trkpt lat="43.0645648" lon="12.755923"><ele>370.5</ele><time>2026-04-12T13:18:50.848Z</time></trkpt><trkpt lat="43.0646856" lon="12.7559479"><ele>371.25</ele><time>2026-04-12T13:18:51.837Z</time></trkpt><trkpt lat="43.0648063" lon="12.7559761"><ele>372.0</ele><time>2026-04-12T13:18:52.837Z</time></trkpt><trkpt lat="43.064925" lon="12.7560032"><ele>370.75</ele><time>2026-04-12T13:18:53.831Z</time></trkpt><trkpt lat="43.0650413" lon="12.7560409"><ele>369.5</ele><time>2026-04-12T13:18:54.834Z</time></trkpt><trkpt lat="43.065161" lon="12.7560832"><ele>368.25</ele><time>2026-04-12T13:18:55.841Z</time></trkpt><trkpt lat="43.0652798" lon="12.7561371"><ele>367.0</ele><time>2026-04-12T13:18:56.838Z</time></trkpt><trkpt lat="43.0653971" lon="12.7561911"><ele>367.0</ele><time>2026-04-12T13:18:57.844Z</time></trkpt><trkpt lat="43.0655145" lon="12.7562459"><ele>367.0</ele><time>2026-04-12T13:18:58.835Z</time></trkpt><trkpt lat="43.0656389" lon="12.7563035"><ele>367.0</ele><time>2026-04-12T13:18:59.838Z</time></trkpt><trkpt lat="43.0657693" lon="12.7563504"><ele>367.0</ele><time>2026-04-12T13:19:00.841Z</time></trkpt><trkpt lat="43.0658989" lon="12.7563885"><ele>367.5</ele><time>2026-04-12T13:19:01.846Z</time></trkpt><trkpt lat="43.0660303" lon="12.7564204"><ele>368.0</ele><time>2026-04-12T13:19:02.837Z</time></trkpt><trkpt lat="43.066163" lon="12.7564608"><ele>368.5</ele><time>2026-04-12T13:19:03.835Z</time></trkpt><trkpt lat="43.0662999" lon="12.7565101"><ele>369.0</ele><time>2026-04-12T13:19:04.839Z</time></trkpt><trkpt lat="43.0664283" lon="12.7565826"><ele>369.0</ele><time>2026-04-12T13:19:05.835Z</time></trkpt><trkpt lat="43.0665461" lon="12.7566792"><ele>369.0</ele><time>2026-04-12T13:19:06.843Z</time></trkpt><trkpt lat="43.0666588" lon="12.7568035"><ele>369.0</ele><time>2026-04-12T13:19:07.832Z</time></trkpt><trkpt lat="43.0667625" lon="12.756956"><ele>369.0</ele><time>2026-04-12T13:19:08.832Z</time></trkpt><trkpt lat="43.0668561" lon="12.7571205"><ele>369.25</ele><time>2026-04-12T13:19:09.845Z</time></trkpt><trkpt lat="43.0669399" lon="12.7572891"><ele>369.5</ele><time>2026-04-12T13:19:10.841Z</time></trkpt><trkpt lat="43.0670298" lon="12.7574535"><ele>369.75</ele><time>2026-04-12T13:19:11.84Z</time></trkpt><trkpt lat="43.0671278" lon="12.7576036"><ele>370.0</ele><time>2026-04-12T13:19:12.843Z</time></trkpt><trkpt lat="43.0672492" lon="12.7577372"><ele>370.66666666666663</ele><time>2026-04-12T13:19:13.827Z</time></trkpt><trkpt lat="43.0673871" lon="12.7578396"><ele>371.3333333333333</ele><time>2026-04-12T13:19:14.835Z</time></trkpt><trkpt lat="43.0675382" lon="12.7579259"><ele>372.0</ele><time>2026-04-12T13:19:15.84Z</time></trkpt><trkpt lat="43.0676947" lon="12.7579985"><ele>372.0</ele><time>2026-04-12T13:19:16.835Z</time></trkpt><trkpt lat="43.0678606" lon="12.7580651"><ele>372.0</ele><time>2026-04-12T13:19:17.832Z</time></trkpt><trkpt lat="43.0680246" lon="12.7581297"><ele>372.0</ele><time>2026-04-12T13:19:18.83Z</time></trkpt><trkpt lat="43.0681954" lon="12.7581947"><ele>376.33333333333337</ele><time>2026-04-12T13:19:19.851Z</time></trkpt><trkpt lat="43.0683613" lon="12.7582647"><ele>380.6666666666667</ele><time>2026-04-12T13:19:20.829Z</time></trkpt><trkpt lat="43.0685319" lon="12.7583482"><ele>385.0</ele><time>2026-04-12T13:19:21.836Z</time></trkpt><trkpt lat="43.0686939" lon="12.7584412"><ele>382.6666666666667</ele><time>2026-04-12T13:19:22.842Z</time></trkpt><trkpt lat="43.0688549" lon="12.7585392"><ele>380.33333333333337</ele><time>2026-04-12T13:19:23.839Z</time></trkpt><trkpt lat="43.0690102" lon="12.758652"><ele>378.0</ele><time>2026-04-12T13:19:24.838Z</time></trkpt><trkpt lat="43.0691582" lon="12.7587803"><ele>378.0</ele><time>2026-04-12T13:19:25.856Z</time></trkpt><trkpt lat="43.0693094" lon="12.7589139"><ele>378.0</ele><time>2026-04-12T13:19:26.839Z</time></trkpt><trkpt lat="43.0694424" lon="12.7590431"><ele>378.0</ele><time>2026-04-12T13:19:27.849Z</time></trkpt><trkpt lat="43.0695885" lon="12.7591941"><ele>378.0</ele><time>2026-04-12T13:19:28.841Z</time></trkpt><trkpt lat="43.0697361" lon="12.759327"><ele>378.0</ele><time>2026-04-12T13:19:29.845Z</time></trkpt><trkpt lat="43.0698805" lon="12.7594534"><ele>378.0</ele><time>2026-04-12T13:19:30.836Z</time></trkpt><trkpt lat="43.0700189" lon="12.7595596"><ele>378.0</ele><time>2026-04-12T13:19:31.844Z</time></trkpt><trkpt lat="43.0701536" lon="12.7596554"><ele>378.0</ele><time>2026-04-12T13:19:32.853Z</time></trkpt><trkpt lat="43.0702863" lon="12.7597213"><ele>378.0</ele><time>2026-04-12T13:19:33.849Z</time></trkpt><trkpt lat="43.0704293" lon="12.7597657"><ele>378.0</ele><time>2026-04-12T13:19:34.854Z</time></trkpt><trkpt lat="43.0705801" lon="12.7597889"><ele>378.0</ele><time>2026-04-12T13:19:35.853Z</time></trkpt><trkpt lat="43.0707257" lon="12.7598147"><ele>378.0</ele><time>2026-04-12T13:19:36.83Z</time></trkpt><trkpt lat="43.0708685" lon="12.7598477"><ele>378.0</ele><time>2026-04-12T13:19:37.852Z</time></trkpt><trkpt lat="43.0710001" lon="12.7598897"><ele>378.0</ele><time>2026-04-12T13:19:38.846Z</time></trkpt><trkpt lat="43.0711222" lon="12.7599304"><ele>378.5</ele><time>2026-04-12T13:19:39.842Z</time></trkpt><trkpt lat="43.0712367" lon="12.7599689"><ele>379.0</ele><time>2026-04-12T13:19:40.846Z</time></trkpt><trkpt lat="43.071347" lon="12.7600027"><ele>379.5</ele><time>2026-04-12T13:19:41.844Z</time></trkpt><trkpt lat="43.0714546" lon="12.7600329"><ele>380.0</ele><time>2026-04-12T13:19:42.836Z</time></trkpt><trkpt lat="43.0715647" lon="12.7600636"><ele>379.6</ele><time>2026-04-12T13:19:43.841Z</time></trkpt><trkpt lat="43.0716697" lon="12.7600983"><ele>379.2</ele><time>2026-04-12T13:19:44.832Z</time></trkpt><trkpt lat="43.0717713" lon="12.7601308"><ele>378.79999999999995</ele><time>2026-04-12T13:19:45.832Z</time></trkpt><trkpt lat="43.0718633" lon="12.7601697"><ele>378.4</ele><time>2026-04-12T13:19:46.853Z</time></trkpt><trkpt lat="43.0719415" lon="12.7602335"><ele>378.0</ele><time>2026-04-12T13:19:47.845Z</time></trkpt><trkpt lat="43.0719932" lon="12.7603279"><ele>378.0</ele><time>2026-04-12T13:19:48.845Z</time></trkpt><trkpt lat="43.0720125" lon="12.7604492"><ele>378.0</ele><time>2026-04-12T13:19:49.844Z</time></trkpt><trkpt lat="43.0720067" lon="12.7605823"><ele>378.0</ele><time>2026-04-12T13:19:50.844Z</time></trkpt><trkpt lat="43.0719744" lon="12.7607124"><ele>378.0</ele><time>2026-04-12T13:19:51.843Z</time></trkpt><trkpt lat="43.0719173" lon="12.7608232"><ele>378.0</ele><time>2026-04-12T13:19:52.839Z</time></trkpt><trkpt lat="43.0718547" lon="12.7609432"><ele>378.5</ele><time>2026-04-12T13:19:53.831Z</time></trkpt><trkpt lat="43.071793" lon="12.7610734"><ele>379.0</ele><time>2026-04-12T13:19:54.829Z</time></trkpt><trkpt lat="43.0717341" lon="12.7612167"><ele>379.5</ele><time>2026-04-12T13:19:55.841Z</time></trkpt><trkpt lat="43.0716823" lon="12.7613575"><ele>380.0</ele><time>2026-04-12T13:19:56.836Z</time></trkpt><trkpt lat="43.0716323" lon="12.7615073"><ele>379.0</ele><time>2026-04-12T13:19:57.846Z</time></trkpt><trkpt lat="43.0716002" lon="12.7616517"><ele>378.0</ele><time>2026-04-12T13:19:58.84Z</time></trkpt><trkpt lat="43.0716034" lon="12.7617802"><ele>377.0</ele><time>2026-04-12T13:19:59.832Z</time></trkpt><trkpt lat="43.0716355" lon="12.7618839"><ele>376.0</ele><time>2026-04-12T13:20:00.837Z</time></trkpt><trkpt lat="43.0716956" lon="12.7619729"><ele>375.0</ele><time>2026-04-12T13:20:01.84Z</time></trkpt><trkpt lat="43.0717832" lon="12.7620188"><ele>374.4</ele><time>2026-04-12T13:20:02.84Z</time></trkpt><trkpt lat="43.0718722" lon="12.7620168"><ele>373.8</ele><time>2026-04-12T13:20:03.851Z</time></trkpt><trkpt lat="43.0719697" lon="12.7619805"><ele>373.20000000000005</ele><time>2026-04-12T13:20:04.847Z</time></trkpt><trkpt lat="43.0720615" lon="12.7619158"><ele>372.6</ele><time>2026-04-12T13:20:05.839Z</time></trkpt><trkpt lat="43.0721564" lon="12.7618404"><ele>372.0</ele><time>2026-04-12T13:20:06.844Z</time></trkpt><trkpt lat="43.0722569" lon="12.7617676"><ele>374.0</ele><time>2026-04-12T13:20:07.844Z</time></trkpt><trkpt lat="43.0723665" lon="12.7616895"><ele>376.0</ele><time>2026-04-12T13:20:08.842Z</time></trkpt><trkpt lat="43.0724772" lon="12.7616051"><ele>378.0</ele><time>2026-04-12T13:20:09.832Z</time></trkpt><trkpt lat="43.0725944" lon="12.7615204"><ele>380.0</ele><time>2026-04-12T13:20:10.843Z</time></trkpt><trkpt lat="43.072721" lon="12.7614358"><ele>380.5</ele><time>2026-04-12T13:20:11.842Z</time></trkpt><trkpt lat="43.0728468" lon="12.7613501"><ele>381.0</ele><time>2026-04-12T13:20:12.841Z</time></trkpt><trkpt lat="43.0729838" lon="12.7612618"><ele>381.5</ele><time>2026-04-12T13:20:13.834Z</time></trkpt><trkpt lat="43.0731186" lon="12.7611633"><ele>382.0</ele><time>2026-04-12T13:20:14.84Z</time></trkpt><trkpt lat="43.0732595" lon="12.7610622"><ele>385.3333333333333</ele><time>2026-04-12T13:20:15.834Z</time></trkpt><trkpt lat="43.0734113" lon="12.7609706"><ele>388.66666666666663</ele><time>2026-04-12T13:20:16.833Z</time></trkpt><trkpt lat="43.0735685" lon="12.7608959"><ele>392.0</ele><time>2026-04-12T13:20:17.837Z</time></trkpt><trkpt lat="43.0737282" lon="12.7608251"><ele>392.0</ele><time>2026-04-12T13:20:18.837Z</time></trkpt><trkpt lat="43.0738941" lon="12.7607643"><ele>392.0</ele><time>2026-04-12T13:20:19.838Z</time></trkpt><trkpt lat="43.0740569" lon="12.7607231"><ele>392.0</ele><time>2026-04-12T13:20:20.827Z</time></trkpt><trkpt lat="43.0742132" lon="12.7606894"><ele>391.0</ele><time>2026-04-12T13:20:21.839Z</time></trkpt><trkpt lat="43.0743712" lon="12.7606396"><ele>390.0</ele><time>2026-04-12T13:20:22.833Z</time></trkpt><trkpt lat="43.0745208" lon="12.7605631"><ele>389.0</ele><time>2026-04-12T13:20:23.838Z</time></trkpt><trkpt lat="43.0746704" lon="12.760474"><ele>389.0</ele><time>2026-04-12T13:20:24.836Z</time></trkpt><trkpt lat="43.0748211" lon="12.7603929"><ele>389.0</ele><time>2026-04-12T13:20:25.834Z</time></trkpt><trkpt lat="43.0749791" lon="12.7603327"><ele>389.0</ele><time>2026-04-12T13:20:26.841Z</time></trkpt><trkpt lat="43.075139" lon="12.7603024"><ele>387.0</ele><time>2026-04-12T13:20:27.838Z</time></trkpt><trkpt lat="43.0753054" lon="12.7602952"><ele>385.0</ele><time>2026-04-12T13:20:28.835Z</time></trkpt><trkpt lat="43.0754763" lon="12.7603024"><ele>383.0</ele><time>2026-04-12T13:20:29.842Z</time></trkpt><trkpt lat="43.0756543" lon="12.7603142"><ele>382.0</ele><time>2026-04-12T13:20:30.846Z</time></trkpt><trkpt lat="43.075823" lon="12.7603352"><ele>381.0</ele><time>2026-04-12T13:20:31.842Z</time></trkpt><trkpt lat="43.0759916" lon="12.7603757"><ele>380.0</ele><time>2026-04-12T13:20:32.84Z</time></trkpt><trkpt lat="43.0761652" lon="12.7604416"><ele>380.0</ele><time>2026-04-12T13:20:33.845Z</time></trkpt><trkpt lat="43.0763362" lon="12.7605232"><ele>380.0</ele><time>2026-04-12T13:20:34.844Z</time></trkpt><trkpt lat="43.0765121" lon="12.7606109"><ele>380.0</ele><time>2026-04-12T13:20:35.829Z</time></trkpt><trkpt lat="43.0766859" lon="12.7607064"><ele>380.33333333333337</ele><time>2026-04-12T13:20:36.838Z</time></trkpt><trkpt lat="43.0768561" lon="12.7607951"><ele>380.6666666666667</ele><time>2026-04-12T13:20:37.836Z</time></trkpt><trkpt lat="43.0770261" lon="12.7608878"><ele>381.0</ele><time>2026-04-12T13:20:38.856Z</time></trkpt><trkpt lat="43.0771963" lon="12.7609748"><ele>379.6666666666667</ele><time>2026-04-12T13:20:39.845Z</time></trkpt><trkpt lat="43.0773653" lon="12.7610628"><ele>378.33333333333337</ele><time>2026-04-12T13:20:40.84Z</time></trkpt><trkpt lat="43.0775329" lon="12.7611494"><ele>377.0</ele><time>2026-04-12T13:20:41.837Z</time></trkpt><trkpt lat="43.0776954" lon="12.7612336"><ele>377.0</ele><time>2026-04-12T13:20:42.831Z</time></trkpt><trkpt lat="43.0778601" lon="12.7613167"><ele>377.0</ele><time>2026-04-12T13:20:43.841Z</time></trkpt><trkpt lat="43.0780226" lon="12.7613955"><ele>377.0</ele><time>2026-04-12T13:20:44.835Z</time></trkpt><trkpt lat="43.0781872" lon="12.7614743"><ele>378.33333333333337</ele><time>2026-04-12T13:20:45.838Z</time></trkpt><trkpt lat="43.0783514" lon="12.7615482"><ele>379.6666666666667</ele><time>2026-04-12T13:20:46.836Z</time></trkpt><trkpt lat="43.0785128" lon="12.7616285"><ele>381.0</ele><time>2026-04-12T13:20:47.837Z</time></trkpt><trkpt lat="43.0786723" lon="12.7617069"><ele>381.0</ele><time>2026-04-12T13:20:48.838Z</time></trkpt><trkpt lat="43.0788406" lon="12.7617796"><ele>381.0</ele><time>2026-04-12T13:20:49.839Z</time></trkpt><trkpt lat="43.0790062" lon="12.7618562"><ele>381.0</ele><time>2026-04-12T13:20:50.832Z</time></trkpt><trkpt lat="43.0791672" lon="12.7619337"><ele>379.3333333333333</ele><time>2026-04-12T13:20:51.828Z</time></trkpt><trkpt lat="43.0793194" lon="12.7620059"><ele>377.66666666666663</ele><time>2026-04-12T13:20:52.831Z</time></trkpt><trkpt lat="43.0794716" lon="12.7620833"><ele>376.0</ele><time>2026-04-12T13:20:53.829Z</time></trkpt><trkpt lat="43.0796224" lon="12.7621605"><ele>376.0</ele><time>2026-04-12T13:20:54.836Z</time></trkpt><trkpt lat="43.0797763" lon="12.762233"><ele>376.0</ele><time>2026-04-12T13:20:55.835Z</time></trkpt><trkpt lat="43.0799247" lon="12.7623086"><ele>376.0</ele><time>2026-04-12T13:20:56.835Z</time></trkpt><trkpt lat="43.0800837" lon="12.7623755"><ele>377.3333333333333</ele><time>2026-04-12T13:20:57.838Z</time></trkpt><trkpt lat="43.0802446" lon="12.7624261"><ele>378.6666666666667</ele><time>2026-04-12T13:20:58.831Z</time></trkpt><trkpt lat="43.0804089" lon="12.7624713"><ele>380.0</ele><time>2026-04-12T13:20:59.858Z</time></trkpt><trkpt lat="43.0805737" lon="12.7625196"><ele>380.0</ele><time>2026-04-12T13:21:00.844Z</time></trkpt><trkpt lat="43.0807417" lon="12.7625636"><ele>380.0</ele><time>2026-04-12T13:21:01.835Z</time></trkpt><trkpt lat="43.0809133" lon="12.7625806"><ele>380.0</ele><time>2026-04-12T13:21:02.84Z</time></trkpt><trkpt lat="43.0810886" lon="12.7625828"><ele>380.6666666666667</ele><time>2026-04-12T13:21:03.839Z</time></trkpt><trkpt lat="43.0812657" lon="12.7625804"><ele>381.3333333333333</ele><time>2026-04-12T13:21:04.833Z</time></trkpt><trkpt lat="43.0814422" lon="12.7625765"><ele>382.0</ele><time>2026-04-12T13:21:05.844Z</time></trkpt><trkpt lat="43.0816093" lon="12.7625762"><ele>381.75</ele><time>2026-04-12T13:21:06.832Z</time></trkpt><trkpt lat="43.081768" lon="12.7625832"><ele>381.5</ele><time>2026-04-12T13:21:07.83Z</time></trkpt><trkpt lat="43.0819156" lon="12.7626141"><ele>381.25</ele><time>2026-04-12T13:21:08.833Z</time></trkpt><trkpt lat="43.0820452" lon="12.7626804"><ele>381.0</ele><time>2026-04-12T13:21:09.83Z</time></trkpt><trkpt lat="43.0821573" lon="12.7627874"><ele>381.0</ele><time>2026-04-12T13:21:10.834Z</time></trkpt><trkpt lat="43.0822465" lon="12.7629386"><ele>381.0</ele><time>2026-04-12T13:21:11.838Z</time></trkpt><trkpt lat="43.0823128" lon="12.7631126"><ele>381.0</ele><time>2026-04-12T13:21:12.834Z</time></trkpt><trkpt lat="43.0823757" lon="12.7632825"><ele>381.0</ele><time>2026-04-12T13:21:13.837Z</time></trkpt><trkpt lat="43.0824683" lon="12.7634379"><ele>380.6666666666667</ele><time>2026-04-12T13:21:14.833Z</time></trkpt><trkpt lat="43.0825923" lon="12.763584"><ele>380.33333333333337</ele><time>2026-04-12T13:21:15.831Z</time></trkpt><trkpt lat="43.082738" lon="12.7636966"><ele>380.0</ele><time>2026-04-12T13:21:16.833Z</time></trkpt><trkpt lat="43.0829007" lon="12.7637949"><ele>380.0</ele><time>2026-04-12T13:21:17.829Z</time></trkpt><trkpt lat="43.0830617" lon="12.7638809"><ele>380.0</ele><time>2026-04-12T13:21:18.845Z</time></trkpt><trkpt lat="43.0832238" lon="12.7639694"><ele>380.0</ele><time>2026-04-12T13:21:19.846Z</time></trkpt><trkpt lat="43.0833913" lon="12.7640666"><ele>380.0</ele><time>2026-04-12T13:21:20.839Z</time></trkpt><trkpt lat="43.0835604" lon="12.7641735"><ele>380.0</ele><time>2026-04-12T13:21:21.834Z</time></trkpt><trkpt lat="43.083727" lon="12.764283"><ele>380.0</ele><time>2026-04-12T13:21:22.844Z</time></trkpt><trkpt lat="43.0838999" lon="12.7643869"><ele>379.33333333333337</ele><time>2026-04-12T13:21:23.846Z</time></trkpt><trkpt lat="43.0840698" lon="12.7644836"><ele>378.6666666666667</ele><time>2026-04-12T13:21:24.857Z</time></trkpt><trkpt lat="43.0842371" lon="12.764577"><ele>378.0</ele><time>2026-04-12T13:21:25.84Z</time></trkpt><trkpt lat="43.0843971" lon="12.7646389"><ele>379.3333333333333</ele><time>2026-04-12T13:21:26.843Z</time></trkpt><trkpt lat="43.0845564" lon="12.7646542"><ele>380.66666666666663</ele><time>2026-04-12T13:21:27.841Z</time></trkpt><trkpt lat="43.08471" lon="12.7646133"><ele>382.0</ele><time>2026-04-12T13:21:28.835Z</time></trkpt><trkpt lat="43.0848513" lon="12.7645152"><ele>381.3333333333333</ele><time>2026-04-12T13:21:29.833Z</time></trkpt><trkpt lat="43.0849871" lon="12.7644004"><ele>380.6666666666667</ele><time>2026-04-12T13:21:30.836Z</time></trkpt><trkpt lat="43.0851199" lon="12.7642603"><ele>380.0</ele><time>2026-04-12T13:21:31.84Z</time></trkpt><trkpt lat="43.0852538" lon="12.7641199"><ele>383.6666666666667</ele><time>2026-04-12T13:21:32.849Z</time></trkpt><trkpt lat="43.0853954" lon="12.7639835"><ele>387.33333333333337</ele><time>2026-04-12T13:21:33.834Z</time></trkpt><trkpt lat="43.0855298" lon="12.7638432"><ele>391.0</ele><time>2026-04-12T13:21:34.833Z</time></trkpt><trkpt lat="43.0856639" lon="12.7637137"><ele>391.0</ele><time>2026-04-12T13:21:35.834Z</time></trkpt><trkpt lat="43.0858059" lon="12.7636006"><ele>391.0</ele><time>2026-04-12T13:21:36.834Z</time></trkpt><trkpt lat="43.0859617" lon="12.763515"><ele>391.0</ele><time>2026-04-12T13:21:37.841Z</time></trkpt><trkpt lat="43.0861309" lon="12.7634669"><ele>391.0</ele><time>2026-04-12T13:21:38.836Z</time></trkpt><trkpt lat="43.0863073" lon="12.7634447"><ele>391.0</ele><time>2026-04-12T13:21:39.838Z</time></trkpt><trkpt lat="43.0864858" lon="12.7634363"><ele>391.0</ele><time>2026-04-12T13:21:40.832Z</time></trkpt><trkpt lat="43.0866693" lon="12.7634318"><ele>388.6666666666667</ele><time>2026-04-12T13:21:41.84Z</time></trkpt><trkpt lat="43.086851" lon="12.7634206"><ele>386.33333333333337</ele><time>2026-04-12T13:21:42.836Z</time></trkpt><trkpt lat="43.0870372" lon="12.7634177"><ele>384.0</ele><time>2026-04-12T13:21:43.842Z</time></trkpt><trkpt lat="43.0872256" lon="12.7634299"><ele>384.0</ele><time>2026-04-12T13:21:44.829Z</time></trkpt><trkpt lat="43.0874051" lon="12.7634633"><ele>384.0</ele><time>2026-04-12T13:21:45.832Z</time></trkpt><trkpt lat="43.0875806" lon="12.7635267"><ele>384.0</ele><time>2026-04-12T13:21:46.836Z</time></trkpt><trkpt lat="43.0877447" lon="12.7636183"><ele>383.3333333333333</ele><time>2026-04-12T13:21:47.833Z</time></trkpt><trkpt lat="43.087904" lon="12.7637216"><ele>382.66666666666663</ele><time>2026-04-12T13:21:48.843Z</time></trkpt><trkpt lat="43.0880655" lon="12.7638163"><ele>382.0</ele><time>2026-04-12T13:21:49.832Z</time></trkpt><trkpt lat="43.0882392" lon="12.7638978"><ele>383.0</ele><time>2026-04-12T13:21:50.841Z</time></trkpt><trkpt lat="43.0884143" lon="12.7639648"><ele>384.0</ele><time>2026-04-12T13:21:51.835Z</time></trkpt><trkpt lat="43.0885962" lon="12.764007"><ele>385.0</ele><time>2026-04-12T13:21:52.848Z</time></trkpt><trkpt lat="43.0887757" lon="12.7640345"><ele>385.0</ele><time>2026-04-12T13:21:53.837Z</time></trkpt><trkpt lat="43.0889574" lon="12.7640449"><ele>385.0</ele><time>2026-04-12T13:21:54.836Z</time></trkpt><trkpt lat="43.0891406" lon="12.7640377"><ele>385.0</ele><time>2026-04-12T13:21:55.832Z</time></trkpt><trkpt lat="43.089317" lon="12.7640167"><ele>385.33333333333337</ele><time>2026-04-12T13:21:56.848Z</time></trkpt><trkpt lat="43.0894966" lon="12.7639913"><ele>385.66666666666663</ele><time>2026-04-12T13:21:57.847Z</time></trkpt><trkpt lat="43.0896737" lon="12.7639685"><ele>386.0</ele><time>2026-04-12T13:21:58.835Z</time></trkpt><trkpt lat="43.0898508" lon="12.7639491"><ele>385.66666666666663</ele><time>2026-04-12T13:21:59.836Z</time></trkpt><trkpt lat="43.0900252" lon="12.7639222"><ele>385.33333333333337</ele><time>2026-04-12T13:22:00.84Z</time></trkpt><trkpt lat="43.0901997" lon="12.7638933"><ele>385.0</ele><time>2026-04-12T13:22:01.85Z</time></trkpt><trkpt lat="43.0903759" lon="12.7638618"><ele>385.0</ele><time>2026-04-12T13:22:02.847Z</time></trkpt><trkpt lat="43.0905425" lon="12.763839"><ele>385.0</ele><time>2026-04-12T13:22:03.84Z</time></trkpt><trkpt lat="43.0907022" lon="12.7638181"><ele>385.0</ele><time>2026-04-12T13:22:04.839Z</time></trkpt><trkpt lat="43.090842" lon="12.7638053"><ele>385.25</ele><time>2026-04-12T13:22:05.828Z</time></trkpt><trkpt lat="43.0909679" lon="12.7637961"><ele>385.5</ele><time>2026-04-12T13:22:06.842Z</time></trkpt><trkpt lat="43.0910831" lon="12.7637923"><ele>385.75</ele><time>2026-04-12T13:22:07.847Z</time></trkpt><trkpt lat="43.0911883" lon="12.7637961"><ele>386.0</ele><time>2026-04-12T13:22:08.841Z</time></trkpt><trkpt lat="43.0912974" lon="12.7638176"><ele>386.0</ele><time>2026-04-12T13:22:09.842Z</time></trkpt><trkpt lat="43.0914055" lon="12.7638579"><ele>386.0</ele><time>2026-04-12T13:22:10.839Z</time></trkpt><trkpt lat="43.0915139" lon="12.7639266"><ele>386.0</ele><time>2026-04-12T13:22:11.855Z</time></trkpt><trkpt lat="43.0916226" lon="12.7640114"><ele>386.0</ele><time>2026-04-12T13:22:12.837Z</time></trkpt><trkpt lat="43.0917381" lon="12.7641024"><ele>385.75</ele><time>2026-04-12T13:22:13.844Z</time></trkpt><trkpt lat="43.0918558" lon="12.7642032"><ele>385.5</ele><time>2026-04-12T13:22:14.838Z</time></trkpt><trkpt lat="43.0919753" lon="12.7643029"><ele>385.25</ele><time>2026-04-12T13:22:15.833Z</time></trkpt><trkpt lat="43.0920973" lon="12.764405"><ele>385.0</ele><time>2026-04-12T13:22:16.847Z</time></trkpt><trkpt lat="43.0922181" lon="12.7645079"><ele>384.5</ele><time>2026-04-12T13:22:17.837Z</time></trkpt><trkpt lat="43.0923391" lon="12.7646143"><ele>384.0</ele><time>2026-04-12T13:22:18.84Z</time></trkpt><trkpt lat="43.0924571" lon="12.7647321"><ele>383.5</ele><time>2026-04-12T13:22:19.843Z</time></trkpt><trkpt lat="43.0925758" lon="12.7648552"><ele>383.0</ele><time>2026-04-12T13:22:20.843Z</time></trkpt><trkpt lat="43.0926961" lon="12.7649852"><ele>382.75</ele><time>2026-04-12T13:22:21.843Z</time></trkpt><trkpt lat="43.0928074" lon="12.7651018"><ele>382.5</ele><time>2026-04-12T13:22:22.847Z</time></trkpt><trkpt lat="43.0929212" lon="12.7652052"><ele>382.25</ele><time>2026-04-12T13:22:23.835Z</time></trkpt><trkpt lat="43.0930303" lon="12.7652802"><ele>382.0</ele><time>2026-04-12T13:22:24.842Z</time></trkpt><trkpt lat="43.0931463" lon="12.7653269"><ele>383.75</ele><time>2026-04-12T13:22:25.845Z</time></trkpt><trkpt lat="43.093272" lon="12.7653585"><ele>385.5</ele><time>2026-04-12T13:22:26.851Z</time></trkpt><trkpt lat="43.0933999" lon="12.7653935"><ele>387.25</ele><time>2026-04-12T13:22:27.839Z</time></trkpt><trkpt lat="43.0935242" lon="12.7654406"><ele>389.0</ele><time>2026-04-12T13:22:28.859Z</time></trkpt><trkpt lat="43.0936414" lon="12.765505"><ele>389.0</ele><time>2026-04-12T13:22:29.84Z</time></trkpt><trkpt lat="43.093766" lon="12.7655782"><ele>389.0</ele><time>2026-04-12T13:22:30.843Z</time></trkpt><trkpt lat="43.0938921" lon="12.7656568"><ele>389.0</ele><time>2026-04-12T13:22:31.845Z</time></trkpt><trkpt lat="43.0940208" lon="12.7657388"><ele>389.0</ele><time>2026-04-12T13:22:32.846Z</time></trkpt><trkpt lat="43.0941455" lon="12.7658213"><ele>388.75</ele><time>2026-04-12T13:22:33.836Z</time></trkpt><trkpt lat="43.0942639" lon="12.7658983"><ele>388.5</ele><time>2026-04-12T13:22:34.839Z</time></trkpt><trkpt lat="43.0943789" lon="12.7659683"><ele>388.25</ele><time>2026-04-12T13:22:35.843Z</time></trkpt><trkpt lat="43.0944897" lon="12.7660357"><ele>388.0</ele><time>2026-04-12T13:22:36.838Z</time></trkpt><trkpt lat="43.0945929" lon="12.7661049"><ele>388.0</ele><time>2026-04-12T13:22:37.845Z</time></trkpt><trkpt lat="43.094696" lon="12.7661635"><ele>388.0</ele><time>2026-04-12T13:22:38.832Z</time></trkpt><trkpt lat="43.0948005" lon="12.7662252"><ele>388.0</ele><time>2026-04-12T13:22:39.84Z</time></trkpt><trkpt lat="43.094907" lon="12.7662828"><ele>388.0</ele><time>2026-04-12T13:22:40.837Z</time></trkpt><trkpt lat="43.0950187" lon="12.7663274"><ele>388.25</ele><time>2026-04-12T13:22:41.834Z</time></trkpt><trkpt lat="43.0951411" lon="12.7663582"><ele>388.5</ele><time>2026-04-12T13:22:42.839Z</time></trkpt><trkpt lat="43.0952654" lon="12.7663572"><ele>388.75</ele><time>2026-04-12T13:22:43.849Z</time></trkpt><trkpt lat="43.0953869" lon="12.7663133"><ele>389.0</ele><time>2026-04-12T13:22:44.83Z</time></trkpt><trkpt lat="43.0955048" lon="12.7662423"><ele>389.0</ele><time>2026-04-12T13:22:45.842Z</time></trkpt><trkpt lat="43.0956181" lon="12.766167"><ele>389.0</ele><time>2026-04-12T13:22:46.832Z</time></trkpt><trkpt lat="43.0957178" lon="12.7661025"><ele>389.0</ele><time>2026-04-12T13:22:47.831Z</time></trkpt><trkpt lat="43.095819" lon="12.7660548"><ele>389.0</ele><time>2026-04-12T13:22:48.833Z</time></trkpt><trkpt lat="43.0959201" lon="12.7660547"><ele>389.0</ele><time>2026-04-12T13:22:49.837Z</time></trkpt><trkpt lat="43.0960141" lon="12.7661003"><ele>389.0</ele><time>2026-04-12T13:22:50.832Z</time></trkpt><trkpt lat="43.0961109" lon="12.7661606"><ele>389.0</ele><time>2026-04-12T13:22:51.847Z</time></trkpt><trkpt lat="43.0962131" lon="12.7662137"><ele>389.0</ele><time>2026-04-12T13:22:52.832Z</time></trkpt><trkpt lat="43.0963253" lon="12.7662656"><ele>389.0</ele><time>2026-04-12T13:22:53.846Z</time></trkpt><trkpt lat="43.096442" lon="12.7663176"><ele>389.0</ele><time>2026-04-12T13:22:54.839Z</time></trkpt><trkpt lat="43.0965596" lon="12.7663781"><ele>389.0</ele><time>2026-04-12T13:22:55.834Z</time></trkpt><trkpt lat="43.0966736" lon="12.7664615"><ele>389.0</ele><time>2026-04-12T13:22:56.839Z</time></trkpt><trkpt lat="43.0967816" lon="12.7665545"><ele>389.0</ele><time>2026-04-12T13:22:57.832Z</time></trkpt><trkpt lat="43.0968905" lon="12.7666465"><ele>389.0</ele><time>2026-04-12T13:22:58.841Z</time></trkpt><trkpt lat="43.0969967" lon="12.7667496"><ele>389.0</ele><time>2026-04-12T13:22:59.833Z</time></trkpt><trkpt lat="43.0970991" lon="12.7668532"><ele>389.0</ele><time>2026-04-12T13:23:00.843Z</time></trkpt><trkpt lat="43.0971964" lon="12.766956"><ele>389.0</ele><time>2026-04-12T13:23:01.841Z</time></trkpt><trkpt lat="43.0972961" lon="12.7670546"><ele>389.0</ele><time>2026-04-12T13:23:02.849Z</time></trkpt><trkpt lat="43.097391" lon="12.767152"><ele>389.0</ele><time>2026-04-12T13:23:03.848Z</time></trkpt><trkpt lat="43.0974845" lon="12.7672498"><ele>389.0</ele><time>2026-04-12T13:23:04.845Z</time></trkpt><trkpt lat="43.0975766" lon="12.7673482"><ele>389.0</ele><time>2026-04-12T13:23:05.84Z</time></trkpt><trkpt lat="43.097672" lon="12.7674505"><ele>389.4</ele><time>2026-04-12T13:23:06.842Z</time></trkpt><trkpt lat="43.0977668" lon="12.7675509"><ele>389.79999999999995</ele><time>2026-04-12T13:23:07.851Z</time></trkpt><trkpt lat="43.0978589" lon="12.7676469"><ele>390.20000000000005</ele><time>2026-04-12T13:23:08.837Z</time></trkpt><trkpt lat="43.0979397" lon="12.7677367"><ele>390.6</ele><time>2026-04-12T13:23:09.841Z</time></trkpt><trkpt lat="43.0980178" lon="12.7678205"><ele>391.0</ele><time>2026-04-12T13:23:10.841Z</time></trkpt><trkpt lat="43.0980932" lon="12.7679035"><ele>391.4</ele><time>2026-04-12T13:23:11.838Z</time></trkpt><trkpt lat="43.0981703" lon="12.7679892"><ele>391.8</ele><time>2026-04-12T13:23:12.848Z</time></trkpt><trkpt lat="43.0982442" lon="12.7680836"><ele>392.2</ele><time>2026-04-12T13:23:13.836Z</time></trkpt><trkpt lat="43.0983162" lon="12.7681804"><ele>392.59999999999997</ele><time>2026-04-12T13:23:14.837Z</time></trkpt><trkpt lat="43.0983878" lon="12.7682802"><ele>393.0</ele><time>2026-04-12T13:23:15.84Z</time></trkpt><trkpt lat="43.0984626" lon="12.7683843"><ele>393.5</ele><time>2026-04-12T13:23:16.845Z</time></trkpt><trkpt lat="43.0985512" lon="12.7684869"><ele>394.0</ele><time>2026-04-12T13:23:17.837Z</time></trkpt><trkpt lat="43.0986421" lon="12.7685986"><ele>394.5</ele><time>2026-04-12T13:23:18.839Z</time></trkpt><trkpt lat="43.0987336" lon="12.7687085"><ele>395.0</ele><time>2026-04-12T13:23:19.839Z</time></trkpt><trkpt lat="43.0988186" lon="12.7688335"><ele>395.75</ele><time>2026-04-12T13:23:20.837Z</time></trkpt><trkpt lat="43.0988894" lon="12.7689739"><ele>396.5</ele><time>2026-04-12T13:23:21.838Z</time></trkpt><trkpt lat="43.098948" lon="12.7691376"><ele>397.25</ele><time>2026-04-12T13:23:22.836Z</time></trkpt><trkpt lat="43.0989992" lon="12.7693163"><ele>398.0</ele><time>2026-04-12T13:23:23.846Z</time></trkpt><trkpt lat="43.099045" lon="12.7695035"><ele>398.0</ele><time>2026-04-12T13:23:24.835Z</time></trkpt><trkpt lat="43.0990926" lon="12.7696918"><ele>398.0</ele><time>2026-04-12T13:23:25.836Z</time></trkpt><trkpt lat="43.0991336" lon="12.7698854"><ele>398.0</ele><time>2026-04-12T13:23:26.837Z</time></trkpt><trkpt lat="43.0991706" lon="12.7700842"><ele>398.0</ele><time>2026-04-12T13:23:27.834Z</time></trkpt><trkpt lat="43.0992098" lon="12.7702895"><ele>398.0</ele><time>2026-04-12T13:23:28.836Z</time></trkpt><trkpt lat="43.0992524" lon="12.7704896"><ele>398.0</ele><time>2026-04-12T13:23:29.843Z</time></trkpt><trkpt lat="43.0992909" lon="12.7706971"><ele>398.0</ele><time>2026-04-12T13:23:30.844Z</time></trkpt><trkpt lat="43.0993351" lon="12.770904"><ele>398.3333333333333</ele><time>2026-04-12T13:23:31.842Z</time></trkpt><trkpt lat="43.0993791" lon="12.771117"><ele>398.66666666666663</ele><time>2026-04-12T13:23:32.852Z</time></trkpt><trkpt lat="43.0994193" lon="12.7713334"><ele>399.0</ele><time>2026-04-12T13:23:33.848Z</time></trkpt><trkpt lat="43.0994543" lon="12.7715526"><ele>399.0</ele><time>2026-04-12T13:23:34.845Z</time></trkpt><trkpt lat="43.0994929" lon="12.7717792"><ele>399.0</ele><time>2026-04-12T13:23:35.848Z</time></trkpt><trkpt lat="43.0995288" lon="12.7720073"><ele>399.0</ele><time>2026-04-12T13:23:36.838Z</time></trkpt><trkpt lat="43.0995638" lon="12.7722382"><ele>398.0</ele><time>2026-04-12T13:23:37.838Z</time></trkpt><trkpt lat="43.0995931" lon="12.7724744"><ele>397.0</ele><time>2026-04-12T13:23:38.845Z</time></trkpt><trkpt lat="43.0996209" lon="12.7727124"><ele>396.0</ele><time>2026-04-12T13:23:39.851Z</time></trkpt><trkpt lat="43.099649" lon="12.772943"><ele>398.0</ele><time>2026-04-12T13:23:40.847Z</time></trkpt><trkpt lat="43.0996817" lon="12.7731682"><ele>400.0</ele><time>2026-04-12T13:23:41.842Z</time></trkpt><trkpt lat="43.0997296" lon="12.7733873"><ele>402.0</ele><time>2026-04-12T13:23:42.839Z</time></trkpt><trkpt lat="43.0998014" lon="12.7736044"><ele>404.33333333333337</ele><time>2026-04-12T13:23:43.844Z</time></trkpt><trkpt lat="43.099883" lon="12.7738131"><ele>406.6666666666667</ele><time>2026-04-12T13:23:44.842Z</time></trkpt><trkpt lat="43.0999738" lon="12.7740131"><ele>409.0</ele><time>2026-04-12T13:23:45.842Z</time></trkpt><trkpt lat="43.1000697" lon="12.7742136"><ele>411.0</ele><time>2026-04-12T13:23:46.838Z</time></trkpt><trkpt lat="43.1001613" lon="12.7744171"><ele>413.0</ele><time>2026-04-12T13:23:47.832Z</time></trkpt><trkpt lat="43.1002517" lon="12.7746192"><ele>415.0</ele><time>2026-04-12T13:23:48.833Z</time></trkpt><trkpt lat="43.1003432" lon="12.7748279"><ele>415.0</ele><time>2026-04-12T13:23:49.846Z</time></trkpt><trkpt lat="43.100424" lon="12.7750416"><ele>415.0</ele><time>2026-04-12T13:23:50.844Z</time></trkpt><trkpt lat="43.1005102" lon="12.7752484"><ele>415.0</ele><time>2026-04-12T13:23:51.846Z</time></trkpt><trkpt lat="43.1005965" lon="12.7754535"><ele>414.33333333333337</ele><time>2026-04-12T13:23:52.842Z</time></trkpt><trkpt lat="43.1006881" lon="12.7756568"><ele>413.66666666666663</ele><time>2026-04-12T13:23:53.836Z</time></trkpt><trkpt lat="43.1007887" lon="12.7758531"><ele>413.0</ele><time>2026-04-12T13:23:54.839Z</time></trkpt><trkpt lat="43.1009045" lon="12.7760433"><ele>411.0</ele><time>2026-04-12T13:23:55.835Z</time></trkpt><trkpt lat="43.1010248" lon="12.7762225"><ele>409.0</ele><time>2026-04-12T13:23:56.833Z</time></trkpt><trkpt lat="43.101142" lon="12.7764011"><ele>407.0</ele><time>2026-04-12T13:23:57.846Z</time></trkpt><trkpt lat="43.101257" lon="12.776575"><ele>407.0</ele><time>2026-04-12T13:23:58.84Z</time></trkpt><trkpt lat="43.1013818" lon="12.7767541"><ele>407.0</ele><time>2026-04-12T13:23:59.849Z</time></trkpt><trkpt lat="43.1015045" lon="12.7769275"><ele>407.0</ele><time>2026-04-12T13:24:00.839Z</time></trkpt><trkpt lat="43.1016256" lon="12.7771003"><ele>407.3333333333333</ele><time>2026-04-12T13:24:01.84Z</time></trkpt><trkpt lat="43.1017459" lon="12.7772774"><ele>407.66666666666663</ele><time>2026-04-12T13:24:02.839Z</time></trkpt><trkpt lat="43.1018635" lon="12.7774513"><ele>408.0</ele><time>2026-04-12T13:24:03.847Z</time></trkpt><trkpt lat="43.1019855" lon="12.7776252"><ele>407.0</ele><time>2026-04-12T13:24:04.84Z</time></trkpt><trkpt lat="43.1021062" lon="12.7777986"><ele>406.0</ele><time>2026-04-12T13:24:05.833Z</time></trkpt><trkpt lat="43.1022308" lon="12.7779717"><ele>405.0</ele><time>2026-04-12T13:24:06.837Z</time></trkpt><trkpt lat="43.1023486" lon="12.7781385"><ele>406.0</ele><time>2026-04-12T13:24:07.857Z</time></trkpt><trkpt lat="43.1024655" lon="12.7782973"><ele>407.0</ele><time>2026-04-12T13:24:08.869Z</time></trkpt><trkpt lat="43.1025828" lon="12.7784575"><ele>408.0</ele><time>2026-04-12T13:24:09.84Z</time></trkpt><trkpt lat="43.1027022" lon="12.7786177"><ele>408.0</ele><time>2026-04-12T13:24:10.836Z</time></trkpt><trkpt lat="43.1028199" lon="12.7787803"><ele>408.0</ele><time>2026-04-12T13:24:11.845Z</time></trkpt><trkpt lat="43.1029368" lon="12.7789436"><ele>408.0</ele><time>2026-04-12T13:24:12.842Z</time></trkpt><trkpt lat="43.1030578" lon="12.7791035"><ele>408.0</ele><time>2026-04-12T13:24:13.847Z</time></trkpt><trkpt lat="43.1031747" lon="12.7792708"><ele>408.0</ele><time>2026-04-12T13:24:14.843Z</time></trkpt><trkpt lat="43.1032829" lon="12.7794408"><ele>408.0</ele><time>2026-04-12T13:24:15.846Z</time></trkpt><trkpt lat="43.1033893" lon="12.7796001"><ele>410.0</ele><time>2026-04-12T13:24:16.848Z</time></trkpt><trkpt lat="43.1034976" lon="12.7797494"><ele>412.0</ele><time>2026-04-12T13:24:17.837Z</time></trkpt><trkpt lat="43.1036069" lon="12.7798899"><ele>414.0</ele><time>2026-04-12T13:24:18.832Z</time></trkpt><trkpt lat="43.1037123" lon="12.7800153"><ele>416.0</ele><time>2026-04-12T13:24:19.836Z</time></trkpt><trkpt lat="43.1038207" lon="12.7801313"><ele>416.75</ele><time>2026-04-12T13:24:20.835Z</time></trkpt><trkpt lat="43.1039449" lon="12.7802231"><ele>417.5</ele><time>2026-04-12T13:24:21.851Z</time></trkpt><trkpt lat="43.1040798" lon="12.7802938"><ele>418.25</ele><time>2026-04-12T13:24:22.84Z</time></trkpt><trkpt lat="43.1042297" lon="12.7803394"><ele>419.0</ele><time>2026-04-12T13:24:23.833Z</time></trkpt><trkpt lat="43.1043793" lon="12.7803794"><ele>419.0</ele><time>2026-04-12T13:24:24.849Z</time></trkpt><trkpt lat="43.1045308" lon="12.7804256"><ele>419.0</ele><time>2026-04-12T13:24:25.843Z</time></trkpt><trkpt lat="43.1046801" lon="12.7804716"><ele>419.0</ele><time>2026-04-12T13:24:26.833Z</time></trkpt><trkpt lat="43.1048317" lon="12.7805329"><ele>420.66666666666663</ele><time>2026-04-12T13:24:27.841Z</time></trkpt><trkpt lat="43.1049823" lon="12.7806118"><ele>422.33333333333337</ele><time>2026-04-12T13:24:28.837Z</time></trkpt><trkpt lat="43.1051315" lon="12.7807083"><ele>424.0</ele><time>2026-04-12T13:24:29.845Z</time></trkpt><trkpt lat="43.1052769" lon="12.7808187"><ele>424.0</ele><time>2026-04-12T13:24:30.857Z</time></trkpt><trkpt lat="43.1054138" lon="12.7809504"><ele>424.0</ele><time>2026-04-12T13:24:31.848Z</time></trkpt><trkpt lat="43.1055416" lon="12.7810995"><ele>424.0</ele><time>2026-04-12T13:24:32.835Z</time></trkpt><trkpt lat="43.1056497" lon="12.7812704"><ele>422.0</ele><time>2026-04-12T13:24:33.843Z</time></trkpt><trkpt lat="43.1057434" lon="12.7814615"><ele>420.0</ele><time>2026-04-12T13:24:34.842Z</time></trkpt><trkpt lat="43.105817" lon="12.7816642"><ele>418.0</ele><time>2026-04-12T13:24:35.832Z</time></trkpt><trkpt lat="43.1058831" lon="12.7818883"><ele>422.0</ele><time>2026-04-12T13:24:36.848Z</time></trkpt><trkpt lat="43.1059433" lon="12.7821069"><ele>426.0</ele><time>2026-04-12T13:24:37.837Z</time></trkpt><trkpt lat="43.1060051" lon="12.7823303"><ele>430.0</ele><time>2026-04-12T13:24:38.839Z</time></trkpt><trkpt lat="43.1060648" lon="12.7825364"><ele>428.5</ele><time>2026-04-12T13:24:39.839Z</time></trkpt><trkpt lat="43.1061278" lon="12.7827248"><ele>427.0</ele><time>2026-04-12T13:24:40.83Z</time></trkpt><trkpt lat="43.1062016" lon="12.7828902"><ele>425.5</ele><time>2026-04-12T13:24:41.831Z</time></trkpt><trkpt lat="43.106298" lon="12.783027"><ele>424.0</ele><time>2026-04-12T13:24:42.834Z</time></trkpt><trkpt lat="43.1064233" lon="12.7831453"><ele>424.0</ele><time>2026-04-12T13:24:43.847Z</time></trkpt><trkpt lat="43.1065708" lon="12.7832394"><ele>424.0</ele><time>2026-04-12T13:24:44.849Z</time></trkpt><trkpt lat="43.1067241" lon="12.7833207"><ele>424.0</ele><time>2026-04-12T13:24:45.845Z</time></trkpt><trkpt lat="43.1068665" lon="12.7833845"><ele>427.0</ele><time>2026-04-12T13:24:46.829Z</time></trkpt><trkpt lat="43.1070038" lon="12.7834274"><ele>430.0</ele><time>2026-04-12T13:24:47.84Z</time></trkpt><trkpt lat="43.1071406" lon="12.7834146"><ele>433.0</ele><time>2026-04-12T13:24:48.836Z</time></trkpt><trkpt lat="43.1072739" lon="12.78334"><ele>436.0</ele><time>2026-04-12T13:24:49.831Z</time></trkpt><trkpt lat="43.1073881" lon="12.7832263"><ele>437.6666666666667</ele><time>2026-04-12T13:24:50.829Z</time></trkpt><trkpt lat="43.1074988" lon="12.7830947"><ele>439.33333333333337</ele><time>2026-04-12T13:24:51.831Z</time></trkpt><trkpt lat="43.1076124" lon="12.7829627"><ele>441.0</ele><time>2026-04-12T13:24:52.834Z</time></trkpt><trkpt lat="43.1077376" lon="12.7828284"><ele>441.0</ele><time>2026-04-12T13:24:53.824Z</time></trkpt><trkpt lat="43.1078675" lon="12.7826926"><ele>441.0</ele><time>2026-04-12T13:24:54.829Z</time></trkpt><trkpt lat="43.1079937" lon="12.782545"><ele>441.0</ele><time>2026-04-12T13:24:55.841Z</time></trkpt><trkpt lat="43.1081077" lon="12.7823827"><ele>440.66666666666663</ele><time>2026-04-12T13:24:56.827Z</time></trkpt><trkpt lat="43.1082065" lon="12.7822041"><ele>440.3333333333333</ele><time>2026-04-12T13:24:57.837Z</time></trkpt><trkpt lat="43.1082908" lon="12.7820153"><ele>440.0</ele><time>2026-04-12T13:24:58.837Z</time></trkpt><trkpt lat="43.1083702" lon="12.781818"><ele>443.0</ele><time>2026-04-12T13:24:59.843Z</time></trkpt><trkpt lat="43.1084485" lon="12.7816203"><ele>446.0</ele><time>2026-04-12T13:25:00.832Z</time></trkpt><trkpt lat="43.1085257" lon="12.7814315"><ele>449.0</ele><time>2026-04-12T13:25:01.832Z</time></trkpt><trkpt lat="43.108599" lon="12.781239"><ele>449.0</ele><time>2026-04-12T13:25:02.835Z</time></trkpt><trkpt lat="43.1086724" lon="12.7810577"><ele>449.0</ele><time>2026-04-12T13:25:03.837Z</time></trkpt><trkpt lat="43.1087413" lon="12.7808911"><ele>449.0</ele><time>2026-04-12T13:25:04.835Z</time></trkpt><trkpt lat="43.1088197" lon="12.7807406"><ele>449.0</ele><time>2026-04-12T13:25:05.837Z</time></trkpt><trkpt lat="43.1089098" lon="12.7806106"><ele>448.25</ele><time>2026-04-12T13:25:06.84Z</time></trkpt><trkpt lat="43.1090303" lon="12.7805326"><ele>447.5</ele><time>2026-04-12T13:25:07.841Z</time></trkpt><trkpt lat="43.109169" lon="12.7805033"><ele>446.75</ele><time>2026-04-12T13:25:08.835Z</time></trkpt><trkpt lat="43.1093126" lon="12.7805299"><ele>446.0</ele><time>2026-04-12T13:25:09.846Z</time></trkpt><trkpt lat="43.1094512" lon="12.7805761"><ele>446.0</ele><time>2026-04-12T13:25:10.853Z</time></trkpt><trkpt lat="43.1095878" lon="12.7806464"><ele>446.0</ele><time>2026-04-12T13:25:11.843Z</time></trkpt><trkpt lat="43.1097351" lon="12.7807156"><ele>446.0</ele><time>2026-04-12T13:25:12.838Z</time></trkpt><trkpt lat="43.1098857" lon="12.7807843"><ele>446.3333333333333</ele><time>2026-04-12T13:25:13.843Z</time></trkpt><trkpt lat="43.1100372" lon="12.7808567"><ele>446.66666666666663</ele><time>2026-04-12T13:25:14.839Z</time></trkpt><trkpt lat="43.1101884" lon="12.7809366"><ele>447.0</ele><time>2026-04-12T13:25:15.847Z</time></trkpt><trkpt lat="43.1103322" lon="12.7810227"><ele>447.0</ele><time>2026-04-12T13:25:16.839Z</time></trkpt><trkpt lat="43.1104715" lon="12.7811112"><ele>447.0</ele><time>2026-04-12T13:25:17.845Z</time></trkpt><trkpt lat="43.110611" lon="12.7811833"><ele>447.0</ele><time>2026-04-12T13:25:18.834Z</time></trkpt><trkpt lat="43.1107557" lon="12.7812393"><ele>449.25</ele><time>2026-04-12T13:25:19.837Z</time></trkpt><trkpt lat="43.1108982" lon="12.7812793"><ele>451.5</ele><time>2026-04-12T13:25:20.831Z</time></trkpt><trkpt lat="43.1110307" lon="12.781332"><ele>453.75</ele><time>2026-04-12T13:25:21.836Z</time></trkpt><trkpt lat="43.1111472" lon="12.7814035"><ele>456.0</ele><time>2026-04-12T13:25:22.847Z</time></trkpt><trkpt lat="43.111256" lon="12.7815169"><ele>456.0</ele><time>2026-04-12T13:25:23.853Z</time></trkpt><trkpt lat="43.111354" lon="12.7816562"><ele>456.0</ele><time>2026-04-12T13:25:24.84Z</time></trkpt><trkpt lat="43.1114336" lon="12.7818091"><ele>456.0</ele><time>2026-04-12T13:25:25.841Z</time></trkpt><trkpt lat="43.1115021" lon="12.7819657"><ele>456.0</ele><time>2026-04-12T13:25:26.841Z</time></trkpt><trkpt lat="43.1115679" lon="12.7821263"><ele>458.20000000000005</ele><time>2026-04-12T13:25:27.847Z</time></trkpt><trkpt lat="43.1116224" lon="12.7822776"><ele>460.40000000000003</ele><time>2026-04-12T13:25:28.835Z</time></trkpt><trkpt lat="43.1116446" lon="12.7824123"><ele>462.6</ele><time>2026-04-12T13:25:29.839Z</time></trkpt><trkpt lat="43.1116454" lon="12.7825381"><ele>464.8</ele><time>2026-04-12T13:25:30.838Z</time></trkpt><trkpt lat="43.111625" lon="12.782663"><ele>467.0</ele><time>2026-04-12T13:25:31.845Z</time></trkpt><trkpt lat="43.1115807" lon="12.7827906"><ele>468.20000000000005</ele><time>2026-04-12T13:25:32.836Z</time></trkpt><trkpt lat="43.1115234" lon="12.7829109"><ele>469.40000000000003</ele><time>2026-04-12T13:25:33.84Z</time></trkpt><trkpt lat="43.111455" lon="12.7830175"><ele>470.59999999999997</ele><time>2026-04-12T13:25:34.846Z</time></trkpt><trkpt lat="43.1113751" lon="12.7830946"><ele>471.79999999999995</ele><time>2026-04-12T13:25:35.835Z</time></trkpt><trkpt lat="43.1112937" lon="12.7831473"><ele>473.0</ele><time>2026-04-12T13:25:36.835Z</time></trkpt><trkpt lat="43.1112043" lon="12.7831758"><ele>473.0</ele><time>2026-04-12T13:25:37.845Z</time></trkpt><trkpt lat="43.1111124" lon="12.7831809"><ele>472.99999999999994</ele><time>2026-04-12T13:25:38.829Z</time></trkpt><trkpt lat="43.1110181" lon="12.7831668"><ele>472.99999999999994</ele><time>2026-04-12T13:25:39.84Z</time></trkpt><trkpt lat="43.1109272" lon="12.7831491"><ele>473.0</ele><time>2026-04-12T13:25:40.838Z</time></trkpt><trkpt lat="43.110833" lon="12.7831521"><ele>473.0</ele><time>2026-04-12T13:25:41.839Z</time></trkpt><trkpt lat="43.1107384" lon="12.7831736"><ele>472.2</ele><time>2026-04-12T13:25:42.835Z</time></trkpt><trkpt lat="43.1106402" lon="12.7832142"><ele>471.4</ele><time>2026-04-12T13:25:43.846Z</time></trkpt><trkpt lat="43.1105471" lon="12.7832994"><ele>470.59999999999997</ele><time>2026-04-12T13:25:44.846Z</time></trkpt><trkpt lat="43.110471" lon="12.783412"><ele>469.79999999999995</ele><time>2026-04-12T13:25:45.838Z</time></trkpt><trkpt lat="43.1104205" lon="12.7835392"><ele>469.0</ele><time>2026-04-12T13:25:46.836Z</time></trkpt><trkpt lat="43.1103818" lon="12.7836843"><ele>469.0</ele><time>2026-04-12T13:25:47.851Z</time></trkpt><trkpt lat="43.1103628" lon="12.78384"><ele>469.0</ele><time>2026-04-12T13:25:48.831Z</time></trkpt><trkpt lat="43.1103631" lon="12.7839983"><ele>469.0</ele><time>2026-04-12T13:25:49.834Z</time></trkpt><trkpt lat="43.1103774" lon="12.7841609"><ele>469.0</ele><time>2026-04-12T13:25:50.846Z</time></trkpt><trkpt lat="43.1104045" lon="12.7843236"><ele>471.5</ele><time>2026-04-12T13:25:51.849Z</time></trkpt><trkpt lat="43.1104411" lon="12.7844935"><ele>474.0</ele><time>2026-04-12T13:25:52.85Z</time></trkpt><trkpt lat="43.1104734" lon="12.7846634"><ele>476.5</ele><time>2026-04-12T13:25:53.846Z</time></trkpt><trkpt lat="43.1105176" lon="12.784825"><ele>479.0</ele><time>2026-04-12T13:25:54.849Z</time></trkpt><trkpt lat="43.1105796" lon="12.7849803"><ele>479.0</ele><time>2026-04-12T13:25:55.845Z</time></trkpt><trkpt lat="43.1106565" lon="12.7851258"><ele>479.0</ele><time>2026-04-12T13:25:56.847Z</time></trkpt><trkpt lat="43.1107427" lon="12.7852563"><ele>479.0</ele><time>2026-04-12T13:25:57.83Z</time></trkpt><trkpt lat="43.1108413" lon="12.7853782"><ele>479.0</ele><time>2026-04-12T13:25:58.838Z</time></trkpt><trkpt lat="43.11095" lon="12.7854911"><ele>479.75</ele><time>2026-04-12T13:25:59.842Z</time></trkpt><trkpt lat="43.1110607" lon="12.7855934"><ele>480.5</ele><time>2026-04-12T13:26:00.836Z</time></trkpt><trkpt lat="43.1111771" lon="12.7856889"><ele>481.25</ele><time>2026-04-12T13:26:01.841Z</time></trkpt><trkpt lat="43.1112958" lon="12.7857739"><ele>482.0</ele><time>2026-04-12T13:26:02.832Z</time></trkpt><trkpt lat="43.1114146" lon="12.7858664"><ele>482.0</ele><time>2026-04-12T13:26:03.841Z</time></trkpt><trkpt lat="43.1115318" lon="12.7859524"><ele>482.0</ele><time>2026-04-12T13:26:04.834Z</time></trkpt><trkpt lat="43.1116438" lon="12.7860515"><ele>482.0</ele><time>2026-04-12T13:26:05.831Z</time></trkpt><trkpt lat="43.111745" lon="12.7861738"><ele>482.0</ele><time>2026-04-12T13:26:06.84Z</time></trkpt><trkpt lat="43.1118312" lon="12.7863154"><ele>481.75</ele><time>2026-04-12T13:26:07.838Z</time></trkpt><trkpt lat="43.1119129" lon="12.786465"><ele>481.5</ele><time>2026-04-12T13:26:08.839Z</time></trkpt><trkpt lat="43.1119972" lon="12.786623"><ele>481.25</ele><time>2026-04-12T13:26:09.83Z</time></trkpt><trkpt lat="43.1120786" lon="12.7867689"><ele>481.0</ele><time>2026-04-12T13:26:10.834Z</time></trkpt><trkpt lat="43.1121579" lon="12.7868952"><ele>479.25</ele><time>2026-04-12T13:26:11.843Z</time></trkpt><trkpt lat="43.1122504" lon="12.7870126"><ele>477.5</ele><time>2026-04-12T13:26:12.844Z</time></trkpt><trkpt lat="43.1123625" lon="12.7871051"><ele>475.75</ele><time>2026-04-12T13:26:13.834Z</time></trkpt><trkpt lat="43.1124803" lon="12.7871663"><ele>474.0</ele><time>2026-04-12T13:26:14.841Z</time></trkpt><trkpt lat="43.1126095" lon="12.7872062"><ele>478.0</ele><time>2026-04-12T13:26:15.833Z</time></trkpt><trkpt lat="43.1127433" lon="12.7872387"><ele>482.0</ele><time>2026-04-12T13:26:16.852Z</time></trkpt><trkpt lat="43.1128748" lon="12.7872717"><ele>486.0</ele><time>2026-04-12T13:26:17.848Z</time></trkpt><trkpt lat="43.1130005" lon="12.7873047"><ele>490.0</ele><time>2026-04-12T13:26:18.837Z</time></trkpt><trkpt lat="43.1131172" lon="12.787334"><ele>490.0</ele><time>2026-04-12T13:26:19.841Z</time></trkpt><trkpt lat="43.1132254" lon="12.7873698"><ele>490.0</ele><time>2026-04-12T13:26:20.833Z</time></trkpt><trkpt lat="43.1133232" lon="12.7874234"><ele>490.0</ele><time>2026-04-12T13:26:21.848Z</time></trkpt><trkpt lat="43.113399" lon="12.7874938"><ele>490.0</ele><time>2026-04-12T13:26:22.832Z</time></trkpt><trkpt lat="43.1134629" lon="12.7875768"><ele>490.0</ele><time>2026-04-12T13:26:23.833Z</time></trkpt><trkpt lat="43.1135109" lon="12.7876623"><ele>491.00000000000006</ele><time>2026-04-12T13:26:24.834Z</time></trkpt><trkpt lat="43.1135522" lon="12.7877502"><ele>492.0</ele><time>2026-04-12T13:26:25.837Z</time></trkpt><trkpt lat="43.1135959" lon="12.7878351"><ele>493.0</ele><time>2026-04-12T13:26:26.846Z</time></trkpt><trkpt lat="43.1136441" lon="12.7879242"><ele>494.0</ele><time>2026-04-12T13:26:27.831Z</time></trkpt><trkpt lat="43.113698" lon="12.7880228"><ele>495.00000000000006</ele><time>2026-04-12T13:26:28.846Z</time></trkpt><trkpt lat="43.1137526" lon="12.7881164"><ele>496.0</ele><time>2026-04-12T13:26:29.845Z</time></trkpt><trkpt lat="43.1138088" lon="12.7881987"><ele>496.0</ele><time>2026-04-12T13:26:30.84Z</time></trkpt><trkpt lat="43.1138627" lon="12.7882757"><ele>496.00000000000006</ele><time>2026-04-12T13:26:31.842Z</time></trkpt><trkpt lat="43.1139148" lon="12.7883271"><ele>496.0</ele><time>2026-04-12T13:26:32.837Z</time></trkpt><trkpt lat="43.1139694" lon="12.7884002"><ele>496.0</ele><time>2026-04-12T13:26:35.837Z</time></trkpt><trkpt lat="43.1139476" lon="12.7884864"><ele>496.00000000000006</ele><time>2026-04-12T13:26:38.849Z</time></trkpt><trkpt lat="43.113892" lon="12.788554"><ele>496.0</ele><time>2026-04-12T13:26:42.849Z</time></trkpt><trkpt lat="43.1138236" lon="12.7885707"><ele>496.0</ele><time>2026-04-12T13:26:46.842Z</time></trkpt><trkpt lat="43.1137548" lon="12.7886248"><ele>496.00000000000006</ele><time>2026-04-12T13:28:02.839Z</time></trkpt><trkpt lat="43.1137935" lon="12.7885434"><ele>496.0</ele><time>2026-04-12T13:44:34.846Z</time></trkpt><trkpt lat="43.1138666" lon="12.7885753"><ele>496.0</ele><time>2026-04-12T13:45:55.835Z</time></trkpt><trkpt lat="43.1139415" lon="12.7885086"><ele>496.0</ele><time>2026-04-12T13:45:57.829Z</time></trkpt><trkpt lat="43.1139875" lon="12.7884389"><ele>496.00000000000006</ele><time>2026-04-12T13:45:59.844Z</time></trkpt><trkpt lat="43.1140479" lon="12.788388"><ele>496.0</ele><time>2026-04-12T13:46:02.846Z</time></trkpt><trkpt lat="43.1141411" lon="12.7883231"><ele>496.6</ele><time>2026-04-12T13:46:05.857Z</time></trkpt><trkpt lat="43.1142421" lon="12.7882811"><ele>497.20000000000005</ele><time>2026-04-12T13:46:07.851Z</time></trkpt><trkpt lat="43.1143482" lon="12.7882451"><ele>497.79999999999995</ele><time>2026-04-12T13:46:09.857Z</time></trkpt><trkpt lat="43.1144515" lon="12.7882261"><ele>498.4</ele><time>2026-04-12T13:46:11.869Z</time></trkpt><trkpt lat="43.1145791" lon="12.7882098"><ele>499.0</ele><time>2026-04-12T13:46:13.841Z</time></trkpt><trkpt lat="43.1146498" lon="12.7882049"><ele>499.00000000000006</ele><time>2026-04-12T13:46:14.859Z</time></trkpt><trkpt lat="43.114719" lon="12.7881991"><ele>499.0</ele><time>2026-04-12T13:46:15.848Z</time></trkpt><trkpt lat="43.1147901" lon="12.7881962"><ele>499.00000000000006</ele><time>2026-04-12T13:46:16.837Z</time></trkpt><trkpt lat="43.1148573" lon="12.7882"><ele>499.00000000000006</ele><time>2026-04-12T13:46:17.827Z</time></trkpt><trkpt lat="43.1149324" lon="12.7882032"><ele>499.0</ele><time>2026-04-12T13:46:18.841Z</time></trkpt><trkpt lat="43.1150084" lon="12.7882189"><ele>499.00000000000006</ele><time>2026-04-12T13:46:19.843Z</time></trkpt><trkpt lat="43.1150831" lon="12.7882516"><ele>499.00000000000006</ele><time>2026-04-12T13:46:20.82Z</time></trkpt><trkpt lat="43.115159" lon="12.7882987"><ele>498.4</ele><time>2026-04-12T13:46:21.837Z</time></trkpt><trkpt lat="43.115229" lon="12.7883697"><ele>497.79999999999995</ele><time>2026-04-12T13:46:22.835Z</time></trkpt><trkpt lat="43.1152831" lon="12.7884481"><ele>497.20000000000005</ele><time>2026-04-12T13:46:23.841Z</time></trkpt><trkpt lat="43.1153388" lon="12.7885503"><ele>496.6</ele><time>2026-04-12T13:46:24.83Z</time></trkpt><trkpt lat="43.1153841" lon="12.7886703"><ele>496.0</ele><time>2026-04-12T13:46:25.846Z</time></trkpt><trkpt lat="43.1154188" lon="12.7888017"><ele>496.0</ele><time>2026-04-12T13:46:26.83Z</time></trkpt><trkpt lat="43.1154493" lon="12.7889406"><ele>496.0</ele><time>2026-04-12T13:46:27.834Z</time></trkpt><trkpt lat="43.1154819" lon="12.7890666"><ele>496.0</ele><time>2026-04-12T13:46:28.832Z</time></trkpt><trkpt lat="43.1155105" lon="12.789189"><ele>496.0</ele><time>2026-04-12T13:46:29.841Z</time></trkpt><trkpt lat="43.1155311" lon="12.7893073"><ele>496.0</ele><time>2026-04-12T13:46:30.843Z</time></trkpt><trkpt lat="43.115545" lon="12.7894011"><ele>495.50000000000006</ele><time>2026-04-12T13:46:31.833Z</time></trkpt><trkpt lat="43.1155638" lon="12.7894919"><ele>495.0</ele><time>2026-04-12T13:46:32.837Z</time></trkpt><trkpt lat="43.1155802" lon="12.7895756"><ele>494.5</ele><time>2026-04-12T13:46:33.844Z</time></trkpt><trkpt lat="43.1156113" lon="12.7897233"><ele>494.0</ele><time>2026-04-12T13:46:35.834Z</time></trkpt><trkpt lat="43.1156687" lon="12.7898478"><ele>493.50000000000006</ele><time>2026-04-12T13:46:37.838Z</time></trkpt><trkpt lat="43.1157155" lon="12.7899086"><ele>493.0</ele><time>2026-04-12T13:46:38.831Z</time></trkpt><trkpt lat="43.1157738" lon="12.7899489"><ele>494.2857142857143</ele><time>2026-04-12T13:46:39.837Z</time></trkpt><trkpt lat="43.1158355" lon="12.7899757"><ele>495.57142857142856</ele><time>2026-04-12T13:46:40.838Z</time></trkpt><trkpt lat="43.1159062" lon="12.7900069"><ele>496.85714285714283</ele><time>2026-04-12T13:46:41.839Z</time></trkpt><trkpt lat="43.1159668" lon="12.7900326"><ele>498.1428571428571</ele><time>2026-04-12T13:46:42.837Z</time></trkpt><trkpt lat="43.1160293" lon="12.7900576"><ele>499.42857142857144</ele><time>2026-04-12T13:46:43.838Z</time></trkpt><trkpt lat="43.1161006" lon="12.7900838"><ele>500.71428571428567</ele><time>2026-04-12T13:46:44.83Z</time></trkpt><trkpt lat="43.1161745" lon="12.7901076"><ele>501.99999999999994</ele><time>2026-04-12T13:46:45.835Z</time></trkpt><trkpt lat="43.1162529" lon="12.7901392"><ele>500.83333333333337</ele><time>2026-04-12T13:46:46.867Z</time></trkpt><trkpt lat="43.1163326" lon="12.7901791"><ele>499.6666666666667</ele><time>2026-04-12T13:46:47.837Z</time></trkpt><trkpt lat="43.1164082" lon="12.7902304"><ele>498.5</ele><time>2026-04-12T13:46:48.837Z</time></trkpt><trkpt lat="43.1164709" lon="12.790299"><ele>497.33333333333337</ele><time>2026-04-12T13:46:49.832Z</time></trkpt><trkpt lat="43.1165205" lon="12.790391"><ele>496.1666666666667</ele><time>2026-04-12T13:46:50.833Z</time></trkpt><trkpt lat="43.1165519" lon="12.7904979"><ele>495.0</ele><time>2026-04-12T13:46:51.85Z</time></trkpt><trkpt lat="43.1165671" lon="12.7906169"><ele>495.0</ele><time>2026-04-12T13:46:52.841Z</time></trkpt><trkpt lat="43.1165713" lon="12.7907478"><ele>495.0</ele><time>2026-04-12T13:46:53.843Z</time></trkpt><trkpt lat="43.1165419" lon="12.7908652"><ele>495.0</ele><time>2026-04-12T13:46:54.841Z</time></trkpt><trkpt lat="43.1164897" lon="12.790979"><ele>495.0</ele><time>2026-04-12T13:46:55.837Z</time></trkpt><trkpt lat="43.1164234" lon="12.7910736"><ele>495.0</ele><time>2026-04-12T13:46:56.832Z</time></trkpt><trkpt lat="43.1163436" lon="12.7911474"><ele>495.6</ele><time>2026-04-12T13:46:57.834Z</time></trkpt><trkpt lat="43.1162554" lon="12.791225"><ele>496.2</ele><time>2026-04-12T13:46:58.833Z</time></trkpt><trkpt lat="43.1161677" lon="12.7913009"><ele>496.79999999999995</ele><time>2026-04-12T13:46:59.841Z</time></trkpt><trkpt lat="43.1160883" lon="12.7913866"><ele>497.4</ele><time>2026-04-12T13:47:00.85Z</time></trkpt><trkpt lat="43.1160139" lon="12.7914887"><ele>498.0</ele><time>2026-04-12T13:47:01.836Z</time></trkpt><trkpt lat="43.1159658" lon="12.7916104"><ele>498.0</ele><time>2026-04-12T13:47:02.835Z</time></trkpt><trkpt lat="43.1159463" lon="12.791754"><ele>497.99999999999994</ele><time>2026-04-12T13:47:03.838Z</time></trkpt><trkpt lat="43.1159601" lon="12.7919049"><ele>497.99999999999994</ele><time>2026-04-12T13:47:04.839Z</time></trkpt><trkpt lat="43.1159796" lon="12.7920516"><ele>498.0</ele><time>2026-04-12T13:47:05.833Z</time></trkpt><trkpt lat="43.1160043" lon="12.7921999"><ele>498.0</ele><time>2026-04-12T13:47:06.839Z</time></trkpt><trkpt lat="43.1160316" lon="12.7923406"><ele>498.59999999999997</ele><time>2026-04-12T13:47:07.828Z</time></trkpt><trkpt lat="43.1160507" lon="12.7924672"><ele>499.19999999999993</ele><time>2026-04-12T13:47:08.838Z</time></trkpt><trkpt lat="43.1160656" lon="12.7925858"><ele>499.8</ele><time>2026-04-12T13:47:09.835Z</time></trkpt><trkpt lat="43.1160627" lon="12.7927059"><ele>500.4</ele><time>2026-04-12T13:47:10.838Z</time></trkpt><trkpt lat="43.1160329" lon="12.7928239"><ele>501.0</ele><time>2026-04-12T13:47:11.84Z</time></trkpt><trkpt lat="43.1159762" lon="12.7929387"><ele>500.8</ele><time>2026-04-12T13:47:12.841Z</time></trkpt><trkpt lat="43.1159033" lon="12.7930177"><ele>500.6</ele><time>2026-04-12T13:47:13.84Z</time></trkpt><trkpt lat="43.1158091" lon="12.7930737"><ele>500.4</ele><time>2026-04-12T13:47:14.835Z</time></trkpt><trkpt lat="43.1157003" lon="12.7931001"><ele>500.2</ele><time>2026-04-12T13:47:15.839Z</time></trkpt><trkpt lat="43.1155943" lon="12.7931193"><ele>500.0</ele><time>2026-04-12T13:47:16.839Z</time></trkpt><trkpt lat="43.1154775" lon="12.7931313"><ele>500.0</ele><time>2026-04-12T13:47:17.84Z</time></trkpt><trkpt lat="43.1153559" lon="12.7931499"><ele>500.0</ele><time>2026-04-12T13:47:18.844Z</time></trkpt><trkpt lat="43.1152334" lon="12.7931718"><ele>500.0</ele><time>2026-04-12T13:47:19.84Z</time></trkpt><trkpt lat="43.1151223" lon="12.7932191"><ele>500.0</ele><time>2026-04-12T13:47:20.837Z</time></trkpt><trkpt lat="43.1150316" lon="12.7933005"><ele>500.0</ele><time>2026-04-12T13:47:21.838Z</time></trkpt><trkpt lat="43.1149616" lon="12.7934222"><ele>500.0</ele><time>2026-04-12T13:47:22.838Z</time></trkpt><trkpt lat="43.1149164" lon="12.7935665"><ele>500.0</ele><time>2026-04-12T13:47:23.835Z</time></trkpt><trkpt lat="43.1149086" lon="12.7937265"><ele>500.0</ele><time>2026-04-12T13:47:24.844Z</time></trkpt><trkpt lat="43.1149313" lon="12.7938828"><ele>500.0</ele><time>2026-04-12T13:47:25.844Z</time></trkpt><trkpt lat="43.1149699" lon="12.7940306"><ele>500.0</ele><time>2026-04-12T13:47:26.835Z</time></trkpt><trkpt lat="43.1150217" lon="12.7941832"><ele>500.0</ele><time>2026-04-12T13:47:27.835Z</time></trkpt><trkpt lat="43.1150821" lon="12.7943471"><ele>500.0</ele><time>2026-04-12T13:47:28.837Z</time></trkpt><trkpt lat="43.1151388" lon="12.7945164"><ele>498.75</ele><time>2026-04-12T13:47:29.838Z</time></trkpt><trkpt lat="43.1151961" lon="12.7946865"><ele>497.5</ele><time>2026-04-12T13:47:30.839Z</time></trkpt><trkpt lat="43.1152549" lon="12.7948523"><ele>496.25</ele><time>2026-04-12T13:47:31.842Z</time></trkpt><trkpt lat="43.1153124" lon="12.7950085"><ele>495.0</ele><time>2026-04-12T13:47:32.839Z</time></trkpt><trkpt lat="43.1153538" lon="12.7951666"><ele>494.5</ele><time>2026-04-12T13:47:33.843Z</time></trkpt><trkpt lat="43.1153629" lon="12.795329"><ele>494.0</ele><time>2026-04-12T13:47:34.838Z</time></trkpt><trkpt lat="43.1153428" lon="12.7954837"><ele>493.5</ele><time>2026-04-12T13:47:35.845Z</time></trkpt><trkpt lat="43.1152976" lon="12.7956201"><ele>493.0</ele><time>2026-04-12T13:47:36.841Z</time></trkpt><trkpt lat="43.1152181" lon="12.79573"><ele>493.0</ele><time>2026-04-12T13:47:37.836Z</time></trkpt><trkpt lat="43.1151217" lon="12.7958101"><ele>493.0</ele><time>2026-04-12T13:47:38.845Z</time></trkpt><trkpt lat="43.1150052" lon="12.7958661"><ele>493.0</ele><time>2026-04-12T13:47:39.837Z</time></trkpt><trkpt lat="43.114875" lon="12.7959133"><ele>493.0</ele><time>2026-04-12T13:47:40.828Z</time></trkpt><trkpt lat="43.1147493" lon="12.7959653"><ele>493.25</ele><time>2026-04-12T13:47:41.841Z</time></trkpt><trkpt lat="43.1146232" lon="12.7960199"><ele>493.5</ele><time>2026-04-12T13:47:42.846Z</time></trkpt><trkpt lat="43.1144956" lon="12.7960773"><ele>493.75</ele><time>2026-04-12T13:47:43.833Z</time></trkpt><trkpt lat="43.1143653" lon="12.7961306"><ele>494.0</ele><time>2026-04-12T13:47:44.84Z</time></trkpt><trkpt lat="43.1142325" lon="12.7961862"><ele>494.0</ele><time>2026-04-12T13:47:45.832Z</time></trkpt><trkpt lat="43.1141009" lon="12.796238"><ele>494.0</ele><time>2026-04-12T13:47:46.85Z</time></trkpt><trkpt lat="43.1139689" lon="12.7962953"><ele>494.0</ele><time>2026-04-12T13:47:47.868Z</time></trkpt><trkpt lat="43.1138343" lon="12.7963502"><ele>494.0</ele><time>2026-04-12T13:47:48.838Z</time></trkpt><trkpt lat="43.1136994" lon="12.7964059"><ele>493.0</ele><time>2026-04-12T13:47:49.848Z</time></trkpt><trkpt lat="43.113566" lon="12.7964678"><ele>492.0</ele><time>2026-04-12T13:47:50.839Z</time></trkpt><trkpt lat="43.1134281" lon="12.7965217"><ele>491.0</ele><time>2026-04-12T13:47:51.851Z</time></trkpt><trkpt lat="43.113287" lon="12.796577"><ele>490.0</ele><time>2026-04-12T13:47:52.833Z</time></trkpt><trkpt lat="43.1131453" lon="12.7966329"><ele>489.75</ele><time>2026-04-12T13:47:53.837Z</time></trkpt><trkpt lat="43.1130064" lon="12.7966962"><ele>489.5</ele><time>2026-04-12T13:47:54.836Z</time></trkpt><trkpt lat="43.1128708" lon="12.7967733"><ele>489.25</ele><time>2026-04-12T13:47:55.845Z</time></trkpt><trkpt lat="43.1127421" lon="12.7968589"><ele>489.0</ele><time>2026-04-12T13:47:56.839Z</time></trkpt><trkpt lat="43.1126161" lon="12.7969568"><ele>489.0</ele><time>2026-04-12T13:47:57.834Z</time></trkpt><trkpt lat="43.112493" lon="12.7970557"><ele>489.0</ele><time>2026-04-12T13:47:58.834Z</time></trkpt><trkpt lat="43.1123646" lon="12.7971602"><ele>489.0</ele><time>2026-04-12T13:47:59.838Z</time></trkpt><trkpt lat="43.1122373" lon="12.7972669"><ele>489.0</ele><time>2026-04-12T13:48:00.84Z</time></trkpt><trkpt lat="43.1121126" lon="12.7973719"><ele>488.75</ele><time>2026-04-12T13:48:01.837Z</time></trkpt><trkpt lat="43.1119828" lon="12.797481"><ele>488.5</ele><time>2026-04-12T13:48:02.832Z</time></trkpt><trkpt lat="43.1118582" lon="12.7975877"><ele>488.25</ele><time>2026-04-12T13:48:03.838Z</time></trkpt><trkpt lat="43.1117361" lon="12.7976993"><ele>488.0</ele><time>2026-04-12T13:48:04.836Z</time></trkpt><trkpt lat="43.1116229" lon="12.7978198"><ele>484.75</ele><time>2026-04-12T13:48:05.84Z</time></trkpt><trkpt lat="43.1115146" lon="12.7979523"><ele>481.5</ele><time>2026-04-12T13:48:06.834Z</time></trkpt><trkpt lat="43.1114038" lon="12.7980879"><ele>478.25</ele><time>2026-04-12T13:48:07.836Z</time></trkpt><trkpt lat="43.1112919" lon="12.7982231"><ele>475.0</ele><time>2026-04-12T13:48:08.836Z</time></trkpt><trkpt lat="43.1111825" lon="12.7983571"><ele>475.0</ele><time>2026-04-12T13:48:09.836Z</time></trkpt><trkpt lat="43.1110629" lon="12.7984802"><ele>475.0</ele><time>2026-04-12T13:48:10.839Z</time></trkpt><trkpt lat="43.1109322" lon="12.7985767"><ele>475.0</ele><time>2026-04-12T13:48:11.839Z</time></trkpt><trkpt lat="43.1107901" lon="12.7986369"><ele>475.0</ele><time>2026-04-12T13:48:12.839Z</time></trkpt><trkpt lat="43.1106444" lon="12.7986705"><ele>475.33333333333337</ele><time>2026-04-12T13:48:13.861Z</time></trkpt><trkpt lat="43.1105" lon="12.7987048"><ele>475.66666666666663</ele><time>2026-04-12T13:48:14.835Z</time></trkpt><trkpt lat="43.1103475" lon="12.7987506"><ele>476.0</ele><time>2026-04-12T13:48:15.845Z</time></trkpt><trkpt lat="43.1101979" lon="12.7987881"><ele>476.0</ele><time>2026-04-12T13:48:16.838Z</time></trkpt><trkpt lat="43.1100482" lon="12.7988298"><ele>476.0</ele><time>2026-04-12T13:48:17.825Z</time></trkpt><trkpt lat="43.1098894" lon="12.7988729"><ele>476.0</ele><time>2026-04-12T13:48:18.834Z</time></trkpt><trkpt lat="43.1097347" lon="12.7989155"><ele>475.0</ele><time>2026-04-12T13:48:19.838Z</time></trkpt><trkpt lat="43.1095753" lon="12.7989556"><ele>474.0</ele><time>2026-04-12T13:48:20.843Z</time></trkpt><trkpt lat="43.1094169" lon="12.7989957"><ele>473.0</ele><time>2026-04-12T13:48:21.837Z</time></trkpt><trkpt lat="43.1092657" lon="12.7990359"><ele>473.0</ele><time>2026-04-12T13:48:22.839Z</time></trkpt><trkpt lat="43.1091138" lon="12.7990737"><ele>473.0</ele><time>2026-04-12T13:48:23.84Z</time></trkpt><trkpt lat="43.1089662" lon="12.7991199"><ele>473.0</ele><time>2026-04-12T13:48:24.835Z</time></trkpt><trkpt lat="43.1088279" lon="12.7991759"><ele>471.0</ele><time>2026-04-12T13:48:25.848Z</time></trkpt><trkpt lat="43.1087037" lon="12.7992494"><ele>469.0</ele><time>2026-04-12T13:48:26.836Z</time></trkpt><trkpt lat="43.1085946" lon="12.7993526"><ele>467.0</ele><time>2026-04-12T13:48:27.839Z</time></trkpt><trkpt lat="43.1085114" lon="12.7995019"><ele>465.0</ele><time>2026-04-12T13:48:28.839Z</time></trkpt><trkpt lat="43.1084621" lon="12.7996814"><ele>465.0</ele><time>2026-04-12T13:48:29.842Z</time></trkpt><trkpt lat="43.1084277" lon="12.7998627"><ele>465.0</ele><time>2026-04-12T13:48:30.847Z</time></trkpt><trkpt lat="43.1083829" lon="12.8000162"><ele>465.0</ele><time>2026-04-12T13:48:31.831Z</time></trkpt><trkpt lat="43.1083058" lon="12.8001555"><ele>465.0</ele><time>2026-04-12T13:48:32.838Z</time></trkpt><trkpt lat="43.1082066" lon="12.8002417"><ele>464.5</ele><time>2026-04-12T13:48:33.847Z</time></trkpt><trkpt lat="43.1080952" lon="12.8002589"><ele>464.0</ele><time>2026-04-12T13:48:34.829Z</time></trkpt><trkpt lat="43.1079755" lon="12.8002316"><ele>463.5</ele><time>2026-04-12T13:48:35.836Z</time></trkpt><trkpt lat="43.107879" lon="12.8001341"><ele>463.0</ele><time>2026-04-12T13:48:36.835Z</time></trkpt><trkpt lat="43.1077897" lon="12.8000093"><ele>463.0</ele><time>2026-04-12T13:48:37.832Z</time></trkpt><trkpt lat="43.1076927" lon="12.7998833"><ele>463.0</ele><time>2026-04-12T13:48:38.831Z</time></trkpt><trkpt lat="43.1075953" lon="12.7997544"><ele>463.0</ele><time>2026-04-12T13:48:39.842Z</time></trkpt><trkpt lat="43.1074971" lon="12.7996245"><ele>463.0</ele><time>2026-04-12T13:48:40.843Z</time></trkpt><trkpt lat="43.1074004" lon="12.7995054"><ele>464.0</ele><time>2026-04-12T13:48:41.836Z</time></trkpt><trkpt lat="43.1072895" lon="12.7994161"><ele>465.0</ele><time>2026-04-12T13:48:42.846Z</time></trkpt><trkpt lat="43.1071622" lon="12.7993549"><ele>466.0</ele><time>2026-04-12T13:48:43.845Z</time></trkpt><trkpt lat="43.1070174" lon="12.7993363"><ele>467.0</ele><time>2026-04-12T13:48:44.845Z</time></trkpt><trkpt lat="43.1068776" lon="12.7993745"><ele>467.0</ele><time>2026-04-12T13:48:45.856Z</time></trkpt><trkpt lat="43.1067295" lon="12.7994172"><ele>467.0</ele><time>2026-04-12T13:48:46.846Z</time></trkpt><trkpt lat="43.106582" lon="12.7994706"><ele>467.0</ele><time>2026-04-12T13:48:47.838Z</time></trkpt><trkpt lat="43.1064311" lon="12.7995311"><ele>465.0</ele><time>2026-04-12T13:48:48.831Z</time></trkpt><trkpt lat="43.1062868" lon="12.799608"><ele>463.0</ele><time>2026-04-12T13:48:49.84Z</time></trkpt><trkpt lat="43.1061601" lon="12.7997147"><ele>461.0</ele><time>2026-04-12T13:48:50.837Z</time></trkpt><trkpt lat="43.1060438" lon="12.7998338"><ele>459.0</ele><time>2026-04-12T13:48:51.838Z</time></trkpt><trkpt lat="43.1059286" lon="12.7999536"><ele>459.0</ele><time>2026-04-12T13:48:52.836Z</time></trkpt><trkpt lat="43.1058109" lon="12.8000715"><ele>459.0</ele><time>2026-04-12T13:48:53.843Z</time></trkpt><trkpt lat="43.1056912" lon="12.8001962"><ele>459.0</ele><time>2026-04-12T13:48:54.837Z</time></trkpt><trkpt lat="43.1055705" lon="12.8003214"><ele>459.0</ele><time>2026-04-12T13:48:55.834Z</time></trkpt><trkpt lat="43.1054458" lon="12.8004537"><ele>456.66666666666663</ele><time>2026-04-12T13:48:56.829Z</time></trkpt><trkpt lat="43.1053206" lon="12.800579"><ele>454.3333333333333</ele><time>2026-04-12T13:48:57.844Z</time></trkpt><trkpt lat="43.1051921" lon="12.8007016"><ele>452.0</ele><time>2026-04-12T13:48:58.854Z</time></trkpt><trkpt lat="43.1050656" lon="12.8008263"><ele>452.0</ele><time>2026-04-12T13:48:59.84Z</time></trkpt><trkpt lat="43.1049397" lon="12.8009526"><ele>452.0</ele><time>2026-04-12T13:49:00.844Z</time></trkpt><trkpt lat="43.1048115" lon="12.8010671"><ele>452.0</ele><time>2026-04-12T13:49:01.846Z</time></trkpt><trkpt lat="43.1046837" lon="12.8011832"><ele>451.5</ele><time>2026-04-12T13:49:02.833Z</time></trkpt><trkpt lat="43.1045569" lon="12.8012965"><ele>451.0</ele><time>2026-04-12T13:49:03.834Z</time></trkpt><trkpt lat="43.1044339" lon="12.8014034"><ele>450.5</ele><time>2026-04-12T13:49:04.838Z</time></trkpt><trkpt lat="43.1043135" lon="12.8015037"><ele>450.0</ele><time>2026-04-12T13:49:05.839Z</time></trkpt><trkpt lat="43.104201" lon="12.8015924"><ele>450.0</ele><time>2026-04-12T13:49:06.844Z</time></trkpt><trkpt lat="43.1040895" lon="12.8016879"><ele>450.0</ele><time>2026-04-12T13:49:07.848Z</time></trkpt><trkpt lat="43.1039761" lon="12.8017888"><ele>450.0</ele><time>2026-04-12T13:49:08.843Z</time></trkpt><trkpt lat="43.1038611" lon="12.8018994"><ele>450.0</ele><time>2026-04-12T13:49:09.832Z</time></trkpt><trkpt lat="43.1037517" lon="12.802007"><ele>449.75</ele><time>2026-04-12T13:49:10.837Z</time></trkpt><trkpt lat="43.1036387" lon="12.8021249"><ele>449.5</ele><time>2026-04-12T13:49:11.838Z</time></trkpt><trkpt lat="43.1035304" lon="12.8022383"><ele>449.25</ele><time>2026-04-12T13:49:12.843Z</time></trkpt><trkpt lat="43.1034253" lon="12.8023696"><ele>449.0</ele><time>2026-04-12T13:49:13.837Z</time></trkpt><trkpt lat="43.1033183" lon="12.8025112"><ele>448.0</ele><time>2026-04-12T13:49:14.834Z</time></trkpt><trkpt lat="43.1032156" lon="12.8026618"><ele>447.0</ele><time>2026-04-12T13:49:15.838Z</time></trkpt><trkpt lat="43.1031174" lon="12.8028145"><ele>446.0</ele><time>2026-04-12T13:49:16.818Z</time></trkpt><trkpt lat="43.1030192" lon="12.8029654"><ele>445.0</ele><time>2026-04-12T13:49:17.823Z</time></trkpt><trkpt lat="43.1029291" lon="12.8031067"><ele>445.0</ele><time>2026-04-12T13:49:18.826Z</time></trkpt><trkpt lat="43.1028454" lon="12.8032473"><ele>445.0</ele><time>2026-04-12T13:49:19.838Z</time></trkpt><trkpt lat="43.1027716" lon="12.8033847"><ele>445.0</ele><time>2026-04-12T13:49:20.826Z</time></trkpt><trkpt lat="43.1027251" lon="12.8035286"><ele>445.0</ele><time>2026-04-12T13:49:21.832Z</time></trkpt><trkpt lat="43.1027101" lon="12.8036778"><ele>445.0</ele><time>2026-04-12T13:49:22.827Z</time></trkpt><trkpt lat="43.1027276" lon="12.8038163"><ele>445.0</ele><time>2026-04-12T13:49:23.837Z</time></trkpt><trkpt lat="43.1027835" lon="12.8039549"><ele>445.0</ele><time>2026-04-12T13:49:24.834Z</time></trkpt><trkpt lat="43.10286" lon="12.8040955"><ele>445.0</ele><time>2026-04-12T13:49:25.828Z</time></trkpt><trkpt lat="43.1029353" lon="12.8042301"><ele>445.25</ele><time>2026-04-12T13:49:26.836Z</time></trkpt><trkpt lat="43.1030134" lon="12.8043668"><ele>445.5</ele><time>2026-04-12T13:49:27.842Z</time></trkpt><trkpt lat="43.1030907" lon="12.8045132"><ele>445.75</ele><time>2026-04-12T13:49:28.838Z</time></trkpt><trkpt lat="43.1031691" lon="12.8046627"><ele>446.0</ele><time>2026-04-12T13:49:29.834Z</time></trkpt><trkpt lat="43.1032434" lon="12.8048149"><ele>446.0</ele><time>2026-04-12T13:49:30.838Z</time></trkpt><trkpt lat="43.103318" lon="12.8049724"><ele>446.0</ele><time>2026-04-12T13:49:31.855Z</time></trkpt><trkpt lat="43.10339" lon="12.8051354"><ele>446.0</ele><time>2026-04-12T13:49:32.826Z</time></trkpt><trkpt lat="43.1034568" lon="12.8053021"><ele>446.0</ele><time>2026-04-12T13:49:33.825Z</time></trkpt><trkpt lat="43.1035148" lon="12.805468"><ele>446.0</ele><time>2026-04-12T13:49:34.843Z</time></trkpt><trkpt lat="43.1035657" lon="12.80564"><ele>446.0</ele><time>2026-04-12T13:49:35.844Z</time></trkpt><trkpt lat="43.1036033" lon="12.8058124"><ele>446.0</ele><time>2026-04-12T13:49:36.829Z</time></trkpt><trkpt lat="43.1036404" lon="12.8059842"><ele>446.0</ele><time>2026-04-12T13:49:37.827Z</time></trkpt><trkpt lat="43.1036757" lon="12.8061663"><ele>446.25</ele><time>2026-04-12T13:49:38.833Z</time></trkpt><trkpt lat="43.103702" lon="12.8063516"><ele>446.5</ele><time>2026-04-12T13:49:39.823Z</time></trkpt><trkpt lat="43.1037141" lon="12.806548"><ele>446.75</ele><time>2026-04-12T13:49:40.834Z</time></trkpt><trkpt lat="43.1037076" lon="12.8067502"><ele>447.0</ele><time>2026-04-12T13:49:41.824Z</time></trkpt><trkpt lat="43.1036827" lon="12.8069536"><ele>447.33333333333337</ele><time>2026-04-12T13:49:42.826Z</time></trkpt><trkpt lat="43.1036503" lon="12.8071537"><ele>447.6666666666667</ele><time>2026-04-12T13:49:43.834Z</time></trkpt><trkpt lat="43.1036185" lon="12.8073622"><ele>448.0</ele><time>2026-04-12T13:49:44.834Z</time></trkpt><trkpt lat="43.1035869" lon="12.807578"><ele>449.0</ele><time>2026-04-12T13:49:45.843Z</time></trkpt><trkpt lat="43.1035553" lon="12.8077904"><ele>450.0</ele><time>2026-04-12T13:49:46.835Z</time></trkpt><trkpt lat="43.103526" lon="12.8079959"><ele>451.0</ele><time>2026-04-12T13:49:47.837Z</time></trkpt><trkpt lat="43.1035032" lon="12.8081903"><ele>451.0</ele><time>2026-04-12T13:49:48.834Z</time></trkpt><trkpt lat="43.1034963" lon="12.8083805"><ele>451.0</ele><time>2026-04-12T13:49:49.824Z</time></trkpt><trkpt lat="43.1035253" lon="12.8085673"><ele>451.0</ele><time>2026-04-12T13:49:50.83Z</time></trkpt><trkpt lat="43.1035908" lon="12.8087501"><ele>451.0</ele><time>2026-04-12T13:49:51.837Z</time></trkpt><trkpt lat="43.1036695" lon="12.8089256"><ele>451.0</ele><time>2026-04-12T13:49:52.834Z</time></trkpt><trkpt lat="43.1037529" lon="12.8091037"><ele>451.0</ele><time>2026-04-12T13:49:53.837Z</time></trkpt><trkpt lat="43.1038289" lon="12.8092809"><ele>451.0</ele><time>2026-04-12T13:49:54.835Z</time></trkpt><trkpt lat="43.1038865" lon="12.8094652"><ele>451.0</ele><time>2026-04-12T13:49:55.85Z</time></trkpt><trkpt lat="43.1039125" lon="12.8096579"><ele>451.0</ele><time>2026-04-12T13:49:56.827Z</time></trkpt><trkpt lat="43.1039151" lon="12.8098589"><ele>451.0</ele><time>2026-04-12T13:49:57.827Z</time></trkpt><trkpt lat="43.1038985" lon="12.810081"><ele>451.6666666666667</ele><time>2026-04-12T13:49:58.829Z</time></trkpt><trkpt lat="43.1038744" lon="12.8103044"><ele>452.33333333333337</ele><time>2026-04-12T13:49:59.829Z</time></trkpt><trkpt lat="43.1038466" lon="12.8105355"><ele>453.0</ele><time>2026-04-12T13:50:00.828Z</time></trkpt><trkpt lat="43.1038118" lon="12.8107624"><ele>455.0</ele><time>2026-04-12T13:50:01.826Z</time></trkpt><trkpt lat="43.1037761" lon="12.810996"><ele>457.0</ele><time>2026-04-12T13:50:02.833Z</time></trkpt><trkpt lat="43.1037456" lon="12.8112365"><ele>459.0</ele><time>2026-04-12T13:50:03.835Z</time></trkpt><trkpt lat="43.1037119" lon="12.8114724"><ele>459.0</ele><time>2026-04-12T13:50:04.828Z</time></trkpt><trkpt lat="43.1036803" lon="12.8117066"><ele>459.0</ele><time>2026-04-12T13:50:05.835Z</time></trkpt><trkpt lat="43.1036496" lon="12.8119347"><ele>459.0</ele><time>2026-04-12T13:50:06.827Z</time></trkpt><trkpt lat="43.1036169" lon="12.8121647"><ele>460.33333333333337</ele><time>2026-04-12T13:50:07.845Z</time></trkpt><trkpt lat="43.1035818" lon="12.8123945"><ele>461.6666666666667</ele><time>2026-04-12T13:50:08.837Z</time></trkpt><trkpt lat="43.1035515" lon="12.8126282"><ele>463.0</ele><time>2026-04-12T13:50:09.83Z</time></trkpt><trkpt lat="43.1035196" lon="12.8128606"><ele>463.0</ele><time>2026-04-12T13:50:10.827Z</time></trkpt><trkpt lat="43.1034868" lon="12.813091"><ele>463.0</ele><time>2026-04-12T13:50:11.834Z</time></trkpt><trkpt lat="43.1034532" lon="12.8133214"><ele>463.0</ele><time>2026-04-12T13:50:12.831Z</time></trkpt><trkpt lat="43.1034253" lon="12.8135516"><ele>464.0</ele><time>2026-04-12T13:50:13.833Z</time></trkpt><trkpt lat="43.1034067" lon="12.813772"><ele>465.0</ele><time>2026-04-12T13:50:14.838Z</time></trkpt><trkpt lat="43.1034109" lon="12.8139809"><ele>466.0</ele><time>2026-04-12T13:50:15.821Z</time></trkpt><trkpt lat="43.103432" lon="12.8141757"><ele>465.75</ele><time>2026-04-12T13:50:16.825Z</time></trkpt><trkpt lat="43.1034692" lon="12.8143711"><ele>465.5</ele><time>2026-04-12T13:50:17.835Z</time></trkpt><trkpt lat="43.1035111" lon="12.8145633"><ele>465.25</ele><time>2026-04-12T13:50:18.823Z</time></trkpt><trkpt lat="43.1035456" lon="12.8147544"><ele>465.0</ele><time>2026-04-12T13:50:19.829Z</time></trkpt><trkpt lat="43.1035717" lon="12.8149505"><ele>465.66666666666663</ele><time>2026-04-12T13:50:20.824Z</time></trkpt><trkpt lat="43.1035816" lon="12.8151559"><ele>466.3333333333333</ele><time>2026-04-12T13:50:21.83Z</time></trkpt><trkpt lat="43.1035775" lon="12.815363"><ele>467.0</ele><time>2026-04-12T13:50:22.827Z</time></trkpt><trkpt lat="43.1035683" lon="12.8155715"><ele>467.0</ele><time>2026-04-12T13:50:23.832Z</time></trkpt><trkpt lat="43.1035586" lon="12.8157811"><ele>467.0</ele><time>2026-04-12T13:50:24.821Z</time></trkpt><trkpt lat="43.1035512" lon="12.8159843"><ele>467.0</ele><time>2026-04-12T13:50:25.829Z</time></trkpt><trkpt lat="43.1035453" lon="12.8161965"><ele>468.3333333333333</ele><time>2026-04-12T13:50:26.826Z</time></trkpt><trkpt lat="43.1035354" lon="12.816408"><ele>469.66666666666663</ele><time>2026-04-12T13:50:27.825Z</time></trkpt><trkpt lat="43.1035114" lon="12.8166205"><ele>471.0</ele><time>2026-04-12T13:50:28.815Z</time></trkpt><trkpt lat="43.1034696" lon="12.81683"><ele>472.66666666666663</ele><time>2026-04-12T13:50:29.838Z</time></trkpt><trkpt lat="43.1034132" lon="12.817041"><ele>474.3333333333333</ele><time>2026-04-12T13:50:30.822Z</time></trkpt><trkpt lat="43.1033528" lon="12.81725"><ele>476.0</ele><time>2026-04-12T13:50:31.826Z</time></trkpt><trkpt lat="43.1032864" lon="12.8174456"><ele>473.0</ele><time>2026-04-12T13:50:32.828Z</time></trkpt><trkpt lat="43.1032154" lon="12.8176321"><ele>470.0</ele><time>2026-04-12T13:50:33.829Z</time></trkpt><trkpt lat="43.1031412" lon="12.8178142"><ele>467.0</ele><time>2026-04-12T13:50:34.826Z</time></trkpt><trkpt lat="43.1030605" lon="12.8179894"><ele>466.66666666666663</ele><time>2026-04-12T13:50:35.829Z</time></trkpt><trkpt lat="43.10298" lon="12.8181631"><ele>466.33333333333337</ele><time>2026-04-12T13:50:36.826Z</time></trkpt><trkpt lat="43.1028944" lon="12.8183365"><ele>466.0</ele><time>2026-04-12T13:50:37.824Z</time></trkpt><trkpt lat="43.1028145" lon="12.8185206"><ele>467.33333333333337</ele><time>2026-04-12T13:50:38.834Z</time></trkpt><trkpt lat="43.1027423" lon="12.8187165"><ele>468.66666666666663</ele><time>2026-04-12T13:50:39.834Z</time></trkpt><trkpt lat="43.1026791" lon="12.8189207"><ele>470.0</ele><time>2026-04-12T13:50:40.823Z</time></trkpt><trkpt lat="43.1026216" lon="12.8191372"><ele>472.0</ele><time>2026-04-12T13:50:41.818Z</time></trkpt><trkpt lat="43.1025645" lon="12.8193654"><ele>474.0</ele><time>2026-04-12T13:50:42.825Z</time></trkpt><trkpt lat="43.1025131" lon="12.8195918"><ele>476.0</ele><time>2026-04-12T13:50:43.834Z</time></trkpt><trkpt lat="43.1024607" lon="12.8198196"><ele>476.0</ele><time>2026-04-12T13:50:44.835Z</time></trkpt><trkpt lat="43.1024185" lon="12.8200538"><ele>476.0</ele><time>2026-04-12T13:50:45.83Z</time></trkpt><trkpt lat="43.1023874" lon="12.8202879"><ele>476.0</ele><time>2026-04-12T13:50:46.829Z</time></trkpt><trkpt lat="43.1023713" lon="12.8205192"><ele>476.3333333333333</ele><time>2026-04-12T13:50:47.836Z</time></trkpt><trkpt lat="43.1023628" lon="12.820736"><ele>476.66666666666663</ele><time>2026-04-12T13:50:48.832Z</time></trkpt><trkpt lat="43.1023703" lon="12.820945"><ele>477.0</ele><time>2026-04-12T13:50:49.833Z</time></trkpt><trkpt lat="43.1023995" lon="12.8211488"><ele>475.66666666666663</ele><time>2026-04-12T13:50:50.833Z</time></trkpt><trkpt lat="43.1024522" lon="12.8213453"><ele>474.3333333333333</ele><time>2026-04-12T13:50:51.834Z</time></trkpt><trkpt lat="43.1025313" lon="12.8215228"><ele>473.0</ele><time>2026-04-12T13:50:52.831Z</time></trkpt><trkpt lat="43.1026157" lon="12.8216953"><ele>473.0</ele><time>2026-04-12T13:50:53.835Z</time></trkpt><trkpt lat="43.1027107" lon="12.8218786"><ele>473.0</ele><time>2026-04-12T13:50:54.832Z</time></trkpt><trkpt lat="43.102799" lon="12.8220746"><ele>473.0</ele><time>2026-04-12T13:50:55.83Z</time></trkpt><trkpt lat="43.1028793" lon="12.8222798"><ele>473.0</ele><time>2026-04-12T13:50:56.824Z</time></trkpt><trkpt lat="43.1029513" lon="12.8224921"><ele>473.0</ele><time>2026-04-12T13:50:57.827Z</time></trkpt><trkpt lat="43.1030143" lon="12.8227096"><ele>473.0</ele><time>2026-04-12T13:50:58.836Z</time></trkpt><trkpt lat="43.1030731" lon="12.8229259"><ele>472.66666666666663</ele><time>2026-04-12T13:50:59.824Z</time></trkpt><trkpt lat="43.1031305" lon="12.8231448"><ele>472.33333333333337</ele><time>2026-04-12T13:51:00.831Z</time></trkpt><trkpt lat="43.1031836" lon="12.8233698"><ele>472.0</ele><time>2026-04-12T13:51:01.828Z</time></trkpt><trkpt lat="43.1032276" lon="12.8235969"><ele>474.33333333333337</ele><time>2026-04-12T13:51:02.83Z</time></trkpt><trkpt lat="43.1032599" lon="12.8238311"><ele>476.66666666666663</ele><time>2026-04-12T13:51:03.832Z</time></trkpt><trkpt lat="43.1032895" lon="12.8240676"><ele>479.0</ele><time>2026-04-12T13:51:04.833Z</time></trkpt><trkpt lat="43.1033075" lon="12.8243001"><ele>478.0</ele><time>2026-04-12T13:51:05.823Z</time></trkpt><trkpt lat="43.1033223" lon="12.8245294"><ele>477.0</ele><time>2026-04-12T13:51:06.827Z</time></trkpt><trkpt lat="43.1033382" lon="12.8247622"><ele>476.0</ele><time>2026-04-12T13:51:07.836Z</time></trkpt><trkpt lat="43.1033525" lon="12.8249923"><ele>478.3333333333333</ele><time>2026-04-12T13:51:08.836Z</time></trkpt><trkpt lat="43.1033714" lon="12.8252237"><ele>480.66666666666663</ele><time>2026-04-12T13:51:09.843Z</time></trkpt><trkpt lat="43.1033852" lon="12.8254495"><ele>483.0</ele><time>2026-04-12T13:51:10.834Z</time></trkpt><trkpt lat="43.1033979" lon="12.8256648"><ele>483.0</ele><time>2026-04-12T13:51:11.816Z</time></trkpt><trkpt lat="43.1034098" lon="12.8258754"><ele>483.0</ele><time>2026-04-12T13:51:12.827Z</time></trkpt><trkpt lat="43.1034226" lon="12.8260881"><ele>483.0</ele><time>2026-04-12T13:51:13.832Z</time></trkpt><trkpt lat="43.1034451" lon="12.8262984"><ele>484.0</ele><time>2026-04-12T13:51:14.842Z</time></trkpt><trkpt lat="43.1034862" lon="12.8264972"><ele>485.0</ele><time>2026-04-12T13:51:15.824Z</time></trkpt><trkpt lat="43.103549" lon="12.826688"><ele>486.0</ele><time>2026-04-12T13:51:16.833Z</time></trkpt><trkpt lat="43.1036339" lon="12.8268575"><ele>486.0</ele><time>2026-04-12T13:51:17.822Z</time></trkpt><trkpt lat="43.1037408" lon="12.8269817"><ele>486.0</ele><time>2026-04-12T13:51:18.831Z</time></trkpt><trkpt lat="43.1038664" lon="12.8270493"><ele>486.0</ele><time>2026-04-12T13:51:19.829Z</time></trkpt><trkpt lat="43.1040014" lon="12.8270703"><ele>486.0</ele><time>2026-04-12T13:51:20.829Z</time></trkpt><trkpt lat="43.1041396" lon="12.8270594"><ele>488.5</ele><time>2026-04-12T13:51:21.829Z</time></trkpt><trkpt lat="43.1042721" lon="12.8270434"><ele>491.0</ele><time>2026-04-12T13:51:22.823Z</time></trkpt><trkpt lat="43.1044023" lon="12.8270365"><ele>493.5</ele><time>2026-04-12T13:51:23.829Z</time></trkpt><trkpt lat="43.1045186" lon="12.8270656"><ele>496.0</ele><time>2026-04-12T13:51:24.831Z</time></trkpt><trkpt lat="43.1046014" lon="12.8271379"><ele>496.00000000000006</ele><time>2026-04-12T13:51:25.828Z</time></trkpt><trkpt lat="43.1046414" lon="12.8272381"><ele>496.0</ele><time>2026-04-12T13:51:26.831Z</time></trkpt><trkpt lat="43.1046298" lon="12.8273516"><ele>496.0</ele><time>2026-04-12T13:51:27.828Z</time></trkpt><trkpt lat="43.1045804" lon="12.8274488"><ele>496.0</ele><time>2026-04-12T13:51:28.83Z</time></trkpt><trkpt lat="43.1045046" lon="12.8275185"><ele>496.00000000000006</ele><time>2026-04-12T13:51:29.822Z</time></trkpt><trkpt lat="43.1044125" lon="12.8275763"><ele>496.0</ele><time>2026-04-12T13:51:30.833Z</time></trkpt><trkpt lat="43.1043308" lon="12.8276572"><ele>497.75</ele><time>2026-04-12T13:51:31.826Z</time></trkpt><trkpt lat="43.1042456" lon="12.8277689"><ele>499.5</ele><time>2026-04-12T13:51:32.826Z</time></trkpt><trkpt lat="43.1041811" lon="12.8279197"><ele>501.25</ele><time>2026-04-12T13:51:33.824Z</time></trkpt><trkpt lat="43.1041333" lon="12.8280931"><ele>503.0</ele><time>2026-04-12T13:51:34.825Z</time></trkpt><trkpt lat="43.1041123" lon="12.828285"><ele>502.5</ele><time>2026-04-12T13:51:35.828Z</time></trkpt><trkpt lat="43.1041192" lon="12.8284803"><ele>502.0</ele><time>2026-04-12T13:51:36.829Z</time></trkpt><trkpt lat="43.1041585" lon="12.8286613"><ele>501.5</ele><time>2026-04-12T13:51:37.832Z</time></trkpt><trkpt lat="43.1042412" lon="12.8288303"><ele>501.0</ele><time>2026-04-12T13:51:38.83Z</time></trkpt><trkpt lat="43.1043571" lon="12.8289681"><ele>501.0</ele><time>2026-04-12T13:51:39.829Z</time></trkpt><trkpt lat="43.1044888" lon="12.8291006"><ele>501.0</ele><time>2026-04-12T13:51:40.834Z</time></trkpt><trkpt lat="43.1046176" lon="12.829238"><ele>501.0</ele><time>2026-04-12T13:51:41.835Z</time></trkpt><trkpt lat="43.1047418" lon="12.8293657"><ele>499.33333333333337</ele><time>2026-04-12T13:51:42.827Z</time></trkpt><trkpt lat="43.1048581" lon="12.8295003"><ele>497.6666666666667</ele><time>2026-04-12T13:51:43.834Z</time></trkpt><trkpt lat="43.1049771" lon="12.829636"><ele>496.0</ele><time>2026-04-12T13:51:44.819Z</time></trkpt><trkpt lat="43.1050974" lon="12.8297696"><ele>496.75</ele><time>2026-04-12T13:51:45.835Z</time></trkpt><trkpt lat="43.1052107" lon="12.8298968"><ele>497.5</ele><time>2026-04-12T13:51:46.833Z</time></trkpt><trkpt lat="43.1053214" lon="12.8300254"><ele>498.25</ele><time>2026-04-12T13:51:47.822Z</time></trkpt><trkpt lat="43.105427" lon="12.8301492"><ele>499.0</ele><time>2026-04-12T13:51:48.826Z</time></trkpt><trkpt lat="43.1055333" lon="12.8302686"><ele>499.0</ele><time>2026-04-12T13:51:49.828Z</time></trkpt><trkpt lat="43.1056394" lon="12.8303715"><ele>499.0</ele><time>2026-04-12T13:51:50.823Z</time></trkpt><trkpt lat="43.1057553" lon="12.8304694"><ele>499.0</ele><time>2026-04-12T13:51:51.827Z</time></trkpt><trkpt lat="43.1058858" lon="12.8305397"><ele>499.0</ele><time>2026-04-12T13:51:52.83Z</time></trkpt><trkpt lat="43.1060305" lon="12.83058"><ele>505.33333333333337</ele><time>2026-04-12T13:51:53.823Z</time></trkpt><trkpt lat="43.106192" lon="12.8305952"><ele>511.66666666666663</ele><time>2026-04-12T13:51:54.821Z</time></trkpt><trkpt lat="43.1063612" lon="12.8306029"><ele>518.0</ele><time>2026-04-12T13:51:55.824Z</time></trkpt><trkpt lat="43.1065308" lon="12.830629"><ele>523.6666666666666</ele><time>2026-04-12T13:51:56.818Z</time></trkpt><trkpt lat="43.1067069" lon="12.8306699"><ele>529.3333333333334</ele><time>2026-04-12T13:51:57.825Z</time></trkpt><trkpt lat="43.1068868" lon="12.8307095"><ele>535.0</ele><time>2026-04-12T13:51:58.843Z</time></trkpt><trkpt lat="43.1070702" lon="12.8307465"><ele>535.0</ele><time>2026-04-12T13:51:59.827Z</time></trkpt><trkpt lat="43.107254" lon="12.8307844"><ele>535.0</ele><time>2026-04-12T13:52:00.833Z</time></trkpt><trkpt lat="43.1074342" lon="12.8308326"><ele>535.0</ele><time>2026-04-12T13:52:01.838Z</time></trkpt><trkpt lat="43.107613" lon="12.8308962"><ele>528.0</ele><time>2026-04-12T13:52:02.826Z</time></trkpt><trkpt lat="43.1077828" lon="12.8309948"><ele>521.0</ele><time>2026-04-12T13:52:03.827Z</time></trkpt><trkpt lat="43.1079377" lon="12.8311123"><ele>514.0</ele><time>2026-04-12T13:52:04.826Z</time></trkpt><trkpt lat="43.1080854" lon="12.8312342"><ele>514.0</ele><time>2026-04-12T13:52:05.825Z</time></trkpt><trkpt lat="43.1082314" lon="12.8313536"><ele>514.0</ele><time>2026-04-12T13:52:06.823Z</time></trkpt><trkpt lat="43.1083801" lon="12.8314704"><ele>514.0</ele><time>2026-04-12T13:52:07.836Z</time></trkpt><trkpt lat="43.1085322" lon="12.8315935"><ele>513.6666666666667</ele><time>2026-04-12T13:52:08.822Z</time></trkpt><trkpt lat="43.1086808" lon="12.8317188"><ele>513.3333333333334</ele><time>2026-04-12T13:52:09.829Z</time></trkpt><trkpt lat="43.1088293" lon="12.8318562"><ele>513.0</ele><time>2026-04-12T13:52:10.83Z</time></trkpt><trkpt lat="43.1089781" lon="12.8320043"><ele>526.3333333333334</ele><time>2026-04-12T13:52:11.829Z</time></trkpt><trkpt lat="43.1091253" lon="12.8321576"><ele>539.6666666666667</ele><time>2026-04-12T13:52:12.83Z</time></trkpt><trkpt lat="43.1092651" lon="12.8323198"><ele>553.0</ele><time>2026-04-12T13:52:13.824Z</time></trkpt><trkpt lat="43.1094052" lon="12.8324856"><ele>547.0</ele><time>2026-04-12T13:52:14.829Z</time></trkpt><trkpt lat="43.1095398" lon="12.8326612"><ele>541.0</ele><time>2026-04-12T13:52:15.824Z</time></trkpt><trkpt lat="43.1096593" lon="12.8328419"><ele>535.0</ele><time>2026-04-12T13:52:16.818Z</time></trkpt><trkpt lat="43.109751" lon="12.833033"><ele>535.0</ele><time>2026-04-12T13:52:17.82Z</time></trkpt><trkpt lat="43.1098056" lon="12.8332482"><ele>535.0</ele><time>2026-04-12T13:52:18.82Z</time></trkpt><trkpt lat="43.1098263" lon="12.8334812"><ele>535.0</ele><time>2026-04-12T13:52:19.822Z</time></trkpt><trkpt lat="43.1098312" lon="12.8337204"><ele>537.3333333333334</ele><time>2026-04-12T13:52:20.824Z</time></trkpt><trkpt lat="43.1098248" lon="12.833951"><ele>539.6666666666666</ele><time>2026-04-12T13:52:21.82Z</time></trkpt><trkpt lat="43.1098126" lon="12.834192"><ele>542.0</ele><time>2026-04-12T13:52:22.827Z</time></trkpt><trkpt lat="43.1098021" lon="12.8344358"><ele>547.6666666666666</ele><time>2026-04-12T13:52:23.819Z</time></trkpt><trkpt lat="43.1097979" lon="12.834677"><ele>553.3333333333334</ele><time>2026-04-12T13:52:24.834Z</time></trkpt><trkpt lat="43.1097982" lon="12.8349145"><ele>559.0</ele><time>2026-04-12T13:52:25.827Z</time></trkpt><trkpt lat="43.1098045" lon="12.8351547"><ele>562.6666666666667</ele><time>2026-04-12T13:52:26.821Z</time></trkpt><trkpt lat="43.1098112" lon="12.8353855"><ele>566.3333333333334</ele><time>2026-04-12T13:52:27.819Z</time></trkpt><trkpt lat="43.1098264" lon="12.8356202"><ele>570.0</ele><time>2026-04-12T13:52:28.82Z</time></trkpt><trkpt lat="43.1098387" lon="12.8358478"><ele>575.0</ele><time>2026-04-12T13:52:29.833Z</time></trkpt><trkpt lat="43.1098523" lon="12.8360762"><ele>580.0</ele><time>2026-04-12T13:52:30.836Z</time></trkpt><trkpt lat="43.1098632" lon="12.8363057"><ele>585.0</ele><time>2026-04-12T13:52:31.827Z</time></trkpt><trkpt lat="43.1098741" lon="12.836533"><ele>585.0</ele><time>2026-04-12T13:52:32.824Z</time></trkpt><trkpt lat="43.109882" lon="12.8367551"><ele>585.0</ele><time>2026-04-12T13:52:33.829Z</time></trkpt><trkpt lat="43.109897" lon="12.8369736"><ele>585.0</ele><time>2026-04-12T13:52:34.828Z</time></trkpt><trkpt lat="43.109935" lon="12.8371789"><ele>588.0</ele><time>2026-04-12T13:52:35.821Z</time></trkpt><trkpt lat="43.1099996" lon="12.8373662"><ele>591.0</ele><time>2026-04-12T13:52:36.823Z</time></trkpt><trkpt lat="43.1100952" lon="12.8375495"><ele>594.0</ele><time>2026-04-12T13:52:37.824Z</time></trkpt><trkpt lat="43.110212" lon="12.8377206"><ele>595.0</ele><time>2026-04-12T13:52:38.821Z</time></trkpt><trkpt lat="43.1103454" lon="12.8378812"><ele>596.0</ele><time>2026-04-12T13:52:39.82Z</time></trkpt><trkpt lat="43.1104767" lon="12.838049"><ele>597.0</ele><time>2026-04-12T13:52:40.835Z</time></trkpt><trkpt lat="43.1106047" lon="12.8382426"><ele>597.0</ele><time>2026-04-12T13:52:41.829Z</time></trkpt><trkpt lat="43.1107229" lon="12.8384647"><ele>597.0</ele><time>2026-04-12T13:52:42.819Z</time></trkpt><trkpt lat="43.1108274" lon="12.8386937"><ele>597.0</ele><time>2026-04-12T13:52:43.835Z</time></trkpt><trkpt lat="43.1109222" lon="12.8389377"><ele>599.0</ele><time>2026-04-12T13:52:44.829Z</time></trkpt><trkpt lat="43.1110133" lon="12.8391938"><ele>601.0</ele><time>2026-04-12T13:52:45.831Z</time></trkpt><trkpt lat="43.1110966" lon="12.839447"><ele>603.0</ele><time>2026-04-12T13:52:46.838Z</time></trkpt><trkpt lat="43.1111713" lon="12.8396933"><ele>603.0</ele><time>2026-04-12T13:52:47.823Z</time></trkpt><trkpt lat="43.1112322" lon="12.8399255"><ele>603.0</ele><time>2026-04-12T13:52:48.83Z</time></trkpt><trkpt lat="43.1112808" lon="12.8401478"><ele>603.0</ele><time>2026-04-12T13:52:49.819Z</time></trkpt><trkpt lat="43.1113177" lon="12.8403754"><ele>604.6666666666666</ele><time>2026-04-12T13:52:50.825Z</time></trkpt><trkpt lat="43.1113332" lon="12.8406007"><ele>606.3333333333333</ele><time>2026-04-12T13:52:51.826Z</time></trkpt><trkpt lat="43.1113229" lon="12.840822"><ele>608.0</ele><time>2026-04-12T13:52:52.83Z</time></trkpt><trkpt lat="43.1112919" lon="12.8410397"><ele>609.3333333333333</ele><time>2026-04-12T13:52:53.83Z</time></trkpt><trkpt lat="43.1112433" lon="12.8412547"><ele>610.6666666666666</ele><time>2026-04-12T13:52:54.818Z</time></trkpt><trkpt lat="43.1111891" lon="12.8414746"><ele>612.0</ele><time>2026-04-12T13:52:55.827Z</time></trkpt><trkpt lat="43.1111389" lon="12.8417009"><ele>612.0</ele><time>2026-04-12T13:52:56.82Z</time></trkpt><trkpt lat="43.1110891" lon="12.8419252"><ele>612.0</ele><time>2026-04-12T13:52:57.825Z</time></trkpt><trkpt lat="43.1110437" lon="12.8421417"><ele>612.0</ele><time>2026-04-12T13:52:58.819Z</time></trkpt><trkpt lat="43.1110059" lon="12.8423417"><ele>612.0</ele><time>2026-04-12T13:52:59.826Z</time></trkpt><trkpt lat="43.1109811" lon="12.842536"><ele>612.0</ele><time>2026-04-12T13:53:00.83Z</time></trkpt><trkpt lat="43.1109673" lon="12.8427261"><ele>612.0</ele><time>2026-04-12T13:53:01.834Z</time></trkpt><trkpt lat="43.1109629" lon="12.8429217"><ele>612.0</ele><time>2026-04-12T13:53:02.824Z</time></trkpt><trkpt lat="43.1109637" lon="12.8431156"><ele>611.75</ele><time>2026-04-12T13:53:03.821Z</time></trkpt><trkpt lat="43.1109664" lon="12.8433128"><ele>611.5</ele><time>2026-04-12T13:53:04.82Z</time></trkpt><trkpt lat="43.1109735" lon="12.8435039"><ele>611.25</ele><time>2026-04-12T13:53:05.826Z</time></trkpt><trkpt lat="43.110982" lon="12.8436853"><ele>611.0</ele><time>2026-04-12T13:53:06.835Z</time></trkpt><trkpt lat="43.1109937" lon="12.8438445"><ele>611.0</ele><time>2026-04-12T13:53:07.831Z</time></trkpt><trkpt lat="43.1110069" lon="12.8439688"><ele>611.0</ele><time>2026-04-12T13:53:08.832Z</time></trkpt><trkpt lat="43.1110195" lon="12.8440729"><ele>611.0</ele><time>2026-04-12T13:53:09.834Z</time></trkpt><trkpt lat="43.1110351" lon="12.8441697"><ele>611.0</ele><time>2026-04-12T13:53:10.836Z</time></trkpt><trkpt lat="43.1110545" lon="12.8442666"><ele>611.0</ele><time>2026-04-12T13:53:11.83Z</time></trkpt><trkpt lat="43.1110788" lon="12.8443671"><ele>611.0</ele><time>2026-04-12T13:53:12.822Z</time></trkpt><trkpt lat="43.1111049" lon="12.8444738"><ele>611.2</ele><time>2026-04-12T13:53:13.835Z</time></trkpt><trkpt lat="43.1111291" lon="12.8445857"><ele>611.4000000000001</ele><time>2026-04-12T13:53:14.822Z</time></trkpt><trkpt lat="43.111155" lon="12.8447017"><ele>611.6</ele><time>2026-04-12T13:53:15.83Z</time></trkpt><trkpt lat="43.1111821" lon="12.8448193"><ele>611.8000000000001</ele><time>2026-04-12T13:53:16.829Z</time></trkpt><trkpt lat="43.1112067" lon="12.8449428"><ele>612.0</ele><time>2026-04-12T13:53:17.826Z</time></trkpt><trkpt lat="43.1112263" lon="12.8450669"><ele>612.8000000000001</ele><time>2026-04-12T13:53:18.824Z</time></trkpt><trkpt lat="43.111244" lon="12.8451992"><ele>613.6</ele><time>2026-04-12T13:53:19.819Z</time></trkpt><trkpt lat="43.1112547" lon="12.8453404"><ele>614.4000000000001</ele><time>2026-04-12T13:53:20.842Z</time></trkpt><trkpt lat="43.1112608" lon="12.8454944"><ele>615.2</ele><time>2026-04-12T13:53:21.834Z</time></trkpt><trkpt lat="43.111261" lon="12.8456497"><ele>616.0</ele><time>2026-04-12T13:53:22.827Z</time></trkpt><trkpt lat="43.1112572" lon="12.8457833"><ele>616.0</ele><time>2026-04-12T13:53:23.834Z</time></trkpt><trkpt lat="43.1112534" lon="12.8459048"><ele>616.0</ele><time>2026-04-12T13:53:24.831Z</time></trkpt><trkpt lat="43.1112488" lon="12.8460173"><ele>616.0</ele><time>2026-04-12T13:53:25.834Z</time></trkpt><trkpt lat="43.1112483" lon="12.8461086"><ele>616.0</ele><time>2026-04-12T13:53:26.828Z</time></trkpt><trkpt lat="43.1112681" lon="12.8462429"><ele>616.0</ele><time>2026-04-12T13:53:28.824Z</time></trkpt><trkpt lat="43.1112932" lon="12.8461483"><ele>616.0</ele><time>2026-04-12T13:53:32.83Z</time></trkpt><trkpt lat="43.1112721" lon="12.846024"><ele>616.0</ele><time>2026-04-12T13:53:34.835Z</time></trkpt><trkpt lat="43.1112836" lon="12.8459207"><ele>616.0</ele><time>2026-04-12T13:53:35.82Z</time></trkpt><trkpt lat="43.111292" lon="12.8457938"><ele>616.0</ele><time>2026-04-12T13:53:36.831Z</time></trkpt><trkpt lat="43.1112953" lon="12.8456503"><ele>616.0</ele><time>2026-04-12T13:53:37.828Z</time></trkpt><trkpt lat="43.1112908" lon="12.8454833"><ele>616.0</ele><time>2026-04-12T13:53:38.826Z</time></trkpt><trkpt lat="43.1112754" lon="12.8452884"><ele>614.6666666666667</ele><time>2026-04-12T13:53:39.828Z</time></trkpt><trkpt lat="43.1112483" lon="12.8450819"><ele>613.3333333333334</ele><time>2026-04-12T13:53:40.834Z</time></trkpt><trkpt lat="43.1112077" lon="12.8448563"><ele>612.0</ele><time>2026-04-12T13:53:41.835Z</time></trkpt><trkpt lat="43.111161" lon="12.8446277"><ele>612.0</ele><time>2026-04-12T13:53:42.818Z</time></trkpt><trkpt lat="43.1111029" lon="12.8443847"><ele>612.0</ele><time>2026-04-12T13:53:43.825Z</time></trkpt><trkpt lat="43.1110532" lon="12.8441569"><ele>612.0</ele><time>2026-04-12T13:53:44.83Z</time></trkpt><trkpt lat="43.1110229" lon="12.843944"><ele>611.75</ele><time>2026-04-12T13:53:45.829Z</time></trkpt><trkpt lat="43.1110113" lon="12.8437372"><ele>611.5</ele><time>2026-04-12T13:53:46.833Z</time></trkpt><trkpt lat="43.1109993" lon="12.8435461"><ele>611.25</ele><time>2026-04-12T13:53:47.84Z</time></trkpt><trkpt lat="43.1109874" lon="12.8433681"><ele>611.0</ele><time>2026-04-12T13:53:48.83Z</time></trkpt><trkpt lat="43.1109775" lon="12.8431985"><ele>611.2</ele><time>2026-04-12T13:53:49.823Z</time></trkpt><trkpt lat="43.1109708" lon="12.8430353"><ele>611.4000000000001</ele><time>2026-04-12T13:53:50.839Z</time></trkpt><trkpt lat="43.110968" lon="12.8428894"><ele>611.6</ele><time>2026-04-12T13:53:51.819Z</time></trkpt><trkpt lat="43.1109686" lon="12.8427564"><ele>611.8000000000001</ele><time>2026-04-12T13:53:52.828Z</time></trkpt><trkpt lat="43.1109745" lon="12.8426323"><ele>612.0</ele><time>2026-04-12T13:53:53.827Z</time></trkpt><trkpt lat="43.1109826" lon="12.8425173"><ele>612.0</ele><time>2026-04-12T13:53:54.819Z</time></trkpt><trkpt lat="43.1110025" lon="12.8423789"><ele>612.0</ele><time>2026-04-12T13:53:56.833Z</time></trkpt><trkpt lat="43.111068" lon="12.8423674"><ele>612.0</ele><time>2026-04-12T13:54:00.826Z</time></trkpt><trkpt lat="43.1110981" lon="12.842464"><ele>612.0</ele><time>2026-04-12T13:54:03.824Z</time></trkpt><trkpt lat="43.1111419" lon="12.8425795"><ele>612.0</ele><time>2026-04-12T13:54:05.84Z</time></trkpt><trkpt lat="43.1112428" lon="12.8426668"><ele>611.4</ele><time>2026-04-12T13:54:07.823Z</time></trkpt><trkpt lat="43.111318" lon="12.84268"><ele>610.8000000000001</ele><time>2026-04-12T13:54:08.822Z</time></trkpt><trkpt lat="43.111404" lon="12.8426901"><ele>610.2</ele><time>2026-04-12T13:54:09.824Z</time></trkpt><trkpt lat="43.111498" lon="12.8427017"><ele>609.6</ele><time>2026-04-12T13:54:10.829Z</time></trkpt><trkpt lat="43.1115968" lon="12.8427158"><ele>609.0</ele><time>2026-04-12T13:54:11.821Z</time></trkpt><trkpt lat="43.1117085" lon="12.8427035"><ele>612.0</ele><time>2026-04-12T13:54:12.824Z</time></trkpt><trkpt lat="43.111826" lon="12.8426646"><ele>615.0</ele><time>2026-04-12T13:54:13.823Z</time></trkpt><trkpt lat="43.1119454" lon="12.8426137"><ele>618.0</ele><time>2026-04-12T13:54:14.826Z</time></trkpt><trkpt lat="43.1120628" lon="12.8425759"><ele>621.0</ele><time>2026-04-12T13:54:15.838Z</time></trkpt><trkpt lat="43.1121807" lon="12.84254"><ele>622.25</ele><time>2026-04-12T13:54:16.818Z</time></trkpt><trkpt lat="43.1122978" lon="12.8425214"><ele>623.5</ele><time>2026-04-12T13:54:17.826Z</time></trkpt><trkpt lat="43.1124116" lon="12.842523"><ele>624.75</ele><time>2026-04-12T13:54:18.828Z</time></trkpt><trkpt lat="43.112527" lon="12.842528"><ele>626.0</ele><time>2026-04-12T13:54:19.826Z</time></trkpt><trkpt lat="43.1126445" lon="12.8425491"><ele>628.75</ele><time>2026-04-12T13:54:20.824Z</time></trkpt><trkpt lat="43.112765" lon="12.8425504"><ele>631.5</ele><time>2026-04-12T13:54:21.825Z</time></trkpt><trkpt lat="43.112888" lon="12.8425299"><ele>634.25</ele><time>2026-04-12T13:54:22.82Z</time></trkpt><trkpt lat="43.1130074" lon="12.8424792"><ele>637.0</ele><time>2026-04-12T13:54:23.825Z</time></trkpt><trkpt lat="43.1131105" lon="12.8424272"><ele>637.0</ele><time>2026-04-12T13:54:24.822Z</time></trkpt><trkpt lat="43.1131958" lon="12.8423843"><ele>637.0</ele><time>2026-04-12T13:54:25.822Z</time></trkpt><trkpt lat="43.113271" lon="12.8423473"><ele>637.0</ele><time>2026-04-12T13:54:26.819Z</time></trkpt><trkpt lat="43.1133364" lon="12.8423236"><ele>637.0</ele><time>2026-04-12T13:54:27.819Z</time></trkpt><trkpt lat="43.1134299" lon="12.842379"><ele>637.0</ele><time>2026-04-12T13:54:29.821Z</time></trkpt><trkpt lat="43.1134402" lon="12.8425261"><ele>637.0</ele><time>2026-04-12T13:54:31.822Z</time></trkpt><trkpt lat="43.1133955" lon="12.8426027"><ele>636.4</ele><time>2026-04-12T13:54:32.822Z</time></trkpt><trkpt lat="43.1133456" lon="12.8426764"><ele>635.8000000000001</ele><time>2026-04-12T13:54:33.827Z</time></trkpt><trkpt lat="43.1132929" lon="12.8427578"><ele>635.2</ele><time>2026-04-12T13:54:34.821Z</time></trkpt><trkpt lat="43.1132465" lon="12.8428641"><ele>634.6</ele><time>2026-04-12T13:54:35.832Z</time></trkpt><trkpt lat="43.1131946" lon="12.8429849"><ele>634.0</ele><time>2026-04-12T13:54:36.83Z</time></trkpt><trkpt lat="43.113139" lon="12.8431085"><ele>634.0</ele><time>2026-04-12T13:54:37.828Z</time></trkpt><trkpt lat="43.1130777" lon="12.8432167"><ele>634.0</ele><time>2026-04-12T13:54:38.827Z</time></trkpt><trkpt lat="43.1130093" lon="12.8433167"><ele>634.0</ele><time>2026-04-12T13:54:39.821Z</time></trkpt><trkpt lat="43.1129427" lon="12.8434088"><ele>634.0</ele><time>2026-04-12T13:54:40.832Z</time></trkpt><trkpt lat="43.1128869" lon="12.8434801"><ele>634.0</ele><time>2026-04-12T13:54:41.828Z</time></trkpt><trkpt lat="43.1128108" lon="12.8436151"><ele>635.5714285714286</ele><time>2026-04-12T13:54:43.829Z</time></trkpt><trkpt lat="43.1127743" lon="12.8436887"><ele>637.1428571428571</ele><time>2026-04-12T13:54:44.826Z</time></trkpt><trkpt lat="43.1127458" lon="12.8437714"><ele>638.7142857142858</ele><time>2026-04-12T13:54:45.823Z</time></trkpt><trkpt lat="43.1127182" lon="12.8438595"><ele>640.2857142857142</ele><time>2026-04-12T13:54:46.84Z</time></trkpt><trkpt lat="43.1127014" lon="12.8439542"><ele>641.8571428571428</ele><time>2026-04-12T13:54:47.836Z</time></trkpt><trkpt lat="43.1126954" lon="12.8440589"><ele>643.4285714285714</ele><time>2026-04-12T13:54:48.826Z</time></trkpt><trkpt lat="43.1126981" lon="12.8441749"><ele>645.0</ele><time>2026-04-12T13:54:49.83Z</time></trkpt><trkpt lat="43.1127093" lon="12.8443152"><ele>645.5</ele><time>2026-04-12T13:54:50.827Z</time></trkpt><trkpt lat="43.1127394" lon="12.8444566"><ele>646.0</ele><time>2026-04-12T13:54:51.823Z</time></trkpt><trkpt lat="43.1127765" lon="12.8446105"><ele>646.5</ele><time>2026-04-12T13:54:52.821Z</time></trkpt><trkpt lat="43.1128119" lon="12.8447816"><ele>647.0</ele><time>2026-04-12T13:54:53.821Z</time></trkpt><trkpt lat="43.1128214" lon="12.8449399"><ele>647.0</ele><time>2026-04-12T13:54:54.834Z</time></trkpt><trkpt lat="43.1127973" lon="12.8450824"><ele>647.0</ele><time>2026-04-12T13:54:55.828Z</time></trkpt><trkpt lat="43.1127478" lon="12.8452146"><ele>647.0</ele><time>2026-04-12T13:54:56.827Z</time></trkpt><trkpt lat="43.1126975" lon="12.8453363"><ele>647.0</ele><time>2026-04-12T13:54:57.832Z</time></trkpt><trkpt lat="43.1126522" lon="12.8454587"><ele>647.0</ele><time>2026-04-12T13:54:58.819Z</time></trkpt><trkpt lat="43.1126409" lon="12.8456021"><ele>648.5</ele><time>2026-04-12T13:54:59.823Z</time></trkpt><trkpt lat="43.1126488" lon="12.8457605"><ele>650.0</ele><time>2026-04-12T13:55:00.828Z</time></trkpt><trkpt lat="43.1126641" lon="12.8459232"><ele>651.5</ele><time>2026-04-12T13:55:01.824Z</time></trkpt><trkpt lat="43.1126987" lon="12.8461001"><ele>653.0</ele><time>2026-04-12T13:55:02.826Z</time></trkpt><trkpt lat="43.1127285" lon="12.8462868"><ele>653.4</ele><time>2026-04-12T13:55:03.827Z</time></trkpt><trkpt lat="43.1127505" lon="12.8464628"><ele>653.8</ele><time>2026-04-12T13:55:04.822Z</time></trkpt><trkpt lat="43.1127622" lon="12.8466153"><ele>654.2</ele><time>2026-04-12T13:55:05.832Z</time></trkpt><trkpt lat="43.1127668" lon="12.8467415"><ele>654.6</ele><time>2026-04-12T13:55:06.831Z</time></trkpt><trkpt lat="43.1127665" lon="12.8468504"><ele>655.0</ele><time>2026-04-12T13:55:07.825Z</time></trkpt><trkpt lat="43.1127827" lon="12.8469934"><ele>655.0</ele><time>2026-04-12T13:55:09.822Z</time></trkpt><trkpt lat="43.1128586" lon="12.8470319"><ele>655.0</ele><time>2026-04-12T13:55:11.823Z</time></trkpt><trkpt lat="43.1129052" lon="12.8469142"><ele>655.0</ele><time>2026-04-12T13:55:13.824Z</time></trkpt><trkpt lat="43.1128972" lon="12.8468277"><ele>655.0</ele><time>2026-04-12T13:55:14.824Z</time></trkpt><trkpt lat="43.1129014" lon="12.8467267"><ele>655.0</ele><time>2026-04-12T13:55:15.82Z</time></trkpt><trkpt lat="43.1129101" lon="12.8466208"><ele>655.0</ele><time>2026-04-12T13:55:16.823Z</time></trkpt><trkpt lat="43.1129185" lon="12.8465032"><ele>655.0</ele><time>2026-04-12T13:55:17.825Z</time></trkpt><trkpt lat="43.1129374" lon="12.8463928"><ele>655.0</ele><time>2026-04-12T13:55:18.823Z</time></trkpt><trkpt lat="43.1129626" lon="12.8462799"><ele>655.0</ele><time>2026-04-12T13:55:19.828Z</time></trkpt><trkpt lat="43.1129875" lon="12.8461503"><ele>655.0</ele><time>2026-04-12T13:55:20.825Z</time></trkpt><trkpt lat="43.1130103" lon="12.8460075"><ele>655.0</ele><time>2026-04-12T13:55:21.828Z</time></trkpt><trkpt lat="43.1130326" lon="12.8458508"><ele>654.6</ele><time>2026-04-12T13:55:22.818Z</time></trkpt><trkpt lat="43.1130653" lon="12.8457124"><ele>654.2</ele><time>2026-04-12T13:55:23.814Z</time></trkpt><trkpt lat="43.1131015" lon="12.8455726"><ele>653.8</ele><time>2026-04-12T13:55:24.818Z</time></trkpt><trkpt lat="43.1131419" lon="12.8454311"><ele>653.4</ele><time>2026-04-12T13:55:25.822Z</time></trkpt><trkpt lat="43.1131901" lon="12.8452928"><ele>653.0</ele><time>2026-04-12T13:55:26.82Z</time></trkpt><trkpt lat="43.1132489" lon="12.8451534"><ele>660.5999999999999</ele><time>2026-04-12T13:55:27.824Z</time></trkpt><trkpt lat="43.1133156" lon="12.8450218"><ele>668.1999999999999</ele><time>2026-04-12T13:55:28.832Z</time></trkpt><trkpt lat="43.1133824" lon="12.8449001"><ele>675.8</ele><time>2026-04-12T13:55:29.819Z</time></trkpt><trkpt lat="43.1134579" lon="12.8447993"><ele>683.4</ele><time>2026-04-12T13:55:30.822Z</time></trkpt><trkpt lat="43.1135487" lon="12.8447178"><ele>691.0</ele><time>2026-04-12T13:55:31.821Z</time></trkpt><trkpt lat="43.1136411" lon="12.8446573"><ele>691.0</ele><time>2026-04-12T13:55:32.826Z</time></trkpt><trkpt lat="43.1137398" lon="12.8446106"><ele>691.0</ele><time>2026-04-12T13:55:33.825Z</time></trkpt><trkpt lat="43.1138358" lon="12.8445647"><ele>691.0</ele><time>2026-04-12T13:55:34.818Z</time></trkpt><trkpt lat="43.1139306" lon="12.8445084"><ele>691.0</ele><time>2026-04-12T13:55:35.823Z</time></trkpt><trkpt lat="43.1140298" lon="12.8444444"><ele>691.0</ele><time>2026-04-12T13:55:36.82Z</time></trkpt><trkpt lat="43.1141359" lon="12.8443994"><ele>692.5</ele><time>2026-04-12T13:55:37.82Z</time></trkpt><trkpt lat="43.1142478" lon="12.8443562"><ele>694.0</ele><time>2026-04-12T13:55:38.834Z</time></trkpt><trkpt lat="43.1143662" lon="12.8443143"><ele>695.5</ele><time>2026-04-12T13:55:39.825Z</time></trkpt><trkpt lat="43.1144873" lon="12.8442579"><ele>697.0</ele><time>2026-04-12T13:55:40.829Z</time></trkpt><trkpt lat="43.1146026" lon="12.8441871"><ele>697.0</ele><time>2026-04-12T13:55:41.826Z</time></trkpt><trkpt lat="43.1147051" lon="12.8441154"><ele>697.0</ele><time>2026-04-12T13:55:42.817Z</time></trkpt><trkpt lat="43.1148064" lon="12.8440478"><ele>697.0</ele><time>2026-04-12T13:55:43.826Z</time></trkpt><trkpt lat="43.1149055" lon="12.8439988"><ele>697.0</ele><time>2026-04-12T13:55:44.818Z</time></trkpt><trkpt lat="43.1150155" lon="12.8439774"><ele>697.0</ele><time>2026-04-12T13:55:45.824Z</time></trkpt><trkpt lat="43.1151288" lon="12.8439772"><ele>703.25</ele><time>2026-04-12T13:55:46.827Z</time></trkpt><trkpt lat="43.1152351" lon="12.8439983"><ele>709.5</ele><time>2026-04-12T13:55:47.826Z</time></trkpt><trkpt lat="43.1153479" lon="12.8440328"><ele>715.75</ele><time>2026-04-12T13:55:48.826Z</time></trkpt><trkpt lat="43.1154684" lon="12.8440605"><ele>722.0</ele><time>2026-04-12T13:55:49.824Z</time></trkpt><trkpt lat="43.115596" lon="12.8440724"><ele>722.0</ele><time>2026-04-12T13:55:50.819Z</time></trkpt><trkpt lat="43.1157283" lon="12.8440858"><ele>722.0</ele><time>2026-04-12T13:55:51.818Z</time></trkpt><trkpt lat="43.1158574" lon="12.8440962"><ele>722.0</ele><time>2026-04-12T13:55:52.822Z</time></trkpt><trkpt lat="43.1159905" lon="12.844098"><ele>722.0</ele><time>2026-04-12T13:55:53.824Z</time></trkpt><trkpt lat="43.1161229" lon="12.8440962"><ele>723.0</ele><time>2026-04-12T13:55:54.827Z</time></trkpt><trkpt lat="43.116248" lon="12.8440843"><ele>724.0</ele><time>2026-04-12T13:55:55.821Z</time></trkpt><trkpt lat="43.1163634" lon="12.8440646"><ele>725.0</ele><time>2026-04-12T13:55:56.825Z</time></trkpt><trkpt lat="43.1164616" lon="12.8440339"><ele>726.0</ele><time>2026-04-12T13:55:57.822Z</time></trkpt><trkpt lat="43.1165527" lon="12.8439711"><ele>727.0</ele><time>2026-04-12T13:55:58.822Z</time></trkpt><trkpt lat="43.116632" lon="12.8438805"><ele>727.8</ele><time>2026-04-12T13:55:59.826Z</time></trkpt><trkpt lat="43.1166967" lon="12.8437854"><ele>728.6</ele><time>2026-04-12T13:56:00.823Z</time></trkpt><trkpt lat="43.1167667" lon="12.8436937"><ele>729.4</ele><time>2026-04-12T13:56:01.823Z</time></trkpt><trkpt lat="43.1168448" lon="12.8436051"><ele>730.1999999999999</ele><time>2026-04-12T13:56:02.823Z</time></trkpt><trkpt lat="43.1169241" lon="12.8435129"><ele>731.0</ele><time>2026-04-12T13:56:03.822Z</time></trkpt><trkpt lat="43.1170026" lon="12.8434157"><ele>731.0</ele><time>2026-04-12T13:56:04.823Z</time></trkpt><trkpt lat="43.1170612" lon="12.8433141"><ele>731.0</ele><time>2026-04-12T13:56:05.817Z</time></trkpt><trkpt lat="43.1170914" lon="12.8432025"><ele>731.0</ele><time>2026-04-12T13:56:06.822Z</time></trkpt><trkpt lat="43.1170889" lon="12.8430983"><ele>731.0</ele><time>2026-04-12T13:56:07.821Z</time></trkpt><trkpt lat="43.1170644" lon="12.8430143"><ele>731.0</ele><time>2026-04-12T13:56:08.822Z</time></trkpt><trkpt lat="43.1170317" lon="12.8429138"><ele>731.0</ele><time>2026-04-12T13:56:09.825Z</time></trkpt><trkpt lat="43.117002" lon="12.842805"><ele>731.0</ele><time>2026-04-12T13:56:10.824Z</time></trkpt><trkpt lat="43.116985" lon="12.8426782"><ele>731.0</ele><time>2026-04-12T13:56:11.827Z</time></trkpt><trkpt lat="43.1169821" lon="12.8425382"><ele>731.0</ele><time>2026-04-12T13:56:12.841Z</time></trkpt><trkpt lat="43.1169831" lon="12.8423958"><ele>731.0</ele><time>2026-04-12T13:56:13.824Z</time></trkpt><trkpt lat="43.1169935" lon="12.842255"><ele>731.0</ele><time>2026-04-12T13:56:14.82Z</time></trkpt><trkpt lat="43.1170107" lon="12.8421251"><ele>730.0</ele><time>2026-04-12T13:56:15.826Z</time></trkpt><trkpt lat="43.1170415" lon="12.842014"><ele>729.0</ele><time>2026-04-12T13:56:16.821Z</time></trkpt><trkpt lat="43.1170791" lon="12.8419115"><ele>728.0</ele><time>2026-04-12T13:56:17.822Z</time></trkpt><trkpt lat="43.1171256" lon="12.8418218"><ele>727.0</ele><time>2026-04-12T13:56:18.827Z</time></trkpt><trkpt lat="43.1171934" lon="12.8417478"><ele>726.0</ele><time>2026-04-12T13:56:19.823Z</time></trkpt><trkpt lat="43.1172704" lon="12.8416977"><ele>725.0</ele><time>2026-04-12T13:56:20.827Z</time></trkpt><trkpt lat="43.1173631" lon="12.8416611"><ele>730.6</ele><time>2026-04-12T13:56:21.832Z</time></trkpt><trkpt lat="43.1174656" lon="12.8416528"><ele>736.2</ele><time>2026-04-12T13:56:22.823Z</time></trkpt><trkpt lat="43.1175619" lon="12.8416559"><ele>741.8</ele><time>2026-04-12T13:56:23.819Z</time></trkpt><trkpt lat="43.1176468" lon="12.8416692"><ele>747.4</ele><time>2026-04-12T13:56:24.824Z</time></trkpt><trkpt lat="43.1177212" lon="12.8416599"><ele>753.0</ele><time>2026-04-12T13:56:25.822Z</time></trkpt><trkpt lat="43.1178108" lon="12.8415767"><ele>753.0</ele><time>2026-04-12T13:56:27.823Z</time></trkpt><trkpt lat="43.1178389" lon="12.8414613"><ele>753.0</ele><time>2026-04-12T13:56:28.824Z</time></trkpt><trkpt lat="43.1178927" lon="12.8413199"><ele>753.0</ele><time>2026-04-12T13:56:29.831Z</time></trkpt><trkpt lat="43.1179449" lon="12.8411482"><ele>753.0</ele><time>2026-04-12T13:56:30.83Z</time></trkpt><trkpt lat="43.1179942" lon="12.8409621"><ele>749.5</ele><time>2026-04-12T13:56:31.83Z</time></trkpt><trkpt lat="43.1180397" lon="12.8407717"><ele>746.0</ele><time>2026-04-12T13:56:32.827Z</time></trkpt><trkpt lat="43.1180833" lon="12.8405756"><ele>742.5</ele><time>2026-04-12T13:56:33.82Z</time></trkpt><trkpt lat="43.1181146" lon="12.8403757"><ele>739.0</ele><time>2026-04-12T13:56:34.82Z</time></trkpt><trkpt lat="43.1181501" lon="12.840198"><ele>742.25</ele><time>2026-04-12T13:56:35.83Z</time></trkpt><trkpt lat="43.1181967" lon="12.8400458"><ele>745.5</ele><time>2026-04-12T13:56:36.827Z</time></trkpt><trkpt lat="43.1182469" lon="12.8398915"><ele>748.75</ele><time>2026-04-12T13:56:37.822Z</time></trkpt><trkpt lat="43.1182987" lon="12.8397379"><ele>752.0</ele><time>2026-04-12T13:56:38.823Z</time></trkpt><trkpt lat="43.1183552" lon="12.8395949"><ele>755.6666666666666</ele><time>2026-04-12T13:56:39.834Z</time></trkpt><trkpt lat="43.1184023" lon="12.8394762"><ele>759.3333333333333</ele><time>2026-04-12T13:56:40.826Z</time></trkpt><trkpt lat="43.1184471" lon="12.8393709"><ele>763.0</ele><time>2026-04-12T13:56:41.822Z</time></trkpt><trkpt lat="43.11848" lon="12.8392827"><ele>766.6666666666666</ele><time>2026-04-12T13:56:42.823Z</time></trkpt><trkpt lat="43.1184955" lon="12.8391953"><ele>770.3333333333334</ele><time>2026-04-12T13:56:43.826Z</time></trkpt><trkpt lat="43.1184182" lon="12.8390792"><ele>774.0</ele><time>2026-04-12T13:56:45.818Z</time></trkpt><trkpt lat="43.1183381" lon="12.8390791"><ele>775.0</ele><time>2026-04-12T13:56:46.825Z</time></trkpt><trkpt lat="43.1182385" lon="12.8391033"><ele>776.0</ele><time>2026-04-12T13:56:47.829Z</time></trkpt><trkpt lat="43.1181218" lon="12.8391306"><ele>777.0</ele><time>2026-04-12T13:56:48.814Z</time></trkpt><trkpt lat="43.1180156" lon="12.8391509"><ele>778.0</ele><time>2026-04-12T13:56:49.827Z</time></trkpt><trkpt lat="43.1179249" lon="12.8391696"><ele>779.0</ele><time>2026-04-12T13:56:50.822Z</time></trkpt><trkpt lat="43.1178389" lon="12.8392023"><ele>781.0</ele><time>2026-04-12T13:56:51.833Z</time></trkpt><trkpt lat="43.1177611" lon="12.8392435"><ele>783.0</ele><time>2026-04-12T13:56:52.827Z</time></trkpt><trkpt lat="43.117676" lon="12.8392812"><ele>785.0</ele><time>2026-04-12T13:56:53.822Z</time></trkpt><trkpt lat="43.1175803" lon="12.8393084"><ele>787.0</ele><time>2026-04-12T13:56:54.825Z</time></trkpt><trkpt lat="43.1174735" lon="12.8393276"><ele>789.0</ele><time>2026-04-12T13:56:55.83Z</time></trkpt><trkpt lat="43.1173593" lon="12.8393432"><ele>779.25</ele><time>2026-04-12T13:56:56.827Z</time></trkpt><trkpt lat="43.117237" lon="12.8393602"><ele>769.5</ele><time>2026-04-12T13:56:57.833Z</time></trkpt><trkpt lat="43.1171111" lon="12.8393695"><ele>759.75</ele><time>2026-04-12T13:56:58.82Z</time></trkpt><trkpt lat="43.116981" lon="12.8393673"><ele>750.0</ele><time>2026-04-12T13:56:59.825Z</time></trkpt><trkpt lat="43.1168504" lon="12.8393656"><ele>750.0</ele><time>2026-04-12T13:57:00.828Z</time></trkpt><trkpt lat="43.116713" lon="12.8393487"><ele>750.0</ele><time>2026-04-12T13:57:01.821Z</time></trkpt><trkpt lat="43.1165699" lon="12.8393373"><ele>750.0</ele><time>2026-04-12T13:57:02.823Z</time></trkpt><trkpt lat="43.1164185" lon="12.8393207"><ele>750.0</ele><time>2026-04-12T13:57:03.83Z</time></trkpt><trkpt lat="43.1162592" lon="12.8393138"><ele>762.0</ele><time>2026-04-12T13:57:04.827Z</time></trkpt><trkpt lat="43.1161124" lon="12.8392989"><ele>774.0</ele><time>2026-04-12T13:57:05.827Z</time></trkpt><trkpt lat="43.1159669" lon="12.8392786"><ele>786.0</ele><time>2026-04-12T13:57:06.82Z</time></trkpt><trkpt lat="43.1158273" lon="12.8392608"><ele>798.0</ele><time>2026-04-12T13:57:07.849Z</time></trkpt><trkpt lat="43.1156854" lon="12.8392627"><ele>798.0</ele><time>2026-04-12T13:57:08.82Z</time></trkpt><trkpt lat="43.1155471" lon="12.8392603"><ele>798.0</ele><time>2026-04-12T13:57:09.825Z</time></trkpt><trkpt lat="43.1154171" lon="12.839265"><ele>798.0</ele><time>2026-04-12T13:57:10.841Z</time></trkpt><trkpt lat="43.1153034" lon="12.839275"><ele>798.0</ele><time>2026-04-12T13:57:11.831Z</time></trkpt><trkpt lat="43.1152061" lon="12.8392826"><ele>798.0</ele><time>2026-04-12T13:57:12.824Z</time></trkpt><trkpt lat="43.1151318" lon="12.8392798"><ele>798.0</ele><time>2026-04-12T13:57:13.832Z</time></trkpt><trkpt lat="43.1150345" lon="12.839232"><ele>798.0</ele><time>2026-04-12T13:57:15.827Z</time></trkpt><trkpt lat="43.1150049" lon="12.8391448"><ele>798.0</ele><time>2026-04-12T13:57:17.831Z</time></trkpt><trkpt lat="43.1150813" lon="12.839085"><ele>798.0</ele><time>2026-04-12T13:57:19.827Z</time></trkpt><trkpt lat="43.1151499" lon="12.8390907"><ele>798.0</ele><time>2026-04-12T13:57:20.829Z</time></trkpt><trkpt lat="43.115216" lon="12.8391205"><ele>798.0</ele><time>2026-04-12T13:57:21.831Z</time></trkpt><trkpt lat="43.1153068" lon="12.839128"><ele>798.0</ele><time>2026-04-12T13:57:22.822Z</time></trkpt><trkpt lat="43.1154176" lon="12.8391071"><ele>798.0</ele><time>2026-04-12T13:57:23.835Z</time></trkpt><trkpt lat="43.1155411" lon="12.8390544"><ele>798.0</ele><time>2026-04-12T13:57:24.821Z</time></trkpt><trkpt lat="43.1156805" lon="12.8389963"><ele>798.6666666666667</ele><time>2026-04-12T13:57:25.83Z</time></trkpt><trkpt lat="43.1158293" lon="12.8389298"><ele>799.3333333333334</ele><time>2026-04-12T13:57:26.819Z</time></trkpt><trkpt lat="43.1159991" lon="12.8388705"><ele>800.0</ele><time>2026-04-12T13:57:27.823Z</time></trkpt><trkpt lat="43.1161819" lon="12.8388281"><ele>800.0</ele><time>2026-04-12T13:57:28.823Z</time></trkpt><trkpt lat="43.1163583" lon="12.8387871"><ele>800.0</ele><time>2026-04-12T13:57:29.824Z</time></trkpt><trkpt lat="43.1165253" lon="12.8387474"><ele>800.0</ele><time>2026-04-12T13:57:30.826Z</time></trkpt><trkpt lat="43.1166965" lon="12.838698"><ele>798.3333333333334</ele><time>2026-04-12T13:57:31.824Z</time></trkpt><trkpt lat="43.1168697" lon="12.8386265"><ele>796.6666666666667</ele><time>2026-04-12T13:57:32.821Z</time></trkpt><trkpt lat="43.1170225" lon="12.8385416"><ele>795.0</ele><time>2026-04-12T13:57:33.828Z</time></trkpt><trkpt lat="43.1171597" lon="12.8384702"><ele>801.0</ele><time>2026-04-12T13:57:34.827Z</time></trkpt><trkpt lat="43.1172921" lon="12.8384062"><ele>807.0</ele><time>2026-04-12T13:57:35.846Z</time></trkpt><trkpt lat="43.1174162" lon="12.8383363"><ele>813.0</ele><time>2026-04-12T13:57:36.823Z</time></trkpt><trkpt lat="43.1175363" lon="12.8382678"><ele>819.0</ele><time>2026-04-12T13:57:37.829Z</time></trkpt><trkpt lat="43.1176537" lon="12.8381881"><ele>819.0</ele><time>2026-04-12T13:57:38.831Z</time></trkpt><trkpt lat="43.1177687" lon="12.8380899"><ele>819.0</ele><time>2026-04-12T13:57:39.82Z</time></trkpt><trkpt lat="43.1178819" lon="12.8379945"><ele>819.0</ele><time>2026-04-12T13:57:40.826Z</time></trkpt><trkpt lat="43.118007" lon="12.8379195"><ele>819.0</ele><time>2026-04-12T13:57:41.822Z</time></trkpt><trkpt lat="43.1181352" lon="12.8378752"><ele>816.5</ele><time>2026-04-12T13:57:42.827Z</time></trkpt><trkpt lat="43.1182653" lon="12.8378405"><ele>814.0</ele><time>2026-04-12T13:57:43.834Z</time></trkpt><trkpt lat="43.1183901" lon="12.8378097"><ele>811.5</ele><time>2026-04-12T13:57:44.818Z</time></trkpt><trkpt lat="43.1184994" lon="12.837761"><ele>809.0</ele><time>2026-04-12T13:57:45.823Z</time></trkpt><trkpt lat="43.1186079" lon="12.8377075"><ele>809.0</ele><time>2026-04-12T13:57:46.827Z</time></trkpt><trkpt lat="43.1187176" lon="12.8376386"><ele>809.0</ele><time>2026-04-12T13:57:47.833Z</time></trkpt><trkpt lat="43.1188248" lon="12.8375491"><ele>809.0</ele><time>2026-04-12T13:57:48.821Z</time></trkpt><trkpt lat="43.118927" lon="12.8374422"><ele>809.0</ele><time>2026-04-12T13:57:49.82Z</time></trkpt><trkpt lat="43.1190317" lon="12.8373414"><ele>814.6</ele><time>2026-04-12T13:57:50.822Z</time></trkpt><trkpt lat="43.1191376" lon="12.8372575"><ele>820.2</ele><time>2026-04-12T13:57:51.819Z</time></trkpt><trkpt lat="43.1192238" lon="12.8371984"><ele>825.8000000000001</ele><time>2026-04-12T13:57:52.825Z</time></trkpt><trkpt lat="43.1193065" lon="12.8371558"><ele>831.4000000000001</ele><time>2026-04-12T13:57:53.832Z</time></trkpt><trkpt lat="43.1193865" lon="12.8371404"><ele>837.0</ele><time>2026-04-12T13:57:54.821Z</time></trkpt><trkpt lat="43.1194472" lon="12.8371805"><ele>837.0</ele><time>2026-04-12T13:57:55.825Z</time></trkpt><trkpt lat="43.1194873" lon="12.837269"><ele>837.0</ele><time>2026-04-12T13:57:56.828Z</time></trkpt><trkpt lat="43.1195072" lon="12.8373868"><ele>837.0</ele><time>2026-04-12T13:57:57.834Z</time></trkpt><trkpt lat="43.1195165" lon="12.8375286"><ele>837.0</ele><time>2026-04-12T13:57:58.83Z</time></trkpt><trkpt lat="43.1195256" lon="12.8376844"><ele>837.0</ele><time>2026-04-12T13:57:59.825Z</time></trkpt><trkpt lat="43.1195335" lon="12.8378439"><ele>833.0</ele><time>2026-04-12T13:58:00.828Z</time></trkpt><trkpt lat="43.1195458" lon="12.8379951"><ele>829.0</ele><time>2026-04-12T13:58:01.837Z</time></trkpt><trkpt lat="43.1195721" lon="12.8381376"><ele>825.0</ele><time>2026-04-12T13:58:02.824Z</time></trkpt><trkpt lat="43.1196118" lon="12.8382804"><ele>821.0</ele><time>2026-04-12T13:58:03.824Z</time></trkpt><trkpt lat="43.1196627" lon="12.8384349"><ele>819.25</ele><time>2026-04-12T13:58:04.824Z</time></trkpt><trkpt lat="43.1197266" lon="12.838597"><ele>817.5</ele><time>2026-04-12T13:58:05.829Z</time></trkpt><trkpt lat="43.1198003" lon="12.8387474"><ele>815.75</ele><time>2026-04-12T13:58:06.836Z</time></trkpt><trkpt lat="43.1198758" lon="12.8388895"><ele>814.0</ele><time>2026-04-12T13:58:07.825Z</time></trkpt><trkpt lat="43.1199207" lon="12.8390462"><ele>816.2</ele><time>2026-04-12T13:58:08.823Z</time></trkpt><trkpt lat="43.1199444" lon="12.8391999"><ele>818.4000000000001</ele><time>2026-04-12T13:58:09.826Z</time></trkpt><trkpt lat="43.1199441" lon="12.8393497"><ele>820.6</ele><time>2026-04-12T13:58:10.828Z</time></trkpt><trkpt lat="43.1199012" lon="12.8394933"><ele>822.8</ele><time>2026-04-12T13:58:11.823Z</time></trkpt><trkpt lat="43.1198514" lon="12.8396289"><ele>825.0</ele><time>2026-04-12T13:58:12.817Z</time></trkpt><trkpt lat="43.1197857" lon="12.8397703"><ele>825.0</ele><time>2026-04-12T13:58:13.83Z</time></trkpt><trkpt lat="43.1197239" lon="12.8399376"><ele>825.0</ele><time>2026-04-12T13:58:14.821Z</time></trkpt><trkpt lat="43.1196628" lon="12.8401084"><ele>825.0</ele><time>2026-04-12T13:58:15.825Z</time></trkpt><trkpt lat="43.1196114" lon="12.8402589"><ele>825.0</ele><time>2026-04-12T13:58:16.825Z</time></trkpt><trkpt lat="43.1195678" lon="12.8403884"><ele>827.2</ele><time>2026-04-12T13:58:17.83Z</time></trkpt><trkpt lat="43.1195386" lon="12.8405009"><ele>829.4</ele><time>2026-04-12T13:58:18.832Z</time></trkpt><trkpt lat="43.1195284" lon="12.8405984"><ele>831.5999999999999</ele><time>2026-04-12T13:58:19.828Z</time></trkpt><trkpt lat="43.1195694" lon="12.8406872"><ele>833.8</ele><time>2026-04-12T13:58:21.835Z</time></trkpt><trkpt lat="43.1196538" lon="12.8406758"><ele>836.0</ele><time>2026-04-12T13:58:23.822Z</time></trkpt><trkpt lat="43.1197102" lon="12.840506"><ele>836.0</ele><time>2026-04-12T13:58:25.826Z</time></trkpt><trkpt lat="43.11974" lon="12.8403941"><ele>836.0</ele><time>2026-04-12T13:58:26.828Z</time></trkpt><trkpt lat="43.1197856" lon="12.8402775"><ele>836.0</ele><time>2026-04-12T13:58:27.828Z</time></trkpt><trkpt lat="43.1198611" lon="12.8401773"><ele>836.0</ele><time>2026-04-12T13:58:28.825Z</time></trkpt><trkpt lat="43.1199435" lon="12.8400571"><ele>836.0</ele><time>2026-04-12T13:58:29.825Z</time></trkpt><trkpt lat="43.1200388" lon="12.8399117"><ele>842.75</ele><time>2026-04-12T13:58:30.83Z</time></trkpt><trkpt lat="43.1201271" lon="12.8397572"><ele>849.5</ele><time>2026-04-12T13:58:31.834Z</time></trkpt><trkpt lat="43.1202131" lon="12.8396232"><ele>856.25</ele><time>2026-04-12T13:58:32.832Z</time></trkpt><trkpt lat="43.120297" lon="12.8395144"><ele>863.0</ele><time>2026-04-12T13:58:33.827Z</time></trkpt><trkpt lat="43.1203481" lon="12.8394148"><ele>863.0</ele><time>2026-04-12T13:58:34.828Z</time></trkpt><trkpt lat="43.1203797" lon="12.8393026"><ele>863.0</ele><time>2026-04-12T13:58:35.837Z</time></trkpt><trkpt lat="43.1203917" lon="12.8391807"><ele>863.0</ele><time>2026-04-12T13:58:36.826Z</time></trkpt><trkpt lat="43.1203962" lon="12.8390549"><ele>863.0</ele><time>2026-04-12T13:58:37.827Z</time></trkpt><trkpt lat="43.1203958" lon="12.838919"><ele>863.0</ele><time>2026-04-12T13:58:38.83Z</time></trkpt><trkpt lat="43.1203901" lon="12.8387801"><ele>862.5</ele><time>2026-04-12T13:58:39.831Z</time></trkpt><trkpt lat="43.120377" lon="12.8386203"><ele>862.0</ele><time>2026-04-12T13:58:40.831Z</time></trkpt><trkpt lat="43.1203498" lon="12.8384528"><ele>861.5</ele><time>2026-04-12T13:58:41.826Z</time></trkpt><trkpt lat="43.1203184" lon="12.8382956"><ele>861.0</ele><time>2026-04-12T13:58:42.833Z</time></trkpt><trkpt lat="43.1202864" lon="12.8381418"><ele>861.0</ele><time>2026-04-12T13:58:43.824Z</time></trkpt><trkpt lat="43.1202653" lon="12.8379801"><ele>861.0</ele><time>2026-04-12T13:58:44.823Z</time></trkpt><trkpt lat="43.1202564" lon="12.8378213"><ele>861.0</ele><time>2026-04-12T13:58:45.83Z</time></trkpt><trkpt lat="43.1202512" lon="12.837648"><ele>861.0</ele><time>2026-04-12T13:58:46.834Z</time></trkpt><trkpt lat="43.1202526" lon="12.8374735"><ele>862.0</ele><time>2026-04-12T13:58:47.834Z</time></trkpt><trkpt lat="43.1202688" lon="12.8372975"><ele>863.0</ele><time>2026-04-12T13:58:48.823Z</time></trkpt><trkpt lat="43.1202993" lon="12.837117"><ele>864.0</ele><time>2026-04-12T13:58:49.823Z</time></trkpt><trkpt lat="43.1203399" lon="12.8369339"><ele>865.0</ele><time>2026-04-12T13:58:50.825Z</time></trkpt><trkpt lat="43.1203956" lon="12.836771"><ele>866.0</ele><time>2026-04-12T13:58:51.837Z</time></trkpt><trkpt lat="43.1204542" lon="12.8366116"><ele>867.0</ele><time>2026-04-12T13:58:52.828Z</time></trkpt><trkpt lat="43.1205176" lon="12.836469"><ele>868.0</ele><time>2026-04-12T13:58:53.83Z</time></trkpt><trkpt lat="43.1205685" lon="12.8363432"><ele>869.0</ele><time>2026-04-12T13:58:54.834Z</time></trkpt><trkpt lat="43.120591" lon="12.8362041"><ele>869.0</ele><time>2026-04-12T13:58:55.83Z</time></trkpt><trkpt lat="43.1205841" lon="12.8360696"><ele>869.0</ele><time>2026-04-12T13:58:56.826Z</time></trkpt><trkpt lat="43.120553" lon="12.8359145"><ele>869.0</ele><time>2026-04-12T13:58:57.84Z</time></trkpt><trkpt lat="43.1205057" lon="12.8357613"><ele>869.0</ele><time>2026-04-12T13:58:58.83Z</time></trkpt><trkpt lat="43.120463" lon="12.835616"><ele>871.8000000000001</ele><time>2026-04-12T13:58:59.837Z</time></trkpt><trkpt lat="43.1204074" lon="12.8355003"><ele>874.6000000000001</ele><time>2026-04-12T13:59:00.831Z</time></trkpt><trkpt lat="43.1203251" lon="12.835413"><ele>877.4</ele><time>2026-04-12T13:59:01.83Z</time></trkpt><trkpt lat="43.1202198" lon="12.8353651"><ele>880.2</ele><time>2026-04-12T13:59:02.826Z</time></trkpt><trkpt lat="43.1200946" lon="12.835342"><ele>883.0</ele><time>2026-04-12T13:59:03.828Z</time></trkpt><trkpt lat="43.1199563" lon="12.8352999"><ele>883.0</ele><time>2026-04-12T13:59:04.831Z</time></trkpt><trkpt lat="43.119835" lon="12.8352642"><ele>883.0</ele><time>2026-04-12T13:59:05.836Z</time></trkpt><trkpt lat="43.1197215" lon="12.8352475"><ele>883.0</ele><time>2026-04-12T13:59:06.824Z</time></trkpt><trkpt lat="43.1196354" lon="12.8352576"><ele>883.0</ele><time>2026-04-12T13:59:07.828Z</time></trkpt><trkpt lat="43.1195634" lon="12.8352645"><ele>883.0</ele><time>2026-04-12T13:59:08.821Z</time></trkpt><trkpt lat="43.1194709" lon="12.8352149"><ele>887.5999999999999</ele><time>2026-04-12T13:59:10.826Z</time></trkpt><trkpt lat="43.1194713" lon="12.8350842"><ele>892.1999999999999</ele><time>2026-04-12T13:59:12.827Z</time></trkpt><trkpt lat="43.119561" lon="12.8349585"><ele>896.8</ele><time>2026-04-12T13:59:14.827Z</time></trkpt><trkpt lat="43.1196276" lon="12.8349111"><ele>901.4</ele><time>2026-04-12T13:59:15.832Z</time></trkpt><trkpt lat="43.1197356" lon="12.83487"><ele>906.0</ele><time>2026-04-12T13:59:16.825Z</time></trkpt><trkpt lat="43.1198607" lon="12.8348109"><ele>905.5</ele><time>2026-04-12T13:59:17.827Z</time></trkpt><trkpt lat="43.1199997" lon="12.8347419"><ele>905.0</ele><time>2026-04-12T13:59:18.821Z</time></trkpt><trkpt lat="43.1201488" lon="12.8346858"><ele>904.5</ele><time>2026-04-12T13:59:19.816Z</time></trkpt><trkpt lat="43.1202822" lon="12.834652"><ele>904.0</ele><time>2026-04-12T13:59:20.821Z</time></trkpt><trkpt lat="43.1203979" lon="12.8346332"><ele>904.0</ele><time>2026-04-12T13:59:21.825Z</time></trkpt><trkpt lat="43.1205174" lon="12.834627"><ele>904.0</ele><time>2026-04-12T13:59:22.836Z</time></trkpt><trkpt lat="43.1206416" lon="12.8346396"><ele>904.0</ele><time>2026-04-12T13:59:23.827Z</time></trkpt><trkpt lat="43.1207532" lon="12.8346638"><ele>904.0</ele><time>2026-04-12T13:59:24.839Z</time></trkpt><trkpt lat="43.1208482" lon="12.8346979"><ele>905.4000000000001</ele><time>2026-04-12T13:59:25.829Z</time></trkpt><trkpt lat="43.1209399" lon="12.8347363"><ele>906.8000000000001</ele><time>2026-04-12T13:59:26.846Z</time></trkpt><trkpt lat="43.1210304" lon="12.8347863"><ele>908.1999999999999</ele><time>2026-04-12T13:59:27.835Z</time></trkpt><trkpt lat="43.1211181" lon="12.8348653"><ele>909.5999999999999</ele><time>2026-04-12T13:59:28.831Z</time></trkpt><trkpt lat="43.1212053" lon="12.8349651"><ele>911.0</ele><time>2026-04-12T13:59:29.832Z</time></trkpt><trkpt lat="43.1212848" lon="12.8350949"><ele>909.0</ele><time>2026-04-12T13:59:30.837Z</time></trkpt><trkpt lat="43.121352" lon="12.8352279"><ele>907.0</ele><time>2026-04-12T13:59:31.837Z</time></trkpt><trkpt lat="43.1214035" lon="12.8353683"><ele>905.0</ele><time>2026-04-12T13:59:32.835Z</time></trkpt><trkpt lat="43.1214399" lon="12.8355195"><ele>903.0</ele><time>2026-04-12T13:59:33.832Z</time></trkpt><trkpt lat="43.1214663" lon="12.8356814"><ele>903.0</ele><time>2026-04-12T13:59:34.835Z</time></trkpt><trkpt lat="43.1214802" lon="12.8358378"><ele>903.0</ele><time>2026-04-12T13:59:35.816Z</time></trkpt><trkpt lat="43.1214877" lon="12.8359978"><ele>903.0</ele><time>2026-04-12T13:59:36.825Z</time></trkpt><trkpt lat="43.1215003" lon="12.8361582"><ele>903.0</ele><time>2026-04-12T13:59:37.84Z</time></trkpt><trkpt lat="43.1215148" lon="12.8363282"><ele>902.75</ele><time>2026-04-12T13:59:38.827Z</time></trkpt><trkpt lat="43.1215256" lon="12.8364786"><ele>902.5</ele><time>2026-04-12T13:59:39.842Z</time></trkpt><trkpt lat="43.1215349" lon="12.8366397"><ele>902.25</ele><time>2026-04-12T13:59:40.835Z</time></trkpt><trkpt lat="43.1215375" lon="12.8367978"><ele>902.0</ele><time>2026-04-12T13:59:41.833Z</time></trkpt><trkpt lat="43.1215486" lon="12.836948"><ele>910.0</ele><time>2026-04-12T13:59:42.829Z</time></trkpt><trkpt lat="43.1215717" lon="12.8370964"><ele>918.0</ele><time>2026-04-12T13:59:43.832Z</time></trkpt><trkpt lat="43.1215979" lon="12.8372508"><ele>926.0</ele><time>2026-04-12T13:59:44.844Z</time></trkpt><trkpt lat="43.121623" lon="12.8374146"><ele>934.0</ele><time>2026-04-12T13:59:45.842Z</time></trkpt><trkpt lat="43.1216428" lon="12.8375803"><ele>934.75</ele><time>2026-04-12T13:59:46.832Z</time></trkpt><trkpt lat="43.1216545" lon="12.8377575"><ele>935.5</ele><time>2026-04-12T13:59:47.844Z</time></trkpt><trkpt lat="43.1216516" lon="12.8379377"><ele>936.25</ele><time>2026-04-12T13:59:48.838Z</time></trkpt><trkpt lat="43.1216305" lon="12.838101"><ele>937.0</ele><time>2026-04-12T13:59:49.839Z</time></trkpt><trkpt lat="43.1215981" lon="12.8382531"><ele>937.0</ele><time>2026-04-12T13:59:50.843Z</time></trkpt><trkpt lat="43.1215692" lon="12.8384126"><ele>937.0</ele><time>2026-04-12T13:59:51.841Z</time></trkpt><trkpt lat="43.1215749" lon="12.8385739"><ele>937.0</ele><time>2026-04-12T13:59:52.836Z</time></trkpt><trkpt lat="43.1216082" lon="12.8387442"><ele>937.0</ele><time>2026-04-12T13:59:53.841Z</time></trkpt><trkpt lat="43.1216534" lon="12.8389001"><ele>936.75</ele><time>2026-04-12T13:59:54.836Z</time></trkpt><trkpt lat="43.1217033" lon="12.839044"><ele>936.5</ele><time>2026-04-12T13:59:55.839Z</time></trkpt><trkpt lat="43.1217546" lon="12.8391885"><ele>936.25</ele><time>2026-04-12T13:59:56.848Z</time></trkpt><trkpt lat="43.1218051" lon="12.8393347"><ele>936.0</ele><time>2026-04-12T13:59:57.837Z</time></trkpt><trkpt lat="43.1218555" lon="12.8394821"><ele>935.25</ele><time>2026-04-12T13:59:58.834Z</time></trkpt><trkpt lat="43.1219034" lon="12.8396324"><ele>934.5</ele><time>2026-04-12T13:59:59.833Z</time></trkpt><trkpt lat="43.1219468" lon="12.8397796"><ele>933.75</ele><time>2026-04-12T14:00:00.829Z</time></trkpt><trkpt lat="43.1219889" lon="12.8399164"><ele>933.0</ele><time>2026-04-12T14:00:01.83Z</time></trkpt><trkpt lat="43.1220473" lon="12.8400538"><ele>934.0</ele><time>2026-04-12T14:00:02.857Z</time></trkpt><trkpt lat="43.1221237" lon="12.8401833"><ele>935.0</ele><time>2026-04-12T14:00:03.819Z</time></trkpt><trkpt lat="43.1222117" lon="12.8403018"><ele>936.0</ele><time>2026-04-12T14:00:04.826Z</time></trkpt><trkpt lat="43.1223081" lon="12.8404046"><ele>937.0</ele><time>2026-04-12T14:00:05.83Z</time></trkpt><trkpt lat="43.1224182" lon="12.8404787"><ele>937.0</ele><time>2026-04-12T14:00:06.831Z</time></trkpt><trkpt lat="43.1225398" lon="12.8405365"><ele>937.0</ele><time>2026-04-12T14:00:07.834Z</time></trkpt><trkpt lat="43.1226706" lon="12.8405649"><ele>937.0</ele><time>2026-04-12T14:00:08.828Z</time></trkpt><trkpt lat="43.1228091" lon="12.8405652"><ele>937.0</ele><time>2026-04-12T14:00:09.83Z</time></trkpt><trkpt lat="43.1229423" lon="12.8405586"><ele>937.0</ele><time>2026-04-12T14:00:10.831Z</time></trkpt><trkpt lat="43.1230761" lon="12.8405482"><ele>937.0</ele><time>2026-04-12T14:00:11.836Z</time></trkpt><trkpt lat="43.1232105" lon="12.8405235"><ele>937.0</ele><time>2026-04-12T14:00:12.836Z</time></trkpt><trkpt lat="43.1233449" lon="12.8404963"><ele>937.0</ele><time>2026-04-12T14:00:13.845Z</time></trkpt><trkpt lat="43.1234841" lon="12.840471"><ele>938.5</ele><time>2026-04-12T14:00:14.829Z</time></trkpt><trkpt lat="43.1236249" lon="12.840452"><ele>940.0</ele><time>2026-04-12T14:00:15.828Z</time></trkpt><trkpt lat="43.1237574" lon="12.8404417"><ele>941.5</ele><time>2026-04-12T14:00:16.831Z</time></trkpt><trkpt lat="43.1238765" lon="12.8404199"><ele>943.0</ele><time>2026-04-12T14:00:17.836Z</time></trkpt><trkpt lat="43.1239954" lon="12.8404086"><ele>942.75</ele><time>2026-04-12T14:00:18.835Z</time></trkpt><trkpt lat="43.1241203" lon="12.8403887"><ele>942.5</ele><time>2026-04-12T14:00:19.82Z</time></trkpt><trkpt lat="43.1242475" lon="12.8403527"><ele>942.25</ele><time>2026-04-12T14:00:20.84Z</time></trkpt><trkpt lat="43.1243747" lon="12.8403106"><ele>942.0</ele><time>2026-04-12T14:00:21.839Z</time></trkpt><trkpt lat="43.1244936" lon="12.840273"><ele>942.0</ele><time>2026-04-12T14:00:22.844Z</time></trkpt><trkpt lat="43.1246006" lon="12.8402435"><ele>942.0</ele><time>2026-04-12T14:00:23.838Z</time></trkpt><trkpt lat="43.1247024" lon="12.8402251"><ele>942.0</ele><time>2026-04-12T14:00:24.838Z</time></trkpt><trkpt lat="43.124797" lon="12.8402007"><ele>942.0</ele><time>2026-04-12T14:00:25.845Z</time></trkpt><trkpt lat="43.1248957" lon="12.8401603"><ele>942.0</ele><time>2026-04-12T14:00:26.838Z</time></trkpt><trkpt lat="43.1249996" lon="12.8400987"><ele>946.25</ele><time>2026-04-12T14:00:27.846Z</time></trkpt><trkpt lat="43.1251046" lon="12.8400161"><ele>950.5</ele><time>2026-04-12T14:00:28.846Z</time></trkpt><trkpt lat="43.1252195" lon="12.8399236"><ele>954.75</ele><time>2026-04-12T14:00:29.841Z</time></trkpt><trkpt lat="43.1253354" lon="12.8398301"><ele>959.0</ele><time>2026-04-12T14:00:30.832Z</time></trkpt><trkpt lat="43.1254489" lon="12.8397311"><ele>959.0</ele><time>2026-04-12T14:00:31.835Z</time></trkpt><trkpt lat="43.1255674" lon="12.839631"><ele>959.0</ele><time>2026-04-12T14:00:32.828Z</time></trkpt><trkpt lat="43.1256931" lon="12.8395431"><ele>959.0</ele><time>2026-04-12T14:00:33.834Z</time></trkpt><trkpt lat="43.1258197" lon="12.8394841"><ele>959.0</ele><time>2026-04-12T14:00:34.831Z</time></trkpt><trkpt lat="43.125953" lon="12.8394317"><ele>958.5</ele><time>2026-04-12T14:00:35.837Z</time></trkpt><trkpt lat="43.1260947" lon="12.8394108"><ele>958.0</ele><time>2026-04-12T14:00:36.839Z</time></trkpt><trkpt lat="43.1262389" lon="12.8394016"><ele>957.5</ele><time>2026-04-12T14:00:37.83Z</time></trkpt><trkpt lat="43.126388" lon="12.8393921"><ele>957.0</ele><time>2026-04-12T14:00:38.835Z</time></trkpt><trkpt lat="43.126525" lon="12.8393703"><ele>957.75</ele><time>2026-04-12T14:00:39.838Z</time></trkpt><trkpt lat="43.1266518" lon="12.8393456"><ele>958.5</ele><time>2026-04-12T14:00:40.843Z</time></trkpt><trkpt lat="43.1267674" lon="12.8393298"><ele>959.25</ele><time>2026-04-12T14:00:41.834Z</time></trkpt><trkpt lat="43.1268784" lon="12.8393336"><ele>960.0</ele><time>2026-04-12T14:00:42.843Z</time></trkpt><trkpt lat="43.1269978" lon="12.8393377"><ele>960.0</ele><time>2026-04-12T14:00:43.829Z</time></trkpt><trkpt lat="43.1271202" lon="12.8393352"><ele>960.0</ele><time>2026-04-12T14:00:44.837Z</time></trkpt><trkpt lat="43.1272369" lon="12.8393339"><ele>960.0</ele><time>2026-04-12T14:00:45.837Z</time></trkpt><trkpt lat="43.1273328" lon="12.8393231"><ele>960.0</ele><time>2026-04-12T14:00:46.844Z</time></trkpt><trkpt lat="43.1274141" lon="12.8392947"><ele>960.0</ele><time>2026-04-12T14:00:47.841Z</time></trkpt><trkpt lat="43.127447" lon="12.8391341"><ele>962.5</ele><time>2026-04-12T14:00:49.828Z</time></trkpt><trkpt lat="43.1274037" lon="12.8390126"><ele>965.0</ele><time>2026-04-12T14:00:50.835Z</time></trkpt><trkpt lat="43.1273372" lon="12.838897"><ele>967.5</ele><time>2026-04-12T14:00:51.835Z</time></trkpt><trkpt lat="43.1272502" lon="12.8387559"><ele>970.0</ele><time>2026-04-12T14:00:52.828Z</time></trkpt><trkpt lat="43.1271558" lon="12.8385823"><ele>971.5</ele><time>2026-04-12T14:00:53.834Z</time></trkpt><trkpt lat="43.1270813" lon="12.8384069"><ele>973.0</ele><time>2026-04-12T14:00:54.836Z</time></trkpt><trkpt lat="43.127015" lon="12.838231"><ele>974.5</ele><time>2026-04-12T14:00:55.833Z</time></trkpt><trkpt lat="43.1269597" lon="12.8380714"><ele>976.0</ele><time>2026-04-12T14:00:56.832Z</time></trkpt><trkpt lat="43.1269189" lon="12.8379072"><ele>976.0</ele><time>2026-04-12T14:00:57.838Z</time></trkpt><trkpt lat="43.1269223" lon="12.8377324"><ele>976.0</ele><time>2026-04-12T14:00:58.84Z</time></trkpt><trkpt lat="43.1269772" lon="12.8375705"><ele>976.0</ele><time>2026-04-12T14:00:59.839Z</time></trkpt><trkpt lat="43.1270734" lon="12.8374358"><ele>976.0</ele><time>2026-04-12T14:01:00.837Z</time></trkpt><trkpt lat="43.1271968" lon="12.8373068"><ele>974.0</ele><time>2026-04-12T14:01:01.836Z</time></trkpt><trkpt lat="43.1273218" lon="12.8371677"><ele>972.0</ele><time>2026-04-12T14:01:02.834Z</time></trkpt><trkpt lat="43.1274451" lon="12.8370379"><ele>970.0</ele><time>2026-04-12T14:01:03.829Z</time></trkpt><trkpt lat="43.1275622" lon="12.8369166"><ele>969.25</ele><time>2026-04-12T14:01:04.838Z</time></trkpt><trkpt lat="43.1276671" lon="12.8368002"><ele>968.5</ele><time>2026-04-12T14:01:05.834Z</time></trkpt><trkpt lat="43.1277612" lon="12.8366965"><ele>967.75</ele><time>2026-04-12T14:01:06.834Z</time></trkpt><trkpt lat="43.1278587" lon="12.836593"><ele>967.0</ele><time>2026-04-12T14:01:07.836Z</time></trkpt><trkpt lat="43.1279632" lon="12.8364841"><ele>967.0</ele><time>2026-04-12T14:01:08.832Z</time></trkpt><trkpt lat="43.1280662" lon="12.8363711"><ele>967.0</ele><time>2026-04-12T14:01:09.843Z</time></trkpt><trkpt lat="43.1281637" lon="12.8362605"><ele>967.0</ele><time>2026-04-12T14:01:10.844Z</time></trkpt><trkpt lat="43.1282618" lon="12.8361487"><ele>967.0</ele><time>2026-04-12T14:01:11.84Z</time></trkpt><trkpt lat="43.1283601" lon="12.836043"><ele>965.0</ele><time>2026-04-12T14:01:12.834Z</time></trkpt><trkpt lat="43.1284645" lon="12.835941"><ele>963.0</ele><time>2026-04-12T14:01:13.839Z</time></trkpt><trkpt lat="43.1285777" lon="12.8358596"><ele>961.0</ele><time>2026-04-12T14:01:14.841Z</time></trkpt><trkpt lat="43.1287028" lon="12.8357948"><ele>959.0</ele><time>2026-04-12T14:01:15.83Z</time></trkpt><trkpt lat="43.1288339" lon="12.8357346"><ele>959.0</ele><time>2026-04-12T14:01:16.829Z</time></trkpt><trkpt lat="43.128972" lon="12.8356769"><ele>959.0</ele><time>2026-04-12T14:01:17.834Z</time></trkpt><trkpt lat="43.129114" lon="12.8356112"><ele>959.0</ele><time>2026-04-12T14:01:18.835Z</time></trkpt><trkpt lat="43.1292505" lon="12.8355332"><ele>959.0</ele><time>2026-04-12T14:01:19.842Z</time></trkpt><trkpt lat="43.1293833" lon="12.8354538"><ele>959.0</ele><time>2026-04-12T14:01:20.836Z</time></trkpt><trkpt lat="43.1295167" lon="12.8354007"><ele>959.0</ele><time>2026-04-12T14:01:21.839Z</time></trkpt><trkpt lat="43.1296576" lon="12.8353642"><ele>959.0</ele><time>2026-04-12T14:01:22.837Z</time></trkpt><trkpt lat="43.1298085" lon="12.8353507"><ele>959.0</ele><time>2026-04-12T14:01:23.84Z</time></trkpt><trkpt lat="43.1299561" lon="12.8353681"><ele>956.75</ele><time>2026-04-12T14:01:24.843Z</time></trkpt><trkpt lat="43.1300956" lon="12.8353757"><ele>954.5</ele><time>2026-04-12T14:01:25.842Z</time></trkpt><trkpt lat="43.1302247" lon="12.835325"><ele>952.25</ele><time>2026-04-12T14:01:26.825Z</time></trkpt><trkpt lat="43.1303545" lon="12.8352298"><ele>950.0</ele><time>2026-04-12T14:01:27.825Z</time></trkpt><trkpt lat="43.1304801" lon="12.8351119"><ele>951.0</ele><time>2026-04-12T14:01:28.825Z</time></trkpt><trkpt lat="43.1306172" lon="12.8349997"><ele>952.0</ele><time>2026-04-12T14:01:29.825Z</time></trkpt><trkpt lat="43.1307578" lon="12.8349254"><ele>953.0</ele><time>2026-04-12T14:01:30.826Z</time></trkpt><trkpt lat="43.1309013" lon="12.8348749"><ele>953.0</ele><time>2026-04-12T14:01:31.828Z</time></trkpt><trkpt lat="43.131047" lon="12.8348627"><ele>953.0</ele><time>2026-04-12T14:01:32.824Z</time></trkpt><trkpt lat="43.131186" lon="12.8348585"><ele>953.0</ele><time>2026-04-12T14:01:33.836Z</time></trkpt><trkpt lat="43.131316" lon="12.8348554"><ele>953.0</ele><time>2026-04-12T14:01:34.846Z</time></trkpt><trkpt lat="43.1314468" lon="12.8348475"><ele>952.25</ele><time>2026-04-12T14:01:35.829Z</time></trkpt><trkpt lat="43.1315709" lon="12.8348234"><ele>951.5</ele><time>2026-04-12T14:01:36.835Z</time></trkpt><trkpt lat="43.1316962" lon="12.8347563"><ele>950.75</ele><time>2026-04-12T14:01:37.838Z</time></trkpt><trkpt lat="43.1318298" lon="12.8346613"><ele>950.0</ele><time>2026-04-12T14:01:38.825Z</time></trkpt><trkpt lat="43.1319725" lon="12.834542"><ele>950.0</ele><time>2026-04-12T14:01:39.829Z</time></trkpt><trkpt lat="43.1321084" lon="12.8344205"><ele>950.0</ele><time>2026-04-12T14:01:40.825Z</time></trkpt><trkpt lat="43.1322477" lon="12.8342986"><ele>950.0</ele><time>2026-04-12T14:01:41.829Z</time></trkpt><trkpt lat="43.1323871" lon="12.8341853"><ele>948.3333333333334</ele><time>2026-04-12T14:01:42.83Z</time></trkpt><trkpt lat="43.1325246" lon="12.8340761"><ele>946.6666666666667</ele><time>2026-04-12T14:01:43.822Z</time></trkpt><trkpt lat="43.1326595" lon="12.8339656"><ele>945.0</ele><time>2026-04-12T14:01:44.834Z</time></trkpt><trkpt lat="43.1327906" lon="12.8338482"><ele>945.0</ele><time>2026-04-12T14:01:45.821Z</time></trkpt><trkpt lat="43.1329179" lon="12.833722"><ele>945.0</ele><time>2026-04-12T14:01:46.832Z</time></trkpt><trkpt lat="43.1330347" lon="12.8335846"><ele>945.0</ele><time>2026-04-12T14:01:47.836Z</time></trkpt><trkpt lat="43.133148" lon="12.8334294"><ele>943.3333333333333</ele><time>2026-04-12T14:01:48.816Z</time></trkpt><trkpt lat="43.1332616" lon="12.8332652"><ele>941.6666666666666</ele><time>2026-04-12T14:01:49.834Z</time></trkpt><trkpt lat="43.13338" lon="12.833119"><ele>940.0</ele><time>2026-04-12T14:01:50.83Z</time></trkpt><trkpt lat="43.1334859" lon="12.8329823"><ele>940.0</ele><time>2026-04-12T14:01:51.829Z</time></trkpt><trkpt lat="43.1335988" lon="12.832858"><ele>940.0</ele><time>2026-04-12T14:01:52.835Z</time></trkpt><trkpt lat="43.1337087" lon="12.8327416"><ele>940.0</ele><time>2026-04-12T14:01:53.826Z</time></trkpt><trkpt lat="43.1338233" lon="12.8326445"><ele>940.0</ele><time>2026-04-12T14:01:54.833Z</time></trkpt><trkpt lat="43.1339411" lon="12.8325449"><ele>939.25</ele><time>2026-04-12T14:01:55.838Z</time></trkpt><trkpt lat="43.1340686" lon="12.8324605"><ele>938.5</ele><time>2026-04-12T14:01:56.854Z</time></trkpt><trkpt lat="43.1342005" lon="12.8323925"><ele>937.75</ele><time>2026-04-12T14:01:57.833Z</time></trkpt><trkpt lat="43.1343475" lon="12.8323198"><ele>937.0</ele><time>2026-04-12T14:01:58.828Z</time></trkpt><trkpt lat="43.1344886" lon="12.8322188"><ele>937.0</ele><time>2026-04-12T14:01:59.829Z</time></trkpt><trkpt lat="43.1346199" lon="12.8320935"><ele>937.0</ele><time>2026-04-12T14:02:00.83Z</time></trkpt><trkpt lat="43.1347363" lon="12.8319697"><ele>937.0</ele><time>2026-04-12T14:02:01.834Z</time></trkpt><trkpt lat="43.1348437" lon="12.8318665"><ele>937.0</ele><time>2026-04-12T14:02:02.821Z</time></trkpt><trkpt lat="43.1349437" lon="12.8317865"><ele>937.2</ele><time>2026-04-12T14:02:03.851Z</time></trkpt><trkpt lat="43.1350449" lon="12.8317199"><ele>937.4000000000001</ele><time>2026-04-12T14:02:04.834Z</time></trkpt><trkpt lat="43.1351394" lon="12.8316783"><ele>937.5999999999999</ele><time>2026-04-12T14:02:05.84Z</time></trkpt><trkpt lat="43.1352219" lon="12.8316454"><ele>937.8</ele><time>2026-04-12T14:02:06.833Z</time></trkpt><trkpt lat="43.1353004" lon="12.8316093"><ele>938.0</ele><time>2026-04-12T14:02:07.83Z</time></trkpt><trkpt lat="43.135372" lon="12.8315631"><ele>938.0000000000001</ele><time>2026-04-12T14:02:08.831Z</time></trkpt><trkpt lat="43.1354392" lon="12.8315072"><ele>938.0</ele><time>2026-04-12T14:02:09.837Z</time></trkpt><trkpt lat="43.1354991" lon="12.831438"><ele>938.0</ele><time>2026-04-12T14:02:10.84Z</time></trkpt><trkpt lat="43.1355574" lon="12.8313527"><ele>938.0</ele><time>2026-04-12T14:02:11.828Z</time></trkpt><trkpt lat="43.1356097" lon="12.8312523"><ele>938.0000000000001</ele><time>2026-04-12T14:02:12.834Z</time></trkpt><trkpt lat="43.1356624" lon="12.8311401"><ele>938.0</ele><time>2026-04-12T14:02:13.834Z</time></trkpt><trkpt lat="43.1357077" lon="12.8310092"><ele>939.2</ele><time>2026-04-12T14:02:14.832Z</time></trkpt><trkpt lat="43.1357313" lon="12.830877"><ele>940.4</ele><time>2026-04-12T14:02:15.829Z</time></trkpt><trkpt lat="43.1357341" lon="12.8307352"><ele>941.6000000000001</ele><time>2026-04-12T14:02:16.84Z</time></trkpt><trkpt lat="43.1357297" lon="12.8305855"><ele>942.8000000000001</ele><time>2026-04-12T14:02:17.834Z</time></trkpt><trkpt lat="43.135735" lon="12.8304462"><ele>944.0</ele><time>2026-04-12T14:02:18.83Z</time></trkpt><trkpt lat="43.1357463" lon="12.8303012"><ele>944.0000000000001</ele><time>2026-04-12T14:02:19.837Z</time></trkpt><trkpt lat="43.1357709" lon="12.8301701"><ele>944.0</ele><time>2026-04-12T14:02:20.844Z</time></trkpt><trkpt lat="43.1357952" lon="12.8300552"><ele>944.0</ele><time>2026-04-12T14:02:21.835Z</time></trkpt><trkpt lat="43.1358167" lon="12.8299508"><ele>944.0</ele><time>2026-04-12T14:02:22.833Z</time></trkpt><trkpt lat="43.1358495" lon="12.8298655"><ele>944.0000000000001</ele><time>2026-04-12T14:02:23.837Z</time></trkpt><trkpt lat="43.1359356" lon="12.8298157"><ele>944.0</ele><time>2026-04-12T14:02:25.829Z</time></trkpt><trkpt lat="43.1359745" lon="12.8299152"><ele>944.0</ele><time>2026-04-12T14:02:27.843Z</time></trkpt><trkpt lat="43.1359838" lon="12.8300043"><ele>944.0000000000001</ele><time>2026-04-12T14:02:28.837Z</time></trkpt><trkpt lat="43.1360285" lon="12.8300934"><ele>944.0000000000001</ele><time>2026-04-12T14:02:29.837Z</time></trkpt><trkpt lat="43.136091" lon="12.8301877"><ele>944.0</ele><time>2026-04-12T14:02:30.842Z</time></trkpt><trkpt lat="43.1361732" lon="12.8303001"><ele>944.0</ele><time>2026-04-12T14:02:31.847Z</time></trkpt><trkpt lat="43.1362671" lon="12.8304153"><ele>944.0</ele><time>2026-04-12T14:02:32.828Z</time></trkpt><trkpt lat="43.1363706" lon="12.8305286"><ele>944.0</ele><time>2026-04-12T14:02:33.832Z</time></trkpt><trkpt lat="43.1364972" lon="12.8306492"><ele>944.0</ele><time>2026-04-12T14:02:34.829Z</time></trkpt><trkpt lat="43.136628" lon="12.8307647"><ele>944.0</ele><time>2026-04-12T14:02:35.827Z</time></trkpt><trkpt lat="43.1367701" lon="12.8308536"><ele>946.0</ele><time>2026-04-12T14:02:36.83Z</time></trkpt><trkpt lat="43.1369276" lon="12.8309149"><ele>948.0</ele><time>2026-04-12T14:02:37.819Z</time></trkpt><trkpt lat="43.137091" lon="12.830966"><ele>950.0</ele><time>2026-04-12T14:02:38.83Z</time></trkpt><trkpt lat="43.1372533" lon="12.8309981"><ele>953.6666666666667</ele><time>2026-04-12T14:02:39.826Z</time></trkpt><trkpt lat="43.1374108" lon="12.8310317"><ele>957.3333333333333</ele><time>2026-04-12T14:02:40.826Z</time></trkpt><trkpt lat="43.1375684" lon="12.8310626"><ele>961.0</ele><time>2026-04-12T14:02:41.826Z</time></trkpt><trkpt lat="43.1377301" lon="12.8310987"><ele>961.0</ele><time>2026-04-12T14:02:42.848Z</time></trkpt><trkpt lat="43.1378944" lon="12.831128"><ele>961.0</ele><time>2026-04-12T14:02:43.834Z</time></trkpt><trkpt lat="43.1380516" lon="12.8311362"><ele>961.0</ele><time>2026-04-12T14:02:44.842Z</time></trkpt><trkpt lat="43.138204" lon="12.8311464"><ele>962.25</ele><time>2026-04-12T14:02:45.824Z</time></trkpt><trkpt lat="43.1383512" lon="12.831142"><ele>963.5</ele><time>2026-04-12T14:02:46.835Z</time></trkpt><trkpt lat="43.1384891" lon="12.8311308"><ele>964.75</ele><time>2026-04-12T14:02:47.815Z</time></trkpt><trkpt lat="43.138624" lon="12.831112"><ele>966.0</ele><time>2026-04-12T14:02:48.827Z</time></trkpt><trkpt lat="43.1387607" lon="12.8311074"><ele>966.0</ele><time>2026-04-12T14:02:49.835Z</time></trkpt><trkpt lat="43.1389007" lon="12.8310965"><ele>966.0</ele><time>2026-04-12T14:02:50.825Z</time></trkpt><trkpt lat="43.1390448" lon="12.8310779"><ele>966.0</ele><time>2026-04-12T14:02:51.821Z</time></trkpt><trkpt lat="43.139191" lon="12.831049"><ele>966.0</ele><time>2026-04-12T14:02:52.825Z</time></trkpt><trkpt lat="43.139333" lon="12.8309983"><ele>954.6666666666667</ele><time>2026-04-12T14:02:53.831Z</time></trkpt><trkpt lat="43.1394744" lon="12.8309315"><ele>943.3333333333334</ele><time>2026-04-12T14:02:54.826Z</time></trkpt><trkpt lat="43.139616" lon="12.8308282"><ele>932.0</ele><time>2026-04-12T14:02:55.827Z</time></trkpt><trkpt lat="43.1397384" lon="12.8306979"><ele>932.0</ele><time>2026-04-12T14:02:56.82Z</time></trkpt><trkpt lat="43.139844" lon="12.8305464"><ele>932.0</ele><time>2026-04-12T14:02:57.825Z</time></trkpt><trkpt lat="43.1399281" lon="12.8303885"><ele>932.0</ele><time>2026-04-12T14:02:58.824Z</time></trkpt><trkpt lat="43.1399978" lon="12.8302218"><ele>932.0</ele><time>2026-04-12T14:02:59.834Z</time></trkpt><trkpt lat="43.1400637" lon="12.8300482"><ele>928.5</ele><time>2026-04-12T14:03:00.823Z</time></trkpt><trkpt lat="43.140148" lon="12.8298897"><ele>925.0</ele><time>2026-04-12T14:03:01.832Z</time></trkpt><trkpt lat="43.140247" lon="12.8297579"><ele>921.5</ele><time>2026-04-12T14:03:02.825Z</time></trkpt><trkpt lat="43.140362" lon="12.8296783"><ele>918.0</ele><time>2026-04-12T14:03:03.824Z</time></trkpt><trkpt lat="43.1404816" lon="12.8296624"><ele>918.0</ele><time>2026-04-12T14:03:04.822Z</time></trkpt><trkpt lat="43.140589" lon="12.8296924"><ele>918.0</ele><time>2026-04-12T14:03:05.825Z</time></trkpt><trkpt lat="43.1406714" lon="12.8297465"><ele>918.0</ele><time>2026-04-12T14:03:06.828Z</time></trkpt><trkpt lat="43.1407528" lon="12.8297534"><ele>918.0</ele><time>2026-04-12T14:03:07.828Z</time></trkpt><trkpt lat="43.1408183" lon="12.8296977"><ele>918.0</ele><time>2026-04-12T14:03:08.827Z</time></trkpt><trkpt lat="43.1408619" lon="12.8295961"><ele>918.0</ele><time>2026-04-12T14:03:09.825Z</time></trkpt><trkpt lat="43.1408855" lon="12.8294568"><ele>917.5</ele><time>2026-04-12T14:03:10.836Z</time></trkpt><trkpt lat="43.1409058" lon="12.8292998"><ele>917.0</ele><time>2026-04-12T14:03:11.832Z</time></trkpt><trkpt lat="43.1409303" lon="12.8291021"><ele>916.5</ele><time>2026-04-12T14:03:12.827Z</time></trkpt><trkpt lat="43.1409611" lon="12.8288785"><ele>916.0</ele><time>2026-04-12T14:03:13.835Z</time></trkpt><trkpt lat="43.1409993" lon="12.8286455"><ele>909.6666666666666</ele><time>2026-04-12T14:03:14.822Z</time></trkpt><trkpt lat="43.1410411" lon="12.8284164"><ele>903.3333333333333</ele><time>2026-04-12T14:03:15.846Z</time></trkpt><trkpt lat="43.1410943" lon="12.8282052"><ele>897.0</ele><time>2026-04-12T14:03:16.823Z</time></trkpt><trkpt lat="43.1411607" lon="12.8280098"><ele>897.0</ele><time>2026-04-12T14:03:17.828Z</time></trkpt><trkpt lat="43.1412441" lon="12.8278571"><ele>897.0</ele><time>2026-04-12T14:03:18.832Z</time></trkpt><trkpt lat="43.1413502" lon="12.8277439"><ele>897.0</ele><time>2026-04-12T14:03:19.827Z</time></trkpt><trkpt lat="43.1414678" lon="12.8276831"><ele>897.0</ele><time>2026-04-12T14:03:20.824Z</time></trkpt><trkpt lat="43.1416017" lon="12.8276712"><ele>901.5</ele><time>2026-04-12T14:03:21.826Z</time></trkpt><trkpt lat="43.1417308" lon="12.8276748"><ele>906.0</ele><time>2026-04-12T14:03:22.832Z</time></trkpt><trkpt lat="43.1418517" lon="12.8276822"><ele>910.5</ele><time>2026-04-12T14:03:23.83Z</time></trkpt><trkpt lat="43.1419682" lon="12.8277116"><ele>915.0</ele><time>2026-04-12T14:03:24.83Z</time></trkpt><trkpt lat="43.1420877" lon="12.827771"><ele>915.0</ele><time>2026-04-12T14:03:25.827Z</time></trkpt><trkpt lat="43.1421984" lon="12.8278822"><ele>915.0</ele><time>2026-04-12T14:03:26.827Z</time></trkpt><trkpt lat="43.1423042" lon="12.828025"><ele>915.0</ele><time>2026-04-12T14:03:27.831Z</time></trkpt><trkpt lat="43.1423892" lon="12.8281742"><ele>915.0</ele><time>2026-04-12T14:03:28.83Z</time></trkpt><trkpt lat="43.1424548" lon="12.8283394"><ele>913.5</ele><time>2026-04-12T14:03:29.833Z</time></trkpt><trkpt lat="43.1424991" lon="12.8285124"><ele>912.0</ele><time>2026-04-12T14:03:30.833Z</time></trkpt><trkpt lat="43.1425446" lon="12.8286828"><ele>910.5</ele><time>2026-04-12T14:03:31.828Z</time></trkpt><trkpt lat="43.1425977" lon="12.8288412"><ele>909.0</ele><time>2026-04-12T14:03:32.815Z</time></trkpt><trkpt lat="43.1427602" lon="12.829112"><ele>909.0</ele><time>2026-04-12T14:03:34.849Z</time></trkpt><trkpt lat="43.1428735" lon="12.8292067"><ele>909.0</ele><time>2026-04-12T14:03:35.821Z</time></trkpt><trkpt lat="43.1429974" lon="12.8292621"><ele>909.0</ele><time>2026-04-12T14:03:36.833Z</time></trkpt><trkpt lat="43.1431339" lon="12.829262"><ele>909.0</ele><time>2026-04-12T14:03:37.815Z</time></trkpt><trkpt lat="43.143271" lon="12.8292291"><ele>901.3333333333333</ele><time>2026-04-12T14:03:38.829Z</time></trkpt><trkpt lat="43.1434152" lon="12.8291719"><ele>893.6666666666666</ele><time>2026-04-12T14:03:39.821Z</time></trkpt><trkpt lat="43.1435595" lon="12.8290773"><ele>886.0</ele><time>2026-04-12T14:03:40.83Z</time></trkpt><trkpt lat="43.1436749" lon="12.828954"><ele>886.0</ele><time>2026-04-12T14:03:41.821Z</time></trkpt><trkpt lat="43.1437704" lon="12.8288145"><ele>886.0</ele><time>2026-04-12T14:03:42.824Z</time></trkpt><trkpt lat="43.1438745" lon="12.8286813"><ele>886.0</ele><time>2026-04-12T14:03:43.84Z</time></trkpt><trkpt lat="43.1439724" lon="12.8285523"><ele>886.0</ele><time>2026-04-12T14:03:44.825Z</time></trkpt><trkpt lat="43.1440789" lon="12.8284527"><ele>883.25</ele><time>2026-04-12T14:03:45.824Z</time></trkpt><trkpt lat="43.1441983" lon="12.8283854"><ele>880.5</ele><time>2026-04-12T14:03:46.831Z</time></trkpt><trkpt lat="43.144314" lon="12.8283783"><ele>877.75</ele><time>2026-04-12T14:03:47.83Z</time></trkpt><trkpt lat="43.1444245" lon="12.828386"><ele>875.0</ele><time>2026-04-12T14:03:48.822Z</time></trkpt><trkpt lat="43.1445331" lon="12.8283644"><ele>875.0</ele><time>2026-04-12T14:03:49.827Z</time></trkpt><trkpt lat="43.1446148" lon="12.8282568"><ele>875.0</ele><time>2026-04-12T14:03:50.827Z</time></trkpt><trkpt lat="43.1446557" lon="12.828084"><ele>875.0</ele><time>2026-04-12T14:03:51.821Z</time></trkpt><trkpt lat="43.1446835" lon="12.827894"><ele>875.0</ele><time>2026-04-12T14:03:52.826Z</time></trkpt><trkpt lat="43.144706" lon="12.8277027"><ele>874.5</ele><time>2026-04-12T14:03:53.846Z</time></trkpt><trkpt lat="43.1447344" lon="12.827524"><ele>874.0</ele><time>2026-04-12T14:03:54.824Z</time></trkpt><trkpt lat="43.1447699" lon="12.8273602"><ele>873.5</ele><time>2026-04-12T14:03:55.832Z</time></trkpt><trkpt lat="43.144819" lon="12.8272225"><ele>873.0</ele><time>2026-04-12T14:03:56.833Z</time></trkpt><trkpt lat="43.1448897" lon="12.827144"><ele>873.0</ele><time>2026-04-12T14:03:57.831Z</time></trkpt><trkpt lat="43.1449786" lon="12.8271412"><ele>873.0</ele><time>2026-04-12T14:03:58.849Z</time></trkpt><trkpt lat="43.1450762" lon="12.827208"><ele>873.0</ele><time>2026-04-12T14:03:59.822Z</time></trkpt><trkpt lat="43.1451704" lon="12.827308"><ele>873.0</ele><time>2026-04-12T14:04:00.829Z</time></trkpt><trkpt lat="43.1452662" lon="12.8274398"><ele>873.0</ele><time>2026-04-12T14:04:01.827Z</time></trkpt><trkpt lat="43.145392" lon="12.8275998"><ele>873.0</ele><time>2026-04-12T14:04:02.831Z</time></trkpt><trkpt lat="43.1455341" lon="12.82778"><ele>873.0</ele><time>2026-04-12T14:04:03.828Z</time></trkpt><trkpt lat="43.1456631" lon="12.8279629"><ele>874.3333333333333</ele><time>2026-04-12T14:04:04.826Z</time></trkpt><trkpt lat="43.1457804" lon="12.828133"><ele>875.6666666666666</ele><time>2026-04-12T14:04:05.824Z</time></trkpt><trkpt lat="43.1458982" lon="12.8282964"><ele>877.0</ele><time>2026-04-12T14:04:06.826Z</time></trkpt><trkpt lat="43.1460258" lon="12.8284638"><ele>887.0</ele><time>2026-04-12T14:04:07.823Z</time></trkpt><trkpt lat="43.1461595" lon="12.8286173"><ele>897.0</ele><time>2026-04-12T14:04:08.824Z</time></trkpt><trkpt lat="43.1462976" lon="12.8287618"><ele>907.0</ele><time>2026-04-12T14:04:09.823Z</time></trkpt><trkpt lat="43.1464335" lon="12.8289033"><ele>900.3333333333333</ele><time>2026-04-12T14:04:10.835Z</time></trkpt><trkpt lat="43.1465706" lon="12.8290483"><ele>893.6666666666667</ele><time>2026-04-12T14:04:11.831Z</time></trkpt><trkpt lat="43.1467035" lon="12.8292028"><ele>887.0</ele><time>2026-04-12T14:04:12.826Z</time></trkpt><trkpt lat="43.1468237" lon="12.8293496"><ele>887.0</ele><time>2026-04-12T14:04:13.829Z</time></trkpt><trkpt lat="43.1469366" lon="12.8294874"><ele>887.0</ele><time>2026-04-12T14:04:14.824Z</time></trkpt><trkpt lat="43.1470456" lon="12.8296272"><ele>887.0</ele><time>2026-04-12T14:04:15.833Z</time></trkpt><trkpt lat="43.1471435" lon="12.8297773"><ele>887.0</ele><time>2026-04-12T14:04:16.828Z</time></trkpt><trkpt lat="43.1472293" lon="12.8299219"><ele>887.0</ele><time>2026-04-12T14:04:17.829Z</time></trkpt><trkpt lat="43.1473082" lon="12.8300632"><ele>887.0</ele><time>2026-04-12T14:04:18.826Z</time></trkpt><trkpt lat="43.1473739" lon="12.8302246"><ele>887.0</ele><time>2026-04-12T14:04:19.824Z</time></trkpt><trkpt lat="43.1474106" lon="12.8304007"><ele>887.0</ele><time>2026-04-12T14:04:20.833Z</time></trkpt><trkpt lat="43.1474321" lon="12.8305749"><ele>880.75</ele><time>2026-04-12T14:04:21.828Z</time></trkpt><trkpt lat="43.1474585" lon="12.8307448"><ele>874.5</ele><time>2026-04-12T14:04:22.844Z</time></trkpt><trkpt lat="43.1475214" lon="12.8308845"><ele>868.25</ele><time>2026-04-12T14:04:23.839Z</time></trkpt><trkpt lat="43.1476124" lon="12.8310198"><ele>862.0</ele><time>2026-04-12T14:04:24.827Z</time></trkpt><trkpt lat="43.1476915" lon="12.8311784"><ele>861.5</ele><time>2026-04-12T14:04:25.827Z</time></trkpt><trkpt lat="43.1477523" lon="12.8313585"><ele>861.0</ele><time>2026-04-12T14:04:26.83Z</time></trkpt><trkpt lat="43.1477928" lon="12.8315334"><ele>860.5</ele><time>2026-04-12T14:04:27.831Z</time></trkpt><trkpt lat="43.1478318" lon="12.8317011"><ele>860.0</ele><time>2026-04-12T14:04:28.829Z</time></trkpt><trkpt lat="43.147873" lon="12.8318493"><ele>858.8</ele><time>2026-04-12T14:04:29.826Z</time></trkpt><trkpt lat="43.147932" lon="12.8319764"><ele>857.6</ele><time>2026-04-12T14:04:30.825Z</time></trkpt><trkpt lat="43.1480109" lon="12.8320565"><ele>856.4000000000001</ele><time>2026-04-12T14:04:31.832Z</time></trkpt><trkpt lat="43.1480986" lon="12.8320965"><ele>855.2</ele><time>2026-04-12T14:04:32.826Z</time></trkpt><trkpt lat="43.1481816" lon="12.8321079"><ele>854.0</ele><time>2026-04-12T14:04:33.836Z</time></trkpt><trkpt lat="43.1482602" lon="12.8320946"><ele>853.2</ele><time>2026-04-12T14:04:34.825Z</time></trkpt><trkpt lat="43.1483472" lon="12.832072"><ele>852.4000000000001</ele><time>2026-04-12T14:04:35.828Z</time></trkpt><trkpt lat="43.1484313" lon="12.8320514"><ele>851.6</ele><time>2026-04-12T14:04:36.832Z</time></trkpt><trkpt lat="43.1485219" lon="12.8320326"><ele>850.8</ele><time>2026-04-12T14:04:37.83Z</time></trkpt><trkpt lat="43.1486206" lon="12.832025"><ele>850.0</ele><time>2026-04-12T14:04:38.823Z</time></trkpt><trkpt lat="43.148726" lon="12.8320359"><ele>850.0</ele><time>2026-04-12T14:04:39.831Z</time></trkpt><trkpt lat="43.1488409" lon="12.832059"><ele>850.0</ele><time>2026-04-12T14:04:40.84Z</time></trkpt><trkpt lat="43.1489704" lon="12.8320977"><ele>850.0</ele><time>2026-04-12T14:04:41.833Z</time></trkpt><trkpt lat="43.1491091" lon="12.8321457"><ele>850.0</ele><time>2026-04-12T14:04:42.835Z</time></trkpt><trkpt lat="43.149257" lon="12.8321983"><ele>850.3333333333333</ele><time>2026-04-12T14:04:43.831Z</time></trkpt><trkpt lat="43.1494133" lon="12.8322468"><ele>850.6666666666667</ele><time>2026-04-12T14:04:44.826Z</time></trkpt><trkpt lat="43.1495828" lon="12.8322864"><ele>851.0</ele><time>2026-04-12T14:04:45.826Z</time></trkpt><trkpt lat="43.1497579" lon="12.8323184"><ele>853.3333333333334</ele><time>2026-04-12T14:04:46.834Z</time></trkpt><trkpt lat="43.1499421" lon="12.8323423"><ele>855.6666666666667</ele><time>2026-04-12T14:04:47.829Z</time></trkpt><trkpt lat="43.1501226" lon="12.8323468"><ele>858.0</ele><time>2026-04-12T14:04:48.824Z</time></trkpt><trkpt lat="43.1502943" lon="12.8323231"><ele>858.0</ele><time>2026-04-12T14:04:49.824Z</time></trkpt><trkpt lat="43.1504634" lon="12.8322878"><ele>858.0</ele><time>2026-04-12T14:04:50.842Z</time></trkpt><trkpt lat="43.1506164" lon="12.8322865"><ele>858.0</ele><time>2026-04-12T14:04:51.829Z</time></trkpt><trkpt lat="43.1507645" lon="12.8323182"><ele>858.3333333333333</ele><time>2026-04-12T14:04:52.828Z</time></trkpt><trkpt lat="43.150914" lon="12.8323492"><ele>858.6666666666666</ele><time>2026-04-12T14:04:53.829Z</time></trkpt><trkpt lat="43.1510638" lon="12.832346"><ele>859.0</ele><time>2026-04-12T14:04:54.827Z</time></trkpt><trkpt lat="43.1512146" lon="12.8323141"><ele>859.0</ele><time>2026-04-12T14:04:55.822Z</time></trkpt><trkpt lat="43.1513662" lon="12.8323017"><ele>859.0</ele><time>2026-04-12T14:04:56.832Z</time></trkpt><trkpt lat="43.1515113" lon="12.8323137"><ele>859.0</ele><time>2026-04-12T14:04:57.838Z</time></trkpt><trkpt lat="43.1516589" lon="12.8323338"><ele>859.0</ele><time>2026-04-12T14:04:58.833Z</time></trkpt><trkpt lat="43.1518043" lon="12.83237"><ele>859.3333333333333</ele><time>2026-04-12T14:04:59.826Z</time></trkpt><trkpt lat="43.1519532" lon="12.832442"><ele>859.6666666666667</ele><time>2026-04-12T14:05:00.83Z</time></trkpt><trkpt lat="43.1520799" lon="12.8325563"><ele>860.0</ele><time>2026-04-12T14:05:01.824Z</time></trkpt><trkpt lat="43.1521881" lon="12.8327055"><ele>860.3333333333334</ele><time>2026-04-12T14:05:02.83Z</time></trkpt><trkpt lat="43.152289" lon="12.8328748"><ele>860.6666666666667</ele><time>2026-04-12T14:05:03.828Z</time></trkpt><trkpt lat="43.152387" lon="12.8330607"><ele>861.0</ele><time>2026-04-12T14:05:04.828Z</time></trkpt><trkpt lat="43.1524728" lon="12.8332631"><ele>858.0</ele><time>2026-04-12T14:05:05.824Z</time></trkpt><trkpt lat="43.1525417" lon="12.8334754"><ele>855.0</ele><time>2026-04-12T14:05:06.83Z</time></trkpt><trkpt lat="43.1526122" lon="12.8336867"><ele>852.0</ele><time>2026-04-12T14:05:07.826Z</time></trkpt><trkpt lat="43.1526823" lon="12.8338805"><ele>852.0</ele><time>2026-04-12T14:05:08.827Z</time></trkpt><trkpt lat="43.1527522" lon="12.8340632"><ele>852.0</ele><time>2026-04-12T14:05:09.823Z</time></trkpt><trkpt lat="43.1527928" lon="12.8342657"><ele>852.0</ele><time>2026-04-12T14:05:10.848Z</time></trkpt><trkpt lat="43.1527958" lon="12.8344653"><ele>852.0</ele><time>2026-04-12T14:05:11.834Z</time></trkpt><trkpt lat="43.1527598" lon="12.8346643"><ele>852.0</ele><time>2026-04-12T14:05:12.826Z</time></trkpt><trkpt lat="43.1526976" lon="12.8348705"><ele>852.0</ele><time>2026-04-12T14:05:13.831Z</time></trkpt><trkpt lat="43.1526347" lon="12.8350712"><ele>852.0</ele><time>2026-04-12T14:05:14.822Z</time></trkpt><trkpt lat="43.1525821" lon="12.8352797"><ele>851.6666666666667</ele><time>2026-04-12T14:05:15.823Z</time></trkpt><trkpt lat="43.1525517" lon="12.835491"><ele>851.3333333333334</ele><time>2026-04-12T14:05:16.828Z</time></trkpt><trkpt lat="43.1525739" lon="12.83572"><ele>851.0</ele><time>2026-04-12T14:05:17.826Z</time></trkpt><trkpt lat="43.1526344" lon="12.8359487"><ele>849.0</ele><time>2026-04-12T14:05:18.824Z</time></trkpt><trkpt lat="43.1527158" lon="12.8361744"><ele>847.0</ele><time>2026-04-12T14:05:19.813Z</time></trkpt><trkpt lat="43.1527991" lon="12.836396"><ele>845.0</ele><time>2026-04-12T14:05:20.823Z</time></trkpt><trkpt lat="43.1528911" lon="12.8365956"><ele>845.0</ele><time>2026-04-12T14:05:21.824Z</time></trkpt><trkpt lat="43.1530192" lon="12.8367793"><ele>845.0</ele><time>2026-04-12T14:05:22.82Z</time></trkpt><trkpt lat="43.153168" lon="12.8369515"><ele>845.0</ele><time>2026-04-12T14:05:23.825Z</time></trkpt><trkpt lat="43.1533084" lon="12.8371237"><ele>843.0</ele><time>2026-04-12T14:05:24.824Z</time></trkpt><trkpt lat="43.1534218" lon="12.8373172"><ele>841.0</ele><time>2026-04-12T14:05:25.824Z</time></trkpt><trkpt lat="43.1535097" lon="12.8375196"><ele>839.0</ele><time>2026-04-12T14:05:26.823Z</time></trkpt><trkpt lat="43.1535846" lon="12.8377266"><ele>832.3333333333334</ele><time>2026-04-12T14:05:27.825Z</time></trkpt><trkpt lat="43.153683" lon="12.8379162"><ele>825.6666666666667</ele><time>2026-04-12T14:05:28.824Z</time></trkpt><trkpt lat="43.1537964" lon="12.8381048"><ele>819.0</ele><time>2026-04-12T14:05:29.824Z</time></trkpt><trkpt lat="43.1539095" lon="12.8382987"><ele>819.0</ele><time>2026-04-12T14:05:30.83Z</time></trkpt><trkpt lat="43.1540019" lon="12.8385018"><ele>819.0</ele><time>2026-04-12T14:05:31.83Z</time></trkpt><trkpt lat="43.1540824" lon="12.8387159"><ele>819.0</ele><time>2026-04-12T14:05:32.823Z</time></trkpt><trkpt lat="43.1541608" lon="12.8389286"><ele>819.0</ele><time>2026-04-12T14:05:33.83Z</time></trkpt><trkpt lat="43.15426" lon="12.8391306"><ele>819.0</ele><time>2026-04-12T14:05:34.824Z</time></trkpt><trkpt lat="43.1543723" lon="12.8393138"><ele>819.0</ele><time>2026-04-12T14:05:35.828Z</time></trkpt><trkpt lat="43.1545018" lon="12.8394777"><ele>810.3333333333333</ele><time>2026-04-12T14:05:36.83Z</time></trkpt><trkpt lat="43.1546211" lon="12.8396424"><ele>801.6666666666666</ele><time>2026-04-12T14:05:37.834Z</time></trkpt><trkpt lat="43.154721" lon="12.8398191"><ele>793.0</ele><time>2026-04-12T14:05:38.818Z</time></trkpt><trkpt lat="43.1547966" lon="12.8400179"><ele>798.0</ele><time>2026-04-12T14:05:39.821Z</time></trkpt><trkpt lat="43.1548375" lon="12.8402172"><ele>803.0</ele><time>2026-04-12T14:05:40.829Z</time></trkpt><trkpt lat="43.1548617" lon="12.8404185"><ele>808.0</ele><time>2026-04-12T14:05:41.829Z</time></trkpt><trkpt lat="43.1549034" lon="12.8405851"><ele>813.0</ele><time>2026-04-12T14:05:42.832Z</time></trkpt><trkpt lat="43.1549766" lon="12.8407245"><ele>813.0</ele><time>2026-04-12T14:05:43.825Z</time></trkpt><trkpt lat="43.1550795" lon="12.8408369"><ele>813.0</ele><time>2026-04-12T14:05:44.819Z</time></trkpt><trkpt lat="43.1551902" lon="12.840933"><ele>813.0</ele><time>2026-04-12T14:05:45.829Z</time></trkpt><trkpt lat="43.1553174" lon="12.8410273"><ele>813.0</ele><time>2026-04-12T14:05:46.826Z</time></trkpt><trkpt lat="43.1554491" lon="12.8411278"><ele>810.6666666666667</ele><time>2026-04-12T14:05:47.827Z</time></trkpt><trkpt lat="43.1555894" lon="12.8412333"><ele>808.3333333333334</ele><time>2026-04-12T14:05:48.82Z</time></trkpt><trkpt lat="43.1557346" lon="12.8413394"><ele>806.0</ele><time>2026-04-12T14:05:49.826Z</time></trkpt><trkpt lat="43.1558798" lon="12.8414154"><ele>806.0</ele><time>2026-04-12T14:05:50.836Z</time></trkpt><trkpt lat="43.1560353" lon="12.841459"><ele>806.0</ele><time>2026-04-12T14:05:51.83Z</time></trkpt><trkpt lat="43.1562005" lon="12.8414707"><ele>806.0</ele><time>2026-04-12T14:05:52.82Z</time></trkpt><trkpt lat="43.156363" lon="12.8414642"><ele>806.0</ele><time>2026-04-12T14:05:53.821Z</time></trkpt><trkpt lat="43.1565264" lon="12.8414487"><ele>806.0</ele><time>2026-04-12T14:05:54.819Z</time></trkpt><trkpt lat="43.1567006" lon="12.8414399"><ele>806.0</ele><time>2026-04-12T14:05:55.819Z</time></trkpt><trkpt lat="43.1568785" lon="12.8414611"><ele>808.3333333333334</ele><time>2026-04-12T14:05:56.817Z</time></trkpt><trkpt lat="43.157059" lon="12.8414901"><ele>810.6666666666667</ele><time>2026-04-12T14:05:57.825Z</time></trkpt><trkpt lat="43.1572383" lon="12.8415254"><ele>813.0</ele><time>2026-04-12T14:05:58.831Z</time></trkpt><trkpt lat="43.157418" lon="12.8415618"><ele>813.0</ele><time>2026-04-12T14:05:59.836Z</time></trkpt><trkpt lat="43.1576006" lon="12.8416023"><ele>813.0</ele><time>2026-04-12T14:06:00.824Z</time></trkpt><trkpt lat="43.1577833" lon="12.8416412"><ele>813.0</ele><time>2026-04-12T14:06:01.821Z</time></trkpt><trkpt lat="43.1579696" lon="12.8416761"><ele>813.0</ele><time>2026-04-12T14:06:02.825Z</time></trkpt><trkpt lat="43.1581535" lon="12.8417124"><ele>813.0</ele><time>2026-04-12T14:06:03.821Z</time></trkpt><trkpt lat="43.1583435" lon="12.8417459"><ele>813.0</ele><time>2026-04-12T14:06:04.824Z</time></trkpt><trkpt lat="43.1585289" lon="12.8417849"><ele>815.0</ele><time>2026-04-12T14:06:05.825Z</time></trkpt><trkpt lat="43.1587203" lon="12.8418212"><ele>817.0</ele><time>2026-04-12T14:06:06.824Z</time></trkpt><trkpt lat="43.1589095" lon="12.8418572"><ele>819.0</ele><time>2026-04-12T14:06:07.829Z</time></trkpt><trkpt lat="43.1591052" lon="12.8418902"><ele>815.0</ele><time>2026-04-12T14:06:08.821Z</time></trkpt><trkpt lat="43.1592932" lon="12.841923"><ele>811.0</ele><time>2026-04-12T14:06:09.818Z</time></trkpt><trkpt lat="43.1594812" lon="12.8419694"><ele>807.0</ele><time>2026-04-12T14:06:10.821Z</time></trkpt><trkpt lat="43.1596639" lon="12.8420206"><ele>807.0</ele><time>2026-04-12T14:06:11.819Z</time></trkpt><trkpt lat="43.1598493" lon="12.8420594"><ele>807.0</ele><time>2026-04-12T14:06:12.818Z</time></trkpt><trkpt lat="43.1600386" lon="12.8420834"><ele>807.0</ele><time>2026-04-12T14:06:13.825Z</time></trkpt><trkpt lat="43.1602352" lon="12.8420874"><ele>803.0</ele><time>2026-04-12T14:06:14.819Z</time></trkpt><trkpt lat="43.1604332" lon="12.8420836"><ele>799.0</ele><time>2026-04-12T14:06:15.819Z</time></trkpt><trkpt lat="43.1606382" lon="12.8420708"><ele>795.0</ele><time>2026-04-12T14:06:16.816Z</time></trkpt><trkpt lat="43.1608427" lon="12.8420631"><ele>790.0</ele><time>2026-04-12T14:06:17.836Z</time></trkpt><trkpt lat="43.1610413" lon="12.8420506"><ele>785.0</ele><time>2026-04-12T14:06:18.821Z</time></trkpt><trkpt lat="43.1612378" lon="12.8420434"><ele>780.0</ele><time>2026-04-12T14:06:19.814Z</time></trkpt><trkpt lat="43.1614331" lon="12.8420392"><ele>777.0</ele><time>2026-04-12T14:06:20.833Z</time></trkpt><trkpt lat="43.1616292" lon="12.8420387"><ele>774.0</ele><time>2026-04-12T14:06:21.828Z</time></trkpt><trkpt lat="43.1618198" lon="12.8420465"><ele>771.0</ele><time>2026-04-12T14:06:22.823Z</time></trkpt><trkpt lat="43.1620057" lon="12.8420558"><ele>771.0</ele><time>2026-04-12T14:06:23.813Z</time></trkpt><trkpt lat="43.1621941" lon="12.8420677"><ele>771.0</ele><time>2026-04-12T14:06:24.821Z</time></trkpt><trkpt lat="43.1623835" lon="12.8420803"><ele>771.0</ele><time>2026-04-12T14:06:25.814Z</time></trkpt><trkpt lat="43.1625735" lon="12.8420827"><ele>767.0</ele><time>2026-04-12T14:06:26.823Z</time></trkpt><trkpt lat="43.1627618" lon="12.842071"><ele>763.0</ele><time>2026-04-12T14:06:27.82Z</time></trkpt><trkpt lat="43.1629535" lon="12.8420486"><ele>759.0</ele><time>2026-04-12T14:06:28.813Z</time></trkpt><trkpt lat="43.16314" lon="12.8420071"><ele>758.0</ele><time>2026-04-12T14:06:29.82Z</time></trkpt><trkpt lat="43.163326" lon="12.8419505"><ele>757.0</ele><time>2026-04-12T14:06:30.816Z</time></trkpt><trkpt lat="43.1635054" lon="12.8419047"><ele>756.0</ele><time>2026-04-12T14:06:31.822Z</time></trkpt><trkpt lat="43.1636838" lon="12.8418706"><ele>756.0</ele><time>2026-04-12T14:06:32.819Z</time></trkpt><trkpt lat="43.1638652" lon="12.8418465"><ele>756.0</ele><time>2026-04-12T14:06:33.828Z</time></trkpt><trkpt lat="43.1640416" lon="12.8418289"><ele>756.0</ele><time>2026-04-12T14:06:34.823Z</time></trkpt><trkpt lat="43.1642153" lon="12.8418131"><ele>748.6666666666666</ele><time>2026-04-12T14:06:35.819Z</time></trkpt><trkpt lat="43.1643827" lon="12.8417895"><ele>741.3333333333333</ele><time>2026-04-12T14:06:36.827Z</time></trkpt><trkpt lat="43.1645478" lon="12.8417585"><ele>734.0</ele><time>2026-04-12T14:06:37.817Z</time></trkpt><trkpt lat="43.1647164" lon="12.8417072"><ele>731.3333333333333</ele><time>2026-04-12T14:06:38.829Z</time></trkpt><trkpt lat="43.1648822" lon="12.8416208"><ele>728.6666666666666</ele><time>2026-04-12T14:06:39.82Z</time></trkpt><trkpt lat="43.1650424" lon="12.8415006"><ele>726.0</ele><time>2026-04-12T14:06:40.816Z</time></trkpt><trkpt lat="43.1651932" lon="12.8413632"><ele>726.0</ele><time>2026-04-12T14:06:41.816Z</time></trkpt><trkpt lat="43.1653396" lon="12.8412267"><ele>726.0</ele><time>2026-04-12T14:06:42.816Z</time></trkpt><trkpt lat="43.1654704" lon="12.8410874"><ele>726.0</ele><time>2026-04-12T14:06:43.816Z</time></trkpt><trkpt lat="43.1655892" lon="12.8409562"><ele>724.25</ele><time>2026-04-12T14:06:44.821Z</time></trkpt><trkpt lat="43.165712" lon="12.8408588"><ele>722.5</ele><time>2026-04-12T14:06:45.823Z</time></trkpt><trkpt lat="43.1658379" lon="12.8408303"><ele>720.75</ele><time>2026-04-12T14:06:46.824Z</time></trkpt><trkpt lat="43.1659652" lon="12.8408449"><ele>719.0</ele><time>2026-04-12T14:06:47.825Z</time></trkpt><trkpt lat="43.1660845" lon="12.8408817"><ele>719.0</ele><time>2026-04-12T14:06:48.819Z</time></trkpt><trkpt lat="43.1662172" lon="12.840912"><ele>719.0</ele><time>2026-04-12T14:06:49.818Z</time></trkpt><trkpt lat="43.1663563" lon="12.8409122"><ele>719.0</ele><time>2026-04-12T14:06:50.818Z</time></trkpt><trkpt lat="43.1665284" lon="12.8407975"><ele>716.25</ele><time>2026-04-12T14:06:51.822Z</time></trkpt><trkpt lat="43.166665" lon="12.8407062"><ele>713.5</ele><time>2026-04-12T14:06:52.818Z</time></trkpt><trkpt lat="43.1667969" lon="12.8406082"><ele>710.75</ele><time>2026-04-12T14:06:53.819Z</time></trkpt><trkpt lat="43.1669229" lon="12.8405153"><ele>708.0</ele><time>2026-04-12T14:06:54.822Z</time></trkpt><trkpt lat="43.1670445" lon="12.8404574"><ele>708.0</ele><time>2026-04-12T14:06:55.825Z</time></trkpt><trkpt lat="43.167158" lon="12.8404736"><ele>708.0</ele><time>2026-04-12T14:06:56.818Z</time></trkpt><trkpt lat="43.1672564" lon="12.840544"><ele>708.0</ele><time>2026-04-12T14:06:57.825Z</time></trkpt><trkpt lat="43.1673049" lon="12.840675"><ele>708.0</ele><time>2026-04-12T14:06:58.822Z</time></trkpt><trkpt lat="43.1673474" lon="12.8408"><ele>708.0</ele><time>2026-04-12T14:06:59.82Z</time></trkpt><trkpt lat="43.1674333" lon="12.8409535"><ele>709.0</ele><time>2026-04-12T14:07:00.824Z</time></trkpt><trkpt lat="43.1675482" lon="12.8410896"><ele>710.0</ele><time>2026-04-12T14:07:01.823Z</time></trkpt><trkpt lat="43.1676914" lon="12.8411985"><ele>711.0</ele><time>2026-04-12T14:07:02.822Z</time></trkpt><trkpt lat="43.1678433" lon="12.8413053"><ele>711.0</ele><time>2026-04-12T14:07:03.816Z</time></trkpt><trkpt lat="43.1680009" lon="12.8414134"><ele>711.0</ele><time>2026-04-12T14:07:04.828Z</time></trkpt><trkpt lat="43.1681525" lon="12.8415157"><ele>711.0</ele><time>2026-04-12T14:07:05.831Z</time></trkpt><trkpt lat="43.1683017" lon="12.84162"><ele>710.5</ele><time>2026-04-12T14:07:06.822Z</time></trkpt><trkpt lat="43.1684435" lon="12.8417175"><ele>710.0</ele><time>2026-04-12T14:07:07.823Z</time></trkpt><trkpt lat="43.1685724" lon="12.8418134"><ele>709.5</ele><time>2026-04-12T14:07:08.832Z</time></trkpt><trkpt lat="43.1686858" lon="12.841919"><ele>709.0</ele><time>2026-04-12T14:07:09.828Z</time></trkpt><trkpt lat="43.1687844" lon="12.8420196"><ele>709.0</ele><time>2026-04-12T14:07:10.815Z</time></trkpt><trkpt lat="43.1688655" lon="12.8421168"><ele>709.0</ele><time>2026-04-12T14:07:11.815Z</time></trkpt><trkpt lat="43.1689314" lon="12.8421956"><ele>709.0</ele><time>2026-04-12T14:07:12.818Z</time></trkpt><trkpt lat="43.1689882" lon="12.8422479"><ele>709.0</ele><time>2026-04-12T14:07:13.822Z</time></trkpt><trkpt lat="43.1690932" lon="12.8422661"><ele>709.0</ele><time>2026-04-12T14:07:15.82Z</time></trkpt><trkpt lat="43.1691296" lon="12.8421681"><ele>709.0</ele><time>2026-04-12T14:07:17.82Z</time></trkpt><trkpt lat="43.1690769" lon="12.8420781"><ele>709.0</ele><time>2026-04-12T14:07:18.818Z</time></trkpt><trkpt lat="43.1689427" lon="12.8418867"><ele>709.0</ele><time>2026-04-12T14:07:19.826Z</time></trkpt><trkpt lat="43.1688091" lon="12.8416945"><ele>697.3333333333334</ele><time>2026-04-12T14:07:20.826Z</time></trkpt><trkpt lat="43.16868" lon="12.8415407"><ele>685.6666666666666</ele><time>2026-04-12T14:07:21.821Z</time></trkpt><trkpt lat="43.1685613" lon="12.8414096"><ele>674.0</ele><time>2026-04-12T14:07:22.82Z</time></trkpt><trkpt lat="43.1684527" lon="12.8412935"><ele>674.0</ele><time>2026-04-12T14:07:23.825Z</time></trkpt><trkpt lat="43.1683617" lon="12.8411973"><ele>674.0</ele><time>2026-04-12T14:07:24.828Z</time></trkpt><trkpt lat="43.1683051" lon="12.8411301"><ele>674.0</ele><time>2026-04-12T14:07:25.827Z</time></trkpt><trkpt lat="43.1682675" lon="12.841052"><ele>674.0</ele><time>2026-04-12T14:07:26.815Z</time></trkpt><trkpt lat="43.1683603" lon="12.840989"><ele>674.0</ele><time>2026-04-12T14:07:28.813Z</time></trkpt><trkpt lat="43.1684591" lon="12.8410136"><ele>674.0</ele><time>2026-04-12T14:07:29.812Z</time></trkpt><trkpt lat="43.1685773" lon="12.8410741"><ele>674.0</ele><time>2026-04-12T14:07:30.82Z</time></trkpt><trkpt lat="43.1687101" lon="12.8411565"><ele>674.0</ele><time>2026-04-12T14:07:31.827Z</time></trkpt><trkpt lat="43.1688479" lon="12.8412601"><ele>674.0</ele><time>2026-04-12T14:07:32.818Z</time></trkpt><trkpt lat="43.1689823" lon="12.8413928"><ele>674.6666666666666</ele><time>2026-04-12T14:07:33.821Z</time></trkpt><trkpt lat="43.1691114" lon="12.841535"><ele>675.3333333333334</ele><time>2026-04-12T14:07:34.815Z</time></trkpt><trkpt lat="43.1692407" lon="12.8416753"><ele>676.0</ele><time>2026-04-12T14:07:35.813Z</time></trkpt><trkpt lat="43.1693726" lon="12.8418024"><ele>676.0</ele><time>2026-04-12T14:07:36.819Z</time></trkpt><trkpt lat="43.169505" lon="12.8419216"><ele>676.0</ele><time>2026-04-12T14:07:37.82Z</time></trkpt><trkpt lat="43.1696384" lon="12.84204"><ele>676.0</ele><time>2026-04-12T14:07:38.812Z</time></trkpt><trkpt lat="43.1697758" lon="12.8421424"><ele>664.6666666666667</ele><time>2026-04-12T14:07:39.817Z</time></trkpt><trkpt lat="43.1699222" lon="12.842214"><ele>653.3333333333334</ele><time>2026-04-12T14:07:40.814Z</time></trkpt><trkpt lat="43.1700834" lon="12.8422496"><ele>642.0</ele><time>2026-04-12T14:07:41.815Z</time></trkpt><trkpt lat="43.1702525" lon="12.8422812"><ele>642.0</ele><time>2026-04-12T14:07:42.826Z</time></trkpt><trkpt lat="43.1704263" lon="12.8423229"><ele>642.0</ele><time>2026-04-12T14:07:43.814Z</time></trkpt><trkpt lat="43.1706023" lon="12.8423741"><ele>642.0</ele><time>2026-04-12T14:07:44.825Z</time></trkpt><trkpt lat="43.1707743" lon="12.842423"><ele>634.6666666666666</ele><time>2026-04-12T14:07:45.81Z</time></trkpt><trkpt lat="43.1709463" lon="12.8424622"><ele>627.3333333333333</ele><time>2026-04-12T14:07:46.816Z</time></trkpt><trkpt lat="43.171109" lon="12.8424841"><ele>620.0</ele><time>2026-04-12T14:07:47.821Z</time></trkpt><trkpt lat="43.1712788" lon="12.8425101"><ele>620.0</ele><time>2026-04-12T14:07:48.822Z</time></trkpt><trkpt lat="43.1714434" lon="12.8425381"><ele>620.0</ele><time>2026-04-12T14:07:49.83Z</time></trkpt><trkpt lat="43.1716056" lon="12.8425671"><ele>620.0</ele><time>2026-04-12T14:07:50.828Z</time></trkpt><trkpt lat="43.1717623" lon="12.842595"><ele>624.0</ele><time>2026-04-12T14:07:51.822Z</time></trkpt><trkpt lat="43.1719174" lon="12.8426192"><ele>628.0</ele><time>2026-04-12T14:07:52.822Z</time></trkpt><trkpt lat="43.1720704" lon="12.8426459"><ele>632.0</ele><time>2026-04-12T14:07:53.821Z</time></trkpt><trkpt lat="43.1722151" lon="12.84268"><ele>626.0</ele><time>2026-04-12T14:07:54.829Z</time></trkpt><trkpt lat="43.1723583" lon="12.8427139"><ele>620.0</ele><time>2026-04-12T14:07:55.82Z</time></trkpt><trkpt lat="43.1724982" lon="12.8427475"><ele>614.0</ele><time>2026-04-12T14:07:56.816Z</time></trkpt><trkpt lat="43.1726381" lon="12.8427779"><ele>608.0</ele><time>2026-04-12T14:07:57.828Z</time></trkpt><trkpt lat="43.1727806" lon="12.8428033"><ele>608.0</ele><time>2026-04-12T14:07:58.815Z</time></trkpt><trkpt lat="43.1729189" lon="12.8428289"><ele>608.0</ele><time>2026-04-12T14:07:59.824Z</time></trkpt><trkpt lat="43.1730588" lon="12.8428491"><ele>608.0</ele><time>2026-04-12T14:08:00.82Z</time></trkpt><trkpt lat="43.1732032" lon="12.8428681"><ele>608.0</ele><time>2026-04-12T14:08:01.821Z</time></trkpt><trkpt lat="43.1733538" lon="12.8429005"><ele>600.0</ele><time>2026-04-12T14:08:02.821Z</time></trkpt><trkpt lat="43.1735074" lon="12.8429338"><ele>592.0</ele><time>2026-04-12T14:08:03.816Z</time></trkpt><trkpt lat="43.1736628" lon="12.8429668"><ele>584.0</ele><time>2026-04-12T14:08:04.819Z</time></trkpt><trkpt lat="43.1738245" lon="12.8429835"><ele>584.0</ele><time>2026-04-12T14:08:05.821Z</time></trkpt><trkpt lat="43.1739889" lon="12.84298"><ele>584.0</ele><time>2026-04-12T14:08:06.828Z</time></trkpt><trkpt lat="43.1741542" lon="12.8429836"><ele>584.0</ele><time>2026-04-12T14:08:07.841Z</time></trkpt><trkpt lat="43.1743214" lon="12.8430108"><ele>581.3333333333333</ele><time>2026-04-12T14:08:08.824Z</time></trkpt><trkpt lat="43.1744849" lon="12.8430602"><ele>578.6666666666666</ele><time>2026-04-12T14:08:09.825Z</time></trkpt><trkpt lat="43.1746461" lon="12.8431365"><ele>576.0</ele><time>2026-04-12T14:08:10.819Z</time></trkpt><trkpt lat="43.1747988" lon="12.8432407"><ele>579.0</ele><time>2026-04-12T14:08:11.823Z</time></trkpt><trkpt lat="43.1749451" lon="12.8433829"><ele>582.0</ele><time>2026-04-12T14:08:12.819Z</time></trkpt><trkpt lat="43.175083" lon="12.8435463"><ele>585.0</ele><time>2026-04-12T14:08:13.816Z</time></trkpt><trkpt lat="43.175216" lon="12.8437112"><ele>578.3333333333334</ele><time>2026-04-12T14:08:14.824Z</time></trkpt><trkpt lat="43.1753452" lon="12.8438745"><ele>571.6666666666667</ele><time>2026-04-12T14:08:15.817Z</time></trkpt><trkpt lat="43.1754585" lon="12.8440419"><ele>565.0</ele><time>2026-04-12T14:08:16.823Z</time></trkpt><trkpt lat="43.175571" lon="12.844219"><ele>566.0</ele><time>2026-04-12T14:08:17.823Z</time></trkpt><trkpt lat="43.1756803" lon="12.844405"><ele>567.0</ele><time>2026-04-12T14:08:18.816Z</time></trkpt><trkpt lat="43.1758029" lon="12.8445775"><ele>568.0</ele><time>2026-04-12T14:08:19.82Z</time></trkpt><trkpt lat="43.1759341" lon="12.8447303"><ele>568.3333333333334</ele><time>2026-04-12T14:08:20.815Z</time></trkpt><trkpt lat="43.176055" lon="12.8448825"><ele>568.6666666666666</ele><time>2026-04-12T14:08:21.82Z</time></trkpt><trkpt lat="43.1761653" lon="12.8450463"><ele>569.0</ele><time>2026-04-12T14:08:22.822Z</time></trkpt><trkpt lat="43.1762712" lon="12.8452295"><ele>569.0</ele><time>2026-04-12T14:08:23.82Z</time></trkpt><trkpt lat="43.176367" lon="12.8454257"><ele>569.0</ele><time>2026-04-12T14:08:24.824Z</time></trkpt><trkpt lat="43.1764556" lon="12.8456436"><ele>569.0</ele><time>2026-04-12T14:08:25.822Z</time></trkpt><trkpt lat="43.1765462" lon="12.8458537"><ele>565.6666666666666</ele><time>2026-04-12T14:08:26.819Z</time></trkpt><trkpt lat="43.1766365" lon="12.8460703"><ele>562.3333333333334</ele><time>2026-04-12T14:08:27.818Z</time></trkpt><trkpt lat="43.1767273" lon="12.8462928"><ele>559.0</ele><time>2026-04-12T14:08:28.818Z</time></trkpt><trkpt lat="43.1768197" lon="12.846524"><ele>559.0</ele><time>2026-04-12T14:08:29.815Z</time></trkpt><trkpt lat="43.1769123" lon="12.8467459"><ele>559.0</ele><time>2026-04-12T14:08:30.815Z</time></trkpt><trkpt lat="43.1770039" lon="12.8469659"><ele>559.0</ele><time>2026-04-12T14:08:31.822Z</time></trkpt><trkpt lat="43.1770869" lon="12.8471828"><ele>555.0</ele><time>2026-04-12T14:08:32.816Z</time></trkpt><trkpt lat="43.1771587" lon="12.8473975"><ele>551.0</ele><time>2026-04-12T14:08:33.819Z</time></trkpt><trkpt lat="43.1772151" lon="12.8476208"><ele>547.0</ele><time>2026-04-12T14:08:34.816Z</time></trkpt><trkpt lat="43.1772608" lon="12.8478526"><ele>545.0</ele><time>2026-04-12T14:08:35.84Z</time></trkpt><trkpt lat="43.1773035" lon="12.8480933"><ele>543.0</ele><time>2026-04-12T14:08:36.82Z</time></trkpt><trkpt lat="43.1773441" lon="12.8483392"><ele>541.0</ele><time>2026-04-12T14:08:37.821Z</time></trkpt><trkpt lat="43.1773835" lon="12.8485618"><ele>547.0</ele><time>2026-04-12T14:08:38.816Z</time></trkpt><trkpt lat="43.1774238" lon="12.8487595"><ele>553.0</ele><time>2026-04-12T14:08:39.827Z</time></trkpt><trkpt lat="43.1774607" lon="12.8489393"><ele>559.0</ele><time>2026-04-12T14:08:40.83Z</time></trkpt><trkpt lat="43.1774901" lon="12.849108"><ele>565.0</ele><time>2026-04-12T14:08:41.827Z</time></trkpt><trkpt lat="43.1774999" lon="12.8492793"><ele>563.25</ele><time>2026-04-12T14:08:42.822Z</time></trkpt><trkpt lat="43.1775161" lon="12.8494474"><ele>561.5</ele><time>2026-04-12T14:08:43.82Z</time></trkpt><trkpt lat="43.1775696" lon="12.8496016"><ele>559.75</ele><time>2026-04-12T14:08:44.819Z</time></trkpt><trkpt lat="43.1776602" lon="12.8497428"><ele>558.0</ele><time>2026-04-12T14:08:45.826Z</time></trkpt><trkpt lat="43.1777539" lon="12.8498726"><ele>558.0</ele><time>2026-04-12T14:08:46.823Z</time></trkpt><trkpt lat="43.1778298" lon="12.850004"><ele>558.0</ele><time>2026-04-12T14:08:47.823Z</time></trkpt><trkpt lat="43.1778817" lon="12.8501579"><ele>558.0</ele><time>2026-04-12T14:08:48.828Z</time></trkpt><trkpt lat="43.1779128" lon="12.8503259"><ele>558.0</ele><time>2026-04-12T14:08:49.822Z</time></trkpt><trkpt lat="43.1779402" lon="12.8504732"><ele>557.6</ele><time>2026-04-12T14:08:50.833Z</time></trkpt><trkpt lat="43.177986" lon="12.8506072"><ele>557.1999999999999</ele><time>2026-04-12T14:08:51.829Z</time></trkpt><trkpt lat="43.1780607" lon="12.8507183"><ele>556.8</ele><time>2026-04-12T14:08:52.822Z</time></trkpt><trkpt lat="43.1781426" lon="12.8507869"><ele>556.4</ele><time>2026-04-12T14:08:53.833Z</time></trkpt><trkpt lat="43.1782643" lon="12.850787"><ele>556.0</ele><time>2026-04-12T14:08:54.832Z</time></trkpt><trkpt lat="43.1783707" lon="12.8507471"><ele>558.0</ele><time>2026-04-12T14:08:55.82Z</time></trkpt><trkpt lat="43.1784646" lon="12.8506447"><ele>560.0</ele><time>2026-04-12T14:08:56.822Z</time></trkpt><trkpt lat="43.1785191" lon="12.8505029"><ele>562.0</ele><time>2026-04-12T14:08:57.82Z</time></trkpt><trkpt lat="43.1785362" lon="12.8503243"><ele>564.0</ele><time>2026-04-12T14:08:58.827Z</time></trkpt><trkpt lat="43.1785506" lon="12.850139"><ele>566.0</ele><time>2026-04-12T14:08:59.819Z</time></trkpt><trkpt lat="43.1785876" lon="12.8499585"><ele>568.0</ele><time>2026-04-12T14:09:00.815Z</time></trkpt><trkpt lat="43.1786509" lon="12.8497971"><ele>570.0</ele><time>2026-04-12T14:09:01.821Z</time></trkpt><trkpt lat="43.1787495" lon="12.849665"><ele>572.0</ele><time>2026-04-12T14:09:02.82Z</time></trkpt><trkpt lat="43.178874" lon="12.8495669"><ele>572.0</ele><time>2026-04-12T14:09:03.82Z</time></trkpt><trkpt lat="43.1790004" lon="12.8494896"><ele>572.0</ele><time>2026-04-12T14:09:04.82Z</time></trkpt><trkpt lat="43.1791353" lon="12.8494086"><ele>572.0</ele><time>2026-04-12T14:09:05.829Z</time></trkpt><trkpt lat="43.1792577" lon="12.8493089"><ele>572.0</ele><time>2026-04-12T14:09:06.814Z</time></trkpt><trkpt lat="43.1793832" lon="12.8492029"><ele>572.25</ele><time>2026-04-12T14:09:07.817Z</time></trkpt><trkpt lat="43.1795083" lon="12.849104"><ele>572.5</ele><time>2026-04-12T14:09:08.814Z</time></trkpt><trkpt lat="43.1796396" lon="12.849008"><ele>572.75</ele><time>2026-04-12T14:09:09.818Z</time></trkpt><trkpt lat="43.1797653" lon="12.8489198"><ele>573.0</ele><time>2026-04-12T14:09:10.811Z</time></trkpt><trkpt lat="43.1798954" lon="12.8488342"><ele>573.0</ele><time>2026-04-12T14:09:11.816Z</time></trkpt><trkpt lat="43.1800346" lon="12.8487596"><ele>573.0</ele><time>2026-04-12T14:09:12.818Z</time></trkpt><trkpt lat="43.1801731" lon="12.8486861"><ele>573.0</ele><time>2026-04-12T14:09:13.812Z</time></trkpt><trkpt lat="43.1803095" lon="12.8486176"><ele>573.0</ele><time>2026-04-12T14:09:14.818Z</time></trkpt><trkpt lat="43.1804405" lon="12.8485307"><ele>573.0</ele><time>2026-04-12T14:09:15.815Z</time></trkpt><trkpt lat="43.1805775" lon="12.8484612"><ele>573.0</ele><time>2026-04-12T14:09:16.817Z</time></trkpt><trkpt lat="43.1807067" lon="12.848385"><ele>573.0</ele><time>2026-04-12T14:09:17.819Z</time></trkpt><trkpt lat="43.1808347" lon="12.8483008"><ele>573.0</ele><time>2026-04-12T14:09:18.818Z</time></trkpt><trkpt lat="43.1809522" lon="12.8482142"><ele>577.25</ele><time>2026-04-12T14:09:19.822Z</time></trkpt><trkpt lat="43.1810691" lon="12.8481422"><ele>581.5</ele><time>2026-04-12T14:09:20.821Z</time></trkpt><trkpt lat="43.1811901" lon="12.8480955"><ele>585.75</ele><time>2026-04-12T14:09:21.815Z</time></trkpt><trkpt lat="43.1813042" lon="12.8480642"><ele>590.0</ele><time>2026-04-12T14:09:22.819Z</time></trkpt><trkpt lat="43.1814107" lon="12.8480811"><ele>590.0</ele><time>2026-04-12T14:09:23.816Z</time></trkpt><trkpt lat="43.181476" lon="12.8481528"><ele>590.0</ele><time>2026-04-12T14:09:24.819Z</time></trkpt><trkpt lat="43.1815099" lon="12.8482716"><ele>590.0</ele><time>2026-04-12T14:09:25.828Z</time></trkpt><trkpt lat="43.1815179" lon="12.8484116"><ele>590.0</ele><time>2026-04-12T14:09:26.817Z</time></trkpt><trkpt lat="43.1815299" lon="12.8485834"><ele>590.0</ele><time>2026-04-12T14:09:27.814Z</time></trkpt><trkpt lat="43.1815454" lon="12.8487754"><ele>594.25</ele><time>2026-04-12T14:09:28.816Z</time></trkpt><trkpt lat="43.1815628" lon="12.8489758"><ele>598.5</ele><time>2026-04-12T14:09:29.818Z</time></trkpt><trkpt lat="43.1815728" lon="12.8491767"><ele>602.75</ele><time>2026-04-12T14:09:30.818Z</time></trkpt><trkpt lat="43.181573" lon="12.8493732"><ele>607.0</ele><time>2026-04-12T14:09:31.814Z</time></trkpt><trkpt lat="43.181563" lon="12.849554"><ele>607.0</ele><time>2026-04-12T14:09:32.828Z</time></trkpt><trkpt lat="43.1815539" lon="12.8497099"><ele>607.0</ele><time>2026-04-12T14:09:33.839Z</time></trkpt><trkpt lat="43.1815613" lon="12.8498659"><ele>607.0</ele><time>2026-04-12T14:09:34.826Z</time></trkpt><trkpt lat="43.1815999" lon="12.8500132"><ele>607.0</ele><time>2026-04-12T14:09:35.822Z</time></trkpt><trkpt lat="43.1816681" lon="12.8501658"><ele>605.0</ele><time>2026-04-12T14:09:36.825Z</time></trkpt><trkpt lat="43.1817703" lon="12.8502992"><ele>603.0</ele><time>2026-04-12T14:09:37.822Z</time></trkpt><trkpt lat="43.1818761" lon="12.8503667"><ele>601.0</ele><time>2026-04-12T14:09:38.826Z</time></trkpt><trkpt lat="43.1819984" lon="12.850404"><ele>599.0</ele><time>2026-04-12T14:09:39.824Z</time></trkpt><trkpt lat="43.1821333" lon="12.8504273"><ele>599.0</ele><time>2026-04-12T14:09:40.823Z</time></trkpt><trkpt lat="43.1822795" lon="12.8504388"><ele>599.0</ele><time>2026-04-12T14:09:41.824Z</time></trkpt><trkpt lat="43.18242" lon="12.8504926"><ele>599.0</ele><time>2026-04-12T14:09:42.829Z</time></trkpt><trkpt lat="43.1825543" lon="12.8505914"><ele>599.0</ele><time>2026-04-12T14:09:43.834Z</time></trkpt><trkpt lat="43.1826789" lon="12.8507279"><ele>603.0</ele><time>2026-04-12T14:09:44.824Z</time></trkpt><trkpt lat="43.1828069" lon="12.8508616"><ele>607.0</ele><time>2026-04-12T14:09:45.824Z</time></trkpt><trkpt lat="43.1829384" lon="12.8509933"><ele>611.0</ele><time>2026-04-12T14:09:46.823Z</time></trkpt><trkpt lat="43.1830678" lon="12.8510914"><ele>610.0</ele><time>2026-04-12T14:09:47.824Z</time></trkpt><trkpt lat="43.1831945" lon="12.851162"><ele>609.0</ele><time>2026-04-12T14:09:48.825Z</time></trkpt><trkpt lat="43.183324" lon="12.8512085"><ele>608.0</ele><time>2026-04-12T14:09:49.82Z</time></trkpt><trkpt lat="43.1834647" lon="12.8512508"><ele>607.0</ele><time>2026-04-12T14:09:50.822Z</time></trkpt><trkpt lat="43.1836069" lon="12.8512975"><ele>607.0</ele><time>2026-04-12T14:09:51.823Z</time></trkpt><trkpt lat="43.1837504" lon="12.8513603"><ele>607.0</ele><time>2026-04-12T14:09:52.822Z</time></trkpt><trkpt lat="43.1838819" lon="12.8514317"><ele>607.0</ele><time>2026-04-12T14:09:53.817Z</time></trkpt><trkpt lat="43.1840021" lon="12.8515252"><ele>607.0</ele><time>2026-04-12T14:09:54.819Z</time></trkpt><trkpt lat="43.1841101" lon="12.8516374"><ele>607.0</ele><time>2026-04-12T14:09:55.819Z</time></trkpt><trkpt lat="43.1842094" lon="12.8517617"><ele>607.0</ele><time>2026-04-12T14:09:56.821Z</time></trkpt><trkpt lat="43.1842936" lon="12.8519061"><ele>607.0</ele><time>2026-04-12T14:09:57.838Z</time></trkpt><trkpt lat="43.1843617" lon="12.8520687"><ele>607.0</ele><time>2026-04-12T14:09:58.834Z</time></trkpt><trkpt lat="43.1844277" lon="12.8522318"><ele>607.0</ele><time>2026-04-12T14:09:59.833Z</time></trkpt><trkpt lat="43.184497" lon="12.8523886"><ele>607.0</ele><time>2026-04-12T14:10:00.821Z</time></trkpt><trkpt lat="43.184568" lon="12.8525256"><ele>607.0</ele><time>2026-04-12T14:10:01.826Z</time></trkpt><trkpt lat="43.1846369" lon="12.8526368"><ele>607.0</ele><time>2026-04-12T14:10:02.825Z</time></trkpt><trkpt lat="43.1847134" lon="12.8527419"><ele>609.0</ele><time>2026-04-12T14:10:03.82Z</time></trkpt><trkpt lat="43.1847951" lon="12.8528485"><ele>611.0</ele><time>2026-04-12T14:10:04.82Z</time></trkpt><trkpt lat="43.1848781" lon="12.8529511"><ele>613.0</ele><time>2026-04-12T14:10:05.826Z</time></trkpt><trkpt lat="43.1849658" lon="12.8530446"><ele>615.0</ele><time>2026-04-12T14:10:06.826Z</time></trkpt><trkpt lat="43.1850664" lon="12.853136"><ele>615.0</ele><time>2026-04-12T14:10:07.828Z</time></trkpt><trkpt lat="43.1851783" lon="12.8532246"><ele>615.0</ele><time>2026-04-12T14:10:08.836Z</time></trkpt><trkpt lat="43.185299" lon="12.8533212"><ele>615.0</ele><time>2026-04-12T14:10:09.821Z</time></trkpt><trkpt lat="43.1854293" lon="12.8534269"><ele>615.0</ele><time>2026-04-12T14:10:10.823Z</time></trkpt><trkpt lat="43.185562" lon="12.853522"><ele>613.3333333333334</ele><time>2026-04-12T14:10:11.831Z</time></trkpt><trkpt lat="43.1857075" lon="12.8536154"><ele>611.6666666666667</ele><time>2026-04-12T14:10:12.823Z</time></trkpt><trkpt lat="43.1858578" lon="12.8537001"><ele>610.0</ele><time>2026-04-12T14:10:13.819Z</time></trkpt><trkpt lat="43.1860087" lon="12.8537826"><ele>610.0</ele><time>2026-04-12T14:10:14.817Z</time></trkpt><trkpt lat="43.1861628" lon="12.8538634"><ele>610.0</ele><time>2026-04-12T14:10:15.822Z</time></trkpt><trkpt lat="43.1863146" lon="12.8539415"><ele>610.0</ele><time>2026-04-12T14:10:16.815Z</time></trkpt><trkpt lat="43.1864641" lon="12.8540198"><ele>613.3333333333334</ele><time>2026-04-12T14:10:17.819Z</time></trkpt><trkpt lat="43.1866137" lon="12.8540868"><ele>616.6666666666666</ele><time>2026-04-12T14:10:18.825Z</time></trkpt><trkpt lat="43.1867582" lon="12.8541601"><ele>620.0</ele><time>2026-04-12T14:10:19.822Z</time></trkpt><trkpt lat="43.1869047" lon="12.8542356"><ele>618.3333333333333</ele><time>2026-04-12T14:10:20.836Z</time></trkpt><trkpt lat="43.1870473" lon="12.8543155"><ele>616.6666666666666</ele><time>2026-04-12T14:10:21.836Z</time></trkpt><trkpt lat="43.1871861" lon="12.8544051"><ele>615.0</ele><time>2026-04-12T14:10:22.833Z</time></trkpt><trkpt lat="43.187319" lon="12.8544997"><ele>618.5</ele><time>2026-04-12T14:10:23.828Z</time></trkpt><trkpt lat="43.1874419" lon="12.8546244"><ele>622.0</ele><time>2026-04-12T14:10:24.823Z</time></trkpt><trkpt lat="43.1875385" lon="12.8547678"><ele>625.5</ele><time>2026-04-12T14:10:25.824Z</time></trkpt><trkpt lat="43.1876137" lon="12.8549317"><ele>629.0</ele><time>2026-04-12T14:10:26.829Z</time></trkpt><trkpt lat="43.1876855" lon="12.8550977"><ele>626.25</ele><time>2026-04-12T14:10:27.835Z</time></trkpt><trkpt lat="43.1877437" lon="12.85526"><ele>623.5</ele><time>2026-04-12T14:10:28.829Z</time></trkpt><trkpt lat="43.1877945" lon="12.8554092"><ele>620.75</ele><time>2026-04-12T14:10:29.826Z</time></trkpt><trkpt lat="43.187839" lon="12.8555582"><ele>618.0</ele><time>2026-04-12T14:10:30.823Z</time></trkpt><trkpt lat="43.1878805" lon="12.8557223"><ele>618.0</ele><time>2026-04-12T14:10:31.827Z</time></trkpt><trkpt lat="43.1879223" lon="12.8558736"><ele>618.0</ele><time>2026-04-12T14:10:32.826Z</time></trkpt><trkpt lat="43.1879635" lon="12.8560196"><ele>618.0</ele><time>2026-04-12T14:10:33.827Z</time></trkpt><trkpt lat="43.1880245" lon="12.856136"><ele>618.0</ele><time>2026-04-12T14:10:34.838Z</time></trkpt><trkpt lat="43.1881096" lon="12.856209"><ele>618.0</ele><time>2026-04-12T14:10:35.836Z</time></trkpt><trkpt lat="43.1882206" lon="12.8562727"><ele>619.25</ele><time>2026-04-12T14:10:36.826Z</time></trkpt><trkpt lat="43.1883512" lon="12.8563308"><ele>620.5</ele><time>2026-04-12T14:10:37.824Z</time></trkpt><trkpt lat="43.1884865" lon="12.8563862"><ele>621.75</ele><time>2026-04-12T14:10:38.813Z</time></trkpt><trkpt lat="43.1886211" lon="12.856464"><ele>623.0</ele><time>2026-04-12T14:10:39.812Z</time></trkpt><trkpt lat="43.1887555" lon="12.8565558"><ele>623.0</ele><time>2026-04-12T14:10:40.817Z</time></trkpt><trkpt lat="43.1888895" lon="12.8566379"><ele>623.0</ele><time>2026-04-12T14:10:41.835Z</time></trkpt><trkpt lat="43.1890136" lon="12.8567217"><ele>623.0</ele><time>2026-04-12T14:10:42.832Z</time></trkpt><trkpt lat="43.1891249" lon="12.8567956"><ele>623.0</ele><time>2026-04-12T14:10:43.835Z</time></trkpt><trkpt lat="43.1892251" lon="12.8568541"><ele>624.0</ele><time>2026-04-12T14:10:44.837Z</time></trkpt><trkpt lat="43.1893273" lon="12.8568911"><ele>625.0</ele><time>2026-04-12T14:10:45.836Z</time></trkpt><trkpt lat="43.1894301" lon="12.8569004"><ele>626.0</ele><time>2026-04-12T14:10:46.839Z</time></trkpt><trkpt lat="43.1895292" lon="12.8568789"><ele>627.0</ele><time>2026-04-12T14:10:47.841Z</time></trkpt><trkpt lat="43.1896171" lon="12.8568025"><ele>628.0</ele><time>2026-04-12T14:10:48.844Z</time></trkpt><trkpt lat="43.1896778" lon="12.8566823"><ele>628.0</ele><time>2026-04-12T14:10:49.824Z</time></trkpt><trkpt lat="43.1897091" lon="12.8565445"><ele>628.0</ele><time>2026-04-12T14:10:50.84Z</time></trkpt><trkpt lat="43.1897187" lon="12.8563777"><ele>628.0</ele><time>2026-04-12T14:10:51.826Z</time></trkpt><trkpt lat="43.1897161" lon="12.8561881"><ele>628.0</ele><time>2026-04-12T14:10:52.852Z</time></trkpt><trkpt lat="43.1897187" lon="12.855993"><ele>627.25</ele><time>2026-04-12T14:10:53.837Z</time></trkpt><trkpt lat="43.1897411" lon="12.8558174"><ele>626.5</ele><time>2026-04-12T14:10:54.839Z</time></trkpt><trkpt lat="43.1897811" lon="12.8556363"><ele>625.75</ele><time>2026-04-12T14:10:55.836Z</time></trkpt><trkpt lat="43.1898618" lon="12.8554857"><ele>625.0</ele><time>2026-04-12T14:10:56.838Z</time></trkpt><trkpt lat="43.1899595" lon="12.8553631"><ele>625.0</ele><time>2026-04-12T14:10:57.841Z</time></trkpt><trkpt lat="43.1900742" lon="12.8552649"><ele>625.0</ele><time>2026-04-12T14:10:58.831Z</time></trkpt><trkpt lat="43.1901998" lon="12.8552163"><ele>625.0</ele><time>2026-04-12T14:10:59.824Z</time></trkpt><trkpt lat="43.190328" lon="12.8551956"><ele>625.0</ele><time>2026-04-12T14:11:00.824Z</time></trkpt><trkpt lat="43.1904502" lon="12.8551902"><ele>625.0</ele><time>2026-04-12T14:11:01.82Z</time></trkpt><trkpt lat="43.19057" lon="12.8552016"><ele>625.0</ele><time>2026-04-12T14:11:02.82Z</time></trkpt><trkpt lat="43.1906724" lon="12.8552207"><ele>625.0</ele><time>2026-04-12T14:11:03.833Z</time></trkpt><trkpt lat="43.1907734" lon="12.8552461"><ele>625.0</ele><time>2026-04-12T14:11:04.825Z</time></trkpt><trkpt lat="43.1908753" lon="12.8552635"><ele>625.0</ele><time>2026-04-12T14:11:05.822Z</time></trkpt><trkpt lat="43.1909862" lon="12.8552914"><ele>622.75</ele><time>2026-04-12T14:11:06.824Z</time></trkpt><trkpt lat="43.1910999" lon="12.8553163"><ele>620.5</ele><time>2026-04-12T14:11:07.824Z</time></trkpt><trkpt lat="43.1912126" lon="12.8553386"><ele>618.25</ele><time>2026-04-12T14:11:08.824Z</time></trkpt><trkpt lat="43.1913295" lon="12.8553637"><ele>616.0</ele><time>2026-04-12T14:11:09.826Z</time></trkpt><trkpt lat="43.1914423" lon="12.8554122"><ele>616.25</ele><time>2026-04-12T14:11:10.83Z</time></trkpt><trkpt lat="43.1915585" lon="12.8554878"><ele>616.5</ele><time>2026-04-12T14:11:11.827Z</time></trkpt><trkpt lat="43.1916756" lon="12.855577"><ele>616.75</ele><time>2026-04-12T14:11:12.823Z</time></trkpt><trkpt lat="43.1918074" lon="12.8556544"><ele>617.0</ele><time>2026-04-12T14:11:13.829Z</time></trkpt><trkpt lat="43.1919515" lon="12.8557049"><ele>617.0</ele><time>2026-04-12T14:11:14.821Z</time></trkpt><trkpt lat="43.1920975" lon="12.8557345"><ele>617.0</ele><time>2026-04-12T14:11:15.82Z</time></trkpt><trkpt lat="43.192245" lon="12.8557509"><ele>617.0</ele><time>2026-04-12T14:11:16.823Z</time></trkpt><trkpt lat="43.192395" lon="12.8557801"><ele>617.0</ele><time>2026-04-12T14:11:17.819Z</time></trkpt><trkpt lat="43.1925388" lon="12.8558278"><ele>617.5</ele><time>2026-04-12T14:11:18.819Z</time></trkpt><trkpt lat="43.1926705" lon="12.8558927"><ele>618.0</ele><time>2026-04-12T14:11:19.818Z</time></trkpt><trkpt lat="43.1927956" lon="12.8559834"><ele>618.5</ele><time>2026-04-12T14:11:20.831Z</time></trkpt><trkpt lat="43.19291" lon="12.8560871"><ele>619.0</ele><time>2026-04-12T14:11:21.833Z</time></trkpt><trkpt lat="43.1930141" lon="12.8561951"><ele>616.25</ele><time>2026-04-12T14:11:22.815Z</time></trkpt><trkpt lat="43.1931104" lon="12.8563079"><ele>613.5</ele><time>2026-04-12T14:11:23.822Z</time></trkpt><trkpt lat="43.1932051" lon="12.8564251"><ele>610.75</ele><time>2026-04-12T14:11:24.823Z</time></trkpt><trkpt lat="43.1933032" lon="12.8565321"><ele>608.0</ele><time>2026-04-12T14:11:25.832Z</time></trkpt><trkpt lat="43.1933958" lon="12.8566298"><ele>608.0</ele><time>2026-04-12T14:11:26.822Z</time></trkpt><trkpt lat="43.1934889" lon="12.8567274"><ele>608.0</ele><time>2026-04-12T14:11:27.83Z</time></trkpt><trkpt lat="43.1935824" lon="12.8568221"><ele>608.0</ele><time>2026-04-12T14:11:28.825Z</time></trkpt><trkpt lat="43.1936764" lon="12.856912"><ele>608.0</ele><time>2026-04-12T14:11:29.834Z</time></trkpt><trkpt lat="43.1937704" lon="12.8569928"><ele>606.6</ele><time>2026-04-12T14:11:30.831Z</time></trkpt><trkpt lat="43.1938665" lon="12.857078"><ele>605.1999999999999</ele><time>2026-04-12T14:11:31.831Z</time></trkpt><trkpt lat="43.1939633" lon="12.857161"><ele>603.8</ele><time>2026-04-12T14:11:32.821Z</time></trkpt><trkpt lat="43.1940604" lon="12.8572407"><ele>602.4</ele><time>2026-04-12T14:11:33.821Z</time></trkpt><trkpt lat="43.1941528" lon="12.8573146"><ele>601.0</ele><time>2026-04-12T14:11:34.831Z</time></trkpt><trkpt lat="43.1942412" lon="12.8573763"><ele>601.0</ele><time>2026-04-12T14:11:35.831Z</time></trkpt><trkpt lat="43.1943293" lon="12.8574186"><ele>601.0</ele><time>2026-04-12T14:11:36.813Z</time></trkpt><trkpt lat="43.1944112" lon="12.857446"><ele>601.0</ele><time>2026-04-12T14:11:37.83Z</time></trkpt><trkpt lat="43.1944708" lon="12.8574883"><ele>601.0</ele><time>2026-04-12T14:11:38.827Z</time></trkpt><trkpt lat="43.1944878" lon="12.8576013"><ele>601.0</ele><time>2026-04-12T14:11:40.831Z</time></trkpt><trkpt lat="43.1944499" lon="12.8577376"><ele>601.0</ele><time>2026-04-12T14:11:42.818Z</time></trkpt><trkpt lat="43.1944536" lon="12.8578601"><ele>597.75</ele><time>2026-04-12T14:11:43.83Z</time></trkpt><trkpt lat="43.1944844" lon="12.8580011"><ele>594.5</ele><time>2026-04-12T14:11:44.824Z</time></trkpt><trkpt lat="43.1945147" lon="12.8581602"><ele>591.25</ele><time>2026-04-12T14:11:45.815Z</time></trkpt><trkpt lat="43.1945537" lon="12.8583203"><ele>588.0</ele><time>2026-04-12T14:11:46.833Z</time></trkpt><trkpt lat="43.194591" lon="12.8584788"><ele>586.0</ele><time>2026-04-12T14:11:47.835Z</time></trkpt><trkpt lat="43.1946312" lon="12.858642"><ele>584.0</ele><time>2026-04-12T14:11:48.825Z</time></trkpt><trkpt lat="43.1946855" lon="12.858788"><ele>582.0</ele><time>2026-04-12T14:11:49.82Z</time></trkpt><trkpt lat="43.1947583" lon="12.8589004"><ele>580.0</ele><time>2026-04-12T14:11:50.822Z</time></trkpt><trkpt lat="43.1948468" lon="12.8589932"><ele>580.0</ele><time>2026-04-12T14:11:51.825Z</time></trkpt><trkpt lat="43.1949483" lon="12.8590683"><ele>580.0</ele><time>2026-04-12T14:11:52.822Z</time></trkpt><trkpt lat="43.1950457" lon="12.8591432"><ele>580.0</ele><time>2026-04-12T14:11:53.834Z</time></trkpt><trkpt lat="43.1951451" lon="12.8592316"><ele>580.0</ele><time>2026-04-12T14:11:54.819Z</time></trkpt><trkpt lat="43.1952348" lon="12.8593247"><ele>580.6</ele><time>2026-04-12T14:11:55.83Z</time></trkpt><trkpt lat="43.1953099" lon="12.859421"><ele>581.2</ele><time>2026-04-12T14:11:56.826Z</time></trkpt><trkpt lat="43.1953867" lon="12.8595129"><ele>581.8</ele><time>2026-04-12T14:11:57.819Z</time></trkpt><trkpt lat="43.195456" lon="12.8596013"><ele>582.4</ele><time>2026-04-12T14:11:58.828Z</time></trkpt><trkpt lat="43.1955303" lon="12.8596947"><ele>583.0</ele><time>2026-04-12T14:11:59.826Z</time></trkpt><trkpt lat="43.1956054" lon="12.8597847"><ele>582.75</ele><time>2026-04-12T14:12:00.818Z</time></trkpt><trkpt lat="43.1956918" lon="12.8598574"><ele>582.5</ele><time>2026-04-12T14:12:01.83Z</time></trkpt><trkpt lat="43.1957969" lon="12.8599152"><ele>582.25</ele><time>2026-04-12T14:12:02.826Z</time></trkpt><trkpt lat="43.195917" lon="12.8599454"><ele>582.0</ele><time>2026-04-12T14:12:03.822Z</time></trkpt><trkpt lat="43.1960401" lon="12.8599701"><ele>582.0</ele><time>2026-04-12T14:12:04.826Z</time></trkpt><trkpt lat="43.1961567" lon="12.8599893"><ele>582.0</ele><time>2026-04-12T14:12:05.826Z</time></trkpt><trkpt lat="43.1962592" lon="12.8600173"><ele>582.0</ele><time>2026-04-12T14:12:06.832Z</time></trkpt><trkpt lat="43.1963524" lon="12.8600654"><ele>582.0</ele><time>2026-04-12T14:12:07.824Z</time></trkpt><trkpt lat="43.1964358" lon="12.8601199"><ele>582.0</ele><time>2026-04-12T14:12:08.831Z</time></trkpt><trkpt lat="43.1965074" lon="12.8601819"><ele>581.6666666666666</ele><time>2026-04-12T14:12:09.823Z</time></trkpt><trkpt lat="43.1965628" lon="12.8602289"><ele>581.3333333333334</ele><time>2026-04-12T14:12:10.833Z</time></trkpt><trkpt lat="43.1966161" lon="12.8603224"><ele>581.0</ele><time>2026-04-12T14:12:12.827Z</time></trkpt><trkpt lat="43.1966353" lon="12.8604682"><ele>580.6666666666667</ele><time>2026-04-12T14:12:14.819Z</time></trkpt><trkpt lat="43.196634" lon="12.8605584"><ele>580.3333333333334</ele><time>2026-04-12T14:12:15.819Z</time></trkpt><trkpt lat="43.1966194" lon="12.8606643"><ele>580.0</ele><time>2026-04-12T14:12:16.828Z</time></trkpt><trkpt lat="43.196599" lon="12.8607844"><ele>580.0</ele><time>2026-04-12T14:12:17.839Z</time></trkpt><trkpt lat="43.1965932" lon="12.860902"><ele>580.0</ele><time>2026-04-12T14:12:18.821Z</time></trkpt><trkpt lat="43.1965985" lon="12.8610243"><ele>580.0</ele><time>2026-04-12T14:12:19.815Z</time></trkpt><trkpt lat="43.1966143" lon="12.8611588"><ele>580.0</ele><time>2026-04-12T14:12:20.821Z</time></trkpt><trkpt lat="43.1966226" lon="12.8612933"><ele>580.0</ele><time>2026-04-12T14:12:21.822Z</time></trkpt><trkpt lat="43.1966224" lon="12.8614322"><ele>578.8</ele><time>2026-04-12T14:12:22.816Z</time></trkpt><trkpt lat="43.1966158" lon="12.8615681"><ele>577.6</ele><time>2026-04-12T14:12:23.823Z</time></trkpt><trkpt lat="43.1966189" lon="12.8617112"><ele>576.4</ele><time>2026-04-12T14:12:24.826Z</time></trkpt><trkpt lat="43.1966332" lon="12.8618633"><ele>575.2</ele><time>2026-04-12T14:12:25.818Z</time></trkpt><trkpt lat="43.1966506" lon="12.8620033"><ele>574.0</ele><time>2026-04-12T14:12:26.83Z</time></trkpt><trkpt lat="43.1966645" lon="12.8621323"><ele>572.0</ele><time>2026-04-12T14:12:27.821Z</time></trkpt><trkpt lat="43.19667" lon="12.8622596"><ele>570.0</ele><time>2026-04-12T14:12:28.829Z</time></trkpt><trkpt lat="43.1966717" lon="12.8623711"><ele>568.0</ele><time>2026-04-12T14:12:29.826Z</time></trkpt><trkpt lat="43.1966663" lon="12.8624913"><ele>566.0</ele><time>2026-04-12T14:12:30.821Z</time></trkpt><trkpt lat="43.1966594" lon="12.8625889"><ele>564.0</ele><time>2026-04-12T14:12:31.842Z</time></trkpt><trkpt lat="43.1966485" lon="12.8626788"><ele>562.0</ele><time>2026-04-12T14:12:32.81Z</time></trkpt><trkpt lat="43.196636" lon="12.8628538"><ele>562.7142857142858</ele><time>2026-04-12T14:12:34.822Z</time></trkpt><trkpt lat="43.1966249" lon="12.8629482"><ele>563.4285714285714</ele><time>2026-04-12T14:12:35.821Z</time></trkpt><trkpt lat="43.1966062" lon="12.8630533"><ele>564.1428571428571</ele><time>2026-04-12T14:12:36.829Z</time></trkpt><trkpt lat="43.1965879" lon="12.8631479"><ele>564.8571428571429</ele><time>2026-04-12T14:12:37.831Z</time></trkpt><trkpt lat="43.1965628" lon="12.8632419"><ele>565.5714285714286</ele><time>2026-04-12T14:12:38.825Z</time></trkpt><trkpt lat="43.1965343" lon="12.8633339"><ele>566.2857142857143</ele><time>2026-04-12T14:12:39.826Z</time></trkpt><trkpt lat="43.1964954" lon="12.8634261"><ele>567.0</ele><time>2026-04-12T14:12:40.815Z</time></trkpt><trkpt lat="43.1964518" lon="12.863514"><ele>561.6</ele><time>2026-04-12T14:12:41.818Z</time></trkpt><trkpt lat="43.1963953" lon="12.8635974"><ele>556.2</ele><time>2026-04-12T14:12:42.827Z</time></trkpt><trkpt lat="43.1963242" lon="12.8636735"><ele>550.8</ele><time>2026-04-12T14:12:43.825Z</time></trkpt><trkpt lat="43.196249" lon="12.8637604"><ele>545.4</ele><time>2026-04-12T14:12:44.818Z</time></trkpt><trkpt lat="43.1961714" lon="12.8638467"><ele>540.0</ele><time>2026-04-12T14:12:45.822Z</time></trkpt><trkpt lat="43.1960885" lon="12.8639323"><ele>540.0</ele><time>2026-04-12T14:12:46.82Z</time></trkpt><trkpt lat="43.195997" lon="12.8640292"><ele>540.0</ele><time>2026-04-12T14:12:47.829Z</time></trkpt><trkpt lat="43.1959013" lon="12.8641481"><ele>540.0</ele><time>2026-04-12T14:12:48.822Z</time></trkpt><trkpt lat="43.1958082" lon="12.8642823"><ele>540.0</ele><time>2026-04-12T14:12:49.831Z</time></trkpt><trkpt lat="43.195717" lon="12.8644241"><ele>536.75</ele><time>2026-04-12T14:12:50.821Z</time></trkpt><trkpt lat="43.1956338" lon="12.8645633"><ele>533.5</ele><time>2026-04-12T14:12:51.824Z</time></trkpt><trkpt lat="43.1955481" lon="12.8646926"><ele>530.25</ele><time>2026-04-12T14:12:52.832Z</time></trkpt><trkpt lat="43.1954577" lon="12.8648"><ele>527.0</ele><time>2026-04-12T14:12:53.82Z</time></trkpt><trkpt lat="43.195364" lon="12.8648804"><ele>527.0</ele><time>2026-04-12T14:12:54.817Z</time></trkpt><trkpt lat="43.1952697" lon="12.8649279"><ele>527.0</ele><time>2026-04-12T14:12:55.834Z</time></trkpt><trkpt lat="43.1951795" lon="12.8649457"><ele>527.0</ele><time>2026-04-12T14:12:56.821Z</time></trkpt><trkpt lat="43.1950968" lon="12.8649558"><ele>527.0</ele><time>2026-04-12T14:12:57.819Z</time></trkpt><trkpt lat="43.1950123" lon="12.8649885"><ele>527.0</ele><time>2026-04-12T14:12:58.824Z</time></trkpt><trkpt lat="43.1949285" lon="12.8650335"><ele>527.0</ele><time>2026-04-12T14:12:59.829Z</time></trkpt><trkpt lat="43.1948515" lon="12.8650949"><ele>527.0</ele><time>2026-04-12T14:13:00.828Z</time></trkpt><trkpt lat="43.194787" lon="12.865172"><ele>527.0</ele><time>2026-04-12T14:13:01.823Z</time></trkpt><trkpt lat="43.1947235" lon="12.8652564"><ele>527.0</ele><time>2026-04-12T14:13:02.825Z</time></trkpt><trkpt lat="43.1946635" lon="12.8653378"><ele>527.0</ele><time>2026-04-12T14:13:03.818Z</time></trkpt><trkpt lat="43.1945954" lon="12.865429"><ele>527.0</ele><time>2026-04-12T14:13:04.818Z</time></trkpt><trkpt lat="43.1945188" lon="12.8655102"><ele>523.6</ele><time>2026-04-12T14:13:05.822Z</time></trkpt><trkpt lat="43.19444" lon="12.8655916"><ele>520.2</ele><time>2026-04-12T14:13:06.844Z</time></trkpt><trkpt lat="43.1943625" lon="12.8656567"><ele>516.8</ele><time>2026-04-12T14:13:07.831Z</time></trkpt><trkpt lat="43.1942794" lon="12.865719"><ele>513.4</ele><time>2026-04-12T14:13:08.822Z</time></trkpt><trkpt lat="43.1941876" lon="12.8657606"><ele>510.0</ele><time>2026-04-12T14:13:09.834Z</time></trkpt><trkpt lat="43.1940953" lon="12.8657959"><ele>509.8</ele><time>2026-04-12T14:13:10.822Z</time></trkpt><trkpt lat="43.194" lon="12.8658304"><ele>509.6</ele><time>2026-04-12T14:13:11.824Z</time></trkpt><trkpt lat="43.1939053" lon="12.8658736"><ele>509.4</ele><time>2026-04-12T14:13:12.837Z</time></trkpt><trkpt lat="43.1938186" lon="12.865921"><ele>509.2</ele><time>2026-04-12T14:13:13.838Z</time></trkpt><trkpt lat="43.1937362" lon="12.8659843"><ele>509.0</ele><time>2026-04-12T14:13:14.823Z</time></trkpt><trkpt lat="43.1936555" lon="12.8660508"><ele>507.0</ele><time>2026-04-12T14:13:15.825Z</time></trkpt><trkpt lat="43.193578" lon="12.8661354"><ele>505.0</ele><time>2026-04-12T14:13:16.826Z</time></trkpt><trkpt lat="43.1934959" lon="12.8662344"><ele>503.0</ele><time>2026-04-12T14:13:17.829Z</time></trkpt><trkpt lat="43.1934078" lon="12.8663484"><ele>501.0</ele><time>2026-04-12T14:13:18.835Z</time></trkpt><trkpt lat="43.1933199" lon="12.8664504"><ele>499.0</ele><time>2026-04-12T14:13:19.83Z</time></trkpt><trkpt lat="43.1932265" lon="12.8665413"><ele>498.0</ele><time>2026-04-12T14:13:20.831Z</time></trkpt><trkpt lat="43.1931273" lon="12.8666136"><ele>497.0</ele><time>2026-04-12T14:13:21.825Z</time></trkpt><trkpt lat="43.1930258" lon="12.8666837"><ele>496.0</ele><time>2026-04-12T14:13:22.833Z</time></trkpt><trkpt lat="43.1929184" lon="12.8667754"><ele>495.0</ele><time>2026-04-12T14:13:23.835Z</time></trkpt><trkpt lat="43.1928136" lon="12.8668633"><ele>494.4</ele><time>2026-04-12T14:13:24.832Z</time></trkpt><trkpt lat="43.1927181" lon="12.8669537"><ele>493.8</ele><time>2026-04-12T14:13:25.827Z</time></trkpt><trkpt lat="43.1926339" lon="12.8670367"><ele>493.20000000000005</ele><time>2026-04-12T14:13:26.824Z</time></trkpt><trkpt lat="43.1925613" lon="12.8671031"><ele>492.6</ele><time>2026-04-12T14:13:27.833Z</time></trkpt><trkpt lat="43.1924949" lon="12.8671306"><ele>492.0</ele><time>2026-04-12T14:13:28.828Z</time></trkpt><trkpt lat="43.1924212" lon="12.8671302"><ele>492.0</ele><time>2026-04-12T14:13:29.817Z</time></trkpt><trkpt lat="43.1923418" lon="12.8671066"><ele>492.00000000000006</ele><time>2026-04-12T14:13:30.831Z</time></trkpt><trkpt lat="43.1922491" lon="12.8670769"><ele>492.00000000000006</ele><time>2026-04-12T14:13:31.833Z</time></trkpt><trkpt lat="43.1921387" lon="12.8670387"><ele>492.0</ele><time>2026-04-12T14:13:32.827Z</time></trkpt><trkpt lat="43.1920367" lon="12.867005"><ele>492.0</ele><time>2026-04-12T14:13:33.822Z</time></trkpt><trkpt lat="43.1919448" lon="12.8669746"><ele>491.8333333333333</ele><time>2026-04-12T14:13:34.829Z</time></trkpt><trkpt lat="43.191867" lon="12.8669508"><ele>491.66666666666663</ele><time>2026-04-12T14:13:35.823Z</time></trkpt><trkpt lat="43.1917952" lon="12.8669425"><ele>491.5</ele><time>2026-04-12T14:13:36.833Z</time></trkpt><trkpt lat="43.1917373" lon="12.8669778"><ele>491.3333333333333</ele><time>2026-04-12T14:13:37.831Z</time></trkpt><trkpt lat="43.1916934" lon="12.8670698"><ele>491.16666666666663</ele><time>2026-04-12T14:13:38.825Z</time></trkpt><trkpt lat="43.1916609" lon="12.8671814"><ele>491.0</ele><time>2026-04-12T14:13:39.82Z</time></trkpt><trkpt lat="43.191624" lon="12.8673136"><ele>491.0</ele><time>2026-04-12T14:13:40.825Z</time></trkpt><trkpt lat="43.1915843" lon="12.8674403"><ele>491.0</ele><time>2026-04-12T14:13:41.83Z</time></trkpt><trkpt lat="43.1915532" lon="12.867578"><ele>491.0</ele><time>2026-04-12T14:13:42.823Z</time></trkpt><trkpt lat="43.191541" lon="12.8677207"><ele>491.0</ele><time>2026-04-12T14:13:43.83Z</time></trkpt><trkpt lat="43.1915366" lon="12.8678488"><ele>491.0</ele><time>2026-04-12T14:13:44.828Z</time></trkpt><trkpt lat="43.191537" lon="12.8679658"><ele>491.49999999999994</ele><time>2026-04-12T14:13:45.821Z</time></trkpt><trkpt lat="43.1915302" lon="12.8680735"><ele>492.0</ele><time>2026-04-12T14:13:46.827Z</time></trkpt><trkpt lat="43.1915315" lon="12.868177"><ele>492.5</ele><time>2026-04-12T14:13:47.829Z</time></trkpt><trkpt lat="43.1915316" lon="12.8682962"><ele>493.0</ele><time>2026-04-12T14:13:48.842Z</time></trkpt><trkpt lat="43.1915312" lon="12.8684165"><ele>493.49999999999994</ele><time>2026-04-12T14:13:49.822Z</time></trkpt><trkpt lat="43.1915341" lon="12.8685365"><ele>494.0</ele><time>2026-04-12T14:13:50.826Z</time></trkpt><trkpt lat="43.1915391" lon="12.8686436"><ele>496.0</ele><time>2026-04-12T14:13:51.821Z</time></trkpt><trkpt lat="43.191552" lon="12.8687307"><ele>498.0</ele><time>2026-04-12T14:13:52.819Z</time></trkpt><trkpt lat="43.1916062" lon="12.8688524"><ele>500.0</ele><time>2026-04-12T14:13:54.83Z</time></trkpt><trkpt lat="43.1917104" lon="12.8689541"><ele>502.0</ele><time>2026-04-12T14:13:56.827Z</time></trkpt><trkpt lat="43.1917905" lon="12.8689981"><ele>504.0</ele><time>2026-04-12T14:13:57.834Z</time></trkpt><trkpt lat="43.1918845" lon="12.8690403"><ele>504.0</ele><time>2026-04-12T14:13:58.819Z</time></trkpt><trkpt lat="43.1919861" lon="12.8690869"><ele>504.0</ele><time>2026-04-12T14:13:59.828Z</time></trkpt><trkpt lat="43.1921026" lon="12.8691304"><ele>504.0</ele><time>2026-04-12T14:14:00.82Z</time></trkpt><trkpt lat="43.1922136" lon="12.8691626"><ele>504.0</ele><time>2026-04-12T14:14:01.817Z</time></trkpt><trkpt lat="43.1922885" lon="12.8691918"><ele>504.0</ele><time>2026-04-12T14:14:02.821Z</time></trkpt><trkpt lat="43.1922651" lon="12.8692884"><ele>505.79999999999995</ele><time>2026-04-12T14:14:06.824Z</time></trkpt><trkpt lat="43.1921596" lon="12.8693545"><ele>507.59999999999997</ele><time>2026-04-12T14:14:08.836Z</time></trkpt><trkpt lat="43.1921333" lon="12.8694914"><ele>509.4</ele><time>2026-04-12T14:14:10.823Z</time></trkpt><trkpt lat="43.1922456" lon="12.8695642"><ele>511.2</ele><time>2026-04-12T14:14:12.821Z</time></trkpt><trkpt lat="43.1923509" lon="12.8695726"><ele>513.0</ele><time>2026-04-12T14:14:13.831Z</time></trkpt><trkpt lat="43.1924784" lon="12.8695814"><ele>513.0</ele><time>2026-04-12T14:14:14.819Z</time></trkpt><trkpt lat="43.1925881" lon="12.8695777"><ele>513.0</ele><time>2026-04-12T14:14:15.826Z</time></trkpt><trkpt lat="43.1926741" lon="12.8695911"><ele>513.0</ele><time>2026-04-12T14:14:16.826Z</time></trkpt><trkpt lat="43.1927555" lon="12.8696343"><ele>513.0</ele><time>2026-04-12T14:14:17.822Z</time></trkpt><trkpt lat="43.1928293" lon="12.8696962"><ele>513.0</ele><time>2026-04-12T14:14:18.82Z</time></trkpt><trkpt lat="43.192899" lon="12.8697664"><ele>513.0</ele><time>2026-04-12T14:14:19.82Z</time></trkpt><trkpt lat="43.1929733" lon="12.8698194"><ele>513.0</ele><time>2026-04-12T14:14:20.828Z</time></trkpt><trkpt lat="43.1930443" lon="12.8698744"><ele>513.0</ele><time>2026-04-12T14:14:21.827Z</time></trkpt><trkpt lat="43.1931143" lon="12.8699304"><ele>513.0</ele><time>2026-04-12T14:14:22.824Z</time></trkpt><trkpt lat="43.1931799" lon="12.8699856"><ele>513.0</ele><time>2026-04-12T14:14:23.835Z</time></trkpt><trkpt lat="43.193249" lon="12.8700383"><ele>513.0</ele><time>2026-04-12T14:14:24.826Z</time></trkpt><trkpt lat="43.1933251" lon="12.8700897"><ele>518.0</ele><time>2026-04-12T14:14:25.82Z</time></trkpt><trkpt lat="43.1934083" lon="12.8701388"><ele>523.0</ele><time>2026-04-12T14:14:26.824Z</time></trkpt><trkpt lat="43.193487" lon="12.8701832"><ele>528.0</ele><time>2026-04-12T14:14:27.831Z</time></trkpt><trkpt lat="43.1935619" lon="12.8702371"><ele>533.0</ele><time>2026-04-12T14:14:28.819Z</time></trkpt><trkpt lat="43.1936307" lon="12.8703014"><ele>538.0</ele><time>2026-04-12T14:14:29.829Z</time></trkpt><trkpt lat="43.1937" lon="12.8703626"><ele>543.0</ele><time>2026-04-12T14:14:30.82Z</time></trkpt><trkpt lat="43.1937727" lon="12.8704233"><ele>543.0</ele><time>2026-04-12T14:14:31.819Z</time></trkpt><trkpt lat="43.1938421" lon="12.8704747"><ele>543.0</ele><time>2026-04-12T14:14:32.82Z</time></trkpt><trkpt lat="43.1939072" lon="12.8705234"><ele>543.0</ele><time>2026-04-12T14:14:33.825Z</time></trkpt><trkpt lat="43.1939624" lon="12.8705753"><ele>543.0</ele><time>2026-04-12T14:14:34.824Z</time></trkpt><trkpt lat="43.1940439" lon="12.8706972"><ele>543.0</ele><time>2026-04-12T14:14:36.823Z</time></trkpt><trkpt lat="43.194085" lon="12.8707686"><ele>543.0</ele><time>2026-04-12T14:14:37.825Z</time></trkpt><trkpt lat="43.1941325" lon="12.8708372"><ele>541.6666666666666</ele><time>2026-04-12T14:14:38.827Z</time></trkpt><trkpt lat="43.1941734" lon="12.8709141"><ele>540.3333333333334</ele><time>2026-04-12T14:14:39.829Z</time></trkpt><trkpt lat="43.1941989" lon="12.8710075"><ele>539.0</ele><time>2026-04-12T14:14:40.832Z</time></trkpt><trkpt lat="43.1942139" lon="12.871113"><ele>537.6666666666667</ele><time>2026-04-12T14:14:41.835Z</time></trkpt><trkpt lat="43.1942194" lon="12.8712244"><ele>536.3333333333334</ele><time>2026-04-12T14:14:42.821Z</time></trkpt><trkpt lat="43.1942206" lon="12.871341"><ele>535.0</ele><time>2026-04-12T14:14:43.817Z</time></trkpt><trkpt lat="43.1942195" lon="12.8714599"><ele>538.5</ele><time>2026-04-12T14:14:44.827Z</time></trkpt><trkpt lat="43.1942198" lon="12.8715807"><ele>542.0</ele><time>2026-04-12T14:14:45.824Z</time></trkpt><trkpt lat="43.19422" lon="12.871704"><ele>545.5</ele><time>2026-04-12T14:14:46.828Z</time></trkpt><trkpt lat="43.1942286" lon="12.8718245"><ele>549.0</ele><time>2026-04-12T14:14:47.824Z</time></trkpt><trkpt lat="43.194251" lon="12.8719287"><ele>552.5</ele><time>2026-04-12T14:14:48.823Z</time></trkpt><trkpt lat="43.1942845" lon="12.872018"><ele>556.0</ele><time>2026-04-12T14:14:49.809Z</time></trkpt><trkpt lat="43.1943744" lon="12.8721338"><ele>560.3333333333334</ele><time>2026-04-12T14:14:51.825Z</time></trkpt><trkpt lat="43.1944274" lon="12.8722216"><ele>564.6666666666667</ele><time>2026-04-12T14:14:53.828Z</time></trkpt><trkpt lat="43.1943617" lon="12.8722855"><ele>569.0</ele><time>2026-04-12T14:14:55.823Z</time></trkpt><trkpt lat="43.1942447" lon="12.8722941"><ele>573.3333333333334</ele><time>2026-04-12T14:14:57.817Z</time></trkpt><trkpt lat="43.1941795" lon="12.8722854"><ele>577.6666666666666</ele><time>2026-04-12T14:14:58.808Z</time></trkpt><trkpt lat="43.1941109" lon="12.8722664"><ele>582.0</ele><time>2026-04-12T14:14:59.823Z</time></trkpt><trkpt lat="43.194044" lon="12.8722356"><ele>581.0</ele><time>2026-04-12T14:15:00.822Z</time></trkpt><trkpt lat="43.1939766" lon="12.8721905"><ele>580.0</ele><time>2026-04-12T14:15:01.823Z</time></trkpt><trkpt lat="43.1939032" lon="12.8721383"><ele>579.0</ele><time>2026-04-12T14:15:02.821Z</time></trkpt><trkpt lat="43.1938308" lon="12.8720799"><ele>578.0</ele><time>2026-04-12T14:15:03.827Z</time></trkpt><trkpt lat="43.1937603" lon="12.8720182"><ele>577.0</ele><time>2026-04-12T14:15:04.812Z</time></trkpt><trkpt lat="43.1937023" lon="12.8719508"><ele>576.0</ele><time>2026-04-12T14:15:05.816Z</time></trkpt><trkpt lat="43.1936494" lon="12.8719004"><ele>576.0000000000001</ele><time>2026-04-12T14:15:06.832Z</time></trkpt><trkpt lat="43.1935467" lon="12.8719483"><ele>576.0</ele><time>2026-04-12T14:15:08.819Z</time></trkpt><trkpt lat="43.1935104" lon="12.8720397"><ele>576.0</ele><time>2026-04-12T14:15:09.822Z</time></trkpt><trkpt lat="43.1934912" lon="12.8721228"><ele>576.0</ele><time>2026-04-12T14:15:10.822Z</time></trkpt><trkpt lat="43.1934776" lon="12.8722076"><ele>576.0</ele><time>2026-04-12T14:15:11.817Z</time></trkpt><trkpt lat="43.1934612" lon="12.8722923"><ele>576.0000000000001</ele><time>2026-04-12T14:15:12.825Z</time></trkpt><trkpt lat="43.1934391" lon="12.8723884"><ele>576.0</ele><time>2026-04-12T14:15:13.835Z</time></trkpt><trkpt lat="43.1934181" lon="12.8724783"><ele>576.0</ele><time>2026-04-12T14:15:14.83Z</time></trkpt><trkpt lat="43.1933978" lon="12.8725706"><ele>576.0</ele><time>2026-04-12T14:15:15.831Z</time></trkpt><trkpt lat="43.1933743" lon="12.8726551"><ele>576.0</ele><time>2026-04-12T14:15:16.83Z</time></trkpt><trkpt lat="43.1933451" lon="12.8727442"><ele>576.0</ele><time>2026-04-12T14:15:17.828Z</time></trkpt><trkpt lat="43.1933011" lon="12.8728365"><ele>576.0</ele><time>2026-04-12T14:15:18.821Z</time></trkpt><trkpt lat="43.193252" lon="12.8729405"><ele>576.0</ele><time>2026-04-12T14:15:19.817Z</time></trkpt><trkpt lat="43.1932112" lon="12.8730522"><ele>581.2</ele><time>2026-04-12T14:15:20.822Z</time></trkpt><trkpt lat="43.1931744" lon="12.8731757"><ele>586.4000000000001</ele><time>2026-04-12T14:15:21.826Z</time></trkpt><trkpt lat="43.1931415" lon="12.8733068"><ele>591.6</ele><time>2026-04-12T14:15:22.826Z</time></trkpt><trkpt lat="43.1931156" lon="12.8734344"><ele>596.8000000000001</ele><time>2026-04-12T14:15:23.822Z</time></trkpt><trkpt lat="43.1930965" lon="12.8735603"><ele>602.0</ele><time>2026-04-12T14:15:24.822Z</time></trkpt><trkpt lat="43.1930756" lon="12.8737026"><ele>606.8333333333333</ele><time>2026-04-12T14:15:25.825Z</time></trkpt><trkpt lat="43.1930574" lon="12.8738461"><ele>611.6666666666666</ele><time>2026-04-12T14:15:26.819Z</time></trkpt><trkpt lat="43.1930134" lon="12.8739671"><ele>616.5</ele><time>2026-04-12T14:15:27.811Z</time></trkpt><trkpt lat="43.1929576" lon="12.874035"><ele>621.3333333333334</ele><time>2026-04-12T14:15:28.82Z</time></trkpt><trkpt lat="43.1928837" lon="12.8740693"><ele>626.1666666666667</ele><time>2026-04-12T14:15:29.82Z</time></trkpt><trkpt lat="43.1928091" lon="12.8740636"><ele>631.0</ele><time>2026-04-12T14:15:30.816Z</time></trkpt><trkpt lat="43.1927328" lon="12.8740419"><ele>631.0</ele><time>2026-04-12T14:15:31.823Z</time></trkpt><trkpt lat="43.1926478" lon="12.8740062"><ele>631.0</ele><time>2026-04-12T14:15:32.816Z</time></trkpt><trkpt lat="43.1925648" lon="12.8739724"><ele>631.0</ele><time>2026-04-12T14:15:33.84Z</time></trkpt><trkpt lat="43.192476" lon="12.8739349"><ele>631.0</ele><time>2026-04-12T14:15:34.828Z</time></trkpt><trkpt lat="43.1923937" lon="12.8739037"><ele>631.0</ele><time>2026-04-12T14:15:35.825Z</time></trkpt><trkpt lat="43.19232" lon="12.8738714"><ele>631.0</ele><time>2026-04-12T14:15:36.827Z</time></trkpt><trkpt lat="43.1922351" lon="12.8738342"><ele>632.2</ele><time>2026-04-12T14:15:37.83Z</time></trkpt><trkpt lat="43.192142" lon="12.8737874"><ele>633.4000000000001</ele><time>2026-04-12T14:15:38.818Z</time></trkpt><trkpt lat="43.1920695" lon="12.8737432"><ele>634.6</ele><time>2026-04-12T14:15:39.823Z</time></trkpt><trkpt lat="43.1919907" lon="12.8736919"><ele>635.8000000000001</ele><time>2026-04-12T14:15:41.819Z</time></trkpt><trkpt lat="43.1918841" lon="12.8737033"><ele>637.0</ele><time>2026-04-12T14:15:43.82Z</time></trkpt><trkpt lat="43.1918183" lon="12.8737736"><ele>637.0</ele><time>2026-04-12T14:15:45.825Z</time></trkpt><trkpt lat="43.1917546" lon="12.873923"><ele>637.0</ele><time>2026-04-12T14:15:47.834Z</time></trkpt><trkpt lat="43.1917195" lon="12.8740072"><ele>637.0</ele><time>2026-04-12T14:15:48.834Z</time></trkpt><trkpt lat="43.1916911" lon="12.874087"><ele>637.0</ele><time>2026-04-12T14:15:49.82Z</time></trkpt><trkpt lat="43.1916742" lon="12.8742444"><ele>637.0</ele><time>2026-04-12T14:15:51.827Z</time></trkpt><trkpt lat="43.1916906" lon="12.8744247"><ele>638.8333333333334</ele><time>2026-04-12T14:15:53.814Z</time></trkpt><trkpt lat="43.1916872" lon="12.8745326"><ele>640.6666666666667</ele><time>2026-04-12T14:15:54.833Z</time></trkpt><trkpt lat="43.1916619" lon="12.874638"><ele>642.5</ele><time>2026-04-12T14:15:55.821Z</time></trkpt><trkpt lat="43.1916155" lon="12.8747307"><ele>644.3333333333334</ele><time>2026-04-12T14:15:56.813Z</time></trkpt><trkpt lat="43.1915592" lon="12.8748367"><ele>646.1666666666666</ele><time>2026-04-12T14:15:57.826Z</time></trkpt><trkpt lat="43.1915001" lon="12.8749499"><ele>648.0</ele><time>2026-04-12T14:15:58.826Z</time></trkpt><trkpt lat="43.1914508" lon="12.8750701"><ele>653.2</ele><time>2026-04-12T14:15:59.814Z</time></trkpt><trkpt lat="43.1914008" lon="12.8751918"><ele>658.4</ele><time>2026-04-12T14:16:00.825Z</time></trkpt><trkpt lat="43.1913487" lon="12.875303"><ele>663.6</ele><time>2026-04-12T14:16:01.823Z</time></trkpt><trkpt lat="43.1912873" lon="12.8754117"><ele>668.8000000000001</ele><time>2026-04-12T14:16:02.825Z</time></trkpt><trkpt lat="43.1912164" lon="12.8755139"><ele>674.0</ele><time>2026-04-12T14:16:03.827Z</time></trkpt><trkpt lat="43.1911443" lon="12.8756141"><ele>674.0</ele><time>2026-04-12T14:16:04.824Z</time></trkpt><trkpt lat="43.1910727" lon="12.8757127"><ele>674.0</ele><time>2026-04-12T14:16:05.822Z</time></trkpt><trkpt lat="43.1910072" lon="12.8758259"><ele>674.0</ele><time>2026-04-12T14:16:06.836Z</time></trkpt><trkpt lat="43.1909608" lon="12.8759343"><ele>674.0</ele><time>2026-04-12T14:16:07.822Z</time></trkpt><trkpt lat="43.1909247" lon="12.8760314"><ele>674.0</ele><time>2026-04-12T14:16:08.828Z</time></trkpt><trkpt lat="43.1908883" lon="12.8761471"><ele>677.8333333333333</ele><time>2026-04-12T14:16:09.823Z</time></trkpt><trkpt lat="43.1908516" lon="12.8762495"><ele>681.6666666666666</ele><time>2026-04-12T14:16:10.824Z</time></trkpt><trkpt lat="43.1908171" lon="12.8763601"><ele>685.5</ele><time>2026-04-12T14:16:11.819Z</time></trkpt><trkpt lat="43.1907765" lon="12.8764635"><ele>689.3333333333334</ele><time>2026-04-12T14:16:12.823Z</time></trkpt><trkpt lat="43.1907403" lon="12.8765725"><ele>693.1666666666667</ele><time>2026-04-12T14:16:13.819Z</time></trkpt><trkpt lat="43.1907043" lon="12.8766946"><ele>697.0</ele><time>2026-04-12T14:16:14.82Z</time></trkpt><trkpt lat="43.1906834" lon="12.8768158"><ele>699.8333333333334</ele><time>2026-04-12T14:16:15.822Z</time></trkpt><trkpt lat="43.1906682" lon="12.8769263"><ele>702.6666666666667</ele><time>2026-04-12T14:16:16.82Z</time></trkpt><trkpt lat="43.190656" lon="12.8770355"><ele>705.5</ele><time>2026-04-12T14:16:17.819Z</time></trkpt><trkpt lat="43.1906344" lon="12.8771559"><ele>708.3333333333334</ele><time>2026-04-12T14:16:18.822Z</time></trkpt><trkpt lat="43.1906107" lon="12.877283"><ele>711.1666666666666</ele><time>2026-04-12T14:16:19.822Z</time></trkpt><trkpt lat="43.19058" lon="12.8773889"><ele>714.0</ele><time>2026-04-12T14:16:20.822Z</time></trkpt><trkpt lat="43.190535" lon="12.8774933"><ele>714.0</ele><time>2026-04-12T14:16:21.821Z</time></trkpt><trkpt lat="43.190473" lon="12.8775756"><ele>714.0</ele><time>2026-04-12T14:16:22.823Z</time></trkpt><trkpt lat="43.1903943" lon="12.8776405"><ele>714.0</ele><time>2026-04-12T14:16:23.809Z</time></trkpt><trkpt lat="43.1903013" lon="12.8777011"><ele>714.0</ele><time>2026-04-12T14:16:24.825Z</time></trkpt><trkpt lat="43.1901865" lon="12.8777309"><ele>714.0</ele><time>2026-04-12T14:16:25.82Z</time></trkpt><trkpt lat="43.1900767" lon="12.8777897"><ele>714.6666666666666</ele><time>2026-04-12T14:16:26.815Z</time></trkpt><trkpt lat="43.1899814" lon="12.8778643"><ele>715.3333333333334</ele><time>2026-04-12T14:16:27.822Z</time></trkpt><trkpt lat="43.189895" lon="12.8779255"><ele>716.0</ele><time>2026-04-12T14:16:28.826Z</time></trkpt><trkpt lat="43.1898215" lon="12.8779779"><ele>716.6666666666667</ele><time>2026-04-12T14:16:29.826Z</time></trkpt><trkpt lat="43.1897597" lon="12.8780192"><ele>717.3333333333334</ele><time>2026-04-12T14:16:30.818Z</time></trkpt><trkpt lat="43.1897072" lon="12.8780736"><ele>718.0</ele><time>2026-04-12T14:16:31.821Z</time></trkpt><trkpt lat="43.1896486" lon="12.8781747"><ele>718.0</ele><time>2026-04-12T14:16:32.815Z</time></trkpt><trkpt lat="43.1895967" lon="12.878289"><ele>718.0</ele><time>2026-04-12T14:16:33.817Z</time></trkpt><trkpt lat="43.1895595" lon="12.8783879"><ele>718.0</ele><time>2026-04-12T14:16:34.82Z</time></trkpt><trkpt lat="43.1895387" lon="12.878546"><ele>718.0</ele><time>2026-04-12T14:16:36.824Z</time></trkpt><trkpt lat="43.1895512" lon="12.8786991"><ele>718.0</ele><time>2026-04-12T14:16:38.827Z</time></trkpt><trkpt lat="43.1895996" lon="12.8788507"><ele>719.3333333333334</ele><time>2026-04-12T14:16:40.823Z</time></trkpt><trkpt lat="43.1896361" lon="12.878937"><ele>720.6666666666667</ele><time>2026-04-12T14:16:41.819Z</time></trkpt><trkpt lat="43.1896761" lon="12.8790287"><ele>722.0</ele><time>2026-04-12T14:16:42.836Z</time></trkpt><trkpt lat="43.1897116" lon="12.8791245"><ele>723.3333333333334</ele><time>2026-04-12T14:16:43.825Z</time></trkpt><trkpt lat="43.1897374" lon="12.8792301"><ele>724.6666666666666</ele><time>2026-04-12T14:16:44.824Z</time></trkpt><trkpt lat="43.1897582" lon="12.8793394"><ele>726.0</ele><time>2026-04-12T14:16:45.818Z</time></trkpt><trkpt lat="43.1897755" lon="12.8794452"><ele>726.8333333333334</ele><time>2026-04-12T14:16:46.819Z</time></trkpt><trkpt lat="43.1898044" lon="12.8795457"><ele>727.6666666666666</ele><time>2026-04-12T14:16:47.83Z</time></trkpt><trkpt lat="43.1898377" lon="12.8796436"><ele>728.5</ele><time>2026-04-12T14:16:48.821Z</time></trkpt><trkpt lat="43.1898769" lon="12.8797379"><ele>729.3333333333333</ele><time>2026-04-12T14:16:49.821Z</time></trkpt><trkpt lat="43.1899155" lon="12.8798311"><ele>730.1666666666666</ele><time>2026-04-12T14:16:50.819Z</time></trkpt><trkpt lat="43.1899472" lon="12.8799157"><ele>731.0</ele><time>2026-04-12T14:16:51.823Z</time></trkpt><trkpt lat="43.1899838" lon="12.8799966"><ele>738.1999999999999</ele><time>2026-04-12T14:16:52.83Z</time></trkpt><trkpt lat="43.19004" lon="12.8801337"><ele>745.4</ele><time>2026-04-12T14:16:54.824Z</time></trkpt><trkpt lat="43.1900897" lon="12.8802409"><ele>752.6</ele><time>2026-04-12T14:16:56.823Z</time></trkpt><trkpt lat="43.1901245" lon="12.880346"><ele>759.8</ele><time>2026-04-12T14:17:15.826Z</time></trkpt><trkpt lat="43.1901807" lon="12.8804595"><ele>767.0</ele><time>2026-04-12T14:17:17.82Z</time></trkpt><trkpt lat="43.1902339" lon="12.8805843"><ele>767.0</ele><time>2026-04-12T14:17:19.823Z</time></trkpt><trkpt lat="43.1902636" lon="12.8806628"><ele>767.0</ele><time>2026-04-12T14:17:20.823Z</time></trkpt><trkpt lat="43.1903004" lon="12.8807437"><ele>767.0</ele><time>2026-04-12T14:17:21.816Z</time></trkpt><trkpt lat="43.190346" lon="12.8808418"><ele>767.0</ele><time>2026-04-12T14:17:22.821Z</time></trkpt><trkpt lat="43.1903829" lon="12.8809384"><ele>767.0</ele><time>2026-04-12T14:17:23.818Z</time></trkpt><trkpt lat="43.1904225" lon="12.8810361"><ele>767.0</ele><time>2026-04-12T14:17:24.825Z</time></trkpt><trkpt lat="43.1904678" lon="12.8811249"><ele>765.3333333333333</ele><time>2026-04-12T14:17:25.828Z</time></trkpt><trkpt lat="43.1905075" lon="12.8812222"><ele>763.6666666666666</ele><time>2026-04-12T14:17:26.835Z</time></trkpt><trkpt lat="43.1905524" lon="12.8813223"><ele>762.0</ele><time>2026-04-12T14:17:27.831Z</time></trkpt><trkpt lat="43.1905994" lon="12.8814228"><ele>760.3333333333334</ele><time>2026-04-12T14:17:28.818Z</time></trkpt><trkpt lat="43.1906508" lon="12.8815207"><ele>758.6666666666667</ele><time>2026-04-12T14:17:29.824Z</time></trkpt><trkpt lat="43.1907035" lon="12.8816324"><ele>757.0</ele><time>2026-04-12T14:17:30.821Z</time></trkpt><trkpt lat="43.1907521" lon="12.881737"><ele>761.0</ele><time>2026-04-12T14:17:31.824Z</time></trkpt><trkpt lat="43.1907974" lon="12.8818429"><ele>765.0</ele><time>2026-04-12T14:17:32.828Z</time></trkpt><trkpt lat="43.1908442" lon="12.8819436"><ele>769.0</ele><time>2026-04-12T14:17:33.819Z</time></trkpt><trkpt lat="43.1908934" lon="12.8820414"><ele>773.0</ele><time>2026-04-12T14:17:34.823Z</time></trkpt><trkpt lat="43.1909395" lon="12.8821435"><ele>776.9999999999999</ele><time>2026-04-12T14:17:35.82Z</time></trkpt><trkpt lat="43.1909836" lon="12.8822528"><ele>781.0</ele><time>2026-04-12T14:17:36.824Z</time></trkpt><trkpt lat="43.1910303" lon="12.8823611"><ele>780.9999999999999</ele><time>2026-04-12T14:17:37.826Z</time></trkpt><trkpt lat="43.1910777" lon="12.8824622"><ele>781.0</ele><time>2026-04-12T14:17:38.822Z</time></trkpt><trkpt lat="43.1911224" lon="12.882561"><ele>781.0</ele><time>2026-04-12T14:17:39.828Z</time></trkpt><trkpt lat="43.1911688" lon="12.8826583"><ele>781.0</ele><time>2026-04-12T14:17:40.831Z</time></trkpt><trkpt lat="43.1912173" lon="12.8827567"><ele>780.9999999999999</ele><time>2026-04-12T14:17:41.83Z</time></trkpt><trkpt lat="43.1912659" lon="12.8828617"><ele>781.0</ele><time>2026-04-12T14:17:42.833Z</time></trkpt><trkpt lat="43.1913196" lon="12.8829703"><ele>781.1999999999999</ele><time>2026-04-12T14:17:43.841Z</time></trkpt><trkpt lat="43.1913715" lon="12.8830763"><ele>781.4</ele><time>2026-04-12T14:17:44.826Z</time></trkpt><trkpt lat="43.1914242" lon="12.8831824"><ele>781.6</ele><time>2026-04-12T14:17:45.825Z</time></trkpt><trkpt lat="43.1914792" lon="12.8832891"><ele>781.8</ele><time>2026-04-12T14:17:46.824Z</time></trkpt><trkpt lat="43.1915414" lon="12.8834033"><ele>782.0</ele><time>2026-04-12T14:17:47.815Z</time></trkpt><trkpt lat="43.1916052" lon="12.8835178"><ele>782.0</ele><time>2026-04-12T14:17:48.824Z</time></trkpt><trkpt lat="43.1916669" lon="12.8836318"><ele>782.0</ele><time>2026-04-12T14:17:49.832Z</time></trkpt><trkpt lat="43.1917315" lon="12.8837464"><ele>782.0</ele><time>2026-04-12T14:17:50.827Z</time></trkpt><trkpt lat="43.1917898" lon="12.8838615"><ele>782.0</ele><time>2026-04-12T14:17:51.817Z</time></trkpt><trkpt lat="43.1918484" lon="12.8839835"><ele>782.0</ele><time>2026-04-12T14:17:52.821Z</time></trkpt><trkpt lat="43.1919071" lon="12.884095"><ele>782.0</ele><time>2026-04-12T14:17:53.826Z</time></trkpt><trkpt lat="43.1919662" lon="12.8842044"><ele>782.0</ele><time>2026-04-12T14:17:54.825Z</time></trkpt><trkpt lat="43.1920206" lon="12.8843028"><ele>782.0</ele><time>2026-04-12T14:17:55.831Z</time></trkpt><trkpt lat="43.1920738" lon="12.8843827"><ele>782.0</ele><time>2026-04-12T14:17:56.828Z</time></trkpt><trkpt lat="43.1921663" lon="12.8844454"><ele>782.0</ele><time>2026-04-12T14:17:58.825Z</time></trkpt><trkpt lat="43.1922803" lon="12.8844172"><ele>780.3333333333334</ele><time>2026-04-12T14:18:00.814Z</time></trkpt><trkpt lat="43.1923578" lon="12.8844227"><ele>778.6666666666667</ele><time>2026-04-12T14:18:01.823Z</time></trkpt><trkpt lat="43.192439" lon="12.8844534"><ele>777.0</ele><time>2026-04-12T14:18:02.821Z</time></trkpt><trkpt lat="43.1925164" lon="12.8844887"><ele>775.3333333333333</ele><time>2026-04-12T14:18:03.815Z</time></trkpt><trkpt lat="43.1925926" lon="12.8845439"><ele>773.6666666666666</ele><time>2026-04-12T14:18:04.817Z</time></trkpt><trkpt lat="43.1926651" lon="12.8846105"><ele>772.0</ele><time>2026-04-12T14:18:05.819Z</time></trkpt><trkpt lat="43.1927315" lon="12.8846728"><ele>771.9999999999999</ele><time>2026-04-12T14:18:06.816Z</time></trkpt><trkpt lat="43.1927921" lon="12.8847158"><ele>772.0</ele><time>2026-04-12T14:18:07.84Z</time></trkpt><trkpt lat="43.1928536" lon="12.8847452"><ele>772.0</ele><time>2026-04-12T14:18:08.816Z</time></trkpt><trkpt lat="43.1929227" lon="12.8847548"><ele>772.0</ele><time>2026-04-12T14:18:09.823Z</time></trkpt><trkpt lat="43.1929922" lon="12.8847646"><ele>771.9999999999999</ele><time>2026-04-12T14:18:10.828Z</time></trkpt><trkpt lat="43.1931033" lon="12.8847926"><ele>772.0</ele><time>2026-04-12T14:18:12.829Z</time></trkpt><trkpt lat="43.1932319" lon="12.8848335"><ele>774.3333333333333</ele><time>2026-04-12T14:18:14.813Z</time></trkpt><trkpt lat="43.1933075" lon="12.8848534"><ele>776.6666666666666</ele><time>2026-04-12T14:18:15.823Z</time></trkpt><trkpt lat="43.1933775" lon="12.8848801"><ele>779.0</ele><time>2026-04-12T14:18:16.827Z</time></trkpt><trkpt lat="43.1934382" lon="12.884929"><ele>781.3333333333333</ele><time>2026-04-12T14:18:17.835Z</time></trkpt><trkpt lat="43.193493" lon="12.8849998"><ele>783.6666666666666</ele><time>2026-04-12T14:18:18.833Z</time></trkpt><trkpt lat="43.1935487" lon="12.8850931"><ele>786.0</ele><time>2026-04-12T14:18:19.82Z</time></trkpt><trkpt lat="43.193607" lon="12.8851754"><ele>780.1666666666666</ele><time>2026-04-12T14:18:20.829Z</time></trkpt><trkpt lat="43.1936529" lon="12.8852507"><ele>774.3333333333334</ele><time>2026-04-12T14:18:21.833Z</time></trkpt><trkpt lat="43.1937139" lon="12.885352"><ele>768.5</ele><time>2026-04-12T14:18:23.823Z</time></trkpt><trkpt lat="43.1937553" lon="12.8854275"><ele>762.6666666666667</ele><time>2026-04-12T14:18:25.823Z</time></trkpt><trkpt lat="43.1937869" lon="12.8855179"><ele>756.8333333333334</ele><time>2026-04-12T14:18:28.808Z</time></trkpt><trkpt lat="43.19384" lon="12.8855734"><ele>751.0</ele><time>2026-04-12T14:18:31.817Z</time></trkpt><trkpt lat="43.1939049" lon="12.8856261"><ele>751.0</ele><time>2026-04-12T14:18:33.843Z</time></trkpt><trkpt lat="43.1939564" lon="12.8856879"><ele>751.0</ele><time>2026-04-12T14:18:34.82Z</time></trkpt><trkpt lat="43.1940083" lon="12.885745"><ele>751.0</ele><time>2026-04-12T14:18:35.819Z</time></trkpt><trkpt lat="43.1941088" lon="12.8858352"><ele>751.0</ele><time>2026-04-12T14:18:37.832Z</time></trkpt><trkpt lat="43.1941662" lon="12.8858814"><ele>751.0</ele><time>2026-04-12T14:18:38.817Z</time></trkpt><trkpt lat="43.1942261" lon="12.8859276"><ele>751.0</ele><time>2026-04-12T14:18:39.837Z</time></trkpt><trkpt lat="43.1942929" lon="12.8860258"><ele>753.6666666666667</ele><time>2026-04-12T14:18:41.813Z</time></trkpt><trkpt lat="43.1943062" lon="12.88614"><ele>756.3333333333334</ele><time>2026-04-12T14:18:43.833Z</time></trkpt><trkpt lat="43.1943838" lon="12.8861056"><ele>759.0</ele><time>2026-04-12T14:18:46.82Z</time></trkpt><trkpt lat="43.1943979" lon="12.8860203"><ele>761.6666666666666</ele><time>2026-04-12T14:18:48.827Z</time></trkpt><trkpt lat="43.1943694" lon="12.885849"><ele>764.3333333333333</ele><time>2026-04-12T14:18:50.82Z</time></trkpt><trkpt lat="43.1943526" lon="12.8857656"><ele>767.0</ele><time>2026-04-12T14:18:51.824Z</time></trkpt><trkpt lat="43.1943562" lon="12.8856436"><ele>767.0</ele><time>2026-04-12T14:18:53.869Z</time></trkpt><trkpt lat="43.1944327" lon="12.8856574"><ele>767.0</ele><time>2026-04-12T14:18:56.83Z</time></trkpt><trkpt lat="43.1944791" lon="12.8857411"><ele>767.0</ele><time>2026-04-12T14:18:57.83Z</time></trkpt><trkpt lat="43.1945637" lon="12.8858733"><ele>767.0</ele><time>2026-04-12T14:18:59.824Z</time></trkpt><trkpt lat="43.194611" lon="12.8859433"><ele>767.0</ele><time>2026-04-12T14:19:00.829Z</time></trkpt><trkpt lat="43.1946465" lon="12.8860272"><ele>767.0</ele><time>2026-04-12T14:19:01.828Z</time></trkpt><trkpt lat="43.1946748" lon="12.8861166"><ele>767.0</ele><time>2026-04-12T14:19:02.823Z</time></trkpt><trkpt lat="43.1947035" lon="12.8861996"><ele>767.0</ele><time>2026-04-12T14:19:03.821Z</time></trkpt><trkpt lat="43.1947386" lon="12.8862773"><ele>767.0</ele><time>2026-04-12T14:19:04.818Z</time></trkpt><trkpt lat="43.1947858" lon="12.8863689"><ele>767.0</ele><time>2026-04-12T14:19:05.829Z</time></trkpt><trkpt lat="43.1948292" lon="12.8864564"><ele>767.0</ele><time>2026-04-12T14:19:06.812Z</time></trkpt><trkpt lat="43.1948787" lon="12.8865385"><ele>767.0</ele><time>2026-04-12T14:19:07.82Z</time></trkpt><trkpt lat="43.19491" lon="12.8866222"><ele>767.0</ele><time>2026-04-12T14:19:08.82Z</time></trkpt><trkpt lat="43.1949931" lon="12.8867108"><ele>772.8</ele><time>2026-04-12T14:19:10.82Z</time></trkpt><trkpt lat="43.1950872" lon="12.8867772"><ele>778.6</ele><time>2026-04-12T14:19:12.817Z</time></trkpt><trkpt lat="43.1951887" lon="12.8868182"><ele>784.4</ele><time>2026-04-12T14:19:14.824Z</time></trkpt><trkpt lat="43.1953085" lon="12.8868823"><ele>790.1999999999999</ele><time>2026-04-12T14:19:16.826Z</time></trkpt><trkpt lat="43.1953779" lon="12.8869222"><ele>796.0</ele><time>2026-04-12T14:19:17.823Z</time></trkpt><trkpt lat="43.1954499" lon="12.8869652"><ele>796.0</ele><time>2026-04-12T14:19:18.816Z</time></trkpt><trkpt lat="43.1955215" lon="12.8870097"><ele>796.0</ele><time>2026-04-12T14:19:19.819Z</time></trkpt><trkpt lat="43.1956093" lon="12.8870584"><ele>796.0</ele><time>2026-04-12T14:19:20.816Z</time></trkpt><trkpt lat="43.1957029" lon="12.8871201"><ele>796.0</ele><time>2026-04-12T14:19:21.823Z</time></trkpt><trkpt lat="43.1958035" lon="12.887199"><ele>796.0</ele><time>2026-04-12T14:19:22.815Z</time></trkpt><trkpt lat="43.1959012" lon="12.8872812"><ele>803.8</ele><time>2026-04-12T14:19:23.822Z</time></trkpt><trkpt lat="43.1960054" lon="12.8873581"><ele>811.5999999999999</ele><time>2026-04-12T14:19:24.826Z</time></trkpt><trkpt lat="43.1961122" lon="12.8874233"><ele>819.4</ele><time>2026-04-12T14:19:25.819Z</time></trkpt><trkpt lat="43.1962193" lon="12.8874921"><ele>827.2</ele><time>2026-04-12T14:19:26.82Z</time></trkpt><trkpt lat="43.1962872" lon="12.8875706"><ele>835.0</ele><time>2026-04-12T14:19:27.819Z</time></trkpt><trkpt lat="43.1963195" lon="12.8876661"><ele>834.9999999999999</ele><time>2026-04-12T14:19:28.815Z</time></trkpt><trkpt lat="43.196338" lon="12.8877707"><ele>835.0</ele><time>2026-04-12T14:19:29.818Z</time></trkpt><trkpt lat="43.1963513" lon="12.8878744"><ele>835.0</ele><time>2026-04-12T14:19:30.819Z</time></trkpt><trkpt lat="43.1963184" lon="12.8880038"><ele>835.0</ele><time>2026-04-12T14:19:32.82Z</time></trkpt><trkpt lat="43.1963682" lon="12.8880722"><ele>834.9999999999999</ele><time>2026-04-12T14:19:36.817Z</time></trkpt><trkpt lat="43.1964529" lon="12.888016"><ele>835.0</ele><time>2026-04-12T14:19:38.822Z</time></trkpt><trkpt lat="43.1965518" lon="12.8879194"><ele>842.6666666666666</ele><time>2026-04-12T14:19:40.816Z</time></trkpt><trkpt lat="43.1965795" lon="12.8878417"><ele>850.3333333333333</ele><time>2026-04-12T14:19:41.825Z</time></trkpt><trkpt lat="43.1965953" lon="12.8877289"><ele>858.0</ele><time>2026-04-12T14:19:42.824Z</time></trkpt><trkpt lat="43.1965905" lon="12.8876194"><ele>865.6666666666667</ele><time>2026-04-12T14:19:43.828Z</time></trkpt><trkpt lat="43.1965627" lon="12.8874697"><ele>873.3333333333334</ele><time>2026-04-12T14:19:45.825Z</time></trkpt><trkpt lat="43.1966384" lon="12.887463"><ele>881.0</ele><time>2026-04-12T14:19:50.817Z</time></trkpt><trkpt lat="43.1967026" lon="12.8875727"><ele>881.0</ele><time>2026-04-12T14:19:52.82Z</time></trkpt><trkpt lat="43.1967455" lon="12.8876365"><ele>881.0</ele><time>2026-04-12T14:19:53.825Z</time></trkpt><trkpt lat="43.1967872" lon="12.887707"><ele>881.0</ele><time>2026-04-12T14:19:54.829Z</time></trkpt><trkpt lat="43.1968296" lon="12.887787"><ele>881.0</ele><time>2026-04-12T14:19:55.815Z</time></trkpt><trkpt lat="43.1968753" lon="12.8878501"><ele>881.0</ele><time>2026-04-12T14:19:56.817Z</time></trkpt><trkpt lat="43.1969239" lon="12.8879133"><ele>881.0</ele><time>2026-04-12T14:19:57.816Z</time></trkpt><trkpt lat="43.1969774" lon="12.887989"><ele>881.0</ele><time>2026-04-12T14:19:58.824Z</time></trkpt><trkpt lat="43.1970251" lon="12.8880819"><ele>881.0000000000001</ele><time>2026-04-12T14:19:59.827Z</time></trkpt><trkpt lat="43.1970744" lon="12.888177"><ele>881.0</ele><time>2026-04-12T14:20:00.807Z</time></trkpt><trkpt lat="43.1971239" lon="12.8882654"><ele>881.0</ele><time>2026-04-12T14:20:01.82Z</time></trkpt><trkpt lat="43.197183" lon="12.8883372"><ele>881.0</ele><time>2026-04-12T14:20:02.823Z</time></trkpt><trkpt lat="43.1972442" lon="12.8884078"><ele>881.0000000000001</ele><time>2026-04-12T14:20:03.83Z</time></trkpt><trkpt lat="43.1972918" lon="12.8884778"><ele>881.0</ele><time>2026-04-12T14:20:04.821Z</time></trkpt><trkpt lat="43.1973361" lon="12.8885472"><ele>885.6666666666667</ele><time>2026-04-12T14:20:05.833Z</time></trkpt><trkpt lat="43.197389" lon="12.8886089"><ele>890.3333333333334</ele><time>2026-04-12T14:20:06.817Z</time></trkpt><trkpt lat="43.1974459" lon="12.88867"><ele>895.0</ele><time>2026-04-12T14:20:07.824Z</time></trkpt><trkpt lat="43.1975043" lon="12.8887271"><ele>899.6666666666667</ele><time>2026-04-12T14:20:08.819Z</time></trkpt><trkpt lat="43.1975585" lon="12.8887785"><ele>904.3333333333334</ele><time>2026-04-12T14:20:09.825Z</time></trkpt><trkpt lat="43.1976444" lon="12.8888831"><ele>909.0</ele><time>2026-04-12T14:20:11.826Z</time></trkpt><trkpt lat="43.1976998" lon="12.8889416"><ele>909.0</ele><time>2026-04-12T14:20:12.823Z</time></trkpt><trkpt lat="43.1977666" lon="12.8889973"><ele>909.0</ele><time>2026-04-12T14:20:13.821Z</time></trkpt><trkpt lat="43.1978411" lon="12.8890508"><ele>909.0</ele><time>2026-04-12T14:20:14.826Z</time></trkpt><trkpt lat="43.1979164" lon="12.8890994"><ele>909.0</ele><time>2026-04-12T14:20:15.824Z</time></trkpt><trkpt lat="43.1979836" lon="12.8891407"><ele>909.0</ele><time>2026-04-12T14:20:16.824Z</time></trkpt><trkpt lat="43.1980419" lon="12.8891774"><ele>909.0</ele><time>2026-04-12T14:20:17.83Z</time></trkpt><trkpt lat="43.1981291" lon="12.8892186"><ele>907.3333333333334</ele><time>2026-04-12T14:20:19.813Z</time></trkpt><trkpt lat="43.1982168" lon="12.8892562"><ele>905.6666666666667</ele><time>2026-04-12T14:20:21.816Z</time></trkpt><trkpt lat="43.1982985" lon="12.8892811"><ele>904.0</ele><time>2026-04-12T14:20:24.824Z</time></trkpt><trkpt lat="43.1983829" lon="12.8892713"><ele>902.3333333333334</ele><time>2026-04-12T14:23:20.822Z</time></trkpt><trkpt lat="43.1984562" lon="12.8892658"><ele>900.6666666666667</ele><time>2026-04-12T14:23:22.829Z</time></trkpt><trkpt lat="43.1985564" lon="12.8892399"><ele>899.0</ele><time>2026-04-12T14:23:24.825Z</time></trkpt><trkpt lat="43.1986252" lon="12.8892137"><ele>901.3333333333334</ele><time>2026-04-12T14:23:26.829Z</time></trkpt><trkpt lat="43.1987141" lon="12.8891726"><ele>903.6666666666667</ele><time>2026-04-12T14:23:28.827Z</time></trkpt><trkpt lat="43.1988405" lon="12.8891445"><ele>906.0</ele><time>2026-04-12T14:23:30.817Z</time></trkpt><trkpt lat="43.1989119" lon="12.889153"><ele>908.3333333333333</ele><time>2026-04-12T14:23:31.821Z</time></trkpt><trkpt lat="43.198987" lon="12.8891727"><ele>910.6666666666666</ele><time>2026-04-12T14:23:32.816Z</time></trkpt><trkpt lat="43.1990648" lon="12.8891833"><ele>913.0</ele><time>2026-04-12T14:23:33.819Z</time></trkpt><trkpt lat="43.1991284" lon="12.8891951"><ele>913.0</ele><time>2026-04-12T14:23:34.83Z</time></trkpt><trkpt lat="43.1992437" lon="12.889186"><ele>913.0</ele><time>2026-04-12T14:23:36.823Z</time></trkpt><trkpt lat="43.1993483" lon="12.8891567"><ele>913.0</ele><time>2026-04-12T14:23:38.826Z</time></trkpt><trkpt lat="43.1994795" lon="12.8891319"><ele>913.0</ele><time>2026-04-12T14:23:40.817Z</time></trkpt><trkpt lat="43.1995488" lon="12.8891317"><ele>913.0</ele><time>2026-04-12T14:23:41.837Z</time></trkpt><trkpt lat="43.1996145" lon="12.8891454"><ele>913.0</ele><time>2026-04-12T14:23:42.826Z</time></trkpt><trkpt lat="43.19973" lon="12.8891978"><ele>913.0</ele><time>2026-04-12T14:23:44.82Z</time></trkpt><trkpt lat="43.1998265" lon="12.8892615"><ele>913.0</ele><time>2026-04-12T14:23:46.826Z</time></trkpt><trkpt lat="43.1998791" lon="12.889317"><ele>913.0</ele><time>2026-04-12T14:23:47.832Z</time></trkpt><trkpt lat="43.1999337" lon="12.889399"><ele>913.0</ele><time>2026-04-12T14:23:48.833Z</time></trkpt><trkpt lat="43.1999847" lon="12.8894889"><ele>910.1666666666666</ele><time>2026-04-12T14:23:49.824Z</time></trkpt><trkpt lat="43.2000238" lon="12.8895839"><ele>907.3333333333333</ele><time>2026-04-12T14:23:50.814Z</time></trkpt><trkpt lat="43.20005" lon="12.8896771"><ele>904.5</ele><time>2026-04-12T14:23:51.814Z</time></trkpt><trkpt lat="43.2000728" lon="12.8897757"><ele>901.6666666666667</ele><time>2026-04-12T14:23:52.832Z</time></trkpt><trkpt lat="43.2000959" lon="12.8898764"><ele>898.8333333333334</ele><time>2026-04-12T14:23:53.83Z</time></trkpt><trkpt lat="43.2001599" lon="12.8899898"><ele>896.0</ele><time>2026-04-12T14:23:55.827Z</time></trkpt><trkpt lat="43.2002451" lon="12.890016"><ele>896.0000000000001</ele><time>2026-04-12T14:23:57.832Z</time></trkpt><trkpt lat="43.2003711" lon="12.8899997"><ele>896.0</ele><time>2026-04-12T14:23:59.821Z</time></trkpt><trkpt lat="43.200436" lon="12.889995"><ele>896.0</ele><time>2026-04-12T14:24:00.822Z</time></trkpt><trkpt lat="43.200506" lon="12.8899809"><ele>896.0</ele><time>2026-04-12T14:24:01.824Z</time></trkpt><trkpt lat="43.2005738" lon="12.8899542"><ele>896.0000000000001</ele><time>2026-04-12T14:24:02.825Z</time></trkpt><trkpt lat="43.2006438" lon="12.8899195"><ele>896.0</ele><time>2026-04-12T14:24:03.822Z</time></trkpt><trkpt lat="43.2007127" lon="12.8898754"><ele>896.4285714285714</ele><time>2026-04-12T14:24:04.822Z</time></trkpt><trkpt lat="43.2007786" lon="12.8898303"><ele>896.8571428571429</ele><time>2026-04-12T14:24:05.824Z</time></trkpt><trkpt lat="43.2008403" lon="12.8897918"><ele>897.2857142857142</ele><time>2026-04-12T14:24:06.824Z</time></trkpt><trkpt lat="43.2009038" lon="12.8897548"><ele>897.7142857142857</ele><time>2026-04-12T14:24:07.827Z</time></trkpt><trkpt lat="43.2009756" lon="12.8897187"><ele>898.1428571428571</ele><time>2026-04-12T14:24:08.84Z</time></trkpt><trkpt lat="43.2010482" lon="12.8896968"><ele>898.5714285714284</ele><time>2026-04-12T14:24:09.822Z</time></trkpt><trkpt lat="43.2011165" lon="12.8896788"><ele>898.9999999999999</ele><time>2026-04-12T14:24:10.833Z</time></trkpt><trkpt lat="43.2012266" lon="12.8896536"><ele>899.0000000000001</ele><time>2026-04-12T14:24:12.823Z</time></trkpt><trkpt lat="43.2013103" lon="12.8896872"><ele>899.0</ele><time>2026-04-12T14:24:14.817Z</time></trkpt><trkpt lat="43.2013748" lon="12.8897397"><ele>899.0</ele><time>2026-04-12T14:24:16.827Z</time></trkpt><trkpt lat="43.2013882" lon="12.889866"><ele>899.0</ele><time>2026-04-12T14:24:19.82Z</time></trkpt><trkpt lat="43.2013843" lon="12.8900249"><ele>899.0000000000001</ele><time>2026-04-12T14:24:21.824Z</time></trkpt><trkpt lat="43.2013935" lon="12.8901202"><ele>899.0</ele><time>2026-04-12T14:24:22.823Z</time></trkpt><trkpt lat="43.2013998" lon="12.8902237"><ele>896.5000000000001</ele><time>2026-04-12T14:24:23.818Z</time></trkpt><trkpt lat="43.2013936" lon="12.8903313"><ele>894.0</ele><time>2026-04-12T14:24:24.832Z</time></trkpt><trkpt lat="43.2014002" lon="12.890442"><ele>891.5</ele><time>2026-04-12T14:24:25.818Z</time></trkpt><trkpt lat="43.2014039" lon="12.8905529"><ele>889.0</ele><time>2026-04-12T14:24:26.825Z</time></trkpt><trkpt lat="43.2013983" lon="12.8906776"><ele>886.5000000000001</ele><time>2026-04-12T14:24:27.817Z</time></trkpt><trkpt lat="43.2013761" lon="12.8908026"><ele>884.0</ele><time>2026-04-12T14:24:28.824Z</time></trkpt><trkpt lat="43.2013554" lon="12.8909261"><ele>882.5714285714287</ele><time>2026-04-12T14:24:29.825Z</time></trkpt><trkpt lat="43.2013391" lon="12.8910327"><ele>881.1428571428571</ele><time>2026-04-12T14:24:30.823Z</time></trkpt><trkpt lat="43.2013274" lon="12.8911337"><ele>879.7142857142858</ele><time>2026-04-12T14:24:31.812Z</time></trkpt><trkpt lat="43.2013222" lon="12.8912255"><ele>878.2857142857143</ele><time>2026-04-12T14:24:32.822Z</time></trkpt><trkpt lat="43.2013303" lon="12.8913235"><ele>876.8571428571429</ele><time>2026-04-12T14:24:33.811Z</time></trkpt><trkpt lat="43.2013483" lon="12.8914211"><ele>875.4285714285714</ele><time>2026-04-12T14:24:34.822Z</time></trkpt><trkpt lat="43.2013773" lon="12.8915178"><ele>874.0</ele><time>2026-04-12T14:24:35.822Z</time></trkpt><trkpt lat="43.2014082" lon="12.8916152"><ele>873.9999999999999</ele><time>2026-04-12T14:24:36.83Z</time></trkpt><trkpt lat="43.2014482" lon="12.8917153"><ele>874.0</ele><time>2026-04-12T14:24:37.82Z</time></trkpt><trkpt lat="43.2015021" lon="12.891805"><ele>874.0</ele><time>2026-04-12T14:24:38.82Z</time></trkpt><trkpt lat="43.2015601" lon="12.8918842"><ele>874.0</ele><time>2026-04-12T14:24:39.833Z</time></trkpt><trkpt lat="43.2016257" lon="12.8919444"><ele>873.9999999999999</ele><time>2026-04-12T14:24:40.815Z</time></trkpt><trkpt lat="43.2016923" lon="12.8919951"><ele>874.0</ele><time>2026-04-12T14:24:41.817Z</time></trkpt><trkpt lat="43.2017614" lon="12.8920569"><ele>877.4000000000001</ele><time>2026-04-12T14:24:42.826Z</time></trkpt><trkpt lat="43.2018251" lon="12.8921302"><ele>880.8000000000001</ele><time>2026-04-12T14:24:43.827Z</time></trkpt><trkpt lat="43.201886" lon="12.8922266"><ele>884.1999999999999</ele><time>2026-04-12T14:24:44.823Z</time></trkpt><trkpt lat="43.2019537" lon="12.8923217"><ele>887.5999999999999</ele><time>2026-04-12T14:24:45.838Z</time></trkpt><trkpt lat="43.2020259" lon="12.8924223"><ele>891.0</ele><time>2026-04-12T14:24:46.828Z</time></trkpt><trkpt lat="43.2021" lon="12.8925223"><ele>891.5999999999999</ele><time>2026-04-12T14:24:47.824Z</time></trkpt><trkpt lat="43.2021799" lon="12.8926199"><ele>892.1999999999999</ele><time>2026-04-12T14:24:48.835Z</time></trkpt><trkpt lat="43.2022533" lon="12.8927161"><ele>892.8000000000001</ele><time>2026-04-12T14:24:49.847Z</time></trkpt><trkpt lat="43.2023253" lon="12.8928047"><ele>893.4000000000001</ele><time>2026-04-12T14:24:50.83Z</time></trkpt><trkpt lat="43.2023999" lon="12.8928917"><ele>894.0</ele><time>2026-04-12T14:24:51.81Z</time></trkpt><trkpt lat="43.2024836" lon="12.8929827"><ele>894.0</ele><time>2026-04-12T14:24:52.819Z</time></trkpt><trkpt lat="43.2025748" lon="12.8930735"><ele>894.0</ele><time>2026-04-12T14:24:53.816Z</time></trkpt><trkpt lat="43.2026683" lon="12.8931634"><ele>894.0</ele><time>2026-04-12T14:24:54.821Z</time></trkpt><trkpt lat="43.2027583" lon="12.8932575"><ele>894.0</ele><time>2026-04-12T14:24:55.818Z</time></trkpt><trkpt lat="43.2028496" lon="12.8933424"><ele>894.0</ele><time>2026-04-12T14:24:56.826Z</time></trkpt><trkpt lat="43.2029332" lon="12.8934195"><ele>894.0000000000001</ele><time>2026-04-12T14:24:57.824Z</time></trkpt><trkpt lat="43.2030114" lon="12.8934973"><ele>894.0000000000001</ele><time>2026-04-12T14:24:58.824Z</time></trkpt><trkpt lat="43.2030803" lon="12.8935751"><ele>894.0</ele><time>2026-04-12T14:24:59.815Z</time></trkpt><trkpt lat="43.2031396" lon="12.8936569"><ele>894.0</ele><time>2026-04-12T14:25:00.83Z</time></trkpt><trkpt lat="43.2031924" lon="12.8937542"><ele>893.8000000000001</ele><time>2026-04-12T14:25:01.811Z</time></trkpt><trkpt lat="43.2032444" lon="12.8938507"><ele>893.6000000000001</ele><time>2026-04-12T14:25:02.827Z</time></trkpt><trkpt lat="43.2033058" lon="12.893946"><ele>893.4</ele><time>2026-04-12T14:25:03.813Z</time></trkpt><trkpt lat="43.2033742" lon="12.8940224"><ele>893.2</ele><time>2026-04-12T14:25:04.822Z</time></trkpt><trkpt lat="43.2034374" lon="12.894071"><ele>893.0</ele><time>2026-04-12T14:25:05.816Z</time></trkpt><trkpt lat="43.2035548" lon="12.8940492"><ele>893.0</ele><time>2026-04-12T14:25:07.815Z</time></trkpt><trkpt lat="43.2036152" lon="12.894006"><ele>893.0</ele><time>2026-04-12T14:25:08.815Z</time></trkpt><trkpt lat="43.2036719" lon="12.8939593"><ele>893.0</ele><time>2026-04-12T14:25:09.837Z</time></trkpt><trkpt lat="43.2037333" lon="12.8939084"><ele>893.0</ele><time>2026-04-12T14:25:10.827Z</time></trkpt><trkpt lat="43.2038099" lon="12.8938626"><ele>893.0</ele><time>2026-04-12T14:25:11.833Z</time></trkpt><trkpt lat="43.203882" lon="12.8938419"><ele>893.0</ele><time>2026-04-12T14:25:12.824Z</time></trkpt><trkpt lat="43.2039628" lon="12.8938655"><ele>893.0</ele><time>2026-04-12T14:25:13.824Z</time></trkpt><trkpt lat="43.2040317" lon="12.8939129"><ele>893.5999999999999</ele><time>2026-04-12T14:25:14.818Z</time></trkpt><trkpt lat="43.2040913" lon="12.8940031"><ele>894.1999999999999</ele><time>2026-04-12T14:25:15.818Z</time></trkpt><trkpt lat="43.2041305" lon="12.8941172"><ele>894.8</ele><time>2026-04-12T14:25:16.818Z</time></trkpt><trkpt lat="43.2041662" lon="12.8942402"><ele>895.4</ele><time>2026-04-12T14:25:17.831Z</time></trkpt><trkpt lat="43.2042039" lon="12.8943675"><ele>896.0</ele><time>2026-04-12T14:25:18.822Z</time></trkpt><trkpt lat="43.2042407" lon="12.8944975"><ele>896.0</ele><time>2026-04-12T14:25:19.826Z</time></trkpt><trkpt lat="43.2042732" lon="12.8946407"><ele>895.9999999999999</ele><time>2026-04-12T14:25:20.818Z</time></trkpt><trkpt lat="43.2043098" lon="12.8947846"><ele>895.9999999999999</ele><time>2026-04-12T14:25:21.832Z</time></trkpt><trkpt lat="43.2043504" lon="12.8949182"><ele>896.0</ele><time>2026-04-12T14:25:22.816Z</time></trkpt><trkpt lat="43.2043917" lon="12.8950407"><ele>896.0</ele><time>2026-04-12T14:25:23.828Z</time></trkpt><trkpt lat="43.2044369" lon="12.8951441"><ele>896.3333333333334</ele><time>2026-04-12T14:25:24.822Z</time></trkpt><trkpt lat="43.2044924" lon="12.8952269"><ele>896.6666666666667</ele><time>2026-04-12T14:25:25.831Z</time></trkpt><trkpt lat="43.2045605" lon="12.8952939"><ele>897.0</ele><time>2026-04-12T14:25:26.82Z</time></trkpt><trkpt lat="43.2046385" lon="12.8953588"><ele>897.3333333333333</ele><time>2026-04-12T14:25:27.822Z</time></trkpt><trkpt lat="43.2047188" lon="12.8954142"><ele>897.6666666666666</ele><time>2026-04-12T14:25:28.831Z</time></trkpt><trkpt lat="43.2047981" lon="12.8954502"><ele>898.0</ele><time>2026-04-12T14:25:29.828Z</time></trkpt><trkpt lat="43.2048701" lon="12.895468"><ele>897.9999999999999</ele><time>2026-04-12T14:25:30.818Z</time></trkpt><trkpt lat="43.2049457" lon="12.8954647"><ele>898.0</ele><time>2026-04-12T14:25:31.825Z</time></trkpt><trkpt lat="43.2050183" lon="12.8954697"><ele>898.0</ele><time>2026-04-12T14:25:32.831Z</time></trkpt><trkpt lat="43.2050832" lon="12.895488"><ele>898.0</ele><time>2026-04-12T14:25:33.825Z</time></trkpt><trkpt lat="43.2051665" lon="12.8956052"><ele>897.9999999999999</ele><time>2026-04-12T14:25:35.823Z</time></trkpt><trkpt lat="43.2051973" lon="12.8956837"><ele>898.0</ele><time>2026-04-12T14:25:36.816Z</time></trkpt><trkpt lat="43.2052339" lon="12.8957702"><ele>897.9999999999999</ele><time>2026-04-12T14:25:37.824Z</time></trkpt><trkpt lat="43.2052731" lon="12.8958615"><ele>898.0</ele><time>2026-04-12T14:25:38.821Z</time></trkpt><trkpt lat="43.2053044" lon="12.8959564"><ele>898.0</ele><time>2026-04-12T14:25:39.828Z</time></trkpt><trkpt lat="43.2053407" lon="12.8960506"><ele>898.0</ele><time>2026-04-12T14:25:40.82Z</time></trkpt><trkpt lat="43.2053777" lon="12.8961359"><ele>897.9999999999999</ele><time>2026-04-12T14:25:41.837Z</time></trkpt><trkpt lat="43.2054176" lon="12.8962183"><ele>898.0</ele><time>2026-04-12T14:25:42.812Z</time></trkpt><trkpt lat="43.2054644" lon="12.8962976"><ele>896.4</ele><time>2026-04-12T14:25:43.828Z</time></trkpt><trkpt lat="43.2055188" lon="12.8963764"><ele>894.8</ele><time>2026-04-12T14:25:44.834Z</time></trkpt><trkpt lat="43.2055803" lon="12.8964604"><ele>893.2</ele><time>2026-04-12T14:25:45.826Z</time></trkpt><trkpt lat="43.2056504" lon="12.8965606"><ele>891.6</ele><time>2026-04-12T14:25:46.831Z</time></trkpt><trkpt lat="43.2057246" lon="12.8966527"><ele>890.0</ele><time>2026-04-12T14:25:47.824Z</time></trkpt><trkpt lat="43.2058038" lon="12.8967454"><ele>896.0</ele><time>2026-04-12T14:25:48.855Z</time></trkpt><trkpt lat="43.2058846" lon="12.896839"><ele>902.0</ele><time>2026-04-12T14:25:49.85Z</time></trkpt><trkpt lat="43.2059668" lon="12.8969218"><ele>908.0</ele><time>2026-04-12T14:25:50.828Z</time></trkpt><trkpt lat="43.2060398" lon="12.8970014"><ele>914.0</ele><time>2026-04-12T14:25:51.836Z</time></trkpt><trkpt lat="43.2060942" lon="12.8970871"><ele>920.0</ele><time>2026-04-12T14:25:52.824Z</time></trkpt><trkpt lat="43.2061482" lon="12.897174"><ele>920.0000000000001</ele><time>2026-04-12T14:25:53.824Z</time></trkpt><trkpt lat="43.2061835" lon="12.897263"><ele>920.0</ele><time>2026-04-12T14:25:54.823Z</time></trkpt><trkpt lat="43.2061928" lon="12.8973597"><ele>920.0</ele><time>2026-04-12T14:25:55.82Z</time></trkpt><trkpt lat="43.2061645" lon="12.8974439"><ele>920.0</ele><time>2026-04-12T14:25:56.84Z</time></trkpt><trkpt lat="43.2060576" lon="12.8975118"><ele>920.0000000000001</ele><time>2026-04-12T14:25:58.834Z</time></trkpt><trkpt lat="43.205992" lon="12.8975139"><ele>920.0</ele><time>2026-04-12T14:25:59.846Z</time></trkpt><trkpt lat="43.2059203" lon="12.8975041"><ele>920.0000000000001</ele><time>2026-04-12T14:26:00.825Z</time></trkpt><trkpt lat="43.2058442" lon="12.897485"><ele>920.0</ele><time>2026-04-12T14:26:01.813Z</time></trkpt><trkpt lat="43.2057607" lon="12.8974856"><ele>920.0</ele><time>2026-04-12T14:26:02.821Z</time></trkpt><trkpt lat="43.2056714" lon="12.8974951"><ele>920.0</ele><time>2026-04-12T14:26:03.832Z</time></trkpt><trkpt lat="43.2055777" lon="12.8975177"><ele>920.0000000000001</ele><time>2026-04-12T14:26:04.825Z</time></trkpt><trkpt lat="43.2054891" lon="12.8975372"><ele>920.0</ele><time>2026-04-12T14:26:05.827Z</time></trkpt><trkpt lat="43.2054031" lon="12.8975559"><ele>919.8</ele><time>2026-04-12T14:26:06.825Z</time></trkpt><trkpt lat="43.2053124" lon="12.897594"><ele>919.6</ele><time>2026-04-12T14:26:07.824Z</time></trkpt><trkpt lat="43.2052245" lon="12.8976471"><ele>919.4000000000001</ele><time>2026-04-12T14:26:08.826Z</time></trkpt><trkpt lat="43.2051447" lon="12.8977168"><ele>919.2</ele><time>2026-04-12T14:26:09.827Z</time></trkpt><trkpt lat="43.2050749" lon="12.8977915"><ele>919.0</ele><time>2026-04-12T14:26:10.829Z</time></trkpt><trkpt lat="43.2050161" lon="12.8978604"><ele>918.9999999999999</ele><time>2026-04-12T14:26:11.82Z</time></trkpt><trkpt lat="43.2049727" lon="12.8979419"><ele>919.0</ele><time>2026-04-12T14:26:12.818Z</time></trkpt><trkpt lat="43.204953" lon="12.8981017"><ele>919.0</ele><time>2026-04-12T14:26:14.837Z</time></trkpt><trkpt lat="43.2049813" lon="12.8981918"><ele>919.0</ele><time>2026-04-12T14:26:15.832Z</time></trkpt><trkpt lat="43.2050292" lon="12.8982807"><ele>918.9999999999999</ele><time>2026-04-12T14:26:16.819Z</time></trkpt><trkpt lat="43.2050904" lon="12.8983771"><ele>919.0</ele><time>2026-04-12T14:26:17.839Z</time></trkpt><trkpt lat="43.2051594" lon="12.8984759"><ele>919.1666666666666</ele><time>2026-04-12T14:26:18.823Z</time></trkpt><trkpt lat="43.2052326" lon="12.8985731"><ele>919.3333333333333</ele><time>2026-04-12T14:26:19.821Z</time></trkpt><trkpt lat="43.2053015" lon="12.8986765"><ele>919.5</ele><time>2026-04-12T14:26:20.835Z</time></trkpt><trkpt lat="43.2053469" lon="12.8987835"><ele>919.6666666666667</ele><time>2026-04-12T14:26:21.827Z</time></trkpt><trkpt lat="43.205359" lon="12.8988926"><ele>919.8333333333334</ele><time>2026-04-12T14:26:22.824Z</time></trkpt><trkpt lat="43.2053485" lon="12.8989799"><ele>920.0</ele><time>2026-04-12T14:26:23.823Z</time></trkpt><trkpt lat="43.2053241" lon="12.8990665"><ele>920.0</ele><time>2026-04-12T14:26:24.824Z</time></trkpt><trkpt lat="43.2053166" lon="12.899243"><ele>920.0</ele><time>2026-04-12T14:26:26.824Z</time></trkpt><trkpt lat="43.2053364" lon="12.8993559"><ele>920.0</ele><time>2026-04-12T14:26:27.82Z</time></trkpt><trkpt lat="43.2053589" lon="12.8994785"><ele>920.0</ele><time>2026-04-12T14:26:28.82Z</time></trkpt><trkpt lat="43.2053823" lon="12.8996044"><ele>920.0</ele><time>2026-04-12T14:26:29.83Z</time></trkpt><trkpt lat="43.2054103" lon="12.8997295"><ele>920.8</ele><time>2026-04-12T14:26:30.831Z</time></trkpt><trkpt lat="43.2054323" lon="12.8998639"><ele>921.6</ele><time>2026-04-12T14:26:31.828Z</time></trkpt><trkpt lat="43.205449" lon="12.9000189"><ele>922.4000000000001</ele><time>2026-04-12T14:26:32.827Z</time></trkpt><trkpt lat="43.2054525" lon="12.9001827"><ele>923.2</ele><time>2026-04-12T14:26:33.831Z</time></trkpt><trkpt lat="43.2054543" lon="12.9003354"><ele>924.0</ele><time>2026-04-12T14:26:34.825Z</time></trkpt><trkpt lat="43.2054576" lon="12.9004831"><ele>924.75</ele><time>2026-04-12T14:26:35.825Z</time></trkpt><trkpt lat="43.2054654" lon="12.9006443"><ele>925.5</ele><time>2026-04-12T14:26:36.827Z</time></trkpt><trkpt lat="43.2054706" lon="12.9008115"><ele>926.25</ele><time>2026-04-12T14:26:37.827Z</time></trkpt><trkpt lat="43.2054837" lon="12.900967"><ele>927.0</ele><time>2026-04-12T14:26:38.82Z</time></trkpt><trkpt lat="43.2055058" lon="12.9011112"><ele>927.4000000000001</ele><time>2026-04-12T14:26:39.819Z</time></trkpt><trkpt lat="43.2055403" lon="12.9012422"><ele>927.8000000000001</ele><time>2026-04-12T14:26:40.82Z</time></trkpt><trkpt lat="43.2055778" lon="12.9013711"><ele>928.2</ele><time>2026-04-12T14:26:41.818Z</time></trkpt><trkpt lat="43.2056122" lon="12.9015041"><ele>928.6</ele><time>2026-04-12T14:26:42.818Z</time></trkpt><trkpt lat="43.2056413" lon="12.9016378"><ele>929.0</ele><time>2026-04-12T14:26:43.824Z</time></trkpt><trkpt lat="43.2056679" lon="12.9017706"><ele>932.8000000000001</ele><time>2026-04-12T14:26:44.828Z</time></trkpt><trkpt lat="43.2056961" lon="12.9019107"><ele>936.6000000000001</ele><time>2026-04-12T14:26:45.824Z</time></trkpt><trkpt lat="43.2057287" lon="12.9020499"><ele>940.4</ele><time>2026-04-12T14:26:46.82Z</time></trkpt><trkpt lat="43.2057705" lon="12.9021874"><ele>944.2</ele><time>2026-04-12T14:26:47.829Z</time></trkpt><trkpt lat="43.2058182" lon="12.9023262"><ele>948.0</ele><time>2026-04-12T14:26:48.824Z</time></trkpt><trkpt lat="43.2058607" lon="12.9024635"><ele>947.0</ele><time>2026-04-12T14:26:49.834Z</time></trkpt><trkpt lat="43.2059036" lon="12.9025918"><ele>946.0</ele><time>2026-04-12T14:26:50.826Z</time></trkpt><trkpt lat="43.2059383" lon="12.9026982"><ele>945.0</ele><time>2026-04-12T14:26:51.821Z</time></trkpt><trkpt lat="43.2059669" lon="12.9027763"><ele>944.0</ele><time>2026-04-12T14:26:52.82Z</time></trkpt><trkpt lat="43.2060365" lon="12.9028505"><ele>943.0</ele><time>2026-04-12T14:26:54.834Z</time></trkpt><trkpt lat="43.2061015" lon="12.9027712"><ele>942.0</ele><time>2026-04-12T14:26:57.823Z</time></trkpt><trkpt lat="43.2061631" lon="12.9026258"><ele>943.2</ele><time>2026-04-12T14:26:59.831Z</time></trkpt><trkpt lat="43.2061942" lon="12.9025411"><ele>944.4000000000001</ele><time>2026-04-12T14:27:00.836Z</time></trkpt><trkpt lat="43.2062368" lon="12.9024476"><ele>945.5999999999999</ele><time>2026-04-12T14:27:01.834Z</time></trkpt><trkpt lat="43.2062889" lon="12.9023276"><ele>946.8</ele><time>2026-04-12T14:27:02.835Z</time></trkpt><trkpt lat="43.2063449" lon="12.902203"><ele>948.0</ele><time>2026-04-12T14:27:03.835Z</time></trkpt><trkpt lat="43.2064019" lon="12.9020796"><ele>948.0</ele><time>2026-04-12T14:27:04.826Z</time></trkpt><trkpt lat="43.206454" lon="12.9019542"><ele>948.0</ele><time>2026-04-12T14:27:05.822Z</time></trkpt><trkpt lat="43.2064989" lon="12.9018316"><ele>948.0</ele><time>2026-04-12T14:27:06.831Z</time></trkpt><trkpt lat="43.2065492" lon="12.9017037"><ele>948.0</ele><time>2026-04-12T14:27:07.823Z</time></trkpt><trkpt lat="43.2065974" lon="12.9015629"><ele>948.0</ele><time>2026-04-12T14:27:08.822Z</time></trkpt><trkpt lat="43.2066554" lon="12.901412"><ele>952.25</ele><time>2026-04-12T14:27:09.82Z</time></trkpt><trkpt lat="43.206717" lon="12.9012519"><ele>956.5</ele><time>2026-04-12T14:27:10.834Z</time></trkpt><trkpt lat="43.2067851" lon="12.9010861"><ele>960.75</ele><time>2026-04-12T14:27:11.821Z</time></trkpt><trkpt lat="43.2068591" lon="12.9009143"><ele>965.0</ele><time>2026-04-12T14:27:12.827Z</time></trkpt><trkpt lat="43.2069267" lon="12.9007375"><ele>965.5</ele><time>2026-04-12T14:27:13.837Z</time></trkpt><trkpt lat="43.2069929" lon="12.9005542"><ele>966.0</ele><time>2026-04-12T14:27:14.831Z</time></trkpt><trkpt lat="43.2070535" lon="12.9003759"><ele>966.5</ele><time>2026-04-12T14:27:15.838Z</time></trkpt><trkpt lat="43.2071159" lon="12.9001938"><ele>967.0</ele><time>2026-04-12T14:27:16.826Z</time></trkpt><trkpt lat="43.2071799" lon="12.9000175"><ele>967.0</ele><time>2026-04-12T14:27:17.825Z</time></trkpt><trkpt lat="43.2072425" lon="12.8998547"><ele>967.0</ele><time>2026-04-12T14:27:18.835Z</time></trkpt><trkpt lat="43.2073001" lon="12.8996943"><ele>967.0</ele><time>2026-04-12T14:27:19.815Z</time></trkpt><trkpt lat="43.2073621" lon="12.8995561"><ele>967.0</ele><time>2026-04-12T14:27:20.826Z</time></trkpt><trkpt lat="43.2074275" lon="12.8994218"><ele>972.0</ele><time>2026-04-12T14:27:21.833Z</time></trkpt><trkpt lat="43.2075" lon="12.8993024"><ele>977.0</ele><time>2026-04-12T14:27:22.826Z</time></trkpt><trkpt lat="43.2075795" lon="12.8992012"><ele>982.0</ele><time>2026-04-12T14:27:23.824Z</time></trkpt><trkpt lat="43.2076738" lon="12.8991037"><ele>987.0</ele><time>2026-04-12T14:27:24.823Z</time></trkpt><trkpt lat="43.2077769" lon="12.8990287"><ele>987.0</ele><time>2026-04-12T14:27:25.824Z</time></trkpt><trkpt lat="43.2079009" lon="12.8989637"><ele>987.0</ele><time>2026-04-12T14:27:26.82Z</time></trkpt><trkpt lat="43.2080334" lon="12.8988937"><ele>987.0</ele><time>2026-04-12T14:27:27.817Z</time></trkpt><trkpt lat="43.2081659" lon="12.8988266"><ele>987.0</ele><time>2026-04-12T14:27:28.814Z</time></trkpt><trkpt lat="43.2082944" lon="12.8987636"><ele>994.0</ele><time>2026-04-12T14:27:29.824Z</time></trkpt><trkpt lat="43.208412" lon="12.898707"><ele>1001.0</ele><time>2026-04-12T14:27:30.825Z</time></trkpt><trkpt lat="43.2085303" lon="12.8986582"><ele>1008.0</ele><time>2026-04-12T14:27:31.834Z</time></trkpt><trkpt lat="43.2086435" lon="12.8986156"><ele>1015.0</ele><time>2026-04-12T14:27:32.819Z</time></trkpt><trkpt lat="43.2087558" lon="12.8985743"><ele>1015.0</ele><time>2026-04-12T14:27:33.82Z</time></trkpt><trkpt lat="43.2088773" lon="12.8985435"><ele>1015.0</ele><time>2026-04-12T14:27:34.828Z</time></trkpt><trkpt lat="43.2089966" lon="12.8985116"><ele>1015.0</ele><time>2026-04-12T14:27:35.817Z</time></trkpt><trkpt lat="43.2091164" lon="12.8984914"><ele>1015.0</ele><time>2026-04-12T14:27:36.822Z</time></trkpt><trkpt lat="43.2092401" lon="12.8984835"><ele>1017.8</ele><time>2026-04-12T14:27:37.822Z</time></trkpt><trkpt lat="43.2093645" lon="12.8984901"><ele>1020.6</ele><time>2026-04-12T14:27:38.824Z</time></trkpt><trkpt lat="43.2094853" lon="12.8985026"><ele>1023.4000000000001</ele><time>2026-04-12T14:27:39.818Z</time></trkpt><trkpt lat="43.2095924" lon="12.8984992"><ele>1026.2</ele><time>2026-04-12T14:27:40.82Z</time></trkpt><trkpt lat="43.2096812" lon="12.8984715"><ele>1029.0</ele><time>2026-04-12T14:27:41.821Z</time></trkpt><trkpt lat="43.20975" lon="12.8984248"><ele>1025.6666666666667</ele><time>2026-04-12T14:27:42.82Z</time></trkpt><trkpt lat="43.2098008" lon="12.8982761"><ele>1022.3333333333333</ele><time>2026-04-12T14:27:44.827Z</time></trkpt><trkpt lat="43.2098173" lon="12.8981601"><ele>1019.0</ele><time>2026-04-12T14:27:45.817Z</time></trkpt><trkpt lat="43.2098353" lon="12.8980359"><ele>1015.6666666666666</ele><time>2026-04-12T14:27:46.821Z</time></trkpt><trkpt lat="43.2098608" lon="12.8979264"><ele>1012.3333333333333</ele><time>2026-04-12T14:27:47.818Z</time></trkpt><trkpt lat="43.209887" lon="12.897842"><ele>1009.0</ele><time>2026-04-12T14:27:48.83Z</time></trkpt><trkpt lat="43.2099144" lon="12.8977569"><ele>1008.9999999999999</ele><time>2026-04-12T14:27:49.835Z</time></trkpt><trkpt lat="43.209954" lon="12.8976327"><ele>1009.0</ele><time>2026-04-12T14:27:51.821Z</time></trkpt><trkpt lat="43.2099615" lon="12.8975383"><ele>1009.0</ele><time>2026-04-12T14:27:52.821Z</time></trkpt><trkpt lat="43.2099655" lon="12.8974304"><ele>1009.0</ele><time>2026-04-12T14:27:53.818Z</time></trkpt><trkpt lat="43.209972" lon="12.8973207"><ele>1008.9999999999999</ele><time>2026-04-12T14:27:54.831Z</time></trkpt><trkpt lat="43.2099605" lon="12.89722"><ele>1009.0</ele><time>2026-04-12T14:27:55.827Z</time></trkpt><trkpt lat="43.2099478" lon="12.8971244"><ele>1008.1666666666666</ele><time>2026-04-12T14:27:56.826Z</time></trkpt><trkpt lat="43.209922" lon="12.8970234"><ele>1007.3333333333333</ele><time>2026-04-12T14:27:57.82Z</time></trkpt><trkpt lat="43.2098839" lon="12.8969231"><ele>1006.5</ele><time>2026-04-12T14:27:58.827Z</time></trkpt><trkpt lat="43.2098443" lon="12.8968258"><ele>1005.6666666666667</ele><time>2026-04-12T14:27:59.821Z</time></trkpt><trkpt lat="43.2097996" lon="12.8967119"><ele>1004.8333333333334</ele><time>2026-04-12T14:28:00.824Z</time></trkpt><trkpt lat="43.2097549" lon="12.8965939"><ele>1004.0</ele><time>2026-04-12T14:28:01.822Z</time></trkpt><trkpt lat="43.2097061" lon="12.8964582"><ele>1006.5</ele><time>2026-04-12T14:28:02.817Z</time></trkpt><trkpt lat="43.2096613" lon="12.8963121"><ele>1009.0</ele><time>2026-04-12T14:28:03.824Z</time></trkpt><trkpt lat="43.209625" lon="12.8961559"><ele>1011.5</ele><time>2026-04-12T14:28:04.813Z</time></trkpt><trkpt lat="43.2096004" lon="12.895997"><ele>1014.0</ele><time>2026-04-12T14:28:05.818Z</time></trkpt><trkpt lat="43.2095971" lon="12.8958444"><ele>1016.6</ele><time>2026-04-12T14:28:06.82Z</time></trkpt><trkpt lat="43.2096087" lon="12.8956931"><ele>1019.2</ele><time>2026-04-12T14:28:07.821Z</time></trkpt><trkpt lat="43.2096462" lon="12.8955564"><ele>1021.8000000000001</ele><time>2026-04-12T14:28:08.827Z</time></trkpt><trkpt lat="43.2096995" lon="12.8954425"><ele>1024.4</ele><time>2026-04-12T14:28:09.829Z</time></trkpt><trkpt lat="43.2097741" lon="12.8953642"><ele>1027.0</ele><time>2026-04-12T14:28:10.82Z</time></trkpt><trkpt lat="43.2098702" lon="12.8953149"><ele>1017.25</ele><time>2026-04-12T14:28:11.818Z</time></trkpt><trkpt lat="43.2099779" lon="12.8952876"><ele>1007.5</ele><time>2026-04-12T14:28:12.815Z</time></trkpt><trkpt lat="43.2100906" lon="12.895247"><ele>997.75</ele><time>2026-04-12T14:28:13.82Z</time></trkpt><trkpt lat="43.2102177" lon="12.8952206"><ele>988.0</ele><time>2026-04-12T14:28:14.821Z</time></trkpt><trkpt lat="43.2103453" lon="12.8952142"><ele>988.0</ele><time>2026-04-12T14:28:15.821Z</time></trkpt><trkpt lat="43.2104703" lon="12.895218"><ele>988.0</ele><time>2026-04-12T14:28:16.82Z</time></trkpt><trkpt lat="43.2105928" lon="12.8952249"><ele>988.0</ele><time>2026-04-12T14:28:17.817Z</time></trkpt><trkpt lat="43.2107125" lon="12.8952277"><ele>988.0</ele><time>2026-04-12T14:28:18.82Z</time></trkpt><trkpt lat="43.2108261" lon="12.8952285"><ele>982.5</ele><time>2026-04-12T14:28:19.824Z</time></trkpt><trkpt lat="43.2109381" lon="12.8952236"><ele>977.0</ele><time>2026-04-12T14:28:20.812Z</time></trkpt><trkpt lat="43.2110451" lon="12.8952061"><ele>971.5</ele><time>2026-04-12T14:28:21.823Z</time></trkpt><trkpt lat="43.2111543" lon="12.8951737"><ele>966.0</ele><time>2026-04-12T14:28:22.82Z</time></trkpt><trkpt lat="43.2112704" lon="12.8951435"><ele>966.0</ele><time>2026-04-12T14:28:23.822Z</time></trkpt><trkpt lat="43.2113824" lon="12.8951219"><ele>965.9999999999999</ele><time>2026-04-12T14:28:24.812Z</time></trkpt><trkpt lat="43.2114926" lon="12.8950948"><ele>965.9999999999999</ele><time>2026-04-12T14:28:25.815Z</time></trkpt><trkpt lat="43.2115977" lon="12.8950746"><ele>966.0</ele><time>2026-04-12T14:28:26.823Z</time></trkpt><trkpt lat="43.2117022" lon="12.8950661"><ele>966.0</ele><time>2026-04-12T14:28:27.814Z</time></trkpt><trkpt lat="43.2118086" lon="12.8950652"><ele>964.1999999999999</ele><time>2026-04-12T14:28:28.82Z</time></trkpt><trkpt lat="43.2119128" lon="12.8950794"><ele>962.3999999999999</ele><time>2026-04-12T14:28:29.816Z</time></trkpt><trkpt lat="43.212013" lon="12.8951218"><ele>960.6</ele><time>2026-04-12T14:28:30.812Z</time></trkpt><trkpt lat="43.2121116" lon="12.8951553"><ele>958.8</ele><time>2026-04-12T14:28:31.827Z</time></trkpt><trkpt lat="43.2122027" lon="12.8951758"><ele>957.0</ele><time>2026-04-12T14:28:32.82Z</time></trkpt><trkpt lat="43.2122919" lon="12.8951598"><ele>956.25</ele><time>2026-04-12T14:28:33.824Z</time></trkpt><trkpt lat="43.2123788" lon="12.8951205"><ele>955.5</ele><time>2026-04-12T14:28:34.817Z</time></trkpt><trkpt lat="43.2124812" lon="12.8950504"><ele>954.75</ele><time>2026-04-12T14:28:35.823Z</time></trkpt><trkpt lat="43.2125976" lon="12.894966"><ele>954.0</ele><time>2026-04-12T14:28:36.823Z</time></trkpt><trkpt lat="43.2127142" lon="12.8948661"><ele>957.5</ele><time>2026-04-12T14:28:37.823Z</time></trkpt><trkpt lat="43.2128295" lon="12.894757"><ele>961.0</ele><time>2026-04-12T14:28:38.822Z</time></trkpt><trkpt lat="43.2129399" lon="12.8946509"><ele>964.5</ele><time>2026-04-12T14:28:39.833Z</time></trkpt><trkpt lat="43.213041" lon="12.8945496"><ele>968.0</ele><time>2026-04-12T14:28:40.825Z</time></trkpt><trkpt lat="43.2131294" lon="12.8944569"><ele>968.1666666666667</ele><time>2026-04-12T14:28:41.827Z</time></trkpt><trkpt lat="43.2131984" lon="12.8943577"><ele>968.3333333333334</ele><time>2026-04-12T14:28:42.823Z</time></trkpt><trkpt lat="43.2132527" lon="12.8942615"><ele>968.5</ele><time>2026-04-12T14:28:43.817Z</time></trkpt><trkpt lat="43.2132835" lon="12.8941666"><ele>968.6666666666667</ele><time>2026-04-12T14:28:44.824Z</time></trkpt><trkpt lat="43.2132978" lon="12.8940699"><ele>968.8333333333334</ele><time>2026-04-12T14:28:45.819Z</time></trkpt><trkpt lat="43.2133168" lon="12.8939328"><ele>969.0</ele><time>2026-04-12T14:28:47.829Z</time></trkpt><trkpt lat="43.2133793" lon="12.8939007"><ele>969.0</ele><time>2026-04-12T14:28:49.844Z</time></trkpt><trkpt lat="43.2134497" lon="12.8939972"><ele>969.0</ele><time>2026-04-12T14:28:51.824Z</time></trkpt><trkpt lat="43.213542" lon="12.8941469"><ele>969.0</ele><time>2026-04-12T14:28:53.825Z</time></trkpt><trkpt lat="43.2136335" lon="12.8942107"><ele>969.0</ele><time>2026-04-12T14:28:54.828Z</time></trkpt><trkpt lat="43.2137465" lon="12.8942779"><ele>969.0</ele><time>2026-04-12T14:28:55.822Z</time></trkpt><trkpt lat="43.2138679" lon="12.894343"><ele>969.0</ele><time>2026-04-12T14:28:56.823Z</time></trkpt><trkpt lat="43.2139974" lon="12.8944063"><ele>969.0</ele><time>2026-04-12T14:28:57.822Z</time></trkpt><trkpt lat="43.2141244" lon="12.8944562"><ele>969.0</ele><time>2026-04-12T14:28:58.83Z</time></trkpt><trkpt lat="43.214259" lon="12.8944836"><ele>968.25</ele><time>2026-04-12T14:28:59.829Z</time></trkpt><trkpt lat="43.2143941" lon="12.894493"><ele>967.5</ele><time>2026-04-12T14:29:00.827Z</time></trkpt><trkpt lat="43.2145342" lon="12.8944948"><ele>966.75</ele><time>2026-04-12T14:29:01.821Z</time></trkpt><trkpt lat="43.2146672" lon="12.8944727"><ele>966.0</ele><time>2026-04-12T14:29:02.828Z</time></trkpt><trkpt lat="43.2147948" lon="12.8944349"><ele>967.1999999999999</ele><time>2026-04-12T14:29:03.828Z</time></trkpt><trkpt lat="43.2149106" lon="12.8943895"><ele>968.3999999999999</ele><time>2026-04-12T14:29:04.824Z</time></trkpt><trkpt lat="43.2150192" lon="12.894339"><ele>969.6</ele><time>2026-04-12T14:29:05.84Z</time></trkpt><trkpt lat="43.2151214" lon="12.8942878"><ele>970.8</ele><time>2026-04-12T14:29:06.825Z</time></trkpt><trkpt lat="43.2152152" lon="12.8942417"><ele>972.0</ele><time>2026-04-12T14:29:07.826Z</time></trkpt><trkpt lat="43.2153059" lon="12.8941971"><ele>973.2</ele><time>2026-04-12T14:29:08.831Z</time></trkpt><trkpt lat="43.2153926" lon="12.8941501"><ele>974.4000000000001</ele><time>2026-04-12T14:29:09.833Z</time></trkpt><trkpt lat="43.2154832" lon="12.8941059"><ele>975.5999999999999</ele><time>2026-04-12T14:29:10.827Z</time></trkpt><trkpt lat="43.2155724" lon="12.8940469"><ele>976.8</ele><time>2026-04-12T14:29:11.817Z</time></trkpt><trkpt lat="43.2156635" lon="12.89398"><ele>978.0</ele><time>2026-04-12T14:29:12.819Z</time></trkpt><trkpt lat="43.215755" lon="12.8939132"><ele>979.0</ele><time>2026-04-12T14:29:13.834Z</time></trkpt><trkpt lat="43.2158539" lon="12.8938536"><ele>980.0</ele><time>2026-04-12T14:29:14.831Z</time></trkpt><trkpt lat="43.2159654" lon="12.8938022"><ele>981.0</ele><time>2026-04-12T14:29:15.848Z</time></trkpt><trkpt lat="43.2160842" lon="12.8937578"><ele>982.0</ele><time>2026-04-12T14:29:16.816Z</time></trkpt><trkpt lat="43.2162162" lon="12.8937177"><ele>982.0</ele><time>2026-04-12T14:29:17.835Z</time></trkpt><trkpt lat="43.2163585" lon="12.8936729"><ele>982.0</ele><time>2026-04-12T14:29:18.821Z</time></trkpt><trkpt lat="43.216507" lon="12.8936242"><ele>982.0</ele><time>2026-04-12T14:29:19.832Z</time></trkpt><trkpt lat="43.2166633" lon="12.8935657"><ele>981.6666666666666</ele><time>2026-04-12T14:29:20.84Z</time></trkpt><trkpt lat="43.2168197" lon="12.8934901"><ele>981.3333333333333</ele><time>2026-04-12T14:29:21.824Z</time></trkpt><trkpt lat="43.2169726" lon="12.8934011"><ele>981.0</ele><time>2026-04-12T14:29:22.825Z</time></trkpt><trkpt lat="43.2171204" lon="12.8933018"><ele>980.25</ele><time>2026-04-12T14:29:23.828Z</time></trkpt><trkpt lat="43.2172642" lon="12.8932018"><ele>979.5</ele><time>2026-04-12T14:29:24.828Z</time></trkpt><trkpt lat="43.2173897" lon="12.8930997"><ele>978.75</ele><time>2026-04-12T14:29:25.826Z</time></trkpt><trkpt lat="43.2174997" lon="12.8930079"><ele>978.0</ele><time>2026-04-12T14:29:26.829Z</time></trkpt><trkpt lat="43.2175936" lon="12.892915"><ele>980.0</ele><time>2026-04-12T14:29:27.823Z</time></trkpt><trkpt lat="43.2176794" lon="12.8928177"><ele>982.0</ele><time>2026-04-12T14:29:28.824Z</time></trkpt><trkpt lat="43.2177693" lon="12.8927197"><ele>984.0</ele><time>2026-04-12T14:29:29.82Z</time></trkpt><trkpt lat="43.2178605" lon="12.8926243"><ele>986.0</ele><time>2026-04-12T14:29:30.823Z</time></trkpt><trkpt lat="43.217953" lon="12.8925241"><ele>986.0</ele><time>2026-04-12T14:29:31.819Z</time></trkpt><trkpt lat="43.2180474" lon="12.8924409"><ele>986.0</ele><time>2026-04-12T14:29:32.82Z</time></trkpt><trkpt lat="43.2181379" lon="12.8923468"><ele>986.0</ele><time>2026-04-12T14:29:33.837Z</time></trkpt><trkpt lat="43.2182326" lon="12.8922508"><ele>986.0</ele><time>2026-04-12T14:29:34.821Z</time></trkpt><trkpt lat="43.2183241" lon="12.8921489"><ele>987.0</ele><time>2026-04-12T14:29:35.825Z</time></trkpt><trkpt lat="43.21842" lon="12.892045"><ele>988.0</ele><time>2026-04-12T14:29:36.827Z</time></trkpt><trkpt lat="43.2185185" lon="12.8919603"><ele>989.0</ele><time>2026-04-12T14:29:37.841Z</time></trkpt><trkpt lat="43.2186258" lon="12.8918783"><ele>990.0</ele><time>2026-04-12T14:29:38.827Z</time></trkpt><trkpt lat="43.2187371" lon="12.8918084"><ele>990.75</ele><time>2026-04-12T14:29:39.827Z</time></trkpt><trkpt lat="43.2188496" lon="12.8917549"><ele>991.5</ele><time>2026-04-12T14:29:40.834Z</time></trkpt><trkpt lat="43.2189679" lon="12.8917192"><ele>992.25</ele><time>2026-04-12T14:29:41.83Z</time></trkpt><trkpt lat="43.2190822" lon="12.891689"><ele>993.0</ele><time>2026-04-12T14:29:42.824Z</time></trkpt><trkpt lat="43.2191907" lon="12.891669"><ele>992.8</ele><time>2026-04-12T14:29:43.819Z</time></trkpt><trkpt lat="43.2192946" lon="12.8916735"><ele>992.5999999999999</ele><time>2026-04-12T14:29:44.825Z</time></trkpt><trkpt lat="43.2193972" lon="12.8916968"><ele>992.4000000000001</ele><time>2026-04-12T14:29:45.829Z</time></trkpt><trkpt lat="43.2194985" lon="12.8917285"><ele>992.2</ele><time>2026-04-12T14:29:46.818Z</time></trkpt><trkpt lat="43.2195956" lon="12.8917529"><ele>992.0</ele><time>2026-04-12T14:29:47.823Z</time></trkpt><trkpt lat="43.2196959" lon="12.8917801"><ele>992.0</ele><time>2026-04-12T14:29:48.823Z</time></trkpt><trkpt lat="43.2198009" lon="12.8918024"><ele>992.0</ele><time>2026-04-12T14:29:49.835Z</time></trkpt><trkpt lat="43.2199019" lon="12.8918163"><ele>992.0</ele><time>2026-04-12T14:29:50.856Z</time></trkpt><trkpt lat="43.2200005" lon="12.8918272"><ele>992.0</ele><time>2026-04-12T14:29:51.829Z</time></trkpt><trkpt lat="43.2200998" lon="12.8918427"><ele>992.0</ele><time>2026-04-12T14:29:52.822Z</time></trkpt><trkpt lat="43.2202096" lon="12.8918598"><ele>995.75</ele><time>2026-04-12T14:29:53.82Z</time></trkpt><trkpt lat="43.2203225" lon="12.8918771"><ele>999.5</ele><time>2026-04-12T14:29:54.822Z</time></trkpt><trkpt lat="43.2204406" lon="12.8918992"><ele>1003.25</ele><time>2026-04-12T14:29:55.831Z</time></trkpt><trkpt lat="43.2205607" lon="12.8919297"><ele>1007.0</ele><time>2026-04-12T14:29:56.827Z</time></trkpt><trkpt lat="43.2206789" lon="12.8919654"><ele>1009.8</ele><time>2026-04-12T14:29:57.82Z</time></trkpt><trkpt lat="43.2207936" lon="12.8919947"><ele>1012.6</ele><time>2026-04-12T14:29:58.824Z</time></trkpt><trkpt lat="43.2208985" lon="12.8920079"><ele>1015.3999999999999</ele><time>2026-04-12T14:29:59.826Z</time></trkpt><trkpt lat="43.2210031" lon="12.8920189"><ele>1018.1999999999999</ele><time>2026-04-12T14:30:00.831Z</time></trkpt><trkpt lat="43.2211068" lon="12.892034"><ele>1021.0</ele><time>2026-04-12T14:30:01.834Z</time></trkpt><trkpt lat="43.2212034" lon="12.8920528"><ele>1021.0</ele><time>2026-04-12T14:30:02.828Z</time></trkpt><trkpt lat="43.2212876" lon="12.8920914"><ele>1020.9999999999999</ele><time>2026-04-12T14:30:03.836Z</time></trkpt><trkpt lat="43.2213612" lon="12.8921582"><ele>1020.9999999999999</ele><time>2026-04-12T14:30:04.828Z</time></trkpt><trkpt lat="43.2214434" lon="12.8922563"><ele>1021.0</ele><time>2026-04-12T14:30:05.823Z</time></trkpt><trkpt lat="43.2215398" lon="12.8923602"><ele>1021.0</ele><time>2026-04-12T14:30:06.833Z</time></trkpt><trkpt lat="43.2216465" lon="12.8924602"><ele>1019.0</ele><time>2026-04-12T14:30:07.817Z</time></trkpt><trkpt lat="43.2217621" lon="12.8925592"><ele>1017.0</ele><time>2026-04-12T14:30:08.827Z</time></trkpt><trkpt lat="43.2218768" lon="12.8926604"><ele>1015.0</ele><time>2026-04-12T14:30:09.824Z</time></trkpt><trkpt lat="43.2219962" lon="12.8927415"><ele>1013.0</ele><time>2026-04-12T14:30:10.836Z</time></trkpt><trkpt lat="43.2221289" lon="12.8927952"><ele>1013.0</ele><time>2026-04-12T14:30:11.818Z</time></trkpt><trkpt lat="43.222255" lon="12.892847"><ele>1013.0</ele><time>2026-04-12T14:30:12.821Z</time></trkpt><trkpt lat="43.2223723" lon="12.8929135"><ele>1013.0</ele><time>2026-04-12T14:30:13.825Z</time></trkpt><trkpt lat="43.2224793" lon="12.892992"><ele>1013.0</ele><time>2026-04-12T14:30:14.826Z</time></trkpt><trkpt lat="43.2225739" lon="12.8930805"><ele>1021.25</ele><time>2026-04-12T14:30:15.828Z</time></trkpt><trkpt lat="43.2226644" lon="12.893172"><ele>1029.5</ele><time>2026-04-12T14:30:16.817Z</time></trkpt><trkpt lat="43.2227754" lon="12.8932532"><ele>1037.75</ele><time>2026-04-12T14:30:17.823Z</time></trkpt><trkpt lat="43.2228791" lon="12.8933217"><ele>1046.0</ele><time>2026-04-12T14:30:18.828Z</time></trkpt><trkpt lat="43.222976" lon="12.8933878"><ele>1042.8</ele><time>2026-04-12T14:30:19.819Z</time></trkpt><trkpt lat="43.2230732" lon="12.8934557"><ele>1039.6</ele><time>2026-04-12T14:30:20.818Z</time></trkpt><trkpt lat="43.2231677" lon="12.8935173"><ele>1036.4</ele><time>2026-04-12T14:30:21.821Z</time></trkpt><trkpt lat="43.2232644" lon="12.8935512"><ele>1033.2</ele><time>2026-04-12T14:30:22.828Z</time></trkpt><trkpt lat="43.2233727" lon="12.8935684"><ele>1030.0</ele><time>2026-04-12T14:30:23.819Z</time></trkpt><trkpt lat="43.2234834" lon="12.893555"><ele>1030.0</ele><time>2026-04-12T14:30:24.827Z</time></trkpt><trkpt lat="43.2235945" lon="12.8935115"><ele>1030.0</ele><time>2026-04-12T14:30:25.83Z</time></trkpt><trkpt lat="43.2237163" lon="12.8934661"><ele>1030.0</ele><time>2026-04-12T14:30:26.833Z</time></trkpt><trkpt lat="43.2238374" lon="12.8934275"><ele>1030.0</ele><time>2026-04-12T14:30:27.818Z</time></trkpt><trkpt lat="43.2239534" lon="12.8933989"><ele>1033.0</ele><time>2026-04-12T14:30:28.82Z</time></trkpt><trkpt lat="43.224068" lon="12.8933796"><ele>1036.0</ele><time>2026-04-12T14:30:29.821Z</time></trkpt><trkpt lat="43.2241793" lon="12.8933595"><ele>1039.0</ele><time>2026-04-12T14:30:30.821Z</time></trkpt><trkpt lat="43.2242837" lon="12.8933429"><ele>1042.0</ele><time>2026-04-12T14:30:31.822Z</time></trkpt><trkpt lat="43.2243717" lon="12.8933429"><ele>1045.0</ele><time>2026-04-12T14:30:32.833Z</time></trkpt><trkpt lat="43.2244495" lon="12.8933579"><ele>1045.0</ele><time>2026-04-12T14:30:33.835Z</time></trkpt><trkpt lat="43.2245315" lon="12.8933777"><ele>1045.0</ele><time>2026-04-12T14:30:34.831Z</time></trkpt><trkpt lat="43.2246045" lon="12.893389"><ele>1045.0</ele><time>2026-04-12T14:30:35.83Z</time></trkpt><trkpt lat="43.2246687" lon="12.8934051"><ele>1045.0</ele><time>2026-04-12T14:30:36.839Z</time></trkpt><trkpt lat="43.2247849" lon="12.8934443"><ele>1045.0</ele><time>2026-04-12T14:30:38.824Z</time></trkpt><trkpt lat="43.2249055" lon="12.8934558"><ele>1044.0</ele><time>2026-04-12T14:30:40.821Z</time></trkpt><trkpt lat="43.2249715" lon="12.8934378"><ele>1043.0</ele><time>2026-04-12T14:30:41.826Z</time></trkpt><trkpt lat="43.2250401" lon="12.8934215"><ele>1042.0</ele><time>2026-04-12T14:30:42.824Z</time></trkpt><trkpt lat="43.2251101" lon="12.8934053"><ele>1041.0</ele><time>2026-04-12T14:30:43.829Z</time></trkpt><trkpt lat="43.2251826" lon="12.8933927"><ele>1040.0</ele><time>2026-04-12T14:30:44.827Z</time></trkpt><trkpt lat="43.2252597" lon="12.8933886"><ele>1039.0</ele><time>2026-04-12T14:30:45.825Z</time></trkpt><trkpt lat="43.2253352" lon="12.8933896"><ele>1038.0</ele><time>2026-04-12T14:30:46.83Z</time></trkpt><trkpt lat="43.2254124" lon="12.8934051"><ele>1036.6666666666667</ele><time>2026-04-12T14:30:47.817Z</time></trkpt><trkpt lat="43.2254846" lon="12.8934233"><ele>1035.3333333333333</ele><time>2026-04-12T14:30:48.83Z</time></trkpt><trkpt lat="43.2255571" lon="12.8934408"><ele>1034.0</ele><time>2026-04-12T14:30:49.833Z</time></trkpt><trkpt lat="43.2256341" lon="12.8934678"><ele>1032.6666666666665</ele><time>2026-04-12T14:30:50.83Z</time></trkpt><trkpt lat="43.2257111" lon="12.8935009"><ele>1031.3333333333333</ele><time>2026-04-12T14:30:51.821Z</time></trkpt><trkpt lat="43.2257879" lon="12.8935411"><ele>1030.0</ele><time>2026-04-12T14:30:52.828Z</time></trkpt><trkpt lat="43.2258649" lon="12.893575"><ele>1029.5</ele><time>2026-04-12T14:30:53.828Z</time></trkpt><trkpt lat="43.2259407" lon="12.893616"><ele>1029.0</ele><time>2026-04-12T14:30:54.831Z</time></trkpt><trkpt lat="43.2260103" lon="12.8936527"><ele>1028.5</ele><time>2026-04-12T14:30:55.824Z</time></trkpt><trkpt lat="43.2260735" lon="12.8936929"><ele>1028.0</ele><time>2026-04-12T14:30:56.821Z</time></trkpt><trkpt lat="43.2261374" lon="12.8937382"><ele>1027.5</ele><time>2026-04-12T14:30:57.831Z</time></trkpt><trkpt lat="43.2262007" lon="12.8937962"><ele>1027.0</ele><time>2026-04-12T14:30:58.826Z</time></trkpt><trkpt lat="43.226268" lon="12.8938466"><ele>1027.0</ele><time>2026-04-12T14:30:59.831Z</time></trkpt><trkpt lat="43.2263338" lon="12.8939012"><ele>1027.0</ele><time>2026-04-12T14:31:00.818Z</time></trkpt><trkpt lat="43.2263989" lon="12.8939551"><ele>1027.0</ele><time>2026-04-12T14:31:01.823Z</time></trkpt><trkpt lat="43.2264667" lon="12.8940168"><ele>1027.0</ele><time>2026-04-12T14:31:02.824Z</time></trkpt><trkpt lat="43.2265324" lon="12.8940727"><ele>1027.0</ele><time>2026-04-12T14:31:03.828Z</time></trkpt><trkpt lat="43.2265939" lon="12.8941312"><ele>1027.0</ele><time>2026-04-12T14:31:04.826Z</time></trkpt><trkpt lat="43.226654" lon="12.894193"><ele>1027.3333333333333</ele><time>2026-04-12T14:31:05.823Z</time></trkpt><trkpt lat="43.226718" lon="12.8942556"><ele>1027.6666666666665</ele><time>2026-04-12T14:31:06.826Z</time></trkpt><trkpt lat="43.2267797" lon="12.8943199"><ele>1028.0</ele><time>2026-04-12T14:31:07.815Z</time></trkpt><trkpt lat="43.226842" lon="12.8943798"><ele>1028.3333333333333</ele><time>2026-04-12T14:31:08.841Z</time></trkpt><trkpt lat="43.2269093" lon="12.8944365"><ele>1028.6666666666667</ele><time>2026-04-12T14:31:09.839Z</time></trkpt><trkpt lat="43.2269729" lon="12.8944942"><ele>1029.0</ele><time>2026-04-12T14:31:10.836Z</time></trkpt><trkpt lat="43.2270424" lon="12.894553"><ele>1029.0</ele><time>2026-04-12T14:31:11.832Z</time></trkpt><trkpt lat="43.2271063" lon="12.894622"><ele>1029.0</ele><time>2026-04-12T14:31:12.822Z</time></trkpt><trkpt lat="43.2271668" lon="12.8947053"><ele>1029.0</ele><time>2026-04-12T14:31:13.829Z</time></trkpt><trkpt lat="43.2272263" lon="12.8947875"><ele>1029.0</ele><time>2026-04-12T14:31:14.833Z</time></trkpt><trkpt lat="43.227302" lon="12.8948657"><ele>1029.0</ele><time>2026-04-12T14:31:15.83Z</time></trkpt><trkpt lat="43.2273792" lon="12.8949419"><ele>1029.0</ele><time>2026-04-12T14:31:16.829Z</time></trkpt><trkpt lat="43.227454" lon="12.8950232"><ele>1028.6666666666667</ele><time>2026-04-12T14:31:17.831Z</time></trkpt><trkpt lat="43.2275278" lon="12.8951051"><ele>1028.3333333333333</ele><time>2026-04-12T14:31:18.824Z</time></trkpt><trkpt lat="43.2276069" lon="12.8951723"><ele>1028.0</ele><time>2026-04-12T14:31:19.825Z</time></trkpt><trkpt lat="43.2276835" lon="12.895231"><ele>1027.6666666666665</ele><time>2026-04-12T14:31:20.839Z</time></trkpt><trkpt lat="43.227752" lon="12.8952798"><ele>1027.3333333333333</ele><time>2026-04-12T14:31:21.822Z</time></trkpt><trkpt lat="43.2278041" lon="12.8953594"><ele>1027.0</ele><time>2026-04-12T14:31:22.828Z</time></trkpt><trkpt lat="43.2278602" lon="12.8954485"><ele>1027.0</ele><time>2026-04-12T14:31:23.821Z</time></trkpt><trkpt lat="43.2279164" lon="12.8955274"><ele>1027.0</ele><time>2026-04-12T14:31:24.831Z</time></trkpt><trkpt lat="43.2279686" lon="12.895607"><ele>1027.0</ele><time>2026-04-12T14:31:25.833Z</time></trkpt><trkpt lat="43.2280234" lon="12.8956827"><ele>1027.0</ele><time>2026-04-12T14:31:26.826Z</time></trkpt><trkpt lat="43.2280771" lon="12.8957599"><ele>1027.0</ele><time>2026-04-12T14:31:27.824Z</time></trkpt><trkpt lat="43.228138" lon="12.895833"><ele>1027.0</ele><time>2026-04-12T14:31:28.821Z</time></trkpt><trkpt lat="43.2281927" lon="12.8959111"><ele>1029.0</ele><time>2026-04-12T14:31:29.822Z</time></trkpt><trkpt lat="43.2282513" lon="12.8959826"><ele>1031.0</ele><time>2026-04-12T14:31:30.83Z</time></trkpt><trkpt lat="43.2283157" lon="12.8960647"><ele>1033.0</ele><time>2026-04-12T14:31:31.819Z</time></trkpt><trkpt lat="43.2283756" lon="12.8961429"><ele>1035.0</ele><time>2026-04-12T14:31:32.821Z</time></trkpt><trkpt lat="43.228427" lon="12.8962278"><ele>1037.0</ele><time>2026-04-12T14:31:33.824Z</time></trkpt><trkpt lat="43.2284818" lon="12.8963116"><ele>1039.0</ele><time>2026-04-12T14:31:34.831Z</time></trkpt><trkpt lat="43.2285319" lon="12.8963896"><ele>1039.0</ele><time>2026-04-12T14:31:35.827Z</time></trkpt><trkpt lat="43.2285847" lon="12.8964725"><ele>1039.0</ele><time>2026-04-12T14:31:36.839Z</time></trkpt><trkpt lat="43.2286367" lon="12.8965626"><ele>1039.0</ele><time>2026-04-12T14:31:37.826Z</time></trkpt><trkpt lat="43.2286884" lon="12.8966593"><ele>1039.0</ele><time>2026-04-12T14:31:38.828Z</time></trkpt><trkpt lat="43.2287411" lon="12.8967618"><ele>1039.0</ele><time>2026-04-12T14:31:39.82Z</time></trkpt><trkpt lat="43.2287866" lon="12.89686"><ele>1039.0</ele><time>2026-04-12T14:31:40.827Z</time></trkpt><trkpt lat="43.2288291" lon="12.8969612"><ele>1038.8</ele><time>2026-04-12T14:31:41.834Z</time></trkpt><trkpt lat="43.2288669" lon="12.897055"><ele>1038.6000000000001</ele><time>2026-04-12T14:31:42.826Z</time></trkpt><trkpt lat="43.2289142" lon="12.8971543"><ele>1038.4</ele><time>2026-04-12T14:31:43.827Z</time></trkpt><trkpt lat="43.2289733" lon="12.8972731"><ele>1038.2</ele><time>2026-04-12T14:31:44.828Z</time></trkpt><trkpt lat="43.2290378" lon="12.8973874"><ele>1038.0</ele><time>2026-04-12T14:31:45.826Z</time></trkpt><trkpt lat="43.2290958" lon="12.8974964"><ele>1044.8</ele><time>2026-04-12T14:31:46.82Z</time></trkpt><trkpt lat="43.2291604" lon="12.8976064"><ele>1051.6</ele><time>2026-04-12T14:31:47.828Z</time></trkpt><trkpt lat="43.2292245" lon="12.8977119"><ele>1058.4</ele><time>2026-04-12T14:31:48.819Z</time></trkpt><trkpt lat="43.2292898" lon="12.8978164"><ele>1065.2</ele><time>2026-04-12T14:31:49.839Z</time></trkpt><trkpt lat="43.229349" lon="12.8979195"><ele>1072.0</ele><time>2026-04-12T14:31:50.83Z</time></trkpt><trkpt lat="43.2294064" lon="12.898013"><ele>1072.0</ele><time>2026-04-12T14:31:51.82Z</time></trkpt><trkpt lat="43.2294602" lon="12.8980979"><ele>1072.0</ele><time>2026-04-12T14:31:52.83Z</time></trkpt><trkpt lat="43.229503" lon="12.8981891"><ele>1072.0</ele><time>2026-04-12T14:31:53.816Z</time></trkpt><trkpt lat="43.2295403" lon="12.8982813"><ele>1072.0</ele><time>2026-04-12T14:31:54.827Z</time></trkpt><trkpt lat="43.2295807" lon="12.8983681"><ele>1072.0</ele><time>2026-04-12T14:31:55.818Z</time></trkpt><trkpt lat="43.2296232" lon="12.8984406"><ele>1072.0</ele><time>2026-04-12T14:31:56.824Z</time></trkpt><trkpt lat="43.2297138" lon="12.8985169"><ele>1071.1666666666665</ele><time>2026-04-12T14:31:58.829Z</time></trkpt><trkpt lat="43.2297645" lon="12.8985759"><ele>1070.3333333333333</ele><time>2026-04-12T14:32:00.832Z</time></trkpt><trkpt lat="43.2298375" lon="12.8986012"><ele>1069.5</ele><time>2026-04-12T14:32:07.842Z</time></trkpt><trkpt lat="43.2299224" lon="12.8985802"><ele>1068.6666666666667</ele><time>2026-04-12T14:32:09.831Z</time></trkpt><trkpt lat="43.2299816" lon="12.89854"><ele>1067.8333333333335</ele><time>2026-04-12T14:32:12.824Z</time></trkpt><trkpt lat="43.2300861" lon="12.89851"><ele>1067.0</ele><time>2026-04-12T14:33:15.829Z</time></trkpt><trkpt lat="43.2301948" lon="12.8984873"><ele>1069.5</ele><time>2026-04-12T14:33:17.821Z</time></trkpt><trkpt lat="43.2302615" lon="12.8984804"><ele>1072.0</ele><time>2026-04-12T14:33:18.819Z</time></trkpt><trkpt lat="43.2303279" lon="12.8984811"><ele>1074.5</ele><time>2026-04-12T14:33:19.823Z</time></trkpt><trkpt lat="43.2304518" lon="12.8984678"><ele>1077.0</ele><time>2026-04-12T14:33:21.828Z</time></trkpt><trkpt lat="43.2305543" lon="12.8984376"><ele>1079.5</ele><time>2026-04-12T14:33:23.827Z</time></trkpt><trkpt lat="43.2306224" lon="12.8984204"><ele>1082.0</ele><time>2026-04-12T14:33:25.827Z</time></trkpt><trkpt lat="43.2307082" lon="12.8984127"><ele>1083.0</ele><time>2026-04-12T14:33:28.825Z</time></trkpt><trkpt lat="43.2307915" lon="12.8983955"><ele>1084.0</ele><time>2026-04-12T14:33:30.83Z</time></trkpt><trkpt lat="43.230868" lon="12.8983348"><ele>1085.0</ele><time>2026-04-12T14:33:32.83Z</time></trkpt><trkpt lat="43.230944" lon="12.8982526"><ele>1086.0</ele><time>2026-04-12T14:33:34.828Z</time></trkpt><trkpt lat="43.2310381" lon="12.8981621"><ele>1087.0</ele><time>2026-04-12T14:33:36.832Z</time></trkpt><trkpt lat="43.2311554" lon="12.8980914"><ele>1087.0</ele><time>2026-04-12T14:33:38.819Z</time></trkpt><trkpt lat="43.2312218" lon="12.8980453"><ele>1087.0</ele><time>2026-04-12T14:33:39.826Z</time></trkpt><trkpt lat="43.2312936" lon="12.897989"><ele>1087.0</ele><time>2026-04-12T14:33:40.83Z</time></trkpt><trkpt lat="43.231374" lon="12.8979359"><ele>1087.0</ele><time>2026-04-12T14:33:41.819Z</time></trkpt><trkpt lat="43.2314556" lon="12.8978792"><ele>1087.0</ele><time>2026-04-12T14:33:42.819Z</time></trkpt><trkpt lat="43.2315401" lon="12.8978206"><ele>1087.0</ele><time>2026-04-12T14:33:43.829Z</time></trkpt><trkpt lat="43.2316284" lon="12.8977638"><ele>1088.5</ele><time>2026-04-12T14:33:44.829Z</time></trkpt><trkpt lat="43.2317158" lon="12.8977088"><ele>1090.0</ele><time>2026-04-12T14:33:45.836Z</time></trkpt><trkpt lat="43.2317967" lon="12.8976621"><ele>1091.5</ele><time>2026-04-12T14:33:46.821Z</time></trkpt><trkpt lat="43.2318684" lon="12.8976149"><ele>1093.0</ele><time>2026-04-12T14:33:47.835Z</time></trkpt><trkpt lat="43.2319354" lon="12.8975715"><ele>1094.5</ele><time>2026-04-12T14:33:48.827Z</time></trkpt><trkpt lat="43.2319923" lon="12.8975284"><ele>1096.0</ele><time>2026-04-12T14:33:49.851Z</time></trkpt><trkpt lat="43.2320335" lon="12.8974612"><ele>1096.0</ele><time>2026-04-12T14:33:51.82Z</time></trkpt><trkpt lat="43.2320471" lon="12.8973606"><ele>1096.0</ele><time>2026-04-12T14:33:53.822Z</time></trkpt><trkpt lat="43.2320607" lon="12.8972361"><ele>1096.0</ele><time>2026-04-12T14:33:55.831Z</time></trkpt><trkpt lat="43.23209" lon="12.8970978"><ele>1096.0</ele><time>2026-04-12T14:33:57.831Z</time></trkpt><trkpt lat="43.2321256" lon="12.8969562"><ele>1096.0</ele><time>2026-04-12T14:33:59.825Z</time></trkpt><trkpt lat="43.2321675" lon="12.8968004"><ele>1093.5</ele><time>2026-04-12T14:34:01.824Z</time></trkpt><trkpt lat="43.2321987" lon="12.8967239"><ele>1091.0</ele><time>2026-04-12T14:34:02.82Z</time></trkpt><trkpt lat="43.2322346" lon="12.8966491"><ele>1088.5</ele><time>2026-04-12T14:34:03.838Z</time></trkpt><trkpt lat="43.2322968" lon="12.8965276"><ele>1086.0</ele><time>2026-04-12T14:34:05.819Z</time></trkpt><trkpt lat="43.2323587" lon="12.8964191"><ele>1083.5</ele><time>2026-04-12T14:34:07.829Z</time></trkpt><trkpt lat="43.2324291" lon="12.8963173"><ele>1081.0</ele><time>2026-04-12T14:34:09.823Z</time></trkpt><trkpt lat="43.2325112" lon="12.8962086"><ele>1081.0</ele><time>2026-04-12T14:34:11.821Z</time></trkpt><trkpt lat="43.2326077" lon="12.8960934"><ele>1081.0</ele><time>2026-04-12T14:34:13.821Z</time></trkpt><trkpt lat="43.2326618" lon="12.8960339"><ele>1081.0</ele><time>2026-04-12T14:34:14.822Z</time></trkpt><trkpt lat="43.2327253" lon="12.8959774"><ele>1081.0</ele><time>2026-04-12T14:34:15.826Z</time></trkpt><trkpt lat="43.2327893" lon="12.8959134"><ele>1081.0</ele><time>2026-04-12T14:34:16.83Z</time></trkpt><trkpt lat="43.2328607" lon="12.8958507"><ele>1081.0</ele><time>2026-04-12T14:34:17.824Z</time></trkpt><trkpt lat="43.2329258" lon="12.8957953"><ele>1079.7142857142856</ele><time>2026-04-12T14:34:18.822Z</time></trkpt><trkpt lat="43.2329858" lon="12.8957491"><ele>1078.4285714285713</ele><time>2026-04-12T14:34:19.844Z</time></trkpt><trkpt lat="43.2330475" lon="12.895701"><ele>1077.142857142857</ele><time>2026-04-12T14:34:20.828Z</time></trkpt><trkpt lat="43.2331148" lon="12.8956545"><ele>1075.8571428571427</ele><time>2026-04-12T14:34:21.832Z</time></trkpt><trkpt lat="43.2331792" lon="12.8956092"><ele>1074.5714285714284</ele><time>2026-04-12T14:34:22.832Z</time></trkpt><trkpt lat="43.2332465" lon="12.8955616"><ele>1073.2857142857142</ele><time>2026-04-12T14:34:23.826Z</time></trkpt><trkpt lat="43.2333205" lon="12.895512"><ele>1072.0</ele><time>2026-04-12T14:34:24.823Z</time></trkpt><trkpt lat="43.2333939" lon="12.8954637"><ele>1071.857142857143</ele><time>2026-04-12T14:34:25.821Z</time></trkpt><trkpt lat="43.2334603" lon="12.8954187"><ele>1071.7142857142858</ele><time>2026-04-12T14:34:26.825Z</time></trkpt><trkpt lat="43.2335301" lon="12.8953791"><ele>1071.5714285714284</ele><time>2026-04-12T14:34:27.829Z</time></trkpt><trkpt lat="43.2336005" lon="12.8953339"><ele>1071.4285714285716</ele><time>2026-04-12T14:34:28.836Z</time></trkpt><trkpt lat="43.2336659" lon="12.8952847"><ele>1071.2857142857142</ele><time>2026-04-12T14:34:29.831Z</time></trkpt><trkpt lat="43.2337295" lon="12.895241"><ele>1071.142857142857</ele><time>2026-04-12T14:34:30.834Z</time></trkpt><trkpt lat="43.2337893" lon="12.8951936"><ele>1071.0</ele><time>2026-04-12T14:34:31.836Z</time></trkpt><trkpt lat="43.2338615" lon="12.8951534"><ele>1071.0</ele><time>2026-04-12T14:34:32.822Z</time></trkpt><trkpt lat="43.2339302" lon="12.8951166"><ele>1071.0</ele><time>2026-04-12T14:34:33.821Z</time></trkpt><trkpt lat="43.2340007" lon="12.8950818"><ele>1071.0</ele><time>2026-04-12T14:34:34.829Z</time></trkpt><trkpt lat="43.2340734" lon="12.8950518"><ele>1071.0</ele><time>2026-04-12T14:34:35.842Z</time></trkpt><trkpt lat="43.2341414" lon="12.8950318"><ele>1071.0</ele><time>2026-04-12T14:34:36.843Z</time></trkpt><trkpt lat="43.2342053" lon="12.8950228"><ele>1071.0</ele><time>2026-04-12T14:34:37.83Z</time></trkpt><trkpt lat="43.2343233" lon="12.8950158"><ele>1072.0</ele><time>2026-04-12T14:34:39.823Z</time></trkpt><trkpt lat="43.2344456" lon="12.8950027"><ele>1073.0</ele><time>2026-04-12T14:34:41.822Z</time></trkpt><trkpt lat="43.2345581" lon="12.8949792"><ele>1074.0</ele><time>2026-04-12T14:34:43.83Z</time></trkpt><trkpt lat="43.2346683" lon="12.8949519"><ele>1075.0</ele><time>2026-04-12T14:34:45.828Z</time></trkpt><trkpt lat="43.2347695" lon="12.8949323"><ele>1073.0</ele><time>2026-04-12T14:34:47.834Z</time></trkpt><trkpt lat="43.2348741" lon="12.8949157"><ele>1071.0</ele><time>2026-04-12T14:34:49.838Z</time></trkpt><trkpt lat="43.2349861" lon="12.8948905"><ele>1069.0</ele><time>2026-04-12T14:34:51.837Z</time></trkpt><trkpt lat="43.2350909" lon="12.8948526"><ele>1067.0</ele><time>2026-04-12T14:34:53.825Z</time></trkpt><trkpt lat="43.2351848" lon="12.8948114"><ele>1065.0</ele><time>2026-04-12T14:34:55.836Z</time></trkpt><trkpt lat="43.2352717" lon="12.8947735"><ele>1065.0</ele><time>2026-04-12T14:34:57.84Z</time></trkpt><trkpt lat="43.2353666" lon="12.8947359"><ele>1065.0</ele><time>2026-04-12T14:34:59.826Z</time></trkpt><trkpt lat="43.2354811" lon="12.8946774"><ele>1065.0</ele><time>2026-04-12T14:35:01.824Z</time></trkpt><trkpt lat="43.235582" lon="12.8946385"><ele>1065.0</ele><time>2026-04-12T14:35:03.827Z</time></trkpt><trkpt lat="43.2356499" lon="12.8946462"><ele>1065.0</ele><time>2026-04-12T14:35:05.829Z</time></trkpt><trkpt lat="43.2357222" lon="12.8946747"><ele>1062.3333333333333</ele><time>2026-04-12T14:35:07.825Z</time></trkpt><trkpt lat="43.235809" lon="12.894713"><ele>1059.6666666666667</ele><time>2026-04-12T14:35:09.83Z</time></trkpt><trkpt lat="43.2358948" lon="12.8947411"><ele>1057.0</ele><time>2026-04-12T14:35:11.822Z</time></trkpt><trkpt lat="43.235984" lon="12.8947712"><ele>1054.3333333333335</ele><time>2026-04-12T14:35:13.823Z</time></trkpt><trkpt lat="43.2360698" lon="12.8947997"><ele>1051.6666666666667</ele><time>2026-04-12T14:35:15.83Z</time></trkpt><trkpt lat="43.2361525" lon="12.8948432"><ele>1049.0</ele><time>2026-04-12T14:35:17.824Z</time></trkpt><trkpt lat="43.2362269" lon="12.8949213"><ele>1049.0</ele><time>2026-04-12T14:35:19.823Z</time></trkpt><trkpt lat="43.2363173" lon="12.8949944"><ele>1049.0</ele><time>2026-04-12T14:35:21.82Z</time></trkpt><trkpt lat="43.2364225" lon="12.8950597"><ele>1049.0</ele><time>2026-04-12T14:35:23.838Z</time></trkpt><trkpt lat="43.2365156" lon="12.8951616"><ele>1049.0</ele><time>2026-04-12T14:35:25.832Z</time></trkpt><trkpt lat="43.2366028" lon="12.8952723"><ele>1044.6666666666667</ele><time>2026-04-12T14:35:27.824Z</time></trkpt><trkpt lat="43.2366963" lon="12.8953774"><ele>1040.3333333333335</ele><time>2026-04-12T14:35:29.82Z</time></trkpt><trkpt lat="43.2367475" lon="12.8954299"><ele>1036.0</ele><time>2026-04-12T14:35:30.82Z</time></trkpt><trkpt lat="43.2367977" lon="12.8954867"><ele>1031.6666666666667</ele><time>2026-04-12T14:35:31.823Z</time></trkpt><trkpt lat="43.236845" lon="12.8955554"><ele>1027.3333333333333</ele><time>2026-04-12T14:35:32.818Z</time></trkpt><trkpt lat="43.2368844" lon="12.895642"><ele>1023.0</ele><time>2026-04-12T14:35:33.815Z</time></trkpt><trkpt lat="43.2369235" lon="12.8957225"><ele>1023.0</ele><time>2026-04-12T14:35:34.825Z</time></trkpt><trkpt lat="43.2369656" lon="12.8957983"><ele>1023.0</ele><time>2026-04-12T14:35:35.821Z</time></trkpt><trkpt lat="43.2370108" lon="12.8958738"><ele>1023.0</ele><time>2026-04-12T14:35:36.822Z</time></trkpt><trkpt lat="43.2370497" lon="12.8959564"><ele>1023.0</ele><time>2026-04-12T14:35:37.824Z</time></trkpt><trkpt lat="43.2370863" lon="12.8960355"><ele>1023.0</ele><time>2026-04-12T14:35:38.828Z</time></trkpt><trkpt lat="43.2371144" lon="12.8961174"><ele>1023.0</ele><time>2026-04-12T14:35:39.826Z</time></trkpt><trkpt lat="43.2371283" lon="12.8962093"><ele>1023.0</ele><time>2026-04-12T14:35:40.828Z</time></trkpt><trkpt lat="43.2371253" lon="12.8963154"><ele>1020.6666666666666</ele><time>2026-04-12T14:35:41.829Z</time></trkpt><trkpt lat="43.2371162" lon="12.8964195"><ele>1018.3333333333333</ele><time>2026-04-12T14:35:42.825Z</time></trkpt><trkpt lat="43.237104" lon="12.8965224"><ele>1016.0</ele><time>2026-04-12T14:35:43.824Z</time></trkpt><trkpt lat="43.2370942" lon="12.8966366"><ele>1013.6666666666666</ele><time>2026-04-12T14:35:44.816Z</time></trkpt><trkpt lat="43.2370815" lon="12.8967592"><ele>1011.3333333333333</ele><time>2026-04-12T14:35:45.827Z</time></trkpt><trkpt lat="43.2370681" lon="12.8968778"><ele>1009.0</ele><time>2026-04-12T14:35:46.829Z</time></trkpt><trkpt lat="43.237058" lon="12.8969963"><ele>1006.1666666666666</ele><time>2026-04-12T14:35:47.82Z</time></trkpt><trkpt lat="43.2370524" lon="12.8971175"><ele>1003.3333333333333</ele><time>2026-04-12T14:35:48.821Z</time></trkpt><trkpt lat="43.2370461" lon="12.8972411"><ele>1000.5</ele><time>2026-04-12T14:35:49.825Z</time></trkpt><trkpt lat="43.2370456" lon="12.8973564"><ele>997.6666666666667</ele><time>2026-04-12T14:35:50.823Z</time></trkpt><trkpt lat="43.2370527" lon="12.8974638"><ele>994.8333333333334</ele><time>2026-04-12T14:35:51.825Z</time></trkpt><trkpt lat="43.2370705" lon="12.8975585"><ele>992.0</ele><time>2026-04-12T14:35:52.825Z</time></trkpt><trkpt lat="43.2370905" lon="12.8976528"><ele>990.6666666666667</ele><time>2026-04-12T14:35:53.821Z</time></trkpt><trkpt lat="43.2371105" lon="12.8977477"><ele>989.3333333333334</ele><time>2026-04-12T14:35:54.819Z</time></trkpt><trkpt lat="43.237128" lon="12.8978387"><ele>988.0</ele><time>2026-04-12T14:35:55.822Z</time></trkpt><trkpt lat="43.2371433" lon="12.8979281"><ele>986.6666666666667</ele><time>2026-04-12T14:35:56.825Z</time></trkpt><trkpt lat="43.2371559" lon="12.8980228"><ele>985.3333333333334</ele><time>2026-04-12T14:35:57.822Z</time></trkpt><trkpt lat="43.2371636" lon="12.8981089"><ele>984.0</ele><time>2026-04-12T14:35:58.825Z</time></trkpt><trkpt lat="43.2371774" lon="12.8982773"><ele>984.0</ele><time>2026-04-12T14:36:00.839Z</time></trkpt><trkpt lat="43.2371873" lon="12.8983702"><ele>984.0</ele><time>2026-04-12T14:36:01.821Z</time></trkpt><trkpt lat="43.2371938" lon="12.8984582"><ele>984.0</ele><time>2026-04-12T14:36:02.832Z</time></trkpt><trkpt lat="43.237197" lon="12.8986287"><ele>984.0</ele><time>2026-04-12T14:36:04.819Z</time></trkpt><trkpt lat="43.237197" lon="12.8987168"><ele>984.0</ele><time>2026-04-12T14:36:05.832Z</time></trkpt><trkpt lat="43.2372006" lon="12.8988901"><ele>984.0</ele><time>2026-04-12T14:36:07.819Z</time></trkpt><trkpt lat="43.2371959" lon="12.8989914"><ele>981.8000000000001</ele><time>2026-04-12T14:36:08.819Z</time></trkpt><trkpt lat="43.2371905" lon="12.8990921"><ele>979.6000000000001</ele><time>2026-04-12T14:36:09.821Z</time></trkpt><trkpt lat="43.2371919" lon="12.8991795"><ele>977.4</ele><time>2026-04-12T14:36:10.824Z</time></trkpt><trkpt lat="43.2371917" lon="12.8993315"><ele>975.2</ele><time>2026-04-12T14:36:12.816Z</time></trkpt><trkpt lat="43.237168" lon="12.8994884"><ele>973.0</ele><time>2026-04-12T14:36:14.819Z</time></trkpt><trkpt lat="43.2371457" lon="12.8996455"><ele>971.4</ele><time>2026-04-12T14:36:16.825Z</time></trkpt><trkpt lat="43.2371201" lon="12.8998065"><ele>969.8</ele><time>2026-04-12T14:36:18.825Z</time></trkpt><trkpt lat="43.2371348" lon="12.8999595"><ele>968.2</ele><time>2026-04-12T14:36:20.821Z</time></trkpt><trkpt lat="43.2371691" lon="12.9000484"><ele>966.6</ele><time>2026-04-12T14:36:21.824Z</time></trkpt><trkpt lat="43.2371954" lon="12.9001479"><ele>965.0</ele><time>2026-04-12T14:36:22.822Z</time></trkpt><trkpt lat="43.2372122" lon="12.9002541"><ele>963.8</ele><time>2026-04-12T14:36:23.821Z</time></trkpt><trkpt lat="43.2372202" lon="12.9003637"><ele>962.6</ele><time>2026-04-12T14:36:24.823Z</time></trkpt><trkpt lat="43.2372218" lon="12.9004547"><ele>961.4000000000001</ele><time>2026-04-12T14:36:25.826Z</time></trkpt><trkpt lat="43.2372592" lon="12.9005994"><ele>960.2</ele><time>2026-04-12T14:36:27.827Z</time></trkpt><trkpt lat="43.2372987" lon="12.9007326"><ele>959.0</ele><time>2026-04-12T14:36:29.832Z</time></trkpt><trkpt lat="43.2373475" lon="12.9008737"><ele>954.0000000000001</ele><time>2026-04-12T14:36:31.824Z</time></trkpt><trkpt lat="43.2374024" lon="12.9010145"><ele>949.0</ele><time>2026-04-12T14:36:33.827Z</time></trkpt><trkpt lat="43.2374315" lon="12.9010959"><ele>944.0</ele><time>2026-04-12T14:36:34.824Z</time></trkpt><trkpt lat="43.2374599" lon="12.9011774"><ele>939.0</ele><time>2026-04-12T14:36:35.831Z</time></trkpt><trkpt lat="43.2374942" lon="12.9012602"><ele>934.0000000000001</ele><time>2026-04-12T14:36:36.815Z</time></trkpt><trkpt lat="43.2375253" lon="12.9013375"><ele>929.0</ele><time>2026-04-12T14:36:37.825Z</time></trkpt><trkpt lat="43.2375805" lon="12.9014633"><ele>929.0000000000001</ele><time>2026-04-12T14:36:39.834Z</time></trkpt><trkpt lat="43.2376288" lon="12.9015639"><ele>929.0</ele><time>2026-04-12T14:36:41.825Z</time></trkpt><trkpt lat="43.2376732" lon="12.9016589"><ele>929.0</ele><time>2026-04-12T14:36:43.822Z</time></trkpt><trkpt lat="43.2377248" lon="12.901736"><ele>929.0</ele><time>2026-04-12T14:36:45.822Z</time></trkpt><trkpt lat="43.2377733" lon="12.9018186"><ele>929.0000000000001</ele><time>2026-04-12T14:36:47.842Z</time></trkpt><trkpt lat="43.2377944" lon="12.9019015"><ele>929.0</ele><time>2026-04-12T14:36:49.833Z</time></trkpt><trkpt lat="43.2377898" lon="12.9019947"><ele>927.0</ele><time>2026-04-12T14:36:51.825Z</time></trkpt><trkpt lat="43.2377735" lon="12.9021211"><ele>925.0000000000001</ele><time>2026-04-12T14:36:53.819Z</time></trkpt><trkpt lat="43.2377678" lon="12.9022661"><ele>923.0000000000001</ele><time>2026-04-12T14:36:55.826Z</time></trkpt><trkpt lat="43.237732" lon="12.902434"><ele>921.0</ele><time>2026-04-12T14:36:57.82Z</time></trkpt><trkpt lat="43.2377064" lon="12.9025186"><ele>919.0</ele><time>2026-04-12T14:36:58.824Z</time></trkpt><trkpt lat="43.2376399" lon="12.9026703"><ele>915.8571428571428</ele><time>2026-04-12T14:37:00.819Z</time></trkpt><trkpt lat="43.237592" lon="12.9027501"><ele>912.7142857142856</ele><time>2026-04-12T14:37:01.826Z</time></trkpt><trkpt lat="43.2375477" lon="12.9028301"><ele>909.5714285714286</ele><time>2026-04-12T14:37:02.825Z</time></trkpt><trkpt lat="43.2375053" lon="12.9029069"><ele>906.4285714285713</ele><time>2026-04-12T14:37:03.821Z</time></trkpt><trkpt lat="43.2374664" lon="12.9029759"><ele>903.2857142857142</ele><time>2026-04-12T14:37:04.834Z</time></trkpt><trkpt lat="43.2374195" lon="12.903037"><ele>900.1428571428571</ele><time>2026-04-12T14:37:05.825Z</time></trkpt><trkpt lat="43.2373656" lon="12.9031064"><ele>897.0</ele><time>2026-04-12T14:37:06.82Z</time></trkpt><trkpt lat="43.237303" lon="12.9031863"><ele>895.2</ele><time>2026-04-12T14:37:07.819Z</time></trkpt><trkpt lat="43.2372387" lon="12.9032724"><ele>893.4000000000001</ele><time>2026-04-12T14:37:08.822Z</time></trkpt><trkpt lat="43.2371789" lon="12.9033803"><ele>891.5999999999999</ele><time>2026-04-12T14:37:09.815Z</time></trkpt><trkpt lat="43.2371173" lon="12.9034938"><ele>889.8</ele><time>2026-04-12T14:37:10.815Z</time></trkpt><trkpt lat="43.2370491" lon="12.9036149"><ele>888.0</ele><time>2026-04-12T14:37:11.815Z</time></trkpt><trkpt lat="43.2369835" lon="12.9037249"><ele>888.0</ele><time>2026-04-12T14:37:12.82Z</time></trkpt><trkpt lat="43.2369184" lon="12.9038419"><ele>888.0</ele><time>2026-04-12T14:37:13.819Z</time></trkpt><trkpt lat="43.2368613" lon="12.9039631"><ele>888.0</ele><time>2026-04-12T14:37:14.822Z</time></trkpt><trkpt lat="43.2368204" lon="12.9040901"><ele>888.0</ele><time>2026-04-12T14:37:15.823Z</time></trkpt><trkpt lat="43.2367975" lon="12.9042211"><ele>888.0</ele><time>2026-04-12T14:37:16.828Z</time></trkpt><trkpt lat="43.2367849" lon="12.904346"><ele>883.5999999999999</ele><time>2026-04-12T14:37:17.821Z</time></trkpt><trkpt lat="43.2367847" lon="12.9044835"><ele>879.1999999999999</ele><time>2026-04-12T14:37:18.841Z</time></trkpt><trkpt lat="43.2367897" lon="12.9046189"><ele>874.8</ele><time>2026-04-12T14:37:19.835Z</time></trkpt><trkpt lat="43.2367999" lon="12.9047553"><ele>870.4</ele><time>2026-04-12T14:37:20.831Z</time></trkpt><trkpt lat="43.2368127" lon="12.9048985"><ele>866.0</ele><time>2026-04-12T14:37:21.82Z</time></trkpt><trkpt lat="43.2368212" lon="12.9050495"><ele>862.25</ele><time>2026-04-12T14:37:22.843Z</time></trkpt><trkpt lat="43.2368344" lon="12.9052132"><ele>858.5</ele><time>2026-04-12T14:37:23.826Z</time></trkpt><trkpt lat="43.2368593" lon="12.9053961"><ele>854.75</ele><time>2026-04-12T14:37:24.823Z</time></trkpt><trkpt lat="43.236895" lon="12.9055393"><ele>851.0</ele><time>2026-04-12T14:37:25.827Z</time></trkpt><trkpt lat="43.2369287" lon="12.905669"><ele>851.0000000000001</ele><time>2026-04-12T14:37:26.835Z</time></trkpt><trkpt lat="43.2369566" lon="12.905776"><ele>851.0</ele><time>2026-04-12T14:37:27.834Z</time></trkpt><trkpt lat="43.2369853" lon="12.9059132"><ele>851.0</ele><time>2026-04-12T14:37:29.823Z</time></trkpt><trkpt lat="43.2370144" lon="12.9059901"><ele>851.0</ele><time>2026-04-12T14:37:33.836Z</time></trkpt><trkpt lat="43.2370302" lon="12.9060895"><ele>851.0000000000001</ele><time>2026-04-12T14:37:47.827Z</time></trkpt><trkpt lat="43.2370623" lon="12.9061979"><ele>851.0</ele><time>2026-04-12T14:37:49.829Z</time></trkpt><trkpt lat="43.237104" lon="12.9063481"><ele>850.8333333333334</ele><time>2026-04-12T14:37:51.826Z</time></trkpt><trkpt lat="43.2371511" lon="12.9064861"><ele>850.6666666666667</ele><time>2026-04-12T14:37:53.837Z</time></trkpt><trkpt lat="43.2372262" lon="12.9066076"><ele>850.5</ele><time>2026-04-12T14:37:55.822Z</time></trkpt><trkpt lat="43.2372852" lon="12.9066682"><ele>850.3333333333333</ele><time>2026-04-12T14:37:56.811Z</time></trkpt><trkpt lat="43.2373461" lon="12.9067347"><ele>850.1666666666666</ele><time>2026-04-12T14:37:57.834Z</time></trkpt><trkpt lat="43.2373961" lon="12.9067999"><ele>850.0</ele><time>2026-04-12T14:37:58.847Z</time></trkpt><trkpt lat="43.2374508" lon="12.9068639"><ele>849.9999999999999</ele><time>2026-04-12T14:37:59.837Z</time></trkpt><trkpt lat="43.2375063" lon="12.9069285"><ele>850.0</ele><time>2026-04-12T14:38:00.825Z</time></trkpt><trkpt lat="43.237558" lon="12.9070041"><ele>850.0</ele><time>2026-04-12T14:38:01.836Z</time></trkpt><trkpt lat="43.2376106" lon="12.9070739"><ele>850.0</ele><time>2026-04-12T14:38:02.835Z</time></trkpt><trkpt lat="43.2376522" lon="12.9071395"><ele>849.9999999999999</ele><time>2026-04-12T14:38:03.844Z</time></trkpt><trkpt lat="43.2377157" lon="12.9072427"><ele>850.0</ele><time>2026-04-12T14:38:05.836Z</time></trkpt><trkpt lat="43.2377691" lon="12.9073891"><ele>849.9999999999999</ele><time>2026-04-12T14:38:07.817Z</time></trkpt><trkpt lat="43.2377983" lon="12.9074677"><ele>850.0</ele><time>2026-04-12T14:38:08.827Z</time></trkpt><trkpt lat="43.2378553" lon="12.9076024"><ele>850.0</ele><time>2026-04-12T14:38:10.823Z</time></trkpt><trkpt lat="43.2378829" lon="12.9076821"><ele>850.0</ele><time>2026-04-12T14:38:11.827Z</time></trkpt><trkpt lat="43.2379285" lon="12.9078154"><ele>849.9999999999999</ele><time>2026-04-12T14:38:13.827Z</time></trkpt><trkpt lat="43.2379588" lon="12.9079136"><ele>850.0</ele><time>2026-04-12T14:38:15.819Z</time></trkpt><trkpt lat="43.2379875" lon="12.9079987"><ele>846.4</ele><time>2026-04-12T14:38:17.828Z</time></trkpt><trkpt lat="43.238019" lon="12.9081207"><ele>842.8</ele><time>2026-04-12T14:38:19.83Z</time></trkpt><trkpt lat="43.2380674" lon="12.9082662"><ele>839.2</ele><time>2026-04-12T14:38:21.825Z</time></trkpt><trkpt lat="43.238095" lon="12.9083565"><ele>835.6</ele><time>2026-04-12T14:38:22.822Z</time></trkpt><trkpt lat="43.2381204" lon="12.908441"><ele>832.0</ele><time>2026-04-12T14:38:23.832Z</time></trkpt><trkpt lat="43.2381939" lon="12.9085772"><ele>832.0</ele><time>2026-04-12T14:38:25.831Z</time></trkpt><trkpt lat="43.2382737" lon="12.9087075"><ele>832.0</ele><time>2026-04-12T14:38:27.836Z</time></trkpt><trkpt lat="43.2383401" lon="12.9088267"><ele>832.0</ele><time>2026-04-12T14:38:29.833Z</time></trkpt><trkpt lat="43.2384121" lon="12.9089577"><ele>832.0</ele><time>2026-04-12T14:38:31.819Z</time></trkpt><trkpt lat="43.2384946" lon="12.9090858"><ele>832.0</ele><time>2026-04-12T14:38:33.818Z</time></trkpt><trkpt lat="43.2385713" lon="12.9091998"><ele>832.0</ele><time>2026-04-12T14:38:35.827Z</time></trkpt><trkpt lat="43.2386469" lon="12.9093313"><ele>832.0</ele><time>2026-04-12T14:38:37.817Z</time></trkpt><trkpt lat="43.2387271" lon="12.9094687"><ele>832.0</ele><time>2026-04-12T14:38:39.823Z</time></trkpt><trkpt lat="43.2387702" lon="12.909546"><ele>832.0</ele><time>2026-04-12T14:38:40.819Z</time></trkpt><trkpt lat="43.2388101" lon="12.9096305"><ele>830.9999999999999</ele><time>2026-04-12T14:38:41.814Z</time></trkpt><trkpt lat="43.2388574" lon="12.909701"><ele>830.0</ele><time>2026-04-12T14:38:42.817Z</time></trkpt><trkpt lat="43.2389088" lon="12.9097663"><ele>829.0</ele><time>2026-04-12T14:38:43.819Z</time></trkpt><trkpt lat="43.2389671" lon="12.9098244"><ele>828.0</ele><time>2026-04-12T14:38:44.815Z</time></trkpt><trkpt lat="43.2390269" lon="12.9098857"><ele>826.9999999999999</ele><time>2026-04-12T14:38:45.818Z</time></trkpt><trkpt lat="43.2390982" lon="12.9099641"><ele>826.0</ele><time>2026-04-12T14:38:46.817Z</time></trkpt><trkpt lat="43.2391682" lon="12.9100543"><ele>823.8</ele><time>2026-04-12T14:38:47.814Z</time></trkpt><trkpt lat="43.2392365" lon="12.9101497"><ele>821.5999999999999</ele><time>2026-04-12T14:38:48.824Z</time></trkpt><trkpt lat="43.2392998" lon="12.9102425"><ele>819.4</ele><time>2026-04-12T14:38:49.825Z</time></trkpt><trkpt lat="43.239363" lon="12.9103346"><ele>817.2</ele><time>2026-04-12T14:38:50.823Z</time></trkpt><trkpt lat="43.2394268" lon="12.9104264"><ele>815.0</ele><time>2026-04-12T14:38:51.824Z</time></trkpt><trkpt lat="43.2394893" lon="12.9105164"><ele>815.0</ele><time>2026-04-12T14:38:52.823Z</time></trkpt><trkpt lat="43.2395563" lon="12.9106069"><ele>815.0</ele><time>2026-04-12T14:38:53.824Z</time></trkpt><trkpt lat="43.2396187" lon="12.9107035"><ele>815.0</ele><time>2026-04-12T14:38:54.838Z</time></trkpt><trkpt lat="43.2396811" lon="12.9108029"><ele>815.0</ele><time>2026-04-12T14:38:55.821Z</time></trkpt><trkpt lat="43.2397479" lon="12.9109027"><ele>815.0</ele><time>2026-04-12T14:38:56.824Z</time></trkpt><trkpt lat="43.2398106" lon="12.911018"><ele>817.2</ele><time>2026-04-12T14:38:57.828Z</time></trkpt><trkpt lat="43.2398676" lon="12.9111298"><ele>819.4</ele><time>2026-04-12T14:38:58.817Z</time></trkpt><trkpt lat="43.2399248" lon="12.9112482"><ele>821.5999999999999</ele><time>2026-04-12T14:38:59.822Z</time></trkpt><trkpt lat="43.2399817" lon="12.9113562"><ele>823.8</ele><time>2026-04-12T14:39:00.839Z</time></trkpt><trkpt lat="43.2400414" lon="12.9114646"><ele>826.0</ele><time>2026-04-12T14:39:01.82Z</time></trkpt><trkpt lat="43.2401033" lon="12.9115746"><ele>826.0</ele><time>2026-04-12T14:39:02.818Z</time></trkpt><trkpt lat="43.2401669" lon="12.9116902"><ele>826.0</ele><time>2026-04-12T14:39:03.846Z</time></trkpt><trkpt lat="43.2402268" lon="12.911818"><ele>826.0</ele><time>2026-04-12T14:39:04.834Z</time></trkpt><trkpt lat="43.2402866" lon="12.9119516"><ele>826.0</ele><time>2026-04-12T14:39:05.845Z</time></trkpt><trkpt lat="43.2403354" lon="12.9120722"><ele>826.0</ele><time>2026-04-12T14:39:06.842Z</time></trkpt><trkpt lat="43.2403778" lon="12.9121835"><ele>827.1999999999999</ele><time>2026-04-12T14:39:07.825Z</time></trkpt><trkpt lat="43.2404256" lon="12.9123013"><ele>828.4</ele><time>2026-04-12T14:39:08.822Z</time></trkpt><trkpt lat="43.240477" lon="12.9124239"><ele>829.6</ele><time>2026-04-12T14:39:09.822Z</time></trkpt><trkpt lat="43.2405223" lon="12.9125468"><ele>830.8</ele><time>2026-04-12T14:39:10.849Z</time></trkpt><trkpt lat="43.2405697" lon="12.9126707"><ele>832.0</ele><time>2026-04-12T14:39:11.833Z</time></trkpt><trkpt lat="43.2406111" lon="12.9127894"><ele>838.2</ele><time>2026-04-12T14:39:12.822Z</time></trkpt><trkpt lat="43.240653" lon="12.9129041"><ele>844.4000000000001</ele><time>2026-04-12T14:39:13.833Z</time></trkpt><trkpt lat="43.2406956" lon="12.9130204"><ele>850.5999999999999</ele><time>2026-04-12T14:39:14.83Z</time></trkpt><trkpt lat="43.2407371" lon="12.9131397"><ele>856.8</ele><time>2026-04-12T14:39:15.834Z</time></trkpt><trkpt lat="43.2407813" lon="12.9132663"><ele>863.0</ele><time>2026-04-12T14:39:16.825Z</time></trkpt><trkpt lat="43.2408308" lon="12.913392"><ele>865.2</ele><time>2026-04-12T14:39:17.836Z</time></trkpt><trkpt lat="43.2408763" lon="12.9135167"><ele>867.4</ele><time>2026-04-12T14:39:18.816Z</time></trkpt><trkpt lat="43.2409194" lon="12.9136343"><ele>869.6000000000001</ele><time>2026-04-12T14:39:19.822Z</time></trkpt><trkpt lat="43.2409666" lon="12.9137482"><ele>871.8000000000001</ele><time>2026-04-12T14:39:20.843Z</time></trkpt><trkpt lat="43.2410168" lon="12.9138649"><ele>874.0</ele><time>2026-04-12T14:39:21.843Z</time></trkpt><trkpt lat="43.2410699" lon="12.913986"><ele>874.0</ele><time>2026-04-12T14:39:22.824Z</time></trkpt><trkpt lat="43.2411212" lon="12.9141035"><ele>874.0000000000001</ele><time>2026-04-12T14:39:23.829Z</time></trkpt><trkpt lat="43.2411751" lon="12.9142412"><ele>874.0000000000001</ele><time>2026-04-12T14:39:24.824Z</time></trkpt><trkpt lat="43.2412226" lon="12.9143867"><ele>874.0</ele><time>2026-04-12T14:39:25.814Z</time></trkpt><trkpt lat="43.2412657" lon="12.9145322"><ele>874.0</ele><time>2026-04-12T14:39:26.833Z</time></trkpt><trkpt lat="43.2412925" lon="12.9146859"><ele>874.1666666666666</ele><time>2026-04-12T14:39:27.825Z</time></trkpt><trkpt lat="43.2413038" lon="12.9148215"><ele>874.3333333333333</ele><time>2026-04-12T14:39:28.81Z</time></trkpt><trkpt lat="43.2413057" lon="12.9149308"><ele>874.5</ele><time>2026-04-12T14:39:29.824Z</time></trkpt><trkpt lat="43.2413069" lon="12.9150407"><ele>874.6666666666667</ele><time>2026-04-12T14:39:30.832Z</time></trkpt><trkpt lat="43.2413152" lon="12.915167"><ele>874.8333333333334</ele><time>2026-04-12T14:39:31.837Z</time></trkpt><trkpt lat="43.2413271" lon="12.9152858"><ele>875.0</ele><time>2026-04-12T14:39:32.832Z</time></trkpt><trkpt lat="43.2413442" lon="12.9154214"><ele>875.0</ele><time>2026-04-12T14:39:33.834Z</time></trkpt><trkpt lat="43.2413579" lon="12.9155732"><ele>875.0</ele><time>2026-04-12T14:39:34.842Z</time></trkpt><trkpt lat="43.2413662" lon="12.9157258"><ele>875.0</ele><time>2026-04-12T14:39:35.844Z</time></trkpt><trkpt lat="43.2413844" lon="12.9158735"><ele>875.0</ele><time>2026-04-12T14:39:36.833Z</time></trkpt><trkpt lat="43.2413986" lon="12.916011"><ele>875.0</ele><time>2026-04-12T14:39:37.855Z</time></trkpt><trkpt lat="43.2414191" lon="12.9161374"><ele>873.3333333333334</ele><time>2026-04-12T14:39:38.83Z</time></trkpt><trkpt lat="43.2414429" lon="12.9162566"><ele>871.6666666666667</ele><time>2026-04-12T14:39:39.837Z</time></trkpt><trkpt lat="43.2414753" lon="12.9163647"><ele>870.0</ele><time>2026-04-12T14:39:40.836Z</time></trkpt><trkpt lat="43.2415122" lon="12.9164528"><ele>868.3333333333333</ele><time>2026-04-12T14:39:41.838Z</time></trkpt><trkpt lat="43.24156" lon="12.9165461"><ele>866.6666666666666</ele><time>2026-04-12T14:39:42.828Z</time></trkpt><trkpt lat="43.2416097" lon="12.9166315"><ele>865.0</ele><time>2026-04-12T14:39:43.829Z</time></trkpt><trkpt lat="43.2416533" lon="12.9167254"><ele>869.0</ele><time>2026-04-12T14:39:44.819Z</time></trkpt><trkpt lat="43.2417029" lon="12.9168274"><ele>873.0</ele><time>2026-04-12T14:39:45.824Z</time></trkpt><trkpt lat="43.2417492" lon="12.916928"><ele>877.0</ele><time>2026-04-12T14:39:46.838Z</time></trkpt><trkpt lat="43.2417954" lon="12.91704"><ele>881.0</ele><time>2026-04-12T14:39:47.827Z</time></trkpt><trkpt lat="43.2418461" lon="12.9171532"><ele>885.0</ele><time>2026-04-12T14:39:48.815Z</time></trkpt><trkpt lat="43.2418934" lon="12.9172594"><ele>885.0</ele><time>2026-04-12T14:39:49.82Z</time></trkpt><trkpt lat="43.2419419" lon="12.9173711"><ele>885.0</ele><time>2026-04-12T14:39:50.83Z</time></trkpt><trkpt lat="43.2419899" lon="12.91748"><ele>885.0</ele><time>2026-04-12T14:39:51.834Z</time></trkpt><trkpt lat="43.2420384" lon="12.9175885"><ele>885.0</ele><time>2026-04-12T14:39:52.818Z</time></trkpt><trkpt lat="43.2420794" lon="12.917679"><ele>885.0</ele><time>2026-04-12T14:39:53.813Z</time></trkpt><trkpt lat="43.2421262" lon="12.9177694"><ele>885.0</ele><time>2026-04-12T14:39:54.815Z</time></trkpt><trkpt lat="43.2421717" lon="12.9178587"><ele>886.0</ele><time>2026-04-12T14:39:55.819Z</time></trkpt><trkpt lat="43.2422181" lon="12.917944"><ele>887.0</ele><time>2026-04-12T14:39:56.83Z</time></trkpt><trkpt lat="43.2422672" lon="12.9180244"><ele>888.0</ele><time>2026-04-12T14:39:57.813Z</time></trkpt><trkpt lat="43.2423237" lon="12.9180954"><ele>889.0</ele><time>2026-04-12T14:39:58.815Z</time></trkpt><trkpt lat="43.2423921" lon="12.9181492"><ele>890.0</ele><time>2026-04-12T14:39:59.816Z</time></trkpt><trkpt lat="43.2424783" lon="12.9181822"><ele>891.0</ele><time>2026-04-12T14:40:00.824Z</time></trkpt><trkpt lat="43.2425568" lon="12.9182146"><ele>891.0</ele><time>2026-04-12T14:40:01.821Z</time></trkpt><trkpt lat="43.2426263" lon="12.9182654"><ele>891.0</ele><time>2026-04-12T14:40:02.82Z</time></trkpt><trkpt lat="43.2426967" lon="12.9183218"><ele>891.0</ele><time>2026-04-12T14:40:03.842Z</time></trkpt><trkpt lat="43.242771" lon="12.918326"><ele>891.0</ele><time>2026-04-12T14:40:04.834Z</time></trkpt><trkpt lat="43.2428433" lon="12.9183292"><ele>891.0</ele><time>2026-04-12T14:40:05.824Z</time></trkpt><trkpt lat="43.2429229" lon="12.918333"><ele>891.0</ele><time>2026-04-12T14:40:06.825Z</time></trkpt><trkpt lat="43.2429993" lon="12.9183332"><ele>891.0</ele><time>2026-04-12T14:40:07.817Z</time></trkpt><trkpt lat="43.2430806" lon="12.9183527"><ele>890.9999999999999</ele><time>2026-04-12T14:40:08.818Z</time></trkpt><trkpt lat="43.2431715" lon="12.9183747"><ele>890.9999999999999</ele><time>2026-04-12T14:40:09.824Z</time></trkpt><trkpt lat="43.24327" lon="12.9184112"><ele>891.0</ele><time>2026-04-12T14:40:10.82Z</time></trkpt><trkpt lat="43.243375" lon="12.9184509"><ele>891.0</ele><time>2026-04-12T14:40:11.818Z</time></trkpt><trkpt lat="43.2434841" lon="12.9185014"><ele>891.25</ele><time>2026-04-12T14:40:12.809Z</time></trkpt><trkpt lat="43.2435916" lon="12.9185471"><ele>891.5</ele><time>2026-04-12T14:40:13.82Z</time></trkpt><trkpt lat="43.2437087" lon="12.9185886"><ele>891.75</ele><time>2026-04-12T14:40:14.828Z</time></trkpt><trkpt lat="43.2438189" lon="12.9186131"><ele>892.0</ele><time>2026-04-12T14:40:15.82Z</time></trkpt><trkpt lat="43.2439278" lon="12.9186334"><ele>894.2</ele><time>2026-04-12T14:40:16.822Z</time></trkpt><trkpt lat="43.2440389" lon="12.9186571"><ele>896.4000000000001</ele><time>2026-04-12T14:40:17.823Z</time></trkpt><trkpt lat="43.244146" lon="12.9186917"><ele>898.5999999999999</ele><time>2026-04-12T14:40:18.826Z</time></trkpt><trkpt lat="43.2442561" lon="12.9187308"><ele>900.8</ele><time>2026-04-12T14:40:19.813Z</time></trkpt><trkpt lat="43.2443593" lon="12.9187666"><ele>903.0</ele><time>2026-04-12T14:40:20.82Z</time></trkpt><trkpt lat="43.2444596" lon="12.9188125"><ele>903.0</ele><time>2026-04-12T14:40:21.826Z</time></trkpt><trkpt lat="43.2445665" lon="12.9188585"><ele>903.0</ele><time>2026-04-12T14:40:22.815Z</time></trkpt><trkpt lat="43.2446771" lon="12.9189049"><ele>903.0</ele><time>2026-04-12T14:40:23.83Z</time></trkpt><trkpt lat="43.2447848" lon="12.9189545"><ele>903.0</ele><time>2026-04-12T14:40:24.815Z</time></trkpt><trkpt lat="43.2448812" lon="12.9190119"><ele>903.0</ele><time>2026-04-12T14:40:25.82Z</time></trkpt><trkpt lat="43.2449685" lon="12.9190777"><ele>903.3333333333334</ele><time>2026-04-12T14:40:26.822Z</time></trkpt><trkpt lat="43.2450513" lon="12.9191455"><ele>903.6666666666667</ele><time>2026-04-12T14:40:27.825Z</time></trkpt><trkpt lat="43.2451274" lon="12.9192185"><ele>904.0</ele><time>2026-04-12T14:40:28.813Z</time></trkpt><trkpt lat="43.2451931" lon="12.9192854"><ele>904.3333333333334</ele><time>2026-04-12T14:40:29.816Z</time></trkpt><trkpt lat="43.2452696" lon="12.9193594"><ele>904.6666666666667</ele><time>2026-04-12T14:40:30.826Z</time></trkpt><trkpt lat="43.2453379" lon="12.9194262"><ele>905.0</ele><time>2026-04-12T14:40:31.829Z</time></trkpt><trkpt lat="43.2454127" lon="12.9194844"><ele>905.0</ele><time>2026-04-12T14:40:32.825Z</time></trkpt><trkpt lat="43.2454903" lon="12.9195421"><ele>905.0</ele><time>2026-04-12T14:40:33.818Z</time></trkpt><trkpt lat="43.2455781" lon="12.919597"><ele>905.0</ele><time>2026-04-12T14:40:34.82Z</time></trkpt><trkpt lat="43.2456654" lon="12.9196557"><ele>905.0</ele><time>2026-04-12T14:40:35.82Z</time></trkpt><trkpt lat="43.2457815" lon="12.9197363"><ele>905.0</ele><time>2026-04-12T14:40:36.811Z</time></trkpt><trkpt lat="43.2459084" lon="12.919822"><ele>903.75</ele><time>2026-04-12T14:40:37.817Z</time></trkpt><trkpt lat="43.2460235" lon="12.9199147"><ele>902.5</ele><time>2026-04-12T14:40:38.813Z</time></trkpt><trkpt lat="43.2461373" lon="12.9200181"><ele>901.25</ele><time>2026-04-12T14:40:39.827Z</time></trkpt><trkpt lat="43.246245" lon="12.920109"><ele>900.0</ele><time>2026-04-12T14:40:40.834Z</time></trkpt><trkpt lat="43.2463413" lon="12.9201962"><ele>900.0</ele><time>2026-04-12T14:40:41.841Z</time></trkpt><trkpt lat="43.2464259" lon="12.9202808"><ele>900.0</ele><time>2026-04-12T14:40:42.838Z</time></trkpt><trkpt lat="43.2465067" lon="12.9203574"><ele>900.0</ele><time>2026-04-12T14:40:43.823Z</time></trkpt><trkpt lat="43.2465819" lon="12.920423"><ele>900.0</ele><time>2026-04-12T14:40:44.815Z</time></trkpt><trkpt lat="43.24665" lon="12.920483"><ele>900.0</ele><time>2026-04-12T14:40:45.844Z</time></trkpt><trkpt lat="43.24671" lon="12.9205268"><ele>900.0</ele><time>2026-04-12T14:40:46.844Z</time></trkpt><trkpt lat="43.2468158" lon="12.920539"><ele>903.3333333333334</ele><time>2026-04-12T14:40:48.828Z</time></trkpt><trkpt lat="43.2468825" lon="12.920475"><ele>906.6666666666667</ele><time>2026-04-12T14:40:50.846Z</time></trkpt><trkpt lat="43.2469597" lon="12.9203571"><ele>910.0</ele><time>2026-04-12T14:40:52.828Z</time></trkpt><trkpt lat="43.2469987" lon="12.9202789"><ele>913.3333333333334</ele><time>2026-04-12T14:40:53.829Z</time></trkpt><trkpt lat="43.2470337" lon="12.9201934"><ele>916.6666666666667</ele><time>2026-04-12T14:40:54.83Z</time></trkpt><trkpt lat="43.2470723" lon="12.9201043"><ele>920.0</ele><time>2026-04-12T14:40:55.821Z</time></trkpt><trkpt lat="43.2471019" lon="12.920025"><ele>921.0000000000001</ele><time>2026-04-12T14:40:56.823Z</time></trkpt><trkpt lat="43.2471669" lon="12.9198967"><ele>922.0</ele><time>2026-04-12T14:40:58.825Z</time></trkpt><trkpt lat="43.2472173" lon="12.919835"><ele>923.0</ele><time>2026-04-12T14:40:59.833Z</time></trkpt><trkpt lat="43.2472675" lon="12.9197715"><ele>924.0</ele><time>2026-04-12T14:41:00.825Z</time></trkpt><trkpt lat="43.247318" lon="12.9197"><ele>925.0000000000001</ele><time>2026-04-12T14:41:01.826Z</time></trkpt><trkpt lat="43.2473692" lon="12.9196292"><ele>926.0</ele><time>2026-04-12T14:41:02.825Z</time></trkpt><trkpt lat="43.247421" lon="12.9195655"><ele>926.0000000000001</ele><time>2026-04-12T14:41:03.825Z</time></trkpt><trkpt lat="43.2474722" lon="12.9195047"><ele>926.0</ele><time>2026-04-12T14:41:04.835Z</time></trkpt><trkpt lat="43.2475222" lon="12.9194441"><ele>926.0</ele><time>2026-04-12T14:41:05.826Z</time></trkpt><trkpt lat="43.2475769" lon="12.9193849"><ele>926.0</ele><time>2026-04-12T14:41:06.824Z</time></trkpt><trkpt lat="43.2476333" lon="12.919335"><ele>926.0000000000001</ele><time>2026-04-12T14:41:07.828Z</time></trkpt><trkpt lat="43.2476902" lon="12.9192885"><ele>926.0</ele><time>2026-04-12T14:41:08.829Z</time></trkpt><trkpt lat="43.2477884" lon="12.9192018"><ele>925.4</ele><time>2026-04-12T14:41:10.842Z</time></trkpt><trkpt lat="43.2479158" lon="12.9191601"><ele>924.8</ele><time>2026-04-12T14:41:12.824Z</time></trkpt><trkpt lat="43.2479922" lon="12.9191346"><ele>924.1999999999999</ele><time>2026-04-12T14:41:13.816Z</time></trkpt><trkpt lat="43.2480713" lon="12.9191087"><ele>923.5999999999999</ele><time>2026-04-12T14:41:14.831Z</time></trkpt><trkpt lat="43.2481487" lon="12.9190832"><ele>923.0</ele><time>2026-04-12T14:41:15.824Z</time></trkpt><trkpt lat="43.2482324" lon="12.9190569"><ele>923.0000000000001</ele><time>2026-04-12T14:41:16.818Z</time></trkpt><trkpt lat="43.2483121" lon="12.9190348"><ele>923.0</ele><time>2026-04-12T14:41:17.829Z</time></trkpt><trkpt lat="43.2483914" lon="12.9190098"><ele>923.0</ele><time>2026-04-12T14:41:18.821Z</time></trkpt><trkpt lat="43.2484661" lon="12.9189866"><ele>923.0</ele><time>2026-04-12T14:41:19.838Z</time></trkpt><trkpt lat="43.248539" lon="12.9189618"><ele>923.0000000000001</ele><time>2026-04-12T14:41:20.823Z</time></trkpt><trkpt lat="43.2486073" lon="12.9189255"><ele>923.0</ele><time>2026-04-12T14:41:21.817Z</time></trkpt><trkpt lat="43.2486829" lon="12.9188896"><ele>923.0000000000001</ele><time>2026-04-12T14:41:22.825Z</time></trkpt><trkpt lat="43.24876" lon="12.9188627"><ele>923.0</ele><time>2026-04-12T14:41:23.823Z</time></trkpt><trkpt lat="43.2488421" lon="12.9188313"><ele>923.0</ele><time>2026-04-12T14:41:24.824Z</time></trkpt><trkpt lat="43.2489261" lon="12.9187989"><ele>923.0</ele><time>2026-04-12T14:41:25.828Z</time></trkpt><trkpt lat="43.2490089" lon="12.9187623"><ele>923.0000000000001</ele><time>2026-04-12T14:41:26.824Z</time></trkpt><trkpt lat="43.2490895" lon="12.9187201"><ele>923.0</ele><time>2026-04-12T14:41:27.826Z</time></trkpt><trkpt lat="43.2491672" lon="12.9186831"><ele>920.0000000000001</ele><time>2026-04-12T14:41:28.833Z</time></trkpt><trkpt lat="43.2492448" lon="12.9186483"><ele>917.0</ele><time>2026-04-12T14:41:29.824Z</time></trkpt><trkpt lat="43.2493247" lon="12.9186145"><ele>914.0</ele><time>2026-04-12T14:41:30.82Z</time></trkpt><trkpt lat="43.2493979" lon="12.9185897"><ele>911.0</ele><time>2026-04-12T14:41:31.826Z</time></trkpt><trkpt lat="43.2494702" lon="12.9185695"><ele>908.0000000000001</ele><time>2026-04-12T14:41:32.82Z</time></trkpt><trkpt lat="43.2495404" lon="12.9185463"><ele>905.0</ele><time>2026-04-12T14:41:33.819Z</time></trkpt><trkpt lat="43.24961" lon="12.9185194"><ele>905.0000000000001</ele><time>2026-04-12T14:41:34.829Z</time></trkpt><trkpt lat="43.2496828" lon="12.9184855"><ele>905.0</ele><time>2026-04-12T14:41:35.825Z</time></trkpt><trkpt lat="43.2497598" lon="12.9184452"><ele>905.0</ele><time>2026-04-12T14:41:36.829Z</time></trkpt><trkpt lat="43.2498427" lon="12.9184007"><ele>905.0</ele><time>2026-04-12T14:41:37.824Z</time></trkpt><trkpt lat="43.2499208" lon="12.9183564"><ele>905.0000000000001</ele><time>2026-04-12T14:41:38.821Z</time></trkpt><trkpt lat="43.2499925" lon="12.9183162"><ele>905.0</ele><time>2026-04-12T14:41:39.826Z</time></trkpt><trkpt lat="43.2500634" lon="12.9182851"><ele>902.2</ele><time>2026-04-12T14:41:40.827Z</time></trkpt><trkpt lat="43.2501503" lon="12.9182618"><ele>899.4</ele><time>2026-04-12T14:41:41.829Z</time></trkpt><trkpt lat="43.2502407" lon="12.9182337"><ele>896.5999999999999</ele><time>2026-04-12T14:41:42.82Z</time></trkpt><trkpt lat="43.2503383" lon="12.9182186"><ele>893.8</ele><time>2026-04-12T14:41:43.819Z</time></trkpt><trkpt lat="43.2504331" lon="12.9182033"><ele>891.0</ele><time>2026-04-12T14:41:44.824Z</time></trkpt><trkpt lat="43.2505294" lon="12.9182058"><ele>891.0</ele><time>2026-04-12T14:41:45.837Z</time></trkpt><trkpt lat="43.2506205" lon="12.9182099"><ele>891.0</ele><time>2026-04-12T14:41:46.82Z</time></trkpt><trkpt lat="43.2507144" lon="12.9182208"><ele>891.0</ele><time>2026-04-12T14:41:47.815Z</time></trkpt><trkpt lat="43.2507973" lon="12.9182359"><ele>891.0</ele><time>2026-04-12T14:41:48.825Z</time></trkpt><trkpt lat="43.2508701" lon="12.9182617"><ele>891.0</ele><time>2026-04-12T14:41:49.83Z</time></trkpt><trkpt lat="43.2509387" lon="12.9182922"><ele>891.0</ele><time>2026-04-12T14:41:50.823Z</time></trkpt><trkpt lat="43.2510018" lon="12.9183325"><ele>888.5</ele><time>2026-04-12T14:41:51.824Z</time></trkpt><trkpt lat="43.2510711" lon="12.9183783"><ele>886.0</ele><time>2026-04-12T14:41:52.824Z</time></trkpt><trkpt lat="43.2511449" lon="12.918429"><ele>883.5</ele><time>2026-04-12T14:41:53.824Z</time></trkpt><trkpt lat="43.2512177" lon="12.9184799"><ele>881.0</ele><time>2026-04-12T14:41:54.823Z</time></trkpt><trkpt lat="43.2512952" lon="12.9185291"><ele>878.5</ele><time>2026-04-12T14:41:55.824Z</time></trkpt><trkpt lat="43.251377" lon="12.9185785"><ele>876.0</ele><time>2026-04-12T14:41:56.827Z</time></trkpt><trkpt lat="43.2514708" lon="12.9186173"><ele>874.0</ele><time>2026-04-12T14:41:57.823Z</time></trkpt><trkpt lat="43.2515659" lon="12.9186569"><ele>871.9999999999999</ele><time>2026-04-12T14:41:58.821Z</time></trkpt><trkpt lat="43.2516595" lon="12.9186913"><ele>869.9999999999999</ele><time>2026-04-12T14:41:59.821Z</time></trkpt><trkpt lat="43.2517492" lon="12.9187301"><ele>868.0</ele><time>2026-04-12T14:42:00.822Z</time></trkpt><trkpt lat="43.2518393" lon="12.9187648"><ele>866.0</ele><time>2026-04-12T14:42:01.826Z</time></trkpt><trkpt lat="43.2519264" lon="12.9187964"><ele>865.9999999999999</ele><time>2026-04-12T14:42:02.823Z</time></trkpt><trkpt lat="43.2520003" lon="12.9188223"><ele>866.0</ele><time>2026-04-12T14:42:03.818Z</time></trkpt><trkpt lat="43.252069" lon="12.9188462"><ele>866.0</ele><time>2026-04-12T14:42:04.816Z</time></trkpt><trkpt lat="43.2521402" lon="12.9188557"><ele>866.0</ele><time>2026-04-12T14:42:05.818Z</time></trkpt><trkpt lat="43.2522108" lon="12.9188672"><ele>866.0</ele><time>2026-04-12T14:42:06.817Z</time></trkpt><trkpt lat="43.2522822" lon="12.9188824"><ele>865.9999999999999</ele><time>2026-04-12T14:42:07.819Z</time></trkpt><trkpt lat="43.252352" lon="12.9188989"><ele>866.0</ele><time>2026-04-12T14:42:08.823Z</time></trkpt><trkpt lat="43.2524262" lon="12.9189069"><ele>864.8333333333334</ele><time>2026-04-12T14:42:09.819Z</time></trkpt><trkpt lat="43.2524994" lon="12.9189184"><ele>863.6666666666667</ele><time>2026-04-12T14:42:10.838Z</time></trkpt><trkpt lat="43.2525776" lon="12.9189245"><ele>862.5</ele><time>2026-04-12T14:42:11.823Z</time></trkpt><trkpt lat="43.2526551" lon="12.9189271"><ele>861.3333333333333</ele><time>2026-04-12T14:42:12.825Z</time></trkpt><trkpt lat="43.2527642" lon="12.918945"><ele>860.1666666666666</ele><time>2026-04-12T14:42:14.818Z</time></trkpt><trkpt lat="43.2528593" lon="12.9189962"><ele>859.0</ele><time>2026-04-12T14:42:16.827Z</time></trkpt><trkpt lat="43.252963" lon="12.9190795"><ele>859.0</ele><time>2026-04-12T14:42:18.826Z</time></trkpt><trkpt lat="43.2530773" lon="12.9191637"><ele>859.0</ele><time>2026-04-12T14:42:20.834Z</time></trkpt><trkpt lat="43.2531705" lon="12.919242"><ele>859.0</ele><time>2026-04-12T14:42:22.83Z</time></trkpt><trkpt lat="43.2532888" lon="12.9192973"><ele>859.0</ele><time>2026-04-12T14:42:24.819Z</time></trkpt><trkpt lat="43.2533953" lon="12.9193511"><ele>853.8000000000001</ele><time>2026-04-12T14:42:26.844Z</time></trkpt><trkpt lat="43.2534821" lon="12.9194622"><ele>848.6000000000001</ele><time>2026-04-12T14:42:28.836Z</time></trkpt><trkpt lat="43.2535153" lon="12.91955"><ele>843.4</ele><time>2026-04-12T14:42:29.849Z</time></trkpt><trkpt lat="43.2535785" lon="12.9196532"><ele>838.2</ele><time>2026-04-12T14:42:31.812Z</time></trkpt><trkpt lat="43.2536501" lon="12.9197821"><ele>833.0</ele><time>2026-04-12T14:42:33.831Z</time></trkpt><trkpt lat="43.2537107" lon="12.9198875"><ele>833.0</ele><time>2026-04-12T14:42:34.824Z</time></trkpt><trkpt lat="43.2537838" lon="12.9199951"><ele>833.0</ele><time>2026-04-12T14:42:35.829Z</time></trkpt><trkpt lat="43.2538592" lon="12.9200979"><ele>833.0</ele><time>2026-04-12T14:42:36.827Z</time></trkpt><trkpt lat="43.2539416" lon="12.9201916"><ele>833.0</ele><time>2026-04-12T14:42:37.839Z</time></trkpt><trkpt lat="43.2540204" lon="12.9202853"><ele>833.0</ele><time>2026-04-12T14:42:38.837Z</time></trkpt><trkpt lat="43.2540935" lon="12.9203662"><ele>830.8333333333334</ele><time>2026-04-12T14:42:39.832Z</time></trkpt><trkpt lat="43.2541692" lon="12.9204409"><ele>828.6666666666667</ele><time>2026-04-12T14:42:40.84Z</time></trkpt><trkpt lat="43.254246" lon="12.920498"><ele>826.5</ele><time>2026-04-12T14:42:41.82Z</time></trkpt><trkpt lat="43.2543216" lon="12.9205558"><ele>824.3333333333333</ele><time>2026-04-12T14:42:42.819Z</time></trkpt><trkpt lat="43.2543948" lon="12.9206162"><ele>822.1666666666666</ele><time>2026-04-12T14:42:43.836Z</time></trkpt><trkpt lat="43.254469" lon="12.9206822"><ele>820.0</ele><time>2026-04-12T14:42:44.831Z</time></trkpt><trkpt lat="43.254543" lon="12.92076"><ele>819.9999999999999</ele><time>2026-04-12T14:42:45.822Z</time></trkpt><trkpt lat="43.2546103" lon="12.9208375"><ele>820.0</ele><time>2026-04-12T14:42:46.831Z</time></trkpt><trkpt lat="43.2546747" lon="12.920907"><ele>820.0</ele><time>2026-04-12T14:42:47.816Z</time></trkpt><trkpt lat="43.2547431" lon="12.9209748"><ele>820.0</ele><time>2026-04-12T14:42:48.829Z</time></trkpt><trkpt lat="43.2548106" lon="12.9210349"><ele>819.9999999999999</ele><time>2026-04-12T14:42:49.823Z</time></trkpt><trkpt lat="43.2548773" lon="12.9211151"><ele>820.0</ele><time>2026-04-12T14:42:50.834Z</time></trkpt><trkpt lat="43.254943" lon="12.9212036"><ele>818.1666666666666</ele><time>2026-04-12T14:42:51.846Z</time></trkpt><trkpt lat="43.2550111" lon="12.9212869"><ele>816.3333333333333</ele><time>2026-04-12T14:42:52.83Z</time></trkpt><trkpt lat="43.2550763" lon="12.9213616"><ele>814.5</ele><time>2026-04-12T14:42:53.826Z</time></trkpt><trkpt lat="43.2551337" lon="12.9214389"><ele>812.6666666666667</ele><time>2026-04-12T14:42:54.822Z</time></trkpt><trkpt lat="43.2551863" lon="12.9215103"><ele>810.8333333333334</ele><time>2026-04-12T14:42:55.828Z</time></trkpt><trkpt lat="43.2552325" lon="12.9215701"><ele>809.0</ele><time>2026-04-12T14:42:56.823Z</time></trkpt><trkpt lat="43.2552724" lon="12.9216941"><ele>805.6666666666667</ele><time>2026-04-12T14:42:58.83Z</time></trkpt><trkpt lat="43.2552438" lon="12.9217819"><ele>802.3333333333334</ele><time>2026-04-12T14:43:00.818Z</time></trkpt><trkpt lat="43.2551802" lon="12.9218173"><ele>799.0</ele><time>2026-04-12T14:43:02.819Z</time></trkpt><trkpt lat="43.2550868" lon="12.9218086"><ele>795.6666666666667</ele><time>2026-04-12T14:43:04.825Z</time></trkpt><trkpt lat="43.2550228" lon="12.9217922"><ele>792.3333333333334</ele><time>2026-04-12T14:43:05.823Z</time></trkpt><trkpt lat="43.2549377" lon="12.9217764"><ele>789.0</ele><time>2026-04-12T14:43:06.824Z</time></trkpt><trkpt lat="43.2548448" lon="12.9217713"><ele>787.6</ele><time>2026-04-12T14:43:07.818Z</time></trkpt><trkpt lat="43.2547493" lon="12.9217561"><ele>786.2</ele><time>2026-04-12T14:43:08.838Z</time></trkpt><trkpt lat="43.2546475" lon="12.9217343"><ele>784.8000000000001</ele><time>2026-04-12T14:43:09.829Z</time></trkpt><trkpt lat="43.2545431" lon="12.9217154"><ele>783.4000000000001</ele><time>2026-04-12T14:43:10.824Z</time></trkpt><trkpt lat="43.2544431" lon="12.921704"><ele>782.0</ele><time>2026-04-12T14:43:11.818Z</time></trkpt><trkpt lat="43.2543524" lon="12.9216929"><ele>782.0000000000001</ele><time>2026-04-12T14:43:12.826Z</time></trkpt><trkpt lat="43.2542693" lon="12.9216848"><ele>782.0</ele><time>2026-04-12T14:43:13.811Z</time></trkpt><trkpt lat="43.2541957" lon="12.921674"><ele>782.0</ele><time>2026-04-12T14:43:14.826Z</time></trkpt><trkpt lat="43.254114" lon="12.9216177"><ele>782.0</ele><time>2026-04-12T14:43:16.824Z</time></trkpt><trkpt lat="43.2541344" lon="12.9217149"><ele>782.0000000000001</ele><time>2026-04-12T14:43:21.82Z</time></trkpt><trkpt lat="43.2541873" lon="12.9217725"><ele>782.0</ele><time>2026-04-12T14:43:22.826Z</time></trkpt><trkpt lat="43.2542461" lon="12.9218413"><ele>782.0000000000001</ele><time>2026-04-12T14:43:23.824Z</time></trkpt><trkpt lat="43.2543" lon="12.9219209"><ele>782.0</ele><time>2026-04-12T14:43:24.834Z</time></trkpt><trkpt lat="43.2543566" lon="12.9220036"><ele>782.0</ele><time>2026-04-12T14:43:25.825Z</time></trkpt><trkpt lat="43.2544196" lon="12.9220879"><ele>782.0</ele><time>2026-04-12T14:43:26.832Z</time></trkpt><trkpt lat="43.254493" lon="12.9221639"><ele>782.0000000000001</ele><time>2026-04-12T14:43:27.824Z</time></trkpt><trkpt lat="43.2545641" lon="12.9222422"><ele>782.0</ele><time>2026-04-12T14:43:28.82Z</time></trkpt><trkpt lat="43.2546348" lon="12.9223109"><ele>782.0000000000001</ele><time>2026-04-12T14:43:29.828Z</time></trkpt><trkpt lat="43.2547062" lon="12.9223693"><ele>782.0</ele><time>2026-04-12T14:43:30.82Z</time></trkpt><trkpt lat="43.2547761" lon="12.9224183"><ele>782.0</ele><time>2026-04-12T14:43:31.827Z</time></trkpt><trkpt lat="43.2548413" lon="12.92246"><ele>782.0</ele><time>2026-04-12T14:43:32.827Z</time></trkpt><trkpt lat="43.2549018" lon="12.9224976"><ele>782.0000000000001</ele><time>2026-04-12T14:43:33.827Z</time></trkpt><trkpt lat="43.254992" lon="12.9225537"><ele>782.0</ele><time>2026-04-12T14:43:35.821Z</time></trkpt><trkpt lat="43.2549729" lon="12.9226457"><ele>778.6</ele><time>2026-04-12T14:43:38.815Z</time></trkpt><trkpt lat="43.2548832" lon="12.9226582"><ele>775.2</ele><time>2026-04-12T14:43:40.799Z</time></trkpt><trkpt lat="43.2547994" lon="12.9226517"><ele>771.8</ele><time>2026-04-12T14:43:41.835Z</time></trkpt><trkpt lat="43.2546861" lon="12.9226373"><ele>768.4</ele><time>2026-04-12T14:43:42.848Z</time></trkpt><trkpt lat="43.2545532" lon="12.9226607"><ele>765.0</ele><time>2026-04-12T14:43:43.814Z</time></trkpt><trkpt lat="43.2544092" lon="12.9226856"><ele>764.5</ele><time>2026-04-12T14:43:44.834Z</time></trkpt><trkpt lat="43.2542683" lon="12.9226941"><ele>764.0</ele><time>2026-04-12T14:43:45.819Z</time></trkpt><trkpt lat="43.2541413" lon="12.9227303"><ele>763.5</ele><time>2026-04-12T14:43:46.812Z</time></trkpt><trkpt lat="43.2540064" lon="12.9227472"><ele>763.0</ele><time>2026-04-12T14:43:47.847Z</time></trkpt><trkpt lat="43.2538662" lon="12.9227508"><ele>764.0</ele><time>2026-04-12T14:43:48.821Z</time></trkpt><trkpt lat="43.2537521" lon="12.9227587"><ele>765.0</ele><time>2026-04-12T14:43:49.812Z</time></trkpt><trkpt lat="43.253653" lon="12.9227622"><ele>766.0</ele><time>2026-04-12T14:43:50.801Z</time></trkpt><trkpt lat="43.2535791" lon="12.9227974"><ele>767.0</ele><time>2026-04-12T14:43:51.826Z</time></trkpt><trkpt lat="43.253512" lon="12.9228161"><ele>767.9999999999999</ele><time>2026-04-12T14:43:52.82Z</time></trkpt><trkpt lat="43.253449" lon="12.9228367"><ele>769.0</ele><time>2026-04-12T14:43:53.804Z</time></trkpt><trkpt lat="43.2533847" lon="12.9228546"><ele>769.0</ele><time>2026-04-12T14:43:54.823Z</time></trkpt><trkpt lat="43.2533159" lon="12.9228868"><ele>769.0</ele><time>2026-04-12T14:43:55.814Z</time></trkpt><trkpt lat="43.2532427" lon="12.9230068"><ele>769.0</ele><time>2026-04-12T14:43:57.816Z</time></trkpt><trkpt lat="43.2532711" lon="12.9231477"><ele>769.0</ele><time>2026-04-12T14:43:59.813Z</time></trkpt><trkpt lat="43.2533173" lon="12.9232255"><ele>769.0</ele><time>2026-04-12T14:44:00.818Z</time></trkpt><trkpt lat="43.2533887" lon="12.9232968"><ele>768.9999999999999</ele><time>2026-04-12T14:44:01.815Z</time></trkpt><trkpt lat="43.2534605" lon="12.9233707"><ele>769.0</ele><time>2026-04-12T14:44:02.816Z</time></trkpt><trkpt lat="43.2535257" lon="12.9234317"><ele>769.0</ele><time>2026-04-12T14:44:03.851Z</time></trkpt><trkpt lat="43.2535943" lon="12.923469"><ele>769.0</ele><time>2026-04-12T14:44:04.834Z</time></trkpt><trkpt lat="43.2536736" lon="12.9234833"><ele>768.9999999999999</ele><time>2026-04-12T14:44:05.825Z</time></trkpt><trkpt lat="43.2537577" lon="12.9235097"><ele>769.0</ele><time>2026-04-12T14:44:06.82Z</time></trkpt><trkpt lat="43.2538507" lon="12.9235372"><ele>771.5</ele><time>2026-04-12T14:44:07.815Z</time></trkpt><trkpt lat="43.2539518" lon="12.9235714"><ele>774.0</ele><time>2026-04-12T14:44:08.815Z</time></trkpt><trkpt lat="43.2540685" lon="12.9236189"><ele>776.5</ele><time>2026-04-12T14:44:09.817Z</time></trkpt><trkpt lat="43.2541983" lon="12.9236646"><ele>779.0</ele><time>2026-04-12T14:44:10.815Z</time></trkpt><trkpt lat="43.2543242" lon="12.9237215"><ele>779.0</ele><time>2026-04-12T14:44:11.827Z</time></trkpt><trkpt lat="43.2544412" lon="12.9237906"><ele>779.0</ele><time>2026-04-12T14:44:12.82Z</time></trkpt><trkpt lat="43.2545455" lon="12.923862"><ele>779.0</ele><time>2026-04-12T14:44:13.809Z</time></trkpt><trkpt lat="43.2546445" lon="12.9239196"><ele>779.0</ele><time>2026-04-12T14:44:14.819Z</time></trkpt><trkpt lat="43.2547414" lon="12.9239818"><ele>779.2</ele><time>2026-04-12T14:44:15.818Z</time></trkpt><trkpt lat="43.2548412" lon="12.924035"><ele>779.4000000000001</ele><time>2026-04-12T14:44:16.82Z</time></trkpt><trkpt lat="43.2549347" lon="12.9240979"><ele>779.6</ele><time>2026-04-12T14:44:17.812Z</time></trkpt><trkpt lat="43.2550204" lon="12.92417"><ele>779.8</ele><time>2026-04-12T14:44:18.814Z</time></trkpt><trkpt lat="43.2550904" lon="12.9242697"><ele>780.0</ele><time>2026-04-12T14:44:19.814Z</time></trkpt><trkpt lat="43.2551376" lon="12.924386"><ele>780.0</ele><time>2026-04-12T14:44:20.823Z</time></trkpt><trkpt lat="43.2551792" lon="12.9245126"><ele>780.0</ele><time>2026-04-12T14:44:21.813Z</time></trkpt><trkpt lat="43.2552283" lon="12.9246458"><ele>780.0</ele><time>2026-04-12T14:44:22.815Z</time></trkpt><trkpt lat="43.2552691" lon="12.9247873"><ele>780.0</ele><time>2026-04-12T14:44:23.817Z</time></trkpt><trkpt lat="43.2553088" lon="12.9249425"><ele>780.0</ele><time>2026-04-12T14:44:24.812Z</time></trkpt><trkpt lat="43.2553589" lon="12.9251162"><ele>782.5</ele><time>2026-04-12T14:44:25.819Z</time></trkpt><trkpt lat="43.2554223" lon="12.9252799"><ele>785.0</ele><time>2026-04-12T14:44:26.818Z</time></trkpt><trkpt lat="43.2554793" lon="12.9254478"><ele>787.5</ele><time>2026-04-12T14:44:27.826Z</time></trkpt><trkpt lat="43.2555449" lon="12.9256147"><ele>790.0</ele><time>2026-04-12T14:44:28.82Z</time></trkpt><trkpt lat="43.2556084" lon="12.9257709"><ele>783.0</ele><time>2026-04-12T14:44:29.818Z</time></trkpt><trkpt lat="43.2556862" lon="12.9259213"><ele>776.0</ele><time>2026-04-12T14:44:30.816Z</time></trkpt><trkpt lat="43.2557678" lon="12.9260788"><ele>769.0</ele><time>2026-04-12T14:44:31.811Z</time></trkpt><trkpt lat="43.2558457" lon="12.9262356"><ele>762.0</ele><time>2026-04-12T14:44:32.816Z</time></trkpt><trkpt lat="43.2559194" lon="12.9263863"><ele>762.0</ele><time>2026-04-12T14:44:33.834Z</time></trkpt><trkpt lat="43.2559835" lon="12.926527"><ele>762.0</ele><time>2026-04-12T14:44:34.814Z</time></trkpt><trkpt lat="43.2560542" lon="12.9266582"><ele>762.0</ele><time>2026-04-12T14:44:35.817Z</time></trkpt><trkpt lat="43.2561287" lon="12.9267863"><ele>762.0</ele><time>2026-04-12T14:44:36.813Z</time></trkpt><trkpt lat="43.2561921" lon="12.9269181"><ele>762.8</ele><time>2026-04-12T14:44:37.81Z</time></trkpt><trkpt lat="43.2562448" lon="12.9270493"><ele>763.6</ele><time>2026-04-12T14:44:38.817Z</time></trkpt><trkpt lat="43.2562949" lon="12.9271778"><ele>764.4</ele><time>2026-04-12T14:44:39.819Z</time></trkpt><trkpt lat="43.256331" lon="12.9273176"><ele>765.1999999999999</ele><time>2026-04-12T14:44:40.827Z</time></trkpt><trkpt lat="43.2563639" lon="12.9274649"><ele>766.0</ele><time>2026-04-12T14:44:41.815Z</time></trkpt><trkpt lat="43.2563877" lon="12.9276065"><ele>766.1999999999999</ele><time>2026-04-12T14:44:42.815Z</time></trkpt><trkpt lat="43.2563994" lon="12.9277445"><ele>766.4</ele><time>2026-04-12T14:44:43.82Z</time></trkpt><trkpt lat="43.2564021" lon="12.9278817"><ele>766.6</ele><time>2026-04-12T14:44:44.825Z</time></trkpt><trkpt lat="43.2563985" lon="12.9280186"><ele>766.8</ele><time>2026-04-12T14:44:45.815Z</time></trkpt><trkpt lat="43.2563918" lon="12.9281488"><ele>767.0</ele><time>2026-04-12T14:44:46.809Z</time></trkpt><trkpt lat="43.2563745" lon="12.9282775"><ele>767.2</ele><time>2026-04-12T14:44:47.833Z</time></trkpt><trkpt lat="43.256345" lon="12.9284104"><ele>767.4000000000001</ele><time>2026-04-12T14:44:48.808Z</time></trkpt><trkpt lat="43.2563053" lon="12.9285586"><ele>767.5999999999999</ele><time>2026-04-12T14:44:49.806Z</time></trkpt><trkpt lat="43.2562671" lon="12.9287181"><ele>767.8</ele><time>2026-04-12T14:44:50.81Z</time></trkpt><trkpt lat="43.256243" lon="12.928866"><ele>768.0</ele><time>2026-04-12T14:44:51.848Z</time></trkpt><trkpt lat="43.2562515" lon="12.9289936"><ele>768.0</ele><time>2026-04-12T14:44:52.82Z</time></trkpt><trkpt lat="43.2562805" lon="12.9291317"><ele>768.0</ele><time>2026-04-12T14:44:53.831Z</time></trkpt><trkpt lat="43.2563268" lon="12.9293103"><ele>768.0</ele><time>2026-04-12T14:44:54.826Z</time></trkpt><trkpt lat="43.2563784" lon="12.9295359"><ele>768.0</ele><time>2026-04-12T14:44:55.831Z</time></trkpt><trkpt lat="43.2564133" lon="12.9297465"><ele>770.75</ele><time>2026-04-12T14:44:56.818Z</time></trkpt><trkpt lat="43.2564387" lon="12.9299148"><ele>773.5</ele><time>2026-04-12T14:44:57.832Z</time></trkpt><trkpt lat="43.2564706" lon="12.9300631"><ele>776.25</ele><time>2026-04-12T14:44:58.823Z</time></trkpt><trkpt lat="43.2565248" lon="12.9302021"><ele>779.0</ele><time>2026-04-12T14:44:59.835Z</time></trkpt><trkpt lat="43.2565902" lon="12.9303518"><ele>777.0</ele><time>2026-04-12T14:45:00.821Z</time></trkpt><trkpt lat="43.2566604" lon="12.9305348"><ele>775.0</ele><time>2026-04-12T14:45:01.827Z</time></trkpt><trkpt lat="43.2567204" lon="12.9307264"><ele>773.0</ele><time>2026-04-12T14:45:02.82Z</time></trkpt><trkpt lat="43.2567883" lon="12.9308927"><ele>771.0</ele><time>2026-04-12T14:45:03.824Z</time></trkpt><trkpt lat="43.2568583" lon="12.9310459"><ele>771.0</ele><time>2026-04-12T14:45:04.823Z</time></trkpt><trkpt lat="43.2569279" lon="12.9311925"><ele>771.0</ele><time>2026-04-12T14:45:05.821Z</time></trkpt><trkpt lat="43.2569811" lon="12.9313019"><ele>771.0</ele><time>2026-04-12T14:45:06.814Z</time></trkpt><trkpt lat="43.2570409" lon="12.9313965"><ele>771.0</ele><time>2026-04-12T14:45:07.83Z</time></trkpt><trkpt lat="43.2571124" lon="12.9314817"><ele>771.0</ele><time>2026-04-12T14:45:08.812Z</time></trkpt><trkpt lat="43.2571911" lon="12.9315596"><ele>771.0</ele><time>2026-04-12T14:45:09.829Z</time></trkpt><trkpt lat="43.2572582" lon="12.9316511"><ele>771.0</ele><time>2026-04-12T14:45:10.833Z</time></trkpt><trkpt lat="43.2572946" lon="12.9317601"><ele>771.0</ele><time>2026-04-12T14:45:11.827Z</time></trkpt><trkpt lat="43.2573218" lon="12.9318899"><ele>771.0</ele><time>2026-04-12T14:45:12.832Z</time></trkpt><trkpt lat="43.2573566" lon="12.9320092"><ele>771.0</ele><time>2026-04-12T14:45:13.824Z</time></trkpt><trkpt lat="43.2574139" lon="12.9320884"><ele>768.1999999999999</ele><time>2026-04-12T14:45:14.811Z</time></trkpt><trkpt lat="43.2574829" lon="12.9321321"><ele>765.4</ele><time>2026-04-12T14:45:15.83Z</time></trkpt><trkpt lat="43.2575667" lon="12.9321441"><ele>762.6</ele><time>2026-04-12T14:45:16.827Z</time></trkpt><trkpt lat="43.2576646" lon="12.9321466"><ele>759.8</ele><time>2026-04-12T14:45:17.826Z</time></trkpt><trkpt lat="43.257766" lon="12.9321733"><ele>757.0</ele><time>2026-04-12T14:45:18.838Z</time></trkpt><trkpt lat="43.2578822" lon="12.932232"><ele>757.0</ele><time>2026-04-12T14:45:19.831Z</time></trkpt><trkpt lat="43.2580044" lon="12.9323075"><ele>757.0</ele><time>2026-04-12T14:45:20.815Z</time></trkpt><trkpt lat="43.2581402" lon="12.932379"><ele>757.0</ele><time>2026-04-12T14:45:21.813Z</time></trkpt><trkpt lat="43.258282" lon="12.9324422"><ele>757.0</ele><time>2026-04-12T14:45:22.821Z</time></trkpt><trkpt lat="43.2584155" lon="12.9325027"><ele>757.75</ele><time>2026-04-12T14:45:23.816Z</time></trkpt><trkpt lat="43.2585433" lon="12.9325594"><ele>758.5</ele><time>2026-04-12T14:45:24.813Z</time></trkpt><trkpt lat="43.2586639" lon="12.932595"><ele>759.25</ele><time>2026-04-12T14:45:25.813Z</time></trkpt><trkpt lat="43.2587879" lon="12.9326316"><ele>760.0</ele><time>2026-04-12T14:45:26.828Z</time></trkpt><trkpt lat="43.2589083" lon="12.9326702"><ele>754.8</ele><time>2026-04-12T14:45:27.821Z</time></trkpt><trkpt lat="43.2590151" lon="12.9327009"><ele>749.6</ele><time>2026-04-12T14:45:28.816Z</time></trkpt><trkpt lat="43.2591163" lon="12.9327272"><ele>744.4000000000001</ele><time>2026-04-12T14:45:29.825Z</time></trkpt><trkpt lat="43.2592246" lon="12.9327494"><ele>739.2</ele><time>2026-04-12T14:45:30.818Z</time></trkpt><trkpt lat="43.2593357" lon="12.9327509"><ele>734.0</ele><time>2026-04-12T14:45:31.823Z</time></trkpt><trkpt lat="43.2594352" lon="12.9327521"><ele>734.0</ele><time>2026-04-12T14:45:32.825Z</time></trkpt><trkpt lat="43.2595221" lon="12.9327583"><ele>734.0</ele><time>2026-04-12T14:45:33.826Z</time></trkpt><trkpt lat="43.2595957" lon="12.9327666"><ele>734.0</ele><time>2026-04-12T14:45:34.827Z</time></trkpt><trkpt lat="43.2596616" lon="12.9327705"><ele>734.0</ele><time>2026-04-12T14:45:35.826Z</time></trkpt><trkpt lat="43.2597255" lon="12.9328454"><ele>734.0</ele><time>2026-04-12T14:45:37.826Z</time></trkpt><trkpt lat="43.2597083" lon="12.9329482"><ele>734.0</ele><time>2026-04-12T14:45:39.825Z</time></trkpt><trkpt lat="43.2596342" lon="12.9330525"><ele>734.0</ele><time>2026-04-12T14:45:41.822Z</time></trkpt><trkpt lat="43.2595551" lon="12.9331666"><ele>734.0</ele><time>2026-04-12T14:45:43.821Z</time></trkpt><trkpt lat="43.259485" lon="12.9332807"><ele>734.0</ele><time>2026-04-12T14:45:45.826Z</time></trkpt><trkpt lat="43.2594329" lon="12.9334266"><ele>734.0</ele><time>2026-04-12T14:45:47.828Z</time></trkpt><trkpt lat="43.2594265" lon="12.9335138"><ele>734.0</ele><time>2026-04-12T14:45:48.837Z</time></trkpt><trkpt lat="43.2594316" lon="12.933607"><ele>733.1666666666666</ele><time>2026-04-12T14:45:49.848Z</time></trkpt><trkpt lat="43.2594378" lon="12.9337058"><ele>732.3333333333333</ele><time>2026-04-12T14:45:50.868Z</time></trkpt><trkpt lat="43.2594386" lon="12.9338238"><ele>731.5</ele><time>2026-04-12T14:45:51.84Z</time></trkpt><trkpt lat="43.2594317" lon="12.9339467"><ele>730.6666666666666</ele><time>2026-04-12T14:45:52.833Z</time></trkpt><trkpt lat="43.2594247" lon="12.9340734"><ele>729.8333333333334</ele><time>2026-04-12T14:45:53.823Z</time></trkpt><trkpt lat="43.2594182" lon="12.9342141"><ele>729.0</ele><time>2026-04-12T14:45:54.817Z</time></trkpt><trkpt lat="43.2594114" lon="12.934352"><ele>725.1666666666666</ele><time>2026-04-12T14:45:55.819Z</time></trkpt><trkpt lat="43.2593946" lon="12.93447"><ele>721.3333333333334</ele><time>2026-04-12T14:45:56.816Z</time></trkpt><trkpt lat="43.2593629" lon="12.9345759"><ele>717.5</ele><time>2026-04-12T14:45:57.819Z</time></trkpt><trkpt lat="43.2593147" lon="12.9346632"><ele>713.6666666666667</ele><time>2026-04-12T14:45:58.828Z</time></trkpt><trkpt lat="43.2592506" lon="12.9347257"><ele>709.8333333333334</ele><time>2026-04-12T14:45:59.82Z</time></trkpt><trkpt lat="43.2591842" lon="12.9347817"><ele>706.0</ele><time>2026-04-12T14:46:00.822Z</time></trkpt><trkpt lat="43.2591037" lon="12.9348346"><ele>706.0</ele><time>2026-04-12T14:46:01.831Z</time></trkpt><trkpt lat="43.2590259" lon="12.9348897"><ele>706.0</ele><time>2026-04-12T14:46:02.825Z</time></trkpt><trkpt lat="43.2589512" lon="12.93495"><ele>706.0</ele><time>2026-04-12T14:46:03.819Z</time></trkpt><trkpt lat="43.2588888" lon="12.9350164"><ele>706.0</ele><time>2026-04-12T14:46:04.828Z</time></trkpt><trkpt lat="43.258842" lon="12.9351041"><ele>706.0</ele><time>2026-04-12T14:46:05.821Z</time></trkpt><trkpt lat="43.2588079" lon="12.9352133"><ele>706.0</ele><time>2026-04-12T14:46:06.829Z</time></trkpt><trkpt lat="43.258779" lon="12.9353374"><ele>706.5999999999999</ele><time>2026-04-12T14:46:07.83Z</time></trkpt><trkpt lat="43.2587516" lon="12.9354667"><ele>707.2</ele><time>2026-04-12T14:46:08.832Z</time></trkpt><trkpt lat="43.2587188" lon="12.935593"><ele>707.8</ele><time>2026-04-12T14:46:09.833Z</time></trkpt><trkpt lat="43.2586765" lon="12.9357155"><ele>708.4000000000001</ele><time>2026-04-12T14:46:10.831Z</time></trkpt><trkpt lat="43.2586431" lon="12.9358477"><ele>709.0</ele><time>2026-04-12T14:46:11.825Z</time></trkpt><trkpt lat="43.2586026" lon="12.9359842"><ele>703.5</ele><time>2026-04-12T14:46:12.807Z</time></trkpt><trkpt lat="43.2585572" lon="12.9361254"><ele>698.0</ele><time>2026-04-12T14:46:13.834Z</time></trkpt><trkpt lat="43.2585059" lon="12.9362678"><ele>692.5</ele><time>2026-04-12T14:46:14.822Z</time></trkpt><trkpt lat="43.2584443" lon="12.9364037"><ele>687.0</ele><time>2026-04-12T14:46:15.827Z</time></trkpt><trkpt lat="43.2583845" lon="12.9365304"><ele>687.0</ele><time>2026-04-12T14:46:16.825Z</time></trkpt><trkpt lat="43.2583198" lon="12.9366506"><ele>687.0</ele><time>2026-04-12T14:46:17.823Z</time></trkpt><trkpt lat="43.2582533" lon="12.936763"><ele>687.0</ele><time>2026-04-12T14:46:18.836Z</time></trkpt><trkpt lat="43.2581776" lon="12.9368869"><ele>687.0</ele><time>2026-04-12T14:46:19.819Z</time></trkpt><trkpt lat="43.2580912" lon="12.9370069"><ele>690.5</ele><time>2026-04-12T14:46:20.817Z</time></trkpt><trkpt lat="43.2579935" lon="12.9371156"><ele>694.0</ele><time>2026-04-12T14:46:21.828Z</time></trkpt><trkpt lat="43.2578909" lon="12.9372171"><ele>697.5</ele><time>2026-04-12T14:46:22.821Z</time></trkpt><trkpt lat="43.2578058" lon="12.9373302"><ele>701.0</ele><time>2026-04-12T14:46:23.817Z</time></trkpt><trkpt lat="43.2577239" lon="12.9374525"><ele>694.75</ele><time>2026-04-12T14:46:24.835Z</time></trkpt><trkpt lat="43.2576395" lon="12.9375841"><ele>688.5</ele><time>2026-04-12T14:46:25.826Z</time></trkpt><trkpt lat="43.2575579" lon="12.9377152"><ele>682.25</ele><time>2026-04-12T14:46:26.817Z</time></trkpt><trkpt lat="43.2574868" lon="12.9378415"><ele>676.0</ele><time>2026-04-12T14:46:27.819Z</time></trkpt><trkpt lat="43.2574405" lon="12.9379467"><ele>676.0</ele><time>2026-04-12T14:46:28.818Z</time></trkpt><trkpt lat="43.2574031" lon="12.93804"><ele>676.0</ele><time>2026-04-12T14:46:29.835Z</time></trkpt><trkpt lat="43.2573567" lon="12.9381231"><ele>676.0</ele><time>2026-04-12T14:46:30.82Z</time></trkpt><trkpt lat="43.2572912" lon="12.9382047"><ele>676.0</ele><time>2026-04-12T14:46:31.819Z</time></trkpt><trkpt lat="43.257204" lon="12.9382868"><ele>676.0</ele><time>2026-04-12T14:46:32.834Z</time></trkpt><trkpt lat="43.2571099" lon="12.9383906"><ele>678.25</ele><time>2026-04-12T14:46:33.816Z</time></trkpt><trkpt lat="43.2570252" lon="12.9385215"><ele>680.5</ele><time>2026-04-12T14:46:34.816Z</time></trkpt><trkpt lat="43.2569608" lon="12.9386589"><ele>682.75</ele><time>2026-04-12T14:46:35.838Z</time></trkpt><trkpt lat="43.2569034" lon="12.9387965"><ele>685.0</ele><time>2026-04-12T14:46:36.827Z</time></trkpt><trkpt lat="43.2568492" lon="12.9389352"><ele>685.0</ele><time>2026-04-12T14:46:37.835Z</time></trkpt><trkpt lat="43.2567962" lon="12.9390739"><ele>685.0</ele><time>2026-04-12T14:46:38.822Z</time></trkpt><trkpt lat="43.2567415" lon="12.9392027"><ele>685.0</ele><time>2026-04-12T14:46:39.827Z</time></trkpt><trkpt lat="43.2566862" lon="12.9393374"><ele>685.0</ele><time>2026-04-12T14:46:40.828Z</time></trkpt><trkpt lat="43.2566275" lon="12.9394598"><ele>685.0</ele><time>2026-04-12T14:46:41.814Z</time></trkpt><trkpt lat="43.2565639" lon="12.9395814"><ele>683.5</ele><time>2026-04-12T14:46:42.809Z</time></trkpt><trkpt lat="43.2565024" lon="12.939682"><ele>682.0</ele><time>2026-04-12T14:46:43.843Z</time></trkpt><trkpt lat="43.2564473" lon="12.9397728"><ele>680.5</ele><time>2026-04-12T14:46:44.83Z</time></trkpt><trkpt lat="43.2563952" lon="12.9398495"><ele>679.0</ele><time>2026-04-12T14:46:45.831Z</time></trkpt><trkpt lat="43.2563367" lon="12.939937"><ele>677.5</ele><time>2026-04-12T14:46:46.829Z</time></trkpt><trkpt lat="43.2562629" lon="12.9400233"><ele>676.0</ele><time>2026-04-12T14:46:47.827Z</time></trkpt><trkpt lat="43.2561751" lon="12.9400998"><ele>670.6666666666667</ele><time>2026-04-12T14:46:48.834Z</time></trkpt><trkpt lat="43.2560902" lon="12.9401774"><ele>665.3333333333334</ele><time>2026-04-12T14:46:49.826Z</time></trkpt><trkpt lat="43.2560111" lon="12.9402434"><ele>660.0</ele><time>2026-04-12T14:46:50.842Z</time></trkpt><trkpt lat="43.2559381" lon="12.9403114"><ele>654.6666666666666</ele><time>2026-04-12T14:46:51.843Z</time></trkpt><trkpt lat="43.2558698" lon="12.9403773"><ele>649.3333333333333</ele><time>2026-04-12T14:46:52.83Z</time></trkpt><trkpt lat="43.2558053" lon="12.9404397"><ele>644.0</ele><time>2026-04-12T14:46:53.827Z</time></trkpt><trkpt lat="43.2557345" lon="12.9405005"><ele>644.0</ele><time>2026-04-12T14:46:54.826Z</time></trkpt><trkpt lat="43.2556642" lon="12.9405654"><ele>644.0</ele><time>2026-04-12T14:46:55.809Z</time></trkpt><trkpt lat="43.2555838" lon="12.9406064"><ele>644.0</ele><time>2026-04-12T14:46:56.818Z</time></trkpt><trkpt lat="43.2554951" lon="12.9406461"><ele>644.0</ele><time>2026-04-12T14:46:57.807Z</time></trkpt><trkpt lat="43.2554151" lon="12.940682"><ele>644.0</ele><time>2026-04-12T14:46:58.819Z</time></trkpt><trkpt lat="43.2553397" lon="12.9407127"><ele>644.0</ele><time>2026-04-12T14:46:59.818Z</time></trkpt><trkpt lat="43.2552658" lon="12.9407429"><ele>645.2857142857143</ele><time>2026-04-12T14:47:00.827Z</time></trkpt><trkpt lat="43.2552018" lon="12.940768"><ele>646.5714285714286</ele><time>2026-04-12T14:47:01.825Z</time></trkpt><trkpt lat="43.2551373" lon="12.9408055"><ele>647.8571428571429</ele><time>2026-04-12T14:47:02.836Z</time></trkpt><trkpt lat="43.2550741" lon="12.9408354"><ele>649.1428571428571</ele><time>2026-04-12T14:47:03.831Z</time></trkpt><trkpt lat="43.2550091" lon="12.9408633"><ele>650.4285714285714</ele><time>2026-04-12T14:47:04.831Z</time></trkpt><trkpt lat="43.2549422" lon="12.9408876"><ele>651.7142857142858</ele><time>2026-04-12T14:47:05.811Z</time></trkpt><trkpt lat="43.2548748" lon="12.9409128"><ele>653.0</ele><time>2026-04-12T14:47:06.819Z</time></trkpt><trkpt lat="43.2548035" lon="12.9409364"><ele>647.1666666666666</ele><time>2026-04-12T14:47:07.819Z</time></trkpt><trkpt lat="43.2547285" lon="12.9409677"><ele>641.3333333333333</ele><time>2026-04-12T14:47:08.827Z</time></trkpt><trkpt lat="43.2546545" lon="12.9409988"><ele>635.5</ele><time>2026-04-12T14:47:09.827Z</time></trkpt><trkpt lat="43.2545767" lon="12.9410353"><ele>629.6666666666666</ele><time>2026-04-12T14:47:10.832Z</time></trkpt><trkpt lat="43.2544962" lon="12.9410738"><ele>623.8333333333334</ele><time>2026-04-12T14:47:11.827Z</time></trkpt><trkpt lat="43.2544109" lon="12.9411162"><ele>618.0</ele><time>2026-04-12T14:47:12.818Z</time></trkpt><trkpt lat="43.2543251" lon="12.9411578"><ele>618.0</ele><time>2026-04-12T14:47:13.836Z</time></trkpt><trkpt lat="43.2542367" lon="12.9411948"><ele>618.0</ele><time>2026-04-12T14:47:14.827Z</time></trkpt><trkpt lat="43.2541476" lon="12.941231"><ele>618.0</ele><time>2026-04-12T14:47:15.82Z</time></trkpt><trkpt lat="43.2540613" lon="12.9412658"><ele>618.0</ele><time>2026-04-12T14:47:16.815Z</time></trkpt><trkpt lat="43.2539738" lon="12.9412947"><ele>618.0</ele><time>2026-04-12T14:47:17.812Z</time></trkpt><trkpt lat="43.2538793" lon="12.9413193"><ele>617.1666666666666</ele><time>2026-04-12T14:47:18.818Z</time></trkpt><trkpt lat="43.2537874" lon="12.9413416"><ele>616.3333333333334</ele><time>2026-04-12T14:47:19.816Z</time></trkpt><trkpt lat="43.2537074" lon="12.9413588"><ele>615.5</ele><time>2026-04-12T14:47:20.819Z</time></trkpt><trkpt lat="43.2536305" lon="12.9413824"><ele>614.6666666666667</ele><time>2026-04-12T14:47:21.816Z</time></trkpt><trkpt lat="43.2535532" lon="12.9413987"><ele>613.8333333333334</ele><time>2026-04-12T14:47:22.824Z</time></trkpt><trkpt lat="43.2534687" lon="12.9414104"><ele>613.0</ele><time>2026-04-12T14:47:23.818Z</time></trkpt><trkpt lat="43.2533929" lon="12.941434"><ele>613.0</ele><time>2026-04-12T14:47:24.819Z</time></trkpt><trkpt lat="43.2533133" lon="12.9414461"><ele>613.0</ele><time>2026-04-12T14:47:25.826Z</time></trkpt><trkpt lat="43.2532389" lon="12.9414583"><ele>613.0</ele><time>2026-04-12T14:47:26.824Z</time></trkpt><trkpt lat="43.2531722" lon="12.9414651"><ele>613.0</ele><time>2026-04-12T14:47:27.829Z</time></trkpt><trkpt lat="43.2531088" lon="12.9414691"><ele>613.0</ele><time>2026-04-12T14:47:28.812Z</time></trkpt><trkpt lat="43.2530076" lon="12.9415241"><ele>613.0</ele><time>2026-04-12T14:47:30.825Z</time></trkpt><trkpt lat="43.2530363" lon="12.9416351"><ele>607.4</ele><time>2026-04-12T14:47:32.829Z</time></trkpt><trkpt lat="43.2531048" lon="12.941675"><ele>601.8</ele><time>2026-04-12T14:47:33.828Z</time></trkpt><trkpt lat="43.2531857" lon="12.9417168"><ele>596.2</ele><time>2026-04-12T14:47:34.827Z</time></trkpt><trkpt lat="43.2532707" lon="12.9417785"><ele>590.6</ele><time>2026-04-12T14:47:35.828Z</time></trkpt><trkpt lat="43.2533562" lon="12.9418566"><ele>585.0</ele><time>2026-04-12T14:47:36.822Z</time></trkpt><trkpt lat="43.2534459" lon="12.9419348"><ele>585.0</ele><time>2026-04-12T14:47:37.833Z</time></trkpt><trkpt lat="43.2535364" lon="12.9419998"><ele>585.0</ele><time>2026-04-12T14:47:38.832Z</time></trkpt><trkpt lat="43.2536308" lon="12.9420706"><ele>585.0</ele><time>2026-04-12T14:47:39.817Z</time></trkpt><trkpt lat="43.2537218" lon="12.9421431"><ele>585.0</ele><time>2026-04-12T14:47:40.832Z</time></trkpt><trkpt lat="43.2538115" lon="12.9422147"><ele>585.0</ele><time>2026-04-12T14:47:41.834Z</time></trkpt><trkpt lat="43.2538947" lon="12.9422784"><ele>585.5</ele><time>2026-04-12T14:47:42.826Z</time></trkpt><trkpt lat="43.2539759" lon="12.9423373"><ele>586.0</ele><time>2026-04-12T14:47:43.828Z</time></trkpt><trkpt lat="43.2540598" lon="12.9423935"><ele>586.5</ele><time>2026-04-12T14:47:44.825Z</time></trkpt><trkpt lat="43.2541401" lon="12.9424377"><ele>587.0</ele><time>2026-04-12T14:47:45.822Z</time></trkpt><trkpt lat="43.2542193" lon="12.9424844"><ele>587.5</ele><time>2026-04-12T14:47:46.812Z</time></trkpt><trkpt lat="43.2542981" lon="12.9425311"><ele>588.0</ele><time>2026-04-12T14:47:47.821Z</time></trkpt><trkpt lat="43.2543715" lon="12.9425661"><ele>583.0</ele><time>2026-04-12T14:47:48.819Z</time></trkpt><trkpt lat="43.2544364" lon="12.9425898"><ele>578.0</ele><time>2026-04-12T14:47:49.828Z</time></trkpt><trkpt lat="43.2545002" lon="12.9426141"><ele>573.0</ele><time>2026-04-12T14:47:50.823Z</time></trkpt><trkpt lat="43.2546001" lon="12.9426915"><ele>568.0</ele><time>2026-04-12T14:47:52.82Z</time></trkpt><trkpt lat="43.2545604" lon="12.9428175"><ele>563.0</ele><time>2026-04-12T14:47:54.83Z</time></trkpt><trkpt lat="43.2544956" lon="12.9428529"><ele>558.0</ele><time>2026-04-12T14:47:55.819Z</time></trkpt><trkpt lat="43.2544191" lon="12.9428781"><ele>558.0</ele><time>2026-04-12T14:47:56.82Z</time></trkpt><trkpt lat="43.2543359" lon="12.9429143"><ele>558.0</ele><time>2026-04-12T14:47:57.812Z</time></trkpt><trkpt lat="43.2542547" lon="12.9429561"><ele>558.0</ele><time>2026-04-12T14:47:58.809Z</time></trkpt><trkpt lat="43.2541758" lon="12.943003"><ele>558.0</ele><time>2026-04-12T14:47:59.821Z</time></trkpt><trkpt lat="43.254096" lon="12.9430393"><ele>558.0</ele><time>2026-04-12T14:48:00.818Z</time></trkpt><trkpt lat="43.2540169" lon="12.9430784"><ele>558.0</ele><time>2026-04-12T14:48:01.823Z</time></trkpt><trkpt lat="43.2539456" lon="12.9431066"><ele>558.0</ele><time>2026-04-12T14:48:02.821Z</time></trkpt><trkpt lat="43.2538837" lon="12.9431339"><ele>558.0</ele><time>2026-04-12T14:48:03.814Z</time></trkpt><trkpt lat="43.2537933" lon="12.9432012"><ele>558.0</ele><time>2026-04-12T14:48:05.82Z</time></trkpt><trkpt lat="43.2538087" lon="12.9432863"><ele>558.0</ele><time>2026-04-12T14:48:07.818Z</time></trkpt><trkpt lat="43.2539321" lon="12.9433099"><ele>558.0</ele><time>2026-04-12T14:48:09.828Z</time></trkpt><trkpt lat="43.2540259" lon="12.9433013"><ele>558.0</ele><time>2026-04-12T14:48:10.825Z</time></trkpt><trkpt lat="43.2541191" lon="12.9432887"><ele>558.0</ele><time>2026-04-12T14:48:11.814Z</time></trkpt><trkpt lat="43.2542121" lon="12.9432856"><ele>558.0</ele><time>2026-04-12T14:48:12.827Z</time></trkpt><trkpt lat="43.254305" lon="12.9432706"><ele>558.0</ele><time>2026-04-12T14:48:13.831Z</time></trkpt><trkpt lat="43.2544029" lon="12.9432678"><ele>558.0</ele><time>2026-04-12T14:48:14.823Z</time></trkpt><trkpt lat="43.2545054" lon="12.9432578"><ele>558.0</ele><time>2026-04-12T14:48:15.821Z</time></trkpt><trkpt lat="43.2546007" lon="12.9432444"><ele>558.0</ele><time>2026-04-12T14:48:16.811Z</time></trkpt><trkpt lat="43.2546979" lon="12.9432261"><ele>558.0</ele><time>2026-04-12T14:48:17.816Z</time></trkpt><trkpt lat="43.2548019" lon="12.9432015"><ele>558.0</ele><time>2026-04-12T14:48:18.834Z</time></trkpt><trkpt lat="43.254909" lon="12.9431817"><ele>558.0</ele><time>2026-04-12T14:48:19.817Z</time></trkpt><trkpt lat="43.255018" lon="12.9431632"><ele>556.0</ele><time>2026-04-12T14:48:20.811Z</time></trkpt><trkpt lat="43.2551241" lon="12.9431416"><ele>554.0</ele><time>2026-04-12T14:48:21.815Z</time></trkpt><trkpt lat="43.255224" lon="12.943106"><ele>552.0</ele><time>2026-04-12T14:48:22.827Z</time></trkpt><trkpt lat="43.2553302" lon="12.943073"><ele>550.0</ele><time>2026-04-12T14:48:23.823Z</time></trkpt><trkpt lat="43.2554407" lon="12.9430364"><ele>548.0</ele><time>2026-04-12T14:48:24.82Z</time></trkpt><trkpt lat="43.2555609" lon="12.9430104"><ele>544.5</ele><time>2026-04-12T14:48:25.813Z</time></trkpt><trkpt lat="43.2556815" lon="12.94298"><ele>541.0</ele><time>2026-04-12T14:48:26.821Z</time></trkpt><trkpt lat="43.2558" lon="12.9429504"><ele>537.5</ele><time>2026-04-12T14:48:27.824Z</time></trkpt><trkpt lat="43.2559251" lon="12.9429254"><ele>534.0</ele><time>2026-04-12T14:48:28.816Z</time></trkpt><trkpt lat="43.2560524" lon="12.9429017"><ele>534.0</ele><time>2026-04-12T14:48:29.818Z</time></trkpt><trkpt lat="43.2561766" lon="12.94288"><ele>534.0</ele><time>2026-04-12T14:48:30.817Z</time></trkpt><trkpt lat="43.2563014" lon="12.9428616"><ele>534.0</ele><time>2026-04-12T14:48:31.82Z</time></trkpt><trkpt lat="43.2564215" lon="12.9428425"><ele>534.0</ele><time>2026-04-12T14:48:32.816Z</time></trkpt><trkpt lat="43.2565399" lon="12.9428189"><ele>530.75</ele><time>2026-04-12T14:48:33.822Z</time></trkpt><trkpt lat="43.2566574" lon="12.9427947"><ele>527.5</ele><time>2026-04-12T14:48:34.82Z</time></trkpt><trkpt lat="43.2567756" lon="12.9427602"><ele>524.25</ele><time>2026-04-12T14:48:35.821Z</time></trkpt><trkpt lat="43.2568903" lon="12.9427145"><ele>521.0</ele><time>2026-04-12T14:48:36.814Z</time></trkpt><trkpt lat="43.257009" lon="12.9426647"><ele>521.0</ele><time>2026-04-12T14:48:37.822Z</time></trkpt><trkpt lat="43.2571266" lon="12.9426147"><ele>521.0</ele><time>2026-04-12T14:48:38.821Z</time></trkpt><trkpt lat="43.2572491" lon="12.9425847"><ele>521.0</ele><time>2026-04-12T14:48:39.818Z</time></trkpt><trkpt lat="43.2573773" lon="12.9425733"><ele>521.0</ele><time>2026-04-12T14:48:40.821Z</time></trkpt><trkpt lat="43.2575081" lon="12.9425738"><ele>523.75</ele><time>2026-04-12T14:48:41.816Z</time></trkpt><trkpt lat="43.2576317" lon="12.9425545"><ele>526.5</ele><time>2026-04-12T14:48:42.824Z</time></trkpt><trkpt lat="43.2577588" lon="12.9425368"><ele>529.25</ele><time>2026-04-12T14:48:43.816Z</time></trkpt><trkpt lat="43.2578827" lon="12.9425155"><ele>532.0</ele><time>2026-04-12T14:48:44.812Z</time></trkpt><trkpt lat="43.2580125" lon="12.9424932"><ele>529.0</ele><time>2026-04-12T14:48:45.819Z</time></trkpt><trkpt lat="43.2581334" lon="12.942471"><ele>526.0</ele><time>2026-04-12T14:48:46.815Z</time></trkpt><trkpt lat="43.2582579" lon="12.942443"><ele>523.0</ele><time>2026-04-12T14:48:47.818Z</time></trkpt><trkpt lat="43.2583726" lon="12.9424118"><ele>520.0</ele><time>2026-04-12T14:48:48.827Z</time></trkpt><trkpt lat="43.2584781" lon="12.9423825"><ele>520.0</ele><time>2026-04-12T14:48:49.827Z</time></trkpt><trkpt lat="43.2585784" lon="12.942376"><ele>520.0</ele><time>2026-04-12T14:48:50.817Z</time></trkpt><trkpt lat="43.2586654" lon="12.942401"><ele>520.0</ele><time>2026-04-12T14:48:51.827Z</time></trkpt><trkpt lat="43.2587224" lon="12.9424972"><ele>520.0</ele><time>2026-04-12T14:48:52.816Z</time></trkpt><trkpt lat="43.2587451" lon="12.9425927"><ele>520.0</ele><time>2026-04-12T14:48:53.816Z</time></trkpt><trkpt lat="43.2587293" lon="12.9427016"><ele>520.0</ele><time>2026-04-12T14:48:54.819Z</time></trkpt><trkpt lat="43.2586731" lon="12.9428191"><ele>516.6</ele><time>2026-04-12T14:48:55.822Z</time></trkpt><trkpt lat="43.2586065" lon="12.9429078"><ele>513.2</ele><time>2026-04-12T14:48:56.815Z</time></trkpt><trkpt lat="43.2585037" lon="12.9429766"><ele>509.79999999999995</ele><time>2026-04-12T14:48:57.832Z</time></trkpt><trkpt lat="43.2584036" lon="12.9430376"><ele>506.4</ele><time>2026-04-12T14:48:58.826Z</time></trkpt><trkpt lat="43.2583027" lon="12.9430916"><ele>503.0</ele><time>2026-04-12T14:48:59.825Z</time></trkpt><trkpt lat="43.2582051" lon="12.9431511"><ele>504.2</ele><time>2026-04-12T14:49:00.814Z</time></trkpt><trkpt lat="43.2581096" lon="12.9432026"><ele>505.4</ele><time>2026-04-12T14:49:01.813Z</time></trkpt><trkpt lat="43.2580145" lon="12.9432578"><ele>506.59999999999997</ele><time>2026-04-12T14:49:02.818Z</time></trkpt><trkpt lat="43.2579189" lon="12.9433206"><ele>507.79999999999995</ele><time>2026-04-12T14:49:03.824Z</time></trkpt><trkpt lat="43.2578271" lon="12.9433811"><ele>509.0</ele><time>2026-04-12T14:49:04.827Z</time></trkpt><trkpt lat="43.2577308" lon="12.9434402"><ele>505.99999999999994</ele><time>2026-04-12T14:49:05.827Z</time></trkpt><trkpt lat="43.2576407" lon="12.9434945"><ele>503.0</ele><time>2026-04-12T14:49:06.825Z</time></trkpt><trkpt lat="43.2575561" lon="12.9435535"><ele>500.0</ele><time>2026-04-12T14:49:07.824Z</time></trkpt><trkpt lat="43.2574889" lon="12.9436186"><ele>497.0</ele><time>2026-04-12T14:49:08.824Z</time></trkpt><trkpt lat="43.2574437" lon="12.943704"><ele>493.99999999999994</ele><time>2026-04-12T14:49:09.82Z</time></trkpt><trkpt lat="43.2574281" lon="12.9438112"><ele>491.0</ele><time>2026-04-12T14:49:10.818Z</time></trkpt><trkpt lat="43.2574538" lon="12.9439117"><ele>491.0</ele><time>2026-04-12T14:49:11.823Z</time></trkpt><trkpt lat="43.2575209" lon="12.9439739"><ele>491.0</ele><time>2026-04-12T14:49:12.826Z</time></trkpt><trkpt lat="43.2576061" lon="12.9440032"><ele>491.0</ele><time>2026-04-12T14:49:13.828Z</time></trkpt><trkpt lat="43.2577048" lon="12.944023"><ele>491.0</ele><time>2026-04-12T14:49:14.826Z</time></trkpt><trkpt lat="43.2578138" lon="12.9440369"><ele>491.0</ele><time>2026-04-12T14:49:15.815Z</time></trkpt><trkpt lat="43.2579158" lon="12.9440557"><ele>491.0</ele><time>2026-04-12T14:49:16.813Z</time></trkpt><trkpt lat="43.258025" lon="12.9440776"><ele>491.0</ele><time>2026-04-12T14:49:17.831Z</time></trkpt><trkpt lat="43.2581293" lon="12.9440983"><ele>491.0</ele><time>2026-04-12T14:49:18.823Z</time></trkpt><trkpt lat="43.2582318" lon="12.9441181"><ele>491.0</ele><time>2026-04-12T14:49:19.833Z</time></trkpt><trkpt lat="43.2583268" lon="12.9441338"><ele>491.0</ele><time>2026-04-12T14:49:20.825Z</time></trkpt><trkpt lat="43.2584222" lon="12.9441349"><ele>489.6</ele><time>2026-04-12T14:49:21.823Z</time></trkpt><trkpt lat="43.2585146" lon="12.9440925"><ele>488.20000000000005</ele><time>2026-04-12T14:49:22.819Z</time></trkpt><trkpt lat="43.258591" lon="12.9440136"><ele>486.79999999999995</ele><time>2026-04-12T14:49:23.821Z</time></trkpt><trkpt lat="43.2586718" lon="12.9439221"><ele>485.4</ele><time>2026-04-12T14:49:24.818Z</time></trkpt><trkpt lat="43.2587544" lon="12.943827"><ele>484.0</ele><time>2026-04-12T14:49:25.833Z</time></trkpt><trkpt lat="43.2588361" lon="12.9437441"><ele>484.0</ele><time>2026-04-12T14:49:26.816Z</time></trkpt><trkpt lat="43.2589247" lon="12.9436451"><ele>484.0</ele><time>2026-04-12T14:49:27.832Z</time></trkpt><trkpt lat="43.2590225" lon="12.9435548"><ele>484.0</ele><time>2026-04-12T14:49:28.826Z</time></trkpt><trkpt lat="43.2591334" lon="12.9434922"><ele>484.0</ele><time>2026-04-12T14:49:29.818Z</time></trkpt><trkpt lat="43.2592429" lon="12.9434614"><ele>484.79999999999995</ele><time>2026-04-12T14:49:30.825Z</time></trkpt><trkpt lat="43.2593522" lon="12.9434301"><ele>485.59999999999997</ele><time>2026-04-12T14:49:31.824Z</time></trkpt><trkpt lat="43.2594615" lon="12.9433951"><ele>486.4</ele><time>2026-04-12T14:49:32.829Z</time></trkpt><trkpt lat="43.2595666" lon="12.9433601"><ele>487.2</ele><time>2026-04-12T14:49:33.826Z</time></trkpt><trkpt lat="43.2596697" lon="12.9433336"><ele>488.0</ele><time>2026-04-12T14:49:34.833Z</time></trkpt><trkpt lat="43.2597704" lon="12.9433081"><ele>485.3333333333333</ele><time>2026-04-12T14:49:35.824Z</time></trkpt><trkpt lat="43.2598645" lon="12.9432843"><ele>482.66666666666663</ele><time>2026-04-12T14:49:36.835Z</time></trkpt><trkpt lat="43.259952" lon="12.943263"><ele>480.0</ele><time>2026-04-12T14:49:37.824Z</time></trkpt><trkpt lat="43.2600373" lon="12.9432408"><ele>477.33333333333337</ele><time>2026-04-12T14:49:38.819Z</time></trkpt><trkpt lat="43.2601177" lon="12.9432218"><ele>474.6666666666667</ele><time>2026-04-12T14:49:39.827Z</time></trkpt><trkpt lat="43.2601938" lon="12.9432076"><ele>472.0</ele><time>2026-04-12T14:49:40.823Z</time></trkpt><trkpt lat="43.2602689" lon="12.9432026"><ele>472.0</ele><time>2026-04-12T14:49:41.829Z</time></trkpt><trkpt lat="43.2603429" lon="12.9432169"><ele>472.0</ele><time>2026-04-12T14:49:42.832Z</time></trkpt><trkpt lat="43.2604012" lon="12.9432648"><ele>472.0</ele><time>2026-04-12T14:49:43.819Z</time></trkpt><trkpt lat="43.2604445" lon="12.9433277"><ele>472.0</ele><time>2026-04-12T14:49:44.824Z</time></trkpt><trkpt lat="43.260454" lon="12.9434557"><ele>472.0</ele><time>2026-04-12T14:49:46.821Z</time></trkpt><trkpt lat="43.2604023" lon="12.9435453"><ele>472.0</ele><time>2026-04-12T14:49:48.818Z</time></trkpt><trkpt lat="43.2603553" lon="12.9436057"><ele>472.0</ele><time>2026-04-12T14:49:49.817Z</time></trkpt><trkpt lat="43.2603012" lon="12.9436867"><ele>470.0</ele><time>2026-04-12T14:49:50.822Z</time></trkpt><trkpt lat="43.2602374" lon="12.9437764"><ele>468.00000000000006</ele><time>2026-04-12T14:49:51.818Z</time></trkpt><trkpt lat="43.2601692" lon="12.9438734"><ele>466.00000000000006</ele><time>2026-04-12T14:49:52.819Z</time></trkpt><trkpt lat="43.2600954" lon="12.9439727"><ele>464.0</ele><time>2026-04-12T14:49:53.83Z</time></trkpt><trkpt lat="43.2600161" lon="12.9440838"><ele>462.0</ele><time>2026-04-12T14:49:54.825Z</time></trkpt><trkpt lat="43.2599335" lon="12.9441875"><ele>461.25</ele><time>2026-04-12T14:49:55.835Z</time></trkpt><trkpt lat="43.2598508" lon="12.9443002"><ele>460.5</ele><time>2026-04-12T14:49:56.822Z</time></trkpt><trkpt lat="43.2597644" lon="12.944415"><ele>459.75</ele><time>2026-04-12T14:49:57.819Z</time></trkpt><trkpt lat="43.2596785" lon="12.944529"><ele>459.0</ele><time>2026-04-12T14:49:58.815Z</time></trkpt><trkpt lat="43.2595965" lon="12.9446373"><ele>459.0</ele><time>2026-04-12T14:49:59.82Z</time></trkpt><trkpt lat="43.2595123" lon="12.9447514"><ele>459.0</ele><time>2026-04-12T14:50:00.828Z</time></trkpt><trkpt lat="43.2594251" lon="12.9448677"><ele>459.0</ele><time>2026-04-12T14:50:01.825Z</time></trkpt><trkpt lat="43.2593353" lon="12.9449856"><ele>459.0</ele><time>2026-04-12T14:50:02.818Z</time></trkpt><trkpt lat="43.259242" lon="12.9450973"><ele>458.0</ele><time>2026-04-12T14:50:03.816Z</time></trkpt><trkpt lat="43.2591461" lon="12.9452033"><ele>457.0</ele><time>2026-04-12T14:50:04.818Z</time></trkpt><trkpt lat="43.2590506" lon="12.9453025"><ele>456.0</ele><time>2026-04-12T14:50:05.825Z</time></trkpt><trkpt lat="43.2589523" lon="12.9454037"><ele>455.0</ele><time>2026-04-12T14:50:06.82Z</time></trkpt><trkpt lat="43.2588554" lon="12.9455065"><ele>455.0</ele><time>2026-04-12T14:50:07.835Z</time></trkpt><trkpt lat="43.2587559" lon="12.9456074"><ele>455.0</ele><time>2026-04-12T14:50:08.829Z</time></trkpt><trkpt lat="43.2586571" lon="12.945703"><ele>455.0</ele><time>2026-04-12T14:50:09.829Z</time></trkpt><trkpt lat="43.2585626" lon="12.9457989"><ele>455.0</ele><time>2026-04-12T14:50:10.827Z</time></trkpt><trkpt lat="43.258466" lon="12.9458915"><ele>454.75</ele><time>2026-04-12T14:50:11.812Z</time></trkpt><trkpt lat="43.2583684" lon="12.9459874"><ele>454.5</ele><time>2026-04-12T14:50:12.824Z</time></trkpt><trkpt lat="43.2582658" lon="12.9460744"><ele>454.25</ele><time>2026-04-12T14:50:13.825Z</time></trkpt><trkpt lat="43.2581563" lon="12.9461631"><ele>454.0</ele><time>2026-04-12T14:50:14.827Z</time></trkpt><trkpt lat="43.2580442" lon="12.9462498"><ele>454.0</ele><time>2026-04-12T14:50:15.822Z</time></trkpt><trkpt lat="43.2579302" lon="12.9463348"><ele>454.0</ele><time>2026-04-12T14:50:16.814Z</time></trkpt><trkpt lat="43.257821" lon="12.9464213"><ele>454.0</ele><time>2026-04-12T14:50:17.828Z</time></trkpt><trkpt lat="43.2577133" lon="12.9465054"><ele>454.0</ele><time>2026-04-12T14:50:18.823Z</time></trkpt><trkpt lat="43.2576047" lon="12.9465924"><ele>454.0</ele><time>2026-04-12T14:50:19.838Z</time></trkpt><trkpt lat="43.2574975" lon="12.9466741"><ele>454.0</ele><time>2026-04-12T14:50:20.821Z</time></trkpt><trkpt lat="43.2573919" lon="12.9467504"><ele>454.0</ele><time>2026-04-12T14:50:21.827Z</time></trkpt><trkpt lat="43.257287" lon="12.9468333"><ele>454.0</ele><time>2026-04-12T14:50:22.824Z</time></trkpt><trkpt lat="43.2571863" lon="12.9469168"><ele>452.5</ele><time>2026-04-12T14:50:23.826Z</time></trkpt><trkpt lat="43.2570875" lon="12.9470056"><ele>451.0</ele><time>2026-04-12T14:50:24.823Z</time></trkpt><trkpt lat="43.2569874" lon="12.9470872"><ele>449.5</ele><time>2026-04-12T14:50:25.849Z</time></trkpt><trkpt lat="43.2568874" lon="12.9471745"><ele>448.0</ele><time>2026-04-12T14:50:26.82Z</time></trkpt><trkpt lat="43.2567857" lon="12.947255"><ele>448.0</ele><time>2026-04-12T14:50:27.814Z</time></trkpt><trkpt lat="43.2566818" lon="12.9473398"><ele>448.0</ele><time>2026-04-12T14:50:28.831Z</time></trkpt><trkpt lat="43.2565794" lon="12.9474229"><ele>448.0</ele><time>2026-04-12T14:50:29.822Z</time></trkpt><trkpt lat="43.2564778" lon="12.9475044"><ele>448.0</ele><time>2026-04-12T14:50:30.83Z</time></trkpt><trkpt lat="43.2563751" lon="12.9475864"><ele>448.0</ele><time>2026-04-12T14:50:31.825Z</time></trkpt><trkpt lat="43.2562713" lon="12.9476633"><ele>448.0</ele><time>2026-04-12T14:50:32.814Z</time></trkpt><trkpt lat="43.2561664" lon="12.9477437"><ele>448.0</ele><time>2026-04-12T14:50:33.821Z</time></trkpt><trkpt lat="43.2560613" lon="12.9478215"><ele>448.0</ele><time>2026-04-12T14:50:34.823Z</time></trkpt><trkpt lat="43.2559583" lon="12.9478826"><ele>448.0</ele><time>2026-04-12T14:50:35.822Z</time></trkpt><trkpt lat="43.2558577" lon="12.9479381"><ele>447.99999999999994</ele><time>2026-04-12T14:50:36.819Z</time></trkpt><trkpt lat="43.2557646" lon="12.947994"><ele>447.99999999999994</ele><time>2026-04-12T14:50:37.819Z</time></trkpt><trkpt lat="43.2556702" lon="12.9480479"><ele>448.0</ele><time>2026-04-12T14:50:38.825Z</time></trkpt><trkpt lat="43.2555763" lon="12.9480999"><ele>448.0</ele><time>2026-04-12T14:50:39.815Z</time></trkpt><trkpt lat="43.2554754" lon="12.948152"><ele>448.0</ele><time>2026-04-12T14:50:40.835Z</time></trkpt><trkpt lat="43.2553711" lon="12.948198"><ele>447.99999999999994</ele><time>2026-04-12T14:50:41.824Z</time></trkpt><trkpt lat="43.2552662" lon="12.9482427"><ele>447.99999999999994</ele><time>2026-04-12T14:50:42.818Z</time></trkpt><trkpt lat="43.2551578" lon="12.9482889"><ele>448.0</ele><time>2026-04-12T14:50:43.828Z</time></trkpt><trkpt lat="43.2550469" lon="12.9483317"><ele>448.0</ele><time>2026-04-12T14:50:44.819Z</time></trkpt><trkpt lat="43.2549394" lon="12.9483816"><ele>448.0</ele><time>2026-04-12T14:50:45.826Z</time></trkpt><trkpt lat="43.2548336" lon="12.9484388"><ele>448.0</ele><time>2026-04-12T14:50:46.826Z</time></trkpt><trkpt lat="43.2547224" lon="12.9484911"><ele>448.0</ele><time>2026-04-12T14:50:47.827Z</time></trkpt><trkpt lat="43.2546097" lon="12.9485433"><ele>448.0</ele><time>2026-04-12T14:50:48.827Z</time></trkpt><trkpt lat="43.2544924" lon="12.9485949"><ele>448.0</ele><time>2026-04-12T14:50:49.822Z</time></trkpt><trkpt lat="43.2543825" lon="12.9486507"><ele>448.0</ele><time>2026-04-12T14:50:50.821Z</time></trkpt><trkpt lat="43.254276" lon="12.9486999"><ele>448.0</ele><time>2026-04-12T14:50:51.84Z</time></trkpt><trkpt lat="43.2541692" lon="12.9487462"><ele>448.0</ele><time>2026-04-12T14:50:52.818Z</time></trkpt><trkpt lat="43.2540624" lon="12.9487984"><ele>448.0</ele><time>2026-04-12T14:50:53.837Z</time></trkpt><trkpt lat="43.2539534" lon="12.9488541"><ele>448.0</ele><time>2026-04-12T14:50:54.823Z</time></trkpt><trkpt lat="43.2538484" lon="12.9489098"><ele>448.0</ele><time>2026-04-12T14:50:55.833Z</time></trkpt><trkpt lat="43.2537365" lon="12.9489627"><ele>448.0</ele><time>2026-04-12T14:50:56.824Z</time></trkpt><trkpt lat="43.2536229" lon="12.9490296"><ele>448.0</ele><time>2026-04-12T14:50:57.825Z</time></trkpt><trkpt lat="43.2535159" lon="12.9491039"><ele>448.0</ele><time>2026-04-12T14:50:58.819Z</time></trkpt><trkpt lat="43.2534178" lon="12.9491715"><ele>448.0</ele><time>2026-04-12T14:50:59.816Z</time></trkpt><trkpt lat="43.2533118" lon="12.949243"><ele>448.0</ele><time>2026-04-12T14:51:00.816Z</time></trkpt><trkpt lat="43.253209" lon="12.9493167"><ele>446.0</ele><time>2026-04-12T14:51:01.82Z</time></trkpt><trkpt lat="43.2530998" lon="12.9493776"><ele>444.0</ele><time>2026-04-12T14:51:02.813Z</time></trkpt><trkpt lat="43.2529895" lon="12.9494333"><ele>442.0</ele><time>2026-04-12T14:51:03.823Z</time></trkpt><trkpt lat="43.2528836" lon="12.9494838"><ele>440.0</ele><time>2026-04-12T14:51:04.817Z</time></trkpt><trkpt lat="43.2527818" lon="12.9495183"><ele>440.0</ele><time>2026-04-12T14:51:05.817Z</time></trkpt><trkpt lat="43.2526888" lon="12.9495503"><ele>440.0</ele><time>2026-04-12T14:51:06.817Z</time></trkpt><trkpt lat="43.2526173" lon="12.9495795"><ele>440.0</ele><time>2026-04-12T14:51:07.818Z</time></trkpt><trkpt lat="43.2525558" lon="12.9496017"><ele>440.0</ele><time>2026-04-12T14:51:08.83Z</time></trkpt><trkpt lat="43.2524604" lon="12.9496419"><ele>440.0</ele><time>2026-04-12T14:51:10.825Z</time></trkpt><trkpt lat="43.2523322" lon="12.9496758"><ele>439.2</ele><time>2026-04-12T14:51:12.823Z</time></trkpt><trkpt lat="43.2522534" lon="12.9497049"><ele>438.4</ele><time>2026-04-12T14:51:13.82Z</time></trkpt><trkpt lat="43.2521632" lon="12.9497319"><ele>437.6</ele><time>2026-04-12T14:51:14.822Z</time></trkpt><trkpt lat="43.2520685" lon="12.9497333"><ele>436.8</ele><time>2026-04-12T14:51:15.819Z</time></trkpt><trkpt lat="43.2519669" lon="12.9496885"><ele>436.0</ele><time>2026-04-12T14:51:16.827Z</time></trkpt><trkpt lat="43.2518593" lon="12.9496154"><ele>436.0</ele><time>2026-04-12T14:51:17.831Z</time></trkpt><trkpt lat="43.2517552" lon="12.9495686"><ele>436.0</ele><time>2026-04-12T14:51:18.821Z</time></trkpt><trkpt lat="43.2516306" lon="12.9495382"><ele>436.0</ele><time>2026-04-12T14:51:19.818Z</time></trkpt><trkpt lat="43.2514987" lon="12.949554"><ele>436.0</ele><time>2026-04-12T14:51:20.825Z</time></trkpt><trkpt lat="43.2513793" lon="12.9495933"><ele>437.0</ele><time>2026-04-12T14:51:21.813Z</time></trkpt><trkpt lat="43.2512837" lon="12.9496643"><ele>438.0</ele><time>2026-04-12T14:51:22.823Z</time></trkpt><trkpt lat="43.2512098" lon="12.9497736"><ele>439.0</ele><time>2026-04-12T14:51:23.818Z</time></trkpt><trkpt lat="43.2511857" lon="12.9499034"><ele>440.0</ele><time>2026-04-12T14:51:24.812Z</time></trkpt><trkpt lat="43.2511824" lon="12.9500506"><ele>441.0</ele><time>2026-04-12T14:51:25.814Z</time></trkpt><trkpt lat="43.251188" lon="12.9502007"><ele>441.20000000000005</ele><time>2026-04-12T14:51:26.83Z</time></trkpt><trkpt lat="43.2511915" lon="12.950351"><ele>441.40000000000003</ele><time>2026-04-12T14:51:27.82Z</time></trkpt><trkpt lat="43.2511882" lon="12.9504965"><ele>441.6</ele><time>2026-04-12T14:51:28.816Z</time></trkpt><trkpt lat="43.2511689" lon="12.9506414"><ele>441.8</ele><time>2026-04-12T14:51:29.822Z</time></trkpt><trkpt lat="43.251143" lon="12.9508028"><ele>442.0</ele><time>2026-04-12T14:51:30.829Z</time></trkpt><trkpt lat="43.2511163" lon="12.9509626"><ele>441.5</ele><time>2026-04-12T14:51:31.823Z</time></trkpt><trkpt lat="43.2510896" lon="12.9511203"><ele>441.0</ele><time>2026-04-12T14:51:32.816Z</time></trkpt><trkpt lat="43.2510626" lon="12.9512861"><ele>440.5</ele><time>2026-04-12T14:51:33.822Z</time></trkpt><trkpt lat="43.2510405" lon="12.9514663"><ele>440.0</ele><time>2026-04-12T14:51:34.822Z</time></trkpt><trkpt lat="43.2510215" lon="12.951652"><ele>439.5</ele><time>2026-04-12T14:51:35.821Z</time></trkpt><trkpt lat="43.2510007" lon="12.9518411"><ele>439.0</ele><time>2026-04-12T14:51:36.826Z</time></trkpt><trkpt lat="43.2509768" lon="12.9520281"><ele>438.5</ele><time>2026-04-12T14:51:37.815Z</time></trkpt><trkpt lat="43.2509515" lon="12.9522062"><ele>438.0</ele><time>2026-04-12T14:51:38.815Z</time></trkpt><trkpt lat="43.2509251" lon="12.9523961"><ele>437.0</ele><time>2026-04-12T14:51:39.82Z</time></trkpt><trkpt lat="43.250899" lon="12.952587"><ele>436.0</ele><time>2026-04-12T14:51:40.828Z</time></trkpt><trkpt lat="43.2508713" lon="12.9527756"><ele>435.0</ele><time>2026-04-12T14:51:41.814Z</time></trkpt><trkpt lat="43.2508501" lon="12.9529519"><ele>434.0</ele><time>2026-04-12T14:51:42.816Z</time></trkpt><trkpt lat="43.2508489" lon="12.953128"><ele>434.0</ele><time>2026-04-12T14:51:43.819Z</time></trkpt><trkpt lat="43.2508818" lon="12.9533096"><ele>434.0</ele><time>2026-04-12T14:51:44.819Z</time></trkpt><trkpt lat="43.2509397" lon="12.953488"><ele>434.0</ele><time>2026-04-12T14:51:45.82Z</time></trkpt><trkpt lat="43.2509963" lon="12.953682"><ele>434.0</ele><time>2026-04-12T14:51:46.822Z</time></trkpt><trkpt lat="43.2510457" lon="12.9538626"><ele>433.5</ele><time>2026-04-12T14:51:47.829Z</time></trkpt><trkpt lat="43.2510825" lon="12.9540585"><ele>433.0</ele><time>2026-04-12T14:51:48.825Z</time></trkpt><trkpt lat="43.2511079" lon="12.9542611"><ele>432.5</ele><time>2026-04-12T14:51:49.826Z</time></trkpt><trkpt lat="43.2511151" lon="12.9544613"><ele>432.0</ele><time>2026-04-12T14:51:50.817Z</time></trkpt><trkpt lat="43.2510911" lon="12.9546655"><ele>431.75</ele><time>2026-04-12T14:51:51.823Z</time></trkpt><trkpt lat="43.2510491" lon="12.9548433"><ele>431.5</ele><time>2026-04-12T14:51:52.831Z</time></trkpt><trkpt lat="43.2510162" lon="12.9550237"><ele>431.25</ele><time>2026-04-12T14:51:53.844Z</time></trkpt><trkpt lat="43.2510112" lon="12.9551979"><ele>431.0</ele><time>2026-04-12T14:51:54.821Z</time></trkpt><trkpt lat="43.2510437" lon="12.9553617"><ele>430.75</ele><time>2026-04-12T14:51:55.826Z</time></trkpt><trkpt lat="43.251101" lon="12.9555186"><ele>430.5</ele><time>2026-04-12T14:51:56.83Z</time></trkpt><trkpt lat="43.2511593" lon="12.9556617"><ele>430.25</ele><time>2026-04-12T14:51:57.829Z</time></trkpt><trkpt lat="43.2511859" lon="12.9558029"><ele>430.0</ele><time>2026-04-12T14:51:58.82Z</time></trkpt><trkpt lat="43.2511522" lon="12.9559411"><ele>429.5</ele><time>2026-04-12T14:51:59.823Z</time></trkpt><trkpt lat="43.2510579" lon="12.9560605"><ele>429.0</ele><time>2026-04-12T14:52:00.875Z</time></trkpt><trkpt lat="43.2509407" lon="12.9561443"><ele>428.5</ele><time>2026-04-12T14:52:01.833Z</time></trkpt><trkpt lat="43.2508305" lon="12.9562256"><ele>428.0</ele><time>2026-04-12T14:52:02.841Z</time></trkpt><trkpt lat="43.2507166" lon="12.9563379"><ele>428.0</ele><time>2026-04-12T14:52:03.821Z</time></trkpt><trkpt lat="43.2506132" lon="12.9564472"><ele>428.0</ele><time>2026-04-12T14:52:04.823Z</time></trkpt><trkpt lat="43.2505102" lon="12.9565566"><ele>428.0</ele><time>2026-04-12T14:52:05.827Z</time></trkpt><trkpt lat="43.2504031" lon="12.9566634"><ele>428.0</ele><time>2026-04-12T14:52:06.831Z</time></trkpt><trkpt lat="43.2503013" lon="12.9567747"><ele>428.0</ele><time>2026-04-12T14:52:07.815Z</time></trkpt><trkpt lat="43.2501979" lon="12.9568901"><ele>428.0</ele><time>2026-04-12T14:52:08.82Z</time></trkpt><trkpt lat="43.2500927" lon="12.9569945"><ele>428.0</ele><time>2026-04-12T14:52:09.819Z</time></trkpt><trkpt lat="43.2499819" lon="12.9571046"><ele>428.0</ele><time>2026-04-12T14:52:10.827Z</time></trkpt><trkpt lat="43.2498649" lon="12.9572045"><ele>427.5</ele><time>2026-04-12T14:52:11.839Z</time></trkpt><trkpt lat="43.2497436" lon="12.9573089"><ele>427.0</ele><time>2026-04-12T14:52:12.825Z</time></trkpt><trkpt lat="43.249624" lon="12.9574117"><ele>426.5</ele><time>2026-04-12T14:52:13.825Z</time></trkpt><trkpt lat="43.2495055" lon="12.957524"><ele>426.0</ele><time>2026-04-12T14:52:14.833Z</time></trkpt><trkpt lat="43.2493926" lon="12.9576358"><ele>426.0</ele><time>2026-04-12T14:52:15.827Z</time></trkpt><trkpt lat="43.2492816" lon="12.9577486"><ele>426.0</ele><time>2026-04-12T14:52:16.816Z</time></trkpt><trkpt lat="43.2491705" lon="12.9578572"><ele>426.0</ele><time>2026-04-12T14:52:17.826Z</time></trkpt><trkpt lat="43.2490561" lon="12.9579585"><ele>426.0</ele><time>2026-04-12T14:52:18.823Z</time></trkpt><trkpt lat="43.2489418" lon="12.9580555"><ele>426.0</ele><time>2026-04-12T14:52:19.837Z</time></trkpt><trkpt lat="43.2488218" lon="12.9581465"><ele>426.0</ele><time>2026-04-12T14:52:20.826Z</time></trkpt><trkpt lat="43.248703" lon="12.9582361"><ele>426.0</ele><time>2026-04-12T14:52:21.83Z</time></trkpt><trkpt lat="43.2485848" lon="12.9583367"><ele>426.0</ele><time>2026-04-12T14:52:22.822Z</time></trkpt><trkpt lat="43.2484669" lon="12.9584336"><ele>426.0</ele><time>2026-04-12T14:52:23.835Z</time></trkpt><trkpt lat="43.2483473" lon="12.958539"><ele>426.0</ele><time>2026-04-12T14:52:24.826Z</time></trkpt><trkpt lat="43.2482213" lon="12.9586437"><ele>426.0</ele><time>2026-04-12T14:52:25.819Z</time></trkpt><trkpt lat="43.2480896" lon="12.9587361"><ele>426.0</ele><time>2026-04-12T14:52:26.834Z</time></trkpt><trkpt lat="43.2479618" lon="12.9588098"><ele>427.25</ele><time>2026-04-12T14:52:27.837Z</time></trkpt><trkpt lat="43.2478353" lon="12.9588668"><ele>428.5</ele><time>2026-04-12T14:52:28.818Z</time></trkpt><trkpt lat="43.2477116" lon="12.958925"><ele>429.75</ele><time>2026-04-12T14:52:29.829Z</time></trkpt><trkpt lat="43.2475847" lon="12.958981"><ele>431.0</ele><time>2026-04-12T14:52:30.829Z</time></trkpt><trkpt lat="43.2474541" lon="12.9590363"><ele>431.0</ele><time>2026-04-12T14:52:31.818Z</time></trkpt><trkpt lat="43.2473236" lon="12.9590944"><ele>431.0</ele><time>2026-04-12T14:52:32.834Z</time></trkpt><trkpt lat="43.2471828" lon="12.9591536"><ele>431.0</ele><time>2026-04-12T14:52:33.828Z</time></trkpt><trkpt lat="43.2470462" lon="12.9592109"><ele>431.0</ele><time>2026-04-12T14:52:34.811Z</time></trkpt><trkpt lat="43.2469202" lon="12.9592546"><ele>431.0</ele><time>2026-04-12T14:52:35.818Z</time></trkpt><trkpt lat="43.2467912" lon="12.9592892"><ele>431.0</ele><time>2026-04-12T14:52:36.818Z</time></trkpt><trkpt lat="43.2466502" lon="12.959302"><ele>431.0</ele><time>2026-04-12T14:52:37.839Z</time></trkpt><trkpt lat="43.2465063" lon="12.9593035"><ele>431.0</ele><time>2026-04-12T14:52:38.832Z</time></trkpt><trkpt lat="43.2463682" lon="12.9593071"><ele>431.0</ele><time>2026-04-12T14:52:39.817Z</time></trkpt><trkpt lat="43.2462354" lon="12.9593076"><ele>431.0</ele><time>2026-04-12T14:52:40.821Z</time></trkpt><trkpt lat="43.2461152" lon="12.9593094"><ele>431.0</ele><time>2026-04-12T14:52:41.819Z</time></trkpt><trkpt lat="43.2460037" lon="12.959311"><ele>431.0</ele><time>2026-04-12T14:52:42.82Z</time></trkpt><trkpt lat="43.2459044" lon="12.9593142"><ele>430.99999999999994</ele><time>2026-04-12T14:52:43.821Z</time></trkpt><trkpt lat="43.245817" lon="12.9593276"><ele>431.0</ele><time>2026-04-12T14:52:44.825Z</time></trkpt><trkpt lat="43.2457379" lon="12.959347"><ele>431.0</ele><time>2026-04-12T14:52:45.819Z</time></trkpt><trkpt lat="43.2456509" lon="12.9594091"><ele>431.0</ele><time>2026-04-12T14:52:47.816Z</time></trkpt><trkpt lat="43.2456418" lon="12.9595014"><ele>430.99999999999994</ele><time>2026-04-12T14:52:49.821Z</time></trkpt><trkpt lat="43.245706" lon="12.9596202"><ele>431.0</ele><time>2026-04-12T14:52:51.823Z</time></trkpt><trkpt lat="43.2457729" lon="12.9596781"><ele>431.0</ele><time>2026-04-12T14:52:52.834Z</time></trkpt><trkpt lat="43.2458424" lon="12.9597528"><ele>431.0</ele><time>2026-04-12T14:52:53.825Z</time></trkpt><trkpt lat="43.2459215" lon="12.9598241"><ele>431.0</ele><time>2026-04-12T14:52:54.835Z</time></trkpt><trkpt lat="43.246015" lon="12.959915"><ele>431.0</ele><time>2026-04-12T14:52:55.82Z</time></trkpt><trkpt lat="43.2461165" lon="12.9600032"><ele>431.0</ele><time>2026-04-12T14:52:56.829Z</time></trkpt><trkpt lat="43.2462205" lon="12.9600989"><ele>431.0</ele><time>2026-04-12T14:52:57.82Z</time></trkpt><trkpt lat="43.2463306" lon="12.9601931"><ele>431.0</ele><time>2026-04-12T14:52:58.817Z</time></trkpt><trkpt lat="43.2464401" lon="12.9602913"><ele>431.0</ele><time>2026-04-12T14:52:59.828Z</time></trkpt><trkpt lat="43.2465453" lon="12.9603862"><ele>431.0</ele><time>2026-04-12T14:53:00.824Z</time></trkpt><trkpt lat="43.2466418" lon="12.9604851"><ele>429.75</ele><time>2026-04-12T14:53:01.835Z</time></trkpt><trkpt lat="43.2467421" lon="12.9605806"><ele>428.5</ele><time>2026-04-12T14:53:02.82Z</time></trkpt><trkpt lat="43.2468457" lon="12.9606864"><ele>427.25</ele><time>2026-04-12T14:53:03.819Z</time></trkpt><trkpt lat="43.2469543" lon="12.9607934"><ele>426.0</ele><time>2026-04-12T14:53:04.827Z</time></trkpt><trkpt lat="43.2470704" lon="12.9609087"><ele>425.33333333333337</ele><time>2026-04-12T14:53:05.814Z</time></trkpt><trkpt lat="43.247186" lon="12.9610269"><ele>424.6666666666667</ele><time>2026-04-12T14:53:06.823Z</time></trkpt><trkpt lat="43.2473097" lon="12.9611484"><ele>424.0</ele><time>2026-04-12T14:53:07.82Z</time></trkpt><trkpt lat="43.2474364" lon="12.9612677"><ele>423.6666666666667</ele><time>2026-04-12T14:53:08.823Z</time></trkpt><trkpt lat="43.2475654" lon="12.9613916"><ele>423.33333333333337</ele><time>2026-04-12T14:53:09.825Z</time></trkpt><trkpt lat="43.2476965" lon="12.9615223"><ele>423.0</ele><time>2026-04-12T14:53:10.824Z</time></trkpt><trkpt lat="43.2478258" lon="12.9616581"><ele>421.33333333333337</ele><time>2026-04-12T14:53:11.824Z</time></trkpt><trkpt lat="43.2479606" lon="12.9617902"><ele>419.6666666666667</ele><time>2026-04-12T14:53:12.829Z</time></trkpt><trkpt lat="43.248092" lon="12.9619212"><ele>418.0</ele><time>2026-04-12T14:53:13.844Z</time></trkpt><trkpt lat="43.2482219" lon="12.9620484"><ele>418.0</ele><time>2026-04-12T14:53:14.815Z</time></trkpt><trkpt lat="43.2483499" lon="12.962185"><ele>418.0</ele><time>2026-04-12T14:53:15.826Z</time></trkpt><trkpt lat="43.2484794" lon="12.9623255"><ele>418.0</ele><time>2026-04-12T14:53:16.819Z</time></trkpt><trkpt lat="43.2486086" lon="12.9624702"><ele>418.0</ele><time>2026-04-12T14:53:17.819Z</time></trkpt><trkpt lat="43.2487336" lon="12.9626147"><ele>418.0</ele><time>2026-04-12T14:53:18.829Z</time></trkpt><trkpt lat="43.2488518" lon="12.9627641"><ele>418.0</ele><time>2026-04-12T14:53:19.817Z</time></trkpt><trkpt lat="43.2489661" lon="12.9629144"><ele>417.6666666666667</ele><time>2026-04-12T14:53:20.825Z</time></trkpt><trkpt lat="43.2490808" lon="12.9630738"><ele>417.33333333333337</ele><time>2026-04-12T14:53:21.824Z</time></trkpt><trkpt lat="43.2491899" lon="12.9632404"><ele>417.0</ele><time>2026-04-12T14:53:22.829Z</time></trkpt><trkpt lat="43.2492961" lon="12.9634091"><ele>416.33333333333337</ele><time>2026-04-12T14:53:23.833Z</time></trkpt><trkpt lat="43.2493996" lon="12.9635718"><ele>415.6666666666667</ele><time>2026-04-12T14:53:24.819Z</time></trkpt><trkpt lat="43.2495028" lon="12.9637496"><ele>415.0</ele><time>2026-04-12T14:53:25.836Z</time></trkpt><trkpt lat="43.2495979" lon="12.9639262"><ele>415.0</ele><time>2026-04-12T14:53:26.818Z</time></trkpt><trkpt lat="43.2496847" lon="12.9641134"><ele>415.0</ele><time>2026-04-12T14:53:27.82Z</time></trkpt><trkpt lat="43.2497688" lon="12.9643049"><ele>415.0</ele><time>2026-04-12T14:53:28.824Z</time></trkpt><trkpt lat="43.2498512" lon="12.9644959"><ele>414.6666666666667</ele><time>2026-04-12T14:53:29.821Z</time></trkpt><trkpt lat="43.2499322" lon="12.9646941"><ele>414.33333333333337</ele><time>2026-04-12T14:53:30.82Z</time></trkpt><trkpt lat="43.2500127" lon="12.9648914"><ele>414.0</ele><time>2026-04-12T14:53:31.828Z</time></trkpt><trkpt lat="43.250091" lon="12.9650897"><ele>414.0</ele><time>2026-04-12T14:53:32.815Z</time></trkpt><trkpt lat="43.2501649" lon="12.9652919"><ele>414.0</ele><time>2026-04-12T14:53:33.82Z</time></trkpt><trkpt lat="43.2502331" lon="12.9654969"><ele>414.0</ele><time>2026-04-12T14:53:34.835Z</time></trkpt><trkpt lat="43.2502968" lon="12.9657074"><ele>412.33333333333337</ele><time>2026-04-12T14:53:35.82Z</time></trkpt><trkpt lat="43.2503546" lon="12.9659227"><ele>410.6666666666667</ele><time>2026-04-12T14:53:36.815Z</time></trkpt><trkpt lat="43.2504106" lon="12.9661352"><ele>409.0</ele><time>2026-04-12T14:53:37.821Z</time></trkpt><trkpt lat="43.2504593" lon="12.9663346"><ele>409.0</ele><time>2026-04-12T14:53:38.817Z</time></trkpt><trkpt lat="43.2505071" lon="12.9665267"><ele>409.0</ele><time>2026-04-12T14:53:39.823Z</time></trkpt><trkpt lat="43.250554" lon="12.9667041"><ele>409.0</ele><time>2026-04-12T14:53:40.822Z</time></trkpt><trkpt lat="43.2506026" lon="12.9668793"><ele>409.0</ele><time>2026-04-12T14:53:41.82Z</time></trkpt><trkpt lat="43.2506466" lon="12.9670476"><ele>409.25</ele><time>2026-04-12T14:53:42.823Z</time></trkpt><trkpt lat="43.2506886" lon="12.9672098"><ele>409.5</ele><time>2026-04-12T14:53:43.829Z</time></trkpt><trkpt lat="43.2507222" lon="12.9673753"><ele>409.75</ele><time>2026-04-12T14:53:44.833Z</time></trkpt><trkpt lat="43.2507506" lon="12.9675493"><ele>410.0</ele><time>2026-04-12T14:53:45.83Z</time></trkpt><trkpt lat="43.2507737" lon="12.9677184"><ele>410.5</ele><time>2026-04-12T14:53:46.822Z</time></trkpt><trkpt lat="43.2507878" lon="12.967893"><ele>411.0</ele><time>2026-04-12T14:53:47.82Z</time></trkpt><trkpt lat="43.2507931" lon="12.9680704"><ele>411.5</ele><time>2026-04-12T14:53:48.816Z</time></trkpt><trkpt lat="43.2507867" lon="12.968242"><ele>412.0</ele><time>2026-04-12T14:53:49.821Z</time></trkpt><trkpt lat="43.2507661" lon="12.9684238"><ele>412.5</ele><time>2026-04-12T14:53:50.819Z</time></trkpt><trkpt lat="43.2507347" lon="12.9686103"><ele>413.0</ele><time>2026-04-12T14:53:51.842Z</time></trkpt><trkpt lat="43.2506912" lon="12.9687934"><ele>413.5</ele><time>2026-04-12T14:53:52.838Z</time></trkpt><trkpt lat="43.2506317" lon="12.9689775"><ele>414.0</ele><time>2026-04-12T14:53:53.832Z</time></trkpt><trkpt lat="43.2505655" lon="12.9691583"><ele>412.0</ele><time>2026-04-12T14:53:54.82Z</time></trkpt><trkpt lat="43.2504967" lon="12.9693422"><ele>410.0</ele><time>2026-04-12T14:53:55.814Z</time></trkpt><trkpt lat="43.2504252" lon="12.9695267"><ele>408.0</ele><time>2026-04-12T14:53:56.825Z</time></trkpt><trkpt lat="43.2503518" lon="12.96971"><ele>408.0</ele><time>2026-04-12T14:53:57.821Z</time></trkpt><trkpt lat="43.2502748" lon="12.9699019"><ele>408.0</ele><time>2026-04-12T14:53:58.825Z</time></trkpt><trkpt lat="43.2501974" lon="12.9700901"><ele>408.0</ele><time>2026-04-12T14:53:59.813Z</time></trkpt><trkpt lat="43.2501215" lon="12.970283"><ele>408.0</ele><time>2026-04-12T14:54:00.829Z</time></trkpt><trkpt lat="43.2500439" lon="12.9704806"><ele>408.0</ele><time>2026-04-12T14:54:01.815Z</time></trkpt><trkpt lat="43.2499642" lon="12.9706722"><ele>408.0</ele><time>2026-04-12T14:54:02.819Z</time></trkpt><trkpt lat="43.2498846" lon="12.9708719"><ele>406.66666666666663</ele><time>2026-04-12T14:54:03.821Z</time></trkpt><trkpt lat="43.2498075" lon="12.9710707"><ele>405.3333333333333</ele><time>2026-04-12T14:54:04.819Z</time></trkpt><trkpt lat="43.2497308" lon="12.9712751"><ele>404.0</ele><time>2026-04-12T14:54:05.824Z</time></trkpt><trkpt lat="43.2496518" lon="12.9714786"><ele>404.0</ele><time>2026-04-12T14:54:06.828Z</time></trkpt><trkpt lat="43.2495722" lon="12.9716791"><ele>404.0</ele><time>2026-04-12T14:54:07.834Z</time></trkpt><trkpt lat="43.2494929" lon="12.9718772"><ele>404.0</ele><time>2026-04-12T14:54:08.816Z</time></trkpt><trkpt lat="43.2494138" lon="12.9720808"><ele>405.3333333333333</ele><time>2026-04-12T14:54:09.814Z</time></trkpt><trkpt lat="43.2493358" lon="12.972283"><ele>406.66666666666663</ele><time>2026-04-12T14:54:10.828Z</time></trkpt><trkpt lat="43.2492585" lon="12.9724889"><ele>408.0</ele><time>2026-04-12T14:54:11.816Z</time></trkpt><trkpt lat="43.2491796" lon="12.9726897"><ele>408.0</ele><time>2026-04-12T14:54:12.833Z</time></trkpt><trkpt lat="43.2491002" lon="12.9728952"><ele>408.0</ele><time>2026-04-12T14:54:13.832Z</time></trkpt><trkpt lat="43.2490222" lon="12.973095"><ele>408.0</ele><time>2026-04-12T14:54:14.83Z</time></trkpt><trkpt lat="43.2489447" lon="12.9732929"><ele>404.66666666666663</ele><time>2026-04-12T14:54:15.826Z</time></trkpt><trkpt lat="43.2488675" lon="12.9734921"><ele>401.3333333333333</ele><time>2026-04-12T14:54:16.839Z</time></trkpt><trkpt lat="43.2487897" lon="12.9736835"><ele>398.0</ele><time>2026-04-12T14:54:17.829Z</time></trkpt><trkpt lat="43.2487106" lon="12.9738821"><ele>398.0</ele><time>2026-04-12T14:54:18.834Z</time></trkpt><trkpt lat="43.2486308" lon="12.974087"><ele>398.0</ele><time>2026-04-12T14:54:19.812Z</time></trkpt><trkpt lat="43.2485502" lon="12.9742956"><ele>398.0</ele><time>2026-04-12T14:54:20.814Z</time></trkpt><trkpt lat="43.2484721" lon="12.9744987"><ele>398.0</ele><time>2026-04-12T14:54:21.831Z</time></trkpt><trkpt lat="43.2483932" lon="12.9747035"><ele>398.0</ele><time>2026-04-12T14:54:22.817Z</time></trkpt><trkpt lat="43.2483176" lon="12.9749"><ele>398.0</ele><time>2026-04-12T14:54:23.822Z</time></trkpt><trkpt lat="43.2482406" lon="12.9750938"><ele>398.0</ele><time>2026-04-12T14:54:24.824Z</time></trkpt><trkpt lat="43.2481622" lon="12.9752882"><ele>398.0</ele><time>2026-04-12T14:54:25.827Z</time></trkpt><trkpt lat="43.2480834" lon="12.9754815"><ele>398.0</ele><time>2026-04-12T14:54:26.821Z</time></trkpt><trkpt lat="43.2480049" lon="12.9756728"><ele>397.66666666666663</ele><time>2026-04-12T14:54:27.824Z</time></trkpt><trkpt lat="43.2479288" lon="12.975866"><ele>397.33333333333337</ele><time>2026-04-12T14:54:28.818Z</time></trkpt><trkpt lat="43.2478572" lon="12.9760482"><ele>397.0</ele><time>2026-04-12T14:54:29.815Z</time></trkpt><trkpt lat="43.2477915" lon="12.9762259"><ele>397.0</ele><time>2026-04-12T14:54:30.818Z</time></trkpt><trkpt lat="43.2477293" lon="12.9763986"><ele>397.0</ele><time>2026-04-12T14:54:31.83Z</time></trkpt><trkpt lat="43.2476758" lon="12.9765767"><ele>397.0</ele><time>2026-04-12T14:54:32.816Z</time></trkpt><trkpt lat="43.2476386" lon="12.9767653"><ele>397.0</ele><time>2026-04-12T14:54:33.817Z</time></trkpt><trkpt lat="43.2476186" lon="12.9769709"><ele>396.33333333333337</ele><time>2026-04-12T14:54:34.817Z</time></trkpt><trkpt lat="43.2476132" lon="12.9771887"><ele>395.66666666666663</ele><time>2026-04-12T14:54:35.823Z</time></trkpt><trkpt lat="43.247617" lon="12.9774111"><ele>395.0</ele><time>2026-04-12T14:54:36.819Z</time></trkpt><trkpt lat="43.2476237" lon="12.9776319"><ele>393.3333333333333</ele><time>2026-04-12T14:54:37.819Z</time></trkpt><trkpt lat="43.2476257" lon="12.9778547"><ele>391.66666666666663</ele><time>2026-04-12T14:54:38.822Z</time></trkpt><trkpt lat="43.2476302" lon="12.9780795"><ele>390.0</ele><time>2026-04-12T14:54:39.826Z</time></trkpt><trkpt lat="43.2476368" lon="12.9783019"><ele>387.6666666666667</ele><time>2026-04-12T14:54:40.827Z</time></trkpt><trkpt lat="43.2476419" lon="12.9785178"><ele>385.33333333333337</ele><time>2026-04-12T14:54:41.829Z</time></trkpt><trkpt lat="43.2476455" lon="12.978733"><ele>383.0</ele><time>2026-04-12T14:54:42.833Z</time></trkpt><trkpt lat="43.2476492" lon="12.978944"><ele>383.0</ele><time>2026-04-12T14:54:43.821Z</time></trkpt><trkpt lat="43.2476555" lon="12.9791511"><ele>383.0</ele><time>2026-04-12T14:54:44.823Z</time></trkpt><trkpt lat="43.2476611" lon="12.9793605"><ele>383.0</ele><time>2026-04-12T14:54:45.827Z</time></trkpt><trkpt lat="43.2476663" lon="12.979567"><ele>382.75</ele><time>2026-04-12T14:54:46.818Z</time></trkpt><trkpt lat="43.2476699" lon="12.9797676"><ele>382.5</ele><time>2026-04-12T14:54:47.833Z</time></trkpt><trkpt lat="43.2476735" lon="12.9799651"><ele>382.25</ele><time>2026-04-12T14:54:48.826Z</time></trkpt><trkpt lat="43.2476724" lon="12.9801573"><ele>382.0</ele><time>2026-04-12T14:54:49.828Z</time></trkpt><trkpt lat="43.2476624" lon="12.9803508"><ele>382.75</ele><time>2026-04-12T14:54:50.828Z</time></trkpt><trkpt lat="43.2476365" lon="12.9805532"><ele>383.5</ele><time>2026-04-12T14:54:51.841Z</time></trkpt><trkpt lat="43.2475852" lon="12.9807396"><ele>384.25</ele><time>2026-04-12T14:54:52.84Z</time></trkpt><trkpt lat="43.2475088" lon="12.980913"><ele>385.0</ele><time>2026-04-12T14:54:53.816Z</time></trkpt><trkpt lat="43.2474349" lon="12.9811002"><ele>385.33333333333337</ele><time>2026-04-12T14:54:54.825Z</time></trkpt><trkpt lat="43.2473771" lon="12.9812986"><ele>385.66666666666663</ele><time>2026-04-12T14:54:55.83Z</time></trkpt><trkpt lat="43.2473537" lon="12.9815087"><ele>386.0</ele><time>2026-04-12T14:54:56.819Z</time></trkpt><trkpt lat="43.2473589" lon="12.9817232"><ele>385.0</ele><time>2026-04-12T14:54:57.828Z</time></trkpt><trkpt lat="43.2473808" lon="12.9819575"><ele>384.0</ele><time>2026-04-12T14:54:58.824Z</time></trkpt><trkpt lat="43.2474033" lon="12.9821827"><ele>383.0</ele><time>2026-04-12T14:54:59.826Z</time></trkpt><trkpt lat="43.2474179" lon="12.9823796"><ele>382.5</ele><time>2026-04-12T14:55:00.82Z</time></trkpt><trkpt lat="43.2474178" lon="12.9825844"><ele>382.0</ele><time>2026-04-12T14:55:01.819Z</time></trkpt><trkpt lat="43.2474101" lon="12.9827797"><ele>381.5</ele><time>2026-04-12T14:55:02.813Z</time></trkpt><trkpt lat="43.2473852" lon="12.9829894"><ele>381.0</ele><time>2026-04-12T14:55:03.818Z</time></trkpt><trkpt lat="43.2473554" lon="12.9831917"><ele>381.3333333333333</ele><time>2026-04-12T14:55:04.827Z</time></trkpt><trkpt lat="43.2473169" lon="12.9834023"><ele>381.66666666666663</ele><time>2026-04-12T14:55:05.827Z</time></trkpt><trkpt lat="43.2472708" lon="12.9836124"><ele>382.0</ele><time>2026-04-12T14:55:06.817Z</time></trkpt><trkpt lat="43.2472176" lon="12.9838298"><ele>380.3333333333333</ele><time>2026-04-12T14:55:07.832Z</time></trkpt><trkpt lat="43.2471554" lon="12.9840329"><ele>378.6666666666667</ele><time>2026-04-12T14:55:08.82Z</time></trkpt><trkpt lat="43.2470824" lon="12.984222"><ele>377.0</ele><time>2026-04-12T14:55:09.822Z</time></trkpt><trkpt lat="43.2469958" lon="12.9844097"><ele>377.0</ele><time>2026-04-12T14:55:10.824Z</time></trkpt><trkpt lat="43.246908" lon="12.984585"><ele>377.0</ele><time>2026-04-12T14:55:11.823Z</time></trkpt><trkpt lat="43.2468252" lon="12.9847527"><ele>377.0</ele><time>2026-04-12T14:55:12.819Z</time></trkpt><trkpt lat="43.2467484" lon="12.9849255"><ele>376.6666666666667</ele><time>2026-04-12T14:55:13.822Z</time></trkpt><trkpt lat="43.2466879" lon="12.9851219"><ele>376.3333333333333</ele><time>2026-04-12T14:55:14.821Z</time></trkpt><trkpt lat="43.2466551" lon="12.9853383"><ele>376.0</ele><time>2026-04-12T14:55:15.822Z</time></trkpt><trkpt lat="43.2466385" lon="12.9855767"><ele>376.0</ele><time>2026-04-12T14:55:16.829Z</time></trkpt><trkpt lat="43.2466412" lon="12.9858047"><ele>376.0</ele><time>2026-04-12T14:55:17.821Z</time></trkpt><trkpt lat="43.2466506" lon="12.9860325"><ele>376.0</ele><time>2026-04-12T14:55:18.821Z</time></trkpt><trkpt lat="43.2466628" lon="12.9862635"><ele>375.66666666666663</ele><time>2026-04-12T14:55:19.823Z</time></trkpt><trkpt lat="43.2466671" lon="12.9864847"><ele>375.3333333333333</ele><time>2026-04-12T14:55:20.823Z</time></trkpt><trkpt lat="43.2466704" lon="12.9867095"><ele>375.0</ele><time>2026-04-12T14:55:21.829Z</time></trkpt><trkpt lat="43.246674" lon="12.9869273"><ele>375.0</ele><time>2026-04-12T14:55:22.821Z</time></trkpt><trkpt lat="43.2466778" lon="12.9871372"><ele>375.0</ele><time>2026-04-12T14:55:23.817Z</time></trkpt><trkpt lat="43.246685" lon="12.9873321"><ele>375.0</ele><time>2026-04-12T14:55:24.82Z</time></trkpt><trkpt lat="43.2466961" lon="12.9875232"><ele>375.0</ele><time>2026-04-12T14:55:25.827Z</time></trkpt><trkpt lat="43.246704" lon="12.9877232"><ele>376.0</ele><time>2026-04-12T14:55:26.828Z</time></trkpt><trkpt lat="43.2467113" lon="12.987916"><ele>377.0</ele><time>2026-04-12T14:55:27.827Z</time></trkpt><trkpt lat="43.2467134" lon="12.9881018"><ele>378.0</ele><time>2026-04-12T14:55:28.827Z</time></trkpt><trkpt lat="43.2466947" lon="12.9882944"><ele>379.0</ele><time>2026-04-12T14:55:29.821Z</time></trkpt><trkpt lat="43.2466508" lon="12.9884838"><ele>379.0</ele><time>2026-04-12T14:55:30.817Z</time></trkpt><trkpt lat="43.246561" lon="12.9886588"><ele>379.0</ele><time>2026-04-12T14:55:31.822Z</time></trkpt><trkpt lat="43.2464497" lon="12.9887907"><ele>379.0</ele><time>2026-04-12T14:55:32.82Z</time></trkpt><trkpt lat="43.2463389" lon="12.9888871"><ele>379.0</ele><time>2026-04-12T14:55:33.828Z</time></trkpt><trkpt lat="43.2462242" lon="12.98898"><ele>379.75</ele><time>2026-04-12T14:55:34.825Z</time></trkpt><trkpt lat="43.2461004" lon="12.9890717"><ele>380.5</ele><time>2026-04-12T14:55:35.821Z</time></trkpt><trkpt lat="43.2459809" lon="12.9891631"><ele>381.25</ele><time>2026-04-12T14:55:36.827Z</time></trkpt><trkpt lat="43.2458612" lon="12.9892559"><ele>382.0</ele><time>2026-04-12T14:55:37.821Z</time></trkpt><trkpt lat="43.2457461" lon="12.9893474"><ele>382.40000000000003</ele><time>2026-04-12T14:55:38.831Z</time></trkpt><trkpt lat="43.2456418" lon="12.9894292"><ele>382.8</ele><time>2026-04-12T14:55:39.828Z</time></trkpt><trkpt lat="43.2455473" lon="12.9895075"><ele>383.2</ele><time>2026-04-12T14:55:40.826Z</time></trkpt><trkpt lat="43.2454635" lon="12.9895773"><ele>383.6</ele><time>2026-04-12T14:55:41.824Z</time></trkpt><trkpt lat="43.2453822" lon="12.9896385"><ele>384.0</ele><time>2026-04-12T14:55:42.832Z</time></trkpt><trkpt lat="43.2453026" lon="12.9896814"><ele>384.0</ele><time>2026-04-12T14:55:43.831Z</time></trkpt><trkpt lat="43.2452269" lon="12.9896866"><ele>384.0</ele><time>2026-04-12T14:55:44.818Z</time></trkpt><trkpt lat="43.2451587" lon="12.9896802"><ele>384.0</ele><time>2026-04-12T14:55:45.826Z</time></trkpt><trkpt lat="43.2450844" lon="12.989669"><ele>384.0</ele><time>2026-04-12T14:55:46.82Z</time></trkpt><trkpt lat="43.2450052" lon="12.9896821"><ele>384.0</ele><time>2026-04-12T14:55:47.819Z</time></trkpt><trkpt lat="43.2449366" lon="12.9897221"><ele>384.0</ele><time>2026-04-12T14:55:48.829Z</time></trkpt><trkpt lat="43.2448701" lon="12.9897756"><ele>384.0</ele><time>2026-04-12T14:55:49.824Z</time></trkpt><trkpt lat="43.2448133" lon="12.9898401"><ele>384.0</ele><time>2026-04-12T14:55:50.817Z</time></trkpt><trkpt lat="43.2447501" lon="12.98993"><ele>384.0</ele><time>2026-04-12T14:55:52.82Z</time></trkpt><trkpt lat="43.2447274" lon="12.9900258"><ele>384.0</ele><time>2026-04-12T14:55:55.827Z</time></trkpt><trkpt lat="43.2447555" lon="12.9901472"><ele>384.0</ele><time>2026-04-12T14:57:08.817Z</time></trkpt><trkpt lat="43.2447939" lon="12.990219"><ele>384.0</ele><time>2026-04-12T14:57:09.834Z</time></trkpt><trkpt lat="43.2448576" lon="12.9902725"><ele>384.0</ele><time>2026-04-12T14:57:10.829Z</time></trkpt><trkpt lat="43.2449464" lon="12.9902909"><ele>384.0</ele><time>2026-04-12T14:57:11.823Z</time></trkpt><trkpt lat="43.2450459" lon="12.9902714"><ele>384.0</ele><time>2026-04-12T14:57:12.819Z</time></trkpt><trkpt lat="43.2451378" lon="12.9902077"><ele>384.0</ele><time>2026-04-12T14:57:13.815Z</time></trkpt><trkpt lat="43.2452108" lon="12.9901082"><ele>384.0</ele><time>2026-04-12T14:57:14.819Z</time></trkpt><trkpt lat="43.245256" lon="12.9899964"><ele>384.0</ele><time>2026-04-12T14:57:15.827Z</time></trkpt><trkpt lat="43.2452706" lon="12.9898716"><ele>384.0</ele><time>2026-04-12T14:57:16.824Z</time></trkpt><trkpt lat="43.2452378" lon="12.989771"><ele>384.0</ele><time>2026-04-12T14:57:17.831Z</time></trkpt><trkpt lat="43.2451741" lon="12.9897034"><ele>384.0</ele><time>2026-04-12T14:57:18.823Z</time></trkpt><trkpt lat="43.2450941" lon="12.9896752"><ele>384.0</ele><time>2026-04-12T14:57:19.827Z</time></trkpt><trkpt lat="43.2450111" lon="12.9896376"><ele>384.0</ele><time>2026-04-12T14:57:20.82Z</time></trkpt><trkpt lat="43.2449438" lon="12.9895638"><ele>384.0</ele><time>2026-04-12T14:57:21.827Z</time></trkpt><trkpt lat="43.2448923" lon="12.989419"><ele>384.0</ele><time>2026-04-12T14:57:22.824Z</time></trkpt><trkpt lat="43.2448692" lon="12.989249"><ele>384.0</ele><time>2026-04-12T14:57:23.823Z</time></trkpt><trkpt lat="43.2448512" lon="12.9890734"><ele>384.0</ele><time>2026-04-12T14:57:24.818Z</time></trkpt><trkpt lat="43.2448466" lon="12.988882"><ele>384.0</ele><time>2026-04-12T14:57:25.826Z</time></trkpt><trkpt lat="43.2448588" lon="12.9886815"><ele>384.0</ele><time>2026-04-12T14:57:26.821Z</time></trkpt><trkpt lat="43.2449021" lon="12.9884891"><ele>384.0</ele><time>2026-04-12T14:57:27.821Z</time></trkpt><trkpt lat="43.2449869" lon="12.9882988"><ele>384.66666666666663</ele><time>2026-04-12T14:57:28.821Z</time></trkpt><trkpt lat="43.2451064" lon="12.9881264"><ele>385.3333333333333</ele><time>2026-04-12T14:57:29.824Z</time></trkpt><trkpt lat="43.245259" lon="12.9879989"><ele>386.0</ele><time>2026-04-12T14:57:30.817Z</time></trkpt><trkpt lat="43.2454354" lon="12.987906"><ele>385.66666666666663</ele><time>2026-04-12T14:57:31.827Z</time></trkpt><trkpt lat="43.2456303" lon="12.9878367"><ele>385.33333333333337</ele><time>2026-04-12T14:57:32.82Z</time></trkpt><trkpt lat="43.2458342" lon="12.9877659"><ele>385.0</ele><time>2026-04-12T14:57:33.836Z</time></trkpt><trkpt lat="43.2460616" lon="12.9877012"><ele>385.0</ele><time>2026-04-12T14:57:34.82Z</time></trkpt><trkpt lat="43.2463109" lon="12.9876467"><ele>385.0</ele><time>2026-04-12T14:57:35.823Z</time></trkpt><trkpt lat="43.2465883" lon="12.9875972"><ele>382.0</ele><time>2026-04-12T14:57:36.832Z</time></trkpt><trkpt lat="43.2468795" lon="12.9875549"><ele>379.0</ele><time>2026-04-12T14:57:37.824Z</time></trkpt><trkpt lat="43.2471809" lon="12.9875208"><ele>376.5</ele><time>2026-04-12T14:57:38.83Z</time></trkpt><trkpt lat="43.2474906" lon="12.9874859"><ele>374.0</ele><time>2026-04-12T14:57:39.829Z</time></trkpt><trkpt lat="43.2478128" lon="12.9874615"><ele>382.5</ele><time>2026-04-12T14:57:40.821Z</time></trkpt><trkpt lat="43.2481397" lon="12.9874389"><ele>391.0</ele><time>2026-04-12T14:57:41.818Z</time></trkpt><trkpt lat="43.2484672" lon="12.9874207"><ele>391.0</ele><time>2026-04-12T14:57:42.831Z</time></trkpt><trkpt lat="43.2487896" lon="12.9874086"><ele>391.0</ele><time>2026-04-12T14:57:43.811Z</time></trkpt><trkpt lat="43.2623338" lon="12.9866162"><ele>370.0</ele><time>2026-04-12T14:58:31.817Z</time></trkpt><trkpt lat="43.2626095" lon="12.9866195"><ele>349.0</ele><time>2026-04-12T14:58:32.811Z</time></trkpt><trkpt lat="43.262906" lon="12.9866214"><ele>348.0</ele><time>2026-04-12T14:58:33.817Z</time></trkpt><trkpt lat="43.2632011" lon="12.9866532"><ele>347.0</ele><time>2026-04-12T14:58:34.81Z</time></trkpt><trkpt lat="43.263493" lon="12.9866793"><ele>350.5</ele><time>2026-04-12T14:58:35.816Z</time></trkpt><trkpt lat="43.2637862" lon="12.9867007"><ele>354.0</ele><time>2026-04-12T14:58:36.828Z</time></trkpt><trkpt lat="43.2640686" lon="12.986744"><ele>357.0</ele><time>2026-04-12T14:58:37.818Z</time></trkpt><trkpt lat="43.2643664" lon="12.9867871"><ele>360.0</ele><time>2026-04-12T14:58:38.814Z</time></trkpt><trkpt lat="43.2646638" lon="12.9868443"><ele>355.5</ele><time>2026-04-12T14:58:39.812Z</time></trkpt><trkpt lat="43.2649486" lon="12.9869012"><ele>351.0</ele><time>2026-04-12T14:58:40.817Z</time></trkpt><trkpt lat="43.2652324" lon="12.9869576"><ele>351.0</ele><time>2026-04-12T14:58:41.84Z</time></trkpt><trkpt lat="43.2655205" lon="12.9870273"><ele>351.0</ele><time>2026-04-12T14:58:42.821Z</time></trkpt><trkpt lat="43.2658021" lon="12.9871037"><ele>346.0</ele><time>2026-04-12T14:58:43.82Z</time></trkpt><trkpt lat="43.2660872" lon="12.9871882"><ele>341.0</ele><time>2026-04-12T14:58:44.82Z</time></trkpt><trkpt lat="43.2663706" lon="12.9872729"><ele>339.5</ele><time>2026-04-12T14:58:45.812Z</time></trkpt><trkpt lat="43.2666549" lon="12.9873735"><ele>338.0</ele><time>2026-04-12T14:58:46.812Z</time></trkpt><trkpt lat="43.266937" lon="12.9874783"><ele>342.5</ele><time>2026-04-12T14:58:47.817Z</time></trkpt><trkpt lat="43.2672174" lon="12.9875873"><ele>347.0</ele><time>2026-04-12T14:58:48.815Z</time></trkpt><trkpt lat="43.2674906" lon="12.9877058"><ele>350.0</ele><time>2026-04-12T14:58:49.814Z</time></trkpt><trkpt lat="43.2677617" lon="12.9878336"><ele>353.0</ele><time>2026-04-12T14:58:50.816Z</time></trkpt><trkpt lat="43.2680272" lon="12.9879566"><ele>346.5</ele><time>2026-04-12T14:58:51.829Z</time></trkpt><trkpt lat="43.2682927" lon="12.9880823"><ele>340.0</ele><time>2026-04-12T14:58:52.823Z</time></trkpt><trkpt lat="43.2685606" lon="12.9882105"><ele>341.5</ele><time>2026-04-12T14:58:53.814Z</time></trkpt><trkpt lat="43.2688305" lon="12.9883459"><ele>343.0</ele><time>2026-04-12T14:58:54.819Z</time></trkpt><trkpt lat="43.2691049" lon="12.9884824"><ele>343.0</ele><time>2026-04-12T14:58:55.823Z</time></trkpt><trkpt lat="43.2693828" lon="12.9886208"><ele>343.0</ele><time>2026-04-12T14:58:56.822Z</time></trkpt><trkpt lat="43.2696588" lon="12.988755"><ele>336.5</ele><time>2026-04-12T14:58:57.82Z</time></trkpt><trkpt lat="43.2699348" lon="12.9888785"><ele>330.0</ele><time>2026-04-12T14:58:58.823Z</time></trkpt><trkpt lat="43.2702063" lon="12.9889927"><ele>330.0</ele><time>2026-04-12T14:58:59.827Z</time></trkpt><trkpt lat="43.2704771" lon="12.9891044"><ele>330.0</ele><time>2026-04-12T14:59:00.839Z</time></trkpt><trkpt lat="43.2707528" lon="12.9892067"><ele>329.0</ele><time>2026-04-12T14:59:01.834Z</time></trkpt><trkpt lat="43.2710302" lon="12.9892906"><ele>328.0</ele><time>2026-04-12T14:59:02.821Z</time></trkpt><trkpt lat="43.2713094" lon="12.9893635"><ele>326.0</ele><time>2026-04-12T14:59:03.83Z</time></trkpt><trkpt lat="43.2715926" lon="12.9894317"><ele>324.0</ele><time>2026-04-12T14:59:04.821Z</time></trkpt><trkpt lat="43.2718837" lon="12.9894922"><ele>324.0</ele><time>2026-04-12T14:59:05.826Z</time></trkpt><trkpt lat="43.2721835" lon="12.9895363"><ele>324.0</ele><time>2026-04-12T14:59:06.822Z</time></trkpt><trkpt lat="43.272483" lon="12.9895679"><ele>323.0</ele><time>2026-04-12T14:59:07.821Z</time></trkpt><trkpt lat="43.2727736" lon="12.9895849"><ele>322.0</ele><time>2026-04-12T14:59:08.823Z</time></trkpt><trkpt lat="43.2730574" lon="12.9895939"><ele>320.5</ele><time>2026-04-12T14:59:09.822Z</time></trkpt><trkpt lat="43.2733399" lon="12.9895967"><ele>319.0</ele><time>2026-04-12T14:59:10.829Z</time></trkpt><trkpt lat="43.2736203" lon="12.989586"><ele>319.0</ele><time>2026-04-12T14:59:11.826Z</time></trkpt><trkpt lat="43.2738964" lon="12.9895648"><ele>319.0</ele><time>2026-04-12T14:59:12.817Z</time></trkpt><trkpt lat="43.2741689" lon="12.9895227"><ele>320.0</ele><time>2026-04-12T14:59:13.819Z</time></trkpt><trkpt lat="43.2744415" lon="12.9894768"><ele>321.0</ele><time>2026-04-12T14:59:14.825Z</time></trkpt><trkpt lat="43.2747077" lon="12.9894229"><ele>319.5</ele><time>2026-04-12T14:59:15.829Z</time></trkpt><trkpt lat="43.2749692" lon="12.9893625"><ele>318.0</ele><time>2026-04-12T14:59:16.819Z</time></trkpt><trkpt lat="43.2752258" lon="12.989291"><ele>318.0</ele><time>2026-04-12T14:59:17.823Z</time></trkpt><trkpt lat="43.2754787" lon="12.9892019"><ele>318.0</ele><time>2026-04-12T14:59:18.822Z</time></trkpt><trkpt lat="43.2757308" lon="12.9891056"><ele>319.5</ele><time>2026-04-12T14:59:19.83Z</time></trkpt><trkpt lat="43.2759895" lon="12.9889992"><ele>321.0</ele><time>2026-04-12T14:59:20.818Z</time></trkpt><trkpt lat="43.2762523" lon="12.9888779"><ele>320.0</ele><time>2026-04-12T14:59:21.823Z</time></trkpt><trkpt lat="43.2765257" lon="12.9887395"><ele>319.0</ele><time>2026-04-12T14:59:22.829Z</time></trkpt><trkpt lat="43.2768054" lon="12.9885966"><ele>319.0</ele><time>2026-04-12T14:59:23.81Z</time></trkpt><trkpt lat="43.2770996" lon="12.9884471"><ele>319.0</ele><time>2026-04-12T14:59:24.814Z</time></trkpt><trkpt lat="43.2774002" lon="12.9882802"><ele>320.0</ele><time>2026-04-12T14:59:25.813Z</time></trkpt><trkpt lat="43.2777052" lon="12.9881121"><ele>321.0</ele><time>2026-04-12T14:59:26.821Z</time></trkpt><trkpt lat="43.278011" lon="12.9879332"><ele>320.5</ele><time>2026-04-12T14:59:27.823Z</time></trkpt><trkpt lat="43.2783086" lon="12.9877647"><ele>320.0</ele><time>2026-04-12T14:59:28.813Z</time></trkpt><trkpt lat="43.2786059" lon="12.9875969"><ele>323.0</ele><time>2026-04-12T14:59:29.829Z</time></trkpt><trkpt lat="43.2788975" lon="12.9874244"><ele>326.0</ele><time>2026-04-12T14:59:30.816Z</time></trkpt><trkpt lat="43.2791864" lon="12.9872543"><ele>327.0</ele><time>2026-04-12T14:59:31.814Z</time></trkpt><trkpt lat="43.27947" lon="12.9870825"><ele>328.0</ele><time>2026-04-12T14:59:32.818Z</time></trkpt><trkpt lat="43.2797586" lon="12.9869141"><ele>329.0</ele><time>2026-04-12T14:59:33.819Z</time></trkpt><trkpt lat="43.2800457" lon="12.9867406"><ele>330.0</ele><time>2026-04-12T14:59:34.82Z</time></trkpt><trkpt lat="43.2803382" lon="12.9865668"><ele>330.5</ele><time>2026-04-12T14:59:35.815Z</time></trkpt><trkpt lat="43.2806362" lon="12.9863905"><ele>331.0</ele><time>2026-04-12T14:59:36.815Z</time></trkpt><trkpt lat="43.2809334" lon="12.9862113"><ele>331.0</ele><time>2026-04-12T14:59:37.824Z</time></trkpt><trkpt lat="43.2812245" lon="12.9860297"><ele>331.0</ele><time>2026-04-12T14:59:38.825Z</time></trkpt><trkpt lat="43.281517" lon="12.9858561"><ele>331.5</ele><time>2026-04-12T14:59:39.819Z</time></trkpt><trkpt lat="43.2818049" lon="12.9856839"><ele>332.0</ele><time>2026-04-12T14:59:40.822Z</time></trkpt><trkpt lat="43.2820947" lon="12.985515"><ele>329.0</ele><time>2026-04-12T14:59:41.828Z</time></trkpt><trkpt lat="43.2823876" lon="12.9853579"><ele>326.0</ele><time>2026-04-12T14:59:42.822Z</time></trkpt><trkpt lat="43.2826853" lon="12.9852036"><ele>326.0</ele><time>2026-04-12T14:59:43.823Z</time></trkpt><trkpt lat="43.2829808" lon="12.9850615"><ele>326.0</ele><time>2026-04-12T14:59:44.815Z</time></trkpt><trkpt lat="43.2832743" lon="12.9849306"><ele>326.0</ele><time>2026-04-12T14:59:45.814Z</time></trkpt><trkpt lat="43.2835728" lon="12.9848097"><ele>326.0</ele><time>2026-04-12T14:59:46.82Z</time></trkpt><trkpt lat="43.2838696" lon="12.9846909"><ele>324.0</ele><time>2026-04-12T14:59:47.818Z</time></trkpt><trkpt lat="43.284164" lon="12.9845809"><ele>322.0</ele><time>2026-04-12T14:59:48.821Z</time></trkpt><trkpt lat="43.2844479" lon="12.9844847"><ele>322.0</ele><time>2026-04-12T14:59:49.825Z</time></trkpt><trkpt lat="43.2847181" lon="12.9844002"><ele>322.0</ele><time>2026-04-12T14:59:50.823Z</time></trkpt><trkpt lat="43.2849856" lon="12.984327"><ele>320.5</ele><time>2026-04-12T14:59:51.816Z</time></trkpt><trkpt lat="43.2852637" lon="12.9842651"><ele>319.0</ele><time>2026-04-12T14:59:52.825Z</time></trkpt><trkpt lat="43.2855457" lon="12.9842097"><ele>322.5</ele><time>2026-04-12T14:59:53.816Z</time></trkpt><trkpt lat="43.2858272" lon="12.9841516"><ele>326.0</ele><time>2026-04-12T14:59:54.82Z</time></trkpt><trkpt lat="43.2861012" lon="12.9840953"><ele>326.0</ele><time>2026-04-12T14:59:55.81Z</time></trkpt><trkpt lat="43.2863745" lon="12.9840418"><ele>326.0</ele><time>2026-04-12T14:59:56.813Z</time></trkpt><trkpt lat="43.2866538" lon="12.9839844"><ele>320.5</ele><time>2026-04-12T14:59:57.815Z</time></trkpt><trkpt lat="43.2869355" lon="12.983932"><ele>315.0</ele><time>2026-04-12T14:59:58.822Z</time></trkpt><trkpt lat="43.2872215" lon="12.98387"><ele>311.5</ele><time>2026-04-12T14:59:59.81Z</time></trkpt><trkpt lat="43.2875085" lon="12.983795"><ele>308.0</ele><time>2026-04-12T15:00:00.836Z</time></trkpt><trkpt lat="43.287784" lon="12.9837206"><ele>308.0</ele><time>2026-04-12T15:00:01.81Z</time></trkpt><trkpt lat="43.2880528" lon="12.9836512"><ele>308.0</ele><time>2026-04-12T15:00:02.843Z</time></trkpt><trkpt lat="43.2883323" lon="12.9835657"><ele>305.0</ele><time>2026-04-12T15:00:03.805Z</time></trkpt><trkpt lat="43.2886092" lon="12.9834766"><ele>302.0</ele><time>2026-04-12T15:00:04.829Z</time></trkpt><trkpt lat="43.2888771" lon="12.9833789"><ele>300.5</ele><time>2026-04-12T15:00:05.825Z</time></trkpt><trkpt lat="43.2891449" lon="12.9832641"><ele>299.0</ele><time>2026-04-12T15:00:06.827Z</time></trkpt><trkpt lat="43.2894068" lon="12.9831459"><ele>299.0</ele><time>2026-04-12T15:00:07.837Z</time></trkpt><trkpt lat="43.2896674" lon="12.9830158"><ele>299.0</ele><time>2026-04-12T15:00:08.843Z</time></trkpt><trkpt lat="43.289928" lon="12.9828756"><ele>297.5</ele><time>2026-04-12T15:00:09.815Z</time></trkpt><trkpt lat="43.2901954" lon="12.9827253"><ele>296.0</ele><time>2026-04-12T15:00:10.828Z</time></trkpt><trkpt lat="43.290468" lon="12.9825751"><ele>295.5</ele><time>2026-04-12T15:00:11.829Z</time></trkpt><trkpt lat="43.2907395" lon="12.9824303"><ele>295.0</ele><time>2026-04-12T15:00:12.825Z</time></trkpt><trkpt lat="43.291003" lon="12.9822906"><ele>295.0</ele><time>2026-04-12T15:00:13.819Z</time></trkpt><trkpt lat="43.2912516" lon="12.9821596"><ele>295.0</ele><time>2026-04-12T15:00:14.824Z</time></trkpt><trkpt lat="43.2914888" lon="12.9820275"><ele>293.5</ele><time>2026-04-12T15:00:15.819Z</time></trkpt><trkpt lat="43.2917204" lon="12.9818948"><ele>292.0</ele><time>2026-04-12T15:00:16.816Z</time></trkpt><trkpt lat="43.2919521" lon="12.9817652"><ele>289.0</ele><time>2026-04-12T15:00:17.825Z</time></trkpt><trkpt lat="43.2921785" lon="12.9816392"><ele>286.0</ele><time>2026-04-12T15:00:18.824Z</time></trkpt><trkpt lat="43.2923988" lon="12.9815276"><ele>285.5</ele><time>2026-04-12T15:00:19.831Z</time></trkpt><trkpt lat="43.2926128" lon="12.9814253"><ele>285.0</ele><time>2026-04-12T15:00:20.831Z</time></trkpt><trkpt lat="43.2928245" lon="12.9813206"><ele>285.0</ele><time>2026-04-12T15:00:21.816Z</time></trkpt><trkpt lat="43.2930352" lon="12.9812246"><ele>285.0</ele><time>2026-04-12T15:00:22.816Z</time></trkpt><trkpt lat="43.2932536" lon="12.9811259"><ele>285.0</ele><time>2026-04-12T15:00:23.816Z</time></trkpt><trkpt lat="43.2934853" lon="12.9810189"><ele>285.0</ele><time>2026-04-12T15:00:24.82Z</time></trkpt><trkpt lat="43.2937347" lon="12.9809107"><ele>289.5</ele><time>2026-04-12T15:00:25.828Z</time></trkpt><trkpt lat="43.2940007" lon="12.9808107"><ele>294.0</ele><time>2026-04-12T15:00:26.824Z</time></trkpt><trkpt lat="43.2942822" lon="12.9807187"><ele>294.0</ele><time>2026-04-12T15:00:27.837Z</time></trkpt><trkpt lat="43.2945704" lon="12.9806285"><ele>294.0</ele><time>2026-04-12T15:00:28.818Z</time></trkpt><trkpt lat="43.2948805" lon="12.9805222"><ele>292.0</ele><time>2026-04-12T15:00:29.839Z</time></trkpt><trkpt lat="43.295206" lon="12.9804088"><ele>290.0</ele><time>2026-04-12T15:00:30.818Z</time></trkpt><trkpt lat="43.2955372" lon="12.9802893"><ele>290.0</ele><time>2026-04-12T15:00:31.818Z</time></trkpt><trkpt lat="43.295863" lon="12.9801629"><ele>290.0</ele><time>2026-04-12T15:00:32.813Z</time></trkpt><trkpt lat="43.2961829" lon="12.9800391"><ele>291.0</ele><time>2026-04-12T15:00:33.82Z</time></trkpt><trkpt lat="43.2964984" lon="12.9799227"><ele>292.0</ele><time>2026-04-12T15:00:34.822Z</time></trkpt><trkpt lat="43.2968116" lon="12.9798035"><ele>292.0</ele><time>2026-04-12T15:00:35.818Z</time></trkpt><trkpt lat="43.2971312" lon="12.9796917"><ele>292.0</ele><time>2026-04-12T15:00:36.813Z</time></trkpt><trkpt lat="43.2974479" lon="12.979575"><ele>291.0</ele><time>2026-04-12T15:00:37.821Z</time></trkpt><trkpt lat="43.2977687" lon="12.9794594"><ele>290.0</ele><time>2026-04-12T15:00:38.829Z</time></trkpt><trkpt lat="43.2980931" lon="12.9793402"><ele>288.0</ele><time>2026-04-12T15:00:39.829Z</time></trkpt><trkpt lat="43.2984206" lon="12.9792228"><ele>286.0</ele><time>2026-04-12T15:00:40.822Z</time></trkpt><trkpt lat="43.2987497" lon="12.9791007"><ele>286.5</ele><time>2026-04-12T15:00:41.825Z</time></trkpt><trkpt lat="43.2990787" lon="12.9789765"><ele>287.0</ele><time>2026-04-12T15:00:42.827Z</time></trkpt><trkpt lat="43.2994083" lon="12.9788487"><ele>287.0</ele><time>2026-04-12T15:00:43.817Z</time></trkpt><trkpt lat="43.2997343" lon="12.9787253"><ele>287.0</ele><time>2026-04-12T15:00:44.825Z</time></trkpt><trkpt lat="43.3000605" lon="12.9786115"><ele>286.0</ele><time>2026-04-12T15:00:45.828Z</time></trkpt><trkpt lat="43.3003769" lon="12.9784959"><ele>285.0</ele><time>2026-04-12T15:00:46.826Z</time></trkpt><trkpt lat="43.3006866" lon="12.9783877"><ele>286.0</ele><time>2026-04-12T15:00:47.811Z</time></trkpt><trkpt lat="43.300992" lon="12.9782769"><ele>287.0</ele><time>2026-04-12T15:00:48.813Z</time></trkpt><trkpt lat="43.3012924" lon="12.9781678"><ele>285.0</ele><time>2026-04-12T15:00:49.824Z</time></trkpt><trkpt lat="43.3015914" lon="12.9780575"><ele>283.0</ele><time>2026-04-12T15:00:50.828Z</time></trkpt><trkpt lat="43.3018888" lon="12.9779458"><ele>283.0</ele><time>2026-04-12T15:00:51.828Z</time></trkpt><trkpt lat="43.3021832" lon="12.9778328"><ele>283.0</ele><time>2026-04-12T15:00:52.822Z</time></trkpt><trkpt lat="43.3024792" lon="12.9777224"><ele>281.5</ele><time>2026-04-12T15:00:53.826Z</time></trkpt><trkpt lat="43.3027723" lon="12.9776109"><ele>280.0</ele><time>2026-04-12T15:00:54.817Z</time></trkpt><trkpt lat="43.3030732" lon="12.9775036"><ele>283.0</ele><time>2026-04-12T15:00:55.812Z</time></trkpt><trkpt lat="43.3033681" lon="12.9773944"><ele>286.0</ele><time>2026-04-12T15:00:56.824Z</time></trkpt><trkpt lat="43.3036665" lon="12.9772857"><ele>284.5</ele><time>2026-04-12T15:00:57.818Z</time></trkpt><trkpt lat="43.3039667" lon="12.9771729"><ele>283.0</ele><time>2026-04-12T15:00:58.81Z</time></trkpt><trkpt lat="43.3042713" lon="12.9770621"><ele>283.0</ele><time>2026-04-12T15:00:59.815Z</time></trkpt><trkpt lat="43.3045756" lon="12.9769478"><ele>283.0</ele><time>2026-04-12T15:01:00.817Z</time></trkpt><trkpt lat="43.30488" lon="12.9768299"><ele>282.5</ele><time>2026-04-12T15:01:01.806Z</time></trkpt><trkpt lat="43.3051874" lon="12.9767205"><ele>282.0</ele><time>2026-04-12T15:01:02.822Z</time></trkpt><trkpt lat="43.3054981" lon="12.9766023"><ele>280.0</ele><time>2026-04-12T15:01:03.829Z</time></trkpt><trkpt lat="43.3058088" lon="12.9764867"><ele>278.0</ele><time>2026-04-12T15:01:04.817Z</time></trkpt><trkpt lat="43.30612" lon="12.9763718"><ele>275.5</ele><time>2026-04-12T15:01:05.823Z</time></trkpt><trkpt lat="43.3064307" lon="12.9762566"><ele>273.0</ele><time>2026-04-12T15:01:06.823Z</time></trkpt><trkpt lat="43.3067378" lon="12.9761432"><ele>273.0</ele><time>2026-04-12T15:01:07.819Z</time></trkpt><trkpt lat="43.3070472" lon="12.9760211"><ele>273.0</ele><time>2026-04-12T15:01:08.817Z</time></trkpt><trkpt lat="43.3073617" lon="12.975904"><ele>276.5</ele><time>2026-04-12T15:01:09.828Z</time></trkpt><trkpt lat="43.3076785" lon="12.9757822"><ele>280.0</ele><time>2026-04-12T15:01:10.825Z</time></trkpt><trkpt lat="43.308001" lon="12.9756686"><ele>279.0</ele><time>2026-04-12T15:01:11.824Z</time></trkpt><trkpt lat="43.3083209" lon="12.9755594"><ele>278.0</ele><time>2026-04-12T15:01:12.82Z</time></trkpt><trkpt lat="43.3086194" lon="12.9754583"><ele>278.0</ele><time>2026-04-12T15:01:13.818Z</time></trkpt><trkpt lat="43.3089035" lon="12.9753594"><ele>278.0</ele><time>2026-04-12T15:01:14.816Z</time></trkpt><trkpt lat="43.3091778" lon="12.9752734"><ele>276.0</ele><time>2026-04-12T15:01:15.816Z</time></trkpt><trkpt lat="43.309449" lon="12.9751865"><ele>274.0</ele><time>2026-04-12T15:01:16.813Z</time></trkpt><trkpt lat="43.3097355" lon="12.9751032"><ele>274.0</ele><time>2026-04-12T15:01:17.815Z</time></trkpt><trkpt lat="43.3100303" lon="12.9750222"><ele>274.0</ele><time>2026-04-12T15:01:18.814Z</time></trkpt><trkpt lat="43.3103341" lon="12.974953"><ele>274.5</ele><time>2026-04-12T15:01:19.81Z</time></trkpt><trkpt lat="43.3106415" lon="12.9748821"><ele>275.0</ele><time>2026-04-12T15:01:20.823Z</time></trkpt><trkpt lat="43.3109561" lon="12.97482"><ele>275.0</ele><time>2026-04-12T15:01:21.816Z</time></trkpt><trkpt lat="43.3112693" lon="12.9747559"><ele>275.0</ele><time>2026-04-12T15:01:22.81Z</time></trkpt><trkpt lat="43.311587" lon="12.9746902"><ele>275.0</ele><time>2026-04-12T15:01:23.804Z</time></trkpt><trkpt lat="43.3119041" lon="12.9746279"><ele>275.0</ele><time>2026-04-12T15:01:24.814Z</time></trkpt><trkpt lat="43.3122283" lon="12.9745676"><ele>275.0</ele><time>2026-04-12T15:01:25.81Z</time></trkpt><trkpt lat="43.3125492" lon="12.9745098"><ele>275.0</ele><time>2026-04-12T15:01:26.814Z</time></trkpt><trkpt lat="43.3128734" lon="12.974453"><ele>275.5</ele><time>2026-04-12T15:01:27.816Z</time></trkpt><trkpt lat="43.3131904" lon="12.9744073"><ele>276.0</ele><time>2026-04-12T15:01:28.817Z</time></trkpt><trkpt lat="43.3134841" lon="12.9743641"><ele>276.0</ele><time>2026-04-12T15:01:29.819Z</time></trkpt><trkpt lat="43.3137625" lon="12.9743184"><ele>276.0</ele><time>2026-04-12T15:01:30.83Z</time></trkpt><trkpt lat="43.3140373" lon="12.9742781"><ele>275.5</ele><time>2026-04-12T15:01:31.825Z</time></trkpt><trkpt lat="43.3143144" lon="12.9742361"><ele>275.0</ele><time>2026-04-12T15:01:32.813Z</time></trkpt><trkpt lat="43.3145894" lon="12.9741934"><ele>273.5</ele><time>2026-04-12T15:01:33.822Z</time></trkpt><trkpt lat="43.3148538" lon="12.9741454"><ele>272.0</ele><time>2026-04-12T15:01:34.835Z</time></trkpt><trkpt lat="43.3151085" lon="12.9741108"><ele>272.0</ele><time>2026-04-12T15:01:35.827Z</time></trkpt><trkpt lat="43.3153591" lon="12.9740706"><ele>272.0</ele><time>2026-04-12T15:01:36.829Z</time></trkpt><trkpt lat="43.3156057" lon="12.9740386"><ele>271.0</ele><time>2026-04-12T15:01:37.826Z</time></trkpt><trkpt lat="43.3158384" lon="12.9740038"><ele>270.0</ele><time>2026-04-12T15:01:38.826Z</time></trkpt><trkpt lat="43.3160584" lon="12.9739763"><ele>270.0</ele><time>2026-04-12T15:01:39.818Z</time></trkpt><trkpt lat="43.3162798" lon="12.973955"><ele>270.0</ele><time>2026-04-12T15:01:40.828Z</time></trkpt><trkpt lat="43.3164916" lon="12.9739352"><ele>270.0</ele><time>2026-04-12T15:01:41.831Z</time></trkpt><trkpt lat="43.3166904" lon="12.9739111"><ele>270.6666666666667</ele><time>2026-04-12T15:01:42.825Z</time></trkpt><trkpt lat="43.3168627" lon="12.9738786"><ele>271.33333333333337</ele><time>2026-04-12T15:01:43.818Z</time></trkpt><trkpt lat="43.317046" lon="12.9738719"><ele>272.0</ele><time>2026-04-12T15:01:44.867Z</time></trkpt><trkpt lat="43.3172003" lon="12.973881"><ele>271.6666666666667</ele><time>2026-04-12T15:01:45.834Z</time></trkpt><trkpt lat="43.3173424" lon="12.9739596"><ele>271.3333333333333</ele><time>2026-04-12T15:01:46.826Z</time></trkpt><trkpt lat="43.3174561" lon="12.9740786"><ele>271.0</ele><time>2026-04-12T15:01:47.828Z</time></trkpt><trkpt lat="43.3175735" lon="12.9742464"><ele>271.0</ele><time>2026-04-12T15:01:48.835Z</time></trkpt><trkpt lat="43.3176922" lon="12.9744496"><ele>271.0</ele><time>2026-04-12T15:01:49.827Z</time></trkpt><trkpt lat="43.31781" lon="12.9746606"><ele>271.0</ele><time>2026-04-12T15:01:50.826Z</time></trkpt><trkpt lat="43.3179372" lon="12.9748643"><ele>268.66666666666663</ele><time>2026-04-12T15:01:51.819Z</time></trkpt><trkpt lat="43.3180804" lon="12.9750363"><ele>266.3333333333333</ele><time>2026-04-12T15:01:52.821Z</time></trkpt><trkpt lat="43.3182298" lon="12.9751789"><ele>264.0</ele><time>2026-04-12T15:01:53.815Z</time></trkpt><trkpt lat="43.3183935" lon="12.9752931"><ele>264.0</ele><time>2026-04-12T15:01:54.827Z</time></trkpt><trkpt lat="43.3185678" lon="12.975364"><ele>264.0</ele><time>2026-04-12T15:01:55.82Z</time></trkpt><trkpt lat="43.3187563" lon="12.9753928"><ele>264.0</ele><time>2026-04-12T15:01:56.822Z</time></trkpt><trkpt lat="43.3189395" lon="12.9753754"><ele>264.6666666666667</ele><time>2026-04-12T15:01:57.806Z</time></trkpt><trkpt lat="43.3191036" lon="12.9753378"><ele>265.33333333333337</ele><time>2026-04-12T15:01:58.817Z</time></trkpt><trkpt lat="43.3192492" lon="12.9752824"><ele>266.0</ele><time>2026-04-12T15:01:59.835Z</time></trkpt><trkpt lat="43.3193834" lon="12.9752352"><ele>266.0</ele><time>2026-04-12T15:02:00.822Z</time></trkpt><trkpt lat="43.3195122" lon="12.9752286"><ele>266.0</ele><time>2026-04-12T15:02:01.832Z</time></trkpt><trkpt lat="43.3196204" lon="12.9752648"><ele>266.0</ele><time>2026-04-12T15:02:02.824Z</time></trkpt><trkpt lat="43.3197345" lon="12.9753501"><ele>266.0</ele><time>2026-04-12T15:02:03.824Z</time></trkpt><trkpt lat="43.3198347" lon="12.9754904"><ele>265.33333333333337</ele><time>2026-04-12T15:02:04.823Z</time></trkpt><trkpt lat="43.3199165" lon="12.9756773"><ele>264.6666666666667</ele><time>2026-04-12T15:02:05.815Z</time></trkpt><trkpt lat="43.3199928" lon="12.9759054"><ele>264.0</ele><time>2026-04-12T15:02:06.825Z</time></trkpt><trkpt lat="43.3200779" lon="12.9761712"><ele>262.5</ele><time>2026-04-12T15:02:07.818Z</time></trkpt><trkpt lat="43.3201744" lon="12.9764611"><ele>261.0</ele><time>2026-04-12T15:02:08.816Z</time></trkpt><trkpt lat="43.3202858" lon="12.9767685"><ele>260.0</ele><time>2026-04-12T15:02:09.823Z</time></trkpt><trkpt lat="43.3203857" lon="12.9770424"><ele>259.0</ele><time>2026-04-12T15:02:10.833Z</time></trkpt><trkpt lat="43.3204762" lon="12.9772936"><ele>258.0</ele><time>2026-04-12T15:02:11.82Z</time></trkpt><trkpt lat="43.3205502" lon="12.9775156"><ele>258.5</ele><time>2026-04-12T15:02:12.818Z</time></trkpt><trkpt lat="43.3206156" lon="12.9777066"><ele>259.0</ele><time>2026-04-12T15:02:13.82Z</time></trkpt><trkpt lat="43.3206624" lon="12.9778754"><ele>259.5</ele><time>2026-04-12T15:02:14.825Z</time></trkpt><trkpt lat="43.3206882" lon="12.9780318"><ele>260.0</ele><time>2026-04-12T15:02:15.812Z</time></trkpt><trkpt lat="43.3206875" lon="12.978183"><ele>260.0</ele><time>2026-04-12T15:02:16.814Z</time></trkpt><trkpt lat="43.3206673" lon="12.9783173"><ele>260.0</ele><time>2026-04-12T15:02:17.816Z</time></trkpt><trkpt lat="43.3206903" lon="12.9784584"><ele>260.0</ele><time>2026-04-12T15:02:18.812Z</time></trkpt><trkpt lat="43.3207754" lon="12.9786199"><ele>260.0</ele><time>2026-04-12T15:02:19.813Z</time></trkpt><trkpt lat="43.3208896" lon="12.9787818"><ele>259.6666666666667</ele><time>2026-04-12T15:02:20.817Z</time></trkpt><trkpt lat="43.3210176" lon="12.9789757"><ele>259.3333333333333</ele><time>2026-04-12T15:02:21.824Z</time></trkpt><trkpt lat="43.3211444" lon="12.9792076"><ele>259.0</ele><time>2026-04-12T15:02:22.827Z</time></trkpt><trkpt lat="43.3212474" lon="12.9794534"><ele>258.3333333333333</ele><time>2026-04-12T15:02:23.847Z</time></trkpt><trkpt lat="43.3213156" lon="12.9796995"><ele>257.6666666666667</ele><time>2026-04-12T15:02:24.816Z</time></trkpt><trkpt lat="43.3213622" lon="12.9799697"><ele>257.0</ele><time>2026-04-12T15:02:25.812Z</time></trkpt><trkpt lat="43.3214041" lon="12.9802707"><ele>255.66666666666669</ele><time>2026-04-12T15:02:26.823Z</time></trkpt><trkpt lat="43.3214449" lon="12.9805701"><ele>254.33333333333331</ele><time>2026-04-12T15:02:27.825Z</time></trkpt><trkpt lat="43.3214879" lon="12.9808435"><ele>253.0</ele><time>2026-04-12T15:02:28.812Z</time></trkpt><trkpt lat="43.3215271" lon="12.9810993"><ele>252.66666666666666</ele><time>2026-04-12T15:02:29.827Z</time></trkpt><trkpt lat="43.3215618" lon="12.9813356"><ele>252.33333333333331</ele><time>2026-04-12T15:02:30.822Z</time></trkpt><trkpt lat="43.3215901" lon="12.9815538"><ele>252.0</ele><time>2026-04-12T15:02:31.826Z</time></trkpt><trkpt lat="43.3216196" lon="12.9817628"><ele>253.25</ele><time>2026-04-12T15:02:32.828Z</time></trkpt><trkpt lat="43.3216465" lon="12.9819567"><ele>254.5</ele><time>2026-04-12T15:02:33.818Z</time></trkpt><trkpt lat="43.3216564" lon="12.9821523"><ele>255.75</ele><time>2026-04-12T15:02:34.822Z</time></trkpt><trkpt lat="43.3216453" lon="12.9823455"><ele>257.0</ele><time>2026-04-12T15:02:35.816Z</time></trkpt><trkpt lat="43.3215993" lon="12.982551"><ele>260.33333333333337</ele><time>2026-04-12T15:02:36.824Z</time></trkpt><trkpt lat="43.3215413" lon="12.9827488"><ele>263.6666666666667</ele><time>2026-04-12T15:02:37.828Z</time></trkpt><trkpt lat="43.3214768" lon="12.982952"><ele>267.0</ele><time>2026-04-12T15:02:38.816Z</time></trkpt><trkpt lat="43.3213992" lon="12.9831548"><ele>269.0</ele><time>2026-04-12T15:02:39.827Z</time></trkpt><trkpt lat="43.3213063" lon="12.9833564"><ele>271.0</ele><time>2026-04-12T15:02:40.83Z</time></trkpt><trkpt lat="43.3212052" lon="12.9835554"><ele>273.0</ele><time>2026-04-12T15:02:41.814Z</time></trkpt><trkpt lat="43.3211016" lon="12.9837642"><ele>273.0</ele><time>2026-04-12T15:02:42.823Z</time></trkpt><trkpt lat="43.3209931" lon="12.9839729"><ele>273.0</ele><time>2026-04-12T15:02:43.822Z</time></trkpt><trkpt lat="43.3208874" lon="12.9841797"><ele>273.0</ele><time>2026-04-12T15:02:44.824Z</time></trkpt><trkpt lat="43.3207974" lon="12.984378"><ele>272.75</ele><time>2026-04-12T15:02:45.819Z</time></trkpt><trkpt lat="43.3207176" lon="12.9845499"><ele>272.5</ele><time>2026-04-12T15:02:46.808Z</time></trkpt><trkpt lat="43.3206456" lon="12.9846989"><ele>272.25</ele><time>2026-04-12T15:02:47.816Z</time></trkpt><trkpt lat="43.3205862" lon="12.9848397"><ele>272.0</ele><time>2026-04-12T15:02:48.822Z</time></trkpt><trkpt lat="43.3205345" lon="12.9849846"><ele>272.1666666666667</ele><time>2026-04-12T15:02:49.817Z</time></trkpt><trkpt lat="43.3205" lon="12.9851073"><ele>272.33333333333337</ele><time>2026-04-12T15:02:50.819Z</time></trkpt><trkpt lat="43.3204913" lon="12.9852179"><ele>272.5</ele><time>2026-04-12T15:02:51.824Z</time></trkpt><trkpt lat="43.3204906" lon="12.9853145"><ele>272.6666666666667</ele><time>2026-04-12T15:02:52.801Z</time></trkpt><trkpt lat="43.3204956" lon="12.9854191"><ele>272.8333333333333</ele><time>2026-04-12T15:02:54.823Z</time></trkpt><trkpt lat="43.3205665" lon="12.9854746"><ele>273.0</ele><time>2026-04-12T15:02:57.818Z</time></trkpt><trkpt lat="43.3206387" lon="12.9854891"><ele>273.0</ele><time>2026-04-12T15:02:58.822Z</time></trkpt><trkpt lat="43.3207387" lon="12.9854985"><ele>273.0</ele><time>2026-04-12T15:02:59.804Z</time></trkpt><trkpt lat="43.3208621" lon="12.9855114"><ele>273.0</ele><time>2026-04-12T15:03:00.814Z</time></trkpt><trkpt lat="43.3209938" lon="12.9855363"><ele>273.0</ele><time>2026-04-12T15:03:01.826Z</time></trkpt><trkpt lat="43.3211323" lon="12.985562"><ele>273.0</ele><time>2026-04-12T15:03:02.81Z</time></trkpt><trkpt lat="43.3212792" lon="12.9855906"><ele>273.0</ele><time>2026-04-12T15:03:03.824Z</time></trkpt><trkpt lat="43.3214272" lon="12.9856211"><ele>273.0</ele><time>2026-04-12T15:03:04.823Z</time></trkpt><trkpt lat="43.3215677" lon="12.9856767"><ele>273.0</ele><time>2026-04-12T15:03:05.821Z</time></trkpt><trkpt lat="43.3217046" lon="12.9857581"><ele>272.5</ele><time>2026-04-12T15:03:06.821Z</time></trkpt><trkpt lat="43.3218202" lon="12.9858709"><ele>272.0</ele><time>2026-04-12T15:03:07.825Z</time></trkpt><trkpt lat="43.3219363" lon="12.985979"><ele>271.5</ele><time>2026-04-12T15:03:08.831Z</time></trkpt><trkpt lat="43.3220436" lon="12.9860899"><ele>271.0</ele><time>2026-04-12T15:03:09.833Z</time></trkpt><trkpt lat="43.3221353" lon="12.9861863"><ele>271.0</ele><time>2026-04-12T15:03:10.828Z</time></trkpt><trkpt lat="43.3222261" lon="12.9862653"><ele>271.0</ele><time>2026-04-12T15:03:11.846Z</time></trkpt><trkpt lat="43.322314" lon="12.9863479"><ele>271.0</ele><time>2026-04-12T15:03:12.818Z</time></trkpt><trkpt lat="43.3224034" lon="12.9864314"><ele>271.0</ele><time>2026-04-12T15:03:13.829Z</time></trkpt><trkpt lat="43.3224907" lon="12.986524"><ele>271.0</ele><time>2026-04-12T15:03:14.823Z</time></trkpt><trkpt lat="43.3225797" lon="12.9866155"><ele>271.25</ele><time>2026-04-12T15:03:15.819Z</time></trkpt><trkpt lat="43.3226716" lon="12.9867021"><ele>271.5</ele><time>2026-04-12T15:03:16.813Z</time></trkpt><trkpt lat="43.3227618" lon="12.986796"><ele>271.75</ele><time>2026-04-12T15:03:17.822Z</time></trkpt><trkpt lat="43.3228529" lon="12.986887"><ele>272.0</ele><time>2026-04-12T15:03:18.824Z</time></trkpt><trkpt lat="43.3229444" lon="12.9869815"><ele>272.0</ele><time>2026-04-12T15:03:19.829Z</time></trkpt><trkpt lat="43.3230359" lon="12.987073"><ele>272.0</ele><time>2026-04-12T15:03:20.818Z</time></trkpt><trkpt lat="43.3231323" lon="12.987171"><ele>272.0</ele><time>2026-04-12T15:03:21.822Z</time></trkpt><trkpt lat="43.3232356" lon="12.9872708"><ele>272.0</ele><time>2026-04-12T15:03:22.812Z</time></trkpt><trkpt lat="43.323339" lon="12.9873715"><ele>271.25</ele><time>2026-04-12T15:03:23.82Z</time></trkpt><trkpt lat="43.3234394" lon="12.9874747"><ele>270.5</ele><time>2026-04-12T15:03:24.819Z</time></trkpt><trkpt lat="43.3235387" lon="12.9875715"><ele>269.75</ele><time>2026-04-12T15:03:25.816Z</time></trkpt><trkpt lat="43.3236293" lon="12.9876563"><ele>269.0</ele><time>2026-04-12T15:03:26.815Z</time></trkpt><trkpt lat="43.3237186" lon="12.9877425"><ele>268.75</ele><time>2026-04-12T15:03:27.824Z</time></trkpt><trkpt lat="43.3238112" lon="12.987833"><ele>268.5</ele><time>2026-04-12T15:03:28.822Z</time></trkpt><trkpt lat="43.3239103" lon="12.987927"><ele>268.25</ele><time>2026-04-12T15:03:29.816Z</time></trkpt><trkpt lat="43.324009" lon="12.9880235"><ele>268.0</ele><time>2026-04-12T15:03:30.822Z</time></trkpt><trkpt lat="43.3241126" lon="12.9881255"><ele>267.75</ele><time>2026-04-12T15:03:31.806Z</time></trkpt><trkpt lat="43.3242199" lon="12.9882419"><ele>267.5</ele><time>2026-04-12T15:03:32.818Z</time></trkpt><trkpt lat="43.3243247" lon="12.9883527"><ele>267.25</ele><time>2026-04-12T15:03:33.828Z</time></trkpt><trkpt lat="43.3244273" lon="12.9884711"><ele>267.0</ele><time>2026-04-12T15:03:34.835Z</time></trkpt><trkpt lat="43.3245394" lon="12.9885832"><ele>267.0</ele><time>2026-04-12T15:03:35.829Z</time></trkpt><trkpt lat="43.3246556" lon="12.9887053"><ele>267.0</ele><time>2026-04-12T15:03:36.827Z</time></trkpt><trkpt lat="43.3247728" lon="12.9888241"><ele>267.0</ele><time>2026-04-12T15:03:37.824Z</time></trkpt><trkpt lat="43.3248908" lon="12.9889404"><ele>267.0</ele><time>2026-04-12T15:03:38.849Z</time></trkpt><trkpt lat="43.3250058" lon="12.9890643"><ele>266.0</ele><time>2026-04-12T15:03:39.815Z</time></trkpt><trkpt lat="43.3251198" lon="12.9891768"><ele>265.0</ele><time>2026-04-12T15:03:40.834Z</time></trkpt><trkpt lat="43.325239" lon="12.9892953"><ele>264.0</ele><time>2026-04-12T15:03:41.826Z</time></trkpt><trkpt lat="43.3253586" lon="12.9894105"><ele>263.0</ele><time>2026-04-12T15:03:42.826Z</time></trkpt><trkpt lat="43.3254793" lon="12.9895213"><ele>262.0</ele><time>2026-04-12T15:03:43.817Z</time></trkpt><trkpt lat="43.3255956" lon="12.9896425"><ele>261.0</ele><time>2026-04-12T15:03:44.823Z</time></trkpt><trkpt lat="43.3257164" lon="12.9897674"><ele>260.0</ele><time>2026-04-12T15:03:45.828Z</time></trkpt><trkpt lat="43.325843" lon="12.9898941"><ele>260.33333333333337</ele><time>2026-04-12T15:03:46.821Z</time></trkpt><trkpt lat="43.3259709" lon="12.9900208"><ele>260.6666666666667</ele><time>2026-04-12T15:03:47.811Z</time></trkpt><trkpt lat="43.3261016" lon="12.9901481"><ele>261.0</ele><time>2026-04-12T15:03:48.822Z</time></trkpt><trkpt lat="43.3262331" lon="12.9902738"><ele>261.0</ele><time>2026-04-12T15:03:49.817Z</time></trkpt><trkpt lat="43.3263654" lon="12.990406"><ele>261.0</ele><time>2026-04-12T15:03:50.814Z</time></trkpt><trkpt lat="43.3265016" lon="12.9905343"><ele>261.0</ele><time>2026-04-12T15:03:51.819Z</time></trkpt><trkpt lat="43.3266353" lon="12.9906643"><ele>261.0</ele><time>2026-04-12T15:03:52.813Z</time></trkpt><trkpt lat="43.3267706" lon="12.990797"><ele>261.0</ele><time>2026-04-12T15:03:53.828Z</time></trkpt><trkpt lat="43.3269023" lon="12.9909277"><ele>261.0</ele><time>2026-04-12T15:03:54.83Z</time></trkpt><trkpt lat="43.3270353" lon="12.9910621"><ele>261.0</ele><time>2026-04-12T15:03:55.833Z</time></trkpt><trkpt lat="43.3271706" lon="12.9911921"><ele>261.0</ele><time>2026-04-12T15:03:56.812Z</time></trkpt><trkpt lat="43.3272994" lon="12.9913201"><ele>261.0</ele><time>2026-04-12T15:03:57.82Z</time></trkpt><trkpt lat="43.3274211" lon="12.991443"><ele>261.0</ele><time>2026-04-12T15:03:58.811Z</time></trkpt><trkpt lat="43.3275404" lon="12.9915713"><ele>261.0</ele><time>2026-04-12T15:03:59.815Z</time></trkpt><trkpt lat="43.3276624" lon="12.9917021"><ele>261.0</ele><time>2026-04-12T15:04:00.816Z</time></trkpt><trkpt lat="43.3277785" lon="12.991818"><ele>260.75</ele><time>2026-04-12T15:04:01.809Z</time></trkpt><trkpt lat="43.3278912" lon="12.9919341"><ele>260.5</ele><time>2026-04-12T15:04:02.811Z</time></trkpt><trkpt lat="43.3280051" lon="12.9920497"><ele>260.25</ele><time>2026-04-12T15:04:03.809Z</time></trkpt><trkpt lat="43.3281287" lon="12.9921631"><ele>260.0</ele><time>2026-04-12T15:04:04.823Z</time></trkpt><trkpt lat="43.3282631" lon="12.992293"><ele>260.0</ele><time>2026-04-12T15:04:05.814Z</time></trkpt><trkpt lat="43.3284077" lon="12.9924201"><ele>260.0</ele><time>2026-04-12T15:04:06.818Z</time></trkpt><trkpt lat="43.3285581" lon="12.9925692"><ele>260.0</ele><time>2026-04-12T15:04:07.817Z</time></trkpt><trkpt lat="43.3287157" lon="12.9927262"><ele>260.5</ele><time>2026-04-12T15:04:08.829Z</time></trkpt><trkpt lat="43.3288902" lon="12.9928986"><ele>261.0</ele><time>2026-04-12T15:04:09.821Z</time></trkpt><trkpt lat="43.3290872" lon="12.9930956"><ele>259.0</ele><time>2026-04-12T15:04:10.828Z</time></trkpt><trkpt lat="43.3292969" lon="12.9933136"><ele>257.0</ele><time>2026-04-12T15:04:11.82Z</time></trkpt><trkpt lat="43.3295168" lon="12.9935485"><ele>256.0</ele><time>2026-04-12T15:04:12.828Z</time></trkpt><trkpt lat="43.3297492" lon="12.9937802"><ele>255.0</ele><time>2026-04-12T15:04:13.822Z</time></trkpt><trkpt lat="43.3299814" lon="12.9940199"><ele>255.0</ele><time>2026-04-12T15:04:14.827Z</time></trkpt><trkpt lat="43.3302089" lon="12.9942445"><ele>255.0</ele><time>2026-04-12T15:04:15.816Z</time></trkpt><trkpt lat="43.3304248" lon="12.9944544"><ele>254.0</ele><time>2026-04-12T15:04:16.83Z</time></trkpt><trkpt lat="43.3306317" lon="12.9946617"><ele>253.0</ele><time>2026-04-12T15:04:17.818Z</time></trkpt><trkpt lat="43.3308352" lon="12.9948658"><ele>253.0</ele><time>2026-04-12T15:04:18.824Z</time></trkpt><trkpt lat="43.3310313" lon="12.9950605"><ele>253.0</ele><time>2026-04-12T15:04:19.825Z</time></trkpt><trkpt lat="43.3312199" lon="12.9952435"><ele>253.0</ele><time>2026-04-12T15:04:20.813Z</time></trkpt><trkpt lat="43.3313986" lon="12.9954194"><ele>253.0</ele><time>2026-04-12T15:04:21.812Z</time></trkpt><trkpt lat="43.3315692" lon="12.9955892"><ele>253.0</ele><time>2026-04-12T15:04:22.814Z</time></trkpt><trkpt lat="43.3317261" lon="12.9957486"><ele>254.0</ele><time>2026-04-12T15:04:23.818Z</time></trkpt><trkpt lat="43.3318755" lon="12.9959025"><ele>255.0</ele><time>2026-04-12T15:04:24.819Z</time></trkpt><trkpt lat="43.3320239" lon="12.996042"><ele>256.0</ele><time>2026-04-12T15:04:25.812Z</time></trkpt><trkpt lat="43.3321814" lon="12.9961863"><ele>256.0</ele><time>2026-04-12T15:04:26.813Z</time></trkpt><trkpt lat="43.3323548" lon="12.9963515"><ele>256.0</ele><time>2026-04-12T15:04:27.817Z</time></trkpt><trkpt lat="43.332529" lon="12.9965282"><ele>256.0</ele><time>2026-04-12T15:04:28.817Z</time></trkpt><trkpt lat="43.3327097" lon="12.9967175"><ele>256.0</ele><time>2026-04-12T15:04:29.813Z</time></trkpt><trkpt lat="43.332908" lon="12.9969243"><ele>256.0</ele><time>2026-04-12T15:04:30.823Z</time></trkpt><trkpt lat="43.3331156" lon="12.9971418"><ele>256.0</ele><time>2026-04-12T15:04:31.81Z</time></trkpt><trkpt lat="43.3333362" lon="12.9973604"><ele>256.0</ele><time>2026-04-12T15:04:32.81Z</time></trkpt><trkpt lat="43.3335691" lon="12.9975826"><ele>256.0</ele><time>2026-04-12T15:04:33.818Z</time></trkpt><trkpt lat="43.3338065" lon="12.997801"><ele>256.0</ele><time>2026-04-12T15:04:34.813Z</time></trkpt><trkpt lat="43.3340554" lon="12.9980076"><ele>254.5</ele><time>2026-04-12T15:04:35.814Z</time></trkpt><trkpt lat="43.3343116" lon="12.9981995"><ele>253.0</ele><time>2026-04-12T15:04:36.824Z</time></trkpt><trkpt lat="43.3345709" lon="12.9983757"><ele>256.0</ele><time>2026-04-12T15:04:37.825Z</time></trkpt><trkpt lat="43.3348433" lon="12.9985466"><ele>259.0</ele><time>2026-04-12T15:04:38.812Z</time></trkpt><trkpt lat="43.3351155" lon="12.9986865"><ele>259.0</ele><time>2026-04-12T15:04:39.814Z</time></trkpt><trkpt lat="43.3353944" lon="12.9988056"><ele>259.0</ele><time>2026-04-12T15:04:40.817Z</time></trkpt><trkpt lat="43.3356802" lon="12.9989109"><ele>256.5</ele><time>2026-04-12T15:04:41.826Z</time></trkpt><trkpt lat="43.3359674" lon="12.9989921"><ele>254.0</ele><time>2026-04-12T15:04:42.813Z</time></trkpt><trkpt lat="43.3362554" lon="12.9990485"><ele>252.0</ele><time>2026-04-12T15:04:43.822Z</time></trkpt><trkpt lat="43.336543" lon="12.9990904"><ele>250.0</ele><time>2026-04-12T15:04:44.827Z</time></trkpt><trkpt lat="43.3368328" lon="12.9991078"><ele>250.0</ele><time>2026-04-12T15:04:45.827Z</time></trkpt><trkpt lat="43.3371199" lon="12.9990958"><ele>250.0</ele><time>2026-04-12T15:04:46.819Z</time></trkpt><trkpt lat="43.337411" lon="12.9990829"><ele>249.5</ele><time>2026-04-12T15:04:47.829Z</time></trkpt><trkpt lat="43.3377056" lon="12.9990569"><ele>249.0</ele><time>2026-04-12T15:04:48.81Z</time></trkpt><trkpt lat="43.3380021" lon="12.9990206"><ele>250.0</ele><time>2026-04-12T15:04:49.818Z</time></trkpt><trkpt lat="43.3383004" lon="12.9989784"><ele>251.0</ele><time>2026-04-12T15:04:50.825Z</time></trkpt><trkpt lat="43.3385956" lon="12.9989429"><ele>252.0</ele><time>2026-04-12T15:04:51.819Z</time></trkpt><trkpt lat="43.3388944" lon="12.9989021"><ele>253.0</ele><time>2026-04-12T15:04:52.827Z</time></trkpt><trkpt lat="43.3391906" lon="12.9988626"><ele>253.0</ele><time>2026-04-12T15:04:53.831Z</time></trkpt><trkpt lat="43.3394881" lon="12.9988291"><ele>253.0</ele><time>2026-04-12T15:04:54.818Z</time></trkpt><trkpt lat="43.339785" lon="12.9987961"><ele>253.5</ele><time>2026-04-12T15:04:55.823Z</time></trkpt><trkpt lat="43.3400836" lon="12.9987627"><ele>254.0</ele><time>2026-04-12T15:04:56.811Z</time></trkpt><trkpt lat="43.3403812" lon="12.9987244"><ele>253.5</ele><time>2026-04-12T15:04:57.812Z</time></trkpt><trkpt lat="43.3406819" lon="12.9986866"><ele>253.0</ele><time>2026-04-12T15:04:58.824Z</time></trkpt><trkpt lat="43.3409788" lon="12.9986457"><ele>253.0</ele><time>2026-04-12T15:04:59.806Z</time></trkpt><trkpt lat="43.341269" lon="12.9986068"><ele>253.0</ele><time>2026-04-12T15:05:00.815Z</time></trkpt><trkpt lat="43.3415414" lon="12.9985698"><ele>254.0</ele><time>2026-04-12T15:05:01.823Z</time></trkpt><trkpt lat="43.341807" lon="12.9985352"><ele>255.0</ele><time>2026-04-12T15:05:02.812Z</time></trkpt><trkpt lat="43.3420637" lon="12.998501"><ele>254.0</ele><time>2026-04-12T15:05:03.83Z</time></trkpt><trkpt lat="43.342319" lon="12.9984674"><ele>253.0</ele><time>2026-04-12T15:05:04.823Z</time></trkpt><trkpt lat="43.3425779" lon="12.9984384"><ele>253.0</ele><time>2026-04-12T15:05:05.828Z</time></trkpt><trkpt lat="43.3428324" lon="12.9984089"><ele>253.0</ele><time>2026-04-12T15:05:06.81Z</time></trkpt><trkpt lat="43.3430826" lon="12.9983744"><ele>252.0</ele><time>2026-04-12T15:05:07.811Z</time></trkpt><trkpt lat="43.3433211" lon="12.998344"><ele>251.0</ele><time>2026-04-12T15:05:08.819Z</time></trkpt><trkpt lat="43.343548" lon="12.9983156"><ele>248.33333333333334</ele><time>2026-04-12T15:05:09.817Z</time></trkpt><trkpt lat="43.343765" lon="12.9982909"><ele>245.66666666666669</ele><time>2026-04-12T15:05:10.82Z</time></trkpt><trkpt lat="43.3439723" lon="12.9982603"><ele>243.0</ele><time>2026-04-12T15:05:11.817Z</time></trkpt><trkpt lat="43.3441778" lon="12.9982295"><ele>242.33333333333331</ele><time>2026-04-12T15:05:12.827Z</time></trkpt><trkpt lat="43.3443818" lon="12.9982026"><ele>241.66666666666666</ele><time>2026-04-12T15:05:13.818Z</time></trkpt><trkpt lat="43.3445791" lon="12.9981756"><ele>241.0</ele><time>2026-04-12T15:05:14.82Z</time></trkpt><trkpt lat="43.3447714" lon="12.9981396"><ele>240.66666666666666</ele><time>2026-04-12T15:05:15.826Z</time></trkpt><trkpt lat="43.3449545" lon="12.9980913"><ele>240.33333333333331</ele><time>2026-04-12T15:05:16.816Z</time></trkpt><trkpt lat="43.3451352" lon="12.9980182"><ele>240.0</ele><time>2026-04-12T15:05:17.827Z</time></trkpt><trkpt lat="43.3453148" lon="12.9979052"><ele>240.0</ele><time>2026-04-12T15:05:18.812Z</time></trkpt><trkpt lat="43.3454676" lon="12.9977739"><ele>240.0</ele><time>2026-04-12T15:05:19.815Z</time></trkpt><trkpt lat="43.3455966" lon="12.9976204"><ele>240.0</ele><time>2026-04-12T15:05:20.816Z</time></trkpt><trkpt lat="43.3457111" lon="12.9974681"><ele>239.75</ele><time>2026-04-12T15:05:21.813Z</time></trkpt><trkpt lat="43.3458194" lon="12.9973265"><ele>239.5</ele><time>2026-04-12T15:05:22.814Z</time></trkpt><trkpt lat="43.3459226" lon="12.9972191"><ele>239.25</ele><time>2026-04-12T15:05:23.82Z</time></trkpt><trkpt lat="43.3460393" lon="12.9971731"><ele>239.0</ele><time>2026-04-12T15:05:24.826Z</time></trkpt><trkpt lat="43.3461653" lon="12.9971906"><ele>239.0</ele><time>2026-04-12T15:05:25.813Z</time></trkpt><trkpt lat="43.3462714" lon="12.9972961"><ele>239.0</ele><time>2026-04-12T15:05:26.815Z</time></trkpt><trkpt lat="43.3463763" lon="12.9974344"><ele>239.0</ele><time>2026-04-12T15:05:27.819Z</time></trkpt><trkpt lat="43.3464764" lon="12.9976336"><ele>239.66666666666669</ele><time>2026-04-12T15:05:28.812Z</time></trkpt><trkpt lat="43.3465974" lon="12.9978438"><ele>240.33333333333331</ele><time>2026-04-12T15:05:29.818Z</time></trkpt><trkpt lat="43.3467216" lon="12.9980579"><ele>241.0</ele><time>2026-04-12T15:05:30.813Z</time></trkpt><trkpt lat="43.3468349" lon="12.998253"><ele>242.0</ele><time>2026-04-12T15:05:31.821Z</time></trkpt><trkpt lat="43.3469349" lon="12.9984246"><ele>243.0</ele><time>2026-04-12T15:05:32.818Z</time></trkpt><trkpt lat="43.3470232" lon="12.9985927"><ele>244.0</ele><time>2026-04-12T15:05:33.814Z</time></trkpt><trkpt lat="43.3471064" lon="12.9987373"><ele>245.0</ele><time>2026-04-12T15:05:34.83Z</time></trkpt><trkpt lat="43.347177" lon="12.99888"><ele>244.0</ele><time>2026-04-12T15:05:35.81Z</time></trkpt><trkpt lat="43.3472557" lon="12.9990289"><ele>243.0</ele><time>2026-04-12T15:05:36.815Z</time></trkpt><trkpt lat="43.3473387" lon="12.999176"><ele>242.0</ele><time>2026-04-12T15:05:37.807Z</time></trkpt><trkpt lat="43.3474243" lon="12.9993315"><ele>241.0</ele><time>2026-04-12T15:05:38.812Z</time></trkpt><trkpt lat="43.3475181" lon="12.9994977"><ele>241.0</ele><time>2026-04-12T15:05:39.813Z</time></trkpt><trkpt lat="43.3476188" lon="12.9996681"><ele>241.0</ele><time>2026-04-12T15:05:40.814Z</time></trkpt><trkpt lat="43.347724" lon="12.9998534"><ele>241.0</ele><time>2026-04-12T15:05:41.81Z</time></trkpt><trkpt lat="43.3478394" lon="13.0000512"><ele>241.0</ele><time>2026-04-12T15:05:42.808Z</time></trkpt><trkpt lat="43.3479623" lon="13.0002695"><ele>241.0</ele><time>2026-04-12T15:05:43.823Z</time></trkpt><trkpt lat="43.3480848" lon="13.0004988"><ele>241.0</ele><time>2026-04-12T15:05:44.813Z</time></trkpt><trkpt lat="43.3482079" lon="13.0007378"><ele>240.33333333333331</ele><time>2026-04-12T15:05:45.807Z</time></trkpt><trkpt lat="43.3483314" lon="13.00099"><ele>239.66666666666669</ele><time>2026-04-12T15:05:46.814Z</time></trkpt><trkpt lat="43.348459" lon="13.0012405"><ele>239.0</ele><time>2026-04-12T15:05:47.817Z</time></trkpt><trkpt lat="43.3485961" lon="13.0014844"><ele>239.0</ele><time>2026-04-12T15:05:48.811Z</time></trkpt><trkpt lat="43.3487352" lon="13.0017147"><ele>239.0</ele><time>2026-04-12T15:05:49.817Z</time></trkpt><trkpt lat="43.3488733" lon="13.0019129"><ele>239.0</ele><time>2026-04-12T15:05:50.815Z</time></trkpt><trkpt lat="43.3490249" lon="13.0020722"><ele>239.33333333333334</ele><time>2026-04-12T15:05:51.807Z</time></trkpt><trkpt lat="43.3491954" lon="13.0021763"><ele>239.66666666666669</ele><time>2026-04-12T15:05:52.818Z</time></trkpt><trkpt lat="43.3493815" lon="13.0022383"><ele>240.0</ele><time>2026-04-12T15:05:53.819Z</time></trkpt><trkpt lat="43.3495951" lon="13.002247"><ele>239.0</ele><time>2026-04-12T15:05:54.814Z</time></trkpt><trkpt lat="43.3498237" lon="13.0022322"><ele>238.0</ele><time>2026-04-12T15:05:55.811Z</time></trkpt><trkpt lat="43.350071" lon="13.0021983"><ele>238.0</ele><time>2026-04-12T15:05:56.808Z</time></trkpt><trkpt lat="43.3503333" lon="13.0021487"><ele>238.0</ele><time>2026-04-12T15:05:57.816Z</time></trkpt><trkpt lat="43.3506077" lon="13.00209"><ele>237.0</ele><time>2026-04-12T15:05:58.816Z</time></trkpt><trkpt lat="43.3508934" lon="13.0020235"><ele>236.0</ele><time>2026-04-12T15:05:59.815Z</time></trkpt><trkpt lat="43.3511833" lon="13.0019374"><ele>234.5</ele><time>2026-04-12T15:06:00.809Z</time></trkpt><trkpt lat="43.3514731" lon="13.0018423"><ele>233.0</ele><time>2026-04-12T15:06:01.831Z</time></trkpt><trkpt lat="43.3517599" lon="13.001748"><ele>231.5</ele><time>2026-04-12T15:06:02.813Z</time></trkpt><trkpt lat="43.3520477" lon="13.0016502"><ele>230.0</ele><time>2026-04-12T15:06:03.811Z</time></trkpt><trkpt lat="43.3523326" lon="13.0015522"><ele>230.0</ele><time>2026-04-12T15:06:04.816Z</time></trkpt><trkpt lat="43.3526153" lon="13.0014489"><ele>230.0</ele><time>2026-04-12T15:06:05.801Z</time></trkpt><trkpt lat="43.3528864" lon="13.0013486"><ele>229.5</ele><time>2026-04-12T15:06:06.815Z</time></trkpt><trkpt lat="43.3531505" lon="13.0012599"><ele>229.0</ele><time>2026-04-12T15:06:07.823Z</time></trkpt><trkpt lat="43.3533991" lon="13.0011887"><ele>229.0</ele><time>2026-04-12T15:06:08.817Z</time></trkpt><trkpt lat="43.353626" lon="13.0011117"><ele>229.0</ele><time>2026-04-12T15:06:09.822Z</time></trkpt><trkpt lat="43.3538391" lon="13.001042"><ele>228.66666666666666</ele><time>2026-04-12T15:06:10.81Z</time></trkpt><trkpt lat="43.3540276" lon="13.0009737"><ele>228.33333333333331</ele><time>2026-04-12T15:06:11.809Z</time></trkpt><trkpt lat="43.354196" lon="13.0009048"><ele>228.0</ele><time>2026-04-12T15:06:12.829Z</time></trkpt><trkpt lat="43.3543492" lon="13.0008274"><ele>228.0</ele><time>2026-04-12T15:06:13.811Z</time></trkpt><trkpt lat="43.3544864" lon="13.0007643"><ele>228.0</ele><time>2026-04-12T15:06:14.81Z</time></trkpt><trkpt lat="43.3546135" lon="13.0006914"><ele>228.0</ele><time>2026-04-12T15:06:15.817Z</time></trkpt><trkpt lat="43.3547421" lon="13.0005955"><ele>228.0</ele><time>2026-04-12T15:06:16.806Z</time></trkpt><trkpt lat="43.3548731" lon="13.0004599"><ele>228.66666666666669</ele><time>2026-04-12T15:06:17.814Z</time></trkpt><trkpt lat="43.3550105" lon="13.0003249"><ele>229.33333333333334</ele><time>2026-04-12T15:06:18.819Z</time></trkpt><trkpt lat="43.3551662" lon="13.0002187"><ele>230.0</ele><time>2026-04-12T15:06:19.813Z</time></trkpt><trkpt lat="43.3553561" lon="13.0001308"><ele>234.33333333333334</ele><time>2026-04-12T15:06:20.817Z</time></trkpt><trkpt lat="43.3555598" lon="13.0000324"><ele>238.66666666666669</ele><time>2026-04-12T15:06:21.819Z</time></trkpt><trkpt lat="43.3557642" lon="12.9999219"><ele>243.0</ele><time>2026-04-12T15:06:22.809Z</time></trkpt><trkpt lat="43.3559733" lon="12.9998012"><ele>243.0</ele><time>2026-04-12T15:06:23.813Z</time></trkpt><trkpt lat="43.356195" lon="12.9996751"><ele>243.0</ele><time>2026-04-12T15:06:24.811Z</time></trkpt><trkpt lat="43.3564224" lon="12.999534"><ele>247.5</ele><time>2026-04-12T15:06:25.82Z</time></trkpt><trkpt lat="43.3566384" lon="12.9993977"><ele>252.0</ele><time>2026-04-12T15:06:26.816Z</time></trkpt><trkpt lat="43.3568366" lon="12.9992716"><ele>246.66666666666669</ele><time>2026-04-12T15:06:27.814Z</time></trkpt><trkpt lat="43.3570248" lon="12.99915"><ele>241.33333333333334</ele><time>2026-04-12T15:06:28.807Z</time></trkpt><trkpt lat="43.3572041" lon="12.9990181"><ele>236.0</ele><time>2026-04-12T15:06:29.808Z</time></trkpt><trkpt lat="43.3573709" lon="12.9988662"><ele>236.0</ele><time>2026-04-12T15:06:30.809Z</time></trkpt><trkpt lat="43.3575231" lon="12.9987114"><ele>236.0</ele><time>2026-04-12T15:06:31.805Z</time></trkpt><trkpt lat="43.3576676" lon="12.998569"><ele>236.0</ele><time>2026-04-12T15:06:32.809Z</time></trkpt><trkpt lat="43.3578053" lon="12.9984235"><ele>234.66666666666669</ele><time>2026-04-12T15:06:33.806Z</time></trkpt><trkpt lat="43.3579349" lon="12.9982753"><ele>233.33333333333331</ele><time>2026-04-12T15:06:34.815Z</time></trkpt><trkpt lat="43.3580353" lon="12.9980863"><ele>232.0</ele><time>2026-04-12T15:06:35.81Z</time></trkpt><trkpt lat="43.3581113" lon="12.9978798"><ele>232.0</ele><time>2026-04-12T15:06:36.81Z</time></trkpt><trkpt lat="43.3582135" lon="12.9976972"><ele>232.0</ele><time>2026-04-12T15:06:37.813Z</time></trkpt><trkpt lat="43.3583459" lon="12.9975482"><ele>232.0</ele><time>2026-04-12T15:06:38.815Z</time></trkpt><trkpt lat="43.3585007" lon="12.9974075"><ele>232.0</ele><time>2026-04-12T15:06:39.818Z</time></trkpt><trkpt lat="43.3586775" lon="12.9972631"><ele>232.0</ele><time>2026-04-12T15:06:40.813Z</time></trkpt><trkpt lat="43.358868" lon="12.9971174"><ele>232.0</ele><time>2026-04-12T15:06:41.818Z</time></trkpt><trkpt lat="43.3590746" lon="12.9969695"><ele>232.0</ele><time>2026-04-12T15:06:42.826Z</time></trkpt><trkpt lat="43.3592958" lon="12.9968221"><ele>232.0</ele><time>2026-04-12T15:06:43.814Z</time></trkpt><trkpt lat="43.359531" lon="12.9966804"><ele>228.0</ele><time>2026-04-12T15:06:44.817Z</time></trkpt><trkpt lat="43.3597815" lon="12.9965517"><ele>224.0</ele><time>2026-04-12T15:06:45.814Z</time></trkpt><trkpt lat="43.3600389" lon="12.9964179"><ele>224.0</ele><time>2026-04-12T15:06:46.818Z</time></trkpt><trkpt lat="43.3602992" lon="12.9962865"><ele>224.0</ele><time>2026-04-12T15:06:47.835Z</time></trkpt><trkpt lat="43.3605569" lon="12.9961586"><ele>227.0</ele><time>2026-04-12T15:06:48.834Z</time></trkpt><trkpt lat="43.3608373" lon="12.9960259"><ele>230.0</ele><time>2026-04-12T15:06:49.823Z</time></trkpt><trkpt lat="43.3611102" lon="12.9958886"><ele>227.0</ele><time>2026-04-12T15:06:50.81Z</time></trkpt><trkpt lat="43.3613876" lon="12.9957534"><ele>224.0</ele><time>2026-04-12T15:06:51.814Z</time></trkpt><trkpt lat="43.3616668" lon="12.9956138"><ele>224.0</ele><time>2026-04-12T15:06:52.828Z</time></trkpt><trkpt lat="43.3619537" lon="12.9954785"><ele>224.0</ele><time>2026-04-12T15:06:53.827Z</time></trkpt><trkpt lat="43.3622469" lon="12.9953417"><ele>224.5</ele><time>2026-04-12T15:06:54.816Z</time></trkpt><trkpt lat="43.3625369" lon="12.9952074"><ele>225.0</ele><time>2026-04-12T15:06:55.816Z</time></trkpt><trkpt lat="43.3628289" lon="12.995082"><ele>224.5</ele><time>2026-04-12T15:06:56.818Z</time></trkpt><trkpt lat="43.3631219" lon="12.9949554"><ele>224.0</ele><time>2026-04-12T15:06:57.818Z</time></trkpt><trkpt lat="43.3634141" lon="12.9948345"><ele>224.0</ele><time>2026-04-12T15:06:58.82Z</time></trkpt><trkpt lat="43.3637077" lon="12.9947066"><ele>224.0</ele><time>2026-04-12T15:06:59.818Z</time></trkpt><trkpt lat="43.3640023" lon="12.9945769"><ele>228.5</ele><time>2026-04-12T15:07:00.817Z</time></trkpt><trkpt lat="43.3643004" lon="12.9944432"><ele>233.0</ele><time>2026-04-12T15:07:01.816Z</time></trkpt><trkpt lat="43.3646016" lon="12.9943046"><ele>230.5</ele><time>2026-04-12T15:07:02.814Z</time></trkpt><trkpt lat="43.3649026" lon="12.9941627"><ele>228.0</ele><time>2026-04-12T15:07:03.818Z</time></trkpt><trkpt lat="43.3652093" lon="12.9940152"><ele>228.0</ele><time>2026-04-12T15:07:04.807Z</time></trkpt><trkpt lat="43.3655154" lon="12.9938666"><ele>228.0</ele><time>2026-04-12T15:07:05.816Z</time></trkpt><trkpt lat="43.3658253" lon="12.9937266"><ele>235.5</ele><time>2026-04-12T15:07:06.822Z</time></trkpt><trkpt lat="43.3661267" lon="12.993584"><ele>243.0</ele><time>2026-04-12T15:07:07.813Z</time></trkpt><trkpt lat="43.3664203" lon="12.9934426"><ele>233.5</ele><time>2026-04-12T15:07:08.809Z</time></trkpt><trkpt lat="43.3667101" lon="12.9933017"><ele>224.0</ele><time>2026-04-12T15:07:09.815Z</time></trkpt><trkpt lat="43.3669956" lon="12.9931658"><ele>232.5</ele><time>2026-04-12T15:07:10.815Z</time></trkpt><trkpt lat="43.3672822" lon="12.9930277"><ele>241.0</ele><time>2026-04-12T15:07:11.811Z</time></trkpt><trkpt lat="43.3675637" lon="12.9928891"><ele>241.0</ele><time>2026-04-12T15:07:12.808Z</time></trkpt><trkpt lat="43.3678395" lon="12.9927513"><ele>241.0</ele><time>2026-04-12T15:07:13.816Z</time></trkpt><trkpt lat="43.3681151" lon="12.9926113"><ele>234.0</ele><time>2026-04-12T15:07:14.811Z</time></trkpt><trkpt lat="43.3683809" lon="12.9924553"><ele>227.0</ele><time>2026-04-12T15:07:15.808Z</time></trkpt><trkpt lat="43.3686384" lon="12.9922898"><ele>234.5</ele><time>2026-04-12T15:07:16.817Z</time></trkpt><trkpt lat="43.3688864" lon="12.9921093"><ele>242.0</ele><time>2026-04-12T15:07:17.805Z</time></trkpt><trkpt lat="43.3691099" lon="12.9919248"><ele>242.0</ele><time>2026-04-12T15:07:18.805Z</time></trkpt><trkpt lat="43.3693139" lon="12.9917402"><ele>242.0</ele><time>2026-04-12T15:07:19.81Z</time></trkpt><trkpt lat="43.3695046" lon="12.9915492"><ele>239.5</ele><time>2026-04-12T15:07:20.813Z</time></trkpt><trkpt lat="43.369692" lon="12.9913542"><ele>237.0</ele><time>2026-04-12T15:07:21.822Z</time></trkpt><trkpt lat="43.3698809" lon="12.9911528"><ele>237.0</ele><time>2026-04-12T15:07:22.814Z</time></trkpt><trkpt lat="43.3700728" lon="12.9909484"><ele>237.0</ele><time>2026-04-12T15:07:23.808Z</time></trkpt><trkpt lat="43.3702634" lon="12.9907417"><ele>237.5</ele><time>2026-04-12T15:07:24.808Z</time></trkpt><trkpt lat="43.3704591" lon="12.9905328"><ele>238.0</ele><time>2026-04-12T15:07:25.82Z</time></trkpt><trkpt lat="43.3706582" lon="12.9903346"><ele>238.0</ele><time>2026-04-12T15:07:26.815Z</time></trkpt><trkpt lat="43.3708611" lon="12.990157"><ele>238.0</ele><time>2026-04-12T15:07:27.812Z</time></trkpt><trkpt lat="43.3710667" lon="12.9899937"><ele>240.5</ele><time>2026-04-12T15:07:28.819Z</time></trkpt><trkpt lat="43.3712772" lon="12.9898409"><ele>243.0</ele><time>2026-04-12T15:07:29.81Z</time></trkpt><trkpt lat="43.3714925" lon="12.989701"><ele>243.0</ele><time>2026-04-12T15:07:30.815Z</time></trkpt><trkpt lat="43.3717212" lon="12.9895664"><ele>243.0</ele><time>2026-04-12T15:07:31.807Z</time></trkpt><trkpt lat="43.3719537" lon="12.9894326"><ele>243.0</ele><time>2026-04-12T15:07:32.811Z</time></trkpt><trkpt lat="43.3721891" lon="12.989305"><ele>243.0</ele><time>2026-04-12T15:07:33.804Z</time></trkpt><trkpt lat="43.3830874" lon="12.9845545"><ele>248.33333333333331</ele><time>2026-04-12T15:08:26.81Z</time></trkpt><trkpt lat="43.3832844" lon="12.9844571"><ele>253.66666666666666</ele><time>2026-04-12T15:08:27.81Z</time></trkpt><trkpt lat="43.3834917" lon="12.9843588"><ele>259.0</ele><time>2026-04-12T15:08:28.811Z</time></trkpt><trkpt lat="43.383681" lon="12.9842714"><ele>257.0</ele><time>2026-04-12T15:08:29.806Z</time></trkpt><trkpt lat="43.3838702" lon="12.9841899"><ele>255.0</ele><time>2026-04-12T15:08:30.807Z</time></trkpt><trkpt lat="43.3840595" lon="12.9841083"><ele>253.0</ele><time>2026-04-12T15:08:31.808Z</time></trkpt><trkpt lat="43.3842379" lon="12.9840272"><ele>253.0</ele><time>2026-04-12T15:08:32.807Z</time></trkpt><trkpt lat="43.3844192" lon="12.9839452"><ele>253.0</ele><time>2026-04-12T15:08:33.812Z</time></trkpt><trkpt lat="43.3846" lon="12.9838547"><ele>253.0</ele><time>2026-04-12T15:08:34.802Z</time></trkpt><trkpt lat="43.3859114" lon="12.9833762"><ele>255.0</ele><time>2026-04-12T15:08:41.804Z</time></trkpt><trkpt lat="43.3861249" lon="12.983292"><ele>257.0</ele><time>2026-04-12T15:08:42.804Z</time></trkpt><trkpt lat="43.3863239" lon="12.9832194"><ele>259.0</ele><time>2026-04-12T15:08:43.8Z</time></trkpt><trkpt lat="43.38656" lon="12.9831371"><ele>261.0</ele><time>2026-04-12T15:08:44.807Z</time></trkpt><trkpt lat="43.3868074" lon="12.9830913"><ele>263.0</ele><time>2026-04-12T15:08:45.806Z</time></trkpt><trkpt lat="43.3870713" lon="12.983049"><ele>268.0</ele><time>2026-04-12T15:08:46.803Z</time></trkpt><trkpt lat="43.3873419" lon="12.9830256"><ele>273.0</ele><time>2026-04-12T15:08:47.81Z</time></trkpt><trkpt lat="43.3876205" lon="12.9830015"><ele>273.0</ele><time>2026-04-12T15:08:48.805Z</time></trkpt><trkpt lat="43.3879089" lon="12.9829853"><ele>273.0</ele><time>2026-04-12T15:08:49.805Z</time></trkpt><trkpt lat="43.3881908" lon="12.9829661"><ele>279.0</ele><time>2026-04-12T15:08:50.798Z</time></trkpt><trkpt lat="43.3951702" lon="12.983513"><ele>240.0</ele><time>2026-04-12T15:09:17.607Z</time></trkpt><trkpt lat="43.3955563" lon="12.982223"><ele>240.0</ele><time>2026-04-12T15:09:18.809Z</time></trkpt><trkpt lat="43.39575" lon="12.9822492"><ele>240.0</ele><time>2026-04-12T15:09:19.81Z</time></trkpt><trkpt lat="43.3959212" lon="12.9822549"><ele>240.0</ele><time>2026-04-12T15:09:20.812Z</time></trkpt><trkpt lat="43.3960905" lon="12.9822649"><ele>240.0</ele><time>2026-04-12T15:09:21.808Z</time></trkpt><trkpt lat="43.3962481" lon="12.9822781"><ele>240.0</ele><time>2026-04-12T15:09:22.818Z</time></trkpt><trkpt lat="43.396386" lon="12.9823008"><ele>240.0</ele><time>2026-04-12T15:09:23.808Z</time></trkpt><trkpt lat="43.3965156" lon="12.9823557"><ele>240.0</ele><time>2026-04-12T15:09:24.814Z</time></trkpt><trkpt lat="43.3966071" lon="12.982445"><ele>243.2</ele><time>2026-04-12T15:09:25.804Z</time></trkpt><trkpt lat="43.3966529" lon="12.9825504"><ele>246.4</ele><time>2026-04-12T15:09:26.803Z</time></trkpt><trkpt lat="43.3966554" lon="12.9826863"><ele>249.60000000000002</ele><time>2026-04-12T15:09:27.81Z</time></trkpt><trkpt lat="43.396616" lon="12.9828027"><ele>252.8</ele><time>2026-04-12T15:09:28.808Z</time></trkpt><trkpt lat="43.3965371" lon="12.9828876"><ele>256.0</ele><time>2026-04-12T15:09:29.81Z</time></trkpt><trkpt lat="43.3964505" lon="12.9829168"><ele>255.99999999999997</ele><time>2026-04-12T15:09:30.807Z</time></trkpt><trkpt lat="43.3963577" lon="12.9828726"><ele>256.0</ele><time>2026-04-12T15:09:31.815Z</time></trkpt><trkpt lat="43.3962744" lon="12.9828129"><ele>256.0</ele><time>2026-04-12T15:09:32.806Z</time></trkpt><trkpt lat="43.3961862" lon="12.9827832"><ele>256.0</ele><time>2026-04-12T15:09:33.811Z</time></trkpt><trkpt lat="43.3961019" lon="12.9828207"><ele>255.99999999999997</ele><time>2026-04-12T15:09:34.809Z</time></trkpt><trkpt lat="43.3960567" lon="12.9828984"><ele>256.0</ele><time>2026-04-12T15:09:35.814Z</time></trkpt><trkpt lat="43.3960325" lon="12.9830078"><ele>255.8</ele><time>2026-04-12T15:09:36.814Z</time></trkpt><trkpt lat="43.3960025" lon="12.9831291"><ele>255.60000000000002</ele><time>2026-04-12T15:09:37.807Z</time></trkpt><trkpt lat="43.3959546" lon="12.9832163"><ele>255.4</ele><time>2026-04-12T15:09:38.809Z</time></trkpt><trkpt lat="43.3958946" lon="12.9832461"><ele>255.2</ele><time>2026-04-12T15:09:39.804Z</time></trkpt><trkpt lat="43.395826" lon="12.9832197"><ele>255.0</ele><time>2026-04-12T15:09:40.817Z</time></trkpt><trkpt lat="43.395695" lon="12.9830694"><ele>255.0</ele><time>2026-04-12T15:09:41.814Z</time></trkpt><trkpt lat="43.3955397" lon="12.9829296"><ele>255.0</ele><time>2026-04-12T15:09:42.812Z</time></trkpt><trkpt lat="43.3953723" lon="12.9828185"><ele>255.0</ele><time>2026-04-12T15:09:43.808Z</time></trkpt><trkpt lat="43.3952234" lon="12.9827178"><ele>255.0</ele><time>2026-04-12T15:09:44.812Z</time></trkpt><trkpt lat="43.3951207" lon="12.9825962"><ele>255.0</ele><time>2026-04-12T15:09:45.815Z</time></trkpt><trkpt lat="43.3950307" lon="12.9824966"><ele>255.0</ele><time>2026-04-12T15:09:46.811Z</time></trkpt><trkpt lat="43.3949387" lon="12.9824716"><ele>255.0</ele><time>2026-04-12T15:09:47.811Z</time></trkpt><trkpt lat="43.3948682" lon="12.9824924"><ele>255.0</ele><time>2026-04-12T15:09:48.816Z</time></trkpt><trkpt lat="43.3947883" lon="12.9825675"><ele>257.4</ele><time>2026-04-12T15:09:50.808Z</time></trkpt><trkpt lat="43.3948353" lon="12.9826928"><ele>259.8</ele><time>2026-04-12T15:09:58.82Z</time></trkpt><trkpt lat="43.3949188" lon="12.9827279"><ele>262.2</ele><time>2026-04-12T15:09:59.814Z</time></trkpt><trkpt lat="43.3950165" lon="12.9827727"><ele>264.6</ele><time>2026-04-12T15:10:00.81Z</time></trkpt><trkpt lat="43.3951248" lon="12.982846"><ele>267.0</ele><time>2026-04-12T15:10:01.822Z</time></trkpt><trkpt lat="43.3952495" lon="12.9829416"><ele>267.0</ele><time>2026-04-12T15:10:02.814Z</time></trkpt><trkpt lat="43.395386" lon="12.9830589"><ele>267.0</ele><time>2026-04-12T15:10:03.809Z</time></trkpt><trkpt lat="43.3955246" lon="12.983178"><ele>267.0</ele><time>2026-04-12T15:10:04.81Z</time></trkpt><trkpt lat="43.3956839" lon="12.9832846"><ele>268.6666666666667</ele><time>2026-04-12T15:10:05.812Z</time></trkpt><trkpt lat="43.3958566" lon="12.9833654"><ele>270.33333333333337</ele><time>2026-04-12T15:10:06.808Z</time></trkpt><trkpt lat="43.3960429" lon="12.983385"><ele>272.0</ele><time>2026-04-12T15:10:07.805Z</time></trkpt><trkpt lat="43.3962333" lon="12.9833415"><ele>266.6666666666667</ele><time>2026-04-12T15:10:08.814Z</time></trkpt><trkpt lat="43.3964291" lon="12.9832958"><ele>261.3333333333333</ele><time>2026-04-12T15:10:09.819Z</time></trkpt><trkpt lat="43.3966307" lon="12.9832356"><ele>256.0</ele><time>2026-04-12T15:10:10.819Z</time></trkpt><trkpt lat="43.3968414" lon="12.9831656"><ele>256.0</ele><time>2026-04-12T15:10:11.82Z</time></trkpt><trkpt lat="43.3970559" lon="12.983095"><ele>256.0</ele><time>2026-04-12T15:10:12.815Z</time></trkpt><trkpt lat="43.3972636" lon="12.9830253"><ele>256.0</ele><time>2026-04-12T15:10:13.811Z</time></trkpt><trkpt lat="43.3974594" lon="12.982952"><ele>258.66666666666663</ele><time>2026-04-12T15:10:14.811Z</time></trkpt><trkpt lat="43.3976508" lon="12.9828787"><ele>261.3333333333333</ele><time>2026-04-12T15:10:15.816Z</time></trkpt><trkpt lat="43.3978461" lon="12.9828085"><ele>264.0</ele><time>2026-04-12T15:10:16.812Z</time></trkpt><trkpt lat="43.3980308" lon="12.9827443"><ele>265.0</ele><time>2026-04-12T15:10:17.808Z</time></trkpt><trkpt lat="43.3982023" lon="12.9826853"><ele>266.0</ele><time>2026-04-12T15:10:18.811Z</time></trkpt><trkpt lat="43.3983634" lon="12.9826307"><ele>267.0</ele><time>2026-04-12T15:10:19.808Z</time></trkpt><trkpt lat="43.3985153" lon="12.9825877"><ele>267.0</ele><time>2026-04-12T15:10:20.826Z</time></trkpt><trkpt lat="43.3986597" lon="12.9825451"><ele>267.0</ele><time>2026-04-12T15:10:21.814Z</time></trkpt><trkpt lat="43.3987886" lon="12.9824923"><ele>267.0</ele><time>2026-04-12T15:10:22.818Z</time></trkpt><trkpt lat="43.3989048" lon="12.9823987"><ele>267.0</ele><time>2026-04-12T15:10:23.817Z</time></trkpt><trkpt lat="43.3989915" lon="12.9822621"><ele>263.25</ele><time>2026-04-12T15:10:24.812Z</time></trkpt><trkpt lat="43.3990512" lon="12.9820842"><ele>259.5</ele><time>2026-04-12T15:10:25.81Z</time></trkpt><trkpt lat="43.3990918" lon="12.9818916"><ele>255.75</ele><time>2026-04-12T15:10:26.814Z</time></trkpt><trkpt lat="43.399137" lon="12.9816979"><ele>252.0</ele><time>2026-04-12T15:10:27.814Z</time></trkpt><trkpt lat="43.3992116" lon="12.9815103"><ele>246.66666666666669</ele><time>2026-04-12T15:10:28.816Z</time></trkpt><trkpt lat="43.3993264" lon="12.981345"><ele>241.33333333333334</ele><time>2026-04-12T15:10:29.812Z</time></trkpt><trkpt lat="43.3994859" lon="12.9812231"><ele>236.0</ele><time>2026-04-12T15:10:30.814Z</time></trkpt><trkpt lat="43.3996583" lon="12.9811176"><ele>236.33333333333334</ele><time>2026-04-12T15:10:31.819Z</time></trkpt><trkpt lat="43.3998359" lon="12.9810363"><ele>236.66666666666669</ele><time>2026-04-12T15:10:32.816Z</time></trkpt><trkpt lat="43.4000008" lon="12.9809522"><ele>237.0</ele><time>2026-04-12T15:10:33.824Z</time></trkpt><trkpt lat="43.4001572" lon="12.9808594"><ele>233.33333333333331</ele><time>2026-04-12T15:10:34.81Z</time></trkpt><trkpt lat="43.4003041" lon="12.9807746"><ele>229.66666666666666</ele><time>2026-04-12T15:10:35.817Z</time></trkpt><trkpt lat="43.400445" lon="12.9806885"><ele>226.0</ele><time>2026-04-12T15:10:36.824Z</time></trkpt><trkpt lat="43.4005818" lon="12.9806132"><ele>226.0</ele><time>2026-04-12T15:10:37.815Z</time></trkpt><trkpt lat="43.4007185" lon="12.9805413"><ele>226.0</ele><time>2026-04-12T15:10:38.815Z</time></trkpt><trkpt lat="43.4008645" lon="12.9804838"><ele>226.0</ele><time>2026-04-12T15:10:39.82Z</time></trkpt><trkpt lat="43.4010174" lon="12.9804291"><ele>226.0</ele><time>2026-04-12T15:10:40.823Z</time></trkpt><trkpt lat="43.4011759" lon="12.9803788"><ele>226.0</ele><time>2026-04-12T15:10:41.82Z</time></trkpt><trkpt lat="43.4013342" lon="12.9803225"><ele>226.0</ele><time>2026-04-12T15:10:42.818Z</time></trkpt><trkpt lat="43.4014872" lon="12.9802582"><ele>225.33333333333331</ele><time>2026-04-12T15:10:43.808Z</time></trkpt><trkpt lat="43.4016337" lon="12.9801839"><ele>224.66666666666669</ele><time>2026-04-12T15:10:44.82Z</time></trkpt><trkpt lat="43.4017694" lon="12.9800825"><ele>224.0</ele><time>2026-04-12T15:10:45.808Z</time></trkpt><trkpt lat="43.4018891" lon="12.979967"><ele>220.25</ele><time>2026-04-12T15:10:46.818Z</time></trkpt><trkpt lat="43.4019794" lon="12.9798238"><ele>216.5</ele><time>2026-04-12T15:10:47.817Z</time></trkpt><trkpt lat="43.4020462" lon="12.9796631"><ele>212.75</ele><time>2026-04-12T15:10:48.813Z</time></trkpt><trkpt lat="43.4020799" lon="12.9794792"><ele>209.0</ele><time>2026-04-12T15:10:49.817Z</time></trkpt><trkpt lat="43.4020992" lon="12.9793015"><ele>206.6</ele><time>2026-04-12T15:10:50.82Z</time></trkpt><trkpt lat="43.4021106" lon="12.979129"><ele>204.2</ele><time>2026-04-12T15:10:51.817Z</time></trkpt><trkpt lat="43.4021221" lon="12.9789631"><ele>201.79999999999998</ele><time>2026-04-12T15:10:52.817Z</time></trkpt><trkpt lat="43.402148" lon="12.9788218"><ele>199.39999999999998</ele><time>2026-04-12T15:10:53.818Z</time></trkpt><trkpt lat="43.4022009" lon="12.9787142"><ele>197.0</ele><time>2026-04-12T15:10:54.819Z</time></trkpt><trkpt lat="43.4022735" lon="12.9786506"><ele>196.8</ele><time>2026-04-12T15:10:55.815Z</time></trkpt><trkpt lat="43.4023552" lon="12.9786396"><ele>196.6</ele><time>2026-04-12T15:10:56.809Z</time></trkpt><trkpt lat="43.4024377" lon="12.9786975"><ele>196.4</ele><time>2026-04-12T15:10:57.823Z</time></trkpt><trkpt lat="43.4024956" lon="12.9787954"><ele>196.20000000000002</ele><time>2026-04-12T15:10:58.813Z</time></trkpt><trkpt lat="43.4025214" lon="12.9789273"><ele>196.0</ele><time>2026-04-12T15:10:59.805Z</time></trkpt><trkpt lat="43.4025098" lon="12.9790586"><ele>196.4</ele><time>2026-04-12T15:11:00.817Z</time></trkpt><trkpt lat="43.4024797" lon="12.9791882"><ele>196.8</ele><time>2026-04-12T15:11:01.817Z</time></trkpt><trkpt lat="43.4024369" lon="12.979331"><ele>197.20000000000002</ele><time>2026-04-12T15:11:02.814Z</time></trkpt><trkpt lat="43.402391" lon="12.9794861"><ele>197.60000000000002</ele><time>2026-04-12T15:11:03.81Z</time></trkpt><trkpt lat="43.4023587" lon="12.9796352"><ele>198.0</ele><time>2026-04-12T15:11:04.805Z</time></trkpt><trkpt lat="43.4023419" lon="12.9797876"><ele>198.0</ele><time>2026-04-12T15:11:05.803Z</time></trkpt><trkpt lat="43.4023337" lon="12.9799573"><ele>198.0</ele><time>2026-04-12T15:11:06.803Z</time></trkpt><trkpt lat="43.4023387" lon="12.9801385"><ele>198.0</ele><time>2026-04-12T15:11:07.812Z</time></trkpt><trkpt lat="43.4023493" lon="12.9803339"><ele>198.0</ele><time>2026-04-12T15:11:08.804Z</time></trkpt><trkpt lat="43.4023622" lon="12.9805289"><ele>198.25</ele><time>2026-04-12T15:11:09.801Z</time></trkpt><trkpt lat="43.402371" lon="12.9807172"><ele>198.5</ele><time>2026-04-12T15:11:10.814Z</time></trkpt><trkpt lat="43.40238" lon="12.9808963"><ele>198.75</ele><time>2026-04-12T15:11:11.812Z</time></trkpt><trkpt lat="43.4023863" lon="12.9810689"><ele>199.0</ele><time>2026-04-12T15:11:12.807Z</time></trkpt><trkpt lat="43.402393" lon="12.9812343"><ele>199.0</ele><time>2026-04-12T15:11:13.808Z</time></trkpt><trkpt lat="43.4023987" lon="12.9813912"><ele>199.0</ele><time>2026-04-12T15:11:14.804Z</time></trkpt><trkpt lat="43.4024216" lon="12.9815422"><ele>199.0</ele><time>2026-04-12T15:11:15.805Z</time></trkpt><trkpt lat="43.4024775" lon="12.9816723"><ele>199.0</ele><time>2026-04-12T15:11:16.809Z</time></trkpt><trkpt lat="43.4025506" lon="12.9817708"><ele>199.0</ele><time>2026-04-12T15:11:17.804Z</time></trkpt><trkpt lat="43.4026477" lon="12.9818346"><ele>203.0</ele><time>2026-04-12T15:11:18.804Z</time></trkpt><trkpt lat="43.4027727" lon="12.9818656"><ele>207.0</ele><time>2026-04-12T15:11:19.807Z</time></trkpt><trkpt lat="43.4029272" lon="12.9818654"><ele>211.0</ele><time>2026-04-12T15:11:20.802Z</time></trkpt><trkpt lat="43.4030823" lon="12.9818668"><ele>215.0</ele><time>2026-04-12T15:11:21.804Z</time></trkpt><trkpt lat="43.403252" lon="12.981863"><ele>216.33333333333334</ele><time>2026-04-12T15:11:22.808Z</time></trkpt><trkpt lat="43.4034331" lon="12.9818616"><ele>217.66666666666669</ele><time>2026-04-12T15:11:23.806Z</time></trkpt><trkpt lat="43.403617" lon="12.981852"><ele>219.0</ele><time>2026-04-12T15:11:24.815Z</time></trkpt><trkpt lat="43.403811" lon="12.9818337"><ele>219.66666666666669</ele><time>2026-04-12T15:11:25.811Z</time></trkpt><trkpt lat="43.4040115" lon="12.9818175"><ele>220.33333333333334</ele><time>2026-04-12T15:11:26.817Z</time></trkpt><trkpt lat="43.4042233" lon="12.9818035"><ele>221.0</ele><time>2026-04-12T15:11:27.805Z</time></trkpt><trkpt lat="43.4044415" lon="12.9817702"><ele>221.0</ele><time>2026-04-12T15:11:28.811Z</time></trkpt><trkpt lat="43.4046502" lon="12.9817181"><ele>221.0</ele><time>2026-04-12T15:11:29.812Z</time></trkpt><trkpt lat="43.4048434" lon="12.9816581"><ele>221.0</ele><time>2026-04-12T15:11:30.81Z</time></trkpt><trkpt lat="43.4050284" lon="12.9815909"><ele>216.0</ele><time>2026-04-12T15:11:31.815Z</time></trkpt><trkpt lat="43.4052018" lon="12.981524"><ele>211.0</ele><time>2026-04-12T15:11:32.811Z</time></trkpt><trkpt lat="43.4053718" lon="12.9814585"><ele>206.0</ele><time>2026-04-12T15:11:33.818Z</time></trkpt><trkpt lat="43.4055454" lon="12.9813958"><ele>206.0</ele><time>2026-04-12T15:11:34.809Z</time></trkpt><trkpt lat="43.4057034" lon="12.9813428"><ele>206.0</ele><time>2026-04-12T15:11:35.815Z</time></trkpt><trkpt lat="43.4058545" lon="12.9812899"><ele>206.0</ele><time>2026-04-12T15:11:36.818Z</time></trkpt><trkpt lat="43.4060005" lon="12.9812404"><ele>206.0</ele><time>2026-04-12T15:11:37.824Z</time></trkpt><trkpt lat="43.4061363" lon="12.9811998"><ele>206.0</ele><time>2026-04-12T15:11:38.816Z</time></trkpt><trkpt lat="43.406261" lon="12.9811581"><ele>206.0</ele><time>2026-04-12T15:11:39.814Z</time></trkpt><trkpt lat="43.4063721" lon="12.9811118"><ele>206.0</ele><time>2026-04-12T15:11:40.82Z</time></trkpt><trkpt lat="43.4064676" lon="12.9810702"><ele>206.66666666666669</ele><time>2026-04-12T15:11:41.819Z</time></trkpt><trkpt lat="43.4065476" lon="12.981021"><ele>207.33333333333334</ele><time>2026-04-12T15:11:42.801Z</time></trkpt><trkpt lat="43.4066039" lon="12.9809529"><ele>208.0</ele><time>2026-04-12T15:11:43.804Z</time></trkpt><trkpt lat="43.4066264" lon="12.9808465"><ele>208.66666666666669</ele><time>2026-04-12T15:11:44.811Z</time></trkpt><trkpt lat="43.406591" lon="12.9806901"><ele>209.33333333333334</ele><time>2026-04-12T15:11:46.804Z</time></trkpt><trkpt lat="43.4065396" lon="12.9806093"><ele>210.0</ele><time>2026-04-12T15:11:47.815Z</time></trkpt><trkpt lat="43.4064748" lon="12.9805061"><ele>205.8</ele><time>2026-04-12T15:11:48.81Z</time></trkpt><trkpt lat="43.4064101" lon="12.9803944"><ele>201.6</ele><time>2026-04-12T15:11:49.804Z</time></trkpt><trkpt lat="43.4063478" lon="12.9802707"><ele>197.39999999999998</ele><time>2026-04-12T15:11:50.808Z</time></trkpt><trkpt lat="43.4062864" lon="12.9801543"><ele>193.2</ele><time>2026-04-12T15:11:51.814Z</time></trkpt><trkpt lat="43.4062294" lon="12.9800435"><ele>189.0</ele><time>2026-04-12T15:11:52.809Z</time></trkpt><trkpt lat="43.4061811" lon="12.97995"><ele>188.42857142857142</ele><time>2026-04-12T15:11:53.822Z</time></trkpt><trkpt lat="43.4061428" lon="12.9798697"><ele>187.85714285714286</ele><time>2026-04-12T15:11:54.811Z</time></trkpt><trkpt lat="43.4060868" lon="12.9797689"><ele>187.28571428571428</ele><time>2026-04-12T15:11:56.81Z</time></trkpt><trkpt lat="43.4060463" lon="12.979701"><ele>186.71428571428572</ele><time>2026-04-12T15:12:00.821Z</time></trkpt><trkpt lat="43.4059977" lon="12.9796077"><ele>186.14285714285714</ele><time>2026-04-12T15:12:05.813Z</time></trkpt><trkpt lat="43.4059573" lon="12.9795378"><ele>185.57142857142856</ele><time>2026-04-12T15:12:07.813Z</time></trkpt><trkpt lat="43.4059189" lon="12.9794567"><ele>185.0</ele><time>2026-04-12T15:12:10.811Z</time></trkpt><trkpt lat="43.4058755" lon="12.9793652"><ele>185.0</ele><time>2026-04-12T15:12:14.808Z</time></trkpt><trkpt lat="43.4058265" lon="12.9792852"><ele>185.0</ele><time>2026-04-12T15:12:17.813Z</time></trkpt><trkpt lat="43.405838" lon="12.9793981"><ele>185.0</ele><time>2026-04-12T15:12:23.806Z</time></trkpt><trkpt lat="43.4058885" lon="12.9794695"><ele>185.0</ele><time>2026-04-12T15:12:24.809Z</time></trkpt><trkpt lat="43.4059495" lon="12.9795967"><ele>185.0</ele><time>2026-04-12T15:12:26.81Z</time></trkpt><trkpt lat="43.40599" lon="12.9795289"><ele>185.0</ele><time>2026-04-12T15:54:29.792Z</time></trkpt><trkpt lat="43.4059227" lon="12.9794298"><ele>185.0</ele><time>2026-04-12T16:18:58.799Z</time></trkpt><trkpt lat="43.4058735" lon="12.9793524"><ele>185.0</ele><time>2026-04-12T16:18:59.816Z</time></trkpt><trkpt lat="43.4058235" lon="12.979267"><ele>185.0</ele><time>2026-04-12T16:19:00.823Z</time></trkpt><trkpt lat="43.4057668" lon="12.9791676"><ele>185.0</ele><time>2026-04-12T16:19:01.811Z</time></trkpt><trkpt lat="43.4057084" lon="12.979053"><ele>185.0</ele><time>2026-04-12T16:19:02.811Z</time></trkpt><trkpt lat="43.4056464" lon="12.9789404"><ele>185.25</ele><time>2026-04-12T16:19:03.805Z</time></trkpt><trkpt lat="43.4055786" lon="12.9788228"><ele>185.5</ele><time>2026-04-12T16:19:04.801Z</time></trkpt><trkpt lat="43.4055045" lon="12.978692"><ele>185.75</ele><time>2026-04-12T16:19:05.8Z</time></trkpt><trkpt lat="43.4054306" lon="12.9785552"><ele>186.0</ele><time>2026-04-12T16:19:06.821Z</time></trkpt><trkpt lat="43.405357" lon="12.9784163"><ele>187.0</ele><time>2026-04-12T16:19:07.807Z</time></trkpt><trkpt lat="43.4052853" lon="12.9782758"><ele>188.0</ele><time>2026-04-12T16:19:08.806Z</time></trkpt><trkpt lat="43.4052126" lon="12.9781344"><ele>189.0</ele><time>2026-04-12T16:19:09.799Z</time></trkpt><trkpt lat="43.4051418" lon="12.977991"><ele>190.0</ele><time>2026-04-12T16:19:10.812Z</time></trkpt><trkpt lat="43.4050709" lon="12.9778364"><ele>190.0</ele><time>2026-04-12T16:19:11.809Z</time></trkpt><trkpt lat="43.4050054" lon="12.9776837"><ele>190.0</ele><time>2026-04-12T16:19:12.801Z</time></trkpt><trkpt lat="43.4049401" lon="12.9775208"><ele>190.0</ele><time>2026-04-12T16:19:13.797Z</time></trkpt><trkpt lat="43.4048858" lon="12.9773442"><ele>190.0</ele><time>2026-04-12T16:19:14.794Z</time></trkpt><trkpt lat="43.4048489" lon="12.9771572"><ele>192.25</ele><time>2026-04-12T16:19:15.799Z</time></trkpt><trkpt lat="43.404823" lon="12.9769697"><ele>194.5</ele><time>2026-04-12T16:19:16.791Z</time></trkpt><trkpt lat="43.4048042" lon="12.976791"><ele>196.75</ele><time>2026-04-12T16:19:17.808Z</time></trkpt><trkpt lat="43.4047865" lon="12.9766257"><ele>199.0</ele><time>2026-04-12T16:19:18.8Z</time></trkpt><trkpt lat="43.4047671" lon="12.9764747"><ele>201.33333333333331</ele><time>2026-04-12T16:19:19.794Z</time></trkpt><trkpt lat="43.404749" lon="12.9763373"><ele>203.66666666666666</ele><time>2026-04-12T16:19:20.812Z</time></trkpt><trkpt lat="43.4047339" lon="12.9762173"><ele>206.0</ele><time>2026-04-12T16:19:21.8Z</time></trkpt><trkpt lat="43.4047169" lon="12.9761149"><ele>208.33333333333331</ele><time>2026-04-12T16:19:22.799Z</time></trkpt><trkpt lat="43.4047022" lon="12.9759697"><ele>210.66666666666666</ele><time>2026-04-12T16:19:24.802Z</time></trkpt><trkpt lat="43.4046904" lon="12.9758811"><ele>213.0</ele><time>2026-04-12T16:19:27.806Z</time></trkpt><trkpt lat="43.4046645" lon="12.9757781"><ele>208.8</ele><time>2026-04-12T16:19:37.81Z</time></trkpt><trkpt lat="43.4046228" lon="12.9756145"><ele>204.60000000000002</ele><time>2026-04-12T16:19:39.805Z</time></trkpt><trkpt lat="43.404581" lon="12.9754822"><ele>200.39999999999998</ele><time>2026-04-12T16:19:41.82Z</time></trkpt><trkpt lat="43.4045221" lon="12.975385"><ele>196.2</ele><time>2026-04-12T16:19:43.804Z</time></trkpt><trkpt lat="43.4044801" lon="12.9753195"><ele>192.0</ele><time>2026-04-12T16:19:44.796Z</time></trkpt><trkpt lat="43.4044243" lon="12.9752291"><ele>192.0</ele><time>2026-04-12T16:19:45.81Z</time></trkpt><trkpt lat="43.4043595" lon="12.9751339"><ele>192.0</ele><time>2026-04-12T16:19:46.789Z</time></trkpt><trkpt lat="43.4042842" lon="12.9750332"><ele>192.0</ele><time>2026-04-12T16:19:47.794Z</time></trkpt><trkpt lat="43.404195" lon="12.9749367"><ele>192.0</ele><time>2026-04-12T16:19:48.802Z</time></trkpt><trkpt lat="43.4040915" lon="12.9748483"><ele>192.0</ele><time>2026-04-12T16:19:49.788Z</time></trkpt><trkpt lat="43.4039797" lon="12.9747772"><ele>193.0</ele><time>2026-04-12T16:19:50.797Z</time></trkpt><trkpt lat="43.4038605" lon="12.9747171"><ele>194.0</ele><time>2026-04-12T16:19:51.791Z</time></trkpt><trkpt lat="43.4037321" lon="12.9746739"><ele>195.0</ele><time>2026-04-12T16:19:52.806Z</time></trkpt><trkpt lat="43.4035854" lon="12.9746337"><ele>196.0</ele><time>2026-04-12T16:19:53.802Z</time></trkpt><trkpt lat="43.4034287" lon="12.9746021"><ele>196.0</ele><time>2026-04-12T16:19:54.805Z</time></trkpt><trkpt lat="43.4032673" lon="12.974582"><ele>196.0</ele><time>2026-04-12T16:19:55.809Z</time></trkpt><trkpt lat="43.4031046" lon="12.974557"><ele>196.0</ele><time>2026-04-12T16:19:56.8Z</time></trkpt><trkpt lat="43.4029356" lon="12.9745336"><ele>196.33333333333331</ele><time>2026-04-12T16:19:57.8Z</time></trkpt><trkpt lat="43.4027638" lon="12.9745083"><ele>196.66666666666669</ele><time>2026-04-12T16:19:58.805Z</time></trkpt><trkpt lat="43.4025903" lon="12.974485"><ele>197.0</ele><time>2026-04-12T16:19:59.814Z</time></trkpt><trkpt lat="43.4024187" lon="12.9744635"><ele>197.0</ele><time>2026-04-12T16:20:00.806Z</time></trkpt><trkpt lat="43.4022539" lon="12.9744389"><ele>197.0</ele><time>2026-04-12T16:20:01.807Z</time></trkpt><trkpt lat="43.4020948" lon="12.9743982"><ele>197.0</ele><time>2026-04-12T16:20:02.798Z</time></trkpt><trkpt lat="43.4019462" lon="12.9743435"><ele>201.25</ele><time>2026-04-12T16:20:03.811Z</time></trkpt><trkpt lat="43.4018265" lon="12.9742557"><ele>205.5</ele><time>2026-04-12T16:20:04.799Z</time></trkpt><trkpt lat="43.4017224" lon="12.9741457"><ele>209.75</ele><time>2026-04-12T16:20:05.796Z</time></trkpt><trkpt lat="43.4016346" lon="12.9739999"><ele>214.0</ele><time>2026-04-12T16:20:06.805Z</time></trkpt><trkpt lat="43.4015775" lon="12.9738086"><ele>214.0</ele><time>2026-04-12T16:20:07.816Z</time></trkpt><trkpt lat="43.4015352" lon="12.9736033"><ele>214.0</ele><time>2026-04-12T16:20:08.792Z</time></trkpt><trkpt lat="43.4014924" lon="12.9733977"><ele>214.0</ele><time>2026-04-12T16:20:09.799Z</time></trkpt><trkpt lat="43.4014484" lon="12.9731941"><ele>210.66666666666666</ele><time>2026-04-12T16:20:10.799Z</time></trkpt><trkpt lat="43.4013985" lon="12.9729883"><ele>207.33333333333331</ele><time>2026-04-12T16:20:11.799Z</time></trkpt><trkpt lat="43.4013523" lon="12.9727893"><ele>204.0</ele><time>2026-04-12T16:20:12.8Z</time></trkpt><trkpt lat="43.4013105" lon="12.9725985"><ele>204.75</ele><time>2026-04-12T16:20:13.796Z</time></trkpt><trkpt lat="43.4012723" lon="12.9724225"><ele>205.5</ele><time>2026-04-12T16:20:14.794Z</time></trkpt><trkpt lat="43.401236" lon="12.9722605"><ele>206.25</ele><time>2026-04-12T16:20:15.798Z</time></trkpt><trkpt lat="43.4012163" lon="12.9720925"><ele>207.0</ele><time>2026-04-12T16:20:16.796Z</time></trkpt><trkpt lat="43.4012146" lon="12.971919"><ele>207.0</ele><time>2026-04-12T16:20:17.791Z</time></trkpt><trkpt lat="43.4012359" lon="12.9717374"><ele>207.0</ele><time>2026-04-12T16:20:18.788Z</time></trkpt><trkpt lat="43.4012895" lon="12.971561"><ele>207.0</ele><time>2026-04-12T16:20:19.793Z</time></trkpt><trkpt lat="43.4013612" lon="12.9713899"><ele>207.0</ele><time>2026-04-12T16:20:20.794Z</time></trkpt><trkpt lat="43.4014355" lon="12.9712183"><ele>207.0</ele><time>2026-04-12T16:20:21.791Z</time></trkpt><trkpt lat="43.4015145" lon="12.9710487"><ele>207.0</ele><time>2026-04-12T16:20:22.788Z</time></trkpt><trkpt lat="43.4015908" lon="12.9708793"><ele>207.0</ele><time>2026-04-12T16:20:23.8Z</time></trkpt><trkpt lat="43.4016649" lon="12.9707101"><ele>207.0</ele><time>2026-04-12T16:20:24.793Z</time></trkpt><trkpt lat="43.4017431" lon="12.9705445"><ele>207.0</ele><time>2026-04-12T16:20:25.794Z</time></trkpt><trkpt lat="43.4018198" lon="12.970372"><ele>207.0</ele><time>2026-04-12T16:20:26.79Z</time></trkpt><trkpt lat="43.4019035" lon="12.9701929"><ele>207.0</ele><time>2026-04-12T16:20:27.835Z</time></trkpt><trkpt lat="43.4019857" lon="12.9700116"><ele>205.66666666666669</ele><time>2026-04-12T16:20:28.792Z</time></trkpt><trkpt lat="43.402066" lon="12.9698202"><ele>204.33333333333334</ele><time>2026-04-12T16:20:29.784Z</time></trkpt><trkpt lat="43.4021493" lon="12.9696297"><ele>203.0</ele><time>2026-04-12T16:20:30.792Z</time></trkpt><trkpt lat="43.4022294" lon="12.9694451"><ele>203.0</ele><time>2026-04-12T16:20:31.793Z</time></trkpt><trkpt lat="43.402309" lon="12.9692717"><ele>203.0</ele><time>2026-04-12T16:20:32.796Z</time></trkpt><trkpt lat="43.4023685" lon="12.9691007"><ele>203.0</ele><time>2026-04-12T16:20:33.794Z</time></trkpt><trkpt lat="43.4024132" lon="12.9689329"><ele>203.0</ele><time>2026-04-12T16:20:34.791Z</time></trkpt><trkpt lat="43.4024419" lon="12.968778"><ele>203.60000000000002</ele><time>2026-04-12T16:20:35.794Z</time></trkpt><trkpt lat="43.4024704" lon="12.9686356"><ele>204.20000000000002</ele><time>2026-04-12T16:20:36.798Z</time></trkpt><trkpt lat="43.4025074" lon="12.9685149"><ele>204.8</ele><time>2026-04-12T16:20:37.797Z</time></trkpt><trkpt lat="43.4025534" lon="12.9684101"><ele>205.4</ele><time>2026-04-12T16:20:38.795Z</time></trkpt><trkpt lat="43.40261" lon="12.9683234"><ele>206.0</ele><time>2026-04-12T16:20:39.8Z</time></trkpt><trkpt lat="43.4026512" lon="12.9682313"><ele>206.00000000000003</ele><time>2026-04-12T16:20:40.807Z</time></trkpt><trkpt lat="43.4026447" lon="12.9681306"><ele>206.0</ele><time>2026-04-12T16:20:41.784Z</time></trkpt><trkpt lat="43.4026136" lon="12.9680409"><ele>206.0</ele><time>2026-04-12T16:20:42.787Z</time></trkpt><trkpt lat="43.402555" lon="12.9679449"><ele>206.0</ele><time>2026-04-12T16:20:43.787Z</time></trkpt><trkpt lat="43.4024957" lon="12.9678338"><ele>206.00000000000003</ele><time>2026-04-12T16:20:44.786Z</time></trkpt><trkpt lat="43.4024449" lon="12.9676981"><ele>206.0</ele><time>2026-04-12T16:20:45.781Z</time></trkpt><trkpt lat="43.4024052" lon="12.967539"><ele>206.0</ele><time>2026-04-12T16:20:46.783Z</time></trkpt><trkpt lat="43.4023619" lon="12.9673776"><ele>206.0</ele><time>2026-04-12T16:20:47.783Z</time></trkpt><trkpt lat="43.4023044" lon="12.9672186"><ele>206.0</ele><time>2026-04-12T16:20:48.783Z</time></trkpt><trkpt lat="43.4022246" lon="12.9670474"><ele>206.0</ele><time>2026-04-12T16:20:49.786Z</time></trkpt><trkpt lat="43.4021307" lon="12.9668848"><ele>210.66666666666669</ele><time>2026-04-12T16:20:50.786Z</time></trkpt><trkpt lat="43.4020129" lon="12.9667321"><ele>215.33333333333331</ele><time>2026-04-12T16:20:51.787Z</time></trkpt><trkpt lat="43.4018648" lon="12.9666009"><ele>220.0</ele><time>2026-04-12T16:20:52.785Z</time></trkpt><trkpt lat="43.4016997" lon="12.9664671"><ele>220.0</ele><time>2026-04-12T16:20:53.785Z</time></trkpt><trkpt lat="43.4015329" lon="12.9663207"><ele>220.0</ele><time>2026-04-12T16:20:54.796Z</time></trkpt><trkpt lat="43.4013624" lon="12.9661755"><ele>220.0</ele><time>2026-04-12T16:20:55.782Z</time></trkpt><trkpt lat="43.4011924" lon="12.9660233"><ele>223.66666666666666</ele><time>2026-04-12T16:20:56.798Z</time></trkpt><trkpt lat="43.4010198" lon="12.9658778"><ele>227.33333333333331</ele><time>2026-04-12T16:20:57.783Z</time></trkpt><trkpt lat="43.4008624" lon="12.965737"><ele>231.0</ele><time>2026-04-12T16:20:58.784Z</time></trkpt><trkpt lat="43.4007252" lon="12.9655909"><ele>231.0</ele><time>2026-04-12T16:20:59.787Z</time></trkpt><trkpt lat="43.4006188" lon="12.9654277"><ele>231.0</ele><time>2026-04-12T16:21:00.786Z</time></trkpt><trkpt lat="43.4005396" lon="12.9652525"><ele>231.0</ele><time>2026-04-12T16:21:01.784Z</time></trkpt><trkpt lat="43.400494" lon="12.9650487"><ele>225.0</ele><time>2026-04-12T16:21:02.78Z</time></trkpt><trkpt lat="43.4004789" lon="12.9648229"><ele>219.0</ele><time>2026-04-12T16:21:03.786Z</time></trkpt><trkpt lat="43.4004869" lon="12.9645956"><ele>213.0</ele><time>2026-04-12T16:21:04.782Z</time></trkpt><trkpt lat="43.4005049" lon="12.9643755"><ele>214.33333333333331</ele><time>2026-04-12T16:21:05.787Z</time></trkpt><trkpt lat="43.4005224" lon="12.9641443"><ele>215.66666666666666</ele><time>2026-04-12T16:21:06.785Z</time></trkpt><trkpt lat="43.400541" lon="12.9639088"><ele>217.0</ele><time>2026-04-12T16:21:07.811Z</time></trkpt><trkpt lat="43.4005615" lon="12.963685"><ele>217.0</ele><time>2026-04-12T16:21:08.787Z</time></trkpt><trkpt lat="43.4005802" lon="12.9634576"><ele>217.0</ele><time>2026-04-12T16:21:09.792Z</time></trkpt><trkpt lat="43.4005992" lon="12.9632285"><ele>217.0</ele><time>2026-04-12T16:21:10.802Z</time></trkpt><trkpt lat="43.4005998" lon="12.9629957"><ele>218.0</ele><time>2026-04-12T16:21:11.789Z</time></trkpt><trkpt lat="43.4005649" lon="12.962762"><ele>219.0</ele><time>2026-04-12T16:21:12.788Z</time></trkpt><trkpt lat="43.4005172" lon="12.9625285"><ele>220.0</ele><time>2026-04-12T16:21:13.794Z</time></trkpt><trkpt lat="43.4004666" lon="12.9623062"><ele>230.0</ele><time>2026-04-12T16:21:14.784Z</time></trkpt><trkpt lat="43.4004181" lon="12.9620979"><ele>240.0</ele><time>2026-04-12T16:21:15.784Z</time></trkpt><trkpt lat="43.4003833" lon="12.9619004"><ele>250.0</ele><time>2026-04-12T16:21:16.787Z</time></trkpt><trkpt lat="43.400368" lon="12.9617101"><ele>260.0</ele><time>2026-04-12T16:21:17.782Z</time></trkpt><trkpt lat="43.4003712" lon="12.9615152"><ele>260.0</ele><time>2026-04-12T16:21:18.783Z</time></trkpt><trkpt lat="43.4003953" lon="12.9613261"><ele>260.0</ele><time>2026-04-12T16:21:19.789Z</time></trkpt><trkpt lat="43.4004345" lon="12.9611447"><ele>260.0</ele><time>2026-04-12T16:21:20.787Z</time></trkpt><trkpt lat="43.4004866" lon="12.9609738"><ele>260.0</ele><time>2026-04-12T16:21:21.782Z</time></trkpt><trkpt lat="43.4005478" lon="12.9608137"><ele>260.0</ele><time>2026-04-12T16:21:22.783Z</time></trkpt><trkpt lat="43.400606" lon="12.960663"><ele>260.0</ele><time>2026-04-12T16:21:23.787Z</time></trkpt><trkpt lat="43.4006646" lon="12.960524"><ele>260.0</ele><time>2026-04-12T16:21:24.785Z</time></trkpt><trkpt lat="43.400729" lon="12.9604169"><ele>260.0</ele><time>2026-04-12T16:21:25.788Z</time></trkpt><trkpt lat="43.4007884" lon="12.96037"><ele>260.0</ele><time>2026-04-12T16:21:26.786Z</time></trkpt><trkpt lat="43.4008725" lon="12.9603367"><ele>260.0</ele><time>2026-04-12T16:21:28.788Z</time></trkpt><trkpt lat="43.4009532" lon="12.9602787"><ele>260.0</ele><time>2026-04-12T16:21:31.79Z</time></trkpt><trkpt lat="43.4010228" lon="12.9602282"><ele>260.0</ele><time>2026-04-12T16:21:34.787Z</time></trkpt><trkpt lat="43.401082" lon="12.9601641"><ele>260.0</ele><time>2026-04-12T16:22:22.776Z</time></trkpt><trkpt lat="43.40118" lon="12.9600604"><ele>260.0</ele><time>2026-04-12T16:22:24.81Z</time></trkpt><trkpt lat="43.4012445" lon="12.9599776"><ele>260.0</ele><time>2026-04-12T16:22:25.82Z</time></trkpt><trkpt lat="43.4013189" lon="12.9598733"><ele>260.0</ele><time>2026-04-12T16:22:26.819Z</time></trkpt><trkpt lat="43.4014708" lon="12.9595857"><ele>260.0</ele><time>2026-04-12T16:22:28.781Z</time></trkpt><trkpt lat="43.4015492" lon="12.9594135"><ele>260.0</ele><time>2026-04-12T16:22:29.783Z</time></trkpt><trkpt lat="43.4016227" lon="12.9592277"><ele>260.0</ele><time>2026-04-12T16:22:30.776Z</time></trkpt><trkpt lat="43.4016774" lon="12.9590228"><ele>260.0</ele><time>2026-04-12T16:22:31.774Z</time></trkpt><trkpt lat="43.4017098" lon="12.9587924"><ele>260.0</ele><time>2026-04-12T16:22:32.779Z</time></trkpt><trkpt lat="43.4017214" lon="12.9585345"><ele>260.0</ele><time>2026-04-12T16:22:33.781Z</time></trkpt><trkpt lat="43.4017229" lon="12.958263"><ele>260.0</ele><time>2026-04-12T16:22:34.785Z</time></trkpt><trkpt lat="43.4017313" lon="12.9579709"><ele>260.0</ele><time>2026-04-12T16:22:35.773Z</time></trkpt><trkpt lat="43.4017398" lon="12.957667"><ele>260.0</ele><time>2026-04-12T16:22:36.775Z</time></trkpt><trkpt lat="43.401755" lon="12.9573713"><ele>260.0</ele><time>2026-04-12T16:22:37.775Z</time></trkpt><trkpt lat="43.4017799" lon="12.9571159"><ele>260.0</ele><time>2026-04-12T16:22:38.791Z</time></trkpt><trkpt lat="43.4018184" lon="12.9568788"><ele>260.0</ele><time>2026-04-12T16:22:39.846Z</time></trkpt><trkpt lat="43.4019027" lon="12.95648"><ele>260.0</ele><time>2026-04-12T16:22:41.773Z</time></trkpt><trkpt lat="43.4019186" lon="12.9563029"><ele>260.0</ele><time>2026-04-12T16:22:42.79Z</time></trkpt><trkpt lat="43.4018829" lon="12.9561432"><ele>260.0</ele><time>2026-04-12T16:22:43.786Z</time></trkpt><trkpt lat="43.4018036" lon="12.9559994"><ele>260.0</ele><time>2026-04-12T16:22:44.789Z</time></trkpt><trkpt lat="43.4017322" lon="12.955847"><ele>260.0</ele><time>2026-04-12T16:22:45.794Z</time></trkpt><trkpt lat="43.4016793" lon="12.9556473"><ele>260.0</ele><time>2026-04-12T16:22:46.803Z</time></trkpt><trkpt lat="43.4016698" lon="12.9553959"><ele>260.0</ele><time>2026-04-12T16:22:47.79Z</time></trkpt><trkpt lat="43.4016821" lon="12.955127"><ele>260.0</ele><time>2026-04-12T16:22:48.779Z</time></trkpt><trkpt lat="43.4017046" lon="12.954821"><ele>260.0</ele><time>2026-04-12T16:22:49.772Z</time></trkpt><trkpt lat="43.4017159" lon="12.9544946"><ele>260.0</ele><time>2026-04-12T16:22:50.798Z</time></trkpt><trkpt lat="43.4017272" lon="12.9541423"><ele>260.0</ele><time>2026-04-12T16:22:51.789Z</time></trkpt><trkpt lat="43.4017273" lon="12.9537693"><ele>260.0</ele><time>2026-04-12T16:22:52.793Z</time></trkpt><trkpt lat="43.4017172" lon="12.9533732"><ele>260.0</ele><time>2026-04-12T16:22:53.799Z</time></trkpt><trkpt lat="43.4016956" lon="12.952959"><ele>260.0</ele><time>2026-04-12T16:22:54.772Z</time></trkpt><trkpt lat="43.4016641" lon="12.9525452"><ele>260.0</ele><time>2026-04-12T16:22:55.776Z</time></trkpt><trkpt lat="43.4016604" lon="12.9521722"><ele>260.0</ele><time>2026-04-12T16:22:56.777Z</time></trkpt><trkpt lat="43.4016692" lon="12.9518258"><ele>260.0</ele><time>2026-04-12T16:22:57.789Z</time></trkpt><trkpt lat="43.4016979" lon="12.9515076"><ele>260.0</ele><time>2026-04-12T16:22:58.794Z</time></trkpt><trkpt lat="43.4017548" lon="12.951207"><ele>260.0</ele><time>2026-04-12T16:22:59.804Z</time></trkpt><trkpt lat="43.4018099" lon="12.9509336"><ele>260.0</ele><time>2026-04-12T16:23:00.8Z</time></trkpt><trkpt lat="43.4018572" lon="12.9506636"><ele>260.0</ele><time>2026-04-12T16:23:01.796Z</time></trkpt><trkpt lat="43.4019079" lon="12.9503953"><ele>260.0</ele><time>2026-04-12T16:23:02.803Z</time></trkpt><trkpt lat="43.4019497" lon="12.9501392"><ele>260.0</ele><time>2026-04-12T16:23:03.785Z</time></trkpt><trkpt lat="43.4020109" lon="12.9499009"><ele>262.0</ele><time>2026-04-12T16:23:04.788Z</time></trkpt><trkpt lat="43.4020806" lon="12.9496724"><ele>264.0</ele><time>2026-04-12T16:23:05.787Z</time></trkpt><trkpt lat="43.4021667" lon="12.9494667"><ele>266.0</ele><time>2026-04-12T16:23:06.783Z</time></trkpt><trkpt lat="43.4022712" lon="12.9492713"><ele>264.33333333333337</ele><time>2026-04-12T16:23:07.803Z</time></trkpt><trkpt lat="43.4023973" lon="12.949091"><ele>262.6666666666667</ele><time>2026-04-12T16:23:08.783Z</time></trkpt><trkpt lat="43.4025217" lon="12.9489534"><ele>261.0</ele><time>2026-04-12T16:23:09.804Z</time></trkpt><trkpt lat="43.4026552" lon="12.948827"><ele>261.0</ele><time>2026-04-12T16:23:10.801Z</time></trkpt><trkpt lat="43.4027936" lon="12.9487344"><ele>261.0</ele><time>2026-04-12T16:23:11.794Z</time></trkpt><trkpt lat="43.4029467" lon="12.9487179"><ele>261.0</ele><time>2026-04-12T16:23:12.797Z</time></trkpt><trkpt lat="43.403117" lon="12.9487332"><ele>258.0</ele><time>2026-04-12T16:23:13.804Z</time></trkpt><trkpt lat="43.4032863" lon="12.9487085"><ele>255.0</ele><time>2026-04-12T16:23:14.786Z</time></trkpt><trkpt lat="43.4034696" lon="12.9486295"><ele>252.0</ele><time>2026-04-12T16:23:15.792Z</time></trkpt><trkpt lat="43.4036609" lon="12.9485265"><ele>248.66666666666669</ele><time>2026-04-12T16:23:16.789Z</time></trkpt><trkpt lat="43.4038674" lon="12.9484241"><ele>245.33333333333334</ele><time>2026-04-12T16:23:17.79Z</time></trkpt><trkpt lat="43.4040656" lon="12.9483061"><ele>242.0</ele><time>2026-04-12T16:23:18.789Z</time></trkpt><trkpt lat="43.4042548" lon="12.9481782"><ele>242.0</ele><time>2026-04-12T16:23:19.782Z</time></trkpt><trkpt lat="43.4044234" lon="12.9480322"><ele>242.0</ele><time>2026-04-12T16:23:20.791Z</time></trkpt><trkpt lat="43.4045791" lon="12.9478655"><ele>242.0</ele><time>2026-04-12T16:23:21.784Z</time></trkpt><trkpt lat="43.404724" lon="12.9476744"><ele>247.66666666666669</ele><time>2026-04-12T16:23:22.791Z</time></trkpt><trkpt lat="43.4048413" lon="12.9474288"><ele>253.33333333333331</ele><time>2026-04-12T16:23:23.787Z</time></trkpt><trkpt lat="43.4049476" lon="12.9471564"><ele>259.0</ele><time>2026-04-12T16:23:24.797Z</time></trkpt><trkpt lat="43.4050479" lon="12.9468688"><ele>247.0</ele><time>2026-04-12T16:23:25.793Z</time></trkpt><trkpt lat="43.4051471" lon="12.9465783"><ele>235.0</ele><time>2026-04-12T16:23:26.787Z</time></trkpt><trkpt lat="43.4052456" lon="12.9462908"><ele>235.0</ele><time>2026-04-12T16:23:27.782Z</time></trkpt><trkpt lat="43.4053537" lon="12.946028"><ele>235.0</ele><time>2026-04-12T16:23:28.79Z</time></trkpt><trkpt lat="43.4054768" lon="12.9457877"><ele>235.0</ele><time>2026-04-12T16:23:29.795Z</time></trkpt><trkpt lat="43.4056191" lon="12.9455766"><ele>239.33333333333331</ele><time>2026-04-12T16:23:30.783Z</time></trkpt><trkpt lat="43.4057345" lon="12.9453394"><ele>243.66666666666669</ele><time>2026-04-12T16:23:31.782Z</time></trkpt><trkpt lat="43.4058375" lon="12.9450906"><ele>248.0</ele><time>2026-04-12T16:23:32.787Z</time></trkpt><trkpt lat="43.4058946" lon="12.9448082"><ele>248.0</ele><time>2026-04-12T16:23:33.787Z</time></trkpt><trkpt lat="43.4058804" lon="12.9444982"><ele>248.0</ele><time>2026-04-12T16:23:34.782Z</time></trkpt><trkpt lat="43.4058334" lon="12.9441876"><ele>248.5</ele><time>2026-04-12T16:23:35.778Z</time></trkpt><trkpt lat="43.4057664" lon="12.943866"><ele>249.0</ele><time>2026-04-12T16:23:36.79Z</time></trkpt><trkpt lat="43.4056959" lon="12.9435477"><ele>249.0</ele><time>2026-04-12T16:23:37.799Z</time></trkpt><trkpt lat="43.4056363" lon="12.9432289"><ele>249.0</ele><time>2026-04-12T16:23:38.794Z</time></trkpt><trkpt lat="43.4055936" lon="12.9429426"><ele>249.0</ele><time>2026-04-12T16:23:39.811Z</time></trkpt><trkpt lat="43.4055704" lon="12.9426821"><ele>249.0</ele><time>2026-04-12T16:23:40.799Z</time></trkpt><trkpt lat="43.40556" lon="12.9424344"><ele>249.0</ele><time>2026-04-12T16:23:41.785Z</time></trkpt><trkpt lat="43.4055694" lon="12.9422031"><ele>247.0</ele><time>2026-04-12T16:23:42.788Z</time></trkpt><trkpt lat="43.4056073" lon="12.9419807"><ele>245.0</ele><time>2026-04-12T16:23:43.797Z</time></trkpt><trkpt lat="43.4057255" lon="12.9418068"><ele>243.0</ele><time>2026-04-12T16:23:44.794Z</time></trkpt><trkpt lat="43.4058729" lon="12.9416307"><ele>239.66666666666669</ele><time>2026-04-12T16:23:45.78Z</time></trkpt><trkpt lat="43.4060368" lon="12.9414474"><ele>236.33333333333334</ele><time>2026-04-12T16:23:46.789Z</time></trkpt><trkpt lat="43.4062094" lon="12.9412478"><ele>233.0</ele><time>2026-04-12T16:23:47.786Z</time></trkpt><trkpt lat="43.4063744" lon="12.9410475"><ele>236.66666666666669</ele><time>2026-04-12T16:23:48.792Z</time></trkpt><trkpt lat="43.40651" lon="12.9408602"><ele>240.33333333333331</ele><time>2026-04-12T16:23:49.798Z</time></trkpt><trkpt lat="43.4066215" lon="12.9406341"><ele>244.0</ele><time>2026-04-12T16:23:50.795Z</time></trkpt><trkpt lat="43.4067046" lon="12.9403715"><ele>244.0</ele><time>2026-04-12T16:23:51.801Z</time></trkpt><trkpt lat="43.406763" lon="12.9400834"><ele>244.0</ele><time>2026-04-12T16:23:52.81Z</time></trkpt><trkpt lat="43.4068059" lon="12.9398036"><ele>244.0</ele><time>2026-04-12T16:23:53.799Z</time></trkpt><trkpt lat="43.4068333" lon="12.93951"><ele>236.0</ele><time>2026-04-12T16:23:54.8Z</time></trkpt><trkpt lat="43.4068554" lon="12.9392045"><ele>228.0</ele><time>2026-04-12T16:23:55.795Z</time></trkpt><trkpt lat="43.4068678" lon="12.9388886"><ele>228.0</ele><time>2026-04-12T16:23:56.798Z</time></trkpt><trkpt lat="43.406874" lon="12.9385871"><ele>228.0</ele><time>2026-04-12T16:23:57.795Z</time></trkpt><trkpt lat="43.4068761" lon="12.9382929"><ele>228.0</ele><time>2026-04-12T16:23:58.796Z</time></trkpt><trkpt lat="43.4068569" lon="12.9380176"><ele>228.33333333333331</ele><time>2026-04-12T16:23:59.799Z</time></trkpt><trkpt lat="43.4068119" lon="12.9377294"><ele>228.66666666666666</ele><time>2026-04-12T16:24:00.818Z</time></trkpt><trkpt lat="43.406746" lon="12.9374612"><ele>229.0</ele><time>2026-04-12T16:24:01.809Z</time></trkpt><trkpt lat="43.4066705" lon="12.9372219"><ele>230.0</ele><time>2026-04-12T16:24:02.81Z</time></trkpt><trkpt lat="43.4066" lon="12.9369931"><ele>231.0</ele><time>2026-04-12T16:24:03.791Z</time></trkpt><trkpt lat="43.4065536" lon="12.9367711"><ele>232.0</ele><time>2026-04-12T16:24:04.795Z</time></trkpt><trkpt lat="43.4065464" lon="12.9365612"><ele>232.33333333333331</ele><time>2026-04-12T16:24:05.8Z</time></trkpt><trkpt lat="43.4065775" lon="12.9363253"><ele>232.66666666666669</ele><time>2026-04-12T16:24:06.812Z</time></trkpt><trkpt lat="43.4066647" lon="12.9361016"><ele>233.0</ele><time>2026-04-12T16:24:07.806Z</time></trkpt><trkpt lat="43.4067713" lon="12.9358847"><ele>231.5</ele><time>2026-04-12T16:24:08.796Z</time></trkpt><trkpt lat="43.4069051" lon="12.9356558"><ele>230.0</ele><time>2026-04-12T16:24:09.802Z</time></trkpt><trkpt lat="43.4070484" lon="12.9353969"><ele>231.0</ele><time>2026-04-12T16:24:10.833Z</time></trkpt><trkpt lat="43.4073394" lon="12.9348422"><ele>231.0</ele><time>2026-04-12T16:24:12.808Z</time></trkpt><trkpt lat="43.4075015" lon="12.9345428"><ele>231.0</ele><time>2026-04-12T16:24:13.809Z</time></trkpt><trkpt lat="43.4076517" lon="12.9342502"><ele>228.5</ele><time>2026-04-12T16:24:14.797Z</time></trkpt><trkpt lat="43.407817" lon="12.9339317"><ele>226.0</ele><time>2026-04-12T16:24:15.828Z</time></trkpt><trkpt lat="43.407993" lon="12.9336065"><ele>228.0</ele><time>2026-04-12T16:24:16.812Z</time></trkpt><trkpt lat="43.4081649" lon="12.9332824"><ele>230.0</ele><time>2026-04-12T16:24:17.8Z</time></trkpt><trkpt lat="43.4083256" lon="12.9329666"><ele>230.0</ele><time>2026-04-12T16:24:18.807Z</time></trkpt><trkpt lat="43.4084717" lon="12.9326447"><ele>230.0</ele><time>2026-04-12T16:24:19.805Z</time></trkpt><trkpt lat="43.4085999" lon="12.9323003"><ele>236.0</ele><time>2026-04-12T16:24:20.823Z</time></trkpt><trkpt lat="43.4087097" lon="12.9319714"><ele>242.0</ele><time>2026-04-12T16:24:21.792Z</time></trkpt><trkpt lat="43.4088202" lon="12.9316314"><ele>237.0</ele><time>2026-04-12T16:24:22.804Z</time></trkpt><trkpt lat="43.4089321" lon="12.9312985"><ele>232.0</ele><time>2026-04-12T16:24:23.79Z</time></trkpt><trkpt lat="43.4090456" lon="12.9310003"><ele>235.5</ele><time>2026-04-12T16:24:24.803Z</time></trkpt><trkpt lat="43.4091725" lon="12.9307135"><ele>239.0</ele><time>2026-04-12T16:24:25.796Z</time></trkpt><trkpt lat="43.4093243" lon="12.9304626"><ele>239.0</ele><time>2026-04-12T16:24:26.789Z</time></trkpt><trkpt lat="43.4095038" lon="12.9302493"><ele>239.0</ele><time>2026-04-12T16:24:27.8Z</time></trkpt><trkpt lat="43.4097021" lon="12.930064"><ele>238.0</ele><time>2026-04-12T16:24:28.795Z</time></trkpt><trkpt lat="43.4099209" lon="12.9299274"><ele>237.0</ele><time>2026-04-12T16:24:29.793Z</time></trkpt><trkpt lat="43.4101495" lon="12.9298023"><ele>237.0</ele><time>2026-04-12T16:24:30.787Z</time></trkpt><trkpt lat="43.410376" lon="12.9296706"><ele>237.0</ele><time>2026-04-12T16:24:31.797Z</time></trkpt><trkpt lat="43.4106037" lon="12.9295768"><ele>234.5</ele><time>2026-04-12T16:24:32.794Z</time></trkpt><trkpt lat="43.4108363" lon="12.9294934"><ele>232.0</ele><time>2026-04-12T16:24:33.807Z</time></trkpt><trkpt lat="43.4110733" lon="12.9294309"><ele>232.0</ele><time>2026-04-12T16:24:34.801Z</time></trkpt><trkpt lat="43.411316" lon="12.9293786"><ele>232.0</ele><time>2026-04-12T16:24:35.813Z</time></trkpt><trkpt lat="43.411554" lon="12.929355"><ele>231.5</ele><time>2026-04-12T16:24:36.811Z</time></trkpt><trkpt lat="43.4118062" lon="12.9293724"><ele>231.0</ele><time>2026-04-12T16:24:37.804Z</time></trkpt><trkpt lat="43.4120714" lon="12.9293966"><ele>230.5</ele><time>2026-04-12T16:24:38.804Z</time></trkpt><trkpt lat="43.4123412" lon="12.9294162"><ele>230.0</ele><time>2026-04-12T16:24:39.798Z</time></trkpt><trkpt lat="43.4126155" lon="12.9294335"><ele>230.0</ele><time>2026-04-12T16:24:40.8Z</time></trkpt><trkpt lat="43.4128955" lon="12.9294527"><ele>230.0</ele><time>2026-04-12T16:24:41.792Z</time></trkpt><trkpt lat="43.4131779" lon="12.9294736"><ele>230.5</ele><time>2026-04-12T16:24:42.792Z</time></trkpt><trkpt lat="43.4134666" lon="12.9295068"><ele>231.0</ele><time>2026-04-12T16:24:43.799Z</time></trkpt><trkpt lat="43.4137507" lon="12.9295626"><ele>233.0</ele><time>2026-04-12T16:24:44.8Z</time></trkpt><trkpt lat="43.4140346" lon="12.9296411"><ele>235.0</ele><time>2026-04-12T16:24:45.799Z</time></trkpt><trkpt lat="43.4143134" lon="12.9297333"><ele>235.0</ele><time>2026-04-12T16:24:46.796Z</time></trkpt><trkpt lat="43.4146013" lon="12.9298303"><ele>235.0</ele><time>2026-04-12T16:24:47.797Z</time></trkpt><trkpt lat="43.414894" lon="12.9299243"><ele>233.0</ele><time>2026-04-12T16:24:48.799Z</time></trkpt><trkpt lat="43.415185" lon="12.9300105"><ele>231.0</ele><time>2026-04-12T16:24:49.802Z</time></trkpt><trkpt lat="43.4154771" lon="12.9300973"><ele>231.0</ele><time>2026-04-12T16:24:50.789Z</time></trkpt><trkpt lat="43.4157696" lon="12.9301798"><ele>231.0</ele><time>2026-04-12T16:24:51.791Z</time></trkpt><trkpt lat="43.4160607" lon="12.9302528"><ele>231.5</ele><time>2026-04-12T16:24:52.794Z</time></trkpt><trkpt lat="43.41635" lon="12.9303236"><ele>232.0</ele><time>2026-04-12T16:24:53.798Z</time></trkpt><trkpt lat="43.4166416" lon="12.9303928"><ele>232.0</ele><time>2026-04-12T16:24:54.801Z</time></trkpt><trkpt lat="43.4169306" lon="12.9304489"><ele>232.0</ele><time>2026-04-12T16:24:55.808Z</time></trkpt><trkpt lat="43.4172252" lon="12.9305072"><ele>233.0</ele><time>2026-04-12T16:24:56.798Z</time></trkpt><trkpt lat="43.417519" lon="12.9305694"><ele>234.0</ele><time>2026-04-12T16:24:57.781Z</time></trkpt><trkpt lat="43.4178089" lon="12.930632"><ele>236.0</ele><time>2026-04-12T16:24:58.804Z</time></trkpt><trkpt lat="43.418107" lon="12.930694"><ele>238.0</ele><time>2026-04-12T16:24:59.811Z</time></trkpt><trkpt lat="43.4184055" lon="12.9307551"><ele>238.0</ele><time>2026-04-12T16:25:00.782Z</time></trkpt><trkpt lat="43.4187038" lon="12.9308051"><ele>238.0</ele><time>2026-04-12T16:25:01.8Z</time></trkpt><trkpt lat="43.4190022" lon="12.9308601"><ele>234.5</ele><time>2026-04-12T16:25:02.805Z</time></trkpt><trkpt lat="43.4192954" lon="12.9309079"><ele>231.0</ele><time>2026-04-12T16:25:03.78Z</time></trkpt><trkpt lat="43.4195875" lon="12.930951"><ele>231.5</ele><time>2026-04-12T16:25:04.793Z</time></trkpt><trkpt lat="43.4198803" lon="12.931"><ele>232.0</ele><time>2026-04-12T16:25:05.783Z</time></trkpt><trkpt lat="43.4201687" lon="12.9310466"><ele>232.0</ele><time>2026-04-12T16:25:06.781Z</time></trkpt><trkpt lat="43.420462" lon="12.9310924"><ele>232.0</ele><time>2026-04-12T16:25:07.786Z</time></trkpt><trkpt lat="43.4207504" lon="12.9311332"><ele>233.0</ele><time>2026-04-12T16:25:08.784Z</time></trkpt><trkpt lat="43.4210363" lon="12.9311796"><ele>234.0</ele><time>2026-04-12T16:25:09.817Z</time></trkpt><trkpt lat="43.4213227" lon="12.9312262"><ele>236.5</ele><time>2026-04-12T16:25:10.793Z</time></trkpt><trkpt lat="43.4216137" lon="12.9312717"><ele>239.0</ele><time>2026-04-12T16:25:11.81Z</time></trkpt><trkpt lat="43.4219018" lon="12.9313201"><ele>240.5</ele><time>2026-04-12T16:25:12.789Z</time></trkpt><trkpt lat="43.4221882" lon="12.9313736"><ele>242.0</ele><time>2026-04-12T16:25:13.784Z</time></trkpt><trkpt lat="43.4224696" lon="12.9314403"><ele>242.0</ele><time>2026-04-12T16:25:14.788Z</time></trkpt><trkpt lat="43.4227451" lon="12.93153"><ele>242.0</ele><time>2026-04-12T16:25:15.786Z</time></trkpt><trkpt lat="43.4230146" lon="12.9316559"><ele>238.5</ele><time>2026-04-12T16:25:16.802Z</time></trkpt><trkpt lat="43.4232732" lon="12.9317867"><ele>235.0</ele><time>2026-04-12T16:25:17.782Z</time></trkpt><trkpt lat="43.4235324" lon="12.931922"><ele>235.0</ele><time>2026-04-12T16:25:18.782Z</time></trkpt><trkpt lat="43.4237769" lon="12.9320554"><ele>235.0</ele><time>2026-04-12T16:25:19.784Z</time></trkpt><trkpt lat="43.4240035" lon="12.9321745"><ele>238.0</ele><time>2026-04-12T16:25:20.784Z</time></trkpt><trkpt lat="43.4242084" lon="12.9322952"><ele>241.0</ele><time>2026-04-12T16:25:21.778Z</time></trkpt><trkpt lat="43.4244074" lon="12.9324072"><ele>244.0</ele><time>2026-04-12T16:25:22.779Z</time></trkpt><trkpt lat="43.4246062" lon="12.9325138"><ele>242.0</ele><time>2026-04-12T16:25:23.778Z</time></trkpt><trkpt lat="43.424806" lon="12.9325974"><ele>240.0</ele><time>2026-04-12T16:25:24.808Z</time></trkpt><trkpt lat="43.4250031" lon="12.9326465"><ele>238.0</ele><time>2026-04-12T16:25:25.783Z</time></trkpt><trkpt lat="43.4251954" lon="12.9326631"><ele>238.0</ele><time>2026-04-12T16:25:26.785Z</time></trkpt><trkpt lat="43.4253717" lon="12.9326537"><ele>238.0</ele><time>2026-04-12T16:25:27.783Z</time></trkpt><trkpt lat="43.4255386" lon="12.9326245"><ele>238.0</ele><time>2026-04-12T16:25:28.778Z</time></trkpt><trkpt lat="43.4256863" lon="12.9325859"><ele>241.25</ele><time>2026-04-12T16:25:29.808Z</time></trkpt><trkpt lat="43.4258138" lon="12.9325332"><ele>244.5</ele><time>2026-04-12T16:25:30.811Z</time></trkpt><trkpt lat="43.4259315" lon="12.9324824"><ele>247.75</ele><time>2026-04-12T16:25:31.792Z</time></trkpt><trkpt lat="43.4260344" lon="12.9324139"><ele>251.0</ele><time>2026-04-12T16:25:32.782Z</time></trkpt><trkpt lat="43.4261314" lon="12.9323023"><ele>251.0</ele><time>2026-04-12T16:25:33.798Z</time></trkpt><trkpt lat="43.4262278" lon="12.9321541"><ele>251.0</ele><time>2026-04-12T16:25:34.798Z</time></trkpt><trkpt lat="43.426316" lon="12.9319676"><ele>251.0</ele><time>2026-04-12T16:25:35.785Z</time></trkpt><trkpt lat="43.4264137" lon="12.9317559"><ele>248.0</ele><time>2026-04-12T16:25:36.791Z</time></trkpt><trkpt lat="43.4265145" lon="12.931533"><ele>245.0</ele><time>2026-04-12T16:25:37.797Z</time></trkpt><trkpt lat="43.4266112" lon="12.9312855"><ele>242.0</ele><time>2026-04-12T16:25:38.775Z</time></trkpt><trkpt lat="43.4267037" lon="12.9310311"><ele>246.33333333333334</ele><time>2026-04-12T16:25:39.782Z</time></trkpt><trkpt lat="43.4267959" lon="12.9307779"><ele>250.66666666666669</ele><time>2026-04-12T16:25:40.782Z</time></trkpt><trkpt lat="43.426887" lon="12.9305606"><ele>255.0</ele><time>2026-04-12T16:25:41.779Z</time></trkpt><trkpt lat="43.4269749" lon="12.930372"><ele>255.0</ele><time>2026-04-12T16:25:42.781Z</time></trkpt><trkpt lat="43.4270471" lon="12.9302032"><ele>255.0</ele><time>2026-04-12T16:25:43.8Z</time></trkpt><trkpt lat="43.4270855" lon="12.9300086"><ele>255.0</ele><time>2026-04-12T16:25:44.781Z</time></trkpt><trkpt lat="43.4270866" lon="12.9297841"><ele>257.0</ele><time>2026-04-12T16:25:45.783Z</time></trkpt><trkpt lat="43.4270498" lon="12.9295465"><ele>259.0</ele><time>2026-04-12T16:25:46.779Z</time></trkpt><trkpt lat="43.4269976" lon="12.9292742"><ele>261.0</ele><time>2026-04-12T16:25:47.777Z</time></trkpt><trkpt lat="43.4269328" lon="12.9289839"><ele>261.0</ele><time>2026-04-12T16:25:48.8Z</time></trkpt><trkpt lat="43.4268648" lon="12.928689"><ele>261.0</ele><time>2026-04-12T16:25:49.8Z</time></trkpt></trkseg></trk></gpx>